<?xml version="1.0" encoding="UTF-8" standalone="no" ?>
<gpx xmlns="http://www.topografix.com/GPX/1/1" xmlns:xsi="http://www.w3.org/2001/XMLSchema-instance" xsi:schemaLocation="http://www.topografix.com/GPX/1/1 http://www.topografix.com/GPX/1/1/gpx.xsd" version="1.1" creator="VisuGPX - https://www.visugpx.com">
  <metadata>
    <name>UltraGrandMechantLoupBlanc 2016</name>
    <desc><![CDATA[Parcours des 10ans du trail du Loup blanc, l'Ultra Grand Méchant Loup Blanc est un trail hivernal  passant dans les monts de Guéret.]]></desc>
  </metadata>
  <trk>
    <name><![CDATA[OR-6664940--Guéret:UGMLB]]></name>
    <trkseg>
      <trkpt lat="46.16638" lon="1.86646">
        <ele>508</ele>
        <time>2016-12-01T21:41:09Z</time>
      </trkpt>
      <trkpt lat="46.16635" lon="1.86646">
        <ele>509</ele>
        <time>2016-12-01T21:43:09Z</time>
      </trkpt>
      <trkpt lat="46.16628" lon="1.86645">
        <ele>510</ele>
        <time>2016-12-01T21:45:09Z</time>
      </trkpt>
      <trkpt lat="46.16625" lon="1.86645">
        <ele>510</ele>
        <time>2016-12-01T21:47:09Z</time>
      </trkpt>
      <trkpt lat="46.16624" lon="1.86643">
        <ele>510</ele>
        <time>2016-12-01T21:49:09Z</time>
      </trkpt>
      <trkpt lat="46.16623" lon="1.8664">
        <ele>511</ele>
        <time>2016-12-01T21:51:09Z</time>
      </trkpt>
      <trkpt lat="46.16624" lon="1.86638">
        <ele>511</ele>
        <time>2016-12-01T21:53:09Z</time>
      </trkpt>
      <trkpt lat="46.16625" lon="1.86636">
        <ele>511</ele>
        <time>2016-12-01T21:55:09Z</time>
      </trkpt>
      <trkpt lat="46.16629" lon="1.86631">
        <ele>511</ele>
        <time>2016-12-01T21:57:09Z</time>
      </trkpt>
      <trkpt lat="46.16633" lon="1.86625">
        <ele>511</ele>
        <time>2016-12-01T21:59:09Z</time>
      </trkpt>
      <trkpt lat="46.16635" lon="1.86622">
        <ele>511</ele>
        <time>2016-12-01T22:01:09Z</time>
      </trkpt>
      <trkpt lat="46.16639" lon="1.86616">
        <ele>511</ele>
        <time>2016-12-01T22:03:09Z</time>
      </trkpt>
      <trkpt lat="46.16643" lon="1.8661">
        <ele>511</ele>
        <time>2016-12-01T22:05:09Z</time>
      </trkpt>
      <trkpt lat="46.16645" lon="1.86607">
        <ele>511</ele>
        <time>2016-12-01T22:07:09Z</time>
      </trkpt>
      <trkpt lat="46.16647" lon="1.86604">
        <ele>511</ele>
        <time>2016-12-01T22:09:09Z</time>
      </trkpt>
      <trkpt lat="46.16651" lon="1.86599">
        <ele>511</ele>
        <time>2016-12-01T22:11:09Z</time>
      </trkpt>
      <trkpt lat="46.16652" lon="1.86595">
        <ele>511</ele>
        <time>2016-12-01T22:13:09Z</time>
      </trkpt>
      <trkpt lat="46.16656" lon="1.86589">
        <ele>511</ele>
        <time>2016-12-01T22:15:09Z</time>
      </trkpt>
      <trkpt lat="46.16658" lon="1.86581">
        <ele>511</ele>
        <time>2016-12-01T22:17:09Z</time>
      </trkpt>
      <trkpt lat="46.16661" lon="1.86562">
        <ele>512</ele>
        <time>2016-12-01T22:19:09Z</time>
      </trkpt>
      <trkpt lat="46.16662" lon="1.86553">
        <ele>512</ele>
        <time>2016-12-01T22:21:09Z</time>
      </trkpt>
      <trkpt lat="46.16663" lon="1.86541">
        <ele>513</ele>
        <time>2016-12-01T22:23:09Z</time>
      </trkpt>
      <trkpt lat="46.16663" lon="1.86537">
        <ele>513</ele>
        <time>2016-12-01T22:25:09Z</time>
      </trkpt>
      <trkpt lat="46.16663" lon="1.86529">
        <ele>514</ele>
        <time>2016-12-01T22:27:09Z</time>
      </trkpt>
      <trkpt lat="46.16662" lon="1.86529">
        <ele>514</ele>
        <time>2016-12-01T22:29:09Z</time>
      </trkpt>
      <trkpt lat="46.16663" lon="1.86529">
        <ele>514</ele>
        <time>2016-12-01T22:31:09Z</time>
      </trkpt>
      <trkpt lat="46.16663" lon="1.8652">
        <ele>514</ele>
        <time>2016-12-01T22:33:09Z</time>
      </trkpt>
      <trkpt lat="46.16663" lon="1.86516">
        <ele>514</ele>
        <time>2016-12-01T22:35:09Z</time>
      </trkpt>
      <trkpt lat="46.16663" lon="1.86509">
        <ele>515</ele>
        <time>2016-12-01T22:37:09Z</time>
      </trkpt>
      <trkpt lat="46.16662" lon="1.86498">
        <ele>515</ele>
        <time>2016-12-01T22:39:09Z</time>
      </trkpt>
      <trkpt lat="46.16661" lon="1.86494">
        <ele>515</ele>
        <time>2016-12-01T22:41:09Z</time>
      </trkpt>
      <trkpt lat="46.16661" lon="1.86487">
        <ele>515</ele>
        <time>2016-12-01T22:43:09Z</time>
      </trkpt>
      <trkpt lat="46.16661" lon="1.86484">
        <ele>515</ele>
        <time>2016-12-01T22:45:09Z</time>
      </trkpt>
      <trkpt lat="46.16659" lon="1.8648">
        <ele>515</ele>
        <time>2016-12-01T22:47:09Z</time>
      </trkpt>
      <trkpt lat="46.16657" lon="1.86478">
        <ele>515</ele>
        <time>2016-12-01T22:49:09Z</time>
      </trkpt>
      <trkpt lat="46.16654" lon="1.86472">
        <ele>515</ele>
        <time>2016-12-01T22:51:09Z</time>
      </trkpt>
      <trkpt lat="46.1665" lon="1.86466">
        <ele>515</ele>
        <time>2016-12-01T22:53:09Z</time>
      </trkpt>
      <trkpt lat="46.16647" lon="1.86463">
        <ele>515</ele>
        <time>2016-12-01T22:55:09Z</time>
      </trkpt>
      <trkpt lat="46.16643" lon="1.86461">
        <ele>516</ele>
        <time>2016-12-01T22:57:09Z</time>
      </trkpt>
      <trkpt lat="46.16641" lon="1.8646">
        <ele>516</ele>
        <time>2016-12-01T22:59:09Z</time>
      </trkpt>
      <trkpt lat="46.16639" lon="1.86457">
        <ele>516</ele>
        <time>2016-12-01T23:01:09Z</time>
      </trkpt>
      <trkpt lat="46.16636" lon="1.86451">
        <ele>516</ele>
        <time>2016-12-01T23:03:09Z</time>
      </trkpt>
      <trkpt lat="46.16635" lon="1.86447">
        <ele>516</ele>
        <time>2016-12-01T23:05:09Z</time>
      </trkpt>
      <trkpt lat="46.16632" lon="1.8644">
        <ele>516</ele>
        <time>2016-12-01T23:07:09Z</time>
      </trkpt>
      <trkpt lat="46.1663" lon="1.86434">
        <ele>516</ele>
        <time>2016-12-01T23:09:09Z</time>
      </trkpt>
      <trkpt lat="46.16628" lon="1.86431">
        <ele>516</ele>
        <time>2016-12-01T23:11:09Z</time>
      </trkpt>
      <trkpt lat="46.16624" lon="1.86426">
        <ele>516</ele>
        <time>2016-12-01T23:13:09Z</time>
      </trkpt>
      <trkpt lat="46.16612" lon="1.86412">
        <ele>517</ele>
        <time>2016-12-01T23:15:09Z</time>
      </trkpt>
      <trkpt lat="46.1661" lon="1.86411">
        <ele>517</ele>
        <time>2016-12-01T23:17:09Z</time>
      </trkpt>
      <trkpt lat="46.16607" lon="1.86408">
        <ele>517</ele>
        <time>2016-12-01T23:19:09Z</time>
      </trkpt>
      <trkpt lat="46.16605" lon="1.86407">
        <ele>517</ele>
        <time>2016-12-01T23:21:09Z</time>
      </trkpt>
      <trkpt lat="46.16603" lon="1.86404">
        <ele>517</ele>
        <time>2016-12-01T23:23:09Z</time>
      </trkpt>
      <trkpt lat="46.16601" lon="1.86401">
        <ele>517</ele>
        <time>2016-12-01T23:25:09Z</time>
      </trkpt>
      <trkpt lat="46.16599" lon="1.86398">
        <ele>517</ele>
        <time>2016-12-01T23:27:09Z</time>
      </trkpt>
      <trkpt lat="46.16597" lon="1.86397">
        <ele>517</ele>
        <time>2016-12-01T23:29:09Z</time>
      </trkpt>
      <trkpt lat="46.16594" lon="1.86394">
        <ele>517</ele>
        <time>2016-12-01T23:31:09Z</time>
      </trkpt>
      <trkpt lat="46.16592" lon="1.86392">
        <ele>517</ele>
        <time>2016-12-01T23:33:09Z</time>
      </trkpt>
      <trkpt lat="46.1659" lon="1.86388">
        <ele>517</ele>
        <time>2016-12-01T23:35:09Z</time>
      </trkpt>
      <trkpt lat="46.16584" lon="1.86382">
        <ele>517</ele>
        <time>2016-12-01T23:37:09Z</time>
      </trkpt>
      <trkpt lat="46.1658" lon="1.86377">
        <ele>517</ele>
        <time>2016-12-01T23:39:09Z</time>
      </trkpt>
      <trkpt lat="46.1657" lon="1.86366">
        <ele>517</ele>
        <time>2016-12-01T23:41:09Z</time>
      </trkpt>
      <trkpt lat="46.16568" lon="1.86363">
        <ele>517</ele>
        <time>2016-12-01T23:43:09Z</time>
      </trkpt>
      <trkpt lat="46.1656" lon="1.86354">
        <ele>517</ele>
        <time>2016-12-01T23:45:09Z</time>
      </trkpt>
      <trkpt lat="46.16557" lon="1.86352">
        <ele>517</ele>
        <time>2016-12-01T23:47:09Z</time>
      </trkpt>
      <trkpt lat="46.16551" lon="1.86345">
        <ele>517</ele>
        <time>2016-12-01T23:49:09Z</time>
      </trkpt>
      <trkpt lat="46.16546" lon="1.86337">
        <ele>517</ele>
        <time>2016-12-01T23:51:09Z</time>
      </trkpt>
      <trkpt lat="46.16543" lon="1.8633">
        <ele>516</ele>
        <time>2016-12-01T23:53:09Z</time>
      </trkpt>
      <trkpt lat="46.1654" lon="1.86327">
        <ele>517</ele>
        <time>2016-12-01T23:55:09Z</time>
      </trkpt>
      <trkpt lat="46.16538" lon="1.8632">
        <ele>516</ele>
        <time>2016-12-01T23:57:09Z</time>
      </trkpt>
      <trkpt lat="46.16536" lon="1.86318">
        <ele>516</ele>
        <time>2016-12-01T23:59:09Z</time>
      </trkpt>
      <trkpt lat="46.16534" lon="1.86315">
        <ele>516</ele>
        <time>2016-12-02T00:01:09Z</time>
      </trkpt>
      <trkpt lat="46.16531" lon="1.86308">
        <ele>516</ele>
        <time>2016-12-02T00:03:09Z</time>
      </trkpt>
      <trkpt lat="46.16524" lon="1.86295">
        <ele>515</ele>
        <time>2016-12-02T00:05:09Z</time>
      </trkpt>
      <trkpt lat="46.16523" lon="1.86292">
        <ele>515</ele>
        <time>2016-12-02T00:07:09Z</time>
      </trkpt>
      <trkpt lat="46.16519" lon="1.86287">
        <ele>515</ele>
        <time>2016-12-02T00:09:09Z</time>
      </trkpt>
      <trkpt lat="46.16515" lon="1.86283">
        <ele>515</ele>
        <time>2016-12-02T00:11:09Z</time>
      </trkpt>
      <trkpt lat="46.16513" lon="1.86281">
        <ele>515</ele>
        <time>2016-12-02T00:13:09Z</time>
      </trkpt>
      <trkpt lat="46.16506" lon="1.86274">
        <ele>516</ele>
        <time>2016-12-02T00:15:09Z</time>
      </trkpt>
      <trkpt lat="46.16504" lon="1.86272">
        <ele>516</ele>
        <time>2016-12-02T00:17:09Z</time>
      </trkpt>
      <trkpt lat="46.165" lon="1.86268">
        <ele>516</ele>
        <time>2016-12-02T00:19:09Z</time>
      </trkpt>
      <trkpt lat="46.16493" lon="1.86257">
        <ele>516</ele>
        <time>2016-12-02T00:21:09Z</time>
      </trkpt>
      <trkpt lat="46.16489" lon="1.86248">
        <ele>516</ele>
        <time>2016-12-02T00:23:09Z</time>
      </trkpt>
      <trkpt lat="46.16485" lon="1.86238">
        <ele>516</ele>
        <time>2016-12-02T00:25:09Z</time>
      </trkpt>
      <trkpt lat="46.1648" lon="1.86228">
        <ele>516</ele>
        <time>2016-12-02T00:27:09Z</time>
      </trkpt>
      <trkpt lat="46.16477" lon="1.8622">
        <ele>515</ele>
        <time>2016-12-02T00:29:09Z</time>
      </trkpt>
      <trkpt lat="46.16476" lon="1.86217">
        <ele>515</ele>
        <time>2016-12-02T00:31:09Z</time>
      </trkpt>
      <trkpt lat="46.16475" lon="1.86212">
        <ele>515</ele>
        <time>2016-12-02T00:33:09Z</time>
      </trkpt>
      <trkpt lat="46.16473" lon="1.86207">
        <ele>515</ele>
        <time>2016-12-02T00:35:09Z</time>
      </trkpt>
      <trkpt lat="46.1647" lon="1.86206">
        <ele>515</ele>
        <time>2016-12-02T00:37:09Z</time>
      </trkpt>
      <trkpt lat="46.16469" lon="1.86205">
        <ele>515</ele>
        <time>2016-12-02T00:39:09Z</time>
      </trkpt>
      <trkpt lat="46.16467" lon="1.86202">
        <ele>515</ele>
        <time>2016-12-02T00:41:09Z</time>
      </trkpt>
      <trkpt lat="46.16466" lon="1.86201">
        <ele>515</ele>
        <time>2016-12-02T00:43:09Z</time>
      </trkpt>
      <trkpt lat="46.16463" lon="1.862">
        <ele>516</ele>
        <time>2016-12-02T00:45:09Z</time>
      </trkpt>
      <trkpt lat="46.16461" lon="1.86199">
        <ele>516</ele>
        <time>2016-12-02T00:47:09Z</time>
      </trkpt>
      <trkpt lat="46.16459" lon="1.86196">
        <ele>516</ele>
        <time>2016-12-02T00:49:09Z</time>
      </trkpt>
      <trkpt lat="46.16458" lon="1.86194">
        <ele>516</ele>
        <time>2016-12-02T00:51:09Z</time>
      </trkpt>
      <trkpt lat="46.16456" lon="1.86192">
        <ele>516</ele>
        <time>2016-12-02T00:53:09Z</time>
      </trkpt>
      <trkpt lat="46.16453" lon="1.86186">
        <ele>516</ele>
        <time>2016-12-02T00:55:09Z</time>
      </trkpt>
      <trkpt lat="46.1645" lon="1.86185">
        <ele>516</ele>
        <time>2016-12-02T00:57:09Z</time>
      </trkpt>
      <trkpt lat="46.16444" lon="1.86178">
        <ele>516</ele>
        <time>2016-12-02T00:59:09Z</time>
      </trkpt>
      <trkpt lat="46.1644" lon="1.86169">
        <ele>516</ele>
        <time>2016-12-02T01:01:09Z</time>
      </trkpt>
      <trkpt lat="46.16437" lon="1.86162">
        <ele>516</ele>
        <time>2016-12-02T01:03:09Z</time>
      </trkpt>
      <trkpt lat="46.16435" lon="1.86155">
        <ele>515</ele>
        <time>2016-12-02T01:05:09Z</time>
      </trkpt>
      <trkpt lat="46.16432" lon="1.86151">
        <ele>515</ele>
        <time>2016-12-02T01:07:09Z</time>
      </trkpt>
      <trkpt lat="46.16431" lon="1.86148">
        <ele>514</ele>
        <time>2016-12-02T01:09:09Z</time>
      </trkpt>
      <trkpt lat="46.16429" lon="1.86141">
        <ele>513</ele>
        <time>2016-12-02T01:11:09Z</time>
      </trkpt>
      <trkpt lat="46.16428" lon="1.86134">
        <ele>512</ele>
        <time>2016-12-02T01:13:09Z</time>
      </trkpt>
      <trkpt lat="46.16427" lon="1.86131">
        <ele>512</ele>
        <time>2016-12-02T01:15:09Z</time>
      </trkpt>
      <trkpt lat="46.16426" lon="1.86128">
        <ele>512</ele>
        <time>2016-12-02T01:17:09Z</time>
      </trkpt>
      <trkpt lat="46.16426" lon="1.86126">
        <ele>511</ele>
        <time>2016-12-02T01:19:09Z</time>
      </trkpt>
      <trkpt lat="46.16426" lon="1.86123">
        <ele>511</ele>
        <time>2016-12-02T01:21:09Z</time>
      </trkpt>
      <trkpt lat="46.16427" lon="1.86121">
        <ele>510</ele>
        <time>2016-12-02T01:23:09Z</time>
      </trkpt>
      <trkpt lat="46.16428" lon="1.86119">
        <ele>510</ele>
        <time>2016-12-02T01:25:09Z</time>
      </trkpt>
      <trkpt lat="46.16428" lon="1.86117">
        <ele>510</ele>
        <time>2016-12-02T01:27:09Z</time>
      </trkpt>
      <trkpt lat="46.16429" lon="1.86113">
        <ele>509</ele>
        <time>2016-12-02T01:29:09Z</time>
      </trkpt>
      <trkpt lat="46.16429" lon="1.86109">
        <ele>508</ele>
        <time>2016-12-02T01:31:09Z</time>
      </trkpt>
      <trkpt lat="46.16429" lon="1.86104">
        <ele>507</ele>
        <time>2016-12-02T01:33:09Z</time>
      </trkpt>
      <trkpt lat="46.1643" lon="1.86097">
        <ele>506</ele>
        <time>2016-12-02T01:35:09Z</time>
      </trkpt>
      <trkpt lat="46.1643" lon="1.86088">
        <ele>504</ele>
        <time>2016-12-02T01:37:09Z</time>
      </trkpt>
      <trkpt lat="46.16432" lon="1.86076">
        <ele>503</ele>
        <time>2016-12-02T01:39:09Z</time>
      </trkpt>
      <trkpt lat="46.16434" lon="1.8606">
        <ele>501</ele>
        <time>2016-12-02T01:41:09Z</time>
      </trkpt>
      <trkpt lat="46.16434" lon="1.86061">
        <ele>501</ele>
        <time>2016-12-02T01:43:09Z</time>
      </trkpt>
      <trkpt lat="46.16434" lon="1.86062">
        <ele>501</ele>
        <time>2016-12-02T01:45:09Z</time>
      </trkpt>
      <trkpt lat="46.16434" lon="1.86061">
        <ele>501</ele>
        <time>2016-12-02T01:47:09Z</time>
      </trkpt>
      <trkpt lat="46.16434" lon="1.86061">
        <ele>501</ele>
        <time>2016-12-02T01:49:09Z</time>
      </trkpt>
      <trkpt lat="46.16434" lon="1.86058">
        <ele>501</ele>
        <time>2016-12-02T01:51:09Z</time>
      </trkpt>
      <trkpt lat="46.16435" lon="1.86056">
        <ele>501</ele>
        <time>2016-12-02T01:53:09Z</time>
      </trkpt>
      <trkpt lat="46.1644" lon="1.86046">
        <ele>499</ele>
        <time>2016-12-02T01:55:09Z</time>
      </trkpt>
      <trkpt lat="46.16445" lon="1.86034">
        <ele>498</ele>
        <time>2016-12-02T01:57:09Z</time>
      </trkpt>
      <trkpt lat="46.16446" lon="1.8603">
        <ele>497</ele>
        <time>2016-12-02T01:59:09Z</time>
      </trkpt>
      <trkpt lat="46.16449" lon="1.86025">
        <ele>497</ele>
        <time>2016-12-02T02:01:09Z</time>
      </trkpt>
      <trkpt lat="46.1645" lon="1.86023">
        <ele>496</ele>
        <time>2016-12-02T02:03:09Z</time>
      </trkpt>
      <trkpt lat="46.1645" lon="1.8602">
        <ele>496</ele>
        <time>2016-12-02T02:05:09Z</time>
      </trkpt>
      <trkpt lat="46.16451" lon="1.86019">
        <ele>496</ele>
        <time>2016-12-02T02:07:09Z</time>
      </trkpt>
      <trkpt lat="46.16452" lon="1.86019">
        <ele>496</ele>
        <time>2016-12-02T02:09:09Z</time>
      </trkpt>
      <trkpt lat="46.16453" lon="1.86019">
        <ele>496</ele>
        <time>2016-12-02T02:11:09Z</time>
      </trkpt>
      <trkpt lat="46.16454" lon="1.86018">
        <ele>496</ele>
        <time>2016-12-02T02:13:09Z</time>
      </trkpt>
      <trkpt lat="46.16454" lon="1.86018">
        <ele>496</ele>
        <time>2016-12-02T02:15:09Z</time>
      </trkpt>
      <trkpt lat="46.16456" lon="1.86015">
        <ele>495</ele>
        <time>2016-12-02T02:17:09Z</time>
      </trkpt>
      <trkpt lat="46.16456" lon="1.86014">
        <ele>495</ele>
        <time>2016-12-02T02:19:09Z</time>
      </trkpt>
      <trkpt lat="46.16456" lon="1.86015">
        <ele>495</ele>
        <time>2016-12-02T02:21:09Z</time>
      </trkpt>
      <trkpt lat="46.16456" lon="1.86014">
        <ele>495</ele>
        <time>2016-12-02T02:23:09Z</time>
      </trkpt>
      <trkpt lat="46.16458" lon="1.86013">
        <ele>495</ele>
        <time>2016-12-02T02:25:09Z</time>
      </trkpt>
      <trkpt lat="46.16457" lon="1.86014">
        <ele>495</ele>
        <time>2016-12-02T02:27:09Z</time>
      </trkpt>
      <trkpt lat="46.16458" lon="1.86013">
        <ele>495</ele>
        <time>2016-12-02T02:29:09Z</time>
      </trkpt>
      <trkpt lat="46.16458" lon="1.86013">
        <ele>495</ele>
        <time>2016-12-02T02:31:09Z</time>
      </trkpt>
      <trkpt lat="46.1646" lon="1.86013">
        <ele>495</ele>
        <time>2016-12-02T02:33:09Z</time>
      </trkpt>
      <trkpt lat="46.16461" lon="1.86012">
        <ele>495</ele>
        <time>2016-12-02T02:35:09Z</time>
      </trkpt>
      <trkpt lat="46.16468" lon="1.86005">
        <ele>494</ele>
        <time>2016-12-02T02:37:09Z</time>
      </trkpt>
      <trkpt lat="46.16468" lon="1.86006">
        <ele>494</ele>
        <time>2016-12-02T02:39:09Z</time>
      </trkpt>
      <trkpt lat="46.16467" lon="1.86005">
        <ele>494</ele>
        <time>2016-12-02T02:41:09Z</time>
      </trkpt>
      <trkpt lat="46.16466" lon="1.86005">
        <ele>494</ele>
        <time>2016-12-02T02:43:09Z</time>
      </trkpt>
      <trkpt lat="46.16464" lon="1.86003">
        <ele>494</ele>
        <time>2016-12-02T02:45:09Z</time>
      </trkpt>
      <trkpt lat="46.16463" lon="1.86001">
        <ele>494</ele>
        <time>2016-12-02T02:47:09Z</time>
      </trkpt>
      <trkpt lat="46.16463" lon="1.85998">
        <ele>494</ele>
        <time>2016-12-02T02:49:09Z</time>
      </trkpt>
      <trkpt lat="46.16465" lon="1.85992">
        <ele>493</ele>
        <time>2016-12-02T02:51:09Z</time>
      </trkpt>
      <trkpt lat="46.16467" lon="1.85986">
        <ele>493</ele>
        <time>2016-12-02T02:53:09Z</time>
      </trkpt>
      <trkpt lat="46.16467" lon="1.85984">
        <ele>492</ele>
        <time>2016-12-02T02:55:09Z</time>
      </trkpt>
      <trkpt lat="46.16468" lon="1.85982">
        <ele>492</ele>
        <time>2016-12-02T02:57:09Z</time>
      </trkpt>
      <trkpt lat="46.16468" lon="1.8598">
        <ele>492</ele>
        <time>2016-12-02T02:59:09Z</time>
      </trkpt>
      <trkpt lat="46.16468" lon="1.85978">
        <ele>492</ele>
        <time>2016-12-02T03:01:09Z</time>
      </trkpt>
      <trkpt lat="46.16471" lon="1.85973">
        <ele>492</ele>
        <time>2016-12-02T03:03:09Z</time>
      </trkpt>
      <trkpt lat="46.16474" lon="1.85968">
        <ele>491</ele>
        <time>2016-12-02T03:05:09Z</time>
      </trkpt>
      <trkpt lat="46.16476" lon="1.85966">
        <ele>491</ele>
        <time>2016-12-02T03:07:09Z</time>
      </trkpt>
      <trkpt lat="46.16478" lon="1.85965">
        <ele>491</ele>
        <time>2016-12-02T03:09:09Z</time>
      </trkpt>
      <trkpt lat="46.16477" lon="1.85965">
        <ele>491</ele>
        <time>2016-12-02T03:11:09Z</time>
      </trkpt>
      <trkpt lat="46.16477" lon="1.85967">
        <ele>491</ele>
        <time>2016-12-02T03:13:09Z</time>
      </trkpt>
      <trkpt lat="46.16477" lon="1.85965">
        <ele>491</ele>
        <time>2016-12-02T03:15:09Z</time>
      </trkpt>
      <trkpt lat="46.16477" lon="1.85967">
        <ele>491</ele>
        <time>2016-12-02T03:17:09Z</time>
      </trkpt>
      <trkpt lat="46.16477" lon="1.85964">
        <ele>491</ele>
        <time>2016-12-02T03:19:09Z</time>
      </trkpt>
      <trkpt lat="46.16477" lon="1.85966">
        <ele>491</ele>
        <time>2016-12-02T03:21:09Z</time>
      </trkpt>
      <trkpt lat="46.16476" lon="1.85966">
        <ele>491</ele>
        <time>2016-12-02T03:23:09Z</time>
      </trkpt>
      <trkpt lat="46.16475" lon="1.85967">
        <ele>491</ele>
        <time>2016-12-02T03:25:09Z</time>
      </trkpt>
      <trkpt lat="46.16476" lon="1.85964">
        <ele>491</ele>
        <time>2016-12-02T03:27:09Z</time>
      </trkpt>
      <trkpt lat="46.16475" lon="1.85966">
        <ele>491</ele>
        <time>2016-12-02T03:29:09Z</time>
      </trkpt>
      <trkpt lat="46.16476" lon="1.85966">
        <ele>491</ele>
        <time>2016-12-02T03:31:09Z</time>
      </trkpt>
      <trkpt lat="46.16475" lon="1.85967">
        <ele>491</ele>
        <time>2016-12-02T03:33:09Z</time>
      </trkpt>
      <trkpt lat="46.16476" lon="1.85965">
        <ele>491</ele>
        <time>2016-12-02T03:35:09Z</time>
      </trkpt>
      <trkpt lat="46.16475" lon="1.85966">
        <ele>491</ele>
        <time>2016-12-02T03:37:09Z</time>
      </trkpt>
      <trkpt lat="46.16476" lon="1.85966">
        <ele>491</ele>
        <time>2016-12-02T03:39:09Z</time>
      </trkpt>
      <trkpt lat="46.16474" lon="1.85967">
        <ele>491</ele>
        <time>2016-12-02T03:41:09Z</time>
      </trkpt>
      <trkpt lat="46.16474" lon="1.85966">
        <ele>491</ele>
        <time>2016-12-02T03:43:09Z</time>
      </trkpt>
      <trkpt lat="46.16474" lon="1.85967">
        <ele>491</ele>
        <time>2016-12-02T03:45:09Z</time>
      </trkpt>
      <trkpt lat="46.16475" lon="1.85968">
        <ele>491</ele>
        <time>2016-12-02T03:47:09Z</time>
      </trkpt>
      <trkpt lat="46.16477" lon="1.85967">
        <ele>491</ele>
        <time>2016-12-02T03:49:09Z</time>
      </trkpt>
      <trkpt lat="46.1648" lon="1.85968">
        <ele>491</ele>
        <time>2016-12-02T03:51:09Z</time>
      </trkpt>
      <trkpt lat="46.16486" lon="1.8597">
        <ele>491</ele>
        <time>2016-12-02T03:53:09Z</time>
      </trkpt>
      <trkpt lat="46.16489" lon="1.85971">
        <ele>491</ele>
        <time>2016-12-02T03:55:09Z</time>
      </trkpt>
      <trkpt lat="46.16494" lon="1.85972">
        <ele>491</ele>
        <time>2016-12-02T03:57:09Z</time>
      </trkpt>
      <trkpt lat="46.16496" lon="1.85972">
        <ele>491</ele>
        <time>2016-12-02T03:59:09Z</time>
      </trkpt>
      <trkpt lat="46.16497" lon="1.8597">
        <ele>491</ele>
        <time>2016-12-02T04:01:09Z</time>
      </trkpt>
      <trkpt lat="46.165" lon="1.85967">
        <ele>490</ele>
        <time>2016-12-02T04:03:09Z</time>
      </trkpt>
      <trkpt lat="46.16503" lon="1.85964">
        <ele>490</ele>
        <time>2016-12-02T04:05:09Z</time>
      </trkpt>
      <trkpt lat="46.16505" lon="1.8596">
        <ele>490</ele>
        <time>2016-12-02T04:07:09Z</time>
      </trkpt>
      <trkpt lat="46.16505" lon="1.85957">
        <ele>490</ele>
        <time>2016-12-02T04:09:09Z</time>
      </trkpt>
      <trkpt lat="46.16507" lon="1.85952">
        <ele>490</ele>
        <time>2016-12-02T04:11:09Z</time>
      </trkpt>
      <trkpt lat="46.16507" lon="1.85948">
        <ele>489</ele>
        <time>2016-12-02T04:13:09Z</time>
      </trkpt>
      <trkpt lat="46.16508" lon="1.85944">
        <ele>489</ele>
        <time>2016-12-02T04:15:09Z</time>
      </trkpt>
      <trkpt lat="46.16509" lon="1.85939">
        <ele>489</ele>
        <time>2016-12-02T04:17:09Z</time>
      </trkpt>
      <trkpt lat="46.16509" lon="1.85924">
        <ele>488</ele>
        <time>2016-12-02T04:19:09Z</time>
      </trkpt>
      <trkpt lat="46.16507" lon="1.85904">
        <ele>487</ele>
        <time>2016-12-02T04:21:09Z</time>
      </trkpt>
      <trkpt lat="46.16508" lon="1.859">
        <ele>487</ele>
        <time>2016-12-02T04:23:09Z</time>
      </trkpt>
      <trkpt lat="46.16508" lon="1.85895">
        <ele>486</ele>
        <time>2016-12-02T04:25:09Z</time>
      </trkpt>
      <trkpt lat="46.16507" lon="1.85891">
        <ele>486</ele>
        <time>2016-12-02T04:27:09Z</time>
      </trkpt>
      <trkpt lat="46.16507" lon="1.85885">
        <ele>485</ele>
        <time>2016-12-02T04:29:09Z</time>
      </trkpt>
      <trkpt lat="46.16508" lon="1.85881">
        <ele>485</ele>
        <time>2016-12-02T04:31:09Z</time>
      </trkpt>
      <trkpt lat="46.16507" lon="1.85876">
        <ele>485</ele>
        <time>2016-12-02T04:33:09Z</time>
      </trkpt>
      <trkpt lat="46.16508" lon="1.8587">
        <ele>484</ele>
        <time>2016-12-02T04:35:09Z</time>
      </trkpt>
      <trkpt lat="46.16508" lon="1.85866">
        <ele>484</ele>
        <time>2016-12-02T04:37:09Z</time>
      </trkpt>
      <trkpt lat="46.16508" lon="1.85857">
        <ele>483</ele>
        <time>2016-12-02T04:39:09Z</time>
      </trkpt>
      <trkpt lat="46.16508" lon="1.85853">
        <ele>483</ele>
        <time>2016-12-02T04:41:09Z</time>
      </trkpt>
      <trkpt lat="46.16508" lon="1.85848">
        <ele>482</ele>
        <time>2016-12-02T04:43:09Z</time>
      </trkpt>
      <trkpt lat="46.16509" lon="1.85828">
        <ele>480</ele>
        <time>2016-12-02T04:45:09Z</time>
      </trkpt>
      <trkpt lat="46.16509" lon="1.8582">
        <ele>480</ele>
        <time>2016-12-02T04:47:09Z</time>
      </trkpt>
      <trkpt lat="46.1651" lon="1.85816">
        <ele>480</ele>
        <time>2016-12-02T04:49:09Z</time>
      </trkpt>
      <trkpt lat="46.16511" lon="1.85808">
        <ele>479</ele>
        <time>2016-12-02T04:51:09Z</time>
      </trkpt>
      <trkpt lat="46.16512" lon="1.85799">
        <ele>478</ele>
        <time>2016-12-02T04:53:09Z</time>
      </trkpt>
      <trkpt lat="46.16512" lon="1.85788">
        <ele>477</ele>
        <time>2016-12-02T04:55:09Z</time>
      </trkpt>
      <trkpt lat="46.16511" lon="1.85784">
        <ele>477</ele>
        <time>2016-12-02T04:57:09Z</time>
      </trkpt>
      <trkpt lat="46.1651" lon="1.85778">
        <ele>477</ele>
        <time>2016-12-02T04:59:09Z</time>
      </trkpt>
      <trkpt lat="46.16511" lon="1.85774">
        <ele>476</ele>
        <time>2016-12-02T05:01:09Z</time>
      </trkpt>
      <trkpt lat="46.16511" lon="1.85765">
        <ele>476</ele>
        <time>2016-12-02T05:03:09Z</time>
      </trkpt>
      <trkpt lat="46.16511" lon="1.85756">
        <ele>475</ele>
        <time>2016-12-02T05:05:09Z</time>
      </trkpt>
      <trkpt lat="46.16512" lon="1.85751">
        <ele>475</ele>
        <time>2016-12-02T05:07:09Z</time>
      </trkpt>
      <trkpt lat="46.16511" lon="1.85747">
        <ele>474</ele>
        <time>2016-12-02T05:09:09Z</time>
      </trkpt>
      <trkpt lat="46.16512" lon="1.85739">
        <ele>474</ele>
        <time>2016-12-02T05:11:09Z</time>
      </trkpt>
      <trkpt lat="46.16512" lon="1.85735">
        <ele>473</ele>
        <time>2016-12-02T05:13:09Z</time>
      </trkpt>
      <trkpt lat="46.16512" lon="1.85727">
        <ele>473</ele>
        <time>2016-12-02T05:15:09Z</time>
      </trkpt>
      <trkpt lat="46.16512" lon="1.85722">
        <ele>472</ele>
        <time>2016-12-02T05:17:09Z</time>
      </trkpt>
      <trkpt lat="46.16512" lon="1.85718">
        <ele>472</ele>
        <time>2016-12-02T05:19:09Z</time>
      </trkpt>
      <trkpt lat="46.16514" lon="1.85711">
        <ele>471</ele>
        <time>2016-12-02T05:21:09Z</time>
      </trkpt>
      <trkpt lat="46.16515" lon="1.85705">
        <ele>471</ele>
        <time>2016-12-02T05:23:09Z</time>
      </trkpt>
      <trkpt lat="46.16517" lon="1.85699">
        <ele>470</ele>
        <time>2016-12-02T05:25:09Z</time>
      </trkpt>
      <trkpt lat="46.16518" lon="1.85696">
        <ele>469</ele>
        <time>2016-12-02T05:27:09Z</time>
      </trkpt>
      <trkpt lat="46.16519" lon="1.85692">
        <ele>469</ele>
        <time>2016-12-02T05:29:09Z</time>
      </trkpt>
      <trkpt lat="46.16519" lon="1.85688">
        <ele>469</ele>
        <time>2016-12-02T05:31:09Z</time>
      </trkpt>
      <trkpt lat="46.16518" lon="1.85684">
        <ele>468</ele>
        <time>2016-12-02T05:33:09Z</time>
      </trkpt>
      <trkpt lat="46.16516" lon="1.85678">
        <ele>468</ele>
        <time>2016-12-02T05:35:09Z</time>
      </trkpt>
      <trkpt lat="46.16516" lon="1.85674">
        <ele>468</ele>
        <time>2016-12-02T05:37:09Z</time>
      </trkpt>
      <trkpt lat="46.16511" lon="1.85668">
        <ele>468</ele>
        <time>2016-12-02T05:39:09Z</time>
      </trkpt>
      <trkpt lat="46.16509" lon="1.85666">
        <ele>468</ele>
        <time>2016-12-02T05:41:09Z</time>
      </trkpt>
      <trkpt lat="46.16506" lon="1.85663">
        <ele>468</ele>
        <time>2016-12-02T05:43:09Z</time>
      </trkpt>
      <trkpt lat="46.16501" lon="1.85659">
        <ele>468</ele>
        <time>2016-12-02T05:45:09Z</time>
      </trkpt>
      <trkpt lat="46.16499" lon="1.85656">
        <ele>468</ele>
        <time>2016-12-02T05:47:09Z</time>
      </trkpt>
      <trkpt lat="46.16496" lon="1.85655">
        <ele>468</ele>
        <time>2016-12-02T05:49:09Z</time>
      </trkpt>
      <trkpt lat="46.16494" lon="1.85653">
        <ele>468</ele>
        <time>2016-12-02T05:51:09Z</time>
      </trkpt>
      <trkpt lat="46.16491" lon="1.8565">
        <ele>468</ele>
        <time>2016-12-02T05:53:09Z</time>
      </trkpt>
      <trkpt lat="46.16488" lon="1.85649">
        <ele>468</ele>
        <time>2016-12-02T05:55:09Z</time>
      </trkpt>
      <trkpt lat="46.16486" lon="1.85646">
        <ele>468</ele>
        <time>2016-12-02T05:57:09Z</time>
      </trkpt>
      <trkpt lat="46.1648" lon="1.8564">
        <ele>467</ele>
        <time>2016-12-02T05:59:09Z</time>
      </trkpt>
      <trkpt lat="46.16468" lon="1.85632">
        <ele>467</ele>
        <time>2016-12-02T06:01:09Z</time>
      </trkpt>
      <trkpt lat="46.16463" lon="1.8563">
        <ele>467</ele>
        <time>2016-12-02T06:03:09Z</time>
      </trkpt>
      <trkpt lat="46.16456" lon="1.85627">
        <ele>468</ele>
        <time>2016-12-02T06:05:09Z</time>
      </trkpt>
      <trkpt lat="46.16448" lon="1.85625">
        <ele>468</ele>
        <time>2016-12-02T06:07:09Z</time>
      </trkpt>
      <trkpt lat="46.16446" lon="1.85625">
        <ele>468</ele>
        <time>2016-12-02T06:09:09Z</time>
      </trkpt>
      <trkpt lat="46.16441" lon="1.85623">
        <ele>468</ele>
        <time>2016-12-02T06:11:09Z</time>
      </trkpt>
      <trkpt lat="46.16438" lon="1.85623">
        <ele>468</ele>
        <time>2016-12-02T06:13:09Z</time>
      </trkpt>
      <trkpt lat="46.16435" lon="1.8562">
        <ele>468</ele>
        <time>2016-12-02T06:15:09Z</time>
      </trkpt>
      <trkpt lat="46.16435" lon="1.8562">
        <ele>468</ele>
        <time>2016-12-02T06:17:09Z</time>
      </trkpt>
      <trkpt lat="46.16434" lon="1.8562">
        <ele>468</ele>
        <time>2016-12-02T06:19:09Z</time>
      </trkpt>
      <trkpt lat="46.16432" lon="1.85621">
        <ele>468</ele>
        <time>2016-12-02T06:21:09Z</time>
      </trkpt>
      <trkpt lat="46.16429" lon="1.85621">
        <ele>469</ele>
        <time>2016-12-02T06:23:09Z</time>
      </trkpt>
      <trkpt lat="46.16426" lon="1.8562">
        <ele>469</ele>
        <time>2016-12-02T06:25:09Z</time>
      </trkpt>
      <trkpt lat="46.16424" lon="1.85619">
        <ele>469</ele>
        <time>2016-12-02T06:27:09Z</time>
      </trkpt>
      <trkpt lat="46.16419" lon="1.85619">
        <ele>469</ele>
        <time>2016-12-02T06:29:09Z</time>
      </trkpt>
      <trkpt lat="46.16416" lon="1.85618">
        <ele>469</ele>
        <time>2016-12-02T06:31:09Z</time>
      </trkpt>
      <trkpt lat="46.16409" lon="1.85617">
        <ele>468</ele>
        <time>2016-12-02T06:33:09Z</time>
      </trkpt>
      <trkpt lat="46.16403" lon="1.85618">
        <ele>468</ele>
        <time>2016-12-02T06:35:09Z</time>
      </trkpt>
      <trkpt lat="46.16397" lon="1.85617">
        <ele>467</ele>
        <time>2016-12-02T06:37:09Z</time>
      </trkpt>
      <trkpt lat="46.16394" lon="1.85618">
        <ele>467</ele>
        <time>2016-12-02T06:39:09Z</time>
      </trkpt>
      <trkpt lat="46.16379" lon="1.85623">
        <ele>466</ele>
        <time>2016-12-02T06:41:09Z</time>
      </trkpt>
      <trkpt lat="46.16374" lon="1.85626">
        <ele>466</ele>
        <time>2016-12-02T06:43:09Z</time>
      </trkpt>
      <trkpt lat="46.16371" lon="1.85627">
        <ele>466</ele>
        <time>2016-12-02T06:45:09Z</time>
      </trkpt>
      <trkpt lat="46.16363" lon="1.85631">
        <ele>465</ele>
        <time>2016-12-02T06:47:09Z</time>
      </trkpt>
      <trkpt lat="46.16355" lon="1.85637">
        <ele>465</ele>
        <time>2016-12-02T06:49:09Z</time>
      </trkpt>
      <trkpt lat="46.16352" lon="1.85639">
        <ele>465</ele>
        <time>2016-12-02T06:51:09Z</time>
      </trkpt>
      <trkpt lat="46.16347" lon="1.85643">
        <ele>465</ele>
        <time>2016-12-02T06:53:09Z</time>
      </trkpt>
      <trkpt lat="46.16345" lon="1.85645">
        <ele>465</ele>
        <time>2016-12-02T06:55:09Z</time>
      </trkpt>
      <trkpt lat="46.16337" lon="1.85652">
        <ele>464</ele>
        <time>2016-12-02T06:57:09Z</time>
      </trkpt>
      <trkpt lat="46.16334" lon="1.85654">
        <ele>464</ele>
        <time>2016-12-02T06:59:09Z</time>
      </trkpt>
      <trkpt lat="46.16332" lon="1.85656">
        <ele>464</ele>
        <time>2016-12-02T07:01:09Z</time>
      </trkpt>
      <trkpt lat="46.16323" lon="1.85662">
        <ele>464</ele>
        <time>2016-12-02T07:03:09Z</time>
      </trkpt>
      <trkpt lat="46.16321" lon="1.85662">
        <ele>464</ele>
        <time>2016-12-02T07:05:09Z</time>
      </trkpt>
      <trkpt lat="46.16316" lon="1.85662">
        <ele>464</ele>
        <time>2016-12-02T07:07:09Z</time>
      </trkpt>
      <trkpt lat="46.16313" lon="1.85663">
        <ele>464</ele>
        <time>2016-12-02T07:09:09Z</time>
      </trkpt>
      <trkpt lat="46.16307" lon="1.85666">
        <ele>464</ele>
        <time>2016-12-02T07:11:09Z</time>
      </trkpt>
      <trkpt lat="46.16301" lon="1.8567">
        <ele>464</ele>
        <time>2016-12-02T07:13:09Z</time>
      </trkpt>
      <trkpt lat="46.16298" lon="1.85671">
        <ele>464</ele>
        <time>2016-12-02T07:15:09Z</time>
      </trkpt>
      <trkpt lat="46.16286" lon="1.85676">
        <ele>464</ele>
        <time>2016-12-02T07:17:09Z</time>
      </trkpt>
      <trkpt lat="46.16284" lon="1.85677">
        <ele>463</ele>
        <time>2016-12-02T07:19:09Z</time>
      </trkpt>
      <trkpt lat="46.16281" lon="1.85679">
        <ele>463</ele>
        <time>2016-12-02T07:21:09Z</time>
      </trkpt>
      <trkpt lat="46.1627" lon="1.85685">
        <ele>463</ele>
        <time>2016-12-02T07:23:09Z</time>
      </trkpt>
      <trkpt lat="46.16264" lon="1.85686">
        <ele>463</ele>
        <time>2016-12-02T07:25:09Z</time>
      </trkpt>
      <trkpt lat="46.16256" lon="1.85688">
        <ele>463</ele>
        <time>2016-12-02T07:27:09Z</time>
      </trkpt>
      <trkpt lat="46.16245" lon="1.85687">
        <ele>462</ele>
        <time>2016-12-02T07:29:09Z</time>
      </trkpt>
      <trkpt lat="46.16234" lon="1.85686">
        <ele>462</ele>
        <time>2016-12-02T07:31:09Z</time>
      </trkpt>
      <trkpt lat="46.16227" lon="1.85687">
        <ele>463</ele>
        <time>2016-12-02T07:33:09Z</time>
      </trkpt>
      <trkpt lat="46.16224" lon="1.85686">
        <ele>463</ele>
        <time>2016-12-02T07:35:09Z</time>
      </trkpt>
      <trkpt lat="46.16214" lon="1.85687">
        <ele>463</ele>
        <time>2016-12-02T07:37:09Z</time>
      </trkpt>
      <trkpt lat="46.16206" lon="1.85686">
        <ele>463</ele>
        <time>2016-12-02T07:39:09Z</time>
      </trkpt>
      <trkpt lat="46.16201" lon="1.85687">
        <ele>463</ele>
        <time>2016-12-02T07:41:09Z</time>
      </trkpt>
      <trkpt lat="46.16198" lon="1.85686">
        <ele>463</ele>
        <time>2016-12-02T07:43:09Z</time>
      </trkpt>
      <trkpt lat="46.16194" lon="1.85686">
        <ele>463</ele>
        <time>2016-12-02T07:45:09Z</time>
      </trkpt>
      <trkpt lat="46.1619" lon="1.85686">
        <ele>463</ele>
        <time>2016-12-02T07:47:09Z</time>
      </trkpt>
      <trkpt lat="46.16183" lon="1.85688">
        <ele>463</ele>
        <time>2016-12-02T07:49:09Z</time>
      </trkpt>
      <trkpt lat="46.16176" lon="1.85688">
        <ele>463</ele>
        <time>2016-12-02T07:51:09Z</time>
      </trkpt>
      <trkpt lat="46.16174" lon="1.85689">
        <ele>463</ele>
        <time>2016-12-02T07:53:09Z</time>
      </trkpt>
      <trkpt lat="46.16171" lon="1.85689">
        <ele>463</ele>
        <time>2016-12-02T07:55:09Z</time>
      </trkpt>
      <trkpt lat="46.1617" lon="1.85689">
        <ele>463</ele>
        <time>2016-12-02T07:57:09Z</time>
      </trkpt>
      <trkpt lat="46.16167" lon="1.85689">
        <ele>464</ele>
        <time>2016-12-02T07:59:09Z</time>
      </trkpt>
      <trkpt lat="46.16166" lon="1.8569">
        <ele>464</ele>
        <time>2016-12-02T08:01:09Z</time>
      </trkpt>
      <trkpt lat="46.1616" lon="1.85691">
        <ele>463</ele>
        <time>2016-12-02T08:03:09Z</time>
      </trkpt>
      <trkpt lat="46.16156" lon="1.85692">
        <ele>463</ele>
        <time>2016-12-02T08:05:09Z</time>
      </trkpt>
      <trkpt lat="46.16152" lon="1.85693">
        <ele>463</ele>
        <time>2016-12-02T08:07:09Z</time>
      </trkpt>
      <trkpt lat="46.16149" lon="1.85693">
        <ele>463</ele>
        <time>2016-12-02T08:09:09Z</time>
      </trkpt>
      <trkpt lat="46.16136" lon="1.85697">
        <ele>463</ele>
        <time>2016-12-02T08:11:09Z</time>
      </trkpt>
      <trkpt lat="46.16133" lon="1.85697">
        <ele>463</ele>
        <time>2016-12-02T08:13:09Z</time>
      </trkpt>
      <trkpt lat="46.16132" lon="1.85698">
        <ele>463</ele>
        <time>2016-12-02T08:15:09Z</time>
      </trkpt>
      <trkpt lat="46.1612" lon="1.85703">
        <ele>463</ele>
        <time>2016-12-02T08:17:09Z</time>
      </trkpt>
      <trkpt lat="46.16115" lon="1.85704">
        <ele>463</ele>
        <time>2016-12-02T08:19:09Z</time>
      </trkpt>
      <trkpt lat="46.16112" lon="1.85703">
        <ele>463</ele>
        <time>2016-12-02T08:21:09Z</time>
      </trkpt>
      <trkpt lat="46.16109" lon="1.85703">
        <ele>463</ele>
        <time>2016-12-02T08:23:09Z</time>
      </trkpt>
      <trkpt lat="46.16107" lon="1.85703">
        <ele>463</ele>
        <time>2016-12-02T08:25:09Z</time>
      </trkpt>
      <trkpt lat="46.16102" lon="1.85702">
        <ele>463</ele>
        <time>2016-12-02T08:27:09Z</time>
      </trkpt>
      <trkpt lat="46.16096" lon="1.85703">
        <ele>463</ele>
        <time>2016-12-02T08:29:09Z</time>
      </trkpt>
      <trkpt lat="46.16092" lon="1.85703">
        <ele>463</ele>
        <time>2016-12-02T08:31:09Z</time>
      </trkpt>
      <trkpt lat="46.16079" lon="1.85704">
        <ele>463</ele>
        <time>2016-12-02T08:33:09Z</time>
      </trkpt>
      <trkpt lat="46.16077" lon="1.85703">
        <ele>463</ele>
        <time>2016-12-02T08:35:09Z</time>
      </trkpt>
      <trkpt lat="46.16074" lon="1.85704">
        <ele>463</ele>
        <time>2016-12-02T08:37:09Z</time>
      </trkpt>
      <trkpt lat="46.16072" lon="1.85705">
        <ele>463</ele>
        <time>2016-12-02T08:39:09Z</time>
      </trkpt>
      <trkpt lat="46.16063" lon="1.85706">
        <ele>463</ele>
        <time>2016-12-02T08:41:09Z</time>
      </trkpt>
      <trkpt lat="46.16058" lon="1.85707">
        <ele>463</ele>
        <time>2016-12-02T08:43:09Z</time>
      </trkpt>
      <trkpt lat="46.16054" lon="1.85707">
        <ele>463</ele>
        <time>2016-12-02T08:45:09Z</time>
      </trkpt>
      <trkpt lat="46.16052" lon="1.85707">
        <ele>463</ele>
        <time>2016-12-02T08:47:09Z</time>
      </trkpt>
      <trkpt lat="46.16048" lon="1.85707">
        <ele>463</ele>
        <time>2016-12-02T08:49:09Z</time>
      </trkpt>
      <trkpt lat="46.16048" lon="1.85707">
        <ele>463</ele>
        <time>2016-12-02T08:51:09Z</time>
      </trkpt>
      <trkpt lat="46.16048" lon="1.85707">
        <ele>463</ele>
        <time>2016-12-02T08:53:09Z</time>
      </trkpt>
      <trkpt lat="46.16048" lon="1.85707">
        <ele>463</ele>
        <time>2016-12-02T08:55:09Z</time>
      </trkpt>
      <trkpt lat="46.16048" lon="1.85709">
        <ele>463</ele>
        <time>2016-12-02T08:57:09Z</time>
      </trkpt>
      <trkpt lat="46.16043" lon="1.85709">
        <ele>463</ele>
        <time>2016-12-02T08:59:09Z</time>
      </trkpt>
      <trkpt lat="46.16038" lon="1.85709">
        <ele>463</ele>
        <time>2016-12-02T09:01:09Z</time>
      </trkpt>
      <trkpt lat="46.16033" lon="1.85709">
        <ele>463</ele>
        <time>2016-12-02T09:03:09Z</time>
      </trkpt>
      <trkpt lat="46.1603" lon="1.85709">
        <ele>463</ele>
        <time>2016-12-02T09:05:09Z</time>
      </trkpt>
      <trkpt lat="46.16025" lon="1.85706">
        <ele>463</ele>
        <time>2016-12-02T09:07:09Z</time>
      </trkpt>
      <trkpt lat="46.1602" lon="1.85706">
        <ele>463</ele>
        <time>2016-12-02T09:09:09Z</time>
      </trkpt>
      <trkpt lat="46.16015" lon="1.85704">
        <ele>463</ele>
        <time>2016-12-02T09:11:09Z</time>
      </trkpt>
      <trkpt lat="46.1601" lon="1.85701">
        <ele>463</ele>
        <time>2016-12-02T09:13:09Z</time>
      </trkpt>
      <trkpt lat="46.16008" lon="1.857">
        <ele>463</ele>
        <time>2016-12-02T09:15:09Z</time>
      </trkpt>
      <trkpt lat="46.16003" lon="1.85697">
        <ele>463</ele>
        <time>2016-12-02T09:17:09Z</time>
      </trkpt>
      <trkpt lat="46.15993" lon="1.85695">
        <ele>463</ele>
        <time>2016-12-02T09:19:09Z</time>
      </trkpt>
      <trkpt lat="46.15989" lon="1.85694">
        <ele>463</ele>
        <time>2016-12-02T09:21:09Z</time>
      </trkpt>
      <trkpt lat="46.15984" lon="1.85691">
        <ele>463</ele>
        <time>2016-12-02T09:23:09Z</time>
      </trkpt>
      <trkpt lat="46.15982" lon="1.85689">
        <ele>463</ele>
        <time>2016-12-02T09:25:09Z</time>
      </trkpt>
      <trkpt lat="46.15978" lon="1.85687">
        <ele>463</ele>
        <time>2016-12-02T09:27:09Z</time>
      </trkpt>
      <trkpt lat="46.15968" lon="1.85674">
        <ele>463</ele>
        <time>2016-12-02T09:29:09Z</time>
      </trkpt>
      <trkpt lat="46.15964" lon="1.85669">
        <ele>463</ele>
        <time>2016-12-02T09:31:09Z</time>
      </trkpt>
      <trkpt lat="46.15955" lon="1.8566">
        <ele>463</ele>
        <time>2016-12-02T09:33:09Z</time>
      </trkpt>
      <trkpt lat="46.15953" lon="1.85658">
        <ele>463</ele>
        <time>2016-12-02T09:35:09Z</time>
      </trkpt>
      <trkpt lat="46.15951" lon="1.85656">
        <ele>463</ele>
        <time>2016-12-02T09:37:09Z</time>
      </trkpt>
      <trkpt lat="46.15949" lon="1.85653">
        <ele>463</ele>
        <time>2016-12-02T09:39:09Z</time>
      </trkpt>
      <trkpt lat="46.15947" lon="1.8565">
        <ele>463</ele>
        <time>2016-12-02T09:41:09Z</time>
      </trkpt>
      <trkpt lat="46.15943" lon="1.85644">
        <ele>463</ele>
        <time>2016-12-02T09:43:09Z</time>
      </trkpt>
      <trkpt lat="46.15941" lon="1.85637">
        <ele>462</ele>
        <time>2016-12-02T09:45:09Z</time>
      </trkpt>
      <trkpt lat="46.15939" lon="1.8563">
        <ele>462</ele>
        <time>2016-12-02T09:47:09Z</time>
      </trkpt>
      <trkpt lat="46.15938" lon="1.85627">
        <ele>462</ele>
        <time>2016-12-02T09:49:09Z</time>
      </trkpt>
      <trkpt lat="46.15936" lon="1.85624">
        <ele>462</ele>
        <time>2016-12-02T09:51:09Z</time>
      </trkpt>
      <trkpt lat="46.15933" lon="1.85619">
        <ele>462</ele>
        <time>2016-12-02T09:53:09Z</time>
      </trkpt>
      <trkpt lat="46.15931" lon="1.85618">
        <ele>462</ele>
        <time>2016-12-02T09:55:09Z</time>
      </trkpt>
      <trkpt lat="46.15927" lon="1.85616">
        <ele>462</ele>
        <time>2016-12-02T09:57:09Z</time>
      </trkpt>
      <trkpt lat="46.15921" lon="1.85615">
        <ele>462</ele>
        <time>2016-12-02T09:59:09Z</time>
      </trkpt>
      <trkpt lat="46.15915" lon="1.85615">
        <ele>462</ele>
        <time>2016-12-02T10:01:09Z</time>
      </trkpt>
      <trkpt lat="46.15912" lon="1.85616">
        <ele>462</ele>
        <time>2016-12-02T10:03:09Z</time>
      </trkpt>
      <trkpt lat="46.15907" lon="1.8562">
        <ele>462</ele>
        <time>2016-12-02T10:05:09Z</time>
      </trkpt>
      <trkpt lat="46.15899" lon="1.85625">
        <ele>462</ele>
        <time>2016-12-02T10:07:09Z</time>
      </trkpt>
      <trkpt lat="46.15894" lon="1.85628">
        <ele>462</ele>
        <time>2016-12-02T10:09:09Z</time>
      </trkpt>
      <trkpt lat="46.1589" lon="1.8563">
        <ele>462</ele>
        <time>2016-12-02T10:11:09Z</time>
      </trkpt>
      <trkpt lat="46.15872" lon="1.8564">
        <ele>463</ele>
        <time>2016-12-02T10:13:09Z</time>
      </trkpt>
      <trkpt lat="46.15866" lon="1.85641">
        <ele>463</ele>
        <time>2016-12-02T10:15:09Z</time>
      </trkpt>
      <trkpt lat="46.15863" lon="1.85641">
        <ele>462</ele>
        <time>2016-12-02T10:17:09Z</time>
      </trkpt>
      <trkpt lat="46.1586" lon="1.85641">
        <ele>462</ele>
        <time>2016-12-02T10:19:09Z</time>
      </trkpt>
      <trkpt lat="46.15857" lon="1.85639">
        <ele>462</ele>
        <time>2016-12-02T10:21:09Z</time>
      </trkpt>
      <trkpt lat="46.15848" lon="1.85634">
        <ele>462</ele>
        <time>2016-12-02T10:23:09Z</time>
      </trkpt>
      <trkpt lat="46.15845" lon="1.85634">
        <ele>462</ele>
        <time>2016-12-02T10:25:09Z</time>
      </trkpt>
      <trkpt lat="46.15837" lon="1.85631">
        <ele>462</ele>
        <time>2016-12-02T10:27:09Z</time>
      </trkpt>
      <trkpt lat="46.15831" lon="1.85628">
        <ele>462</ele>
        <time>2016-12-02T10:29:09Z</time>
      </trkpt>
      <trkpt lat="46.15827" lon="1.85625">
        <ele>462</ele>
        <time>2016-12-02T10:31:09Z</time>
      </trkpt>
      <trkpt lat="46.15825" lon="1.85622">
        <ele>462</ele>
        <time>2016-12-02T10:33:09Z</time>
      </trkpt>
      <trkpt lat="46.15822" lon="1.85619">
        <ele>462</ele>
        <time>2016-12-02T10:35:09Z</time>
      </trkpt>
      <trkpt lat="46.1582" lon="1.85617">
        <ele>462</ele>
        <time>2016-12-02T10:37:09Z</time>
      </trkpt>
      <trkpt lat="46.15817" lon="1.85615">
        <ele>462</ele>
        <time>2016-12-02T10:39:09Z</time>
      </trkpt>
      <trkpt lat="46.15813" lon="1.8561">
        <ele>462</ele>
        <time>2016-12-02T10:41:09Z</time>
      </trkpt>
      <trkpt lat="46.15807" lon="1.85606">
        <ele>462</ele>
        <time>2016-12-02T10:43:09Z</time>
      </trkpt>
      <trkpt lat="46.15802" lon="1.85602">
        <ele>462</ele>
        <time>2016-12-02T10:45:09Z</time>
      </trkpt>
      <trkpt lat="46.15798" lon="1.85597">
        <ele>462</ele>
        <time>2016-12-02T10:47:09Z</time>
      </trkpt>
      <trkpt lat="46.15793" lon="1.85591">
        <ele>462</ele>
        <time>2016-12-02T10:49:09Z</time>
      </trkpt>
      <trkpt lat="46.15791" lon="1.85588">
        <ele>462</ele>
        <time>2016-12-02T10:51:09Z</time>
      </trkpt>
      <trkpt lat="46.15784" lon="1.85571">
        <ele>462</ele>
        <time>2016-12-02T10:53:09Z</time>
      </trkpt>
      <trkpt lat="46.15778" lon="1.85557">
        <ele>463</ele>
        <time>2016-12-02T10:55:09Z</time>
      </trkpt>
      <trkpt lat="46.15777" lon="1.85554">
        <ele>463</ele>
        <time>2016-12-02T10:57:09Z</time>
      </trkpt>
      <trkpt lat="46.15777" lon="1.8555">
        <ele>463</ele>
        <time>2016-12-02T10:59:09Z</time>
      </trkpt>
      <trkpt lat="46.15776" lon="1.85542">
        <ele>463</ele>
        <time>2016-12-02T11:01:09Z</time>
      </trkpt>
      <trkpt lat="46.15776" lon="1.85538">
        <ele>464</ele>
        <time>2016-12-02T11:03:09Z</time>
      </trkpt>
      <trkpt lat="46.15776" lon="1.85534">
        <ele>464</ele>
        <time>2016-12-02T11:05:09Z</time>
      </trkpt>
      <trkpt lat="46.15778" lon="1.85527">
        <ele>464</ele>
        <time>2016-12-02T11:07:09Z</time>
      </trkpt>
      <trkpt lat="46.1578" lon="1.85519">
        <ele>464</ele>
        <time>2016-12-02T11:09:09Z</time>
      </trkpt>
      <trkpt lat="46.15782" lon="1.85512">
        <ele>464</ele>
        <time>2016-12-02T11:11:09Z</time>
      </trkpt>
      <trkpt lat="46.15785" lon="1.85502">
        <ele>464</ele>
        <time>2016-12-02T11:13:09Z</time>
      </trkpt>
      <trkpt lat="46.15791" lon="1.85488">
        <ele>464</ele>
        <time>2016-12-02T11:15:09Z</time>
      </trkpt>
      <trkpt lat="46.15796" lon="1.85479">
        <ele>464</ele>
        <time>2016-12-02T11:17:09Z</time>
      </trkpt>
      <trkpt lat="46.158" lon="1.85473">
        <ele>464</ele>
        <time>2016-12-02T11:19:09Z</time>
      </trkpt>
      <trkpt lat="46.15802" lon="1.8547">
        <ele>464</ele>
        <time>2016-12-02T11:21:09Z</time>
      </trkpt>
      <trkpt lat="46.15806" lon="1.85465">
        <ele>464</ele>
        <time>2016-12-02T11:23:09Z</time>
      </trkpt>
      <trkpt lat="46.1581" lon="1.85459">
        <ele>464</ele>
        <time>2016-12-02T11:25:09Z</time>
      </trkpt>
      <trkpt lat="46.15819" lon="1.85443">
        <ele>463</ele>
        <time>2016-12-02T11:27:09Z</time>
      </trkpt>
      <trkpt lat="46.15823" lon="1.85438">
        <ele>462</ele>
        <time>2016-12-02T11:29:09Z</time>
      </trkpt>
      <trkpt lat="46.15828" lon="1.85434">
        <ele>462</ele>
        <time>2016-12-02T11:31:09Z</time>
      </trkpt>
      <trkpt lat="46.15832" lon="1.85429">
        <ele>461</ele>
        <time>2016-12-02T11:33:09Z</time>
      </trkpt>
      <trkpt lat="46.15832" lon="1.85428">
        <ele>461</ele>
        <time>2016-12-02T11:35:09Z</time>
      </trkpt>
      <trkpt lat="46.1583" lon="1.85423">
        <ele>461</ele>
        <time>2016-12-02T11:37:09Z</time>
      </trkpt>
      <trkpt lat="46.15831" lon="1.85422">
        <ele>461</ele>
        <time>2016-12-02T11:39:09Z</time>
      </trkpt>
      <trkpt lat="46.15832" lon="1.8542">
        <ele>461</ele>
        <time>2016-12-02T11:41:09Z</time>
      </trkpt>
      <trkpt lat="46.15831" lon="1.8542">
        <ele>461</ele>
        <time>2016-12-02T11:43:09Z</time>
      </trkpt>
      <trkpt lat="46.15831" lon="1.8542">
        <ele>461</ele>
        <time>2016-12-02T11:45:09Z</time>
      </trkpt>
      <trkpt lat="46.15832" lon="1.85421">
        <ele>461</ele>
        <time>2016-12-02T11:47:09Z</time>
      </trkpt>
      <trkpt lat="46.15831" lon="1.85417">
        <ele>461</ele>
        <time>2016-12-02T11:49:09Z</time>
      </trkpt>
      <trkpt lat="46.15831" lon="1.85416">
        <ele>461</ele>
        <time>2016-12-02T11:51:09Z</time>
      </trkpt>
      <trkpt lat="46.15831" lon="1.85414">
        <ele>461</ele>
        <time>2016-12-02T11:53:09Z</time>
      </trkpt>
      <trkpt lat="46.15831" lon="1.85412">
        <ele>462</ele>
        <time>2016-12-02T11:55:09Z</time>
      </trkpt>
      <trkpt lat="46.15831" lon="1.8541">
        <ele>462</ele>
        <time>2016-12-02T11:57:09Z</time>
      </trkpt>
      <trkpt lat="46.15828" lon="1.85405">
        <ele>462</ele>
        <time>2016-12-02T11:59:09Z</time>
      </trkpt>
      <trkpt lat="46.15825" lon="1.854">
        <ele>463</ele>
        <time>2016-12-02T12:01:09Z</time>
      </trkpt>
      <trkpt lat="46.15824" lon="1.85399">
        <ele>463</ele>
        <time>2016-12-02T12:03:09Z</time>
      </trkpt>
      <trkpt lat="46.15819" lon="1.85395">
        <ele>464</ele>
        <time>2016-12-02T12:05:09Z</time>
      </trkpt>
      <trkpt lat="46.15813" lon="1.8539">
        <ele>465</ele>
        <time>2016-12-02T12:07:09Z</time>
      </trkpt>
      <trkpt lat="46.15811" lon="1.85388">
        <ele>465</ele>
        <time>2016-12-02T12:09:09Z</time>
      </trkpt>
      <trkpt lat="46.15803" lon="1.85381">
        <ele>466</ele>
        <time>2016-12-02T12:11:09Z</time>
      </trkpt>
      <trkpt lat="46.15799" lon="1.85378">
        <ele>467</ele>
        <time>2016-12-02T12:13:09Z</time>
      </trkpt>
      <trkpt lat="46.15798" lon="1.85377">
        <ele>467</ele>
        <time>2016-12-02T12:15:09Z</time>
      </trkpt>
      <trkpt lat="46.15796" lon="1.85375">
        <ele>467</ele>
        <time>2016-12-02T12:17:09Z</time>
      </trkpt>
      <trkpt lat="46.15793" lon="1.85376">
        <ele>468</ele>
        <time>2016-12-02T12:19:09Z</time>
      </trkpt>
      <trkpt lat="46.15791" lon="1.85375">
        <ele>468</ele>
        <time>2016-12-02T12:21:09Z</time>
      </trkpt>
      <trkpt lat="46.15787" lon="1.85373">
        <ele>469</ele>
        <time>2016-12-02T12:23:09Z</time>
      </trkpt>
      <trkpt lat="46.15785" lon="1.85371">
        <ele>469</ele>
        <time>2016-12-02T12:25:09Z</time>
      </trkpt>
      <trkpt lat="46.15779" lon="1.85365">
        <ele>470</ele>
        <time>2016-12-02T12:27:09Z</time>
      </trkpt>
      <trkpt lat="46.15777" lon="1.85364">
        <ele>470</ele>
        <time>2016-12-02T12:29:09Z</time>
      </trkpt>
      <trkpt lat="46.15773" lon="1.85363">
        <ele>470</ele>
        <time>2016-12-02T12:31:09Z</time>
      </trkpt>
      <trkpt lat="46.15771" lon="1.85361">
        <ele>471</ele>
        <time>2016-12-02T12:33:09Z</time>
      </trkpt>
      <trkpt lat="46.15769" lon="1.85361">
        <ele>471</ele>
        <time>2016-12-02T12:35:09Z</time>
      </trkpt>
      <trkpt lat="46.15765" lon="1.8536">
        <ele>471</ele>
        <time>2016-12-02T12:37:09Z</time>
      </trkpt>
      <trkpt lat="46.15762" lon="1.85356">
        <ele>472</ele>
        <time>2016-12-02T12:39:09Z</time>
      </trkpt>
      <trkpt lat="46.15758" lon="1.85355">
        <ele>472</ele>
        <time>2016-12-02T12:41:09Z</time>
      </trkpt>
      <trkpt lat="46.15755" lon="1.85352">
        <ele>472</ele>
        <time>2016-12-02T12:43:09Z</time>
      </trkpt>
      <trkpt lat="46.15755" lon="1.85351">
        <ele>472</ele>
        <time>2016-12-02T12:45:09Z</time>
      </trkpt>
      <trkpt lat="46.15755" lon="1.8535">
        <ele>472</ele>
        <time>2016-12-02T12:47:09Z</time>
      </trkpt>
      <trkpt lat="46.15753" lon="1.85349">
        <ele>473</ele>
        <time>2016-12-02T12:49:09Z</time>
      </trkpt>
      <trkpt lat="46.15752" lon="1.85348">
        <ele>473</ele>
        <time>2016-12-02T12:51:09Z</time>
      </trkpt>
      <trkpt lat="46.15751" lon="1.85349">
        <ele>473</ele>
        <time>2016-12-02T12:53:09Z</time>
      </trkpt>
      <trkpt lat="46.15753" lon="1.85351">
        <ele>473</ele>
        <time>2016-12-02T12:55:09Z</time>
      </trkpt>
      <trkpt lat="46.15754" lon="1.85353">
        <ele>473</ele>
        <time>2016-12-02T12:57:09Z</time>
      </trkpt>
      <trkpt lat="46.15754" lon="1.85353">
        <ele>473</ele>
        <time>2016-12-02T12:59:09Z</time>
      </trkpt>
      <trkpt lat="46.15753" lon="1.85353">
        <ele>473</ele>
        <time>2016-12-02T13:01:09Z</time>
      </trkpt>
      <trkpt lat="46.15753" lon="1.85354">
        <ele>473</ele>
        <time>2016-12-02T13:03:09Z</time>
      </trkpt>
      <trkpt lat="46.15755" lon="1.85352">
        <ele>472</ele>
        <time>2016-12-02T13:05:09Z</time>
      </trkpt>
      <trkpt lat="46.15753" lon="1.85352">
        <ele>473</ele>
        <time>2016-12-02T13:07:09Z</time>
      </trkpt>
      <trkpt lat="46.15753" lon="1.85356">
        <ele>473</ele>
        <time>2016-12-02T13:09:09Z</time>
      </trkpt>
      <trkpt lat="46.15753" lon="1.85355">
        <ele>473</ele>
        <time>2016-12-02T13:11:09Z</time>
      </trkpt>
      <trkpt lat="46.15753" lon="1.85355">
        <ele>473</ele>
        <time>2016-12-02T13:13:09Z</time>
      </trkpt>
      <trkpt lat="46.15752" lon="1.85355">
        <ele>473</ele>
        <time>2016-12-02T13:15:09Z</time>
      </trkpt>
      <trkpt lat="46.15751" lon="1.85352">
        <ele>473</ele>
        <time>2016-12-02T13:17:09Z</time>
      </trkpt>
      <trkpt lat="46.15752" lon="1.85352">
        <ele>473</ele>
        <time>2016-12-02T13:19:09Z</time>
      </trkpt>
      <trkpt lat="46.15751" lon="1.85351">
        <ele>473</ele>
        <time>2016-12-02T13:21:09Z</time>
      </trkpt>
      <trkpt lat="46.1575" lon="1.85349">
        <ele>473</ele>
        <time>2016-12-02T13:23:09Z</time>
      </trkpt>
      <trkpt lat="46.1575" lon="1.85348">
        <ele>473</ele>
        <time>2016-12-02T13:25:09Z</time>
      </trkpt>
      <trkpt lat="46.1575" lon="1.85348">
        <ele>473</ele>
        <time>2016-12-02T13:27:09Z</time>
      </trkpt>
      <trkpt lat="46.1575" lon="1.85347">
        <ele>473</ele>
        <time>2016-12-02T13:29:09Z</time>
      </trkpt>
      <trkpt lat="46.1575" lon="1.85346">
        <ele>473</ele>
        <time>2016-12-02T13:31:09Z</time>
      </trkpt>
      <trkpt lat="46.1575" lon="1.85346">
        <ele>473</ele>
        <time>2016-12-02T13:33:09Z</time>
      </trkpt>
      <trkpt lat="46.15749" lon="1.85346">
        <ele>473</ele>
        <time>2016-12-02T13:35:09Z</time>
      </trkpt>
      <trkpt lat="46.15748" lon="1.85344">
        <ele>473</ele>
        <time>2016-12-02T13:37:09Z</time>
      </trkpt>
      <trkpt lat="46.15747" lon="1.85343">
        <ele>473</ele>
        <time>2016-12-02T13:39:09Z</time>
      </trkpt>
      <trkpt lat="46.15747" lon="1.85342">
        <ele>473</ele>
        <time>2016-12-02T13:41:09Z</time>
      </trkpt>
      <trkpt lat="46.15746" lon="1.85341">
        <ele>473</ele>
        <time>2016-12-02T13:43:09Z</time>
      </trkpt>
      <trkpt lat="46.15744" lon="1.8534">
        <ele>473</ele>
        <time>2016-12-02T13:45:09Z</time>
      </trkpt>
      <trkpt lat="46.15742" lon="1.85341">
        <ele>474</ele>
        <time>2016-12-02T13:47:09Z</time>
      </trkpt>
      <trkpt lat="46.1574" lon="1.85341">
        <ele>474</ele>
        <time>2016-12-02T13:49:09Z</time>
      </trkpt>
      <trkpt lat="46.15735" lon="1.85342">
        <ele>474</ele>
        <time>2016-12-02T13:51:09Z</time>
      </trkpt>
      <trkpt lat="46.15733" lon="1.85341">
        <ele>474</ele>
        <time>2016-12-02T13:53:09Z</time>
      </trkpt>
      <trkpt lat="46.15732" lon="1.8534">
        <ele>474</ele>
        <time>2016-12-02T13:55:09Z</time>
      </trkpt>
      <trkpt lat="46.15729" lon="1.85341">
        <ele>475</ele>
        <time>2016-12-02T13:57:09Z</time>
      </trkpt>
      <trkpt lat="46.15728" lon="1.85341">
        <ele>475</ele>
        <time>2016-12-02T13:59:09Z</time>
      </trkpt>
      <trkpt lat="46.15725" lon="1.85341">
        <ele>475</ele>
        <time>2016-12-02T14:01:09Z</time>
      </trkpt>
      <trkpt lat="46.15717" lon="1.85342">
        <ele>476</ele>
        <time>2016-12-02T14:03:09Z</time>
      </trkpt>
      <trkpt lat="46.15713" lon="1.85342">
        <ele>476</ele>
        <time>2016-12-02T14:05:09Z</time>
      </trkpt>
      <trkpt lat="46.1571" lon="1.85341">
        <ele>476</ele>
        <time>2016-12-02T14:07:09Z</time>
      </trkpt>
      <trkpt lat="46.15708" lon="1.8534">
        <ele>476</ele>
        <time>2016-12-02T14:09:09Z</time>
      </trkpt>
      <trkpt lat="46.15705" lon="1.85341">
        <ele>476</ele>
        <time>2016-12-02T14:11:09Z</time>
      </trkpt>
      <trkpt lat="46.15704" lon="1.8534">
        <ele>476</ele>
        <time>2016-12-02T14:13:09Z</time>
      </trkpt>
      <trkpt lat="46.15699" lon="1.8534">
        <ele>477</ele>
        <time>2016-12-02T14:15:09Z</time>
      </trkpt>
      <trkpt lat="46.15696" lon="1.85342">
        <ele>477</ele>
        <time>2016-12-02T14:17:09Z</time>
      </trkpt>
      <trkpt lat="46.15693" lon="1.85343">
        <ele>477</ele>
        <time>2016-12-02T14:19:09Z</time>
      </trkpt>
      <trkpt lat="46.15692" lon="1.85343">
        <ele>477</ele>
        <time>2016-12-02T14:21:09Z</time>
      </trkpt>
      <trkpt lat="46.15689" lon="1.85345">
        <ele>478</ele>
        <time>2016-12-02T14:23:09Z</time>
      </trkpt>
      <trkpt lat="46.15686" lon="1.85345">
        <ele>478</ele>
        <time>2016-12-02T14:25:09Z</time>
      </trkpt>
      <trkpt lat="46.15684" lon="1.85345">
        <ele>478</ele>
        <time>2016-12-02T14:27:09Z</time>
      </trkpt>
      <trkpt lat="46.15683" lon="1.85346">
        <ele>478</ele>
        <time>2016-12-02T14:29:09Z</time>
      </trkpt>
      <trkpt lat="46.15681" lon="1.85346">
        <ele>478</ele>
        <time>2016-12-02T14:31:09Z</time>
      </trkpt>
      <trkpt lat="46.15681" lon="1.85347">
        <ele>479</ele>
        <time>2016-12-02T14:33:09Z</time>
      </trkpt>
      <trkpt lat="46.15681" lon="1.85347">
        <ele>479</ele>
        <time>2016-12-02T14:35:09Z</time>
      </trkpt>
      <trkpt lat="46.15681" lon="1.85346">
        <ele>478</ele>
        <time>2016-12-02T14:37:09Z</time>
      </trkpt>
      <trkpt lat="46.15679" lon="1.85347">
        <ele>479</ele>
        <time>2016-12-02T14:39:09Z</time>
      </trkpt>
      <trkpt lat="46.15678" lon="1.85346">
        <ele>479</ele>
        <time>2016-12-02T14:41:09Z</time>
      </trkpt>
      <trkpt lat="46.15678" lon="1.85347">
        <ele>479</ele>
        <time>2016-12-02T14:43:09Z</time>
      </trkpt>
      <trkpt lat="46.15678" lon="1.85347">
        <ele>479</ele>
        <time>2016-12-02T14:45:09Z</time>
      </trkpt>
      <trkpt lat="46.15677" lon="1.85346">
        <ele>479</ele>
        <time>2016-12-02T14:47:09Z</time>
      </trkpt>
      <trkpt lat="46.15676" lon="1.85346">
        <ele>479</ele>
        <time>2016-12-02T14:49:09Z</time>
      </trkpt>
      <trkpt lat="46.15674" lon="1.85346">
        <ele>479</ele>
        <time>2016-12-02T14:51:09Z</time>
      </trkpt>
      <trkpt lat="46.15673" lon="1.85345">
        <ele>479</ele>
        <time>2016-12-02T14:53:09Z</time>
      </trkpt>
      <trkpt lat="46.15672" lon="1.85344">
        <ele>479</ele>
        <time>2016-12-02T14:55:09Z</time>
      </trkpt>
      <trkpt lat="46.15673" lon="1.85341">
        <ele>479</ele>
        <time>2016-12-02T14:57:09Z</time>
      </trkpt>
      <trkpt lat="46.15672" lon="1.85339">
        <ele>479</ele>
        <time>2016-12-02T14:59:09Z</time>
      </trkpt>
      <trkpt lat="46.15672" lon="1.85336">
        <ele>479</ele>
        <time>2016-12-02T15:01:09Z</time>
      </trkpt>
      <trkpt lat="46.15673" lon="1.85332">
        <ele>479</ele>
        <time>2016-12-02T15:03:09Z</time>
      </trkpt>
      <trkpt lat="46.15673" lon="1.85324">
        <ele>479</ele>
        <time>2016-12-02T15:05:09Z</time>
      </trkpt>
      <trkpt lat="46.15675" lon="1.85317">
        <ele>479</ele>
        <time>2016-12-02T15:07:09Z</time>
      </trkpt>
      <trkpt lat="46.15676" lon="1.85313">
        <ele>479</ele>
        <time>2016-12-02T15:09:09Z</time>
      </trkpt>
      <trkpt lat="46.15677" lon="1.8531">
        <ele>479</ele>
        <time>2016-12-02T15:11:09Z</time>
      </trkpt>
      <trkpt lat="46.15678" lon="1.85304">
        <ele>480</ele>
        <time>2016-12-02T15:13:09Z</time>
      </trkpt>
      <trkpt lat="46.15683" lon="1.85297">
        <ele>480</ele>
        <time>2016-12-02T15:15:09Z</time>
      </trkpt>
      <trkpt lat="46.15686" lon="1.8529">
        <ele>480</ele>
        <time>2016-12-02T15:17:09Z</time>
      </trkpt>
      <trkpt lat="46.15688" lon="1.85282">
        <ele>481</ele>
        <time>2016-12-02T15:19:09Z</time>
      </trkpt>
      <trkpt lat="46.15688" lon="1.85277">
        <ele>481</ele>
        <time>2016-12-02T15:21:09Z</time>
      </trkpt>
      <trkpt lat="46.15687" lon="1.85274">
        <ele>481</ele>
        <time>2016-12-02T15:23:09Z</time>
      </trkpt>
      <trkpt lat="46.15686" lon="1.8527">
        <ele>482</ele>
        <time>2016-12-02T15:25:09Z</time>
      </trkpt>
      <trkpt lat="46.15682" lon="1.85264">
        <ele>482</ele>
        <time>2016-12-02T15:27:09Z</time>
      </trkpt>
      <trkpt lat="46.1568" lon="1.85259">
        <ele>482</ele>
        <time>2016-12-02T15:29:09Z</time>
      </trkpt>
      <trkpt lat="46.15678" lon="1.85253">
        <ele>482</ele>
        <time>2016-12-02T15:31:09Z</time>
      </trkpt>
      <trkpt lat="46.15677" lon="1.85251">
        <ele>482</ele>
        <time>2016-12-02T15:33:09Z</time>
      </trkpt>
      <trkpt lat="46.15676" lon="1.85248">
        <ele>483</ele>
        <time>2016-12-02T15:35:09Z</time>
      </trkpt>
      <trkpt lat="46.15675" lon="1.85246">
        <ele>483</ele>
        <time>2016-12-02T15:37:09Z</time>
      </trkpt>
      <trkpt lat="46.15676" lon="1.85244">
        <ele>483</ele>
        <time>2016-12-02T15:39:09Z</time>
      </trkpt>
      <trkpt lat="46.15674" lon="1.85239">
        <ele>483</ele>
        <time>2016-12-02T15:41:09Z</time>
      </trkpt>
      <trkpt lat="46.15674" lon="1.85234">
        <ele>484</ele>
        <time>2016-12-02T15:43:09Z</time>
      </trkpt>
      <trkpt lat="46.15674" lon="1.85231">
        <ele>484</ele>
        <time>2016-12-02T15:45:09Z</time>
      </trkpt>
      <trkpt lat="46.15674" lon="1.85229">
        <ele>484</ele>
        <time>2016-12-02T15:47:09Z</time>
      </trkpt>
      <trkpt lat="46.15675" lon="1.85224">
        <ele>485</ele>
        <time>2016-12-02T15:49:09Z</time>
      </trkpt>
      <trkpt lat="46.15675" lon="1.85221">
        <ele>485</ele>
        <time>2016-12-02T15:51:09Z</time>
      </trkpt>
      <trkpt lat="46.15675" lon="1.85219">
        <ele>485</ele>
        <time>2016-12-02T15:53:09Z</time>
      </trkpt>
      <trkpt lat="46.15677" lon="1.85212">
        <ele>486</ele>
        <time>2016-12-02T15:55:09Z</time>
      </trkpt>
      <trkpt lat="46.15678" lon="1.8521">
        <ele>486</ele>
        <time>2016-12-02T15:57:09Z</time>
      </trkpt>
      <trkpt lat="46.15679" lon="1.85208">
        <ele>486</ele>
        <time>2016-12-02T15:59:09Z</time>
      </trkpt>
      <trkpt lat="46.15679" lon="1.85206">
        <ele>487</ele>
        <time>2016-12-02T16:01:09Z</time>
      </trkpt>
      <trkpt lat="46.1568" lon="1.85204">
        <ele>487</ele>
        <time>2016-12-02T16:03:09Z</time>
      </trkpt>
      <trkpt lat="46.15681" lon="1.85202">
        <ele>487</ele>
        <time>2016-12-02T16:05:09Z</time>
      </trkpt>
      <trkpt lat="46.1568" lon="1.852">
        <ele>487</ele>
        <time>2016-12-02T16:07:09Z</time>
      </trkpt>
      <trkpt lat="46.15683" lon="1.85196">
        <ele>488</ele>
        <time>2016-12-02T16:09:09Z</time>
      </trkpt>
      <trkpt lat="46.15685" lon="1.85193">
        <ele>488</ele>
        <time>2016-12-02T16:11:09Z</time>
      </trkpt>
      <trkpt lat="46.15685" lon="1.85191">
        <ele>489</ele>
        <time>2016-12-02T16:13:09Z</time>
      </trkpt>
      <trkpt lat="46.15686" lon="1.85189">
        <ele>489</ele>
        <time>2016-12-02T16:15:09Z</time>
      </trkpt>
      <trkpt lat="46.15687" lon="1.85186">
        <ele>489</ele>
        <time>2016-12-02T16:17:09Z</time>
      </trkpt>
      <trkpt lat="46.15688" lon="1.85183">
        <ele>490</ele>
        <time>2016-12-02T16:19:09Z</time>
      </trkpt>
      <trkpt lat="46.1569" lon="1.85177">
        <ele>490</ele>
        <time>2016-12-02T16:21:09Z</time>
      </trkpt>
      <trkpt lat="46.15691" lon="1.85174">
        <ele>491</ele>
        <time>2016-12-02T16:23:09Z</time>
      </trkpt>
      <trkpt lat="46.15691" lon="1.8517">
        <ele>491</ele>
        <time>2016-12-02T16:25:09Z</time>
      </trkpt>
      <trkpt lat="46.15692" lon="1.85168">
        <ele>492</ele>
        <time>2016-12-02T16:27:09Z</time>
      </trkpt>
      <trkpt lat="46.15694" lon="1.85167">
        <ele>492</ele>
        <time>2016-12-02T16:29:09Z</time>
      </trkpt>
      <trkpt lat="46.15697" lon="1.85162">
        <ele>492</ele>
        <time>2016-12-02T16:31:09Z</time>
      </trkpt>
      <trkpt lat="46.15698" lon="1.8516">
        <ele>493</ele>
        <time>2016-12-02T16:33:09Z</time>
      </trkpt>
      <trkpt lat="46.15699" lon="1.85158">
        <ele>493</ele>
        <time>2016-12-02T16:35:09Z</time>
      </trkpt>
      <trkpt lat="46.15701" lon="1.85155">
        <ele>493</ele>
        <time>2016-12-02T16:37:09Z</time>
      </trkpt>
      <trkpt lat="46.15704" lon="1.85141">
        <ele>494</ele>
        <time>2016-12-02T16:39:09Z</time>
      </trkpt>
      <trkpt lat="46.15706" lon="1.85137">
        <ele>494</ele>
        <time>2016-12-02T16:41:09Z</time>
      </trkpt>
      <trkpt lat="46.15708" lon="1.85134">
        <ele>494</ele>
        <time>2016-12-02T16:43:09Z</time>
      </trkpt>
      <trkpt lat="46.15707" lon="1.85131">
        <ele>494</ele>
        <time>2016-12-02T16:45:09Z</time>
      </trkpt>
      <trkpt lat="46.15707" lon="1.85127">
        <ele>494</ele>
        <time>2016-12-02T16:47:09Z</time>
      </trkpt>
      <trkpt lat="46.15705" lon="1.85123">
        <ele>494</ele>
        <time>2016-12-02T16:49:09Z</time>
      </trkpt>
      <trkpt lat="46.15705" lon="1.85121">
        <ele>494</ele>
        <time>2016-12-02T16:51:09Z</time>
      </trkpt>
      <trkpt lat="46.15705" lon="1.85119">
        <ele>494</ele>
        <time>2016-12-02T16:53:09Z</time>
      </trkpt>
      <trkpt lat="46.15703" lon="1.85108">
        <ele>494</ele>
        <time>2016-12-02T16:55:09Z</time>
      </trkpt>
      <trkpt lat="46.15705" lon="1.85101">
        <ele>495</ele>
        <time>2016-12-02T16:57:09Z</time>
      </trkpt>
      <trkpt lat="46.15706" lon="1.85092">
        <ele>495</ele>
        <time>2016-12-02T16:59:09Z</time>
      </trkpt>
      <trkpt lat="46.15705" lon="1.85088">
        <ele>495</ele>
        <time>2016-12-02T17:01:09Z</time>
      </trkpt>
      <trkpt lat="46.15706" lon="1.85084">
        <ele>495</ele>
        <time>2016-12-02T17:03:09Z</time>
      </trkpt>
      <trkpt lat="46.15705" lon="1.8508">
        <ele>496</ele>
        <time>2016-12-02T17:05:09Z</time>
      </trkpt>
      <trkpt lat="46.15706" lon="1.85076">
        <ele>496</ele>
        <time>2016-12-02T17:07:09Z</time>
      </trkpt>
      <trkpt lat="46.15706" lon="1.85073">
        <ele>496</ele>
        <time>2016-12-02T17:09:09Z</time>
      </trkpt>
      <trkpt lat="46.15706" lon="1.85069">
        <ele>497</ele>
        <time>2016-12-02T17:11:09Z</time>
      </trkpt>
      <trkpt lat="46.15705" lon="1.85065">
        <ele>497</ele>
        <time>2016-12-02T17:13:09Z</time>
      </trkpt>
      <trkpt lat="46.15707" lon="1.85062">
        <ele>497</ele>
        <time>2016-12-02T17:15:09Z</time>
      </trkpt>
      <trkpt lat="46.15705" lon="1.85058">
        <ele>497</ele>
        <time>2016-12-02T17:17:09Z</time>
      </trkpt>
      <trkpt lat="46.15705" lon="1.85054">
        <ele>498</ele>
        <time>2016-12-02T17:19:09Z</time>
      </trkpt>
      <trkpt lat="46.15704" lon="1.85046">
        <ele>498</ele>
        <time>2016-12-02T17:21:09Z</time>
      </trkpt>
      <trkpt lat="46.15702" lon="1.85043">
        <ele>499</ele>
        <time>2016-12-02T17:23:09Z</time>
      </trkpt>
      <trkpt lat="46.157" lon="1.85039">
        <ele>499</ele>
        <time>2016-12-02T17:25:09Z</time>
      </trkpt>
      <trkpt lat="46.15699" lon="1.85034">
        <ele>499</ele>
        <time>2016-12-02T17:27:09Z</time>
      </trkpt>
      <trkpt lat="46.15698" lon="1.85033">
        <ele>499</ele>
        <time>2016-12-02T17:29:09Z</time>
      </trkpt>
      <trkpt lat="46.15697" lon="1.8503">
        <ele>499</ele>
        <time>2016-12-02T17:31:09Z</time>
      </trkpt>
      <trkpt lat="46.15693" lon="1.85024">
        <ele>500</ele>
        <time>2016-12-02T17:33:09Z</time>
      </trkpt>
      <trkpt lat="46.15692" lon="1.85023">
        <ele>500</ele>
        <time>2016-12-02T17:35:09Z</time>
      </trkpt>
      <trkpt lat="46.15692" lon="1.8502">
        <ele>500</ele>
        <time>2016-12-02T17:37:09Z</time>
      </trkpt>
      <trkpt lat="46.15688" lon="1.85018">
        <ele>500</ele>
        <time>2016-12-02T17:39:09Z</time>
      </trkpt>
      <trkpt lat="46.15686" lon="1.85018">
        <ele>500</ele>
        <time>2016-12-02T17:41:09Z</time>
      </trkpt>
      <trkpt lat="46.15684" lon="1.85017">
        <ele>500</ele>
        <time>2016-12-02T17:43:09Z</time>
      </trkpt>
      <trkpt lat="46.15683" lon="1.85015">
        <ele>500</ele>
        <time>2016-12-02T17:45:09Z</time>
      </trkpt>
      <trkpt lat="46.15681" lon="1.85014">
        <ele>500</ele>
        <time>2016-12-02T17:47:09Z</time>
      </trkpt>
      <trkpt lat="46.15679" lon="1.85012">
        <ele>500</ele>
        <time>2016-12-02T17:49:09Z</time>
      </trkpt>
      <trkpt lat="46.15677" lon="1.8501">
        <ele>500</ele>
        <time>2016-12-02T17:51:09Z</time>
      </trkpt>
      <trkpt lat="46.15675" lon="1.85008">
        <ele>500</ele>
        <time>2016-12-02T17:53:09Z</time>
      </trkpt>
      <trkpt lat="46.15672" lon="1.85005">
        <ele>501</ele>
        <time>2016-12-02T17:55:09Z</time>
      </trkpt>
      <trkpt lat="46.15671" lon="1.85004">
        <ele>501</ele>
        <time>2016-12-02T17:57:09Z</time>
      </trkpt>
      <trkpt lat="46.15669" lon="1.85003">
        <ele>501</ele>
        <time>2016-12-02T17:59:09Z</time>
      </trkpt>
      <trkpt lat="46.15667" lon="1.84997">
        <ele>501</ele>
        <time>2016-12-02T18:01:09Z</time>
      </trkpt>
      <trkpt lat="46.15665" lon="1.84997">
        <ele>501</ele>
        <time>2016-12-02T18:03:09Z</time>
      </trkpt>
      <trkpt lat="46.15664" lon="1.84994">
        <ele>502</ele>
        <time>2016-12-02T18:05:09Z</time>
      </trkpt>
      <trkpt lat="46.15663" lon="1.84993">
        <ele>502</ele>
        <time>2016-12-02T18:07:09Z</time>
      </trkpt>
      <trkpt lat="46.15661" lon="1.84992">
        <ele>502</ele>
        <time>2016-12-02T18:09:09Z</time>
      </trkpt>
      <trkpt lat="46.1566" lon="1.84989">
        <ele>502</ele>
        <time>2016-12-02T18:11:09Z</time>
      </trkpt>
      <trkpt lat="46.15658" lon="1.84988">
        <ele>503</ele>
        <time>2016-12-02T18:13:09Z</time>
      </trkpt>
      <trkpt lat="46.15657" lon="1.84985">
        <ele>503</ele>
        <time>2016-12-02T18:15:09Z</time>
      </trkpt>
      <trkpt lat="46.15653" lon="1.84983">
        <ele>503</ele>
        <time>2016-12-02T18:17:09Z</time>
      </trkpt>
      <trkpt lat="46.15651" lon="1.84981">
        <ele>503</ele>
        <time>2016-12-02T18:19:09Z</time>
      </trkpt>
      <trkpt lat="46.1565" lon="1.84978">
        <ele>504</ele>
        <time>2016-12-02T18:21:09Z</time>
      </trkpt>
      <trkpt lat="46.15648" lon="1.84977">
        <ele>504</ele>
        <time>2016-12-02T18:23:09Z</time>
      </trkpt>
      <trkpt lat="46.15646" lon="1.84971">
        <ele>504</ele>
        <time>2016-12-02T18:25:09Z</time>
      </trkpt>
      <trkpt lat="46.15645" lon="1.84969">
        <ele>504</ele>
        <time>2016-12-02T18:27:09Z</time>
      </trkpt>
      <trkpt lat="46.15644" lon="1.84967">
        <ele>505</ele>
        <time>2016-12-02T18:29:09Z</time>
      </trkpt>
      <trkpt lat="46.15642" lon="1.84966">
        <ele>505</ele>
        <time>2016-12-02T18:31:09Z</time>
      </trkpt>
      <trkpt lat="46.15641" lon="1.84963">
        <ele>505</ele>
        <time>2016-12-02T18:33:09Z</time>
      </trkpt>
      <trkpt lat="46.1564" lon="1.84959">
        <ele>505</ele>
        <time>2016-12-02T18:35:09Z</time>
      </trkpt>
      <trkpt lat="46.15637" lon="1.84953">
        <ele>506</ele>
        <time>2016-12-02T18:37:09Z</time>
      </trkpt>
      <trkpt lat="46.15636" lon="1.8495">
        <ele>506</ele>
        <time>2016-12-02T18:39:09Z</time>
      </trkpt>
      <trkpt lat="46.15635" lon="1.84947">
        <ele>506</ele>
        <time>2016-12-02T18:41:09Z</time>
      </trkpt>
      <trkpt lat="46.15633" lon="1.84945">
        <ele>506</ele>
        <time>2016-12-02T18:43:09Z</time>
      </trkpt>
      <trkpt lat="46.15629" lon="1.84937">
        <ele>506</ele>
        <time>2016-12-02T18:45:09Z</time>
      </trkpt>
      <trkpt lat="46.15627" lon="1.84935">
        <ele>506</ele>
        <time>2016-12-02T18:47:09Z</time>
      </trkpt>
      <trkpt lat="46.15626" lon="1.84933">
        <ele>506</ele>
        <time>2016-12-02T18:49:09Z</time>
      </trkpt>
      <trkpt lat="46.15626" lon="1.84931">
        <ele>507</ele>
        <time>2016-12-02T18:51:09Z</time>
      </trkpt>
      <trkpt lat="46.15624" lon="1.84929">
        <ele>507</ele>
        <time>2016-12-02T18:53:09Z</time>
      </trkpt>
      <trkpt lat="46.15623" lon="1.84924">
        <ele>507</ele>
        <time>2016-12-02T18:55:09Z</time>
      </trkpt>
      <trkpt lat="46.15619" lon="1.84916">
        <ele>507</ele>
        <time>2016-12-02T18:57:09Z</time>
      </trkpt>
      <trkpt lat="46.15618" lon="1.84913">
        <ele>507</ele>
        <time>2016-12-02T18:59:09Z</time>
      </trkpt>
      <trkpt lat="46.15618" lon="1.84909">
        <ele>508</ele>
        <time>2016-12-02T19:01:09Z</time>
      </trkpt>
      <trkpt lat="46.15615" lon="1.84905">
        <ele>508</ele>
        <time>2016-12-02T19:03:09Z</time>
      </trkpt>
      <trkpt lat="46.15614" lon="1.84902">
        <ele>508</ele>
        <time>2016-12-02T19:05:09Z</time>
      </trkpt>
      <trkpt lat="46.15612" lon="1.849">
        <ele>508</ele>
        <time>2016-12-02T19:07:09Z</time>
      </trkpt>
      <trkpt lat="46.15611" lon="1.84898">
        <ele>508</ele>
        <time>2016-12-02T19:09:09Z</time>
      </trkpt>
      <trkpt lat="46.15609" lon="1.84896">
        <ele>508</ele>
        <time>2016-12-02T19:11:09Z</time>
      </trkpt>
      <trkpt lat="46.15605" lon="1.84892">
        <ele>509</ele>
        <time>2016-12-02T19:13:09Z</time>
      </trkpt>
      <trkpt lat="46.15604" lon="1.84889">
        <ele>509</ele>
        <time>2016-12-02T19:15:09Z</time>
      </trkpt>
      <trkpt lat="46.15604" lon="1.84884">
        <ele>509</ele>
        <time>2016-12-02T19:17:09Z</time>
      </trkpt>
      <trkpt lat="46.15602" lon="1.8488">
        <ele>510</ele>
        <time>2016-12-02T19:19:09Z</time>
      </trkpt>
      <trkpt lat="46.15601" lon="1.84878">
        <ele>510</ele>
        <time>2016-12-02T19:21:09Z</time>
      </trkpt>
      <trkpt lat="46.15597" lon="1.84876">
        <ele>510</ele>
        <time>2016-12-02T19:23:09Z</time>
      </trkpt>
      <trkpt lat="46.15597" lon="1.84874">
        <ele>510</ele>
        <time>2016-12-02T19:25:09Z</time>
      </trkpt>
      <trkpt lat="46.15596" lon="1.84871">
        <ele>510</ele>
        <time>2016-12-02T19:27:09Z</time>
      </trkpt>
      <trkpt lat="46.15595" lon="1.84869">
        <ele>511</ele>
        <time>2016-12-02T19:29:09Z</time>
      </trkpt>
      <trkpt lat="46.15595" lon="1.84867">
        <ele>511</ele>
        <time>2016-12-02T19:31:09Z</time>
      </trkpt>
      <trkpt lat="46.15594" lon="1.84864">
        <ele>511</ele>
        <time>2016-12-02T19:33:09Z</time>
      </trkpt>
      <trkpt lat="46.15592" lon="1.84859">
        <ele>512</ele>
        <time>2016-12-02T19:35:09Z</time>
      </trkpt>
      <trkpt lat="46.15592" lon="1.84855">
        <ele>512</ele>
        <time>2016-12-02T19:37:09Z</time>
      </trkpt>
      <trkpt lat="46.15591" lon="1.84853">
        <ele>512</ele>
        <time>2016-12-02T19:39:09Z</time>
      </trkpt>
      <trkpt lat="46.1559" lon="1.8485">
        <ele>512</ele>
        <time>2016-12-02T19:41:09Z</time>
      </trkpt>
      <trkpt lat="46.15589" lon="1.84846">
        <ele>513</ele>
        <time>2016-12-02T19:43:09Z</time>
      </trkpt>
      <trkpt lat="46.15589" lon="1.84843">
        <ele>513</ele>
        <time>2016-12-02T19:45:09Z</time>
      </trkpt>
      <trkpt lat="46.1559" lon="1.8484">
        <ele>514</ele>
        <time>2016-12-02T19:47:09Z</time>
      </trkpt>
      <trkpt lat="46.1559" lon="1.84837">
        <ele>514</ele>
        <time>2016-12-02T19:49:09Z</time>
      </trkpt>
      <trkpt lat="46.1559" lon="1.8483">
        <ele>515</ele>
        <time>2016-12-02T19:51:09Z</time>
      </trkpt>
      <trkpt lat="46.1559" lon="1.84828">
        <ele>515</ele>
        <time>2016-12-02T19:53:09Z</time>
      </trkpt>
      <trkpt lat="46.15588" lon="1.84825">
        <ele>516</ele>
        <time>2016-12-02T19:55:09Z</time>
      </trkpt>
      <trkpt lat="46.15588" lon="1.84822">
        <ele>516</ele>
        <time>2016-12-02T19:57:09Z</time>
      </trkpt>
      <trkpt lat="46.15586" lon="1.84814">
        <ele>517</ele>
        <time>2016-12-02T19:59:09Z</time>
      </trkpt>
      <trkpt lat="46.15584" lon="1.84808">
        <ele>518</ele>
        <time>2016-12-02T20:01:09Z</time>
      </trkpt>
      <trkpt lat="46.15585" lon="1.84805">
        <ele>518</ele>
        <time>2016-12-02T20:03:09Z</time>
      </trkpt>
      <trkpt lat="46.15584" lon="1.84802">
        <ele>519</ele>
        <time>2016-12-02T20:05:09Z</time>
      </trkpt>
      <trkpt lat="46.15582" lon="1.84799">
        <ele>519</ele>
        <time>2016-12-02T20:07:09Z</time>
      </trkpt>
      <trkpt lat="46.15583" lon="1.84796">
        <ele>520</ele>
        <time>2016-12-02T20:09:09Z</time>
      </trkpt>
      <trkpt lat="46.15581" lon="1.8479">
        <ele>521</ele>
        <time>2016-12-02T20:11:09Z</time>
      </trkpt>
      <trkpt lat="46.1558" lon="1.84788">
        <ele>521</ele>
        <time>2016-12-02T20:13:09Z</time>
      </trkpt>
      <trkpt lat="46.15577" lon="1.84787">
        <ele>521</ele>
        <time>2016-12-02T20:15:09Z</time>
      </trkpt>
      <trkpt lat="46.15576" lon="1.84783">
        <ele>522</ele>
        <time>2016-12-02T20:17:09Z</time>
      </trkpt>
      <trkpt lat="46.15575" lon="1.84781">
        <ele>522</ele>
        <time>2016-12-02T20:19:09Z</time>
      </trkpt>
      <trkpt lat="46.15574" lon="1.84774">
        <ele>523</ele>
        <time>2016-12-02T20:21:09Z</time>
      </trkpt>
      <trkpt lat="46.15573" lon="1.84768">
        <ele>524</ele>
        <time>2016-12-02T20:23:09Z</time>
      </trkpt>
      <trkpt lat="46.15575" lon="1.84764">
        <ele>525</ele>
        <time>2016-12-02T20:25:09Z</time>
      </trkpt>
      <trkpt lat="46.15572" lon="1.84762">
        <ele>525</ele>
        <time>2016-12-02T20:27:09Z</time>
      </trkpt>
      <trkpt lat="46.15571" lon="1.84759">
        <ele>526</ele>
        <time>2016-12-02T20:29:09Z</time>
      </trkpt>
      <trkpt lat="46.15572" lon="1.84754">
        <ele>526</ele>
        <time>2016-12-02T20:31:09Z</time>
      </trkpt>
      <trkpt lat="46.15572" lon="1.84752">
        <ele>527</ele>
        <time>2016-12-02T20:33:09Z</time>
      </trkpt>
      <trkpt lat="46.15573" lon="1.84749">
        <ele>527</ele>
        <time>2016-12-02T20:35:09Z</time>
      </trkpt>
      <trkpt lat="46.15572" lon="1.84748">
        <ele>527</ele>
        <time>2016-12-02T20:37:09Z</time>
      </trkpt>
      <trkpt lat="46.15572" lon="1.84739">
        <ele>529</ele>
        <time>2016-12-02T20:39:09Z</time>
      </trkpt>
      <trkpt lat="46.15572" lon="1.84733">
        <ele>530</ele>
        <time>2016-12-02T20:41:09Z</time>
      </trkpt>
      <trkpt lat="46.15573" lon="1.8473">
        <ele>530</ele>
        <time>2016-12-02T20:43:09Z</time>
      </trkpt>
      <trkpt lat="46.15573" lon="1.84726">
        <ele>531</ele>
        <time>2016-12-02T20:45:09Z</time>
      </trkpt>
      <trkpt lat="46.15573" lon="1.84725">
        <ele>531</ele>
        <time>2016-12-02T20:47:09Z</time>
      </trkpt>
      <trkpt lat="46.1557" lon="1.8472">
        <ele>532</ele>
        <time>2016-12-02T20:49:09Z</time>
      </trkpt>
      <trkpt lat="46.15568" lon="1.84717">
        <ele>533</ele>
        <time>2016-12-02T20:51:09Z</time>
      </trkpt>
      <trkpt lat="46.15567" lon="1.84714">
        <ele>533</ele>
        <time>2016-12-02T20:53:09Z</time>
      </trkpt>
      <trkpt lat="46.15566" lon="1.84713">
        <ele>533</ele>
        <time>2016-12-02T20:55:09Z</time>
      </trkpt>
      <trkpt lat="46.15565" lon="1.8471">
        <ele>534</ele>
        <time>2016-12-02T20:57:09Z</time>
      </trkpt>
      <trkpt lat="46.15564" lon="1.84707">
        <ele>534</ele>
        <time>2016-12-02T20:59:09Z</time>
      </trkpt>
      <trkpt lat="46.1556" lon="1.84702">
        <ele>535</ele>
        <time>2016-12-02T21:01:09Z</time>
      </trkpt>
      <trkpt lat="46.15558" lon="1.84697">
        <ele>536</ele>
        <time>2016-12-02T21:03:09Z</time>
      </trkpt>
      <trkpt lat="46.15556" lon="1.84694">
        <ele>536</ele>
        <time>2016-12-02T21:05:09Z</time>
      </trkpt>
      <trkpt lat="46.15553" lon="1.84692">
        <ele>536</ele>
        <time>2016-12-02T21:07:09Z</time>
      </trkpt>
      <trkpt lat="46.15551" lon="1.84692">
        <ele>536</ele>
        <time>2016-12-02T21:09:09Z</time>
      </trkpt>
      <trkpt lat="46.1555" lon="1.8469">
        <ele>537</ele>
        <time>2016-12-02T21:11:09Z</time>
      </trkpt>
      <trkpt lat="46.15542" lon="1.84684">
        <ele>537</ele>
        <time>2016-12-02T21:13:09Z</time>
      </trkpt>
      <trkpt lat="46.15542" lon="1.84683">
        <ele>537</ele>
        <time>2016-12-02T21:15:09Z</time>
      </trkpt>
      <trkpt lat="46.1554" lon="1.84682">
        <ele>538</ele>
        <time>2016-12-02T21:17:09Z</time>
      </trkpt>
      <trkpt lat="46.15537" lon="1.84679">
        <ele>538</ele>
        <time>2016-12-02T21:19:09Z</time>
      </trkpt>
      <trkpt lat="46.15533" lon="1.84676">
        <ele>538</ele>
        <time>2016-12-02T21:21:09Z</time>
      </trkpt>
      <trkpt lat="46.15529" lon="1.84675">
        <ele>538</ele>
        <time>2016-12-02T21:23:09Z</time>
      </trkpt>
      <trkpt lat="46.15527" lon="1.84673">
        <ele>538</ele>
        <time>2016-12-02T21:25:09Z</time>
      </trkpt>
      <trkpt lat="46.15524" lon="1.84671">
        <ele>539</ele>
        <time>2016-12-02T21:27:09Z</time>
      </trkpt>
      <trkpt lat="46.15521" lon="1.84669">
        <ele>539</ele>
        <time>2016-12-02T21:29:09Z</time>
      </trkpt>
      <trkpt lat="46.1552" lon="1.84667">
        <ele>539</ele>
        <time>2016-12-02T21:31:09Z</time>
      </trkpt>
      <trkpt lat="46.15519" lon="1.84663">
        <ele>540</ele>
        <time>2016-12-02T21:33:09Z</time>
      </trkpt>
      <trkpt lat="46.15519" lon="1.84662">
        <ele>540</ele>
        <time>2016-12-02T21:35:09Z</time>
      </trkpt>
      <trkpt lat="46.15519" lon="1.84659">
        <ele>541</ele>
        <time>2016-12-02T21:37:09Z</time>
      </trkpt>
      <trkpt lat="46.15518" lon="1.84658">
        <ele>541</ele>
        <time>2016-12-02T21:39:09Z</time>
      </trkpt>
      <trkpt lat="46.15516" lon="1.84653">
        <ele>542</ele>
        <time>2016-12-02T21:41:09Z</time>
      </trkpt>
      <trkpt lat="46.15514" lon="1.84652">
        <ele>542</ele>
        <time>2016-12-02T21:43:09Z</time>
      </trkpt>
      <trkpt lat="46.15513" lon="1.84649">
        <ele>543</ele>
        <time>2016-12-02T21:45:09Z</time>
      </trkpt>
      <trkpt lat="46.15512" lon="1.84647">
        <ele>543</ele>
        <time>2016-12-02T21:47:09Z</time>
      </trkpt>
      <trkpt lat="46.15511" lon="1.84645">
        <ele>544</ele>
        <time>2016-12-02T21:49:09Z</time>
      </trkpt>
      <trkpt lat="46.15511" lon="1.84641">
        <ele>545</ele>
        <time>2016-12-02T21:51:09Z</time>
      </trkpt>
      <trkpt lat="46.15511" lon="1.84639">
        <ele>545</ele>
        <time>2016-12-02T21:53:09Z</time>
      </trkpt>
      <trkpt lat="46.15511" lon="1.84637">
        <ele>546</ele>
        <time>2016-12-02T21:55:09Z</time>
      </trkpt>
      <trkpt lat="46.15511" lon="1.84635">
        <ele>546</ele>
        <time>2016-12-02T21:57:09Z</time>
      </trkpt>
      <trkpt lat="46.1551" lon="1.84635">
        <ele>546</ele>
        <time>2016-12-02T21:59:09Z</time>
      </trkpt>
      <trkpt lat="46.1551" lon="1.84634">
        <ele>547</ele>
        <time>2016-12-02T22:01:09Z</time>
      </trkpt>
      <trkpt lat="46.15509" lon="1.84633">
        <ele>547</ele>
        <time>2016-12-02T22:03:09Z</time>
      </trkpt>
      <trkpt lat="46.15508" lon="1.8463">
        <ele>548</ele>
        <time>2016-12-02T22:05:09Z</time>
      </trkpt>
      <trkpt lat="46.15507" lon="1.84628">
        <ele>548</ele>
        <time>2016-12-02T22:07:09Z</time>
      </trkpt>
      <trkpt lat="46.15505" lon="1.84627">
        <ele>548</ele>
        <time>2016-12-02T22:09:09Z</time>
      </trkpt>
      <trkpt lat="46.15504" lon="1.84625">
        <ele>549</ele>
        <time>2016-12-02T22:11:09Z</time>
      </trkpt>
      <trkpt lat="46.15503" lon="1.84621">
        <ele>550</ele>
        <time>2016-12-02T22:13:09Z</time>
      </trkpt>
      <trkpt lat="46.15501" lon="1.8462">
        <ele>550</ele>
        <time>2016-12-02T22:15:09Z</time>
      </trkpt>
      <trkpt lat="46.15501" lon="1.84618">
        <ele>550</ele>
        <time>2016-12-02T22:17:09Z</time>
      </trkpt>
      <trkpt lat="46.15501" lon="1.84615">
        <ele>551</ele>
        <time>2016-12-02T22:19:09Z</time>
      </trkpt>
      <trkpt lat="46.15498" lon="1.84613">
        <ele>551</ele>
        <time>2016-12-02T22:21:09Z</time>
      </trkpt>
      <trkpt lat="46.15498" lon="1.84611">
        <ele>552</ele>
        <time>2016-12-02T22:23:09Z</time>
      </trkpt>
      <trkpt lat="46.15498" lon="1.84609">
        <ele>552</ele>
        <time>2016-12-02T22:25:09Z</time>
      </trkpt>
      <trkpt lat="46.15495" lon="1.84606">
        <ele>553</ele>
        <time>2016-12-02T22:27:09Z</time>
      </trkpt>
      <trkpt lat="46.15495" lon="1.84606">
        <ele>553</ele>
        <time>2016-12-02T22:29:09Z</time>
      </trkpt>
      <trkpt lat="46.15494" lon="1.84603">
        <ele>554</ele>
        <time>2016-12-02T22:31:09Z</time>
      </trkpt>
      <trkpt lat="46.15494" lon="1.84601">
        <ele>554</ele>
        <time>2016-12-02T22:33:09Z</time>
      </trkpt>
      <trkpt lat="46.15493" lon="1.846">
        <ele>554</ele>
        <time>2016-12-02T22:35:09Z</time>
      </trkpt>
      <trkpt lat="46.15492" lon="1.84599">
        <ele>555</ele>
        <time>2016-12-02T22:37:09Z</time>
      </trkpt>
      <trkpt lat="46.1549" lon="1.84596">
        <ele>555</ele>
        <time>2016-12-02T22:39:09Z</time>
      </trkpt>
      <trkpt lat="46.15489" lon="1.84594">
        <ele>556</ele>
        <time>2016-12-02T22:41:09Z</time>
      </trkpt>
      <trkpt lat="46.15488" lon="1.84593">
        <ele>556</ele>
        <time>2016-12-02T22:43:09Z</time>
      </trkpt>
      <trkpt lat="46.15485" lon="1.84589">
        <ele>557</ele>
        <time>2016-12-02T22:45:09Z</time>
      </trkpt>
      <trkpt lat="46.15485" lon="1.84587">
        <ele>557</ele>
        <time>2016-12-02T22:47:09Z</time>
      </trkpt>
      <trkpt lat="46.15481" lon="1.84581">
        <ele>558</ele>
        <time>2016-12-02T22:49:09Z</time>
      </trkpt>
      <trkpt lat="46.1548" lon="1.84579">
        <ele>559</ele>
        <time>2016-12-02T22:51:09Z</time>
      </trkpt>
      <trkpt lat="46.1548" lon="1.84577">
        <ele>559</ele>
        <time>2016-12-02T22:53:09Z</time>
      </trkpt>
      <trkpt lat="46.15478" lon="1.84573">
        <ele>560</ele>
        <time>2016-12-02T22:55:09Z</time>
      </trkpt>
      <trkpt lat="46.15478" lon="1.84572">
        <ele>561</ele>
        <time>2016-12-02T22:57:09Z</time>
      </trkpt>
      <trkpt lat="46.15478" lon="1.84572">
        <ele>561</ele>
        <time>2016-12-02T22:59:09Z</time>
      </trkpt>
      <trkpt lat="46.15477" lon="1.84572">
        <ele>560</ele>
        <time>2016-12-02T23:01:09Z</time>
      </trkpt>
      <trkpt lat="46.15475" lon="1.84566">
        <ele>562</ele>
        <time>2016-12-02T23:03:09Z</time>
      </trkpt>
      <trkpt lat="46.15475" lon="1.84564">
        <ele>562</ele>
        <time>2016-12-02T23:05:09Z</time>
      </trkpt>
      <trkpt lat="46.15473" lon="1.84562">
        <ele>563</ele>
        <time>2016-12-02T23:07:09Z</time>
      </trkpt>
      <trkpt lat="46.15473" lon="1.84563">
        <ele>563</ele>
        <time>2016-12-02T23:09:09Z</time>
      </trkpt>
      <trkpt lat="46.15474" lon="1.84562">
        <ele>563</ele>
        <time>2016-12-02T23:11:09Z</time>
      </trkpt>
      <trkpt lat="46.15471" lon="1.84559">
        <ele>563</ele>
        <time>2016-12-02T23:13:09Z</time>
      </trkpt>
      <trkpt lat="46.1547" lon="1.84557">
        <ele>564</ele>
        <time>2016-12-02T23:15:09Z</time>
      </trkpt>
      <trkpt lat="46.1547" lon="1.84554">
        <ele>565</ele>
        <time>2016-12-02T23:17:09Z</time>
      </trkpt>
      <trkpt lat="46.15468" lon="1.84554">
        <ele>564</ele>
        <time>2016-12-02T23:19:09Z</time>
      </trkpt>
      <trkpt lat="46.15468" lon="1.84553">
        <ele>565</ele>
        <time>2016-12-02T23:21:09Z</time>
      </trkpt>
      <trkpt lat="46.15468" lon="1.84552">
        <ele>565</ele>
        <time>2016-12-02T23:23:09Z</time>
      </trkpt>
      <trkpt lat="46.15467" lon="1.84548">
        <ele>566</ele>
        <time>2016-12-02T23:25:09Z</time>
      </trkpt>
      <trkpt lat="46.15466" lon="1.84549">
        <ele>566</ele>
        <time>2016-12-02T23:27:09Z</time>
      </trkpt>
      <trkpt lat="46.15464" lon="1.84543">
        <ele>567</ele>
        <time>2016-12-02T23:29:09Z</time>
      </trkpt>
      <trkpt lat="46.15463" lon="1.84541">
        <ele>567</ele>
        <time>2016-12-02T23:31:09Z</time>
      </trkpt>
      <trkpt lat="46.15462" lon="1.84536">
        <ele>568</ele>
        <time>2016-12-02T23:33:09Z</time>
      </trkpt>
      <trkpt lat="46.15461" lon="1.84535">
        <ele>569</ele>
        <time>2016-12-02T23:35:09Z</time>
      </trkpt>
      <trkpt lat="46.1546" lon="1.84533">
        <ele>569</ele>
        <time>2016-12-02T23:37:09Z</time>
      </trkpt>
      <trkpt lat="46.15459" lon="1.84531">
        <ele>569</ele>
        <time>2016-12-02T23:39:09Z</time>
      </trkpt>
      <trkpt lat="46.15459" lon="1.84531">
        <ele>569</ele>
        <time>2016-12-02T23:41:09Z</time>
      </trkpt>
      <trkpt lat="46.15457" lon="1.84525">
        <ele>571</ele>
        <time>2016-12-02T23:43:09Z</time>
      </trkpt>
      <trkpt lat="46.15456" lon="1.84524">
        <ele>571</ele>
        <time>2016-12-02T23:45:09Z</time>
      </trkpt>
      <trkpt lat="46.15455" lon="1.84522">
        <ele>571</ele>
        <time>2016-12-02T23:47:09Z</time>
      </trkpt>
      <trkpt lat="46.15456" lon="1.84522">
        <ele>571</ele>
        <time>2016-12-02T23:49:09Z</time>
      </trkpt>
      <trkpt lat="46.15456" lon="1.84521">
        <ele>571</ele>
        <time>2016-12-02T23:51:09Z</time>
      </trkpt>
      <trkpt lat="46.15456" lon="1.84519">
        <ele>572</ele>
        <time>2016-12-02T23:53:09Z</time>
      </trkpt>
      <trkpt lat="46.15456" lon="1.84518">
        <ele>572</ele>
        <time>2016-12-02T23:55:09Z</time>
      </trkpt>
      <trkpt lat="46.15456" lon="1.84518">
        <ele>572</ele>
        <time>2016-12-02T23:57:09Z</time>
      </trkpt>
      <trkpt lat="46.15456" lon="1.84515">
        <ele>573</ele>
        <time>2016-12-02T23:59:09Z</time>
      </trkpt>
      <trkpt lat="46.15455" lon="1.84514">
        <ele>573</ele>
        <time>2016-12-03T00:01:09Z</time>
      </trkpt>
      <trkpt lat="46.15453" lon="1.8451">
        <ele>574</ele>
        <time>2016-12-03T00:03:09Z</time>
      </trkpt>
      <trkpt lat="46.1545" lon="1.84503">
        <ele>575</ele>
        <time>2016-12-03T00:05:09Z</time>
      </trkpt>
      <trkpt lat="46.15447" lon="1.845">
        <ele>575</ele>
        <time>2016-12-03T00:07:09Z</time>
      </trkpt>
      <trkpt lat="46.15446" lon="1.84498">
        <ele>575</ele>
        <time>2016-12-03T00:09:09Z</time>
      </trkpt>
      <trkpt lat="46.15444" lon="1.84498">
        <ele>575</ele>
        <time>2016-12-03T00:11:09Z</time>
      </trkpt>
      <trkpt lat="46.1544" lon="1.84497">
        <ele>575</ele>
        <time>2016-12-03T00:13:09Z</time>
      </trkpt>
      <trkpt lat="46.15437" lon="1.84495">
        <ele>575</ele>
        <time>2016-12-03T00:15:09Z</time>
      </trkpt>
      <trkpt lat="46.15434" lon="1.84491">
        <ele>575</ele>
        <time>2016-12-03T00:17:09Z</time>
      </trkpt>
      <trkpt lat="46.15432" lon="1.84489">
        <ele>575</ele>
        <time>2016-12-03T00:19:09Z</time>
      </trkpt>
      <trkpt lat="46.1543" lon="1.84486">
        <ele>576</ele>
        <time>2016-12-03T00:21:09Z</time>
      </trkpt>
      <trkpt lat="46.15427" lon="1.84484">
        <ele>576</ele>
        <time>2016-12-03T00:23:09Z</time>
      </trkpt>
      <trkpt lat="46.15424" lon="1.8448">
        <ele>576</ele>
        <time>2016-12-03T00:25:09Z</time>
      </trkpt>
      <trkpt lat="46.15423" lon="1.84479">
        <ele>576</ele>
        <time>2016-12-03T00:27:09Z</time>
      </trkpt>
      <trkpt lat="46.15421" lon="1.84477">
        <ele>576</ele>
        <time>2016-12-03T00:29:09Z</time>
      </trkpt>
      <trkpt lat="46.1542" lon="1.84477">
        <ele>576</ele>
        <time>2016-12-03T00:31:09Z</time>
      </trkpt>
      <trkpt lat="46.15418" lon="1.84476">
        <ele>576</ele>
        <time>2016-12-03T00:33:09Z</time>
      </trkpt>
      <trkpt lat="46.15417" lon="1.84473">
        <ele>577</ele>
        <time>2016-12-03T00:35:09Z</time>
      </trkpt>
      <trkpt lat="46.15415" lon="1.84471">
        <ele>577</ele>
        <time>2016-12-03T00:37:09Z</time>
      </trkpt>
      <trkpt lat="46.15414" lon="1.8447">
        <ele>577</ele>
        <time>2016-12-03T00:39:09Z</time>
      </trkpt>
      <trkpt lat="46.15413" lon="1.84468">
        <ele>577</ele>
        <time>2016-12-03T00:41:09Z</time>
      </trkpt>
      <trkpt lat="46.15413" lon="1.84467">
        <ele>578</ele>
        <time>2016-12-03T00:43:09Z</time>
      </trkpt>
      <trkpt lat="46.15412" lon="1.84463">
        <ele>578</ele>
        <time>2016-12-03T00:45:09Z</time>
      </trkpt>
      <trkpt lat="46.15412" lon="1.84462">
        <ele>579</ele>
        <time>2016-12-03T00:47:09Z</time>
      </trkpt>
      <trkpt lat="46.15412" lon="1.84461">
        <ele>579</ele>
        <time>2016-12-03T00:49:09Z</time>
      </trkpt>
      <trkpt lat="46.15413" lon="1.84458">
        <ele>580</ele>
        <time>2016-12-03T00:51:09Z</time>
      </trkpt>
      <trkpt lat="46.15413" lon="1.84455">
        <ele>580</ele>
        <time>2016-12-03T00:53:09Z</time>
      </trkpt>
      <trkpt lat="46.15413" lon="1.84454">
        <ele>581</ele>
        <time>2016-12-03T00:55:09Z</time>
      </trkpt>
      <trkpt lat="46.15413" lon="1.84452">
        <ele>581</ele>
        <time>2016-12-03T00:57:09Z</time>
      </trkpt>
      <trkpt lat="46.15412" lon="1.84452">
        <ele>581</ele>
        <time>2016-12-03T00:59:09Z</time>
      </trkpt>
      <trkpt lat="46.15412" lon="1.8445">
        <ele>581</ele>
        <time>2016-12-03T01:01:09Z</time>
      </trkpt>
      <trkpt lat="46.15412" lon="1.84448">
        <ele>582</ele>
        <time>2016-12-03T01:03:09Z</time>
      </trkpt>
      <trkpt lat="46.15411" lon="1.84447">
        <ele>582</ele>
        <time>2016-12-03T01:05:09Z</time>
      </trkpt>
      <trkpt lat="46.15408" lon="1.84443">
        <ele>583</ele>
        <time>2016-12-03T01:07:09Z</time>
      </trkpt>
      <trkpt lat="46.15408" lon="1.8444">
        <ele>583</ele>
        <time>2016-12-03T01:09:09Z</time>
      </trkpt>
      <trkpt lat="46.15407" lon="1.84439">
        <ele>583</ele>
        <time>2016-12-03T01:11:09Z</time>
      </trkpt>
      <trkpt lat="46.15404" lon="1.84434">
        <ele>584</ele>
        <time>2016-12-03T01:13:09Z</time>
      </trkpt>
      <trkpt lat="46.15402" lon="1.84433">
        <ele>584</ele>
        <time>2016-12-03T01:15:09Z</time>
      </trkpt>
      <trkpt lat="46.15401" lon="1.84432">
        <ele>584</ele>
        <time>2016-12-03T01:17:09Z</time>
      </trkpt>
      <trkpt lat="46.15399" lon="1.84432">
        <ele>584</ele>
        <time>2016-12-03T01:19:09Z</time>
      </trkpt>
      <trkpt lat="46.15398" lon="1.84431">
        <ele>584</ele>
        <time>2016-12-03T01:21:09Z</time>
      </trkpt>
      <trkpt lat="46.15393" lon="1.84426">
        <ele>585</ele>
        <time>2016-12-03T01:23:09Z</time>
      </trkpt>
      <trkpt lat="46.15394" lon="1.84424">
        <ele>585</ele>
        <time>2016-12-03T01:25:09Z</time>
      </trkpt>
      <trkpt lat="46.15392" lon="1.84424">
        <ele>585</ele>
        <time>2016-12-03T01:27:09Z</time>
      </trkpt>
      <trkpt lat="46.15391" lon="1.84422">
        <ele>585</ele>
        <time>2016-12-03T01:29:09Z</time>
      </trkpt>
      <trkpt lat="46.15389" lon="1.84416">
        <ele>586</ele>
        <time>2016-12-03T01:31:09Z</time>
      </trkpt>
      <trkpt lat="46.1539" lon="1.84413">
        <ele>587</ele>
        <time>2016-12-03T01:33:09Z</time>
      </trkpt>
      <trkpt lat="46.15389" lon="1.84412">
        <ele>587</ele>
        <time>2016-12-03T01:35:09Z</time>
      </trkpt>
      <trkpt lat="46.15389" lon="1.8441">
        <ele>587</ele>
        <time>2016-12-03T01:37:09Z</time>
      </trkpt>
      <trkpt lat="46.15388" lon="1.84408">
        <ele>588</ele>
        <time>2016-12-03T01:39:09Z</time>
      </trkpt>
      <trkpt lat="46.15387" lon="1.84407">
        <ele>588</ele>
        <time>2016-12-03T01:41:09Z</time>
      </trkpt>
      <trkpt lat="46.15387" lon="1.84406">
        <ele>588</ele>
        <time>2016-12-03T01:43:09Z</time>
      </trkpt>
      <trkpt lat="46.15387" lon="1.84404">
        <ele>588</ele>
        <time>2016-12-03T01:45:09Z</time>
      </trkpt>
      <trkpt lat="46.15386" lon="1.84402">
        <ele>589</ele>
        <time>2016-12-03T01:47:09Z</time>
      </trkpt>
      <trkpt lat="46.15386" lon="1.84401">
        <ele>589</ele>
        <time>2016-12-03T01:49:09Z</time>
      </trkpt>
      <trkpt lat="46.15383" lon="1.84397">
        <ele>589</ele>
        <time>2016-12-03T01:51:09Z</time>
      </trkpt>
      <trkpt lat="46.15381" lon="1.84395">
        <ele>589</ele>
        <time>2016-12-03T01:53:09Z</time>
      </trkpt>
      <trkpt lat="46.15381" lon="1.84392">
        <ele>590</ele>
        <time>2016-12-03T01:55:09Z</time>
      </trkpt>
      <trkpt lat="46.1538" lon="1.84391">
        <ele>590</ele>
        <time>2016-12-03T01:57:09Z</time>
      </trkpt>
      <trkpt lat="46.1538" lon="1.84389">
        <ele>590</ele>
        <time>2016-12-03T01:59:09Z</time>
      </trkpt>
      <trkpt lat="46.15375" lon="1.8438">
        <ele>591</ele>
        <time>2016-12-03T02:01:09Z</time>
      </trkpt>
      <trkpt lat="46.15372" lon="1.84376">
        <ele>592</ele>
        <time>2016-12-03T02:03:09Z</time>
      </trkpt>
      <trkpt lat="46.15371" lon="1.84374">
        <ele>592</ele>
        <time>2016-12-03T02:05:09Z</time>
      </trkpt>
      <trkpt lat="46.1537" lon="1.84371">
        <ele>592</ele>
        <time>2016-12-03T02:07:09Z</time>
      </trkpt>
      <trkpt lat="46.15369" lon="1.84369">
        <ele>592</ele>
        <time>2016-12-03T02:09:09Z</time>
      </trkpt>
      <trkpt lat="46.15368" lon="1.84363">
        <ele>593</ele>
        <time>2016-12-03T02:11:09Z</time>
      </trkpt>
      <trkpt lat="46.15368" lon="1.84362">
        <ele>594</ele>
        <time>2016-12-03T02:13:09Z</time>
      </trkpt>
      <trkpt lat="46.15368" lon="1.84359">
        <ele>594</ele>
        <time>2016-12-03T02:15:09Z</time>
      </trkpt>
      <trkpt lat="46.15367" lon="1.84357">
        <ele>594</ele>
        <time>2016-12-03T02:17:09Z</time>
      </trkpt>
      <trkpt lat="46.15366" lon="1.84355">
        <ele>595</ele>
        <time>2016-12-03T02:19:09Z</time>
      </trkpt>
      <trkpt lat="46.15366" lon="1.84353">
        <ele>595</ele>
        <time>2016-12-03T02:21:09Z</time>
      </trkpt>
      <trkpt lat="46.15365" lon="1.84351">
        <ele>595</ele>
        <time>2016-12-03T02:23:09Z</time>
      </trkpt>
      <trkpt lat="46.15365" lon="1.84348">
        <ele>596</ele>
        <time>2016-12-03T02:25:09Z</time>
      </trkpt>
      <trkpt lat="46.15365" lon="1.84342">
        <ele>597</ele>
        <time>2016-12-03T02:27:09Z</time>
      </trkpt>
      <trkpt lat="46.15365" lon="1.8434">
        <ele>597</ele>
        <time>2016-12-03T02:29:09Z</time>
      </trkpt>
      <trkpt lat="46.15364" lon="1.84336">
        <ele>598</ele>
        <time>2016-12-03T02:31:09Z</time>
      </trkpt>
      <trkpt lat="46.15363" lon="1.84334">
        <ele>598</ele>
        <time>2016-12-03T02:33:09Z</time>
      </trkpt>
      <trkpt lat="46.15361" lon="1.84329">
        <ele>599</ele>
        <time>2016-12-03T02:35:09Z</time>
      </trkpt>
      <trkpt lat="46.15361" lon="1.84329">
        <ele>599</ele>
        <time>2016-12-03T02:37:09Z</time>
      </trkpt>
      <trkpt lat="46.15359" lon="1.84326">
        <ele>599</ele>
        <time>2016-12-03T02:39:09Z</time>
      </trkpt>
      <trkpt lat="46.15359" lon="1.84323">
        <ele>599</ele>
        <time>2016-12-03T02:41:09Z</time>
      </trkpt>
      <trkpt lat="46.15358" lon="1.84322">
        <ele>599</ele>
        <time>2016-12-03T02:43:09Z</time>
      </trkpt>
      <trkpt lat="46.15358" lon="1.8432">
        <ele>599</ele>
        <time>2016-12-03T02:45:09Z</time>
      </trkpt>
      <trkpt lat="46.15358" lon="1.84319">
        <ele>599</ele>
        <time>2016-12-03T02:47:09Z</time>
      </trkpt>
      <trkpt lat="46.15357" lon="1.84317">
        <ele>600</ele>
        <time>2016-12-03T02:49:09Z</time>
      </trkpt>
      <trkpt lat="46.15357" lon="1.84315">
        <ele>600</ele>
        <time>2016-12-03T02:51:09Z</time>
      </trkpt>
      <trkpt lat="46.15356" lon="1.84308">
        <ele>601</ele>
        <time>2016-12-03T02:53:09Z</time>
      </trkpt>
      <trkpt lat="46.15355" lon="1.84307">
        <ele>601</ele>
        <time>2016-12-03T02:55:09Z</time>
      </trkpt>
      <trkpt lat="46.15354" lon="1.84304">
        <ele>601</ele>
        <time>2016-12-03T02:57:09Z</time>
      </trkpt>
      <trkpt lat="46.15354" lon="1.84302">
        <ele>601</ele>
        <time>2016-12-03T02:59:09Z</time>
      </trkpt>
      <trkpt lat="46.15353" lon="1.84301">
        <ele>601</ele>
        <time>2016-12-03T03:01:09Z</time>
      </trkpt>
      <trkpt lat="46.15353" lon="1.843">
        <ele>601</ele>
        <time>2016-12-03T03:03:09Z</time>
      </trkpt>
      <trkpt lat="46.15353" lon="1.84298">
        <ele>602</ele>
        <time>2016-12-03T03:05:09Z</time>
      </trkpt>
      <trkpt lat="46.15352" lon="1.84297">
        <ele>601</ele>
        <time>2016-12-03T03:07:09Z</time>
      </trkpt>
      <trkpt lat="46.15351" lon="1.84295">
        <ele>602</ele>
        <time>2016-12-03T03:09:09Z</time>
      </trkpt>
      <trkpt lat="46.15351" lon="1.84295">
        <ele>602</ele>
        <time>2016-12-03T03:11:09Z</time>
      </trkpt>
      <trkpt lat="46.1535" lon="1.84289">
        <ele>602</ele>
        <time>2016-12-03T03:13:09Z</time>
      </trkpt>
      <trkpt lat="46.15348" lon="1.84285">
        <ele>602</ele>
        <time>2016-12-03T03:15:09Z</time>
      </trkpt>
      <trkpt lat="46.15348" lon="1.84282">
        <ele>603</ele>
        <time>2016-12-03T03:17:09Z</time>
      </trkpt>
      <trkpt lat="46.15346" lon="1.84278">
        <ele>603</ele>
        <time>2016-12-03T03:19:09Z</time>
      </trkpt>
      <trkpt lat="46.15344" lon="1.84276">
        <ele>603</ele>
        <time>2016-12-03T03:21:09Z</time>
      </trkpt>
      <trkpt lat="46.15341" lon="1.84273">
        <ele>603</ele>
        <time>2016-12-03T03:23:09Z</time>
      </trkpt>
      <trkpt lat="46.15339" lon="1.84272">
        <ele>602</ele>
        <time>2016-12-03T03:25:09Z</time>
      </trkpt>
      <trkpt lat="46.15338" lon="1.8427">
        <ele>602</ele>
        <time>2016-12-03T03:27:09Z</time>
      </trkpt>
      <trkpt lat="46.15337" lon="1.8427">
        <ele>602</ele>
        <time>2016-12-03T03:29:09Z</time>
      </trkpt>
      <trkpt lat="46.15334" lon="1.84267">
        <ele>602</ele>
        <time>2016-12-03T03:31:09Z</time>
      </trkpt>
      <trkpt lat="46.15334" lon="1.84265">
        <ele>602</ele>
        <time>2016-12-03T03:33:09Z</time>
      </trkpt>
      <trkpt lat="46.15332" lon="1.84262">
        <ele>602</ele>
        <time>2016-12-03T03:35:09Z</time>
      </trkpt>
      <trkpt lat="46.15331" lon="1.8426">
        <ele>603</ele>
        <time>2016-12-03T03:37:09Z</time>
      </trkpt>
      <trkpt lat="46.1533" lon="1.84257">
        <ele>603</ele>
        <time>2016-12-03T03:39:09Z</time>
      </trkpt>
      <trkpt lat="46.15329" lon="1.84256">
        <ele>603</ele>
        <time>2016-12-03T03:41:09Z</time>
      </trkpt>
      <trkpt lat="46.15328" lon="1.84254">
        <ele>604</ele>
        <time>2016-12-03T03:43:09Z</time>
      </trkpt>
      <trkpt lat="46.15327" lon="1.84253">
        <ele>604</ele>
        <time>2016-12-03T03:45:09Z</time>
      </trkpt>
      <trkpt lat="46.15326" lon="1.84249">
        <ele>605</ele>
        <time>2016-12-03T03:47:09Z</time>
      </trkpt>
      <trkpt lat="46.15324" lon="1.84245">
        <ele>605</ele>
        <time>2016-12-03T03:49:09Z</time>
      </trkpt>
      <trkpt lat="46.15322" lon="1.84243">
        <ele>606</ele>
        <time>2016-12-03T03:51:09Z</time>
      </trkpt>
      <trkpt lat="46.15321" lon="1.84241">
        <ele>606</ele>
        <time>2016-12-03T03:53:09Z</time>
      </trkpt>
      <trkpt lat="46.15321" lon="1.84239">
        <ele>607</ele>
        <time>2016-12-03T03:55:09Z</time>
      </trkpt>
      <trkpt lat="46.15321" lon="1.84236">
        <ele>607</ele>
        <time>2016-12-03T03:57:09Z</time>
      </trkpt>
      <trkpt lat="46.1532" lon="1.84234">
        <ele>608</ele>
        <time>2016-12-03T03:59:09Z</time>
      </trkpt>
      <trkpt lat="46.1532" lon="1.84233">
        <ele>608</ele>
        <time>2016-12-03T04:01:09Z</time>
      </trkpt>
      <trkpt lat="46.15319" lon="1.8423">
        <ele>608</ele>
        <time>2016-12-03T04:03:09Z</time>
      </trkpt>
      <trkpt lat="46.15319" lon="1.84228">
        <ele>609</ele>
        <time>2016-12-03T04:05:09Z</time>
      </trkpt>
      <trkpt lat="46.15319" lon="1.84227">
        <ele>609</ele>
        <time>2016-12-03T04:07:09Z</time>
      </trkpt>
      <trkpt lat="46.15319" lon="1.84225">
        <ele>609</ele>
        <time>2016-12-03T04:09:09Z</time>
      </trkpt>
      <trkpt lat="46.15317" lon="1.84221">
        <ele>610</ele>
        <time>2016-12-03T04:11:09Z</time>
      </trkpt>
      <trkpt lat="46.15316" lon="1.8422">
        <ele>610</ele>
        <time>2016-12-03T04:13:09Z</time>
      </trkpt>
      <trkpt lat="46.15316" lon="1.84218">
        <ele>611</ele>
        <time>2016-12-03T04:15:09Z</time>
      </trkpt>
      <trkpt lat="46.15316" lon="1.84216">
        <ele>611</ele>
        <time>2016-12-03T04:17:09Z</time>
      </trkpt>
      <trkpt lat="46.15314" lon="1.84215">
        <ele>611</ele>
        <time>2016-12-03T04:19:09Z</time>
      </trkpt>
      <trkpt lat="46.15315" lon="1.84213">
        <ele>612</ele>
        <time>2016-12-03T04:21:09Z</time>
      </trkpt>
      <trkpt lat="46.15314" lon="1.84211">
        <ele>612</ele>
        <time>2016-12-03T04:23:09Z</time>
      </trkpt>
      <trkpt lat="46.15314" lon="1.84209">
        <ele>612</ele>
        <time>2016-12-03T04:25:09Z</time>
      </trkpt>
      <trkpt lat="46.15313" lon="1.84208">
        <ele>613</ele>
        <time>2016-12-03T04:27:09Z</time>
      </trkpt>
      <trkpt lat="46.15314" lon="1.84206">
        <ele>613</ele>
        <time>2016-12-03T04:29:09Z</time>
      </trkpt>
      <trkpt lat="46.15313" lon="1.84203">
        <ele>614</ele>
        <time>2016-12-03T04:31:09Z</time>
      </trkpt>
      <trkpt lat="46.15314" lon="1.84203">
        <ele>614</ele>
        <time>2016-12-03T04:33:09Z</time>
      </trkpt>
      <trkpt lat="46.15313" lon="1.84201">
        <ele>614</ele>
        <time>2016-12-03T04:35:09Z</time>
      </trkpt>
      <trkpt lat="46.15313" lon="1.84194">
        <ele>615</ele>
        <time>2016-12-03T04:37:09Z</time>
      </trkpt>
      <trkpt lat="46.15313" lon="1.84192">
        <ele>616</ele>
        <time>2016-12-03T04:39:09Z</time>
      </trkpt>
      <trkpt lat="46.15312" lon="1.8419">
        <ele>616</ele>
        <time>2016-12-03T04:41:09Z</time>
      </trkpt>
      <trkpt lat="46.15312" lon="1.84188">
        <ele>616</ele>
        <time>2016-12-03T04:43:09Z</time>
      </trkpt>
      <trkpt lat="46.15312" lon="1.84187">
        <ele>617</ele>
        <time>2016-12-03T04:45:09Z</time>
      </trkpt>
      <trkpt lat="46.15312" lon="1.84185">
        <ele>617</ele>
        <time>2016-12-03T04:47:09Z</time>
      </trkpt>
      <trkpt lat="46.15311" lon="1.84184">
        <ele>617</ele>
        <time>2016-12-03T04:49:09Z</time>
      </trkpt>
      <trkpt lat="46.15311" lon="1.84182">
        <ele>617</ele>
        <time>2016-12-03T04:51:09Z</time>
      </trkpt>
      <trkpt lat="46.15309" lon="1.84179">
        <ele>618</ele>
        <time>2016-12-03T04:53:09Z</time>
      </trkpt>
      <trkpt lat="46.15309" lon="1.84177">
        <ele>618</ele>
        <time>2016-12-03T04:55:09Z</time>
      </trkpt>
      <trkpt lat="46.15308" lon="1.84175">
        <ele>619</ele>
        <time>2016-12-03T04:57:09Z</time>
      </trkpt>
      <trkpt lat="46.15308" lon="1.84173">
        <ele>619</ele>
        <time>2016-12-03T04:59:09Z</time>
      </trkpt>
      <trkpt lat="46.15307" lon="1.84173">
        <ele>619</ele>
        <time>2016-12-03T05:01:09Z</time>
      </trkpt>
      <trkpt lat="46.15306" lon="1.84171">
        <ele>619</ele>
        <time>2016-12-03T05:03:09Z</time>
      </trkpt>
      <trkpt lat="46.15305" lon="1.84168">
        <ele>620</ele>
        <time>2016-12-03T05:05:09Z</time>
      </trkpt>
      <trkpt lat="46.15305" lon="1.84164">
        <ele>620</ele>
        <time>2016-12-03T05:07:09Z</time>
      </trkpt>
      <trkpt lat="46.15305" lon="1.8416">
        <ele>621</ele>
        <time>2016-12-03T05:09:09Z</time>
      </trkpt>
      <trkpt lat="46.15305" lon="1.84157">
        <ele>621</ele>
        <time>2016-12-03T05:11:09Z</time>
      </trkpt>
      <trkpt lat="46.15304" lon="1.84156">
        <ele>621</ele>
        <time>2016-12-03T05:13:09Z</time>
      </trkpt>
      <trkpt lat="46.15304" lon="1.84155">
        <ele>621</ele>
        <time>2016-12-03T05:15:09Z</time>
      </trkpt>
      <trkpt lat="46.15304" lon="1.84154">
        <ele>622</ele>
        <time>2016-12-03T05:17:09Z</time>
      </trkpt>
      <trkpt lat="46.15304" lon="1.84152">
        <ele>622</ele>
        <time>2016-12-03T05:19:09Z</time>
      </trkpt>
      <trkpt lat="46.15304" lon="1.8415">
        <ele>622</ele>
        <time>2016-12-03T05:21:09Z</time>
      </trkpt>
      <trkpt lat="46.15305" lon="1.84147">
        <ele>622</ele>
        <time>2016-12-03T05:23:09Z</time>
      </trkpt>
      <trkpt lat="46.15306" lon="1.84146">
        <ele>623</ele>
        <time>2016-12-03T05:25:09Z</time>
      </trkpt>
      <trkpt lat="46.15306" lon="1.84144">
        <ele>623</ele>
        <time>2016-12-03T05:27:09Z</time>
      </trkpt>
      <trkpt lat="46.15306" lon="1.84142">
        <ele>623</ele>
        <time>2016-12-03T05:29:09Z</time>
      </trkpt>
      <trkpt lat="46.15306" lon="1.8414">
        <ele>623</ele>
        <time>2016-12-03T05:31:09Z</time>
      </trkpt>
      <trkpt lat="46.15306" lon="1.84137">
        <ele>624</ele>
        <time>2016-12-03T05:33:09Z</time>
      </trkpt>
      <trkpt lat="46.15305" lon="1.8413">
        <ele>625</ele>
        <time>2016-12-03T05:35:09Z</time>
      </trkpt>
      <trkpt lat="46.15303" lon="1.84124">
        <ele>625</ele>
        <time>2016-12-03T05:37:09Z</time>
      </trkpt>
      <trkpt lat="46.15302" lon="1.84122">
        <ele>625</ele>
        <time>2016-12-03T05:39:09Z</time>
      </trkpt>
      <trkpt lat="46.15303" lon="1.84118">
        <ele>626</ele>
        <time>2016-12-03T05:41:09Z</time>
      </trkpt>
      <trkpt lat="46.15304" lon="1.84114">
        <ele>626</ele>
        <time>2016-12-03T05:43:09Z</time>
      </trkpt>
      <trkpt lat="46.15304" lon="1.84112">
        <ele>627</ele>
        <time>2016-12-03T05:45:09Z</time>
      </trkpt>
      <trkpt lat="46.15304" lon="1.8411">
        <ele>627</ele>
        <time>2016-12-03T05:47:09Z</time>
      </trkpt>
      <trkpt lat="46.15303" lon="1.84106">
        <ele>627</ele>
        <time>2016-12-03T05:49:09Z</time>
      </trkpt>
      <trkpt lat="46.15303" lon="1.84104">
        <ele>628</ele>
        <time>2016-12-03T05:51:09Z</time>
      </trkpt>
      <trkpt lat="46.15303" lon="1.84097">
        <ele>628</ele>
        <time>2016-12-03T05:53:09Z</time>
      </trkpt>
      <trkpt lat="46.15304" lon="1.84091">
        <ele>629</ele>
        <time>2016-12-03T05:55:09Z</time>
      </trkpt>
      <trkpt lat="46.15304" lon="1.8409">
        <ele>629</ele>
        <time>2016-12-03T05:57:09Z</time>
      </trkpt>
      <trkpt lat="46.15304" lon="1.84086">
        <ele>630</ele>
        <time>2016-12-03T05:59:09Z</time>
      </trkpt>
      <trkpt lat="46.15306" lon="1.84083">
        <ele>630</ele>
        <time>2016-12-03T06:01:09Z</time>
      </trkpt>
      <trkpt lat="46.15306" lon="1.84079">
        <ele>631</ele>
        <time>2016-12-03T06:03:09Z</time>
      </trkpt>
      <trkpt lat="46.15307" lon="1.84077">
        <ele>631</ele>
        <time>2016-12-03T06:05:09Z</time>
      </trkpt>
      <trkpt lat="46.15308" lon="1.84077">
        <ele>631</ele>
        <time>2016-12-03T06:07:09Z</time>
      </trkpt>
      <trkpt lat="46.15308" lon="1.84075">
        <ele>631</ele>
        <time>2016-12-03T06:09:09Z</time>
      </trkpt>
      <trkpt lat="46.15308" lon="1.84076">
        <ele>631</ele>
        <time>2016-12-03T06:11:09Z</time>
      </trkpt>
      <trkpt lat="46.15308" lon="1.84076">
        <ele>631</ele>
        <time>2016-12-03T06:13:09Z</time>
      </trkpt>
      <trkpt lat="46.15309" lon="1.84073">
        <ele>631</ele>
        <time>2016-12-03T06:15:09Z</time>
      </trkpt>
      <trkpt lat="46.15309" lon="1.84072">
        <ele>632</ele>
        <time>2016-12-03T06:17:09Z</time>
      </trkpt>
      <trkpt lat="46.15309" lon="1.84072">
        <ele>632</ele>
        <time>2016-12-03T06:19:09Z</time>
      </trkpt>
      <trkpt lat="46.1531" lon="1.84072">
        <ele>632</ele>
        <time>2016-12-03T06:21:09Z</time>
      </trkpt>
      <trkpt lat="46.1531" lon="1.84072">
        <ele>632</ele>
        <time>2016-12-03T06:23:09Z</time>
      </trkpt>
      <trkpt lat="46.15311" lon="1.84071">
        <ele>632</ele>
        <time>2016-12-03T06:25:09Z</time>
      </trkpt>
      <trkpt lat="46.15312" lon="1.84072">
        <ele>632</ele>
        <time>2016-12-03T06:27:09Z</time>
      </trkpt>
      <trkpt lat="46.15321" lon="1.84079">
        <ele>632</ele>
        <time>2016-12-03T06:29:09Z</time>
      </trkpt>
      <trkpt lat="46.15323" lon="1.84081">
        <ele>632</ele>
        <time>2016-12-03T06:31:09Z</time>
      </trkpt>
      <trkpt lat="46.15327" lon="1.84085">
        <ele>631</ele>
        <time>2016-12-03T06:33:09Z</time>
      </trkpt>
      <trkpt lat="46.15332" lon="1.84093">
        <ele>631</ele>
        <time>2016-12-03T06:35:09Z</time>
      </trkpt>
      <trkpt lat="46.15335" lon="1.84096">
        <ele>631</ele>
        <time>2016-12-03T06:37:09Z</time>
      </trkpt>
      <trkpt lat="46.15337" lon="1.84099">
        <ele>631</ele>
        <time>2016-12-03T06:39:09Z</time>
      </trkpt>
      <trkpt lat="46.15341" lon="1.84103">
        <ele>631</ele>
        <time>2016-12-03T06:41:09Z</time>
      </trkpt>
      <trkpt lat="46.15344" lon="1.84109">
        <ele>631</ele>
        <time>2016-12-03T06:43:09Z</time>
      </trkpt>
      <trkpt lat="46.15351" lon="1.84119">
        <ele>631</ele>
        <time>2016-12-03T06:45:09Z</time>
      </trkpt>
      <trkpt lat="46.15356" lon="1.84125">
        <ele>631</ele>
        <time>2016-12-03T06:47:09Z</time>
      </trkpt>
      <trkpt lat="46.15362" lon="1.84135">
        <ele>631</ele>
        <time>2016-12-03T06:49:09Z</time>
      </trkpt>
      <trkpt lat="46.15366" lon="1.84137">
        <ele>631</ele>
        <time>2016-12-03T06:51:09Z</time>
      </trkpt>
      <trkpt lat="46.15369" lon="1.84138">
        <ele>632</ele>
        <time>2016-12-03T06:53:09Z</time>
      </trkpt>
      <trkpt lat="46.15374" lon="1.84142">
        <ele>632</ele>
        <time>2016-12-03T06:55:09Z</time>
      </trkpt>
      <trkpt lat="46.15381" lon="1.84146">
        <ele>633</ele>
        <time>2016-12-03T06:57:09Z</time>
      </trkpt>
      <trkpt lat="46.15383" lon="1.84148">
        <ele>633</ele>
        <time>2016-12-03T06:59:09Z</time>
      </trkpt>
      <trkpt lat="46.15389" lon="1.84154">
        <ele>634</ele>
        <time>2016-12-03T07:01:09Z</time>
      </trkpt>
      <trkpt lat="46.15391" lon="1.84157">
        <ele>634</ele>
        <time>2016-12-03T07:03:09Z</time>
      </trkpt>
      <trkpt lat="46.15392" lon="1.84159">
        <ele>634</ele>
        <time>2016-12-03T07:05:09Z</time>
      </trkpt>
      <trkpt lat="46.15394" lon="1.84161">
        <ele>634</ele>
        <time>2016-12-03T07:07:09Z</time>
      </trkpt>
      <trkpt lat="46.15396" lon="1.84162">
        <ele>634</ele>
        <time>2016-12-03T07:09:09Z</time>
      </trkpt>
      <trkpt lat="46.15401" lon="1.84164">
        <ele>635</ele>
        <time>2016-12-03T07:11:09Z</time>
      </trkpt>
      <trkpt lat="46.15409" lon="1.8417">
        <ele>636</ele>
        <time>2016-12-03T07:13:09Z</time>
      </trkpt>
      <trkpt lat="46.15411" lon="1.84171">
        <ele>636</ele>
        <time>2016-12-03T07:15:09Z</time>
      </trkpt>
      <trkpt lat="46.15418" lon="1.84176">
        <ele>636</ele>
        <time>2016-12-03T07:17:09Z</time>
      </trkpt>
      <trkpt lat="46.15421" lon="1.84178">
        <ele>636</ele>
        <time>2016-12-03T07:19:09Z</time>
      </trkpt>
      <trkpt lat="46.15423" lon="1.84179">
        <ele>637</ele>
        <time>2016-12-03T07:21:09Z</time>
      </trkpt>
      <trkpt lat="46.15425" lon="1.8418">
        <ele>637</ele>
        <time>2016-12-03T07:23:09Z</time>
      </trkpt>
      <trkpt lat="46.15427" lon="1.84182">
        <ele>637</ele>
        <time>2016-12-03T07:25:09Z</time>
      </trkpt>
      <trkpt lat="46.15429" lon="1.84184">
        <ele>637</ele>
        <time>2016-12-03T07:27:09Z</time>
      </trkpt>
      <trkpt lat="46.15432" lon="1.84188">
        <ele>636</ele>
        <time>2016-12-03T07:29:09Z</time>
      </trkpt>
      <trkpt lat="46.15438" lon="1.84191">
        <ele>637</ele>
        <time>2016-12-03T07:31:09Z</time>
      </trkpt>
      <trkpt lat="46.1544" lon="1.8419">
        <ele>637</ele>
        <time>2016-12-03T07:33:09Z</time>
      </trkpt>
      <trkpt lat="46.15441" lon="1.84189">
        <ele>637</ele>
        <time>2016-12-03T07:35:09Z</time>
      </trkpt>
      <trkpt lat="46.15441" lon="1.84184">
        <ele>638</ele>
        <time>2016-12-03T07:37:09Z</time>
      </trkpt>
      <trkpt lat="46.1544" lon="1.8418">
        <ele>639</ele>
        <time>2016-12-03T07:39:09Z</time>
      </trkpt>
      <trkpt lat="46.1544" lon="1.84176">
        <ele>640</ele>
        <time>2016-12-03T07:41:09Z</time>
      </trkpt>
      <trkpt lat="46.1544" lon="1.84172">
        <ele>640</ele>
        <time>2016-12-03T07:43:09Z</time>
      </trkpt>
      <trkpt lat="46.15439" lon="1.84165">
        <ele>641</ele>
        <time>2016-12-03T07:45:09Z</time>
      </trkpt>
      <trkpt lat="46.15436" lon="1.84157">
        <ele>642</ele>
        <time>2016-12-03T07:47:09Z</time>
      </trkpt>
      <trkpt lat="46.15434" lon="1.84153">
        <ele>642</ele>
        <time>2016-12-03T07:49:09Z</time>
      </trkpt>
      <trkpt lat="46.15433" lon="1.84151">
        <ele>642</ele>
        <time>2016-12-03T07:51:09Z</time>
      </trkpt>
      <trkpt lat="46.15426" lon="1.84146">
        <ele>642</ele>
        <time>2016-12-03T07:53:09Z</time>
      </trkpt>
      <trkpt lat="46.15422" lon="1.84141">
        <ele>642</ele>
        <time>2016-12-03T07:55:09Z</time>
      </trkpt>
      <trkpt lat="46.1542" lon="1.84137">
        <ele>642</ele>
        <time>2016-12-03T07:57:09Z</time>
      </trkpt>
      <trkpt lat="46.15413" lon="1.8413">
        <ele>641</ele>
        <time>2016-12-03T07:59:09Z</time>
      </trkpt>
      <trkpt lat="46.15409" lon="1.84127">
        <ele>641</ele>
        <time>2016-12-03T08:01:09Z</time>
      </trkpt>
      <trkpt lat="46.15404" lon="1.84124">
        <ele>640</ele>
        <time>2016-12-03T08:03:09Z</time>
      </trkpt>
      <trkpt lat="46.15403" lon="1.84122">
        <ele>640</ele>
        <time>2016-12-03T08:05:09Z</time>
      </trkpt>
      <trkpt lat="46.15401" lon="1.8412">
        <ele>640</ele>
        <time>2016-12-03T08:07:09Z</time>
      </trkpt>
      <trkpt lat="46.154" lon="1.84118">
        <ele>640</ele>
        <time>2016-12-03T08:09:09Z</time>
      </trkpt>
      <trkpt lat="46.15398" lon="1.84116">
        <ele>640</ele>
        <time>2016-12-03T08:11:09Z</time>
      </trkpt>
      <trkpt lat="46.15396" lon="1.84114">
        <ele>640</ele>
        <time>2016-12-03T08:13:09Z</time>
      </trkpt>
      <trkpt lat="46.15389" lon="1.84111">
        <ele>639</ele>
        <time>2016-12-03T08:15:09Z</time>
      </trkpt>
      <trkpt lat="46.15387" lon="1.84109">
        <ele>639</ele>
        <time>2016-12-03T08:17:09Z</time>
      </trkpt>
      <trkpt lat="46.15385" lon="1.84107">
        <ele>639</ele>
        <time>2016-12-03T08:19:09Z</time>
      </trkpt>
      <trkpt lat="46.15383" lon="1.84105">
        <ele>638</ele>
        <time>2016-12-03T08:21:09Z</time>
      </trkpt>
      <trkpt lat="46.1538" lon="1.84103">
        <ele>638</ele>
        <time>2016-12-03T08:23:09Z</time>
      </trkpt>
      <trkpt lat="46.15376" lon="1.84098">
        <ele>638</ele>
        <time>2016-12-03T08:25:09Z</time>
      </trkpt>
      <trkpt lat="46.15371" lon="1.84094">
        <ele>637</ele>
        <time>2016-12-03T08:27:09Z</time>
      </trkpt>
      <trkpt lat="46.15369" lon="1.84093">
        <ele>637</ele>
        <time>2016-12-03T08:29:09Z</time>
      </trkpt>
      <trkpt lat="46.15365" lon="1.84088">
        <ele>637</ele>
        <time>2016-12-03T08:31:09Z</time>
      </trkpt>
      <trkpt lat="46.15363" lon="1.84086">
        <ele>637</ele>
        <time>2016-12-03T08:33:09Z</time>
      </trkpt>
      <trkpt lat="46.15358" lon="1.84081">
        <ele>637</ele>
        <time>2016-12-03T08:35:09Z</time>
      </trkpt>
      <trkpt lat="46.15351" lon="1.84075">
        <ele>636</ele>
        <time>2016-12-03T08:37:09Z</time>
      </trkpt>
      <trkpt lat="46.15347" lon="1.8407">
        <ele>636</ele>
        <time>2016-12-03T08:39:09Z</time>
      </trkpt>
      <trkpt lat="46.15345" lon="1.84068">
        <ele>636</ele>
        <time>2016-12-03T08:41:09Z</time>
      </trkpt>
      <trkpt lat="46.1534" lon="1.84064">
        <ele>635</ele>
        <time>2016-12-03T08:43:09Z</time>
      </trkpt>
      <trkpt lat="46.15337" lon="1.84061">
        <ele>635</ele>
        <time>2016-12-03T08:45:09Z</time>
      </trkpt>
      <trkpt lat="46.15333" lon="1.84056">
        <ele>635</ele>
        <time>2016-12-03T08:47:09Z</time>
      </trkpt>
      <trkpt lat="46.15331" lon="1.84054">
        <ele>635</ele>
        <time>2016-12-03T08:49:09Z</time>
      </trkpt>
      <trkpt lat="46.15329" lon="1.84052">
        <ele>635</ele>
        <time>2016-12-03T08:51:09Z</time>
      </trkpt>
      <trkpt lat="46.15324" lon="1.84048">
        <ele>635</ele>
        <time>2016-12-03T08:53:09Z</time>
      </trkpt>
      <trkpt lat="46.15319" lon="1.84041">
        <ele>635</ele>
        <time>2016-12-03T08:55:09Z</time>
      </trkpt>
      <trkpt lat="46.15317" lon="1.84039">
        <ele>635</ele>
        <time>2016-12-03T08:57:09Z</time>
      </trkpt>
      <trkpt lat="46.15312" lon="1.84036">
        <ele>635</ele>
        <time>2016-12-03T08:59:09Z</time>
      </trkpt>
      <trkpt lat="46.15309" lon="1.84033">
        <ele>635</ele>
        <time>2016-12-03T09:01:09Z</time>
      </trkpt>
      <trkpt lat="46.15308" lon="1.84029">
        <ele>635</ele>
        <time>2016-12-03T09:03:09Z</time>
      </trkpt>
      <trkpt lat="46.15307" lon="1.84025">
        <ele>636</ele>
        <time>2016-12-03T09:05:09Z</time>
      </trkpt>
      <trkpt lat="46.15305" lon="1.84019">
        <ele>636</ele>
        <time>2016-12-03T09:07:09Z</time>
      </trkpt>
      <trkpt lat="46.15301" lon="1.84011">
        <ele>637</ele>
        <time>2016-12-03T09:09:09Z</time>
      </trkpt>
      <trkpt lat="46.15296" lon="1.84005">
        <ele>637</ele>
        <time>2016-12-03T09:11:09Z</time>
      </trkpt>
      <trkpt lat="46.15294" lon="1.84003">
        <ele>637</ele>
        <time>2016-12-03T09:13:09Z</time>
      </trkpt>
      <trkpt lat="46.15281" lon="1.83973">
        <ele>638</ele>
        <time>2016-12-03T09:15:09Z</time>
      </trkpt>
      <trkpt lat="46.15276" lon="1.83965">
        <ele>638</ele>
        <time>2016-12-03T09:17:09Z</time>
      </trkpt>
      <trkpt lat="46.15271" lon="1.83959">
        <ele>638</ele>
        <time>2016-12-03T09:19:09Z</time>
      </trkpt>
      <trkpt lat="46.1527" lon="1.83956">
        <ele>638</ele>
        <time>2016-12-03T09:21:09Z</time>
      </trkpt>
      <trkpt lat="46.15268" lon="1.83953">
        <ele>638</ele>
        <time>2016-12-03T09:23:09Z</time>
      </trkpt>
      <trkpt lat="46.15267" lon="1.83944">
        <ele>638</ele>
        <time>2016-12-03T09:25:09Z</time>
      </trkpt>
      <trkpt lat="46.15266" lon="1.83941">
        <ele>638</ele>
        <time>2016-12-03T09:27:09Z</time>
      </trkpt>
      <trkpt lat="46.15264" lon="1.83932">
        <ele>639</ele>
        <time>2016-12-03T09:29:09Z</time>
      </trkpt>
      <trkpt lat="46.15265" lon="1.83929">
        <ele>639</ele>
        <time>2016-12-03T09:31:09Z</time>
      </trkpt>
      <trkpt lat="46.15264" lon="1.83927">
        <ele>639</ele>
        <time>2016-12-03T09:33:09Z</time>
      </trkpt>
      <trkpt lat="46.15264" lon="1.83921">
        <ele>639</ele>
        <time>2016-12-03T09:35:09Z</time>
      </trkpt>
      <trkpt lat="46.15262" lon="1.83913">
        <ele>639</ele>
        <time>2016-12-03T09:37:09Z</time>
      </trkpt>
      <trkpt lat="46.1526" lon="1.83907">
        <ele>639</ele>
        <time>2016-12-03T09:39:09Z</time>
      </trkpt>
      <trkpt lat="46.15259" lon="1.83903">
        <ele>639</ele>
        <time>2016-12-03T09:41:09Z</time>
      </trkpt>
      <trkpt lat="46.15259" lon="1.83897">
        <ele>640</ele>
        <time>2016-12-03T09:43:09Z</time>
      </trkpt>
      <trkpt lat="46.15258" lon="1.83893">
        <ele>640</ele>
        <time>2016-12-03T09:45:09Z</time>
      </trkpt>
      <trkpt lat="46.15257" lon="1.8389">
        <ele>640</ele>
        <time>2016-12-03T09:47:09Z</time>
      </trkpt>
      <trkpt lat="46.15256" lon="1.83887">
        <ele>640</ele>
        <time>2016-12-03T09:49:09Z</time>
      </trkpt>
      <trkpt lat="46.15254" lon="1.83884">
        <ele>640</ele>
        <time>2016-12-03T09:51:09Z</time>
      </trkpt>
      <trkpt lat="46.15251" lon="1.83883">
        <ele>639</ele>
        <time>2016-12-03T09:53:09Z</time>
      </trkpt>
      <trkpt lat="46.15249" lon="1.83883">
        <ele>639</ele>
        <time>2016-12-03T09:55:09Z</time>
      </trkpt>
      <trkpt lat="46.15245" lon="1.83881">
        <ele>639</ele>
        <time>2016-12-03T09:57:09Z</time>
      </trkpt>
      <trkpt lat="46.15243" lon="1.8388">
        <ele>639</ele>
        <time>2016-12-03T09:59:09Z</time>
      </trkpt>
      <trkpt lat="46.1524" lon="1.8388">
        <ele>638</ele>
        <time>2016-12-03T10:01:09Z</time>
      </trkpt>
      <trkpt lat="46.15238" lon="1.83879">
        <ele>638</ele>
        <time>2016-12-03T10:03:09Z</time>
      </trkpt>
      <trkpt lat="46.15233" lon="1.83874">
        <ele>638</ele>
        <time>2016-12-03T10:05:09Z</time>
      </trkpt>
      <trkpt lat="46.15231" lon="1.83872">
        <ele>638</ele>
        <time>2016-12-03T10:07:09Z</time>
      </trkpt>
      <trkpt lat="46.1523" lon="1.83868">
        <ele>638</ele>
        <time>2016-12-03T10:09:09Z</time>
      </trkpt>
      <trkpt lat="46.15229" lon="1.83865">
        <ele>638</ele>
        <time>2016-12-03T10:11:09Z</time>
      </trkpt>
      <trkpt lat="46.15225" lon="1.8385">
        <ele>638</ele>
        <time>2016-12-03T10:13:09Z</time>
      </trkpt>
      <trkpt lat="46.15225" lon="1.83843">
        <ele>638</ele>
        <time>2016-12-03T10:15:09Z</time>
      </trkpt>
      <trkpt lat="46.15225" lon="1.83839">
        <ele>638</ele>
        <time>2016-12-03T10:17:09Z</time>
      </trkpt>
      <trkpt lat="46.15224" lon="1.83835">
        <ele>638</ele>
        <time>2016-12-03T10:19:09Z</time>
      </trkpt>
      <trkpt lat="46.15223" lon="1.83827">
        <ele>639</ele>
        <time>2016-12-03T10:21:09Z</time>
      </trkpt>
      <trkpt lat="46.15223" lon="1.83813">
        <ele>639</ele>
        <time>2016-12-03T10:23:09Z</time>
      </trkpt>
      <trkpt lat="46.15222" lon="1.83804">
        <ele>639</ele>
        <time>2016-12-03T10:25:09Z</time>
      </trkpt>
      <trkpt lat="46.15222" lon="1.83796">
        <ele>640</ele>
        <time>2016-12-03T10:27:09Z</time>
      </trkpt>
      <trkpt lat="46.15222" lon="1.83792">
        <ele>640</ele>
        <time>2016-12-03T10:29:09Z</time>
      </trkpt>
      <trkpt lat="46.15219" lon="1.83781">
        <ele>640</ele>
        <time>2016-12-03T10:31:09Z</time>
      </trkpt>
      <trkpt lat="46.15218" lon="1.83778">
        <ele>640</ele>
        <time>2016-12-03T10:33:09Z</time>
      </trkpt>
      <trkpt lat="46.15216" lon="1.83768">
        <ele>640</ele>
        <time>2016-12-03T10:35:09Z</time>
      </trkpt>
      <trkpt lat="46.15215" lon="1.83762">
        <ele>640</ele>
        <time>2016-12-03T10:37:09Z</time>
      </trkpt>
      <trkpt lat="46.15213" lon="1.83755">
        <ele>640</ele>
        <time>2016-12-03T10:39:09Z</time>
      </trkpt>
      <trkpt lat="46.15213" lon="1.83751">
        <ele>640</ele>
        <time>2016-12-03T10:41:09Z</time>
      </trkpt>
      <trkpt lat="46.15215" lon="1.83748">
        <ele>640</ele>
        <time>2016-12-03T10:43:09Z</time>
      </trkpt>
      <trkpt lat="46.15222" lon="1.83744">
        <ele>641</ele>
        <time>2016-12-03T10:45:09Z</time>
      </trkpt>
      <trkpt lat="46.15227" lon="1.83741">
        <ele>642</ele>
        <time>2016-12-03T10:47:09Z</time>
      </trkpt>
      <trkpt lat="46.15228" lon="1.8374">
        <ele>642</ele>
        <time>2016-12-03T10:49:09Z</time>
      </trkpt>
      <trkpt lat="46.1523" lon="1.83736">
        <ele>643</ele>
        <time>2016-12-03T10:51:09Z</time>
      </trkpt>
      <trkpt lat="46.15232" lon="1.83733">
        <ele>643</ele>
        <time>2016-12-03T10:53:09Z</time>
      </trkpt>
      <trkpt lat="46.15234" lon="1.83729">
        <ele>644</ele>
        <time>2016-12-03T10:55:09Z</time>
      </trkpt>
      <trkpt lat="46.15237" lon="1.83723">
        <ele>644</ele>
        <time>2016-12-03T10:57:09Z</time>
      </trkpt>
      <trkpt lat="46.15238" lon="1.8372">
        <ele>644</ele>
        <time>2016-12-03T10:59:09Z</time>
      </trkpt>
      <trkpt lat="46.15241" lon="1.83718">
        <ele>645</ele>
        <time>2016-12-03T11:01:09Z</time>
      </trkpt>
      <trkpt lat="46.15244" lon="1.83716">
        <ele>645</ele>
        <time>2016-12-03T11:03:09Z</time>
      </trkpt>
      <trkpt lat="46.15246" lon="1.83714">
        <ele>646</ele>
        <time>2016-12-03T11:05:09Z</time>
      </trkpt>
      <trkpt lat="46.15252" lon="1.83706">
        <ele>647</ele>
        <time>2016-12-03T11:07:09Z</time>
      </trkpt>
      <trkpt lat="46.15253" lon="1.83703">
        <ele>647</ele>
        <time>2016-12-03T11:09:09Z</time>
      </trkpt>
      <trkpt lat="46.15254" lon="1.837">
        <ele>647</ele>
        <time>2016-12-03T11:11:09Z</time>
      </trkpt>
      <trkpt lat="46.15257" lon="1.83693">
        <ele>648</ele>
        <time>2016-12-03T11:13:09Z</time>
      </trkpt>
      <trkpt lat="46.15261" lon="1.83688">
        <ele>649</ele>
        <time>2016-12-03T11:15:09Z</time>
      </trkpt>
      <trkpt lat="46.15262" lon="1.83685">
        <ele>649</ele>
        <time>2016-12-03T11:17:09Z</time>
      </trkpt>
      <trkpt lat="46.15263" lon="1.83684">
        <ele>649</ele>
        <time>2016-12-03T11:19:09Z</time>
      </trkpt>
      <trkpt lat="46.15267" lon="1.83677">
        <ele>650</ele>
        <time>2016-12-03T11:21:09Z</time>
      </trkpt>
      <trkpt lat="46.15269" lon="1.83676">
        <ele>650</ele>
        <time>2016-12-03T11:23:09Z</time>
      </trkpt>
      <trkpt lat="46.1527" lon="1.83675">
        <ele>650</ele>
        <time>2016-12-03T11:25:09Z</time>
      </trkpt>
      <trkpt lat="46.15271" lon="1.83675">
        <ele>650</ele>
        <time>2016-12-03T11:27:09Z</time>
      </trkpt>
      <trkpt lat="46.15274" lon="1.83677">
        <ele>651</ele>
        <time>2016-12-03T11:29:09Z</time>
      </trkpt>
      <trkpt lat="46.15276" lon="1.8368">
        <ele>651</ele>
        <time>2016-12-03T11:31:09Z</time>
      </trkpt>
      <trkpt lat="46.15282" lon="1.83687">
        <ele>651</ele>
        <time>2016-12-03T11:33:09Z</time>
      </trkpt>
      <trkpt lat="46.15286" lon="1.83691">
        <ele>651</ele>
        <time>2016-12-03T11:35:09Z</time>
      </trkpt>
      <trkpt lat="46.15289" lon="1.83693">
        <ele>652</ele>
        <time>2016-12-03T11:37:09Z</time>
      </trkpt>
      <trkpt lat="46.1529" lon="1.83694">
        <ele>652</ele>
        <time>2016-12-03T11:39:09Z</time>
      </trkpt>
      <trkpt lat="46.15292" lon="1.83694">
        <ele>652</ele>
        <time>2016-12-03T11:41:09Z</time>
      </trkpt>
      <trkpt lat="46.15295" lon="1.83693">
        <ele>652</ele>
        <time>2016-12-03T11:43:09Z</time>
      </trkpt>
      <trkpt lat="46.15299" lon="1.83693">
        <ele>653</ele>
        <time>2016-12-03T11:45:09Z</time>
      </trkpt>
      <trkpt lat="46.15304" lon="1.83694">
        <ele>653</ele>
        <time>2016-12-03T11:47:09Z</time>
      </trkpt>
      <trkpt lat="46.15309" lon="1.83694">
        <ele>654</ele>
        <time>2016-12-03T11:49:09Z</time>
      </trkpt>
      <trkpt lat="46.15311" lon="1.83695">
        <ele>654</ele>
        <time>2016-12-03T11:51:09Z</time>
      </trkpt>
      <trkpt lat="46.15314" lon="1.83695">
        <ele>654</ele>
        <time>2016-12-03T11:53:09Z</time>
      </trkpt>
      <trkpt lat="46.15319" lon="1.83696">
        <ele>655</ele>
        <time>2016-12-03T11:55:09Z</time>
      </trkpt>
      <trkpt lat="46.15325" lon="1.83697">
        <ele>655</ele>
        <time>2016-12-03T11:57:09Z</time>
      </trkpt>
      <trkpt lat="46.15326" lon="1.83697">
        <ele>656</ele>
        <time>2016-12-03T11:59:09Z</time>
      </trkpt>
      <trkpt lat="46.15331" lon="1.83698">
        <ele>656</ele>
        <time>2016-12-03T12:01:09Z</time>
      </trkpt>
      <trkpt lat="46.15334" lon="1.83699">
        <ele>656</ele>
        <time>2016-12-03T12:03:09Z</time>
      </trkpt>
      <trkpt lat="46.15338" lon="1.837">
        <ele>657</ele>
        <time>2016-12-03T12:05:09Z</time>
      </trkpt>
      <trkpt lat="46.15347" lon="1.83698">
        <ele>658</ele>
        <time>2016-12-03T12:07:09Z</time>
      </trkpt>
      <trkpt lat="46.15348" lon="1.83698">
        <ele>658</ele>
        <time>2016-12-03T12:09:09Z</time>
      </trkpt>
      <trkpt lat="46.1535" lon="1.83697">
        <ele>659</ele>
        <time>2016-12-03T12:11:09Z</time>
      </trkpt>
      <trkpt lat="46.15349" lon="1.83697">
        <ele>659</ele>
        <time>2016-12-03T12:13:09Z</time>
      </trkpt>
      <trkpt lat="46.15352" lon="1.83694">
        <ele>659</ele>
        <time>2016-12-03T12:15:09Z</time>
      </trkpt>
      <trkpt lat="46.15353" lon="1.83694">
        <ele>659</ele>
        <time>2016-12-03T12:17:09Z</time>
      </trkpt>
      <trkpt lat="46.15356" lon="1.83691">
        <ele>660</ele>
        <time>2016-12-03T12:19:09Z</time>
      </trkpt>
      <trkpt lat="46.1536" lon="1.83687">
        <ele>661</ele>
        <time>2016-12-03T12:21:09Z</time>
      </trkpt>
      <trkpt lat="46.15362" lon="1.83683">
        <ele>661</ele>
        <time>2016-12-03T12:23:09Z</time>
      </trkpt>
      <trkpt lat="46.15364" lon="1.83681">
        <ele>662</ele>
        <time>2016-12-03T12:25:09Z</time>
      </trkpt>
      <trkpt lat="46.15366" lon="1.8368">
        <ele>662</ele>
        <time>2016-12-03T12:27:09Z</time>
      </trkpt>
      <trkpt lat="46.15368" lon="1.83678">
        <ele>663</ele>
        <time>2016-12-03T12:29:09Z</time>
      </trkpt>
      <trkpt lat="46.15371" lon="1.83676">
        <ele>663</ele>
        <time>2016-12-03T12:31:09Z</time>
      </trkpt>
      <trkpt lat="46.15375" lon="1.83675">
        <ele>664</ele>
        <time>2016-12-03T12:33:09Z</time>
      </trkpt>
      <trkpt lat="46.15377" lon="1.83675">
        <ele>664</ele>
        <time>2016-12-03T12:35:09Z</time>
      </trkpt>
      <trkpt lat="46.15378" lon="1.83675">
        <ele>664</ele>
        <time>2016-12-03T12:37:09Z</time>
      </trkpt>
      <trkpt lat="46.15379" lon="1.83674">
        <ele>664</ele>
        <time>2016-12-03T12:39:09Z</time>
      </trkpt>
      <trkpt lat="46.15382" lon="1.83674">
        <ele>665</ele>
        <time>2016-12-03T12:41:09Z</time>
      </trkpt>
      <trkpt lat="46.15387" lon="1.83675">
        <ele>665</ele>
        <time>2016-12-03T12:43:09Z</time>
      </trkpt>
      <trkpt lat="46.15389" lon="1.83675">
        <ele>666</ele>
        <time>2016-12-03T12:45:09Z</time>
      </trkpt>
      <trkpt lat="46.15389" lon="1.83675">
        <ele>666</ele>
        <time>2016-12-03T12:47:09Z</time>
      </trkpt>
      <trkpt lat="46.15389" lon="1.83675">
        <ele>666</ele>
        <time>2016-12-03T12:49:09Z</time>
      </trkpt>
      <trkpt lat="46.15389" lon="1.83676">
        <ele>666</ele>
        <time>2016-12-03T12:51:09Z</time>
      </trkpt>
      <trkpt lat="46.15392" lon="1.83674">
        <ele>666</ele>
        <time>2016-12-03T12:53:09Z</time>
      </trkpt>
      <trkpt lat="46.15396" lon="1.83674">
        <ele>667</ele>
        <time>2016-12-03T12:55:09Z</time>
      </trkpt>
      <trkpt lat="46.15396" lon="1.83675">
        <ele>667</ele>
        <time>2016-12-03T12:57:09Z</time>
      </trkpt>
      <trkpt lat="46.15397" lon="1.83675">
        <ele>667</ele>
        <time>2016-12-03T12:59:09Z</time>
      </trkpt>
      <trkpt lat="46.154" lon="1.83677">
        <ele>667</ele>
        <time>2016-12-03T13:01:09Z</time>
      </trkpt>
      <trkpt lat="46.154" lon="1.83678">
        <ele>667</ele>
        <time>2016-12-03T13:03:09Z</time>
      </trkpt>
      <trkpt lat="46.15403" lon="1.8368">
        <ele>667</ele>
        <time>2016-12-03T13:05:09Z</time>
      </trkpt>
      <trkpt lat="46.15407" lon="1.83682">
        <ele>668</ele>
        <time>2016-12-03T13:07:09Z</time>
      </trkpt>
      <trkpt lat="46.15408" lon="1.83684">
        <ele>668</ele>
        <time>2016-12-03T13:09:09Z</time>
      </trkpt>
      <trkpt lat="46.15412" lon="1.83687">
        <ele>668</ele>
        <time>2016-12-03T13:11:09Z</time>
      </trkpt>
      <trkpt lat="46.15418" lon="1.83696">
        <ele>668</ele>
        <time>2016-12-03T13:13:09Z</time>
      </trkpt>
      <trkpt lat="46.15422" lon="1.83699">
        <ele>668</ele>
        <time>2016-12-03T13:15:09Z</time>
      </trkpt>
      <trkpt lat="46.15427" lon="1.83703">
        <ele>668</ele>
        <time>2016-12-03T13:17:09Z</time>
      </trkpt>
      <trkpt lat="46.15431" lon="1.83707">
        <ele>669</ele>
        <time>2016-12-03T13:19:09Z</time>
      </trkpt>
      <trkpt lat="46.15433" lon="1.8371">
        <ele>669</ele>
        <time>2016-12-03T13:21:09Z</time>
      </trkpt>
      <trkpt lat="46.15438" lon="1.83712">
        <ele>669</ele>
        <time>2016-12-03T13:23:09Z</time>
      </trkpt>
      <trkpt lat="46.1544" lon="1.83716">
        <ele>669</ele>
        <time>2016-12-03T13:25:09Z</time>
      </trkpt>
      <trkpt lat="46.15443" lon="1.83718">
        <ele>669</ele>
        <time>2016-12-03T13:27:09Z</time>
      </trkpt>
      <trkpt lat="46.15445" lon="1.83721">
        <ele>669</ele>
        <time>2016-12-03T13:29:09Z</time>
      </trkpt>
      <trkpt lat="46.15451" lon="1.83721">
        <ele>670</ele>
        <time>2016-12-03T13:31:09Z</time>
      </trkpt>
      <trkpt lat="46.15453" lon="1.83721">
        <ele>670</ele>
        <time>2016-12-03T13:33:09Z</time>
      </trkpt>
      <trkpt lat="46.15457" lon="1.83718">
        <ele>671</ele>
        <time>2016-12-03T13:35:09Z</time>
      </trkpt>
      <trkpt lat="46.15459" lon="1.83717">
        <ele>671</ele>
        <time>2016-12-03T13:37:09Z</time>
      </trkpt>
      <trkpt lat="46.1546" lon="1.83715">
        <ele>671</ele>
        <time>2016-12-03T13:39:09Z</time>
      </trkpt>
      <trkpt lat="46.15465" lon="1.83711">
        <ele>672</ele>
        <time>2016-12-03T13:41:09Z</time>
      </trkpt>
      <trkpt lat="46.15467" lon="1.8371">
        <ele>672</ele>
        <time>2016-12-03T13:43:09Z</time>
      </trkpt>
      <trkpt lat="46.15469" lon="1.83707">
        <ele>672</ele>
        <time>2016-12-03T13:45:09Z</time>
      </trkpt>
      <trkpt lat="46.1547" lon="1.83705">
        <ele>673</ele>
        <time>2016-12-03T13:47:09Z</time>
      </trkpt>
      <trkpt lat="46.15472" lon="1.83699">
        <ele>673</ele>
        <time>2016-12-03T13:49:09Z</time>
      </trkpt>
      <trkpt lat="46.15472" lon="1.83697">
        <ele>673</ele>
        <time>2016-12-03T13:51:09Z</time>
      </trkpt>
      <trkpt lat="46.15472" lon="1.83694">
        <ele>673</ele>
        <time>2016-12-03T13:53:09Z</time>
      </trkpt>
      <trkpt lat="46.15471" lon="1.83691">
        <ele>673</ele>
        <time>2016-12-03T13:55:09Z</time>
      </trkpt>
      <trkpt lat="46.1547" lon="1.83685">
        <ele>674</ele>
        <time>2016-12-03T13:57:09Z</time>
      </trkpt>
      <trkpt lat="46.15469" lon="1.83679">
        <ele>674</ele>
        <time>2016-12-03T13:59:09Z</time>
      </trkpt>
      <trkpt lat="46.15469" lon="1.83677">
        <ele>674</ele>
        <time>2016-12-03T14:01:09Z</time>
      </trkpt>
      <trkpt lat="46.15467" lon="1.83668">
        <ele>674</ele>
        <time>2016-12-03T14:03:09Z</time>
      </trkpt>
      <trkpt lat="46.15466" lon="1.83662">
        <ele>674</ele>
        <time>2016-12-03T14:05:09Z</time>
      </trkpt>
      <trkpt lat="46.15466" lon="1.83659">
        <ele>674</ele>
        <time>2016-12-03T14:07:09Z</time>
      </trkpt>
      <trkpt lat="46.15465" lon="1.83656">
        <ele>674</ele>
        <time>2016-12-03T14:09:09Z</time>
      </trkpt>
      <trkpt lat="46.15466" lon="1.83654">
        <ele>674</ele>
        <time>2016-12-03T14:11:09Z</time>
      </trkpt>
      <trkpt lat="46.15467" lon="1.8365">
        <ele>674</ele>
        <time>2016-12-03T14:13:09Z</time>
      </trkpt>
      <trkpt lat="46.15466" lon="1.83647">
        <ele>674</ele>
        <time>2016-12-03T14:15:09Z</time>
      </trkpt>
      <trkpt lat="46.15465" lon="1.83628">
        <ele>674</ele>
        <time>2016-12-03T14:17:09Z</time>
      </trkpt>
      <trkpt lat="46.15464" lon="1.83626">
        <ele>674</ele>
        <time>2016-12-03T14:19:09Z</time>
      </trkpt>
      <trkpt lat="46.15463" lon="1.83623">
        <ele>674</ele>
        <time>2016-12-03T14:21:09Z</time>
      </trkpt>
      <trkpt lat="46.15461" lon="1.83616">
        <ele>674</ele>
        <time>2016-12-03T14:23:09Z</time>
      </trkpt>
      <trkpt lat="46.1546" lon="1.83602">
        <ele>674</ele>
        <time>2016-12-03T14:25:09Z</time>
      </trkpt>
      <trkpt lat="46.15462" lon="1.83596">
        <ele>674</ele>
        <time>2016-12-03T14:27:09Z</time>
      </trkpt>
      <trkpt lat="46.15462" lon="1.8359">
        <ele>674</ele>
        <time>2016-12-03T14:29:09Z</time>
      </trkpt>
      <trkpt lat="46.15462" lon="1.83584">
        <ele>674</ele>
        <time>2016-12-03T14:31:09Z</time>
      </trkpt>
      <trkpt lat="46.1546" lon="1.83577">
        <ele>674</ele>
        <time>2016-12-03T14:33:09Z</time>
      </trkpt>
      <trkpt lat="46.15459" lon="1.83574">
        <ele>674</ele>
        <time>2016-12-03T14:35:09Z</time>
      </trkpt>
      <trkpt lat="46.15454" lon="1.83566">
        <ele>673</ele>
        <time>2016-12-03T14:37:09Z</time>
      </trkpt>
      <trkpt lat="46.15452" lon="1.83563">
        <ele>673</ele>
        <time>2016-12-03T14:39:09Z</time>
      </trkpt>
      <trkpt lat="46.1545" lon="1.83559">
        <ele>673</ele>
        <time>2016-12-03T14:41:09Z</time>
      </trkpt>
      <trkpt lat="46.15449" lon="1.83552">
        <ele>673</ele>
        <time>2016-12-03T14:43:09Z</time>
      </trkpt>
      <trkpt lat="46.15449" lon="1.83546">
        <ele>673</ele>
        <time>2016-12-03T14:45:09Z</time>
      </trkpt>
      <trkpt lat="46.15448" lon="1.83544">
        <ele>673</ele>
        <time>2016-12-03T14:47:09Z</time>
      </trkpt>
      <trkpt lat="46.15446" lon="1.8354">
        <ele>673</ele>
        <time>2016-12-03T14:49:09Z</time>
      </trkpt>
      <trkpt lat="46.15445" lon="1.83534">
        <ele>673</ele>
        <time>2016-12-03T14:51:09Z</time>
      </trkpt>
      <trkpt lat="46.15445" lon="1.83531">
        <ele>673</ele>
        <time>2016-12-03T14:53:09Z</time>
      </trkpt>
      <trkpt lat="46.15446" lon="1.83518">
        <ele>673</ele>
        <time>2016-12-03T14:55:09Z</time>
      </trkpt>
      <trkpt lat="46.15446" lon="1.83518">
        <ele>673</ele>
        <time>2016-12-03T14:57:09Z</time>
      </trkpt>
      <trkpt lat="46.15448" lon="1.83514">
        <ele>673</ele>
        <time>2016-12-03T14:59:09Z</time>
      </trkpt>
      <trkpt lat="46.15452" lon="1.83508">
        <ele>673</ele>
        <time>2016-12-03T15:01:09Z</time>
      </trkpt>
      <trkpt lat="46.15453" lon="1.83505">
        <ele>673</ele>
        <time>2016-12-03T15:03:09Z</time>
      </trkpt>
      <trkpt lat="46.15457" lon="1.83502">
        <ele>673</ele>
        <time>2016-12-03T15:05:09Z</time>
      </trkpt>
      <trkpt lat="46.15461" lon="1.83497">
        <ele>674</ele>
        <time>2016-12-03T15:07:09Z</time>
      </trkpt>
      <trkpt lat="46.15462" lon="1.83495">
        <ele>674</ele>
        <time>2016-12-03T15:09:09Z</time>
      </trkpt>
      <trkpt lat="46.15464" lon="1.8349">
        <ele>674</ele>
        <time>2016-12-03T15:11:09Z</time>
      </trkpt>
      <trkpt lat="46.15467" lon="1.83486">
        <ele>675</ele>
        <time>2016-12-03T15:13:09Z</time>
      </trkpt>
      <trkpt lat="46.15468" lon="1.83486">
        <ele>675</ele>
        <time>2016-12-03T15:15:09Z</time>
      </trkpt>
      <trkpt lat="46.15469" lon="1.83483">
        <ele>675</ele>
        <time>2016-12-03T15:17:09Z</time>
      </trkpt>
      <trkpt lat="46.15469" lon="1.83483">
        <ele>675</ele>
        <time>2016-12-03T15:19:09Z</time>
      </trkpt>
      <trkpt lat="46.15469" lon="1.83482">
        <ele>675</ele>
        <time>2016-12-03T15:21:09Z</time>
      </trkpt>
      <trkpt lat="46.15469" lon="1.83483">
        <ele>675</ele>
        <time>2016-12-03T15:23:09Z</time>
      </trkpt>
      <trkpt lat="46.15469" lon="1.83483">
        <ele>675</ele>
        <time>2016-12-03T15:25:09Z</time>
      </trkpt>
      <trkpt lat="46.15469" lon="1.83483">
        <ele>675</ele>
        <time>2016-12-03T15:27:09Z</time>
      </trkpt>
      <trkpt lat="46.15469" lon="1.83483">
        <ele>675</ele>
        <time>2016-12-03T15:29:09Z</time>
      </trkpt>
      <trkpt lat="46.15468" lon="1.83483">
        <ele>675</ele>
        <time>2016-12-03T15:31:09Z</time>
      </trkpt>
      <trkpt lat="46.15468" lon="1.83483">
        <ele>675</ele>
        <time>2016-12-03T15:33:09Z</time>
      </trkpt>
      <trkpt lat="46.15469" lon="1.83483">
        <ele>675</ele>
        <time>2016-12-03T15:35:09Z</time>
      </trkpt>
      <trkpt lat="46.15468" lon="1.83483">
        <ele>675</ele>
        <time>2016-12-03T15:37:09Z</time>
      </trkpt>
      <trkpt lat="46.1547" lon="1.83483">
        <ele>675</ele>
        <time>2016-12-03T15:39:09Z</time>
      </trkpt>
      <trkpt lat="46.15468" lon="1.83484">
        <ele>675</ele>
        <time>2016-12-03T15:41:09Z</time>
      </trkpt>
      <trkpt lat="46.15474" lon="1.8347">
        <ele>676</ele>
        <time>2016-12-03T15:43:09Z</time>
      </trkpt>
      <trkpt lat="46.15474" lon="1.83469">
        <ele>676</ele>
        <time>2016-12-03T15:45:09Z</time>
      </trkpt>
      <trkpt lat="46.15476" lon="1.83465">
        <ele>676</ele>
        <time>2016-12-03T15:47:09Z</time>
      </trkpt>
      <trkpt lat="46.15477" lon="1.83463">
        <ele>676</ele>
        <time>2016-12-03T15:49:09Z</time>
      </trkpt>
      <trkpt lat="46.15479" lon="1.83436">
        <ele>678</ele>
        <time>2016-12-03T15:51:09Z</time>
      </trkpt>
      <trkpt lat="46.15478" lon="1.83435">
        <ele>678</ele>
        <time>2016-12-03T15:53:09Z</time>
      </trkpt>
      <trkpt lat="46.1548" lon="1.83434">
        <ele>678</ele>
        <time>2016-12-03T15:55:09Z</time>
      </trkpt>
      <trkpt lat="46.15479" lon="1.83432">
        <ele>678</ele>
        <time>2016-12-03T15:57:09Z</time>
      </trkpt>
      <trkpt lat="46.15479" lon="1.83431">
        <ele>678</ele>
        <time>2016-12-03T15:59:09Z</time>
      </trkpt>
      <trkpt lat="46.15478" lon="1.8343">
        <ele>678</ele>
        <time>2016-12-03T16:01:09Z</time>
      </trkpt>
      <trkpt lat="46.15478" lon="1.8343">
        <ele>678</ele>
        <time>2016-12-03T16:03:09Z</time>
      </trkpt>
      <trkpt lat="46.15478" lon="1.8343">
        <ele>678</ele>
        <time>2016-12-03T16:05:09Z</time>
      </trkpt>
      <trkpt lat="46.15478" lon="1.8343">
        <ele>678</ele>
        <time>2016-12-03T16:07:09Z</time>
      </trkpt>
      <trkpt lat="46.15478" lon="1.8343">
        <ele>678</ele>
        <time>2016-12-03T16:09:09Z</time>
      </trkpt>
      <trkpt lat="46.15478" lon="1.8343">
        <ele>678</ele>
        <time>2016-12-03T16:11:09Z</time>
      </trkpt>
      <trkpt lat="46.15476" lon="1.83429">
        <ele>678</ele>
        <time>2016-12-03T16:13:09Z</time>
      </trkpt>
      <trkpt lat="46.15476" lon="1.83429">
        <ele>678</ele>
        <time>2016-12-03T16:15:09Z</time>
      </trkpt>
      <trkpt lat="46.15476" lon="1.83429">
        <ele>678</ele>
        <time>2016-12-03T16:17:09Z</time>
      </trkpt>
      <trkpt lat="46.15476" lon="1.83429">
        <ele>678</ele>
        <time>2016-12-03T16:19:09Z</time>
      </trkpt>
      <trkpt lat="46.15476" lon="1.83429">
        <ele>678</ele>
        <time>2016-12-03T16:21:09Z</time>
      </trkpt>
      <trkpt lat="46.15476" lon="1.83429">
        <ele>678</ele>
        <time>2016-12-03T16:23:09Z</time>
      </trkpt>
      <trkpt lat="46.15474" lon="1.83428">
        <ele>678</ele>
        <time>2016-12-03T16:25:09Z</time>
      </trkpt>
      <trkpt lat="46.15475" lon="1.83429">
        <ele>678</ele>
        <time>2016-12-03T16:27:09Z</time>
      </trkpt>
      <trkpt lat="46.15474" lon="1.83429">
        <ele>678</ele>
        <time>2016-12-03T16:29:09Z</time>
      </trkpt>
      <trkpt lat="46.15473" lon="1.83426">
        <ele>678</ele>
        <time>2016-12-03T16:31:09Z</time>
      </trkpt>
      <trkpt lat="46.15473" lon="1.83422">
        <ele>678</ele>
        <time>2016-12-03T16:33:09Z</time>
      </trkpt>
      <trkpt lat="46.15474" lon="1.83418">
        <ele>678</ele>
        <time>2016-12-03T16:35:09Z</time>
      </trkpt>
      <trkpt lat="46.15474" lon="1.83417">
        <ele>678</ele>
        <time>2016-12-03T16:37:09Z</time>
      </trkpt>
      <trkpt lat="46.15475" lon="1.83415">
        <ele>678</ele>
        <time>2016-12-03T16:39:09Z</time>
      </trkpt>
      <trkpt lat="46.15477" lon="1.83411">
        <ele>679</ele>
        <time>2016-12-03T16:41:09Z</time>
      </trkpt>
      <trkpt lat="46.1548" lon="1.83408">
        <ele>679</ele>
        <time>2016-12-03T16:43:09Z</time>
      </trkpt>
      <trkpt lat="46.15483" lon="1.83406">
        <ele>679</ele>
        <time>2016-12-03T16:45:09Z</time>
      </trkpt>
      <trkpt lat="46.15488" lon="1.834">
        <ele>680</ele>
        <time>2016-12-03T16:47:09Z</time>
      </trkpt>
      <trkpt lat="46.15495" lon="1.83393">
        <ele>680</ele>
        <time>2016-12-03T16:49:09Z</time>
      </trkpt>
      <trkpt lat="46.15497" lon="1.83392">
        <ele>680</ele>
        <time>2016-12-03T16:51:09Z</time>
      </trkpt>
      <trkpt lat="46.155" lon="1.83392">
        <ele>681</ele>
        <time>2016-12-03T16:53:09Z</time>
      </trkpt>
      <trkpt lat="46.15503" lon="1.83392">
        <ele>681</ele>
        <time>2016-12-03T16:55:09Z</time>
      </trkpt>
      <trkpt lat="46.15505" lon="1.83392">
        <ele>680</ele>
        <time>2016-12-03T16:57:09Z</time>
      </trkpt>
      <trkpt lat="46.1551" lon="1.83394">
        <ele>680</ele>
        <time>2016-12-03T16:59:09Z</time>
      </trkpt>
      <trkpt lat="46.15514" lon="1.83394">
        <ele>680</ele>
        <time>2016-12-03T17:01:09Z</time>
      </trkpt>
      <trkpt lat="46.15524" lon="1.8339">
        <ele>679</ele>
        <time>2016-12-03T17:03:09Z</time>
      </trkpt>
      <trkpt lat="46.15526" lon="1.83389">
        <ele>679</ele>
        <time>2016-12-03T17:05:09Z</time>
      </trkpt>
      <trkpt lat="46.15528" lon="1.83387">
        <ele>679</ele>
        <time>2016-12-03T17:07:09Z</time>
      </trkpt>
      <trkpt lat="46.15534" lon="1.83387">
        <ele>679</ele>
        <time>2016-12-03T17:09:09Z</time>
      </trkpt>
      <trkpt lat="46.15537" lon="1.83387">
        <ele>679</ele>
        <time>2016-12-03T17:11:09Z</time>
      </trkpt>
      <trkpt lat="46.1554" lon="1.83388">
        <ele>678</ele>
        <time>2016-12-03T17:13:09Z</time>
      </trkpt>
      <trkpt lat="46.15541" lon="1.83389">
        <ele>678</ele>
        <time>2016-12-03T17:15:09Z</time>
      </trkpt>
      <trkpt lat="46.15542" lon="1.8339">
        <ele>678</ele>
        <time>2016-12-03T17:17:09Z</time>
      </trkpt>
      <trkpt lat="46.15544" lon="1.8339">
        <ele>678</ele>
        <time>2016-12-03T17:19:09Z</time>
      </trkpt>
      <trkpt lat="46.15548" lon="1.83389">
        <ele>678</ele>
        <time>2016-12-03T17:21:09Z</time>
      </trkpt>
      <trkpt lat="46.1555" lon="1.83388">
        <ele>678</ele>
        <time>2016-12-03T17:23:09Z</time>
      </trkpt>
      <trkpt lat="46.15557" lon="1.83382">
        <ele>677</ele>
        <time>2016-12-03T17:25:09Z</time>
      </trkpt>
      <trkpt lat="46.15559" lon="1.83381">
        <ele>677</ele>
        <time>2016-12-03T17:27:09Z</time>
      </trkpt>
      <trkpt lat="46.15561" lon="1.83382">
        <ele>677</ele>
        <time>2016-12-03T17:29:09Z</time>
      </trkpt>
      <trkpt lat="46.15564" lon="1.83386">
        <ele>677</ele>
        <time>2016-12-03T17:31:09Z</time>
      </trkpt>
      <trkpt lat="46.15566" lon="1.83387">
        <ele>677</ele>
        <time>2016-12-03T17:33:09Z</time>
      </trkpt>
      <trkpt lat="46.15571" lon="1.83394">
        <ele>677</ele>
        <time>2016-12-03T17:35:09Z</time>
      </trkpt>
      <trkpt lat="46.15571" lon="1.83397">
        <ele>677</ele>
        <time>2016-12-03T17:37:09Z</time>
      </trkpt>
      <trkpt lat="46.15573" lon="1.834">
        <ele>677</ele>
        <time>2016-12-03T17:39:09Z</time>
      </trkpt>
      <trkpt lat="46.15575" lon="1.83402">
        <ele>677</ele>
        <time>2016-12-03T17:41:09Z</time>
      </trkpt>
      <trkpt lat="46.15576" lon="1.83403">
        <ele>677</ele>
        <time>2016-12-03T17:43:09Z</time>
      </trkpt>
      <trkpt lat="46.15582" lon="1.83403">
        <ele>677</ele>
        <time>2016-12-03T17:45:09Z</time>
      </trkpt>
      <trkpt lat="46.15584" lon="1.83402">
        <ele>676</ele>
        <time>2016-12-03T17:47:09Z</time>
      </trkpt>
      <trkpt lat="46.15586" lon="1.83402">
        <ele>676</ele>
        <time>2016-12-03T17:49:09Z</time>
      </trkpt>
      <trkpt lat="46.15587" lon="1.83403">
        <ele>676</ele>
        <time>2016-12-03T17:51:09Z</time>
      </trkpt>
      <trkpt lat="46.15589" lon="1.83407">
        <ele>676</ele>
        <time>2016-12-03T17:53:09Z</time>
      </trkpt>
      <trkpt lat="46.15591" lon="1.8341">
        <ele>676</ele>
        <time>2016-12-03T17:55:09Z</time>
      </trkpt>
      <trkpt lat="46.15593" lon="1.83413">
        <ele>676</ele>
        <time>2016-12-03T17:57:09Z</time>
      </trkpt>
      <trkpt lat="46.15594" lon="1.83414">
        <ele>676</ele>
        <time>2016-12-03T17:59:09Z</time>
      </trkpt>
      <trkpt lat="46.15595" lon="1.83415">
        <ele>676</ele>
        <time>2016-12-03T18:01:09Z</time>
      </trkpt>
      <trkpt lat="46.15599" lon="1.83417">
        <ele>676</ele>
        <time>2016-12-03T18:03:09Z</time>
      </trkpt>
      <trkpt lat="46.15605" lon="1.83421">
        <ele>676</ele>
        <time>2016-12-03T18:05:09Z</time>
      </trkpt>
      <trkpt lat="46.15611" lon="1.83427">
        <ele>676</ele>
        <time>2016-12-03T18:07:09Z</time>
      </trkpt>
      <trkpt lat="46.15614" lon="1.83429">
        <ele>676</ele>
        <time>2016-12-03T18:09:09Z</time>
      </trkpt>
      <trkpt lat="46.15616" lon="1.8343">
        <ele>676</ele>
        <time>2016-12-03T18:11:09Z</time>
      </trkpt>
      <trkpt lat="46.15618" lon="1.8343">
        <ele>676</ele>
        <time>2016-12-03T18:13:09Z</time>
      </trkpt>
      <trkpt lat="46.15621" lon="1.8343">
        <ele>676</ele>
        <time>2016-12-03T18:15:09Z</time>
      </trkpt>
      <trkpt lat="46.15625" lon="1.8343">
        <ele>676</ele>
        <time>2016-12-03T18:17:09Z</time>
      </trkpt>
      <trkpt lat="46.15632" lon="1.83431">
        <ele>675</ele>
        <time>2016-12-03T18:19:09Z</time>
      </trkpt>
      <trkpt lat="46.15636" lon="1.83434">
        <ele>675</ele>
        <time>2016-12-03T18:21:09Z</time>
      </trkpt>
      <trkpt lat="46.15637" lon="1.83434">
        <ele>675</ele>
        <time>2016-12-03T18:23:09Z</time>
      </trkpt>
      <trkpt lat="46.1564" lon="1.83434">
        <ele>675</ele>
        <time>2016-12-03T18:25:09Z</time>
      </trkpt>
      <trkpt lat="46.15646" lon="1.83434">
        <ele>675</ele>
        <time>2016-12-03T18:27:09Z</time>
      </trkpt>
      <trkpt lat="46.15651" lon="1.83435">
        <ele>675</ele>
        <time>2016-12-03T18:29:09Z</time>
      </trkpt>
      <trkpt lat="46.15653" lon="1.83434">
        <ele>675</ele>
        <time>2016-12-03T18:31:09Z</time>
      </trkpt>
      <trkpt lat="46.15658" lon="1.83429">
        <ele>674</ele>
        <time>2016-12-03T18:33:09Z</time>
      </trkpt>
      <trkpt lat="46.1566" lon="1.83428">
        <ele>674</ele>
        <time>2016-12-03T18:35:09Z</time>
      </trkpt>
      <trkpt lat="46.15663" lon="1.83426">
        <ele>674</ele>
        <time>2016-12-03T18:37:09Z</time>
      </trkpt>
      <trkpt lat="46.15665" lon="1.83424">
        <ele>674</ele>
        <time>2016-12-03T18:39:09Z</time>
      </trkpt>
      <trkpt lat="46.15667" lon="1.83422">
        <ele>673</ele>
        <time>2016-12-03T18:41:09Z</time>
      </trkpt>
      <trkpt lat="46.15669" lon="1.8342">
        <ele>673</ele>
        <time>2016-12-03T18:43:09Z</time>
      </trkpt>
      <trkpt lat="46.15672" lon="1.83418">
        <ele>673</ele>
        <time>2016-12-03T18:45:09Z</time>
      </trkpt>
      <trkpt lat="46.15674" lon="1.83418">
        <ele>673</ele>
        <time>2016-12-03T18:47:09Z</time>
      </trkpt>
      <trkpt lat="46.15677" lon="1.83419">
        <ele>673</ele>
        <time>2016-12-03T18:49:09Z</time>
      </trkpt>
      <trkpt lat="46.15679" lon="1.83419">
        <ele>673</ele>
        <time>2016-12-03T18:51:09Z</time>
      </trkpt>
      <trkpt lat="46.15686" lon="1.83416">
        <ele>673</ele>
        <time>2016-12-03T18:53:09Z</time>
      </trkpt>
      <trkpt lat="46.15691" lon="1.83414">
        <ele>673</ele>
        <time>2016-12-03T18:55:09Z</time>
      </trkpt>
      <trkpt lat="46.15693" lon="1.83415">
        <ele>674</ele>
        <time>2016-12-03T18:57:09Z</time>
      </trkpt>
      <trkpt lat="46.15695" lon="1.83418">
        <ele>674</ele>
        <time>2016-12-03T18:59:09Z</time>
      </trkpt>
      <trkpt lat="46.15695" lon="1.8342">
        <ele>674</ele>
        <time>2016-12-03T19:01:09Z</time>
      </trkpt>
      <trkpt lat="46.15694" lon="1.83425">
        <ele>674</ele>
        <time>2016-12-03T19:03:09Z</time>
      </trkpt>
      <trkpt lat="46.15695" lon="1.83425">
        <ele>674</ele>
        <time>2016-12-03T19:05:09Z</time>
      </trkpt>
      <trkpt lat="46.15696" lon="1.83429">
        <ele>674</ele>
        <time>2016-12-03T19:07:09Z</time>
      </trkpt>
      <trkpt lat="46.15697" lon="1.83432">
        <ele>674</ele>
        <time>2016-12-03T19:09:09Z</time>
      </trkpt>
      <trkpt lat="46.15697" lon="1.83435">
        <ele>674</ele>
        <time>2016-12-03T19:11:09Z</time>
      </trkpt>
      <trkpt lat="46.15697" lon="1.83438">
        <ele>674</ele>
        <time>2016-12-03T19:13:09Z</time>
      </trkpt>
      <trkpt lat="46.15698" lon="1.8344">
        <ele>675</ele>
        <time>2016-12-03T19:15:09Z</time>
      </trkpt>
      <trkpt lat="46.15702" lon="1.83444">
        <ele>675</ele>
        <time>2016-12-03T19:17:09Z</time>
      </trkpt>
      <trkpt lat="46.15706" lon="1.83448">
        <ele>675</ele>
        <time>2016-12-03T19:19:09Z</time>
      </trkpt>
      <trkpt lat="46.15708" lon="1.8345">
        <ele>675</ele>
        <time>2016-12-03T19:21:09Z</time>
      </trkpt>
      <trkpt lat="46.1571" lon="1.83453">
        <ele>675</ele>
        <time>2016-12-03T19:23:09Z</time>
      </trkpt>
      <trkpt lat="46.1571" lon="1.83456">
        <ele>675</ele>
        <time>2016-12-03T19:25:09Z</time>
      </trkpt>
      <trkpt lat="46.15706" lon="1.83465">
        <ele>675</ele>
        <time>2016-12-03T19:27:09Z</time>
      </trkpt>
      <trkpt lat="46.15705" lon="1.83467">
        <ele>675</ele>
        <time>2016-12-03T19:29:09Z</time>
      </trkpt>
      <trkpt lat="46.15705" lon="1.83468">
        <ele>675</ele>
        <time>2016-12-03T19:31:09Z</time>
      </trkpt>
      <trkpt lat="46.15708" lon="1.83476">
        <ele>675</ele>
        <time>2016-12-03T19:33:09Z</time>
      </trkpt>
      <trkpt lat="46.15708" lon="1.83476">
        <ele>675</ele>
        <time>2016-12-03T19:35:09Z</time>
      </trkpt>
      <trkpt lat="46.15709" lon="1.83479">
        <ele>675</ele>
        <time>2016-12-03T19:37:09Z</time>
      </trkpt>
      <trkpt lat="46.15712" lon="1.83489">
        <ele>676</ele>
        <time>2016-12-03T19:39:09Z</time>
      </trkpt>
      <trkpt lat="46.15714" lon="1.83504">
        <ele>676</ele>
        <time>2016-12-03T19:41:09Z</time>
      </trkpt>
      <trkpt lat="46.15715" lon="1.83507">
        <ele>676</ele>
        <time>2016-12-03T19:43:09Z</time>
      </trkpt>
      <trkpt lat="46.15717" lon="1.83515">
        <ele>676</ele>
        <time>2016-12-03T19:45:09Z</time>
      </trkpt>
      <trkpt lat="46.15718" lon="1.83523">
        <ele>676</ele>
        <time>2016-12-03T19:47:09Z</time>
      </trkpt>
      <trkpt lat="46.1572" lon="1.83535">
        <ele>676</ele>
        <time>2016-12-03T19:49:09Z</time>
      </trkpt>
      <trkpt lat="46.1572" lon="1.83538">
        <ele>676</ele>
        <time>2016-12-03T19:51:09Z</time>
      </trkpt>
      <trkpt lat="46.15721" lon="1.83542">
        <ele>676</ele>
        <time>2016-12-03T19:53:09Z</time>
      </trkpt>
      <trkpt lat="46.15721" lon="1.83549">
        <ele>676</ele>
        <time>2016-12-03T19:55:09Z</time>
      </trkpt>
      <trkpt lat="46.15721" lon="1.83552">
        <ele>676</ele>
        <time>2016-12-03T19:57:09Z</time>
      </trkpt>
      <trkpt lat="46.1572" lon="1.83566">
        <ele>676</ele>
        <time>2016-12-03T19:59:09Z</time>
      </trkpt>
      <trkpt lat="46.15719" lon="1.83569">
        <ele>676</ele>
        <time>2016-12-03T20:01:09Z</time>
      </trkpt>
      <trkpt lat="46.15716" lon="1.83575">
        <ele>676</ele>
        <time>2016-12-03T20:03:09Z</time>
      </trkpt>
      <trkpt lat="46.15715" lon="1.83578">
        <ele>676</ele>
        <time>2016-12-03T20:05:09Z</time>
      </trkpt>
      <trkpt lat="46.15713" lon="1.83581">
        <ele>677</ele>
        <time>2016-12-03T20:07:09Z</time>
      </trkpt>
      <trkpt lat="46.15706" lon="1.83592">
        <ele>677</ele>
        <time>2016-12-03T20:09:09Z</time>
      </trkpt>
      <trkpt lat="46.15705" lon="1.83595">
        <ele>677</ele>
        <time>2016-12-03T20:11:09Z</time>
      </trkpt>
      <trkpt lat="46.15705" lon="1.83598">
        <ele>676</ele>
        <time>2016-12-03T20:13:09Z</time>
      </trkpt>
      <trkpt lat="46.15705" lon="1.83602">
        <ele>676</ele>
        <time>2016-12-03T20:15:09Z</time>
      </trkpt>
      <trkpt lat="46.15707" lon="1.83604">
        <ele>676</ele>
        <time>2016-12-03T20:17:09Z</time>
      </trkpt>
      <trkpt lat="46.15708" lon="1.83605">
        <ele>676</ele>
        <time>2016-12-03T20:19:09Z</time>
      </trkpt>
      <trkpt lat="46.1571" lon="1.83605">
        <ele>676</ele>
        <time>2016-12-03T20:21:09Z</time>
      </trkpt>
      <trkpt lat="46.15726" lon="1.83598">
        <ele>675</ele>
        <time>2016-12-03T20:23:09Z</time>
      </trkpt>
      <trkpt lat="46.15729" lon="1.83597">
        <ele>675</ele>
        <time>2016-12-03T20:25:09Z</time>
      </trkpt>
      <trkpt lat="46.15732" lon="1.83597">
        <ele>674</ele>
        <time>2016-12-03T20:27:09Z</time>
      </trkpt>
      <trkpt lat="46.15737" lon="1.83598">
        <ele>674</ele>
        <time>2016-12-03T20:29:09Z</time>
      </trkpt>
      <trkpt lat="46.15742" lon="1.836">
        <ele>673</ele>
        <time>2016-12-03T20:31:09Z</time>
      </trkpt>
      <trkpt lat="46.15744" lon="1.83601">
        <ele>673</ele>
        <time>2016-12-03T20:33:09Z</time>
      </trkpt>
      <trkpt lat="46.15747" lon="1.83604">
        <ele>673</ele>
        <time>2016-12-03T20:35:09Z</time>
      </trkpt>
      <trkpt lat="46.15749" lon="1.83606">
        <ele>672</ele>
        <time>2016-12-03T20:37:09Z</time>
      </trkpt>
      <trkpt lat="46.15752" lon="1.8361">
        <ele>672</ele>
        <time>2016-12-03T20:39:09Z</time>
      </trkpt>
      <trkpt lat="46.15754" lon="1.83614">
        <ele>671</ele>
        <time>2016-12-03T20:41:09Z</time>
      </trkpt>
      <trkpt lat="46.15761" lon="1.83626">
        <ele>670</ele>
        <time>2016-12-03T20:43:09Z</time>
      </trkpt>
      <trkpt lat="46.15763" lon="1.83633">
        <ele>669</ele>
        <time>2016-12-03T20:45:09Z</time>
      </trkpt>
      <trkpt lat="46.15764" lon="1.83635">
        <ele>669</ele>
        <time>2016-12-03T20:47:09Z</time>
      </trkpt>
      <trkpt lat="46.15766" lon="1.83638">
        <ele>669</ele>
        <time>2016-12-03T20:49:09Z</time>
      </trkpt>
      <trkpt lat="46.15769" lon="1.83641">
        <ele>669</ele>
        <time>2016-12-03T20:51:09Z</time>
      </trkpt>
      <trkpt lat="46.15777" lon="1.83647">
        <ele>668</ele>
        <time>2016-12-03T20:53:09Z</time>
      </trkpt>
      <trkpt lat="46.15785" lon="1.83654">
        <ele>667</ele>
        <time>2016-12-03T20:55:09Z</time>
      </trkpt>
      <trkpt lat="46.15792" lon="1.83661">
        <ele>666</ele>
        <time>2016-12-03T20:57:09Z</time>
      </trkpt>
      <trkpt lat="46.15795" lon="1.83664">
        <ele>666</ele>
        <time>2016-12-03T20:59:09Z</time>
      </trkpt>
      <trkpt lat="46.15796" lon="1.83665">
        <ele>665</ele>
        <time>2016-12-03T21:01:09Z</time>
      </trkpt>
      <trkpt lat="46.15799" lon="1.83667">
        <ele>665</ele>
        <time>2016-12-03T21:03:09Z</time>
      </trkpt>
      <trkpt lat="46.158" lon="1.83669">
        <ele>665</ele>
        <time>2016-12-03T21:05:09Z</time>
      </trkpt>
      <trkpt lat="46.15804" lon="1.83672">
        <ele>665</ele>
        <time>2016-12-03T21:07:09Z</time>
      </trkpt>
      <trkpt lat="46.15808" lon="1.83674">
        <ele>665</ele>
        <time>2016-12-03T21:09:09Z</time>
      </trkpt>
      <trkpt lat="46.15812" lon="1.83675">
        <ele>664</ele>
        <time>2016-12-03T21:11:09Z</time>
      </trkpt>
      <trkpt lat="46.15813" lon="1.83676">
        <ele>664</ele>
        <time>2016-12-03T21:13:09Z</time>
      </trkpt>
      <trkpt lat="46.15816" lon="1.83678">
        <ele>664</ele>
        <time>2016-12-03T21:15:09Z</time>
      </trkpt>
      <trkpt lat="46.15817" lon="1.8368">
        <ele>664</ele>
        <time>2016-12-03T21:17:09Z</time>
      </trkpt>
      <trkpt lat="46.1582" lon="1.83684">
        <ele>664</ele>
        <time>2016-12-03T21:19:09Z</time>
      </trkpt>
      <trkpt lat="46.15823" lon="1.83687">
        <ele>663</ele>
        <time>2016-12-03T21:21:09Z</time>
      </trkpt>
      <trkpt lat="46.15827" lon="1.83688">
        <ele>663</ele>
        <time>2016-12-03T21:23:09Z</time>
      </trkpt>
      <trkpt lat="46.15834" lon="1.83687">
        <ele>663</ele>
        <time>2016-12-03T21:25:09Z</time>
      </trkpt>
      <trkpt lat="46.15836" lon="1.83687">
        <ele>663</ele>
        <time>2016-12-03T21:27:09Z</time>
      </trkpt>
      <trkpt lat="46.15838" lon="1.83687">
        <ele>663</ele>
        <time>2016-12-03T21:29:09Z</time>
      </trkpt>
      <trkpt lat="46.15842" lon="1.83686">
        <ele>663</ele>
        <time>2016-12-03T21:31:09Z</time>
      </trkpt>
      <trkpt lat="46.15847" lon="1.83687">
        <ele>663</ele>
        <time>2016-12-03T21:33:09Z</time>
      </trkpt>
      <trkpt lat="46.15849" lon="1.83688">
        <ele>662</ele>
        <time>2016-12-03T21:35:09Z</time>
      </trkpt>
      <trkpt lat="46.15854" lon="1.83688">
        <ele>662</ele>
        <time>2016-12-03T21:37:09Z</time>
      </trkpt>
      <trkpt lat="46.15861" lon="1.83687">
        <ele>662</ele>
        <time>2016-12-03T21:39:09Z</time>
      </trkpt>
      <trkpt lat="46.15863" lon="1.83686">
        <ele>662</ele>
        <time>2016-12-03T21:41:09Z</time>
      </trkpt>
      <trkpt lat="46.15866" lon="1.83686">
        <ele>662</ele>
        <time>2016-12-03T21:43:09Z</time>
      </trkpt>
      <trkpt lat="46.1587" lon="1.83686">
        <ele>662</ele>
        <time>2016-12-03T21:45:09Z</time>
      </trkpt>
      <trkpt lat="46.15873" lon="1.83688">
        <ele>662</ele>
        <time>2016-12-03T21:47:09Z</time>
      </trkpt>
      <trkpt lat="46.15875" lon="1.83688">
        <ele>662</ele>
        <time>2016-12-03T21:49:09Z</time>
      </trkpt>
      <trkpt lat="46.15878" lon="1.83688">
        <ele>661</ele>
        <time>2016-12-03T21:51:09Z</time>
      </trkpt>
      <trkpt lat="46.1588" lon="1.83687">
        <ele>662</ele>
        <time>2016-12-03T21:53:09Z</time>
      </trkpt>
      <trkpt lat="46.15884" lon="1.83687">
        <ele>661</ele>
        <time>2016-12-03T21:55:09Z</time>
      </trkpt>
      <trkpt lat="46.15886" lon="1.83687">
        <ele>661</ele>
        <time>2016-12-03T21:57:09Z</time>
      </trkpt>
      <trkpt lat="46.15895" lon="1.83687">
        <ele>661</ele>
        <time>2016-12-03T21:59:09Z</time>
      </trkpt>
      <trkpt lat="46.15897" lon="1.83687">
        <ele>661</ele>
        <time>2016-12-03T22:01:09Z</time>
      </trkpt>
      <trkpt lat="46.15898" lon="1.83689">
        <ele>661</ele>
        <time>2016-12-03T22:03:09Z</time>
      </trkpt>
      <trkpt lat="46.15902" lon="1.8369">
        <ele>660</ele>
        <time>2016-12-03T22:05:09Z</time>
      </trkpt>
      <trkpt lat="46.15903" lon="1.83692">
        <ele>660</ele>
        <time>2016-12-03T22:07:09Z</time>
      </trkpt>
      <trkpt lat="46.15905" lon="1.83692">
        <ele>660</ele>
        <time>2016-12-03T22:09:09Z</time>
      </trkpt>
      <trkpt lat="46.15909" lon="1.83694">
        <ele>660</ele>
        <time>2016-12-03T22:11:09Z</time>
      </trkpt>
      <trkpt lat="46.1591" lon="1.83697">
        <ele>659</ele>
        <time>2016-12-03T22:13:09Z</time>
      </trkpt>
      <trkpt lat="46.15911" lon="1.83699">
        <ele>659</ele>
        <time>2016-12-03T22:15:09Z</time>
      </trkpt>
      <trkpt lat="46.15914" lon="1.83704">
        <ele>658</ele>
        <time>2016-12-03T22:17:09Z</time>
      </trkpt>
      <trkpt lat="46.15917" lon="1.83709">
        <ele>657</ele>
        <time>2016-12-03T22:19:09Z</time>
      </trkpt>
      <trkpt lat="46.15919" lon="1.83713">
        <ele>657</ele>
        <time>2016-12-03T22:21:09Z</time>
      </trkpt>
      <trkpt lat="46.15922" lon="1.83715">
        <ele>656</ele>
        <time>2016-12-03T22:23:09Z</time>
      </trkpt>
      <trkpt lat="46.15924" lon="1.83719">
        <ele>656</ele>
        <time>2016-12-03T22:25:09Z</time>
      </trkpt>
      <trkpt lat="46.15931" lon="1.83726">
        <ele>654</ele>
        <time>2016-12-03T22:27:09Z</time>
      </trkpt>
      <trkpt lat="46.15937" lon="1.83732">
        <ele>653</ele>
        <time>2016-12-03T22:29:09Z</time>
      </trkpt>
      <trkpt lat="46.15941" lon="1.83741">
        <ele>652</ele>
        <time>2016-12-03T22:31:09Z</time>
      </trkpt>
      <trkpt lat="46.15943" lon="1.83743">
        <ele>651</ele>
        <time>2016-12-03T22:33:09Z</time>
      </trkpt>
      <trkpt lat="46.1595" lon="1.83744">
        <ele>651</ele>
        <time>2016-12-03T22:35:09Z</time>
      </trkpt>
      <trkpt lat="46.15952" lon="1.83746">
        <ele>650</ele>
        <time>2016-12-03T22:37:09Z</time>
      </trkpt>
      <trkpt lat="46.15964" lon="1.83752">
        <ele>649</ele>
        <time>2016-12-03T22:39:09Z</time>
      </trkpt>
      <trkpt lat="46.15968" lon="1.83756">
        <ele>649</ele>
        <time>2016-12-03T22:41:09Z</time>
      </trkpt>
      <trkpt lat="46.15972" lon="1.83757">
        <ele>648</ele>
        <time>2016-12-03T22:43:09Z</time>
      </trkpt>
      <trkpt lat="46.15974" lon="1.83759">
        <ele>648</ele>
        <time>2016-12-03T22:45:09Z</time>
      </trkpt>
      <trkpt lat="46.15979" lon="1.8376">
        <ele>648</ele>
        <time>2016-12-03T22:47:09Z</time>
      </trkpt>
      <trkpt lat="46.15986" lon="1.83761">
        <ele>647</ele>
        <time>2016-12-03T22:49:09Z</time>
      </trkpt>
      <trkpt lat="46.15988" lon="1.8376">
        <ele>647</ele>
        <time>2016-12-03T22:51:09Z</time>
      </trkpt>
      <trkpt lat="46.15996" lon="1.83758">
        <ele>647</ele>
        <time>2016-12-03T22:53:09Z</time>
      </trkpt>
      <trkpt lat="46.1601" lon="1.83755">
        <ele>646</ele>
        <time>2016-12-03T22:55:09Z</time>
      </trkpt>
      <trkpt lat="46.16014" lon="1.83755">
        <ele>646</ele>
        <time>2016-12-03T22:57:09Z</time>
      </trkpt>
      <trkpt lat="46.16016" lon="1.83756">
        <ele>646</ele>
        <time>2016-12-03T22:59:09Z</time>
      </trkpt>
      <trkpt lat="46.16017" lon="1.83756">
        <ele>646</ele>
        <time>2016-12-03T23:01:09Z</time>
      </trkpt>
      <trkpt lat="46.16019" lon="1.83757">
        <ele>645</ele>
        <time>2016-12-03T23:03:09Z</time>
      </trkpt>
      <trkpt lat="46.16026" lon="1.83757">
        <ele>645</ele>
        <time>2016-12-03T23:05:09Z</time>
      </trkpt>
      <trkpt lat="46.16031" lon="1.83756">
        <ele>645</ele>
        <time>2016-12-03T23:07:09Z</time>
      </trkpt>
      <trkpt lat="46.16033" lon="1.83756">
        <ele>645</ele>
        <time>2016-12-03T23:09:09Z</time>
      </trkpt>
      <trkpt lat="46.16042" lon="1.83753">
        <ele>644</ele>
        <time>2016-12-03T23:11:09Z</time>
      </trkpt>
      <trkpt lat="46.16044" lon="1.83752">
        <ele>644</ele>
        <time>2016-12-03T23:13:09Z</time>
      </trkpt>
      <trkpt lat="46.16049" lon="1.83751">
        <ele>644</ele>
        <time>2016-12-03T23:15:09Z</time>
      </trkpt>
      <trkpt lat="46.16051" lon="1.83752">
        <ele>644</ele>
        <time>2016-12-03T23:17:09Z</time>
      </trkpt>
      <trkpt lat="46.16054" lon="1.83753">
        <ele>644</ele>
        <time>2016-12-03T23:19:09Z</time>
      </trkpt>
      <trkpt lat="46.16056" lon="1.83754">
        <ele>643</ele>
        <time>2016-12-03T23:21:09Z</time>
      </trkpt>
      <trkpt lat="46.16058" lon="1.83755">
        <ele>643</ele>
        <time>2016-12-03T23:23:09Z</time>
      </trkpt>
      <trkpt lat="46.16062" lon="1.83755">
        <ele>643</ele>
        <time>2016-12-03T23:25:09Z</time>
      </trkpt>
      <trkpt lat="46.16065" lon="1.83755">
        <ele>643</ele>
        <time>2016-12-03T23:27:09Z</time>
      </trkpt>
      <trkpt lat="46.16068" lon="1.83754">
        <ele>643</ele>
        <time>2016-12-03T23:29:09Z</time>
      </trkpt>
      <trkpt lat="46.16073" lon="1.83754">
        <ele>642</ele>
        <time>2016-12-03T23:31:09Z</time>
      </trkpt>
      <trkpt lat="46.16077" lon="1.83754">
        <ele>642</ele>
        <time>2016-12-03T23:33:09Z</time>
      </trkpt>
      <trkpt lat="46.16082" lon="1.83754">
        <ele>642</ele>
        <time>2016-12-03T23:35:09Z</time>
      </trkpt>
      <trkpt lat="46.16091" lon="1.83753">
        <ele>641</ele>
        <time>2016-12-03T23:37:09Z</time>
      </trkpt>
      <trkpt lat="46.16095" lon="1.83756">
        <ele>640</ele>
        <time>2016-12-03T23:39:09Z</time>
      </trkpt>
      <trkpt lat="46.16099" lon="1.83756">
        <ele>640</ele>
        <time>2016-12-03T23:41:09Z</time>
      </trkpt>
      <trkpt lat="46.16106" lon="1.83754">
        <ele>639</ele>
        <time>2016-12-03T23:43:09Z</time>
      </trkpt>
      <trkpt lat="46.1611" lon="1.83753">
        <ele>639</ele>
        <time>2016-12-03T23:45:09Z</time>
      </trkpt>
      <trkpt lat="46.16113" lon="1.83752">
        <ele>638</ele>
        <time>2016-12-03T23:47:09Z</time>
      </trkpt>
      <trkpt lat="46.16122" lon="1.83751">
        <ele>637</ele>
        <time>2016-12-03T23:49:09Z</time>
      </trkpt>
      <trkpt lat="46.16126" lon="1.83749">
        <ele>637</ele>
        <time>2016-12-03T23:51:09Z</time>
      </trkpt>
      <trkpt lat="46.1613" lon="1.83749">
        <ele>637</ele>
        <time>2016-12-03T23:53:09Z</time>
      </trkpt>
      <trkpt lat="46.16134" lon="1.83747">
        <ele>636</ele>
        <time>2016-12-03T23:55:09Z</time>
      </trkpt>
      <trkpt lat="46.16138" lon="1.83745">
        <ele>636</ele>
        <time>2016-12-03T23:57:09Z</time>
      </trkpt>
      <trkpt lat="46.16145" lon="1.83741">
        <ele>636</ele>
        <time>2016-12-03T23:59:09Z</time>
      </trkpt>
      <trkpt lat="46.16156" lon="1.83734">
        <ele>636</ele>
        <time>2016-12-04T00:01:09Z</time>
      </trkpt>
      <trkpt lat="46.16162" lon="1.8373">
        <ele>636</ele>
        <time>2016-12-04T00:03:09Z</time>
      </trkpt>
      <trkpt lat="46.16164" lon="1.83728">
        <ele>636</ele>
        <time>2016-12-04T00:05:09Z</time>
      </trkpt>
      <trkpt lat="46.16168" lon="1.83726">
        <ele>636</ele>
        <time>2016-12-04T00:07:09Z</time>
      </trkpt>
      <trkpt lat="46.16171" lon="1.83725">
        <ele>636</ele>
        <time>2016-12-04T00:09:09Z</time>
      </trkpt>
      <trkpt lat="46.16177" lon="1.83721">
        <ele>635</ele>
        <time>2016-12-04T00:11:09Z</time>
      </trkpt>
      <trkpt lat="46.16183" lon="1.83719">
        <ele>635</ele>
        <time>2016-12-04T00:13:09Z</time>
      </trkpt>
      <trkpt lat="46.16186" lon="1.83718">
        <ele>635</ele>
        <time>2016-12-04T00:15:09Z</time>
      </trkpt>
      <trkpt lat="46.1619" lon="1.83718">
        <ele>634</ele>
        <time>2016-12-04T00:17:09Z</time>
      </trkpt>
      <trkpt lat="46.16193" lon="1.8372">
        <ele>633</ele>
        <time>2016-12-04T00:19:09Z</time>
      </trkpt>
      <trkpt lat="46.16194" lon="1.83724">
        <ele>633</ele>
        <time>2016-12-04T00:21:09Z</time>
      </trkpt>
      <trkpt lat="46.16198" lon="1.83731">
        <ele>631</ele>
        <time>2016-12-04T00:23:09Z</time>
      </trkpt>
      <trkpt lat="46.16199" lon="1.83735">
        <ele>630</ele>
        <time>2016-12-04T00:25:09Z</time>
      </trkpt>
      <trkpt lat="46.16204" lon="1.83741">
        <ele>628</ele>
        <time>2016-12-04T00:27:09Z</time>
      </trkpt>
      <trkpt lat="46.16206" lon="1.83746">
        <ele>627</ele>
        <time>2016-12-04T00:29:09Z</time>
      </trkpt>
      <trkpt lat="46.16209" lon="1.8375">
        <ele>626</ele>
        <time>2016-12-04T00:31:09Z</time>
      </trkpt>
      <trkpt lat="46.16212" lon="1.83754">
        <ele>625</ele>
        <time>2016-12-04T00:33:09Z</time>
      </trkpt>
      <trkpt lat="46.16215" lon="1.83757">
        <ele>624</ele>
        <time>2016-12-04T00:35:09Z</time>
      </trkpt>
      <trkpt lat="46.16219" lon="1.83759">
        <ele>624</ele>
        <time>2016-12-04T00:37:09Z</time>
      </trkpt>
      <trkpt lat="46.16224" lon="1.83761">
        <ele>623</ele>
        <time>2016-12-04T00:39:09Z</time>
      </trkpt>
      <trkpt lat="46.16226" lon="1.83761">
        <ele>622</ele>
        <time>2016-12-04T00:41:09Z</time>
      </trkpt>
      <trkpt lat="46.16232" lon="1.83762">
        <ele>621</ele>
        <time>2016-12-04T00:43:09Z</time>
      </trkpt>
      <trkpt lat="46.16233" lon="1.83762">
        <ele>621</ele>
        <time>2016-12-04T00:45:09Z</time>
      </trkpt>
      <trkpt lat="46.16236" lon="1.83763">
        <ele>621</ele>
        <time>2016-12-04T00:47:09Z</time>
      </trkpt>
      <trkpt lat="46.16239" lon="1.83762">
        <ele>620</ele>
        <time>2016-12-04T00:49:09Z</time>
      </trkpt>
      <trkpt lat="46.16245" lon="1.83762">
        <ele>620</ele>
        <time>2016-12-04T00:51:09Z</time>
      </trkpt>
      <trkpt lat="46.16247" lon="1.83762">
        <ele>619</ele>
        <time>2016-12-04T00:53:09Z</time>
      </trkpt>
      <trkpt lat="46.16249" lon="1.83762">
        <ele>619</ele>
        <time>2016-12-04T00:55:09Z</time>
      </trkpt>
      <trkpt lat="46.16252" lon="1.83762">
        <ele>619</ele>
        <time>2016-12-04T00:57:09Z</time>
      </trkpt>
      <trkpt lat="46.16255" lon="1.83761">
        <ele>618</ele>
        <time>2016-12-04T00:59:09Z</time>
      </trkpt>
      <trkpt lat="46.1626" lon="1.83761">
        <ele>618</ele>
        <time>2016-12-04T01:01:09Z</time>
      </trkpt>
      <trkpt lat="46.16262" lon="1.83762">
        <ele>617</ele>
        <time>2016-12-04T01:03:09Z</time>
      </trkpt>
      <trkpt lat="46.16264" lon="1.83762">
        <ele>617</ele>
        <time>2016-12-04T01:05:09Z</time>
      </trkpt>
      <trkpt lat="46.16267" lon="1.83762">
        <ele>617</ele>
        <time>2016-12-04T01:07:09Z</time>
      </trkpt>
      <trkpt lat="46.16271" lon="1.83762">
        <ele>616</ele>
        <time>2016-12-04T01:09:09Z</time>
      </trkpt>
      <trkpt lat="46.1628" lon="1.83762">
        <ele>615</ele>
        <time>2016-12-04T01:11:09Z</time>
      </trkpt>
      <trkpt lat="46.16283" lon="1.83763">
        <ele>614</ele>
        <time>2016-12-04T01:13:09Z</time>
      </trkpt>
      <trkpt lat="46.1629" lon="1.83764">
        <ele>613</ele>
        <time>2016-12-04T01:15:09Z</time>
      </trkpt>
      <trkpt lat="46.16294" lon="1.83764">
        <ele>613</ele>
        <time>2016-12-04T01:17:09Z</time>
      </trkpt>
      <trkpt lat="46.163" lon="1.83763">
        <ele>612</ele>
        <time>2016-12-04T01:19:09Z</time>
      </trkpt>
      <trkpt lat="46.16303" lon="1.83763">
        <ele>612</ele>
        <time>2016-12-04T01:21:09Z</time>
      </trkpt>
      <trkpt lat="46.16306" lon="1.83762">
        <ele>612</ele>
        <time>2016-12-04T01:23:09Z</time>
      </trkpt>
      <trkpt lat="46.16307" lon="1.8376">
        <ele>612</ele>
        <time>2016-12-04T01:25:09Z</time>
      </trkpt>
      <trkpt lat="46.16309" lon="1.83758">
        <ele>612</ele>
        <time>2016-12-04T01:27:09Z</time>
      </trkpt>
      <trkpt lat="46.16309" lon="1.83756">
        <ele>612</ele>
        <time>2016-12-04T01:29:09Z</time>
      </trkpt>
      <trkpt lat="46.16309" lon="1.83758">
        <ele>612</ele>
        <time>2016-12-04T01:31:09Z</time>
      </trkpt>
      <trkpt lat="46.1631" lon="1.83759">
        <ele>612</ele>
        <time>2016-12-04T01:33:09Z</time>
      </trkpt>
      <trkpt lat="46.16311" lon="1.8376">
        <ele>611</ele>
        <time>2016-12-04T01:35:09Z</time>
      </trkpt>
      <trkpt lat="46.16311" lon="1.83761">
        <ele>611</ele>
        <time>2016-12-04T01:37:09Z</time>
      </trkpt>
      <trkpt lat="46.16311" lon="1.83763">
        <ele>611</ele>
        <time>2016-12-04T01:39:09Z</time>
      </trkpt>
      <trkpt lat="46.16312" lon="1.83763">
        <ele>611</ele>
        <time>2016-12-04T01:41:09Z</time>
      </trkpt>
      <trkpt lat="46.16311" lon="1.83763">
        <ele>611</ele>
        <time>2016-12-04T01:43:09Z</time>
      </trkpt>
      <trkpt lat="46.1631" lon="1.83762">
        <ele>611</ele>
        <time>2016-12-04T01:45:09Z</time>
      </trkpt>
      <trkpt lat="46.1631" lon="1.8376">
        <ele>612</ele>
        <time>2016-12-04T01:47:09Z</time>
      </trkpt>
      <trkpt lat="46.16309" lon="1.83758">
        <ele>612</ele>
        <time>2016-12-04T01:49:09Z</time>
      </trkpt>
      <trkpt lat="46.16309" lon="1.83756">
        <ele>612</ele>
        <time>2016-12-04T01:51:09Z</time>
      </trkpt>
      <trkpt lat="46.16309" lon="1.83754">
        <ele>613</ele>
        <time>2016-12-04T01:53:09Z</time>
      </trkpt>
      <trkpt lat="46.16309" lon="1.8375">
        <ele>614</ele>
        <time>2016-12-04T01:55:09Z</time>
      </trkpt>
      <trkpt lat="46.16309" lon="1.83748">
        <ele>614</ele>
        <time>2016-12-04T01:57:09Z</time>
      </trkpt>
      <trkpt lat="46.16309" lon="1.83747">
        <ele>614</ele>
        <time>2016-12-04T01:59:09Z</time>
      </trkpt>
      <trkpt lat="46.16309" lon="1.83745">
        <ele>614</ele>
        <time>2016-12-04T02:01:09Z</time>
      </trkpt>
      <trkpt lat="46.1631" lon="1.83744">
        <ele>614</ele>
        <time>2016-12-04T02:03:09Z</time>
      </trkpt>
      <trkpt lat="46.1631" lon="1.83742">
        <ele>615</ele>
        <time>2016-12-04T02:05:09Z</time>
      </trkpt>
      <trkpt lat="46.1631" lon="1.83739">
        <ele>615</ele>
        <time>2016-12-04T02:07:09Z</time>
      </trkpt>
      <trkpt lat="46.1631" lon="1.83739">
        <ele>615</ele>
        <time>2016-12-04T02:09:09Z</time>
      </trkpt>
      <trkpt lat="46.16311" lon="1.83738">
        <ele>615</ele>
        <time>2016-12-04T02:11:09Z</time>
      </trkpt>
      <trkpt lat="46.1631" lon="1.83736">
        <ele>616</ele>
        <time>2016-12-04T02:13:09Z</time>
      </trkpt>
      <trkpt lat="46.1631" lon="1.83735">
        <ele>616</ele>
        <time>2016-12-04T02:15:09Z</time>
      </trkpt>
      <trkpt lat="46.1631" lon="1.83734">
        <ele>616</ele>
        <time>2016-12-04T02:17:09Z</time>
      </trkpt>
      <trkpt lat="46.1631" lon="1.83735">
        <ele>616</ele>
        <time>2016-12-04T02:19:09Z</time>
      </trkpt>
      <trkpt lat="46.16311" lon="1.83734">
        <ele>616</ele>
        <time>2016-12-04T02:21:09Z</time>
      </trkpt>
      <trkpt lat="46.16311" lon="1.83734">
        <ele>616</ele>
        <time>2016-12-04T02:23:09Z</time>
      </trkpt>
      <trkpt lat="46.16311" lon="1.83733">
        <ele>616</ele>
        <time>2016-12-04T02:25:09Z</time>
      </trkpt>
      <trkpt lat="46.16311" lon="1.83733">
        <ele>616</ele>
        <time>2016-12-04T02:27:09Z</time>
      </trkpt>
      <trkpt lat="46.16311" lon="1.83732">
        <ele>616</ele>
        <time>2016-12-04T02:29:09Z</time>
      </trkpt>
      <trkpt lat="46.16312" lon="1.83731">
        <ele>616</ele>
        <time>2016-12-04T02:31:09Z</time>
      </trkpt>
      <trkpt lat="46.16311" lon="1.83731">
        <ele>616</ele>
        <time>2016-12-04T02:33:09Z</time>
      </trkpt>
      <trkpt lat="46.16312" lon="1.8373">
        <ele>616</ele>
        <time>2016-12-04T02:35:09Z</time>
      </trkpt>
      <trkpt lat="46.16312" lon="1.83729">
        <ele>617</ele>
        <time>2016-12-04T02:37:09Z</time>
      </trkpt>
      <trkpt lat="46.16313" lon="1.83727">
        <ele>617</ele>
        <time>2016-12-04T02:39:09Z</time>
      </trkpt>
      <trkpt lat="46.16312" lon="1.83727">
        <ele>617</ele>
        <time>2016-12-04T02:41:09Z</time>
      </trkpt>
      <trkpt lat="46.16313" lon="1.83726">
        <ele>617</ele>
        <time>2016-12-04T02:43:09Z</time>
      </trkpt>
      <trkpt lat="46.16313" lon="1.83726">
        <ele>617</ele>
        <time>2016-12-04T02:45:09Z</time>
      </trkpt>
      <trkpt lat="46.16313" lon="1.83724">
        <ele>617</ele>
        <time>2016-12-04T02:47:09Z</time>
      </trkpt>
      <trkpt lat="46.16313" lon="1.83724">
        <ele>617</ele>
        <time>2016-12-04T02:49:09Z</time>
      </trkpt>
      <trkpt lat="46.16313" lon="1.83721">
        <ele>618</ele>
        <time>2016-12-04T02:51:09Z</time>
      </trkpt>
      <trkpt lat="46.16313" lon="1.8372">
        <ele>618</ele>
        <time>2016-12-04T02:53:09Z</time>
      </trkpt>
      <trkpt lat="46.16313" lon="1.83717">
        <ele>618</ele>
        <time>2016-12-04T02:55:09Z</time>
      </trkpt>
      <trkpt lat="46.16313" lon="1.83715">
        <ele>619</ele>
        <time>2016-12-04T02:57:09Z</time>
      </trkpt>
      <trkpt lat="46.16313" lon="1.83712">
        <ele>619</ele>
        <time>2016-12-04T02:59:09Z</time>
      </trkpt>
      <trkpt lat="46.16314" lon="1.8371">
        <ele>619</ele>
        <time>2016-12-04T03:01:09Z</time>
      </trkpt>
      <trkpt lat="46.16314" lon="1.83706">
        <ele>620</ele>
        <time>2016-12-04T03:03:09Z</time>
      </trkpt>
      <trkpt lat="46.16315" lon="1.83705">
        <ele>620</ele>
        <time>2016-12-04T03:05:09Z</time>
      </trkpt>
      <trkpt lat="46.16315" lon="1.83703">
        <ele>620</ele>
        <time>2016-12-04T03:07:09Z</time>
      </trkpt>
      <trkpt lat="46.16315" lon="1.83702">
        <ele>620</ele>
        <time>2016-12-04T03:09:09Z</time>
      </trkpt>
      <trkpt lat="46.16315" lon="1.83703">
        <ele>620</ele>
        <time>2016-12-04T03:11:09Z</time>
      </trkpt>
      <trkpt lat="46.16314" lon="1.83702">
        <ele>621</ele>
        <time>2016-12-04T03:13:09Z</time>
      </trkpt>
      <trkpt lat="46.16315" lon="1.83703">
        <ele>620</ele>
        <time>2016-12-04T03:15:09Z</time>
      </trkpt>
      <trkpt lat="46.16314" lon="1.837">
        <ele>621</ele>
        <time>2016-12-04T03:17:09Z</time>
      </trkpt>
      <trkpt lat="46.16314" lon="1.83701">
        <ele>621</ele>
        <time>2016-12-04T03:19:09Z</time>
      </trkpt>
      <trkpt lat="46.16314" lon="1.83701">
        <ele>621</ele>
        <time>2016-12-04T03:21:09Z</time>
      </trkpt>
      <trkpt lat="46.16315" lon="1.83701">
        <ele>621</ele>
        <time>2016-12-04T03:23:09Z</time>
      </trkpt>
      <trkpt lat="46.16315" lon="1.83701">
        <ele>621</ele>
        <time>2016-12-04T03:25:09Z</time>
      </trkpt>
      <trkpt lat="46.16314" lon="1.83701">
        <ele>621</ele>
        <time>2016-12-04T03:27:09Z</time>
      </trkpt>
      <trkpt lat="46.16315" lon="1.83701">
        <ele>621</ele>
        <time>2016-12-04T03:29:09Z</time>
      </trkpt>
      <trkpt lat="46.16315" lon="1.83698">
        <ele>621</ele>
        <time>2016-12-04T03:31:09Z</time>
      </trkpt>
      <trkpt lat="46.16315" lon="1.83699">
        <ele>621</ele>
        <time>2016-12-04T03:33:09Z</time>
      </trkpt>
      <trkpt lat="46.16314" lon="1.83699">
        <ele>621</ele>
        <time>2016-12-04T03:35:09Z</time>
      </trkpt>
      <trkpt lat="46.16314" lon="1.837">
        <ele>621</ele>
        <time>2016-12-04T03:37:09Z</time>
      </trkpt>
      <trkpt lat="46.16313" lon="1.83696">
        <ele>622</ele>
        <time>2016-12-04T03:39:09Z</time>
      </trkpt>
      <trkpt lat="46.16313" lon="1.83695">
        <ele>622</ele>
        <time>2016-12-04T03:41:09Z</time>
      </trkpt>
      <trkpt lat="46.16313" lon="1.83695">
        <ele>622</ele>
        <time>2016-12-04T03:43:09Z</time>
      </trkpt>
      <trkpt lat="46.16312" lon="1.83694">
        <ele>622</ele>
        <time>2016-12-04T03:45:09Z</time>
      </trkpt>
      <trkpt lat="46.16312" lon="1.83694">
        <ele>622</ele>
        <time>2016-12-04T03:47:09Z</time>
      </trkpt>
      <trkpt lat="46.16313" lon="1.83694">
        <ele>622</ele>
        <time>2016-12-04T03:49:09Z</time>
      </trkpt>
      <trkpt lat="46.16312" lon="1.83692">
        <ele>622</ele>
        <time>2016-12-04T03:51:09Z</time>
      </trkpt>
      <trkpt lat="46.16313" lon="1.83691">
        <ele>622</ele>
        <time>2016-12-04T03:53:09Z</time>
      </trkpt>
      <trkpt lat="46.16314" lon="1.8369">
        <ele>622</ele>
        <time>2016-12-04T03:55:09Z</time>
      </trkpt>
      <trkpt lat="46.16313" lon="1.83688">
        <ele>623</ele>
        <time>2016-12-04T03:57:09Z</time>
      </trkpt>
      <trkpt lat="46.16315" lon="1.83686">
        <ele>623</ele>
        <time>2016-12-04T03:59:09Z</time>
      </trkpt>
      <trkpt lat="46.16315" lon="1.83684">
        <ele>623</ele>
        <time>2016-12-04T04:01:09Z</time>
      </trkpt>
      <trkpt lat="46.16315" lon="1.83684">
        <ele>623</ele>
        <time>2016-12-04T04:03:09Z</time>
      </trkpt>
      <trkpt lat="46.16316" lon="1.83682">
        <ele>623</ele>
        <time>2016-12-04T04:05:09Z</time>
      </trkpt>
      <trkpt lat="46.16315" lon="1.83683">
        <ele>623</ele>
        <time>2016-12-04T04:07:09Z</time>
      </trkpt>
      <trkpt lat="46.16316" lon="1.83682">
        <ele>623</ele>
        <time>2016-12-04T04:09:09Z</time>
      </trkpt>
      <trkpt lat="46.16316" lon="1.83682">
        <ele>623</ele>
        <time>2016-12-04T04:11:09Z</time>
      </trkpt>
      <trkpt lat="46.16317" lon="1.8368">
        <ele>624</ele>
        <time>2016-12-04T04:13:09Z</time>
      </trkpt>
      <trkpt lat="46.16318" lon="1.83678">
        <ele>624</ele>
        <time>2016-12-04T04:15:09Z</time>
      </trkpt>
      <trkpt lat="46.16318" lon="1.83677">
        <ele>624</ele>
        <time>2016-12-04T04:17:09Z</time>
      </trkpt>
      <trkpt lat="46.16318" lon="1.83676">
        <ele>624</ele>
        <time>2016-12-04T04:19:09Z</time>
      </trkpt>
      <trkpt lat="46.16318" lon="1.83674">
        <ele>624</ele>
        <time>2016-12-04T04:21:09Z</time>
      </trkpt>
      <trkpt lat="46.16319" lon="1.83672">
        <ele>624</ele>
        <time>2016-12-04T04:23:09Z</time>
      </trkpt>
      <trkpt lat="46.16321" lon="1.83671">
        <ele>624</ele>
        <time>2016-12-04T04:25:09Z</time>
      </trkpt>
      <trkpt lat="46.16321" lon="1.83671">
        <ele>624</ele>
        <time>2016-12-04T04:27:09Z</time>
      </trkpt>
      <trkpt lat="46.16322" lon="1.8367">
        <ele>624</ele>
        <time>2016-12-04T04:29:09Z</time>
      </trkpt>
      <trkpt lat="46.16322" lon="1.83669">
        <ele>624</ele>
        <time>2016-12-04T04:31:09Z</time>
      </trkpt>
      <trkpt lat="46.16324" lon="1.83665">
        <ele>625</ele>
        <time>2016-12-04T04:33:09Z</time>
      </trkpt>
      <trkpt lat="46.16324" lon="1.83665">
        <ele>625</ele>
        <time>2016-12-04T04:35:09Z</time>
      </trkpt>
      <trkpt lat="46.16326" lon="1.83663">
        <ele>625</ele>
        <time>2016-12-04T04:37:09Z</time>
      </trkpt>
      <trkpt lat="46.16326" lon="1.8366">
        <ele>625</ele>
        <time>2016-12-04T04:39:09Z</time>
      </trkpt>
      <trkpt lat="46.16327" lon="1.83657">
        <ele>625</ele>
        <time>2016-12-04T04:41:09Z</time>
      </trkpt>
      <trkpt lat="46.16327" lon="1.83657">
        <ele>625</ele>
        <time>2016-12-04T04:43:09Z</time>
      </trkpt>
      <trkpt lat="46.16327" lon="1.83657">
        <ele>625</ele>
        <time>2016-12-04T04:45:09Z</time>
      </trkpt>
      <trkpt lat="46.16328" lon="1.83657">
        <ele>625</ele>
        <time>2016-12-04T04:47:09Z</time>
      </trkpt>
      <trkpt lat="46.16328" lon="1.83656">
        <ele>625</ele>
        <time>2016-12-04T04:49:09Z</time>
      </trkpt>
      <trkpt lat="46.16328" lon="1.83657">
        <ele>625</ele>
        <time>2016-12-04T04:51:09Z</time>
      </trkpt>
      <trkpt lat="46.16327" lon="1.83654">
        <ele>625</ele>
        <time>2016-12-04T04:53:09Z</time>
      </trkpt>
      <trkpt lat="46.16327" lon="1.83654">
        <ele>625</ele>
        <time>2016-12-04T04:55:09Z</time>
      </trkpt>
      <trkpt lat="46.16326" lon="1.83653">
        <ele>626</ele>
        <time>2016-12-04T04:57:09Z</time>
      </trkpt>
      <trkpt lat="46.16325" lon="1.83652">
        <ele>626</ele>
        <time>2016-12-04T04:59:09Z</time>
      </trkpt>
      <trkpt lat="46.16323" lon="1.83653">
        <ele>626</ele>
        <time>2016-12-04T05:01:09Z</time>
      </trkpt>
      <trkpt lat="46.16322" lon="1.83653">
        <ele>626</ele>
        <time>2016-12-04T05:03:09Z</time>
      </trkpt>
      <trkpt lat="46.1632" lon="1.83654">
        <ele>626</ele>
        <time>2016-12-04T05:05:09Z</time>
      </trkpt>
      <trkpt lat="46.16318" lon="1.83656">
        <ele>627</ele>
        <time>2016-12-04T05:07:09Z</time>
      </trkpt>
      <trkpt lat="46.16318" lon="1.83656">
        <ele>627</ele>
        <time>2016-12-04T05:09:09Z</time>
      </trkpt>
      <trkpt lat="46.16318" lon="1.83656">
        <ele>627</ele>
        <time>2016-12-04T05:11:09Z</time>
      </trkpt>
      <trkpt lat="46.16316" lon="1.83655">
        <ele>627</ele>
        <time>2016-12-04T05:13:09Z</time>
      </trkpt>
      <trkpt lat="46.16316" lon="1.83656">
        <ele>627</ele>
        <time>2016-12-04T05:15:09Z</time>
      </trkpt>
      <trkpt lat="46.16316" lon="1.83655">
        <ele>627</ele>
        <time>2016-12-04T05:17:09Z</time>
      </trkpt>
      <trkpt lat="46.16316" lon="1.83655">
        <ele>627</ele>
        <time>2016-12-04T05:19:09Z</time>
      </trkpt>
      <trkpt lat="46.16315" lon="1.83655">
        <ele>627</ele>
        <time>2016-12-04T05:21:09Z</time>
      </trkpt>
      <trkpt lat="46.16316" lon="1.83654">
        <ele>627</ele>
        <time>2016-12-04T05:23:09Z</time>
      </trkpt>
      <trkpt lat="46.16316" lon="1.83655">
        <ele>627</ele>
        <time>2016-12-04T05:25:09Z</time>
      </trkpt>
      <trkpt lat="46.16315" lon="1.83654">
        <ele>627</ele>
        <time>2016-12-04T05:27:09Z</time>
      </trkpt>
      <trkpt lat="46.16316" lon="1.83654">
        <ele>627</ele>
        <time>2016-12-04T05:29:09Z</time>
      </trkpt>
      <trkpt lat="46.16316" lon="1.83654">
        <ele>627</ele>
        <time>2016-12-04T05:31:09Z</time>
      </trkpt>
      <trkpt lat="46.16316" lon="1.83654">
        <ele>627</ele>
        <time>2016-12-04T05:33:09Z</time>
      </trkpt>
      <trkpt lat="46.16316" lon="1.83654">
        <ele>627</ele>
        <time>2016-12-04T05:35:09Z</time>
      </trkpt>
      <trkpt lat="46.16316" lon="1.83654">
        <ele>627</ele>
        <time>2016-12-04T05:37:09Z</time>
      </trkpt>
      <trkpt lat="46.16316" lon="1.83654">
        <ele>627</ele>
        <time>2016-12-04T05:39:09Z</time>
      </trkpt>
      <trkpt lat="46.16317" lon="1.83654">
        <ele>627</ele>
        <time>2016-12-04T05:41:09Z</time>
      </trkpt>
      <trkpt lat="46.16317" lon="1.83654">
        <ele>627</ele>
        <time>2016-12-04T05:43:09Z</time>
      </trkpt>
      <trkpt lat="46.16316" lon="1.83654">
        <ele>627</ele>
        <time>2016-12-04T05:45:09Z</time>
      </trkpt>
      <trkpt lat="46.16317" lon="1.83654">
        <ele>627</ele>
        <time>2016-12-04T05:47:09Z</time>
      </trkpt>
      <trkpt lat="46.16317" lon="1.83654">
        <ele>627</ele>
        <time>2016-12-04T05:49:09Z</time>
      </trkpt>
      <trkpt lat="46.16315" lon="1.8365">
        <ele>628</ele>
        <time>2016-12-04T05:51:09Z</time>
      </trkpt>
      <trkpt lat="46.16315" lon="1.8365">
        <ele>628</ele>
        <time>2016-12-04T05:53:09Z</time>
      </trkpt>
      <trkpt lat="46.16312" lon="1.83648">
        <ele>628</ele>
        <time>2016-12-04T05:55:09Z</time>
      </trkpt>
      <trkpt lat="46.1631" lon="1.8365">
        <ele>629</ele>
        <time>2016-12-04T05:57:09Z</time>
      </trkpt>
      <trkpt lat="46.16309" lon="1.8365">
        <ele>629</ele>
        <time>2016-12-04T05:59:09Z</time>
      </trkpt>
      <trkpt lat="46.1631" lon="1.83651">
        <ele>628</ele>
        <time>2016-12-04T06:01:09Z</time>
      </trkpt>
      <trkpt lat="46.1631" lon="1.83652">
        <ele>628</ele>
        <time>2016-12-04T06:03:09Z</time>
      </trkpt>
      <trkpt lat="46.1631" lon="1.83653">
        <ele>628</ele>
        <time>2016-12-04T06:05:09Z</time>
      </trkpt>
      <trkpt lat="46.1631" lon="1.83655">
        <ele>628</ele>
        <time>2016-12-04T06:07:09Z</time>
      </trkpt>
      <trkpt lat="46.16309" lon="1.83656">
        <ele>628</ele>
        <time>2016-12-04T06:09:09Z</time>
      </trkpt>
      <trkpt lat="46.16308" lon="1.83656">
        <ele>628</ele>
        <time>2016-12-04T06:11:09Z</time>
      </trkpt>
      <trkpt lat="46.16307" lon="1.83656">
        <ele>628</ele>
        <time>2016-12-04T06:13:09Z</time>
      </trkpt>
      <trkpt lat="46.16307" lon="1.83656">
        <ele>628</ele>
        <time>2016-12-04T06:15:09Z</time>
      </trkpt>
      <trkpt lat="46.16307" lon="1.83655">
        <ele>628</ele>
        <time>2016-12-04T06:17:09Z</time>
      </trkpt>
      <trkpt lat="46.16306" lon="1.83656">
        <ele>628</ele>
        <time>2016-12-04T06:19:09Z</time>
      </trkpt>
      <trkpt lat="46.16306" lon="1.83656">
        <ele>628</ele>
        <time>2016-12-04T06:21:09Z</time>
      </trkpt>
      <trkpt lat="46.16306" lon="1.83657">
        <ele>628</ele>
        <time>2016-12-04T06:23:09Z</time>
      </trkpt>
      <trkpt lat="46.16306" lon="1.83656">
        <ele>628</ele>
        <time>2016-12-04T06:25:09Z</time>
      </trkpt>
      <trkpt lat="46.16306" lon="1.83656">
        <ele>628</ele>
        <time>2016-12-04T06:27:09Z</time>
      </trkpt>
      <trkpt lat="46.16306" lon="1.83657">
        <ele>628</ele>
        <time>2016-12-04T06:29:09Z</time>
      </trkpt>
      <trkpt lat="46.16306" lon="1.83657">
        <ele>628</ele>
        <time>2016-12-04T06:31:09Z</time>
      </trkpt>
      <trkpt lat="46.16305" lon="1.83658">
        <ele>628</ele>
        <time>2016-12-04T06:33:09Z</time>
      </trkpt>
      <trkpt lat="46.16305" lon="1.83658">
        <ele>628</ele>
        <time>2016-12-04T06:35:09Z</time>
      </trkpt>
      <trkpt lat="46.16304" lon="1.83658">
        <ele>629</ele>
        <time>2016-12-04T06:37:09Z</time>
      </trkpt>
      <trkpt lat="46.16305" lon="1.83659">
        <ele>628</ele>
        <time>2016-12-04T06:39:09Z</time>
      </trkpt>
      <trkpt lat="46.16304" lon="1.83658">
        <ele>629</ele>
        <time>2016-12-04T06:41:09Z</time>
      </trkpt>
      <trkpt lat="46.16304" lon="1.83657">
        <ele>629</ele>
        <time>2016-12-04T06:43:09Z</time>
      </trkpt>
      <trkpt lat="46.16303" lon="1.83658">
        <ele>629</ele>
        <time>2016-12-04T06:45:09Z</time>
      </trkpt>
      <trkpt lat="46.16303" lon="1.83659">
        <ele>629</ele>
        <time>2016-12-04T06:47:09Z</time>
      </trkpt>
      <trkpt lat="46.16303" lon="1.83658">
        <ele>629</ele>
        <time>2016-12-04T06:49:09Z</time>
      </trkpt>
      <trkpt lat="46.16302" lon="1.83659">
        <ele>629</ele>
        <time>2016-12-04T06:51:09Z</time>
      </trkpt>
      <trkpt lat="46.16302" lon="1.83659">
        <ele>629</ele>
        <time>2016-12-04T06:53:09Z</time>
      </trkpt>
      <trkpt lat="46.16302" lon="1.83659">
        <ele>629</ele>
        <time>2016-12-04T06:55:09Z</time>
      </trkpt>
      <trkpt lat="46.16301" lon="1.83659">
        <ele>629</ele>
        <time>2016-12-04T06:57:09Z</time>
      </trkpt>
      <trkpt lat="46.163" lon="1.83659">
        <ele>629</ele>
        <time>2016-12-04T06:59:09Z</time>
      </trkpt>
      <trkpt lat="46.163" lon="1.83658">
        <ele>629</ele>
        <time>2016-12-04T07:01:09Z</time>
      </trkpt>
      <trkpt lat="46.163" lon="1.83659">
        <ele>629</ele>
        <time>2016-12-04T07:03:09Z</time>
      </trkpt>
      <trkpt lat="46.163" lon="1.83659">
        <ele>629</ele>
        <time>2016-12-04T07:05:09Z</time>
      </trkpt>
      <trkpt lat="46.163" lon="1.83659">
        <ele>629</ele>
        <time>2016-12-04T07:07:09Z</time>
      </trkpt>
      <trkpt lat="46.16298" lon="1.83658">
        <ele>630</ele>
        <time>2016-12-04T07:09:09Z</time>
      </trkpt>
      <trkpt lat="46.16298" lon="1.83657">
        <ele>630</ele>
        <time>2016-12-04T07:11:09Z</time>
      </trkpt>
      <trkpt lat="46.16297" lon="1.83656">
        <ele>630</ele>
        <time>2016-12-04T07:13:09Z</time>
      </trkpt>
      <trkpt lat="46.16296" lon="1.83656">
        <ele>630</ele>
        <time>2016-12-04T07:15:09Z</time>
      </trkpt>
      <trkpt lat="46.16296" lon="1.83655">
        <ele>630</ele>
        <time>2016-12-04T07:17:09Z</time>
      </trkpt>
      <trkpt lat="46.16295" lon="1.83654">
        <ele>630</ele>
        <time>2016-12-04T07:19:09Z</time>
      </trkpt>
      <trkpt lat="46.16295" lon="1.83653">
        <ele>631</ele>
        <time>2016-12-04T07:21:09Z</time>
      </trkpt>
      <trkpt lat="46.16295" lon="1.83653">
        <ele>631</ele>
        <time>2016-12-04T07:23:09Z</time>
      </trkpt>
      <trkpt lat="46.16291" lon="1.83647">
        <ele>632</ele>
        <time>2016-12-04T07:25:09Z</time>
      </trkpt>
      <trkpt lat="46.16291" lon="1.83645">
        <ele>632</ele>
        <time>2016-12-04T07:27:09Z</time>
      </trkpt>
      <trkpt lat="46.1629" lon="1.83643">
        <ele>633</ele>
        <time>2016-12-04T07:29:09Z</time>
      </trkpt>
      <trkpt lat="46.16289" lon="1.83639">
        <ele>633</ele>
        <time>2016-12-04T07:31:09Z</time>
      </trkpt>
      <trkpt lat="46.16287" lon="1.83635">
        <ele>634</ele>
        <time>2016-12-04T07:33:09Z</time>
      </trkpt>
      <trkpt lat="46.16286" lon="1.83633">
        <ele>634</ele>
        <time>2016-12-04T07:35:09Z</time>
      </trkpt>
      <trkpt lat="46.16285" lon="1.83632">
        <ele>635</ele>
        <time>2016-12-04T07:37:09Z</time>
      </trkpt>
      <trkpt lat="46.16285" lon="1.83631">
        <ele>635</ele>
        <time>2016-12-04T07:39:09Z</time>
      </trkpt>
      <trkpt lat="46.16284" lon="1.83628">
        <ele>635</ele>
        <time>2016-12-04T07:41:09Z</time>
      </trkpt>
      <trkpt lat="46.16285" lon="1.83628">
        <ele>635</ele>
        <time>2016-12-04T07:43:09Z</time>
      </trkpt>
      <trkpt lat="46.16284" lon="1.83628">
        <ele>635</ele>
        <time>2016-12-04T07:45:09Z</time>
      </trkpt>
      <trkpt lat="46.16284" lon="1.83626">
        <ele>636</ele>
        <time>2016-12-04T07:47:09Z</time>
      </trkpt>
      <trkpt lat="46.16284" lon="1.83626">
        <ele>636</ele>
        <time>2016-12-04T07:49:09Z</time>
      </trkpt>
      <trkpt lat="46.16285" lon="1.83626">
        <ele>635</ele>
        <time>2016-12-04T07:51:09Z</time>
      </trkpt>
      <trkpt lat="46.16284" lon="1.83626">
        <ele>636</ele>
        <time>2016-12-04T07:53:09Z</time>
      </trkpt>
      <trkpt lat="46.16284" lon="1.83625">
        <ele>636</ele>
        <time>2016-12-04T07:55:09Z</time>
      </trkpt>
      <trkpt lat="46.16284" lon="1.83626">
        <ele>636</ele>
        <time>2016-12-04T07:57:09Z</time>
      </trkpt>
      <trkpt lat="46.16284" lon="1.83626">
        <ele>636</ele>
        <time>2016-12-04T07:59:09Z</time>
      </trkpt>
      <trkpt lat="46.16284" lon="1.83624">
        <ele>636</ele>
        <time>2016-12-04T08:01:09Z</time>
      </trkpt>
      <trkpt lat="46.16284" lon="1.83624">
        <ele>636</ele>
        <time>2016-12-04T08:03:09Z</time>
      </trkpt>
      <trkpt lat="46.16284" lon="1.83627">
        <ele>636</ele>
        <time>2016-12-04T08:05:09Z</time>
      </trkpt>
      <trkpt lat="46.16284" lon="1.83626">
        <ele>636</ele>
        <time>2016-12-04T08:07:09Z</time>
      </trkpt>
      <trkpt lat="46.16284" lon="1.83621">
        <ele>636</ele>
        <time>2016-12-04T08:09:09Z</time>
      </trkpt>
      <trkpt lat="46.16285" lon="1.83619">
        <ele>636</ele>
        <time>2016-12-04T08:11:09Z</time>
      </trkpt>
      <trkpt lat="46.16284" lon="1.83619">
        <ele>637</ele>
        <time>2016-12-04T08:13:09Z</time>
      </trkpt>
      <trkpt lat="46.16284" lon="1.8362">
        <ele>636</ele>
        <time>2016-12-04T08:15:09Z</time>
      </trkpt>
      <trkpt lat="46.16285" lon="1.83619">
        <ele>636</ele>
        <time>2016-12-04T08:17:09Z</time>
      </trkpt>
      <trkpt lat="46.16285" lon="1.83617">
        <ele>637</ele>
        <time>2016-12-04T08:19:09Z</time>
      </trkpt>
      <trkpt lat="46.16285" lon="1.83617">
        <ele>637</ele>
        <time>2016-12-04T08:21:09Z</time>
      </trkpt>
      <trkpt lat="46.16285" lon="1.83617">
        <ele>637</ele>
        <time>2016-12-04T08:23:09Z</time>
      </trkpt>
      <trkpt lat="46.16285" lon="1.83616">
        <ele>637</ele>
        <time>2016-12-04T08:25:09Z</time>
      </trkpt>
      <trkpt lat="46.16285" lon="1.83617">
        <ele>637</ele>
        <time>2016-12-04T08:27:09Z</time>
      </trkpt>
      <trkpt lat="46.16284" lon="1.83617">
        <ele>637</ele>
        <time>2016-12-04T08:29:09Z</time>
      </trkpt>
      <trkpt lat="46.16282" lon="1.83614">
        <ele>637</ele>
        <time>2016-12-04T08:31:09Z</time>
      </trkpt>
      <trkpt lat="46.16279" lon="1.83612">
        <ele>638</ele>
        <time>2016-12-04T08:33:09Z</time>
      </trkpt>
      <trkpt lat="46.16276" lon="1.8361">
        <ele>639</ele>
        <time>2016-12-04T08:35:09Z</time>
      </trkpt>
      <trkpt lat="46.16273" lon="1.83609">
        <ele>640</ele>
        <time>2016-12-04T08:37:09Z</time>
      </trkpt>
      <trkpt lat="46.16269" lon="1.83603">
        <ele>641</ele>
        <time>2016-12-04T08:39:09Z</time>
      </trkpt>
      <trkpt lat="46.16269" lon="1.83602">
        <ele>641</ele>
        <time>2016-12-04T08:41:09Z</time>
      </trkpt>
      <trkpt lat="46.16268" lon="1.83601">
        <ele>642</ele>
        <time>2016-12-04T08:43:09Z</time>
      </trkpt>
      <trkpt lat="46.16268" lon="1.83599">
        <ele>642</ele>
        <time>2016-12-04T08:45:09Z</time>
      </trkpt>
      <trkpt lat="46.16268" lon="1.83593">
        <ele>643</ele>
        <time>2016-12-04T08:47:09Z</time>
      </trkpt>
      <trkpt lat="46.1627" lon="1.83592">
        <ele>642</ele>
        <time>2016-12-04T08:49:09Z</time>
      </trkpt>
      <trkpt lat="46.16271" lon="1.8359">
        <ele>642</ele>
        <time>2016-12-04T08:51:09Z</time>
      </trkpt>
      <trkpt lat="46.16271" lon="1.83587">
        <ele>643</ele>
        <time>2016-12-04T08:53:09Z</time>
      </trkpt>
      <trkpt lat="46.16271" lon="1.83586">
        <ele>643</ele>
        <time>2016-12-04T08:55:09Z</time>
      </trkpt>
      <trkpt lat="46.16272" lon="1.83581">
        <ele>643</ele>
        <time>2016-12-04T08:57:09Z</time>
      </trkpt>
      <trkpt lat="46.16272" lon="1.8358">
        <ele>643</ele>
        <time>2016-12-04T08:59:09Z</time>
      </trkpt>
      <trkpt lat="46.16272" lon="1.83577">
        <ele>643</ele>
        <time>2016-12-04T09:01:09Z</time>
      </trkpt>
      <trkpt lat="46.16271" lon="1.83574">
        <ele>644</ele>
        <time>2016-12-04T09:03:09Z</time>
      </trkpt>
      <trkpt lat="46.16269" lon="1.83572">
        <ele>644</ele>
        <time>2016-12-04T09:05:09Z</time>
      </trkpt>
      <trkpt lat="46.16268" lon="1.83571">
        <ele>645</ele>
        <time>2016-12-04T09:07:09Z</time>
      </trkpt>
      <trkpt lat="46.16267" lon="1.83571">
        <ele>645</ele>
        <time>2016-12-04T09:09:09Z</time>
      </trkpt>
      <trkpt lat="46.16266" lon="1.83571">
        <ele>645</ele>
        <time>2016-12-04T09:11:09Z</time>
      </trkpt>
      <trkpt lat="46.16264" lon="1.8357">
        <ele>645</ele>
        <time>2016-12-04T09:13:09Z</time>
      </trkpt>
      <trkpt lat="46.16264" lon="1.8357">
        <ele>645</ele>
        <time>2016-12-04T09:15:09Z</time>
      </trkpt>
      <trkpt lat="46.16264" lon="1.83569">
        <ele>645</ele>
        <time>2016-12-04T09:17:09Z</time>
      </trkpt>
      <trkpt lat="46.16263" lon="1.83569">
        <ele>646</ele>
        <time>2016-12-04T09:19:09Z</time>
      </trkpt>
      <trkpt lat="46.16264" lon="1.83569">
        <ele>645</ele>
        <time>2016-12-04T09:21:09Z</time>
      </trkpt>
      <trkpt lat="46.16261" lon="1.8357">
        <ele>646</ele>
        <time>2016-12-04T09:23:09Z</time>
      </trkpt>
      <trkpt lat="46.16262" lon="1.83567">
        <ele>646</ele>
        <time>2016-12-04T09:25:09Z</time>
      </trkpt>
      <trkpt lat="46.16262" lon="1.83567">
        <ele>646</ele>
        <time>2016-12-04T09:27:09Z</time>
      </trkpt>
      <trkpt lat="46.16262" lon="1.83567">
        <ele>646</ele>
        <time>2016-12-04T09:29:09Z</time>
      </trkpt>
      <trkpt lat="46.16262" lon="1.83567">
        <ele>646</ele>
        <time>2016-12-04T09:31:09Z</time>
      </trkpt>
      <trkpt lat="46.1626" lon="1.83565">
        <ele>646</ele>
        <time>2016-12-04T09:33:09Z</time>
      </trkpt>
      <trkpt lat="46.16259" lon="1.83564">
        <ele>647</ele>
        <time>2016-12-04T09:35:09Z</time>
      </trkpt>
      <trkpt lat="46.16259" lon="1.83564">
        <ele>647</ele>
        <time>2016-12-04T09:37:09Z</time>
      </trkpt>
      <trkpt lat="46.16259" lon="1.83564">
        <ele>647</ele>
        <time>2016-12-04T09:39:09Z</time>
      </trkpt>
      <trkpt lat="46.16258" lon="1.83566">
        <ele>647</ele>
        <time>2016-12-04T09:41:09Z</time>
      </trkpt>
      <trkpt lat="46.1626" lon="1.83564">
        <ele>646</ele>
        <time>2016-12-04T09:43:09Z</time>
      </trkpt>
      <trkpt lat="46.16258" lon="1.83565">
        <ele>647</ele>
        <time>2016-12-04T09:45:09Z</time>
      </trkpt>
      <trkpt lat="46.16258" lon="1.83565">
        <ele>647</ele>
        <time>2016-12-04T09:47:09Z</time>
      </trkpt>
      <trkpt lat="46.16258" lon="1.83564">
        <ele>647</ele>
        <time>2016-12-04T09:49:09Z</time>
      </trkpt>
      <trkpt lat="46.16259" lon="1.83564">
        <ele>647</ele>
        <time>2016-12-04T09:51:09Z</time>
      </trkpt>
      <trkpt lat="46.16258" lon="1.83565">
        <ele>647</ele>
        <time>2016-12-04T09:53:09Z</time>
      </trkpt>
      <trkpt lat="46.16258" lon="1.83564">
        <ele>647</ele>
        <time>2016-12-04T09:55:09Z</time>
      </trkpt>
      <trkpt lat="46.16257" lon="1.83564">
        <ele>647</ele>
        <time>2016-12-04T09:57:09Z</time>
      </trkpt>
      <trkpt lat="46.16258" lon="1.83565">
        <ele>647</ele>
        <time>2016-12-04T09:59:09Z</time>
      </trkpt>
      <trkpt lat="46.16258" lon="1.83564">
        <ele>647</ele>
        <time>2016-12-04T10:01:09Z</time>
      </trkpt>
      <trkpt lat="46.16258" lon="1.83565">
        <ele>647</ele>
        <time>2016-12-04T10:03:09Z</time>
      </trkpt>
      <trkpt lat="46.16258" lon="1.83565">
        <ele>647</ele>
        <time>2016-12-04T10:05:09Z</time>
      </trkpt>
      <trkpt lat="46.16257" lon="1.83564">
        <ele>647</ele>
        <time>2016-12-04T10:07:09Z</time>
      </trkpt>
      <trkpt lat="46.16257" lon="1.83562">
        <ele>647</ele>
        <time>2016-12-04T10:09:09Z</time>
      </trkpt>
      <trkpt lat="46.16257" lon="1.83561">
        <ele>647</ele>
        <time>2016-12-04T10:11:09Z</time>
      </trkpt>
      <trkpt lat="46.1626" lon="1.83557">
        <ele>647</ele>
        <time>2016-12-04T10:13:09Z</time>
      </trkpt>
      <trkpt lat="46.16261" lon="1.83555">
        <ele>647</ele>
        <time>2016-12-04T10:15:09Z</time>
      </trkpt>
      <trkpt lat="46.16266" lon="1.83549">
        <ele>646</ele>
        <time>2016-12-04T10:17:09Z</time>
      </trkpt>
      <trkpt lat="46.16267" lon="1.83548">
        <ele>646</ele>
        <time>2016-12-04T10:19:09Z</time>
      </trkpt>
      <trkpt lat="46.16267" lon="1.83548">
        <ele>646</ele>
        <time>2016-12-04T10:21:09Z</time>
      </trkpt>
      <trkpt lat="46.16267" lon="1.83548">
        <ele>646</ele>
        <time>2016-12-04T10:23:09Z</time>
      </trkpt>
      <trkpt lat="46.16265" lon="1.83549">
        <ele>647</ele>
        <time>2016-12-04T10:25:09Z</time>
      </trkpt>
      <trkpt lat="46.16267" lon="1.83547">
        <ele>646</ele>
        <time>2016-12-04T10:27:09Z</time>
      </trkpt>
      <trkpt lat="46.16267" lon="1.83547">
        <ele>646</ele>
        <time>2016-12-04T10:29:09Z</time>
      </trkpt>
      <trkpt lat="46.16269" lon="1.83546">
        <ele>646</ele>
        <time>2016-12-04T10:31:09Z</time>
      </trkpt>
      <trkpt lat="46.16274" lon="1.83541">
        <ele>646</ele>
        <time>2016-12-04T10:33:09Z</time>
      </trkpt>
      <trkpt lat="46.16278" lon="1.83535">
        <ele>645</ele>
        <time>2016-12-04T10:35:09Z</time>
      </trkpt>
      <trkpt lat="46.1628" lon="1.83533">
        <ele>645</ele>
        <time>2016-12-04T10:37:09Z</time>
      </trkpt>
      <trkpt lat="46.16283" lon="1.83529">
        <ele>645</ele>
        <time>2016-12-04T10:39:09Z</time>
      </trkpt>
      <trkpt lat="46.16289" lon="1.83518">
        <ele>645</ele>
        <time>2016-12-04T10:41:09Z</time>
      </trkpt>
      <trkpt lat="46.16289" lon="1.83518">
        <ele>645</ele>
        <time>2016-12-04T10:43:09Z</time>
      </trkpt>
      <trkpt lat="46.16289" lon="1.83519">
        <ele>645</ele>
        <time>2016-12-04T10:45:09Z</time>
      </trkpt>
      <trkpt lat="46.16289" lon="1.83518">
        <ele>645</ele>
        <time>2016-12-04T10:47:09Z</time>
      </trkpt>
      <trkpt lat="46.1629" lon="1.83517">
        <ele>645</ele>
        <time>2016-12-04T10:49:09Z</time>
      </trkpt>
      <trkpt lat="46.16292" lon="1.83514">
        <ele>644</ele>
        <time>2016-12-04T10:51:09Z</time>
      </trkpt>
      <trkpt lat="46.16295" lon="1.8351">
        <ele>644</ele>
        <time>2016-12-04T10:53:09Z</time>
      </trkpt>
      <trkpt lat="46.163" lon="1.83502">
        <ele>644</ele>
        <time>2016-12-04T10:55:09Z</time>
      </trkpt>
      <trkpt lat="46.16302" lon="1.835">
        <ele>644</ele>
        <time>2016-12-04T10:57:09Z</time>
      </trkpt>
      <trkpt lat="46.16303" lon="1.83499">
        <ele>644</ele>
        <time>2016-12-04T10:59:09Z</time>
      </trkpt>
      <trkpt lat="46.16303" lon="1.83498">
        <ele>644</ele>
        <time>2016-12-04T11:01:09Z</time>
      </trkpt>
      <trkpt lat="46.16304" lon="1.83497">
        <ele>644</ele>
        <time>2016-12-04T11:03:09Z</time>
      </trkpt>
      <trkpt lat="46.16306" lon="1.83495">
        <ele>643</ele>
        <time>2016-12-04T11:05:09Z</time>
      </trkpt>
      <trkpt lat="46.16306" lon="1.83496">
        <ele>643</ele>
        <time>2016-12-04T11:07:09Z</time>
      </trkpt>
      <trkpt lat="46.16306" lon="1.83496">
        <ele>643</ele>
        <time>2016-12-04T11:09:09Z</time>
      </trkpt>
      <trkpt lat="46.16306" lon="1.83495">
        <ele>643</ele>
        <time>2016-12-04T11:11:09Z</time>
      </trkpt>
      <trkpt lat="46.16306" lon="1.83495">
        <ele>643</ele>
        <time>2016-12-04T11:13:09Z</time>
      </trkpt>
      <trkpt lat="46.16305" lon="1.83495">
        <ele>644</ele>
        <time>2016-12-04T11:15:09Z</time>
      </trkpt>
      <trkpt lat="46.16305" lon="1.83495">
        <ele>644</ele>
        <time>2016-12-04T11:17:09Z</time>
      </trkpt>
      <trkpt lat="46.16305" lon="1.83495">
        <ele>644</ele>
        <time>2016-12-04T11:19:09Z</time>
      </trkpt>
      <trkpt lat="46.16305" lon="1.83496">
        <ele>644</ele>
        <time>2016-12-04T11:21:09Z</time>
      </trkpt>
      <trkpt lat="46.16308" lon="1.83492">
        <ele>643</ele>
        <time>2016-12-04T11:23:09Z</time>
      </trkpt>
      <trkpt lat="46.16308" lon="1.83491">
        <ele>643</ele>
        <time>2016-12-04T11:25:09Z</time>
      </trkpt>
      <trkpt lat="46.16308" lon="1.83491">
        <ele>643</ele>
        <time>2016-12-04T11:27:09Z</time>
      </trkpt>
      <trkpt lat="46.16308" lon="1.83491">
        <ele>643</ele>
        <time>2016-12-04T11:29:09Z</time>
      </trkpt>
      <trkpt lat="46.16308" lon="1.8349">
        <ele>643</ele>
        <time>2016-12-04T11:31:09Z</time>
      </trkpt>
      <trkpt lat="46.16308" lon="1.83489">
        <ele>643</ele>
        <time>2016-12-04T11:33:09Z</time>
      </trkpt>
      <trkpt lat="46.16309" lon="1.83487">
        <ele>643</ele>
        <time>2016-12-04T11:35:09Z</time>
      </trkpt>
      <trkpt lat="46.16309" lon="1.83488">
        <ele>643</ele>
        <time>2016-12-04T11:37:09Z</time>
      </trkpt>
      <trkpt lat="46.16309" lon="1.83488">
        <ele>643</ele>
        <time>2016-12-04T11:39:09Z</time>
      </trkpt>
      <trkpt lat="46.16308" lon="1.83488">
        <ele>643</ele>
        <time>2016-12-04T11:41:09Z</time>
      </trkpt>
      <trkpt lat="46.16308" lon="1.83488">
        <ele>643</ele>
        <time>2016-12-04T11:43:09Z</time>
      </trkpt>
      <trkpt lat="46.16309" lon="1.83488">
        <ele>643</ele>
        <time>2016-12-04T11:45:09Z</time>
      </trkpt>
      <trkpt lat="46.16309" lon="1.83486">
        <ele>643</ele>
        <time>2016-12-04T11:47:09Z</time>
      </trkpt>
      <trkpt lat="46.16309" lon="1.83488">
        <ele>643</ele>
        <time>2016-12-04T11:49:09Z</time>
      </trkpt>
      <trkpt lat="46.1631" lon="1.83488">
        <ele>643</ele>
        <time>2016-12-04T11:51:09Z</time>
      </trkpt>
      <trkpt lat="46.16306" lon="1.8349">
        <ele>644</ele>
        <time>2016-12-04T11:53:09Z</time>
      </trkpt>
      <trkpt lat="46.16308" lon="1.83491">
        <ele>643</ele>
        <time>2016-12-04T11:55:09Z</time>
      </trkpt>
      <trkpt lat="46.1631" lon="1.83485">
        <ele>643</ele>
        <time>2016-12-04T11:57:09Z</time>
      </trkpt>
      <trkpt lat="46.1631" lon="1.83489">
        <ele>643</ele>
        <time>2016-12-04T11:59:09Z</time>
      </trkpt>
      <trkpt lat="46.16309" lon="1.83487">
        <ele>643</ele>
        <time>2016-12-04T12:01:09Z</time>
      </trkpt>
      <trkpt lat="46.16307" lon="1.83492">
        <ele>643</ele>
        <time>2016-12-04T12:03:09Z</time>
      </trkpt>
      <trkpt lat="46.16309" lon="1.8349">
        <ele>643</ele>
        <time>2016-12-04T12:05:09Z</time>
      </trkpt>
      <trkpt lat="46.16307" lon="1.8349">
        <ele>643</ele>
        <time>2016-12-04T12:07:09Z</time>
      </trkpt>
      <trkpt lat="46.16308" lon="1.83487">
        <ele>643</ele>
        <time>2016-12-04T12:09:09Z</time>
      </trkpt>
      <trkpt lat="46.16309" lon="1.83485">
        <ele>643</ele>
        <time>2016-12-04T12:11:09Z</time>
      </trkpt>
      <trkpt lat="46.16312" lon="1.83479">
        <ele>643</ele>
        <time>2016-12-04T12:13:09Z</time>
      </trkpt>
      <trkpt lat="46.16314" lon="1.83473">
        <ele>643</ele>
        <time>2016-12-04T12:15:09Z</time>
      </trkpt>
      <trkpt lat="46.16318" lon="1.83461">
        <ele>643</ele>
        <time>2016-12-04T12:17:09Z</time>
      </trkpt>
      <trkpt lat="46.16319" lon="1.83457">
        <ele>643</ele>
        <time>2016-12-04T12:19:09Z</time>
      </trkpt>
      <trkpt lat="46.1632" lon="1.83454">
        <ele>643</ele>
        <time>2016-12-04T12:21:09Z</time>
      </trkpt>
      <trkpt lat="46.1632" lon="1.8345">
        <ele>643</ele>
        <time>2016-12-04T12:23:09Z</time>
      </trkpt>
      <trkpt lat="46.1632" lon="1.83446">
        <ele>643</ele>
        <time>2016-12-04T12:25:09Z</time>
      </trkpt>
      <trkpt lat="46.16321" lon="1.83442">
        <ele>643</ele>
        <time>2016-12-04T12:27:09Z</time>
      </trkpt>
      <trkpt lat="46.16319" lon="1.83434">
        <ele>644</ele>
        <time>2016-12-04T12:29:09Z</time>
      </trkpt>
      <trkpt lat="46.16319" lon="1.83429">
        <ele>644</ele>
        <time>2016-12-04T12:31:09Z</time>
      </trkpt>
      <trkpt lat="46.1632" lon="1.83426">
        <ele>644</ele>
        <time>2016-12-04T12:33:09Z</time>
      </trkpt>
      <trkpt lat="46.16321" lon="1.8342">
        <ele>644</ele>
        <time>2016-12-04T12:35:09Z</time>
      </trkpt>
      <trkpt lat="46.16321" lon="1.83416">
        <ele>644</ele>
        <time>2016-12-04T12:37:09Z</time>
      </trkpt>
      <trkpt lat="46.16321" lon="1.83412">
        <ele>644</ele>
        <time>2016-12-04T12:39:09Z</time>
      </trkpt>
      <trkpt lat="46.16321" lon="1.83401">
        <ele>644</ele>
        <time>2016-12-04T12:41:09Z</time>
      </trkpt>
      <trkpt lat="46.16321" lon="1.83398">
        <ele>644</ele>
        <time>2016-12-04T12:43:09Z</time>
      </trkpt>
      <trkpt lat="46.16321" lon="1.83394">
        <ele>644</ele>
        <time>2016-12-04T12:45:09Z</time>
      </trkpt>
      <trkpt lat="46.16321" lon="1.8339">
        <ele>644</ele>
        <time>2016-12-04T12:47:09Z</time>
      </trkpt>
      <trkpt lat="46.16321" lon="1.83386">
        <ele>644</ele>
        <time>2016-12-04T12:49:09Z</time>
      </trkpt>
      <trkpt lat="46.16321" lon="1.83382">
        <ele>644</ele>
        <time>2016-12-04T12:51:09Z</time>
      </trkpt>
      <trkpt lat="46.16321" lon="1.8337">
        <ele>643</ele>
        <time>2016-12-04T12:53:09Z</time>
      </trkpt>
      <trkpt lat="46.16322" lon="1.83366">
        <ele>643</ele>
        <time>2016-12-04T12:55:09Z</time>
      </trkpt>
      <trkpt lat="46.16324" lon="1.83358">
        <ele>643</ele>
        <time>2016-12-04T12:57:09Z</time>
      </trkpt>
      <trkpt lat="46.16324" lon="1.83352">
        <ele>643</ele>
        <time>2016-12-04T12:59:09Z</time>
      </trkpt>
      <trkpt lat="46.16325" lon="1.83347">
        <ele>643</ele>
        <time>2016-12-04T13:01:09Z</time>
      </trkpt>
      <trkpt lat="46.16326" lon="1.83337">
        <ele>643</ele>
        <time>2016-12-04T13:03:09Z</time>
      </trkpt>
      <trkpt lat="46.16326" lon="1.83331">
        <ele>643</ele>
        <time>2016-12-04T13:05:09Z</time>
      </trkpt>
      <trkpt lat="46.16325" lon="1.8332">
        <ele>643</ele>
        <time>2016-12-04T13:07:09Z</time>
      </trkpt>
      <trkpt lat="46.16326" lon="1.83315">
        <ele>643</ele>
        <time>2016-12-04T13:09:09Z</time>
      </trkpt>
      <trkpt lat="46.16327" lon="1.83304">
        <ele>642</ele>
        <time>2016-12-04T13:11:09Z</time>
      </trkpt>
      <trkpt lat="46.16327" lon="1.833">
        <ele>642</ele>
        <time>2016-12-04T13:13:09Z</time>
      </trkpt>
      <trkpt lat="46.16327" lon="1.83293">
        <ele>642</ele>
        <time>2016-12-04T13:15:09Z</time>
      </trkpt>
      <trkpt lat="46.16326" lon="1.83288">
        <ele>643</ele>
        <time>2016-12-04T13:17:09Z</time>
      </trkpt>
      <trkpt lat="46.16325" lon="1.83279">
        <ele>643</ele>
        <time>2016-12-04T13:19:09Z</time>
      </trkpt>
      <trkpt lat="46.16324" lon="1.83263">
        <ele>643</ele>
        <time>2016-12-04T13:21:09Z</time>
      </trkpt>
      <trkpt lat="46.16324" lon="1.8326">
        <ele>643</ele>
        <time>2016-12-04T13:23:09Z</time>
      </trkpt>
      <trkpt lat="46.16324" lon="1.83256">
        <ele>643</ele>
        <time>2016-12-04T13:25:09Z</time>
      </trkpt>
      <trkpt lat="46.16323" lon="1.83247">
        <ele>643</ele>
        <time>2016-12-04T13:27:09Z</time>
      </trkpt>
      <trkpt lat="46.16324" lon="1.83246">
        <ele>643</ele>
        <time>2016-12-04T13:29:09Z</time>
      </trkpt>
      <trkpt lat="46.16323" lon="1.83241">
        <ele>643</ele>
        <time>2016-12-04T13:31:09Z</time>
      </trkpt>
      <trkpt lat="46.16323" lon="1.83237">
        <ele>643</ele>
        <time>2016-12-04T13:33:09Z</time>
      </trkpt>
      <trkpt lat="46.16322" lon="1.83234">
        <ele>643</ele>
        <time>2016-12-04T13:35:09Z</time>
      </trkpt>
      <trkpt lat="46.16322" lon="1.83232">
        <ele>644</ele>
        <time>2016-12-04T13:37:09Z</time>
      </trkpt>
      <trkpt lat="46.16323" lon="1.83227">
        <ele>644</ele>
        <time>2016-12-04T13:39:09Z</time>
      </trkpt>
      <trkpt lat="46.16324" lon="1.83221">
        <ele>644</ele>
        <time>2016-12-04T13:41:09Z</time>
      </trkpt>
      <trkpt lat="46.16326" lon="1.83217">
        <ele>644</ele>
        <time>2016-12-04T13:43:09Z</time>
      </trkpt>
      <trkpt lat="46.16326" lon="1.832">
        <ele>645</ele>
        <time>2016-12-04T13:45:09Z</time>
      </trkpt>
      <trkpt lat="46.16327" lon="1.83197">
        <ele>645</ele>
        <time>2016-12-04T13:47:09Z</time>
      </trkpt>
      <trkpt lat="46.16327" lon="1.83188">
        <ele>645</ele>
        <time>2016-12-04T13:49:09Z</time>
      </trkpt>
      <trkpt lat="46.16327" lon="1.83181">
        <ele>646</ele>
        <time>2016-12-04T13:51:09Z</time>
      </trkpt>
      <trkpt lat="46.16328" lon="1.83178">
        <ele>646</ele>
        <time>2016-12-04T13:53:09Z</time>
      </trkpt>
      <trkpt lat="46.16327" lon="1.83175">
        <ele>646</ele>
        <time>2016-12-04T13:55:09Z</time>
      </trkpt>
      <trkpt lat="46.16327" lon="1.83173">
        <ele>646</ele>
        <time>2016-12-04T13:57:09Z</time>
      </trkpt>
      <trkpt lat="46.16327" lon="1.8317">
        <ele>646</ele>
        <time>2016-12-04T13:59:09Z</time>
      </trkpt>
      <trkpt lat="46.16327" lon="1.83167">
        <ele>646</ele>
        <time>2016-12-04T14:01:09Z</time>
      </trkpt>
      <trkpt lat="46.16326" lon="1.83164">
        <ele>646</ele>
        <time>2016-12-04T14:03:09Z</time>
      </trkpt>
      <trkpt lat="46.16324" lon="1.83155">
        <ele>647</ele>
        <time>2016-12-04T14:05:09Z</time>
      </trkpt>
      <trkpt lat="46.16324" lon="1.83152">
        <ele>647</ele>
        <time>2016-12-04T14:07:09Z</time>
      </trkpt>
      <trkpt lat="46.16324" lon="1.83148">
        <ele>647</ele>
        <time>2016-12-04T14:09:09Z</time>
      </trkpt>
      <trkpt lat="46.16322" lon="1.83138">
        <ele>648</ele>
        <time>2016-12-04T14:11:09Z</time>
      </trkpt>
      <trkpt lat="46.16322" lon="1.83134">
        <ele>648</ele>
        <time>2016-12-04T14:13:09Z</time>
      </trkpt>
      <trkpt lat="46.16322" lon="1.8313">
        <ele>648</ele>
        <time>2016-12-04T14:15:09Z</time>
      </trkpt>
      <trkpt lat="46.16321" lon="1.83126">
        <ele>649</ele>
        <time>2016-12-04T14:17:09Z</time>
      </trkpt>
      <trkpt lat="46.16321" lon="1.83123">
        <ele>649</ele>
        <time>2016-12-04T14:19:09Z</time>
      </trkpt>
      <trkpt lat="46.16321" lon="1.83119">
        <ele>649</ele>
        <time>2016-12-04T14:21:09Z</time>
      </trkpt>
      <trkpt lat="46.16319" lon="1.8311">
        <ele>650</ele>
        <time>2016-12-04T14:23:09Z</time>
      </trkpt>
      <trkpt lat="46.1632" lon="1.83106">
        <ele>650</ele>
        <time>2016-12-04T14:25:09Z</time>
      </trkpt>
      <trkpt lat="46.16319" lon="1.83102">
        <ele>650</ele>
        <time>2016-12-04T14:27:09Z</time>
      </trkpt>
      <trkpt lat="46.16319" lon="1.83094">
        <ele>651</ele>
        <time>2016-12-04T14:29:09Z</time>
      </trkpt>
      <trkpt lat="46.16318" lon="1.8309">
        <ele>651</ele>
        <time>2016-12-04T14:31:09Z</time>
      </trkpt>
      <trkpt lat="46.16317" lon="1.83087">
        <ele>651</ele>
        <time>2016-12-04T14:33:09Z</time>
      </trkpt>
      <trkpt lat="46.16317" lon="1.83085">
        <ele>651</ele>
        <time>2016-12-04T14:35:09Z</time>
      </trkpt>
      <trkpt lat="46.16316" lon="1.83079">
        <ele>652</ele>
        <time>2016-12-04T14:37:09Z</time>
      </trkpt>
      <trkpt lat="46.16316" lon="1.83075">
        <ele>652</ele>
        <time>2016-12-04T14:39:09Z</time>
      </trkpt>
      <trkpt lat="46.16315" lon="1.83071">
        <ele>652</ele>
        <time>2016-12-04T14:41:09Z</time>
      </trkpt>
      <trkpt lat="46.16314" lon="1.83068">
        <ele>652</ele>
        <time>2016-12-04T14:43:09Z</time>
      </trkpt>
      <trkpt lat="46.16312" lon="1.83066">
        <ele>652</ele>
        <time>2016-12-04T14:45:09Z</time>
      </trkpt>
      <trkpt lat="46.1631" lon="1.83063">
        <ele>652</ele>
        <time>2016-12-04T14:47:09Z</time>
      </trkpt>
      <trkpt lat="46.16308" lon="1.83061">
        <ele>652</ele>
        <time>2016-12-04T14:49:09Z</time>
      </trkpt>
      <trkpt lat="46.16306" lon="1.8306">
        <ele>652</ele>
        <time>2016-12-04T14:51:09Z</time>
      </trkpt>
      <trkpt lat="46.16301" lon="1.83059">
        <ele>653</ele>
        <time>2016-12-04T14:53:09Z</time>
      </trkpt>
      <trkpt lat="46.16295" lon="1.83059">
        <ele>653</ele>
        <time>2016-12-04T14:55:09Z</time>
      </trkpt>
      <trkpt lat="46.16293" lon="1.8306">
        <ele>653</ele>
        <time>2016-12-04T14:57:09Z</time>
      </trkpt>
      <trkpt lat="46.16285" lon="1.83059">
        <ele>653</ele>
        <time>2016-12-04T14:59:09Z</time>
      </trkpt>
      <trkpt lat="46.16281" lon="1.83057">
        <ele>653</ele>
        <time>2016-12-04T15:01:09Z</time>
      </trkpt>
      <trkpt lat="46.16276" lon="1.83056">
        <ele>653</ele>
        <time>2016-12-04T15:03:09Z</time>
      </trkpt>
      <trkpt lat="46.16273" lon="1.83056">
        <ele>653</ele>
        <time>2016-12-04T15:05:09Z</time>
      </trkpt>
      <trkpt lat="46.16271" lon="1.83055">
        <ele>654</ele>
        <time>2016-12-04T15:07:09Z</time>
      </trkpt>
      <trkpt lat="46.16269" lon="1.83055">
        <ele>654</ele>
        <time>2016-12-04T15:09:09Z</time>
      </trkpt>
      <trkpt lat="46.16264" lon="1.83053">
        <ele>654</ele>
        <time>2016-12-04T15:11:09Z</time>
      </trkpt>
      <trkpt lat="46.16261" lon="1.83052">
        <ele>654</ele>
        <time>2016-12-04T15:13:09Z</time>
      </trkpt>
      <trkpt lat="46.16259" lon="1.83052">
        <ele>654</ele>
        <time>2016-12-04T15:15:09Z</time>
      </trkpt>
      <trkpt lat="46.16257" lon="1.83052">
        <ele>654</ele>
        <time>2016-12-04T15:17:09Z</time>
      </trkpt>
      <trkpt lat="46.16255" lon="1.83051">
        <ele>654</ele>
        <time>2016-12-04T15:19:09Z</time>
      </trkpt>
      <trkpt lat="46.16252" lon="1.8305">
        <ele>654</ele>
        <time>2016-12-04T15:21:09Z</time>
      </trkpt>
      <trkpt lat="46.16244" lon="1.8305">
        <ele>655</ele>
        <time>2016-12-04T15:23:09Z</time>
      </trkpt>
      <trkpt lat="46.1624" lon="1.8305">
        <ele>655</ele>
        <time>2016-12-04T15:25:09Z</time>
      </trkpt>
      <trkpt lat="46.16234" lon="1.83049">
        <ele>655</ele>
        <time>2016-12-04T15:27:09Z</time>
      </trkpt>
      <trkpt lat="46.16231" lon="1.83047">
        <ele>655</ele>
        <time>2016-12-04T15:29:09Z</time>
      </trkpt>
      <trkpt lat="46.16223" lon="1.83047">
        <ele>656</ele>
        <time>2016-12-04T15:31:09Z</time>
      </trkpt>
      <trkpt lat="46.16213" lon="1.83047">
        <ele>656</ele>
        <time>2016-12-04T15:33:09Z</time>
      </trkpt>
      <trkpt lat="46.16211" lon="1.83048">
        <ele>656</ele>
        <time>2016-12-04T15:35:09Z</time>
      </trkpt>
      <trkpt lat="46.16209" lon="1.83053">
        <ele>657</ele>
        <time>2016-12-04T15:37:09Z</time>
      </trkpt>
      <trkpt lat="46.16209" lon="1.83058">
        <ele>656</ele>
        <time>2016-12-04T15:39:09Z</time>
      </trkpt>
      <trkpt lat="46.16209" lon="1.83064">
        <ele>656</ele>
        <time>2016-12-04T15:41:09Z</time>
      </trkpt>
      <trkpt lat="46.16209" lon="1.83068">
        <ele>656</ele>
        <time>2016-12-04T15:43:09Z</time>
      </trkpt>
      <trkpt lat="46.16208" lon="1.83072">
        <ele>656</ele>
        <time>2016-12-04T15:45:09Z</time>
      </trkpt>
      <trkpt lat="46.16206" lon="1.83082">
        <ele>656</ele>
        <time>2016-12-04T15:47:09Z</time>
      </trkpt>
      <trkpt lat="46.16204" lon="1.83091">
        <ele>656</ele>
        <time>2016-12-04T15:49:09Z</time>
      </trkpt>
      <trkpt lat="46.16203" lon="1.83097">
        <ele>656</ele>
        <time>2016-12-04T15:51:09Z</time>
      </trkpt>
      <trkpt lat="46.16202" lon="1.83099">
        <ele>656</ele>
        <time>2016-12-04T15:53:09Z</time>
      </trkpt>
      <trkpt lat="46.16201" lon="1.83104">
        <ele>656</ele>
        <time>2016-12-04T15:55:09Z</time>
      </trkpt>
      <trkpt lat="46.162" lon="1.8311">
        <ele>656</ele>
        <time>2016-12-04T15:57:09Z</time>
      </trkpt>
      <trkpt lat="46.16199" lon="1.83113">
        <ele>656</ele>
        <time>2016-12-04T15:59:09Z</time>
      </trkpt>
      <trkpt lat="46.16197" lon="1.83116">
        <ele>656</ele>
        <time>2016-12-04T16:01:09Z</time>
      </trkpt>
      <trkpt lat="46.16197" lon="1.83119">
        <ele>656</ele>
        <time>2016-12-04T16:03:09Z</time>
      </trkpt>
      <trkpt lat="46.16197" lon="1.83123">
        <ele>656</ele>
        <time>2016-12-04T16:05:09Z</time>
      </trkpt>
      <trkpt lat="46.16196" lon="1.83126">
        <ele>656</ele>
        <time>2016-12-04T16:07:09Z</time>
      </trkpt>
      <trkpt lat="46.16195" lon="1.8313">
        <ele>656</ele>
        <time>2016-12-04T16:09:09Z</time>
      </trkpt>
      <trkpt lat="46.16191" lon="1.83139">
        <ele>656</ele>
        <time>2016-12-04T16:11:09Z</time>
      </trkpt>
      <trkpt lat="46.1619" lon="1.83141">
        <ele>656</ele>
        <time>2016-12-04T16:13:09Z</time>
      </trkpt>
      <trkpt lat="46.16188" lon="1.83147">
        <ele>656</ele>
        <time>2016-12-04T16:15:09Z</time>
      </trkpt>
      <trkpt lat="46.16186" lon="1.83156">
        <ele>656</ele>
        <time>2016-12-04T16:17:09Z</time>
      </trkpt>
      <trkpt lat="46.16185" lon="1.83159">
        <ele>656</ele>
        <time>2016-12-04T16:19:09Z</time>
      </trkpt>
      <trkpt lat="46.16182" lon="1.8317">
        <ele>656</ele>
        <time>2016-12-04T16:21:09Z</time>
      </trkpt>
      <trkpt lat="46.16178" lon="1.83185">
        <ele>656</ele>
        <time>2016-12-04T16:23:09Z</time>
      </trkpt>
      <trkpt lat="46.16175" lon="1.83188">
        <ele>656</ele>
        <time>2016-12-04T16:25:09Z</time>
      </trkpt>
      <trkpt lat="46.16175" lon="1.83191">
        <ele>656</ele>
        <time>2016-12-04T16:27:09Z</time>
      </trkpt>
      <trkpt lat="46.16171" lon="1.83197">
        <ele>656</ele>
        <time>2016-12-04T16:29:09Z</time>
      </trkpt>
      <trkpt lat="46.16167" lon="1.83206">
        <ele>656</ele>
        <time>2016-12-04T16:31:09Z</time>
      </trkpt>
      <trkpt lat="46.16167" lon="1.83209">
        <ele>656</ele>
        <time>2016-12-04T16:33:09Z</time>
      </trkpt>
      <trkpt lat="46.16167" lon="1.83214">
        <ele>656</ele>
        <time>2016-12-04T16:35:09Z</time>
      </trkpt>
      <trkpt lat="46.16168" lon="1.83218">
        <ele>655</ele>
        <time>2016-12-04T16:37:09Z</time>
      </trkpt>
      <trkpt lat="46.16171" lon="1.83224">
        <ele>655</ele>
        <time>2016-12-04T16:39:09Z</time>
      </trkpt>
      <trkpt lat="46.16172" lon="1.83226">
        <ele>655</ele>
        <time>2016-12-04T16:41:09Z</time>
      </trkpt>
      <trkpt lat="46.16175" lon="1.83234">
        <ele>654</ele>
        <time>2016-12-04T16:43:09Z</time>
      </trkpt>
      <trkpt lat="46.16176" lon="1.83239">
        <ele>654</ele>
        <time>2016-12-04T16:45:09Z</time>
      </trkpt>
      <trkpt lat="46.16174" lon="1.83247">
        <ele>654</ele>
        <time>2016-12-04T16:47:09Z</time>
      </trkpt>
      <trkpt lat="46.16172" lon="1.83251">
        <ele>654</ele>
        <time>2016-12-04T16:49:09Z</time>
      </trkpt>
      <trkpt lat="46.16168" lon="1.83257">
        <ele>654</ele>
        <time>2016-12-04T16:51:09Z</time>
      </trkpt>
      <trkpt lat="46.16165" lon="1.83263">
        <ele>654</ele>
        <time>2016-12-04T16:53:09Z</time>
      </trkpt>
      <trkpt lat="46.1616" lon="1.83271">
        <ele>654</ele>
        <time>2016-12-04T16:55:09Z</time>
      </trkpt>
      <trkpt lat="46.16157" lon="1.83278">
        <ele>654</ele>
        <time>2016-12-04T16:57:09Z</time>
      </trkpt>
      <trkpt lat="46.16155" lon="1.83282">
        <ele>655</ele>
        <time>2016-12-04T16:59:09Z</time>
      </trkpt>
      <trkpt lat="46.16149" lon="1.83295">
        <ele>655</ele>
        <time>2016-12-04T17:01:09Z</time>
      </trkpt>
      <trkpt lat="46.16147" lon="1.83302">
        <ele>655</ele>
        <time>2016-12-04T17:03:09Z</time>
      </trkpt>
      <trkpt lat="46.16145" lon="1.83304">
        <ele>655</ele>
        <time>2016-12-04T17:05:09Z</time>
      </trkpt>
      <trkpt lat="46.16143" lon="1.83307">
        <ele>655</ele>
        <time>2016-12-04T17:07:09Z</time>
      </trkpt>
      <trkpt lat="46.16138" lon="1.8331">
        <ele>656</ele>
        <time>2016-12-04T17:09:09Z</time>
      </trkpt>
      <trkpt lat="46.16135" lon="1.83315">
        <ele>656</ele>
        <time>2016-12-04T17:11:09Z</time>
      </trkpt>
      <trkpt lat="46.16134" lon="1.83318">
        <ele>656</ele>
        <time>2016-12-04T17:13:09Z</time>
      </trkpt>
      <trkpt lat="46.16133" lon="1.83321">
        <ele>656</ele>
        <time>2016-12-04T17:15:09Z</time>
      </trkpt>
      <trkpt lat="46.16134" lon="1.83325">
        <ele>656</ele>
        <time>2016-12-04T17:17:09Z</time>
      </trkpt>
      <trkpt lat="46.16133" lon="1.83332">
        <ele>656</ele>
        <time>2016-12-04T17:19:09Z</time>
      </trkpt>
      <trkpt lat="46.16133" lon="1.83335">
        <ele>656</ele>
        <time>2016-12-04T17:21:09Z</time>
      </trkpt>
      <trkpt lat="46.16131" lon="1.83342">
        <ele>656</ele>
        <time>2016-12-04T17:23:09Z</time>
      </trkpt>
      <trkpt lat="46.1613" lon="1.83345">
        <ele>656</ele>
        <time>2016-12-04T17:25:09Z</time>
      </trkpt>
      <trkpt lat="46.16129" lon="1.83352">
        <ele>656</ele>
        <time>2016-12-04T17:27:09Z</time>
      </trkpt>
      <trkpt lat="46.16127" lon="1.83356">
        <ele>656</ele>
        <time>2016-12-04T17:29:09Z</time>
      </trkpt>
      <trkpt lat="46.16127" lon="1.83359">
        <ele>656</ele>
        <time>2016-12-04T17:31:09Z</time>
      </trkpt>
      <trkpt lat="46.16126" lon="1.83362">
        <ele>656</ele>
        <time>2016-12-04T17:33:09Z</time>
      </trkpt>
      <trkpt lat="46.16122" lon="1.83375">
        <ele>656</ele>
        <time>2016-12-04T17:35:09Z</time>
      </trkpt>
      <trkpt lat="46.16121" lon="1.83383">
        <ele>656</ele>
        <time>2016-12-04T17:37:09Z</time>
      </trkpt>
      <trkpt lat="46.16119" lon="1.83386">
        <ele>656</ele>
        <time>2016-12-04T17:39:09Z</time>
      </trkpt>
      <trkpt lat="46.16119" lon="1.8339">
        <ele>656</ele>
        <time>2016-12-04T17:41:09Z</time>
      </trkpt>
      <trkpt lat="46.16117" lon="1.83393">
        <ele>656</ele>
        <time>2016-12-04T17:43:09Z</time>
      </trkpt>
      <trkpt lat="46.16116" lon="1.83399">
        <ele>656</ele>
        <time>2016-12-04T17:45:09Z</time>
      </trkpt>
      <trkpt lat="46.16115" lon="1.83402">
        <ele>656</ele>
        <time>2016-12-04T17:47:09Z</time>
      </trkpt>
      <trkpt lat="46.16111" lon="1.83409">
        <ele>656</ele>
        <time>2016-12-04T17:49:09Z</time>
      </trkpt>
      <trkpt lat="46.16107" lon="1.83418">
        <ele>657</ele>
        <time>2016-12-04T17:51:09Z</time>
      </trkpt>
      <trkpt lat="46.16103" lon="1.83425">
        <ele>657</ele>
        <time>2016-12-04T17:53:09Z</time>
      </trkpt>
      <trkpt lat="46.16101" lon="1.83428">
        <ele>657</ele>
        <time>2016-12-04T17:55:09Z</time>
      </trkpt>
      <trkpt lat="46.161" lon="1.8343">
        <ele>657</ele>
        <time>2016-12-04T17:57:09Z</time>
      </trkpt>
      <trkpt lat="46.16098" lon="1.83433">
        <ele>657</ele>
        <time>2016-12-04T17:59:09Z</time>
      </trkpt>
      <trkpt lat="46.16097" lon="1.83434">
        <ele>657</ele>
        <time>2016-12-04T18:01:09Z</time>
      </trkpt>
      <trkpt lat="46.16089" lon="1.83443">
        <ele>658</ele>
        <time>2016-12-04T18:03:09Z</time>
      </trkpt>
      <trkpt lat="46.16086" lon="1.83446">
        <ele>658</ele>
        <time>2016-12-04T18:05:09Z</time>
      </trkpt>
      <trkpt lat="46.16084" lon="1.83448">
        <ele>658</ele>
        <time>2016-12-04T18:07:09Z</time>
      </trkpt>
      <trkpt lat="46.16083" lon="1.8345">
        <ele>658</ele>
        <time>2016-12-04T18:09:09Z</time>
      </trkpt>
      <trkpt lat="46.1608" lon="1.83453">
        <ele>659</ele>
        <time>2016-12-04T18:11:09Z</time>
      </trkpt>
      <trkpt lat="46.1608" lon="1.83456">
        <ele>659</ele>
        <time>2016-12-04T18:13:09Z</time>
      </trkpt>
      <trkpt lat="46.16078" lon="1.83458">
        <ele>659</ele>
        <time>2016-12-04T18:15:09Z</time>
      </trkpt>
      <trkpt lat="46.16077" lon="1.8346">
        <ele>659</ele>
        <time>2016-12-04T18:17:09Z</time>
      </trkpt>
      <trkpt lat="46.16071" lon="1.83467">
        <ele>660</ele>
        <time>2016-12-04T18:19:09Z</time>
      </trkpt>
      <trkpt lat="46.16069" lon="1.83469">
        <ele>660</ele>
        <time>2016-12-04T18:21:09Z</time>
      </trkpt>
      <trkpt lat="46.16064" lon="1.83471">
        <ele>660</ele>
        <time>2016-12-04T18:23:09Z</time>
      </trkpt>
      <trkpt lat="46.1606" lon="1.83472">
        <ele>661</ele>
        <time>2016-12-04T18:25:09Z</time>
      </trkpt>
      <trkpt lat="46.16057" lon="1.83474">
        <ele>661</ele>
        <time>2016-12-04T18:27:09Z</time>
      </trkpt>
      <trkpt lat="46.16053" lon="1.83475">
        <ele>661</ele>
        <time>2016-12-04T18:29:09Z</time>
      </trkpt>
      <trkpt lat="46.16051" lon="1.83476">
        <ele>661</ele>
        <time>2016-12-04T18:31:09Z</time>
      </trkpt>
      <trkpt lat="46.16048" lon="1.83478">
        <ele>662</ele>
        <time>2016-12-04T18:33:09Z</time>
      </trkpt>
      <trkpt lat="46.16043" lon="1.8348">
        <ele>662</ele>
        <time>2016-12-04T18:35:09Z</time>
      </trkpt>
      <trkpt lat="46.16037" lon="1.83485">
        <ele>662</ele>
        <time>2016-12-04T18:37:09Z</time>
      </trkpt>
      <trkpt lat="46.16036" lon="1.83487">
        <ele>663</ele>
        <time>2016-12-04T18:39:09Z</time>
      </trkpt>
      <trkpt lat="46.16034" lon="1.8349">
        <ele>663</ele>
        <time>2016-12-04T18:41:09Z</time>
      </trkpt>
      <trkpt lat="46.16033" lon="1.83493">
        <ele>663</ele>
        <time>2016-12-04T18:43:09Z</time>
      </trkpt>
      <trkpt lat="46.1603" lon="1.83498">
        <ele>663</ele>
        <time>2016-12-04T18:45:09Z</time>
      </trkpt>
      <trkpt lat="46.16029" lon="1.83506">
        <ele>663</ele>
        <time>2016-12-04T18:47:09Z</time>
      </trkpt>
      <trkpt lat="46.16027" lon="1.83508">
        <ele>663</ele>
        <time>2016-12-04T18:49:09Z</time>
      </trkpt>
      <trkpt lat="46.16027" lon="1.83512">
        <ele>663</ele>
        <time>2016-12-04T18:51:09Z</time>
      </trkpt>
      <trkpt lat="46.16026" lon="1.83516">
        <ele>663</ele>
        <time>2016-12-04T18:53:09Z</time>
      </trkpt>
      <trkpt lat="46.16025" lon="1.83519">
        <ele>662</ele>
        <time>2016-12-04T18:55:09Z</time>
      </trkpt>
      <trkpt lat="46.16024" lon="1.83524">
        <ele>662</ele>
        <time>2016-12-04T18:57:09Z</time>
      </trkpt>
      <trkpt lat="46.16022" lon="1.83527">
        <ele>662</ele>
        <time>2016-12-04T18:59:09Z</time>
      </trkpt>
      <trkpt lat="46.16022" lon="1.83531">
        <ele>662</ele>
        <time>2016-12-04T19:01:09Z</time>
      </trkpt>
      <trkpt lat="46.1602" lon="1.83536">
        <ele>662</ele>
        <time>2016-12-04T19:03:09Z</time>
      </trkpt>
      <trkpt lat="46.16017" lon="1.83541">
        <ele>662</ele>
        <time>2016-12-04T19:05:09Z</time>
      </trkpt>
      <trkpt lat="46.16016" lon="1.83545">
        <ele>662</ele>
        <time>2016-12-04T19:07:09Z</time>
      </trkpt>
      <trkpt lat="46.16015" lon="1.83547">
        <ele>662</ele>
        <time>2016-12-04T19:09:09Z</time>
      </trkpt>
      <trkpt lat="46.16014" lon="1.83551">
        <ele>662</ele>
        <time>2016-12-04T19:11:09Z</time>
      </trkpt>
      <trkpt lat="46.16013" lon="1.83554">
        <ele>662</ele>
        <time>2016-12-04T19:13:09Z</time>
      </trkpt>
      <trkpt lat="46.16013" lon="1.83557">
        <ele>662</ele>
        <time>2016-12-04T19:15:09Z</time>
      </trkpt>
      <trkpt lat="46.16011" lon="1.83566">
        <ele>661</ele>
        <time>2016-12-04T19:17:09Z</time>
      </trkpt>
      <trkpt lat="46.16008" lon="1.83581">
        <ele>661</ele>
        <time>2016-12-04T19:19:09Z</time>
      </trkpt>
      <trkpt lat="46.16007" lon="1.83587">
        <ele>661</ele>
        <time>2016-12-04T19:21:09Z</time>
      </trkpt>
      <trkpt lat="46.16007" lon="1.83592">
        <ele>660</ele>
        <time>2016-12-04T19:23:09Z</time>
      </trkpt>
      <trkpt lat="46.16005" lon="1.83598">
        <ele>660</ele>
        <time>2016-12-04T19:25:09Z</time>
      </trkpt>
      <trkpt lat="46.16003" lon="1.83606">
        <ele>660</ele>
        <time>2016-12-04T19:27:09Z</time>
      </trkpt>
      <trkpt lat="46.16002" lon="1.83611">
        <ele>660</ele>
        <time>2016-12-04T19:29:09Z</time>
      </trkpt>
      <trkpt lat="46.15999" lon="1.83618">
        <ele>659</ele>
        <time>2016-12-04T19:31:09Z</time>
      </trkpt>
      <trkpt lat="46.15997" lon="1.83621">
        <ele>659</ele>
        <time>2016-12-04T19:33:09Z</time>
      </trkpt>
      <trkpt lat="46.15995" lon="1.83623">
        <ele>660</ele>
        <time>2016-12-04T19:35:09Z</time>
      </trkpt>
      <trkpt lat="46.15993" lon="1.83623">
        <ele>660</ele>
        <time>2016-12-04T19:37:09Z</time>
      </trkpt>
      <trkpt lat="46.15987" lon="1.83625">
        <ele>660</ele>
        <time>2016-12-04T19:39:09Z</time>
      </trkpt>
      <trkpt lat="46.15984" lon="1.83625">
        <ele>660</ele>
        <time>2016-12-04T19:41:09Z</time>
      </trkpt>
      <trkpt lat="46.15982" lon="1.83626">
        <ele>661</ele>
        <time>2016-12-04T19:43:09Z</time>
      </trkpt>
      <trkpt lat="46.15979" lon="1.83625">
        <ele>661</ele>
        <time>2016-12-04T19:45:09Z</time>
      </trkpt>
      <trkpt lat="46.15977" lon="1.83625">
        <ele>661</ele>
        <time>2016-12-04T19:47:09Z</time>
      </trkpt>
      <trkpt lat="46.15972" lon="1.83626">
        <ele>661</ele>
        <time>2016-12-04T19:49:09Z</time>
      </trkpt>
      <trkpt lat="46.1597" lon="1.83626">
        <ele>662</ele>
        <time>2016-12-04T19:51:09Z</time>
      </trkpt>
      <trkpt lat="46.15965" lon="1.83628">
        <ele>662</ele>
        <time>2016-12-04T19:53:09Z</time>
      </trkpt>
      <trkpt lat="46.15963" lon="1.83628">
        <ele>662</ele>
        <time>2016-12-04T19:55:09Z</time>
      </trkpt>
      <trkpt lat="46.1596" lon="1.83628">
        <ele>662</ele>
        <time>2016-12-04T19:57:09Z</time>
      </trkpt>
      <trkpt lat="46.15954" lon="1.83629">
        <ele>663</ele>
        <time>2016-12-04T19:59:09Z</time>
      </trkpt>
      <trkpt lat="46.15948" lon="1.83629">
        <ele>663</ele>
        <time>2016-12-04T20:01:09Z</time>
      </trkpt>
      <trkpt lat="46.15942" lon="1.83627">
        <ele>664</ele>
        <time>2016-12-04T20:03:09Z</time>
      </trkpt>
      <trkpt lat="46.15937" lon="1.83626">
        <ele>665</ele>
        <time>2016-12-04T20:05:09Z</time>
      </trkpt>
      <trkpt lat="46.15934" lon="1.83627">
        <ele>665</ele>
        <time>2016-12-04T20:07:09Z</time>
      </trkpt>
      <trkpt lat="46.15931" lon="1.83625">
        <ele>665</ele>
        <time>2016-12-04T20:09:09Z</time>
      </trkpt>
      <trkpt lat="46.15929" lon="1.83625">
        <ele>665</ele>
        <time>2016-12-04T20:11:09Z</time>
      </trkpt>
      <trkpt lat="46.15923" lon="1.83621">
        <ele>666</ele>
        <time>2016-12-04T20:13:09Z</time>
      </trkpt>
      <trkpt lat="46.15921" lon="1.83619">
        <ele>667</ele>
        <time>2016-12-04T20:15:09Z</time>
      </trkpt>
      <trkpt lat="46.15917" lon="1.83618">
        <ele>667</ele>
        <time>2016-12-04T20:17:09Z</time>
      </trkpt>
      <trkpt lat="46.15914" lon="1.83617">
        <ele>667</ele>
        <time>2016-12-04T20:19:09Z</time>
      </trkpt>
      <trkpt lat="46.15913" lon="1.83615">
        <ele>667</ele>
        <time>2016-12-04T20:21:09Z</time>
      </trkpt>
      <trkpt lat="46.15911" lon="1.83614">
        <ele>668</ele>
        <time>2016-12-04T20:23:09Z</time>
      </trkpt>
      <trkpt lat="46.15909" lon="1.83613">
        <ele>668</ele>
        <time>2016-12-04T20:25:09Z</time>
      </trkpt>
      <trkpt lat="46.15907" lon="1.83612">
        <ele>668</ele>
        <time>2016-12-04T20:27:09Z</time>
      </trkpt>
      <trkpt lat="46.15905" lon="1.83611">
        <ele>668</ele>
        <time>2016-12-04T20:29:09Z</time>
      </trkpt>
      <trkpt lat="46.15901" lon="1.8361">
        <ele>668</ele>
        <time>2016-12-04T20:31:09Z</time>
      </trkpt>
      <trkpt lat="46.15899" lon="1.83609">
        <ele>668</ele>
        <time>2016-12-04T20:33:09Z</time>
      </trkpt>
      <trkpt lat="46.15897" lon="1.83609">
        <ele>668</ele>
        <time>2016-12-04T20:35:09Z</time>
      </trkpt>
      <trkpt lat="46.15895" lon="1.83609">
        <ele>668</ele>
        <time>2016-12-04T20:37:09Z</time>
      </trkpt>
      <trkpt lat="46.1589" lon="1.83611">
        <ele>668</ele>
        <time>2016-12-04T20:39:09Z</time>
      </trkpt>
      <trkpt lat="46.15888" lon="1.83611">
        <ele>668</ele>
        <time>2016-12-04T20:41:09Z</time>
      </trkpt>
      <trkpt lat="46.15882" lon="1.8361">
        <ele>668</ele>
        <time>2016-12-04T20:43:09Z</time>
      </trkpt>
      <trkpt lat="46.1588" lon="1.83611">
        <ele>668</ele>
        <time>2016-12-04T20:45:09Z</time>
      </trkpt>
      <trkpt lat="46.15878" lon="1.83609">
        <ele>669</ele>
        <time>2016-12-04T20:47:09Z</time>
      </trkpt>
      <trkpt lat="46.15874" lon="1.83608">
        <ele>669</ele>
        <time>2016-12-04T20:49:09Z</time>
      </trkpt>
      <trkpt lat="46.15872" lon="1.83609">
        <ele>669</ele>
        <time>2016-12-04T20:51:09Z</time>
      </trkpt>
      <trkpt lat="46.15871" lon="1.8361">
        <ele>669</ele>
        <time>2016-12-04T20:53:09Z</time>
      </trkpt>
      <trkpt lat="46.15869" lon="1.8361">
        <ele>669</ele>
        <time>2016-12-04T20:55:09Z</time>
      </trkpt>
      <trkpt lat="46.15867" lon="1.83611">
        <ele>669</ele>
        <time>2016-12-04T20:57:09Z</time>
      </trkpt>
      <trkpt lat="46.15866" lon="1.83611">
        <ele>669</ele>
        <time>2016-12-04T20:59:09Z</time>
      </trkpt>
      <trkpt lat="46.15863" lon="1.83614">
        <ele>668</ele>
        <time>2016-12-04T21:01:09Z</time>
      </trkpt>
      <trkpt lat="46.15862" lon="1.83614">
        <ele>668</ele>
        <time>2016-12-04T21:03:09Z</time>
      </trkpt>
      <trkpt lat="46.1586" lon="1.83616">
        <ele>668</ele>
        <time>2016-12-04T21:05:09Z</time>
      </trkpt>
      <trkpt lat="46.15858" lon="1.83616">
        <ele>668</ele>
        <time>2016-12-04T21:07:09Z</time>
      </trkpt>
      <trkpt lat="46.15857" lon="1.83617">
        <ele>668</ele>
        <time>2016-12-04T21:09:09Z</time>
      </trkpt>
      <trkpt lat="46.15855" lon="1.83617">
        <ele>668</ele>
        <time>2016-12-04T21:11:09Z</time>
      </trkpt>
      <trkpt lat="46.15854" lon="1.83616">
        <ele>668</ele>
        <time>2016-12-04T21:13:09Z</time>
      </trkpt>
      <trkpt lat="46.1585" lon="1.83613">
        <ele>669</ele>
        <time>2016-12-04T21:15:09Z</time>
      </trkpt>
      <trkpt lat="46.15846" lon="1.83608">
        <ele>669</ele>
        <time>2016-12-04T21:17:09Z</time>
      </trkpt>
      <trkpt lat="46.15846" lon="1.83605">
        <ele>670</ele>
        <time>2016-12-04T21:19:09Z</time>
      </trkpt>
      <trkpt lat="46.15845" lon="1.83602">
        <ele>670</ele>
        <time>2016-12-04T21:21:09Z</time>
      </trkpt>
      <trkpt lat="46.15843" lon="1.83599">
        <ele>670</ele>
        <time>2016-12-04T21:23:09Z</time>
      </trkpt>
      <trkpt lat="46.15842" lon="1.83597">
        <ele>670</ele>
        <time>2016-12-04T21:25:09Z</time>
      </trkpt>
      <trkpt lat="46.1584" lon="1.83595">
        <ele>671</ele>
        <time>2016-12-04T21:27:09Z</time>
      </trkpt>
      <trkpt lat="46.15838" lon="1.83589">
        <ele>671</ele>
        <time>2016-12-04T21:29:09Z</time>
      </trkpt>
      <trkpt lat="46.15836" lon="1.83586">
        <ele>672</ele>
        <time>2016-12-04T21:31:09Z</time>
      </trkpt>
      <trkpt lat="46.15832" lon="1.83577">
        <ele>672</ele>
        <time>2016-12-04T21:33:09Z</time>
      </trkpt>
      <trkpt lat="46.15831" lon="1.83575">
        <ele>672</ele>
        <time>2016-12-04T21:35:09Z</time>
      </trkpt>
      <trkpt lat="46.15829" lon="1.83572">
        <ele>673</ele>
        <time>2016-12-04T21:37:09Z</time>
      </trkpt>
      <trkpt lat="46.15829" lon="1.8357">
        <ele>673</ele>
        <time>2016-12-04T21:39:09Z</time>
      </trkpt>
      <trkpt lat="46.15827" lon="1.83568">
        <ele>673</ele>
        <time>2016-12-04T21:41:09Z</time>
      </trkpt>
      <trkpt lat="46.15824" lon="1.83563">
        <ele>673</ele>
        <time>2016-12-04T21:43:09Z</time>
      </trkpt>
      <trkpt lat="46.15817" lon="1.83555">
        <ele>673</ele>
        <time>2016-12-04T21:45:09Z</time>
      </trkpt>
      <trkpt lat="46.15812" lon="1.83548">
        <ele>674</ele>
        <time>2016-12-04T21:47:09Z</time>
      </trkpt>
      <trkpt lat="46.15811" lon="1.83545">
        <ele>674</ele>
        <time>2016-12-04T21:49:09Z</time>
      </trkpt>
      <trkpt lat="46.15809" lon="1.83543">
        <ele>674</ele>
        <time>2016-12-04T21:51:09Z</time>
      </trkpt>
      <trkpt lat="46.15808" lon="1.83539">
        <ele>674</ele>
        <time>2016-12-04T21:53:09Z</time>
      </trkpt>
      <trkpt lat="46.15807" lon="1.83537">
        <ele>674</ele>
        <time>2016-12-04T21:55:09Z</time>
      </trkpt>
      <trkpt lat="46.15803" lon="1.83533">
        <ele>674</ele>
        <time>2016-12-04T21:57:09Z</time>
      </trkpt>
      <trkpt lat="46.15801" lon="1.83531">
        <ele>674</ele>
        <time>2016-12-04T21:59:09Z</time>
      </trkpt>
      <trkpt lat="46.15799" lon="1.83528">
        <ele>674</ele>
        <time>2016-12-04T22:01:09Z</time>
      </trkpt>
      <trkpt lat="46.15799" lon="1.83526">
        <ele>674</ele>
        <time>2016-12-04T22:03:09Z</time>
      </trkpt>
      <trkpt lat="46.15796" lon="1.83524">
        <ele>674</ele>
        <time>2016-12-04T22:05:09Z</time>
      </trkpt>
      <trkpt lat="46.15791" lon="1.83517">
        <ele>675</ele>
        <time>2016-12-04T22:07:09Z</time>
      </trkpt>
      <trkpt lat="46.1579" lon="1.83513">
        <ele>675</ele>
        <time>2016-12-04T22:09:09Z</time>
      </trkpt>
      <trkpt lat="46.15792" lon="1.83499">
        <ele>675</ele>
        <time>2016-12-04T22:11:09Z</time>
      </trkpt>
      <trkpt lat="46.15794" lon="1.83496">
        <ele>675</ele>
        <time>2016-12-04T22:13:09Z</time>
      </trkpt>
      <trkpt lat="46.15795" lon="1.83494">
        <ele>675</ele>
        <time>2016-12-04T22:15:09Z</time>
      </trkpt>
      <trkpt lat="46.15797" lon="1.83487">
        <ele>675</ele>
        <time>2016-12-04T22:17:09Z</time>
      </trkpt>
      <trkpt lat="46.15798" lon="1.83483">
        <ele>675</ele>
        <time>2016-12-04T22:19:09Z</time>
      </trkpt>
      <trkpt lat="46.15797" lon="1.83479">
        <ele>675</ele>
        <time>2016-12-04T22:21:09Z</time>
      </trkpt>
      <trkpt lat="46.15798" lon="1.83474">
        <ele>675</ele>
        <time>2016-12-04T22:23:09Z</time>
      </trkpt>
      <trkpt lat="46.15797" lon="1.83471">
        <ele>675</ele>
        <time>2016-12-04T22:25:09Z</time>
      </trkpt>
      <trkpt lat="46.15794" lon="1.83468">
        <ele>675</ele>
        <time>2016-12-04T22:27:09Z</time>
      </trkpt>
      <trkpt lat="46.15794" lon="1.83464">
        <ele>675</ele>
        <time>2016-12-04T22:29:09Z</time>
      </trkpt>
      <trkpt lat="46.15794" lon="1.8346">
        <ele>676</ele>
        <time>2016-12-04T22:31:09Z</time>
      </trkpt>
      <trkpt lat="46.15792" lon="1.83453">
        <ele>676</ele>
        <time>2016-12-04T22:33:09Z</time>
      </trkpt>
      <trkpt lat="46.15791" lon="1.8345">
        <ele>676</ele>
        <time>2016-12-04T22:35:09Z</time>
      </trkpt>
      <trkpt lat="46.15793" lon="1.83444">
        <ele>676</ele>
        <time>2016-12-04T22:37:09Z</time>
      </trkpt>
      <trkpt lat="46.15792" lon="1.8344">
        <ele>676</ele>
        <time>2016-12-04T22:39:09Z</time>
      </trkpt>
      <trkpt lat="46.15792" lon="1.83436">
        <ele>676</ele>
        <time>2016-12-04T22:41:09Z</time>
      </trkpt>
      <trkpt lat="46.15793" lon="1.83432">
        <ele>676</ele>
        <time>2016-12-04T22:43:09Z</time>
      </trkpt>
      <trkpt lat="46.15795" lon="1.8343">
        <ele>676</ele>
        <time>2016-12-04T22:45:09Z</time>
      </trkpt>
      <trkpt lat="46.15798" lon="1.83428">
        <ele>676</ele>
        <time>2016-12-04T22:47:09Z</time>
      </trkpt>
      <trkpt lat="46.15799" lon="1.83426">
        <ele>676</ele>
        <time>2016-12-04T22:49:09Z</time>
      </trkpt>
      <trkpt lat="46.15802" lon="1.83425">
        <ele>676</ele>
        <time>2016-12-04T22:51:09Z</time>
      </trkpt>
      <trkpt lat="46.15804" lon="1.83424">
        <ele>676</ele>
        <time>2016-12-04T22:53:09Z</time>
      </trkpt>
      <trkpt lat="46.15807" lon="1.83421">
        <ele>676</ele>
        <time>2016-12-04T22:55:09Z</time>
      </trkpt>
      <trkpt lat="46.15807" lon="1.83418">
        <ele>676</ele>
        <time>2016-12-04T22:57:09Z</time>
      </trkpt>
      <trkpt lat="46.15807" lon="1.83415">
        <ele>676</ele>
        <time>2016-12-04T22:59:09Z</time>
      </trkpt>
      <trkpt lat="46.15806" lon="1.8341">
        <ele>676</ele>
        <time>2016-12-04T23:01:09Z</time>
      </trkpt>
      <trkpt lat="46.15804" lon="1.83407">
        <ele>676</ele>
        <time>2016-12-04T23:03:09Z</time>
      </trkpt>
      <trkpt lat="46.15804" lon="1.83404">
        <ele>676</ele>
        <time>2016-12-04T23:05:09Z</time>
      </trkpt>
      <trkpt lat="46.15801" lon="1.83397">
        <ele>676</ele>
        <time>2016-12-04T23:07:09Z</time>
      </trkpt>
      <trkpt lat="46.15799" lon="1.83395">
        <ele>676</ele>
        <time>2016-12-04T23:09:09Z</time>
      </trkpt>
      <trkpt lat="46.15793" lon="1.83387">
        <ele>675</ele>
        <time>2016-12-04T23:11:09Z</time>
      </trkpt>
      <trkpt lat="46.15792" lon="1.83384">
        <ele>675</ele>
        <time>2016-12-04T23:13:09Z</time>
      </trkpt>
      <trkpt lat="46.1579" lon="1.83382">
        <ele>675</ele>
        <time>2016-12-04T23:15:09Z</time>
      </trkpt>
      <trkpt lat="46.1579" lon="1.83378">
        <ele>675</ele>
        <time>2016-12-04T23:17:09Z</time>
      </trkpt>
      <trkpt lat="46.15788" lon="1.83375">
        <ele>675</ele>
        <time>2016-12-04T23:19:09Z</time>
      </trkpt>
      <trkpt lat="46.15788" lon="1.83371">
        <ele>675</ele>
        <time>2016-12-04T23:21:09Z</time>
      </trkpt>
      <trkpt lat="46.15787" lon="1.83367">
        <ele>674</ele>
        <time>2016-12-04T23:23:09Z</time>
      </trkpt>
      <trkpt lat="46.15785" lon="1.83356">
        <ele>674</ele>
        <time>2016-12-04T23:25:09Z</time>
      </trkpt>
      <trkpt lat="46.15785" lon="1.83353">
        <ele>674</ele>
        <time>2016-12-04T23:27:09Z</time>
      </trkpt>
      <trkpt lat="46.15784" lon="1.83347">
        <ele>674</ele>
        <time>2016-12-04T23:29:09Z</time>
      </trkpt>
      <trkpt lat="46.15784" lon="1.8334">
        <ele>674</ele>
        <time>2016-12-04T23:31:09Z</time>
      </trkpt>
      <trkpt lat="46.15783" lon="1.83337">
        <ele>674</ele>
        <time>2016-12-04T23:33:09Z</time>
      </trkpt>
      <trkpt lat="46.15783" lon="1.83333">
        <ele>673</ele>
        <time>2016-12-04T23:35:09Z</time>
      </trkpt>
      <trkpt lat="46.15783" lon="1.83329">
        <ele>673</ele>
        <time>2016-12-04T23:37:09Z</time>
      </trkpt>
      <trkpt lat="46.15782" lon="1.83326">
        <ele>673</ele>
        <time>2016-12-04T23:39:09Z</time>
      </trkpt>
      <trkpt lat="46.15782" lon="1.83322">
        <ele>673</ele>
        <time>2016-12-04T23:41:09Z</time>
      </trkpt>
      <trkpt lat="46.15781" lon="1.83316">
        <ele>672</ele>
        <time>2016-12-04T23:43:09Z</time>
      </trkpt>
      <trkpt lat="46.1578" lon="1.83313">
        <ele>672</ele>
        <time>2016-12-04T23:45:09Z</time>
      </trkpt>
      <trkpt lat="46.15779" lon="1.83308">
        <ele>672</ele>
        <time>2016-12-04T23:47:09Z</time>
      </trkpt>
      <trkpt lat="46.1578" lon="1.83305">
        <ele>672</ele>
        <time>2016-12-04T23:49:09Z</time>
      </trkpt>
      <trkpt lat="46.15781" lon="1.83302">
        <ele>672</ele>
        <time>2016-12-04T23:51:09Z</time>
      </trkpt>
      <trkpt lat="46.15787" lon="1.83295">
        <ele>672</ele>
        <time>2016-12-04T23:53:09Z</time>
      </trkpt>
      <trkpt lat="46.15797" lon="1.83285">
        <ele>671</ele>
        <time>2016-12-04T23:55:09Z</time>
      </trkpt>
      <trkpt lat="46.15799" lon="1.83279">
        <ele>671</ele>
        <time>2016-12-04T23:57:09Z</time>
      </trkpt>
      <trkpt lat="46.158" lon="1.83272">
        <ele>671</ele>
        <time>2016-12-04T23:59:09Z</time>
      </trkpt>
      <trkpt lat="46.15801" lon="1.83269">
        <ele>671</ele>
        <time>2016-12-05T00:01:09Z</time>
      </trkpt>
      <trkpt lat="46.15801" lon="1.83265">
        <ele>671</ele>
        <time>2016-12-05T00:03:09Z</time>
      </trkpt>
      <trkpt lat="46.15803" lon="1.83262">
        <ele>670</ele>
        <time>2016-12-05T00:05:09Z</time>
      </trkpt>
      <trkpt lat="46.15808" lon="1.83252">
        <ele>670</ele>
        <time>2016-12-05T00:07:09Z</time>
      </trkpt>
      <trkpt lat="46.15811" lon="1.83245">
        <ele>670</ele>
        <time>2016-12-05T00:09:09Z</time>
      </trkpt>
      <trkpt lat="46.15811" lon="1.83241">
        <ele>670</ele>
        <time>2016-12-05T00:11:09Z</time>
      </trkpt>
      <trkpt lat="46.15812" lon="1.83235">
        <ele>669</ele>
        <time>2016-12-05T00:13:09Z</time>
      </trkpt>
      <trkpt lat="46.15813" lon="1.8323">
        <ele>669</ele>
        <time>2016-12-05T00:15:09Z</time>
      </trkpt>
      <trkpt lat="46.15814" lon="1.83227">
        <ele>669</ele>
        <time>2016-12-05T00:17:09Z</time>
      </trkpt>
      <trkpt lat="46.15817" lon="1.83219">
        <ele>668</ele>
        <time>2016-12-05T00:19:09Z</time>
      </trkpt>
      <trkpt lat="46.15817" lon="1.83216">
        <ele>668</ele>
        <time>2016-12-05T00:21:09Z</time>
      </trkpt>
      <trkpt lat="46.15817" lon="1.83211">
        <ele>668</ele>
        <time>2016-12-05T00:23:09Z</time>
      </trkpt>
      <trkpt lat="46.15817" lon="1.83209">
        <ele>668</ele>
        <time>2016-12-05T00:25:09Z</time>
      </trkpt>
      <trkpt lat="46.15817" lon="1.8321">
        <ele>668</ele>
        <time>2016-12-05T00:27:09Z</time>
      </trkpt>
      <trkpt lat="46.15817" lon="1.83209">
        <ele>668</ele>
        <time>2016-12-05T00:29:09Z</time>
      </trkpt>
      <trkpt lat="46.15818" lon="1.83206">
        <ele>668</ele>
        <time>2016-12-05T00:31:09Z</time>
      </trkpt>
      <trkpt lat="46.15817" lon="1.83208">
        <ele>668</ele>
        <time>2016-12-05T00:33:09Z</time>
      </trkpt>
      <trkpt lat="46.15816" lon="1.83209">
        <ele>668</ele>
        <time>2016-12-05T00:35:09Z</time>
      </trkpt>
      <trkpt lat="46.15817" lon="1.8321">
        <ele>668</ele>
        <time>2016-12-05T00:37:09Z</time>
      </trkpt>
      <trkpt lat="46.15814" lon="1.83208">
        <ele>668</ele>
        <time>2016-12-05T00:39:09Z</time>
      </trkpt>
      <trkpt lat="46.15815" lon="1.83208">
        <ele>668</ele>
        <time>2016-12-05T00:41:09Z</time>
      </trkpt>
      <trkpt lat="46.15816" lon="1.83209">
        <ele>668</ele>
        <time>2016-12-05T00:43:09Z</time>
      </trkpt>
      <trkpt lat="46.15816" lon="1.8321">
        <ele>668</ele>
        <time>2016-12-05T00:45:09Z</time>
      </trkpt>
      <trkpt lat="46.15817" lon="1.8321">
        <ele>668</ele>
        <time>2016-12-05T00:47:09Z</time>
      </trkpt>
      <trkpt lat="46.15817" lon="1.83209">
        <ele>668</ele>
        <time>2016-12-05T00:49:09Z</time>
      </trkpt>
      <trkpt lat="46.15816" lon="1.83209">
        <ele>668</ele>
        <time>2016-12-05T00:51:09Z</time>
      </trkpt>
      <trkpt lat="46.15818" lon="1.8321">
        <ele>668</ele>
        <time>2016-12-05T00:53:09Z</time>
      </trkpt>
      <trkpt lat="46.15818" lon="1.83205">
        <ele>668</ele>
        <time>2016-12-05T00:55:09Z</time>
      </trkpt>
      <trkpt lat="46.15816" lon="1.83199">
        <ele>667</ele>
        <time>2016-12-05T00:57:09Z</time>
      </trkpt>
      <trkpt lat="46.15817" lon="1.83198">
        <ele>667</ele>
        <time>2016-12-05T00:59:09Z</time>
      </trkpt>
      <trkpt lat="46.15816" lon="1.83199">
        <ele>667</ele>
        <time>2016-12-05T01:01:09Z</time>
      </trkpt>
      <trkpt lat="46.15817" lon="1.83197">
        <ele>667</ele>
        <time>2016-12-05T01:03:09Z</time>
      </trkpt>
      <trkpt lat="46.15817" lon="1.83197">
        <ele>667</ele>
        <time>2016-12-05T01:05:09Z</time>
      </trkpt>
      <trkpt lat="46.15817" lon="1.83196">
        <ele>667</ele>
        <time>2016-12-05T01:07:09Z</time>
      </trkpt>
      <trkpt lat="46.15817" lon="1.83194">
        <ele>667</ele>
        <time>2016-12-05T01:09:09Z</time>
      </trkpt>
      <trkpt lat="46.15817" lon="1.83192">
        <ele>667</ele>
        <time>2016-12-05T01:11:09Z</time>
      </trkpt>
      <trkpt lat="46.15815" lon="1.8319">
        <ele>667</ele>
        <time>2016-12-05T01:13:09Z</time>
      </trkpt>
      <trkpt lat="46.15813" lon="1.83188">
        <ele>667</ele>
        <time>2016-12-05T01:15:09Z</time>
      </trkpt>
      <trkpt lat="46.1581" lon="1.83187">
        <ele>666</ele>
        <time>2016-12-05T01:17:09Z</time>
      </trkpt>
      <trkpt lat="46.15808" lon="1.83186">
        <ele>666</ele>
        <time>2016-12-05T01:19:09Z</time>
      </trkpt>
      <trkpt lat="46.15802" lon="1.83187">
        <ele>666</ele>
        <time>2016-12-05T01:21:09Z</time>
      </trkpt>
      <trkpt lat="46.15794" lon="1.83186">
        <ele>666</ele>
        <time>2016-12-05T01:23:09Z</time>
      </trkpt>
      <trkpt lat="46.15785" lon="1.83186">
        <ele>666</ele>
        <time>2016-12-05T01:25:09Z</time>
      </trkpt>
      <trkpt lat="46.15784" lon="1.83186">
        <ele>666</ele>
        <time>2016-12-05T01:27:09Z</time>
      </trkpt>
      <trkpt lat="46.15783" lon="1.83184">
        <ele>666</ele>
        <time>2016-12-05T01:29:09Z</time>
      </trkpt>
      <trkpt lat="46.15779" lon="1.83171">
        <ele>666</ele>
        <time>2016-12-05T01:31:09Z</time>
      </trkpt>
      <trkpt lat="46.15777" lon="1.83166">
        <ele>666</ele>
        <time>2016-12-05T01:33:09Z</time>
      </trkpt>
      <trkpt lat="46.15777" lon="1.83165">
        <ele>666</ele>
        <time>2016-12-05T01:35:09Z</time>
      </trkpt>
      <trkpt lat="46.15778" lon="1.83164">
        <ele>666</ele>
        <time>2016-12-05T01:37:09Z</time>
      </trkpt>
      <trkpt lat="46.15778" lon="1.83157">
        <ele>665</ele>
        <time>2016-12-05T01:39:09Z</time>
      </trkpt>
      <trkpt lat="46.15777" lon="1.83151">
        <ele>665</ele>
        <time>2016-12-05T01:41:09Z</time>
      </trkpt>
      <trkpt lat="46.15774" lon="1.83136">
        <ele>665</ele>
        <time>2016-12-05T01:43:09Z</time>
      </trkpt>
      <trkpt lat="46.15774" lon="1.83133">
        <ele>665</ele>
        <time>2016-12-05T01:45:09Z</time>
      </trkpt>
      <trkpt lat="46.15774" lon="1.83133">
        <ele>665</ele>
        <time>2016-12-05T01:47:09Z</time>
      </trkpt>
      <trkpt lat="46.15773" lon="1.83133">
        <ele>665</ele>
        <time>2016-12-05T01:49:09Z</time>
      </trkpt>
      <trkpt lat="46.15773" lon="1.83133">
        <ele>665</ele>
        <time>2016-12-05T01:51:09Z</time>
      </trkpt>
      <trkpt lat="46.15773" lon="1.83133">
        <ele>665</ele>
        <time>2016-12-05T01:53:09Z</time>
      </trkpt>
      <trkpt lat="46.15773" lon="1.83133">
        <ele>665</ele>
        <time>2016-12-05T01:55:09Z</time>
      </trkpt>
      <trkpt lat="46.15772" lon="1.83129">
        <ele>664</ele>
        <time>2016-12-05T01:57:09Z</time>
      </trkpt>
      <trkpt lat="46.15772" lon="1.83129">
        <ele>664</ele>
        <time>2016-12-05T01:59:09Z</time>
      </trkpt>
      <trkpt lat="46.15774" lon="1.8314">
        <ele>665</ele>
        <time>2016-12-05T02:01:09Z</time>
      </trkpt>
      <trkpt lat="46.15774" lon="1.83145">
        <ele>665</ele>
        <time>2016-12-05T02:03:09Z</time>
      </trkpt>
      <trkpt lat="46.15773" lon="1.83148">
        <ele>665</ele>
        <time>2016-12-05T02:05:09Z</time>
      </trkpt>
      <trkpt lat="46.15771" lon="1.8315">
        <ele>665</ele>
        <time>2016-12-05T02:07:09Z</time>
      </trkpt>
      <trkpt lat="46.15769" lon="1.83151">
        <ele>665</ele>
        <time>2016-12-05T02:09:09Z</time>
      </trkpt>
      <trkpt lat="46.15767" lon="1.8315">
        <ele>665</ele>
        <time>2016-12-05T02:11:09Z</time>
      </trkpt>
      <trkpt lat="46.15763" lon="1.83149">
        <ele>665</ele>
        <time>2016-12-05T02:13:09Z</time>
      </trkpt>
      <trkpt lat="46.15762" lon="1.83148">
        <ele>665</ele>
        <time>2016-12-05T02:15:09Z</time>
      </trkpt>
      <trkpt lat="46.1576" lon="1.83147">
        <ele>665</ele>
        <time>2016-12-05T02:17:09Z</time>
      </trkpt>
      <trkpt lat="46.15757" lon="1.83147">
        <ele>665</ele>
        <time>2016-12-05T02:19:09Z</time>
      </trkpt>
      <trkpt lat="46.15751" lon="1.83148">
        <ele>665</ele>
        <time>2016-12-05T02:21:09Z</time>
      </trkpt>
      <trkpt lat="46.15747" lon="1.83149">
        <ele>665</ele>
        <time>2016-12-05T02:23:09Z</time>
      </trkpt>
      <trkpt lat="46.15739" lon="1.83151">
        <ele>665</ele>
        <time>2016-12-05T02:25:09Z</time>
      </trkpt>
      <trkpt lat="46.15736" lon="1.83151">
        <ele>664</ele>
        <time>2016-12-05T02:27:09Z</time>
      </trkpt>
      <trkpt lat="46.15732" lon="1.8315">
        <ele>664</ele>
        <time>2016-12-05T02:29:09Z</time>
      </trkpt>
      <trkpt lat="46.15729" lon="1.8315">
        <ele>664</ele>
        <time>2016-12-05T02:31:09Z</time>
      </trkpt>
      <trkpt lat="46.15727" lon="1.8315">
        <ele>664</ele>
        <time>2016-12-05T02:33:09Z</time>
      </trkpt>
      <trkpt lat="46.15725" lon="1.83152">
        <ele>664</ele>
        <time>2016-12-05T02:35:09Z</time>
      </trkpt>
      <trkpt lat="46.15722" lon="1.83154">
        <ele>664</ele>
        <time>2016-12-05T02:37:09Z</time>
      </trkpt>
      <trkpt lat="46.15721" lon="1.83155">
        <ele>664</ele>
        <time>2016-12-05T02:39:09Z</time>
      </trkpt>
      <trkpt lat="46.15721" lon="1.83154">
        <ele>664</ele>
        <time>2016-12-05T02:41:09Z</time>
      </trkpt>
      <trkpt lat="46.15721" lon="1.83155">
        <ele>664</ele>
        <time>2016-12-05T02:43:09Z</time>
      </trkpt>
      <trkpt lat="46.15722" lon="1.83155">
        <ele>664</ele>
        <time>2016-12-05T02:45:09Z</time>
      </trkpt>
      <trkpt lat="46.15722" lon="1.83155">
        <ele>664</ele>
        <time>2016-12-05T02:47:09Z</time>
      </trkpt>
      <trkpt lat="46.15721" lon="1.83154">
        <ele>664</ele>
        <time>2016-12-05T02:49:09Z</time>
      </trkpt>
      <trkpt lat="46.15721" lon="1.83155">
        <ele>664</ele>
        <time>2016-12-05T02:51:09Z</time>
      </trkpt>
      <trkpt lat="46.1572" lon="1.83156">
        <ele>664</ele>
        <time>2016-12-05T02:53:09Z</time>
      </trkpt>
      <trkpt lat="46.15719" lon="1.8316">
        <ele>664</ele>
        <time>2016-12-05T02:55:09Z</time>
      </trkpt>
      <trkpt lat="46.1572" lon="1.83162">
        <ele>664</ele>
        <time>2016-12-05T02:57:09Z</time>
      </trkpt>
      <trkpt lat="46.1572" lon="1.83169">
        <ele>664</ele>
        <time>2016-12-05T02:59:09Z</time>
      </trkpt>
      <trkpt lat="46.1572" lon="1.83172">
        <ele>664</ele>
        <time>2016-12-05T03:01:09Z</time>
      </trkpt>
      <trkpt lat="46.15719" lon="1.83179">
        <ele>664</ele>
        <time>2016-12-05T03:03:09Z</time>
      </trkpt>
      <trkpt lat="46.15718" lon="1.83182">
        <ele>664</ele>
        <time>2016-12-05T03:05:09Z</time>
      </trkpt>
      <trkpt lat="46.15716" lon="1.83193">
        <ele>664</ele>
        <time>2016-12-05T03:07:09Z</time>
      </trkpt>
      <trkpt lat="46.15716" lon="1.83201">
        <ele>665</ele>
        <time>2016-12-05T03:09:09Z</time>
      </trkpt>
      <trkpt lat="46.15716" lon="1.83204">
        <ele>665</ele>
        <time>2016-12-05T03:11:09Z</time>
      </trkpt>
      <trkpt lat="46.15713" lon="1.83214">
        <ele>665</ele>
        <time>2016-12-05T03:13:09Z</time>
      </trkpt>
      <trkpt lat="46.15709" lon="1.8322">
        <ele>665</ele>
        <time>2016-12-05T03:15:09Z</time>
      </trkpt>
      <trkpt lat="46.15706" lon="1.83224">
        <ele>665</ele>
        <time>2016-12-05T03:17:09Z</time>
      </trkpt>
      <trkpt lat="46.15705" lon="1.83226">
        <ele>665</ele>
        <time>2016-12-05T03:19:09Z</time>
      </trkpt>
      <trkpt lat="46.15695" lon="1.83234">
        <ele>665</ele>
        <time>2016-12-05T03:21:09Z</time>
      </trkpt>
      <trkpt lat="46.1569" lon="1.83236">
        <ele>665</ele>
        <time>2016-12-05T03:23:09Z</time>
      </trkpt>
      <trkpt lat="46.15685" lon="1.83236">
        <ele>664</ele>
        <time>2016-12-05T03:25:09Z</time>
      </trkpt>
      <trkpt lat="46.15683" lon="1.83235">
        <ele>664</ele>
        <time>2016-12-05T03:27:09Z</time>
      </trkpt>
      <trkpt lat="46.15681" lon="1.83234">
        <ele>664</ele>
        <time>2016-12-05T03:29:09Z</time>
      </trkpt>
      <trkpt lat="46.15678" lon="1.83233">
        <ele>664</ele>
        <time>2016-12-05T03:31:09Z</time>
      </trkpt>
      <trkpt lat="46.15676" lon="1.83231">
        <ele>664</ele>
        <time>2016-12-05T03:33:09Z</time>
      </trkpt>
      <trkpt lat="46.1567" lon="1.83229">
        <ele>663</ele>
        <time>2016-12-05T03:35:09Z</time>
      </trkpt>
      <trkpt lat="46.15668" lon="1.83229">
        <ele>663</ele>
        <time>2016-12-05T03:37:09Z</time>
      </trkpt>
      <trkpt lat="46.15666" lon="1.83229">
        <ele>663</ele>
        <time>2016-12-05T03:39:09Z</time>
      </trkpt>
      <trkpt lat="46.15652" lon="1.83227">
        <ele>664</ele>
        <time>2016-12-05T03:41:09Z</time>
      </trkpt>
      <trkpt lat="46.15648" lon="1.83225">
        <ele>664</ele>
        <time>2016-12-05T03:43:09Z</time>
      </trkpt>
      <trkpt lat="46.15645" lon="1.83225">
        <ele>665</ele>
        <time>2016-12-05T03:45:09Z</time>
      </trkpt>
      <trkpt lat="46.15643" lon="1.83225">
        <ele>665</ele>
        <time>2016-12-05T03:47:09Z</time>
      </trkpt>
      <trkpt lat="46.15632" lon="1.83218">
        <ele>665</ele>
        <time>2016-12-05T03:49:09Z</time>
      </trkpt>
      <trkpt lat="46.15629" lon="1.83215">
        <ele>665</ele>
        <time>2016-12-05T03:51:09Z</time>
      </trkpt>
      <trkpt lat="46.15626" lon="1.83214">
        <ele>665</ele>
        <time>2016-12-05T03:53:09Z</time>
      </trkpt>
      <trkpt lat="46.15622" lon="1.83211">
        <ele>666</ele>
        <time>2016-12-05T03:55:09Z</time>
      </trkpt>
      <trkpt lat="46.15616" lon="1.83208">
        <ele>666</ele>
        <time>2016-12-05T03:57:09Z</time>
      </trkpt>
      <trkpt lat="46.15614" lon="1.83207">
        <ele>666</ele>
        <time>2016-12-05T03:59:09Z</time>
      </trkpt>
      <trkpt lat="46.15612" lon="1.83206">
        <ele>666</ele>
        <time>2016-12-05T04:01:09Z</time>
      </trkpt>
      <trkpt lat="46.1561" lon="1.83205">
        <ele>666</ele>
        <time>2016-12-05T04:03:09Z</time>
      </trkpt>
      <trkpt lat="46.15609" lon="1.83205">
        <ele>666</ele>
        <time>2016-12-05T04:05:09Z</time>
      </trkpt>
      <trkpt lat="46.15604" lon="1.83205">
        <ele>667</ele>
        <time>2016-12-05T04:07:09Z</time>
      </trkpt>
      <trkpt lat="46.15598" lon="1.83206">
        <ele>667</ele>
        <time>2016-12-05T04:09:09Z</time>
      </trkpt>
      <trkpt lat="46.15595" lon="1.83206">
        <ele>667</ele>
        <time>2016-12-05T04:11:09Z</time>
      </trkpt>
      <trkpt lat="46.1559" lon="1.83208">
        <ele>668</ele>
        <time>2016-12-05T04:13:09Z</time>
      </trkpt>
      <trkpt lat="46.15584" lon="1.83208">
        <ele>668</ele>
        <time>2016-12-05T04:15:09Z</time>
      </trkpt>
      <trkpt lat="46.15581" lon="1.83208">
        <ele>669</ele>
        <time>2016-12-05T04:17:09Z</time>
      </trkpt>
      <trkpt lat="46.15578" lon="1.83207">
        <ele>669</ele>
        <time>2016-12-05T04:19:09Z</time>
      </trkpt>
      <trkpt lat="46.15576" lon="1.83206">
        <ele>669</ele>
        <time>2016-12-05T04:21:09Z</time>
      </trkpt>
      <trkpt lat="46.15573" lon="1.83205">
        <ele>669</ele>
        <time>2016-12-05T04:23:09Z</time>
      </trkpt>
      <trkpt lat="46.15568" lon="1.83201">
        <ele>669</ele>
        <time>2016-12-05T04:25:09Z</time>
      </trkpt>
      <trkpt lat="46.15565" lon="1.83199">
        <ele>669</ele>
        <time>2016-12-05T04:27:09Z</time>
      </trkpt>
      <trkpt lat="46.1556" lon="1.83197">
        <ele>669</ele>
        <time>2016-12-05T04:29:09Z</time>
      </trkpt>
      <trkpt lat="46.15555" lon="1.83196">
        <ele>670</ele>
        <time>2016-12-05T04:31:09Z</time>
      </trkpt>
      <trkpt lat="46.1555" lon="1.83193">
        <ele>670</ele>
        <time>2016-12-05T04:33:09Z</time>
      </trkpt>
      <trkpt lat="46.15546" lon="1.83188">
        <ele>670</ele>
        <time>2016-12-05T04:35:09Z</time>
      </trkpt>
      <trkpt lat="46.15542" lon="1.83182">
        <ele>670</ele>
        <time>2016-12-05T04:37:09Z</time>
      </trkpt>
      <trkpt lat="46.1554" lon="1.83179">
        <ele>670</ele>
        <time>2016-12-05T04:39:09Z</time>
      </trkpt>
      <trkpt lat="46.15537" lon="1.83174">
        <ele>670</ele>
        <time>2016-12-05T04:41:09Z</time>
      </trkpt>
      <trkpt lat="46.15536" lon="1.83172">
        <ele>670</ele>
        <time>2016-12-05T04:43:09Z</time>
      </trkpt>
      <trkpt lat="46.15536" lon="1.83169">
        <ele>670</ele>
        <time>2016-12-05T04:45:09Z</time>
      </trkpt>
      <trkpt lat="46.15538" lon="1.83167">
        <ele>670</ele>
        <time>2016-12-05T04:47:09Z</time>
      </trkpt>
      <trkpt lat="46.1554" lon="1.83166">
        <ele>670</ele>
        <time>2016-12-05T04:49:09Z</time>
      </trkpt>
      <trkpt lat="46.15543" lon="1.83163">
        <ele>669</ele>
        <time>2016-12-05T04:51:09Z</time>
      </trkpt>
      <trkpt lat="46.15548" lon="1.83161">
        <ele>669</ele>
        <time>2016-12-05T04:53:09Z</time>
      </trkpt>
      <trkpt lat="46.15551" lon="1.8316">
        <ele>668</ele>
        <time>2016-12-05T04:55:09Z</time>
      </trkpt>
      <trkpt lat="46.15552" lon="1.83159">
        <ele>668</ele>
        <time>2016-12-05T04:57:09Z</time>
      </trkpt>
      <trkpt lat="46.15555" lon="1.83154">
        <ele>668</ele>
        <time>2016-12-05T04:59:09Z</time>
      </trkpt>
      <trkpt lat="46.15557" lon="1.83151">
        <ele>668</ele>
        <time>2016-12-05T05:01:09Z</time>
      </trkpt>
      <trkpt lat="46.1556" lon="1.8314">
        <ele>667</ele>
        <time>2016-12-05T05:03:09Z</time>
      </trkpt>
      <trkpt lat="46.15564" lon="1.83132">
        <ele>666</ele>
        <time>2016-12-05T05:05:09Z</time>
      </trkpt>
      <trkpt lat="46.15566" lon="1.8313">
        <ele>666</ele>
        <time>2016-12-05T05:07:09Z</time>
      </trkpt>
      <trkpt lat="46.1557" lon="1.83127">
        <ele>666</ele>
        <time>2016-12-05T05:09:09Z</time>
      </trkpt>
      <trkpt lat="46.15572" lon="1.83125">
        <ele>665</ele>
        <time>2016-12-05T05:11:09Z</time>
      </trkpt>
      <trkpt lat="46.15574" lon="1.83121">
        <ele>665</ele>
        <time>2016-12-05T05:13:09Z</time>
      </trkpt>
      <trkpt lat="46.15574" lon="1.83118">
        <ele>665</ele>
        <time>2016-12-05T05:15:09Z</time>
      </trkpt>
      <trkpt lat="46.15574" lon="1.83114">
        <ele>665</ele>
        <time>2016-12-05T05:17:09Z</time>
      </trkpt>
      <trkpt lat="46.15575" lon="1.83111">
        <ele>665</ele>
        <time>2016-12-05T05:19:09Z</time>
      </trkpt>
      <trkpt lat="46.15576" lon="1.83107">
        <ele>664</ele>
        <time>2016-12-05T05:21:09Z</time>
      </trkpt>
      <trkpt lat="46.15581" lon="1.83099">
        <ele>664</ele>
        <time>2016-12-05T05:23:09Z</time>
      </trkpt>
      <trkpt lat="46.15582" lon="1.83096">
        <ele>664</ele>
        <time>2016-12-05T05:25:09Z</time>
      </trkpt>
      <trkpt lat="46.15582" lon="1.83093">
        <ele>663</ele>
        <time>2016-12-05T05:27:09Z</time>
      </trkpt>
      <trkpt lat="46.1558" lon="1.83082">
        <ele>663</ele>
        <time>2016-12-05T05:29:09Z</time>
      </trkpt>
      <trkpt lat="46.15579" lon="1.83078">
        <ele>663</ele>
        <time>2016-12-05T05:31:09Z</time>
      </trkpt>
      <trkpt lat="46.1558" lon="1.83074">
        <ele>663</ele>
        <time>2016-12-05T05:33:09Z</time>
      </trkpt>
      <trkpt lat="46.1558" lon="1.83071">
        <ele>663</ele>
        <time>2016-12-05T05:35:09Z</time>
      </trkpt>
      <trkpt lat="46.15586" lon="1.83055">
        <ele>662</ele>
        <time>2016-12-05T05:37:09Z</time>
      </trkpt>
      <trkpt lat="46.15587" lon="1.83051">
        <ele>662</ele>
        <time>2016-12-05T05:39:09Z</time>
      </trkpt>
      <trkpt lat="46.15588" lon="1.83046">
        <ele>662</ele>
        <time>2016-12-05T05:41:09Z</time>
      </trkpt>
      <trkpt lat="46.15589" lon="1.83042">
        <ele>662</ele>
        <time>2016-12-05T05:43:09Z</time>
      </trkpt>
      <trkpt lat="46.1559" lon="1.83032">
        <ele>662</ele>
        <time>2016-12-05T05:45:09Z</time>
      </trkpt>
      <trkpt lat="46.1559" lon="1.83013">
        <ele>661</ele>
        <time>2016-12-05T05:47:09Z</time>
      </trkpt>
      <trkpt lat="46.15589" lon="1.83009">
        <ele>661</ele>
        <time>2016-12-05T05:49:09Z</time>
      </trkpt>
      <trkpt lat="46.15586" lon="1.82998">
        <ele>661</ele>
        <time>2016-12-05T05:51:09Z</time>
      </trkpt>
      <trkpt lat="46.15586" lon="1.8299">
        <ele>660</ele>
        <time>2016-12-05T05:53:09Z</time>
      </trkpt>
      <trkpt lat="46.15586" lon="1.82986">
        <ele>660</ele>
        <time>2016-12-05T05:55:09Z</time>
      </trkpt>
      <trkpt lat="46.15588" lon="1.82982">
        <ele>660</ele>
        <time>2016-12-05T05:57:09Z</time>
      </trkpt>
      <trkpt lat="46.1559" lon="1.82977">
        <ele>659</ele>
        <time>2016-12-05T05:59:09Z</time>
      </trkpt>
      <trkpt lat="46.1559" lon="1.82975">
        <ele>659</ele>
        <time>2016-12-05T06:01:09Z</time>
      </trkpt>
      <trkpt lat="46.1559" lon="1.8297">
        <ele>659</ele>
        <time>2016-12-05T06:03:09Z</time>
      </trkpt>
      <trkpt lat="46.15591" lon="1.82966">
        <ele>658</ele>
        <time>2016-12-05T06:05:09Z</time>
      </trkpt>
      <trkpt lat="46.15592" lon="1.82963">
        <ele>658</ele>
        <time>2016-12-05T06:07:09Z</time>
      </trkpt>
      <trkpt lat="46.15595" lon="1.82957">
        <ele>658</ele>
        <time>2016-12-05T06:09:09Z</time>
      </trkpt>
      <trkpt lat="46.15596" lon="1.8295">
        <ele>657</ele>
        <time>2016-12-05T06:11:09Z</time>
      </trkpt>
      <trkpt lat="46.15597" lon="1.82946">
        <ele>657</ele>
        <time>2016-12-05T06:13:09Z</time>
      </trkpt>
      <trkpt lat="46.15599" lon="1.82943">
        <ele>657</ele>
        <time>2016-12-05T06:15:09Z</time>
      </trkpt>
      <trkpt lat="46.15601" lon="1.8294">
        <ele>657</ele>
        <time>2016-12-05T06:17:09Z</time>
      </trkpt>
      <trkpt lat="46.15606" lon="1.82937">
        <ele>657</ele>
        <time>2016-12-05T06:19:09Z</time>
      </trkpt>
      <trkpt lat="46.15608" lon="1.82936">
        <ele>656</ele>
        <time>2016-12-05T06:21:09Z</time>
      </trkpt>
      <trkpt lat="46.15611" lon="1.82934">
        <ele>656</ele>
        <time>2016-12-05T06:23:09Z</time>
      </trkpt>
      <trkpt lat="46.15615" lon="1.82931">
        <ele>656</ele>
        <time>2016-12-05T06:25:09Z</time>
      </trkpt>
      <trkpt lat="46.1562" lon="1.82928">
        <ele>656</ele>
        <time>2016-12-05T06:27:09Z</time>
      </trkpt>
      <trkpt lat="46.15623" lon="1.82928">
        <ele>656</ele>
        <time>2016-12-05T06:29:09Z</time>
      </trkpt>
      <trkpt lat="46.15625" lon="1.82928">
        <ele>656</ele>
        <time>2016-12-05T06:31:09Z</time>
      </trkpt>
      <trkpt lat="46.1563" lon="1.82928">
        <ele>656</ele>
        <time>2016-12-05T06:33:09Z</time>
      </trkpt>
      <trkpt lat="46.15632" lon="1.82926">
        <ele>656</ele>
        <time>2016-12-05T06:35:09Z</time>
      </trkpt>
      <trkpt lat="46.15637" lon="1.82924">
        <ele>656</ele>
        <time>2016-12-05T06:37:09Z</time>
      </trkpt>
      <trkpt lat="46.1564" lon="1.82922">
        <ele>656</ele>
        <time>2016-12-05T06:39:09Z</time>
      </trkpt>
      <trkpt lat="46.15642" lon="1.8292">
        <ele>656</ele>
        <time>2016-12-05T06:41:09Z</time>
      </trkpt>
      <trkpt lat="46.15647" lon="1.82914">
        <ele>656</ele>
        <time>2016-12-05T06:43:09Z</time>
      </trkpt>
      <trkpt lat="46.15649" lon="1.82911">
        <ele>655</ele>
        <time>2016-12-05T06:45:09Z</time>
      </trkpt>
      <trkpt lat="46.1565" lon="1.82908">
        <ele>655</ele>
        <time>2016-12-05T06:47:09Z</time>
      </trkpt>
      <trkpt lat="46.15652" lon="1.82905">
        <ele>655</ele>
        <time>2016-12-05T06:49:09Z</time>
      </trkpt>
      <trkpt lat="46.15652" lon="1.82902">
        <ele>655</ele>
        <time>2016-12-05T06:51:09Z</time>
      </trkpt>
      <trkpt lat="46.15654" lon="1.82897">
        <ele>654</ele>
        <time>2016-12-05T06:53:09Z</time>
      </trkpt>
      <trkpt lat="46.15656" lon="1.82893">
        <ele>654</ele>
        <time>2016-12-05T06:55:09Z</time>
      </trkpt>
      <trkpt lat="46.15658" lon="1.82889">
        <ele>654</ele>
        <time>2016-12-05T06:57:09Z</time>
      </trkpt>
      <trkpt lat="46.1566" lon="1.82885">
        <ele>653</ele>
        <time>2016-12-05T06:59:09Z</time>
      </trkpt>
      <trkpt lat="46.15661" lon="1.82872">
        <ele>652</ele>
        <time>2016-12-05T07:01:09Z</time>
      </trkpt>
      <trkpt lat="46.15662" lon="1.82869">
        <ele>652</ele>
        <time>2016-12-05T07:03:09Z</time>
      </trkpt>
      <trkpt lat="46.15662" lon="1.82863">
        <ele>652</ele>
        <time>2016-12-05T07:05:09Z</time>
      </trkpt>
      <trkpt lat="46.15663" lon="1.8286">
        <ele>651</ele>
        <time>2016-12-05T07:07:09Z</time>
      </trkpt>
      <trkpt lat="46.15666" lon="1.82851">
        <ele>651</ele>
        <time>2016-12-05T07:09:09Z</time>
      </trkpt>
      <trkpt lat="46.15667" lon="1.82849">
        <ele>650</ele>
        <time>2016-12-05T07:11:09Z</time>
      </trkpt>
      <trkpt lat="46.1567" lon="1.82845">
        <ele>650</ele>
        <time>2016-12-05T07:13:09Z</time>
      </trkpt>
      <trkpt lat="46.15672" lon="1.82845">
        <ele>650</ele>
        <time>2016-12-05T07:15:09Z</time>
      </trkpt>
      <trkpt lat="46.15674" lon="1.82844">
        <ele>650</ele>
        <time>2016-12-05T07:17:09Z</time>
      </trkpt>
      <trkpt lat="46.15675" lon="1.82842">
        <ele>649</ele>
        <time>2016-12-05T07:19:09Z</time>
      </trkpt>
      <trkpt lat="46.15677" lon="1.8284">
        <ele>649</ele>
        <time>2016-12-05T07:21:09Z</time>
      </trkpt>
      <trkpt lat="46.15678" lon="1.82838">
        <ele>649</ele>
        <time>2016-12-05T07:23:09Z</time>
      </trkpt>
      <trkpt lat="46.15682" lon="1.82835">
        <ele>648</ele>
        <time>2016-12-05T07:25:09Z</time>
      </trkpt>
      <trkpt lat="46.15685" lon="1.82835">
        <ele>648</ele>
        <time>2016-12-05T07:27:09Z</time>
      </trkpt>
      <trkpt lat="46.15687" lon="1.82834">
        <ele>648</ele>
        <time>2016-12-05T07:29:09Z</time>
      </trkpt>
      <trkpt lat="46.15691" lon="1.82831">
        <ele>648</ele>
        <time>2016-12-05T07:31:09Z</time>
      </trkpt>
      <trkpt lat="46.15695" lon="1.82826">
        <ele>647</ele>
        <time>2016-12-05T07:33:09Z</time>
      </trkpt>
      <trkpt lat="46.15697" lon="1.82824">
        <ele>646</ele>
        <time>2016-12-05T07:35:09Z</time>
      </trkpt>
      <trkpt lat="46.157" lon="1.82822">
        <ele>646</ele>
        <time>2016-12-05T07:37:09Z</time>
      </trkpt>
      <trkpt lat="46.15704" lon="1.82821">
        <ele>646</ele>
        <time>2016-12-05T07:39:09Z</time>
      </trkpt>
      <trkpt lat="46.15709" lon="1.82814">
        <ele>645</ele>
        <time>2016-12-05T07:41:09Z</time>
      </trkpt>
      <trkpt lat="46.15711" lon="1.82812">
        <ele>644</ele>
        <time>2016-12-05T07:43:09Z</time>
      </trkpt>
      <trkpt lat="46.15716" lon="1.82809">
        <ele>644</ele>
        <time>2016-12-05T07:45:09Z</time>
      </trkpt>
      <trkpt lat="46.15719" lon="1.82809">
        <ele>643</ele>
        <time>2016-12-05T07:47:09Z</time>
      </trkpt>
      <trkpt lat="46.15723" lon="1.82809">
        <ele>643</ele>
        <time>2016-12-05T07:49:09Z</time>
      </trkpt>
      <trkpt lat="46.15725" lon="1.82809">
        <ele>643</ele>
        <time>2016-12-05T07:51:09Z</time>
      </trkpt>
      <trkpt lat="46.15729" lon="1.82811">
        <ele>643</ele>
        <time>2016-12-05T07:53:09Z</time>
      </trkpt>
      <trkpt lat="46.15732" lon="1.82812">
        <ele>643</ele>
        <time>2016-12-05T07:55:09Z</time>
      </trkpt>
      <trkpt lat="46.15733" lon="1.82813">
        <ele>643</ele>
        <time>2016-12-05T07:57:09Z</time>
      </trkpt>
      <trkpt lat="46.15744" lon="1.82813">
        <ele>643</ele>
        <time>2016-12-05T07:59:09Z</time>
      </trkpt>
      <trkpt lat="46.15747" lon="1.82814">
        <ele>643</ele>
        <time>2016-12-05T08:01:09Z</time>
      </trkpt>
      <trkpt lat="46.15751" lon="1.82814">
        <ele>643</ele>
        <time>2016-12-05T08:03:09Z</time>
      </trkpt>
      <trkpt lat="46.15754" lon="1.82815">
        <ele>643</ele>
        <time>2016-12-05T08:05:09Z</time>
      </trkpt>
      <trkpt lat="46.15756" lon="1.82815">
        <ele>643</ele>
        <time>2016-12-05T08:07:09Z</time>
      </trkpt>
      <trkpt lat="46.15755" lon="1.82815">
        <ele>643</ele>
        <time>2016-12-05T08:09:09Z</time>
      </trkpt>
      <trkpt lat="46.1576" lon="1.82815">
        <ele>643</ele>
        <time>2016-12-05T08:11:09Z</time>
      </trkpt>
      <trkpt lat="46.15761" lon="1.82815">
        <ele>644</ele>
        <time>2016-12-05T08:13:09Z</time>
      </trkpt>
      <trkpt lat="46.15765" lon="1.82816">
        <ele>644</ele>
        <time>2016-12-05T08:15:09Z</time>
      </trkpt>
      <trkpt lat="46.15767" lon="1.82817">
        <ele>644</ele>
        <time>2016-12-05T08:17:09Z</time>
      </trkpt>
      <trkpt lat="46.15768" lon="1.82817">
        <ele>644</ele>
        <time>2016-12-05T08:19:09Z</time>
      </trkpt>
      <trkpt lat="46.15769" lon="1.82817">
        <ele>644</ele>
        <time>2016-12-05T08:21:09Z</time>
      </trkpt>
      <trkpt lat="46.15772" lon="1.82817">
        <ele>645</ele>
        <time>2016-12-05T08:23:09Z</time>
      </trkpt>
      <trkpt lat="46.15773" lon="1.82817">
        <ele>645</ele>
        <time>2016-12-05T08:25:09Z</time>
      </trkpt>
      <trkpt lat="46.15777" lon="1.82816">
        <ele>645</ele>
        <time>2016-12-05T08:27:09Z</time>
      </trkpt>
      <trkpt lat="46.15779" lon="1.82816">
        <ele>645</ele>
        <time>2016-12-05T08:29:09Z</time>
      </trkpt>
      <trkpt lat="46.15782" lon="1.82818">
        <ele>646</ele>
        <time>2016-12-05T08:31:09Z</time>
      </trkpt>
      <trkpt lat="46.15783" lon="1.82818">
        <ele>646</ele>
        <time>2016-12-05T08:33:09Z</time>
      </trkpt>
      <trkpt lat="46.15787" lon="1.82817">
        <ele>646</ele>
        <time>2016-12-05T08:35:09Z</time>
      </trkpt>
      <trkpt lat="46.15795" lon="1.82819">
        <ele>647</ele>
        <time>2016-12-05T08:37:09Z</time>
      </trkpt>
      <trkpt lat="46.15796" lon="1.8282">
        <ele>647</ele>
        <time>2016-12-05T08:39:09Z</time>
      </trkpt>
      <trkpt lat="46.15799" lon="1.82823">
        <ele>648</ele>
        <time>2016-12-05T08:41:09Z</time>
      </trkpt>
      <trkpt lat="46.15801" lon="1.82823">
        <ele>648</ele>
        <time>2016-12-05T08:43:09Z</time>
      </trkpt>
      <trkpt lat="46.15803" lon="1.82823">
        <ele>648</ele>
        <time>2016-12-05T08:45:09Z</time>
      </trkpt>
      <trkpt lat="46.15804" lon="1.82823">
        <ele>648</ele>
        <time>2016-12-05T08:47:09Z</time>
      </trkpt>
      <trkpt lat="46.15807" lon="1.82824">
        <ele>649</ele>
        <time>2016-12-05T08:49:09Z</time>
      </trkpt>
      <trkpt lat="46.15811" lon="1.82823">
        <ele>649</ele>
        <time>2016-12-05T08:51:09Z</time>
      </trkpt>
      <trkpt lat="46.15819" lon="1.82823">
        <ele>650</ele>
        <time>2016-12-05T08:53:09Z</time>
      </trkpt>
      <trkpt lat="46.15823" lon="1.82824">
        <ele>650</ele>
        <time>2016-12-05T08:55:09Z</time>
      </trkpt>
      <trkpt lat="46.15828" lon="1.82825">
        <ele>651</ele>
        <time>2016-12-05T08:57:09Z</time>
      </trkpt>
      <trkpt lat="46.1583" lon="1.82825">
        <ele>651</ele>
        <time>2016-12-05T08:59:09Z</time>
      </trkpt>
      <trkpt lat="46.15837" lon="1.82826">
        <ele>651</ele>
        <time>2016-12-05T09:01:09Z</time>
      </trkpt>
      <trkpt lat="46.15841" lon="1.82829">
        <ele>652</ele>
        <time>2016-12-05T09:03:09Z</time>
      </trkpt>
      <trkpt lat="46.15846" lon="1.82831">
        <ele>653</ele>
        <time>2016-12-05T09:05:09Z</time>
      </trkpt>
      <trkpt lat="46.15848" lon="1.82831">
        <ele>653</ele>
        <time>2016-12-05T09:07:09Z</time>
      </trkpt>
      <trkpt lat="46.15854" lon="1.82833">
        <ele>653</ele>
        <time>2016-12-05T09:09:09Z</time>
      </trkpt>
      <trkpt lat="46.15856" lon="1.82833">
        <ele>654</ele>
        <time>2016-12-05T09:11:09Z</time>
      </trkpt>
      <trkpt lat="46.15858" lon="1.82833">
        <ele>654</ele>
        <time>2016-12-05T09:13:09Z</time>
      </trkpt>
      <trkpt lat="46.1586" lon="1.82834">
        <ele>654</ele>
        <time>2016-12-05T09:15:09Z</time>
      </trkpt>
      <trkpt lat="46.15861" lon="1.82833">
        <ele>654</ele>
        <time>2016-12-05T09:17:09Z</time>
      </trkpt>
      <trkpt lat="46.15867" lon="1.82834">
        <ele>654</ele>
        <time>2016-12-05T09:19:09Z</time>
      </trkpt>
      <trkpt lat="46.15869" lon="1.82834">
        <ele>655</ele>
        <time>2016-12-05T09:21:09Z</time>
      </trkpt>
      <trkpt lat="46.1587" lon="1.82835">
        <ele>655</ele>
        <time>2016-12-05T09:23:09Z</time>
      </trkpt>
      <trkpt lat="46.15875" lon="1.82835">
        <ele>655</ele>
        <time>2016-12-05T09:25:09Z</time>
      </trkpt>
      <trkpt lat="46.15879" lon="1.82834">
        <ele>655</ele>
        <time>2016-12-05T09:27:09Z</time>
      </trkpt>
      <trkpt lat="46.1588" lon="1.82835">
        <ele>655</ele>
        <time>2016-12-05T09:29:09Z</time>
      </trkpt>
      <trkpt lat="46.15882" lon="1.82834">
        <ele>656</ele>
        <time>2016-12-05T09:31:09Z</time>
      </trkpt>
      <trkpt lat="46.1589" lon="1.82836">
        <ele>656</ele>
        <time>2016-12-05T09:33:09Z</time>
      </trkpt>
      <trkpt lat="46.15892" lon="1.82836">
        <ele>656</ele>
        <time>2016-12-05T09:35:09Z</time>
      </trkpt>
      <trkpt lat="46.15899" lon="1.82837">
        <ele>657</ele>
        <time>2016-12-05T09:37:09Z</time>
      </trkpt>
      <trkpt lat="46.15901" lon="1.82836">
        <ele>657</ele>
        <time>2016-12-05T09:39:09Z</time>
      </trkpt>
      <trkpt lat="46.15904" lon="1.82837">
        <ele>657</ele>
        <time>2016-12-05T09:41:09Z</time>
      </trkpt>
      <trkpt lat="46.1591" lon="1.82839">
        <ele>658</ele>
        <time>2016-12-05T09:43:09Z</time>
      </trkpt>
      <trkpt lat="46.15912" lon="1.82839">
        <ele>658</ele>
        <time>2016-12-05T09:45:09Z</time>
      </trkpt>
      <trkpt lat="46.15917" lon="1.82838">
        <ele>658</ele>
        <time>2016-12-05T09:47:09Z</time>
      </trkpt>
      <trkpt lat="46.15919" lon="1.82839">
        <ele>658</ele>
        <time>2016-12-05T09:49:09Z</time>
      </trkpt>
      <trkpt lat="46.15926" lon="1.82838">
        <ele>658</ele>
        <time>2016-12-05T09:51:09Z</time>
      </trkpt>
      <trkpt lat="46.15929" lon="1.82834">
        <ele>658</ele>
        <time>2016-12-05T09:53:09Z</time>
      </trkpt>
      <trkpt lat="46.15932" lon="1.82824">
        <ele>656</ele>
        <time>2016-12-05T09:55:09Z</time>
      </trkpt>
      <trkpt lat="46.15933" lon="1.8282">
        <ele>656</ele>
        <time>2016-12-05T09:57:09Z</time>
      </trkpt>
      <trkpt lat="46.15935" lon="1.82817">
        <ele>655</ele>
        <time>2016-12-05T09:59:09Z</time>
      </trkpt>
      <trkpt lat="46.15938" lon="1.82811">
        <ele>654</ele>
        <time>2016-12-05T10:01:09Z</time>
      </trkpt>
      <trkpt lat="46.15941" lon="1.82807">
        <ele>654</ele>
        <time>2016-12-05T10:03:09Z</time>
      </trkpt>
      <trkpt lat="46.15944" lon="1.82801">
        <ele>653</ele>
        <time>2016-12-05T10:05:09Z</time>
      </trkpt>
      <trkpt lat="46.15946" lon="1.828">
        <ele>653</ele>
        <time>2016-12-05T10:07:09Z</time>
      </trkpt>
      <trkpt lat="46.15949" lon="1.82798">
        <ele>652</ele>
        <time>2016-12-05T10:09:09Z</time>
      </trkpt>
      <trkpt lat="46.15952" lon="1.82794">
        <ele>652</ele>
        <time>2016-12-05T10:11:09Z</time>
      </trkpt>
      <trkpt lat="46.15956" lon="1.82792">
        <ele>651</ele>
        <time>2016-12-05T10:13:09Z</time>
      </trkpt>
      <trkpt lat="46.15958" lon="1.8279">
        <ele>651</ele>
        <time>2016-12-05T10:15:09Z</time>
      </trkpt>
      <trkpt lat="46.15959" lon="1.82786">
        <ele>651</ele>
        <time>2016-12-05T10:17:09Z</time>
      </trkpt>
      <trkpt lat="46.15962" lon="1.82782">
        <ele>650</ele>
        <time>2016-12-05T10:19:09Z</time>
      </trkpt>
      <trkpt lat="46.15964" lon="1.82778">
        <ele>649</ele>
        <time>2016-12-05T10:21:09Z</time>
      </trkpt>
      <trkpt lat="46.15971" lon="1.82773">
        <ele>649</ele>
        <time>2016-12-05T10:23:09Z</time>
      </trkpt>
      <trkpt lat="46.15976" lon="1.82773">
        <ele>648</ele>
        <time>2016-12-05T10:25:09Z</time>
      </trkpt>
      <trkpt lat="46.15979" lon="1.82773">
        <ele>648</ele>
        <time>2016-12-05T10:27:09Z</time>
      </trkpt>
      <trkpt lat="46.15982" lon="1.82773">
        <ele>648</ele>
        <time>2016-12-05T10:29:09Z</time>
      </trkpt>
      <trkpt lat="46.15985" lon="1.82774">
        <ele>648</ele>
        <time>2016-12-05T10:31:09Z</time>
      </trkpt>
      <trkpt lat="46.15991" lon="1.8278">
        <ele>649</ele>
        <time>2016-12-05T10:33:09Z</time>
      </trkpt>
      <trkpt lat="46.15994" lon="1.82782">
        <ele>649</ele>
        <time>2016-12-05T10:35:09Z</time>
      </trkpt>
      <trkpt lat="46.15997" lon="1.82783">
        <ele>649</ele>
        <time>2016-12-05T10:37:09Z</time>
      </trkpt>
      <trkpt lat="46.16001" lon="1.82784">
        <ele>649</ele>
        <time>2016-12-05T10:39:09Z</time>
      </trkpt>
      <trkpt lat="46.16004" lon="1.82784">
        <ele>649</ele>
        <time>2016-12-05T10:41:09Z</time>
      </trkpt>
      <trkpt lat="46.16007" lon="1.82784">
        <ele>649</ele>
        <time>2016-12-05T10:43:09Z</time>
      </trkpt>
      <trkpt lat="46.16012" lon="1.82781">
        <ele>648</ele>
        <time>2016-12-05T10:45:09Z</time>
      </trkpt>
      <trkpt lat="46.16014" lon="1.82779">
        <ele>648</ele>
        <time>2016-12-05T10:47:09Z</time>
      </trkpt>
      <trkpt lat="46.16017" lon="1.82777">
        <ele>647</ele>
        <time>2016-12-05T10:49:09Z</time>
      </trkpt>
      <trkpt lat="46.16022" lon="1.82777">
        <ele>647</ele>
        <time>2016-12-05T10:51:09Z</time>
      </trkpt>
      <trkpt lat="46.16028" lon="1.82781">
        <ele>647</ele>
        <time>2016-12-05T10:53:09Z</time>
      </trkpt>
      <trkpt lat="46.16029" lon="1.82783">
        <ele>647</ele>
        <time>2016-12-05T10:55:09Z</time>
      </trkpt>
      <trkpt lat="46.16031" lon="1.82784">
        <ele>647</ele>
        <time>2016-12-05T10:57:09Z</time>
      </trkpt>
      <trkpt lat="46.16032" lon="1.82786">
        <ele>648</ele>
        <time>2016-12-05T10:59:09Z</time>
      </trkpt>
      <trkpt lat="46.16034" lon="1.82789">
        <ele>648</ele>
        <time>2016-12-05T11:01:09Z</time>
      </trkpt>
      <trkpt lat="46.16036" lon="1.82791">
        <ele>648</ele>
        <time>2016-12-05T11:03:09Z</time>
      </trkpt>
      <trkpt lat="46.16039" lon="1.82792">
        <ele>648</ele>
        <time>2016-12-05T11:05:09Z</time>
      </trkpt>
      <trkpt lat="46.16041" lon="1.82796">
        <ele>648</ele>
        <time>2016-12-05T11:07:09Z</time>
      </trkpt>
      <trkpt lat="46.16043" lon="1.82796">
        <ele>648</ele>
        <time>2016-12-05T11:09:09Z</time>
      </trkpt>
      <trkpt lat="46.16046" lon="1.82796">
        <ele>648</ele>
        <time>2016-12-05T11:11:09Z</time>
      </trkpt>
      <trkpt lat="46.1605" lon="1.82797">
        <ele>647</ele>
        <time>2016-12-05T11:13:09Z</time>
      </trkpt>
      <trkpt lat="46.16052" lon="1.82797">
        <ele>647</ele>
        <time>2016-12-05T11:15:09Z</time>
      </trkpt>
      <trkpt lat="46.16055" lon="1.82797">
        <ele>647</ele>
        <time>2016-12-05T11:17:09Z</time>
      </trkpt>
      <trkpt lat="46.16058" lon="1.82796">
        <ele>647</ele>
        <time>2016-12-05T11:19:09Z</time>
      </trkpt>
      <trkpt lat="46.16061" lon="1.82796">
        <ele>647</ele>
        <time>2016-12-05T11:21:09Z</time>
      </trkpt>
      <trkpt lat="46.16066" lon="1.82795">
        <ele>646</ele>
        <time>2016-12-05T11:23:09Z</time>
      </trkpt>
      <trkpt lat="46.16069" lon="1.82797">
        <ele>646</ele>
        <time>2016-12-05T11:25:09Z</time>
      </trkpt>
      <trkpt lat="46.16077" lon="1.82801">
        <ele>646</ele>
        <time>2016-12-05T11:27:09Z</time>
      </trkpt>
      <trkpt lat="46.16081" lon="1.82801">
        <ele>646</ele>
        <time>2016-12-05T11:29:09Z</time>
      </trkpt>
      <trkpt lat="46.16084" lon="1.82803">
        <ele>646</ele>
        <time>2016-12-05T11:31:09Z</time>
      </trkpt>
      <trkpt lat="46.16086" lon="1.82803">
        <ele>646</ele>
        <time>2016-12-05T11:33:09Z</time>
      </trkpt>
      <trkpt lat="46.16091" lon="1.82801">
        <ele>646</ele>
        <time>2016-12-05T11:35:09Z</time>
      </trkpt>
      <trkpt lat="46.16097" lon="1.82802">
        <ele>646</ele>
        <time>2016-12-05T11:37:09Z</time>
      </trkpt>
      <trkpt lat="46.16099" lon="1.82803">
        <ele>646</ele>
        <time>2016-12-05T11:39:09Z</time>
      </trkpt>
      <trkpt lat="46.16108" lon="1.82804">
        <ele>646</ele>
        <time>2016-12-05T11:41:09Z</time>
      </trkpt>
      <trkpt lat="46.16113" lon="1.82806">
        <ele>646</ele>
        <time>2016-12-05T11:43:09Z</time>
      </trkpt>
      <trkpt lat="46.16116" lon="1.82807">
        <ele>646</ele>
        <time>2016-12-05T11:45:09Z</time>
      </trkpt>
      <trkpt lat="46.16118" lon="1.82808">
        <ele>646</ele>
        <time>2016-12-05T11:47:09Z</time>
      </trkpt>
      <trkpt lat="46.1612" lon="1.82809">
        <ele>646</ele>
        <time>2016-12-05T11:49:09Z</time>
      </trkpt>
      <trkpt lat="46.16122" lon="1.8281">
        <ele>646</ele>
        <time>2016-12-05T11:51:09Z</time>
      </trkpt>
      <trkpt lat="46.16125" lon="1.8281">
        <ele>646</ele>
        <time>2016-12-05T11:53:09Z</time>
      </trkpt>
      <trkpt lat="46.16128" lon="1.8281">
        <ele>646</ele>
        <time>2016-12-05T11:55:09Z</time>
      </trkpt>
      <trkpt lat="46.16129" lon="1.8281">
        <ele>646</ele>
        <time>2016-12-05T11:57:09Z</time>
      </trkpt>
      <trkpt lat="46.16131" lon="1.82812">
        <ele>646</ele>
        <time>2016-12-05T11:59:09Z</time>
      </trkpt>
      <trkpt lat="46.16134" lon="1.82811">
        <ele>646</ele>
        <time>2016-12-05T12:01:09Z</time>
      </trkpt>
      <trkpt lat="46.16139" lon="1.82811">
        <ele>646</ele>
        <time>2016-12-05T12:03:09Z</time>
      </trkpt>
      <trkpt lat="46.16143" lon="1.82809">
        <ele>645</ele>
        <time>2016-12-05T12:05:09Z</time>
      </trkpt>
      <trkpt lat="46.16145" lon="1.8281">
        <ele>645</ele>
        <time>2016-12-05T12:07:09Z</time>
      </trkpt>
      <trkpt lat="46.16148" lon="1.82809">
        <ele>645</ele>
        <time>2016-12-05T12:09:09Z</time>
      </trkpt>
      <trkpt lat="46.1615" lon="1.82809">
        <ele>645</ele>
        <time>2016-12-05T12:11:09Z</time>
      </trkpt>
      <trkpt lat="46.16154" lon="1.82807">
        <ele>645</ele>
        <time>2016-12-05T12:13:09Z</time>
      </trkpt>
      <trkpt lat="46.1616" lon="1.82808">
        <ele>645</ele>
        <time>2016-12-05T12:15:09Z</time>
      </trkpt>
      <trkpt lat="46.16163" lon="1.82807">
        <ele>645</ele>
        <time>2016-12-05T12:17:09Z</time>
      </trkpt>
      <trkpt lat="46.16165" lon="1.82807">
        <ele>645</ele>
        <time>2016-12-05T12:19:09Z</time>
      </trkpt>
      <trkpt lat="46.16169" lon="1.8281">
        <ele>645</ele>
        <time>2016-12-05T12:21:09Z</time>
      </trkpt>
      <trkpt lat="46.16176" lon="1.82811">
        <ele>645</ele>
        <time>2016-12-05T12:23:09Z</time>
      </trkpt>
      <trkpt lat="46.16178" lon="1.82811">
        <ele>645</ele>
        <time>2016-12-05T12:25:09Z</time>
      </trkpt>
      <trkpt lat="46.16181" lon="1.82812">
        <ele>645</ele>
        <time>2016-12-05T12:27:09Z</time>
      </trkpt>
      <trkpt lat="46.16187" lon="1.82812">
        <ele>646</ele>
        <time>2016-12-05T12:29:09Z</time>
      </trkpt>
      <trkpt lat="46.16192" lon="1.82811">
        <ele>646</ele>
        <time>2016-12-05T12:31:09Z</time>
      </trkpt>
      <trkpt lat="46.16195" lon="1.82811">
        <ele>646</ele>
        <time>2016-12-05T12:33:09Z</time>
      </trkpt>
      <trkpt lat="46.16199" lon="1.82813">
        <ele>646</ele>
        <time>2016-12-05T12:35:09Z</time>
      </trkpt>
      <trkpt lat="46.16206" lon="1.82817">
        <ele>646</ele>
        <time>2016-12-05T12:37:09Z</time>
      </trkpt>
      <trkpt lat="46.1621" lon="1.82818">
        <ele>646</ele>
        <time>2016-12-05T12:39:09Z</time>
      </trkpt>
      <trkpt lat="46.16215" lon="1.82819">
        <ele>646</ele>
        <time>2016-12-05T12:41:09Z</time>
      </trkpt>
      <trkpt lat="46.16217" lon="1.8282">
        <ele>646</ele>
        <time>2016-12-05T12:43:09Z</time>
      </trkpt>
      <trkpt lat="46.16226" lon="1.82821">
        <ele>646</ele>
        <time>2016-12-05T12:45:09Z</time>
      </trkpt>
      <trkpt lat="46.1623" lon="1.82821">
        <ele>646</ele>
        <time>2016-12-05T12:47:09Z</time>
      </trkpt>
      <trkpt lat="46.16232" lon="1.8282">
        <ele>646</ele>
        <time>2016-12-05T12:49:09Z</time>
      </trkpt>
      <trkpt lat="46.16234" lon="1.8282">
        <ele>646</ele>
        <time>2016-12-05T12:51:09Z</time>
      </trkpt>
      <trkpt lat="46.1624" lon="1.82822">
        <ele>647</ele>
        <time>2016-12-05T12:53:09Z</time>
      </trkpt>
      <trkpt lat="46.16242" lon="1.82822">
        <ele>647</ele>
        <time>2016-12-05T12:55:09Z</time>
      </trkpt>
      <trkpt lat="46.16249" lon="1.82825">
        <ele>647</ele>
        <time>2016-12-05T12:57:09Z</time>
      </trkpt>
      <trkpt lat="46.16254" lon="1.82826">
        <ele>647</ele>
        <time>2016-12-05T12:59:09Z</time>
      </trkpt>
      <trkpt lat="46.16259" lon="1.82825">
        <ele>647</ele>
        <time>2016-12-05T13:01:09Z</time>
      </trkpt>
      <trkpt lat="46.16268" lon="1.82829">
        <ele>647</ele>
        <time>2016-12-05T13:03:09Z</time>
      </trkpt>
      <trkpt lat="46.16271" lon="1.82829">
        <ele>647</ele>
        <time>2016-12-05T13:05:09Z</time>
      </trkpt>
      <trkpt lat="46.16276" lon="1.8283">
        <ele>647</ele>
        <time>2016-12-05T13:07:09Z</time>
      </trkpt>
      <trkpt lat="46.16278" lon="1.82831">
        <ele>647</ele>
        <time>2016-12-05T13:09:09Z</time>
      </trkpt>
      <trkpt lat="46.1628" lon="1.82833">
        <ele>647</ele>
        <time>2016-12-05T13:11:09Z</time>
      </trkpt>
      <trkpt lat="46.16286" lon="1.82838">
        <ele>648</ele>
        <time>2016-12-05T13:13:09Z</time>
      </trkpt>
      <trkpt lat="46.16287" lon="1.82841">
        <ele>648</ele>
        <time>2016-12-05T13:15:09Z</time>
      </trkpt>
      <trkpt lat="46.16288" lon="1.82844">
        <ele>648</ele>
        <time>2016-12-05T13:17:09Z</time>
      </trkpt>
      <trkpt lat="46.16289" lon="1.82847">
        <ele>648</ele>
        <time>2016-12-05T13:19:09Z</time>
      </trkpt>
      <trkpt lat="46.1629" lon="1.82851">
        <ele>648</ele>
        <time>2016-12-05T13:21:09Z</time>
      </trkpt>
      <trkpt lat="46.16294" lon="1.82856">
        <ele>649</ele>
        <time>2016-12-05T13:23:09Z</time>
      </trkpt>
      <trkpt lat="46.16295" lon="1.82858">
        <ele>649</ele>
        <time>2016-12-05T13:25:09Z</time>
      </trkpt>
      <trkpt lat="46.16295" lon="1.82862">
        <ele>649</ele>
        <time>2016-12-05T13:27:09Z</time>
      </trkpt>
      <trkpt lat="46.16296" lon="1.82863">
        <ele>649</ele>
        <time>2016-12-05T13:29:09Z</time>
      </trkpt>
      <trkpt lat="46.16297" lon="1.82866">
        <ele>649</ele>
        <time>2016-12-05T13:31:09Z</time>
      </trkpt>
      <trkpt lat="46.16297" lon="1.82869">
        <ele>649</ele>
        <time>2016-12-05T13:33:09Z</time>
      </trkpt>
      <trkpt lat="46.16296" lon="1.82872">
        <ele>649</ele>
        <time>2016-12-05T13:35:09Z</time>
      </trkpt>
      <trkpt lat="46.16296" lon="1.8288">
        <ele>650</ele>
        <time>2016-12-05T13:37:09Z</time>
      </trkpt>
      <trkpt lat="46.16298" lon="1.82886">
        <ele>650</ele>
        <time>2016-12-05T13:39:09Z</time>
      </trkpt>
      <trkpt lat="46.163" lon="1.82888">
        <ele>650</ele>
        <time>2016-12-05T13:41:09Z</time>
      </trkpt>
      <trkpt lat="46.16302" lon="1.8289">
        <ele>650</ele>
        <time>2016-12-05T13:43:09Z</time>
      </trkpt>
      <trkpt lat="46.16307" lon="1.82894">
        <ele>651</ele>
        <time>2016-12-05T13:45:09Z</time>
      </trkpt>
      <trkpt lat="46.16309" lon="1.82895">
        <ele>651</ele>
        <time>2016-12-05T13:47:09Z</time>
      </trkpt>
      <trkpt lat="46.16312" lon="1.82895">
        <ele>651</ele>
        <time>2016-12-05T13:49:09Z</time>
      </trkpt>
      <trkpt lat="46.16315" lon="1.82893">
        <ele>651</ele>
        <time>2016-12-05T13:51:09Z</time>
      </trkpt>
      <trkpt lat="46.16317" lon="1.8289">
        <ele>651</ele>
        <time>2016-12-05T13:53:09Z</time>
      </trkpt>
      <trkpt lat="46.16322" lon="1.82885">
        <ele>650</ele>
        <time>2016-12-05T13:55:09Z</time>
      </trkpt>
      <trkpt lat="46.16323" lon="1.82883">
        <ele>650</ele>
        <time>2016-12-05T13:57:09Z</time>
      </trkpt>
      <trkpt lat="46.16325" lon="1.82881">
        <ele>650</ele>
        <time>2016-12-05T13:59:09Z</time>
      </trkpt>
      <trkpt lat="46.16332" lon="1.82877">
        <ele>650</ele>
        <time>2016-12-05T14:01:09Z</time>
      </trkpt>
      <trkpt lat="46.16333" lon="1.82874">
        <ele>650</ele>
        <time>2016-12-05T14:03:09Z</time>
      </trkpt>
      <trkpt lat="46.16335" lon="1.82873">
        <ele>650</ele>
        <time>2016-12-05T14:05:09Z</time>
      </trkpt>
      <trkpt lat="46.16337" lon="1.8287">
        <ele>650</ele>
        <time>2016-12-05T14:07:09Z</time>
      </trkpt>
      <trkpt lat="46.16344" lon="1.82864">
        <ele>649</ele>
        <time>2016-12-05T14:09:09Z</time>
      </trkpt>
      <trkpt lat="46.16345" lon="1.82863">
        <ele>649</ele>
        <time>2016-12-05T14:11:09Z</time>
      </trkpt>
      <trkpt lat="46.16347" lon="1.82863">
        <ele>649</ele>
        <time>2016-12-05T14:13:09Z</time>
      </trkpt>
      <trkpt lat="46.16354" lon="1.82861">
        <ele>649</ele>
        <time>2016-12-05T14:15:09Z</time>
      </trkpt>
      <trkpt lat="46.16355" lon="1.82858">
        <ele>649</ele>
        <time>2016-12-05T14:17:09Z</time>
      </trkpt>
      <trkpt lat="46.16356" lon="1.82855">
        <ele>648</ele>
        <time>2016-12-05T14:19:09Z</time>
      </trkpt>
      <trkpt lat="46.16357" lon="1.82852">
        <ele>648</ele>
        <time>2016-12-05T14:21:09Z</time>
      </trkpt>
      <trkpt lat="46.16357" lon="1.82848">
        <ele>648</ele>
        <time>2016-12-05T14:23:09Z</time>
      </trkpt>
      <trkpt lat="46.16358" lon="1.82844">
        <ele>648</ele>
        <time>2016-12-05T14:25:09Z</time>
      </trkpt>
      <trkpt lat="46.16357" lon="1.8284">
        <ele>648</ele>
        <time>2016-12-05T14:27:09Z</time>
      </trkpt>
      <trkpt lat="46.16357" lon="1.82833">
        <ele>647</ele>
        <time>2016-12-05T14:29:09Z</time>
      </trkpt>
      <trkpt lat="46.16356" lon="1.82829">
        <ele>647</ele>
        <time>2016-12-05T14:31:09Z</time>
      </trkpt>
      <trkpt lat="46.16356" lon="1.82821">
        <ele>647</ele>
        <time>2016-12-05T14:33:09Z</time>
      </trkpt>
      <trkpt lat="46.16355" lon="1.82817">
        <ele>647</ele>
        <time>2016-12-05T14:35:09Z</time>
      </trkpt>
      <trkpt lat="46.16355" lon="1.82813">
        <ele>647</ele>
        <time>2016-12-05T14:37:09Z</time>
      </trkpt>
      <trkpt lat="46.16354" lon="1.82807">
        <ele>647</ele>
        <time>2016-12-05T14:39:09Z</time>
      </trkpt>
      <trkpt lat="46.16354" lon="1.82799">
        <ele>646</ele>
        <time>2016-12-05T14:41:09Z</time>
      </trkpt>
      <trkpt lat="46.16353" lon="1.82795">
        <ele>646</ele>
        <time>2016-12-05T14:43:09Z</time>
      </trkpt>
      <trkpt lat="46.16352" lon="1.82791">
        <ele>646</ele>
        <time>2016-12-05T14:45:09Z</time>
      </trkpt>
      <trkpt lat="46.16352" lon="1.82785">
        <ele>646</ele>
        <time>2016-12-05T14:47:09Z</time>
      </trkpt>
      <trkpt lat="46.16352" lon="1.82782">
        <ele>646</ele>
        <time>2016-12-05T14:49:09Z</time>
      </trkpt>
      <trkpt lat="46.16351" lon="1.82778">
        <ele>646</ele>
        <time>2016-12-05T14:51:09Z</time>
      </trkpt>
      <trkpt lat="46.16351" lon="1.82774">
        <ele>646</ele>
        <time>2016-12-05T14:53:09Z</time>
      </trkpt>
      <trkpt lat="46.16352" lon="1.82771">
        <ele>645</ele>
        <time>2016-12-05T14:55:09Z</time>
      </trkpt>
      <trkpt lat="46.16353" lon="1.82768">
        <ele>645</ele>
        <time>2016-12-05T14:57:09Z</time>
      </trkpt>
      <trkpt lat="46.16354" lon="1.82765">
        <ele>645</ele>
        <time>2016-12-05T14:59:09Z</time>
      </trkpt>
      <trkpt lat="46.16356" lon="1.82762">
        <ele>645</ele>
        <time>2016-12-05T15:01:09Z</time>
      </trkpt>
      <trkpt lat="46.16361" lon="1.8276">
        <ele>645</ele>
        <time>2016-12-05T15:03:09Z</time>
      </trkpt>
      <trkpt lat="46.16365" lon="1.82758">
        <ele>645</ele>
        <time>2016-12-05T15:05:09Z</time>
      </trkpt>
      <trkpt lat="46.16368" lon="1.82758">
        <ele>645</ele>
        <time>2016-12-05T15:07:09Z</time>
      </trkpt>
      <trkpt lat="46.1637" lon="1.82757">
        <ele>645</ele>
        <time>2016-12-05T15:09:09Z</time>
      </trkpt>
      <trkpt lat="46.16373" lon="1.82756">
        <ele>645</ele>
        <time>2016-12-05T15:11:09Z</time>
      </trkpt>
      <trkpt lat="46.16376" lon="1.82753">
        <ele>645</ele>
        <time>2016-12-05T15:13:09Z</time>
      </trkpt>
      <trkpt lat="46.16378" lon="1.82752">
        <ele>645</ele>
        <time>2016-12-05T15:15:09Z</time>
      </trkpt>
      <trkpt lat="46.1638" lon="1.82751">
        <ele>644</ele>
        <time>2016-12-05T15:17:09Z</time>
      </trkpt>
      <trkpt lat="46.16385" lon="1.82749">
        <ele>644</ele>
        <time>2016-12-05T15:19:09Z</time>
      </trkpt>
      <trkpt lat="46.16395" lon="1.82746">
        <ele>644</ele>
        <time>2016-12-05T15:21:09Z</time>
      </trkpt>
      <trkpt lat="46.16399" lon="1.82744">
        <ele>644</ele>
        <time>2016-12-05T15:23:09Z</time>
      </trkpt>
      <trkpt lat="46.16402" lon="1.82744">
        <ele>644</ele>
        <time>2016-12-05T15:25:09Z</time>
      </trkpt>
      <trkpt lat="46.16404" lon="1.82743">
        <ele>644</ele>
        <time>2016-12-05T15:27:09Z</time>
      </trkpt>
      <trkpt lat="46.16407" lon="1.82741">
        <ele>644</ele>
        <time>2016-12-05T15:29:09Z</time>
      </trkpt>
      <trkpt lat="46.16408" lon="1.8274">
        <ele>644</ele>
        <time>2016-12-05T15:31:09Z</time>
      </trkpt>
      <trkpt lat="46.16416" lon="1.82735">
        <ele>643</ele>
        <time>2016-12-05T15:33:09Z</time>
      </trkpt>
      <trkpt lat="46.1642" lon="1.82735">
        <ele>644</ele>
        <time>2016-12-05T15:35:09Z</time>
      </trkpt>
      <trkpt lat="46.16421" lon="1.82734">
        <ele>644</ele>
        <time>2016-12-05T15:37:09Z</time>
      </trkpt>
      <trkpt lat="46.16423" lon="1.82735">
        <ele>644</ele>
        <time>2016-12-05T15:39:09Z</time>
      </trkpt>
      <trkpt lat="46.16425" lon="1.82733">
        <ele>644</ele>
        <time>2016-12-05T15:41:09Z</time>
      </trkpt>
      <trkpt lat="46.16426" lon="1.82732">
        <ele>644</ele>
        <time>2016-12-05T15:43:09Z</time>
      </trkpt>
      <trkpt lat="46.16428" lon="1.82731">
        <ele>644</ele>
        <time>2016-12-05T15:45:09Z</time>
      </trkpt>
      <trkpt lat="46.16431" lon="1.82727">
        <ele>644</ele>
        <time>2016-12-05T15:47:09Z</time>
      </trkpt>
      <trkpt lat="46.16432" lon="1.82726">
        <ele>644</ele>
        <time>2016-12-05T15:49:09Z</time>
      </trkpt>
      <trkpt lat="46.16434" lon="1.82718">
        <ele>643</ele>
        <time>2016-12-05T15:51:09Z</time>
      </trkpt>
      <trkpt lat="46.16435" lon="1.82711">
        <ele>643</ele>
        <time>2016-12-05T15:53:09Z</time>
      </trkpt>
      <trkpt lat="46.16436" lon="1.82709">
        <ele>643</ele>
        <time>2016-12-05T15:55:09Z</time>
      </trkpt>
      <trkpt lat="46.16436" lon="1.82706">
        <ele>642</ele>
        <time>2016-12-05T15:57:09Z</time>
      </trkpt>
      <trkpt lat="46.16436" lon="1.82703">
        <ele>642</ele>
        <time>2016-12-05T15:59:09Z</time>
      </trkpt>
      <trkpt lat="46.16435" lon="1.82695">
        <ele>642</ele>
        <time>2016-12-05T16:01:09Z</time>
      </trkpt>
      <trkpt lat="46.16434" lon="1.82688">
        <ele>642</ele>
        <time>2016-12-05T16:03:09Z</time>
      </trkpt>
      <trkpt lat="46.16434" lon="1.82685">
        <ele>641</ele>
        <time>2016-12-05T16:05:09Z</time>
      </trkpt>
      <trkpt lat="46.16434" lon="1.8268">
        <ele>641</ele>
        <time>2016-12-05T16:07:09Z</time>
      </trkpt>
      <trkpt lat="46.16433" lon="1.82673">
        <ele>641</ele>
        <time>2016-12-05T16:09:09Z</time>
      </trkpt>
      <trkpt lat="46.16432" lon="1.82668">
        <ele>641</ele>
        <time>2016-12-05T16:11:09Z</time>
      </trkpt>
      <trkpt lat="46.16433" lon="1.82657">
        <ele>640</ele>
        <time>2016-12-05T16:13:09Z</time>
      </trkpt>
      <trkpt lat="46.16432" lon="1.8265">
        <ele>639</ele>
        <time>2016-12-05T16:15:09Z</time>
      </trkpt>
      <trkpt lat="46.16432" lon="1.82645">
        <ele>639</ele>
        <time>2016-12-05T16:17:09Z</time>
      </trkpt>
      <trkpt lat="46.16432" lon="1.82642">
        <ele>638</ele>
        <time>2016-12-05T16:19:09Z</time>
      </trkpt>
      <trkpt lat="46.16432" lon="1.82638">
        <ele>638</ele>
        <time>2016-12-05T16:21:09Z</time>
      </trkpt>
      <trkpt lat="46.16431" lon="1.8263">
        <ele>637</ele>
        <time>2016-12-05T16:23:09Z</time>
      </trkpt>
      <trkpt lat="46.16431" lon="1.82622">
        <ele>636</ele>
        <time>2016-12-05T16:25:09Z</time>
      </trkpt>
      <trkpt lat="46.1643" lon="1.82619">
        <ele>636</ele>
        <time>2016-12-05T16:27:09Z</time>
      </trkpt>
      <trkpt lat="46.1643" lon="1.82615">
        <ele>636</ele>
        <time>2016-12-05T16:29:09Z</time>
      </trkpt>
      <trkpt lat="46.16429" lon="1.826">
        <ele>635</ele>
        <time>2016-12-05T16:31:09Z</time>
      </trkpt>
      <trkpt lat="46.16429" lon="1.82598">
        <ele>634</ele>
        <time>2016-12-05T16:33:09Z</time>
      </trkpt>
      <trkpt lat="46.16427" lon="1.82584">
        <ele>633</ele>
        <time>2016-12-05T16:35:09Z</time>
      </trkpt>
      <trkpt lat="46.16426" lon="1.8258">
        <ele>633</ele>
        <time>2016-12-05T16:37:09Z</time>
      </trkpt>
      <trkpt lat="46.16426" lon="1.82577">
        <ele>632</ele>
        <time>2016-12-05T16:39:09Z</time>
      </trkpt>
      <trkpt lat="46.16426" lon="1.82573">
        <ele>632</ele>
        <time>2016-12-05T16:41:09Z</time>
      </trkpt>
      <trkpt lat="46.16426" lon="1.82566">
        <ele>631</ele>
        <time>2016-12-05T16:43:09Z</time>
      </trkpt>
      <trkpt lat="46.16427" lon="1.82562">
        <ele>631</ele>
        <time>2016-12-05T16:45:09Z</time>
      </trkpt>
      <trkpt lat="46.16429" lon="1.82561">
        <ele>631</ele>
        <time>2016-12-05T16:47:09Z</time>
      </trkpt>
      <trkpt lat="46.16431" lon="1.8256">
        <ele>631</ele>
        <time>2016-12-05T16:49:09Z</time>
      </trkpt>
      <trkpt lat="46.16431" lon="1.82558">
        <ele>630</ele>
        <time>2016-12-05T16:51:09Z</time>
      </trkpt>
      <trkpt lat="46.16431" lon="1.82555">
        <ele>630</ele>
        <time>2016-12-05T16:53:09Z</time>
      </trkpt>
      <trkpt lat="46.16435" lon="1.82537">
        <ele>628</ele>
        <time>2016-12-05T16:55:09Z</time>
      </trkpt>
      <trkpt lat="46.16436" lon="1.82533">
        <ele>628</ele>
        <time>2016-12-05T16:57:09Z</time>
      </trkpt>
      <trkpt lat="46.16438" lon="1.8253">
        <ele>628</ele>
        <time>2016-12-05T16:59:09Z</time>
      </trkpt>
      <trkpt lat="46.16441" lon="1.82525">
        <ele>627</ele>
        <time>2016-12-05T17:01:09Z</time>
      </trkpt>
      <trkpt lat="46.16443" lon="1.82521">
        <ele>627</ele>
        <time>2016-12-05T17:03:09Z</time>
      </trkpt>
      <trkpt lat="46.16445" lon="1.8252">
        <ele>627</ele>
        <time>2016-12-05T17:05:09Z</time>
      </trkpt>
      <trkpt lat="46.16447" lon="1.82517">
        <ele>627</ele>
        <time>2016-12-05T17:07:09Z</time>
      </trkpt>
      <trkpt lat="46.16452" lon="1.82514">
        <ele>627</ele>
        <time>2016-12-05T17:09:09Z</time>
      </trkpt>
      <trkpt lat="46.16454" lon="1.82512">
        <ele>626</ele>
        <time>2016-12-05T17:11:09Z</time>
      </trkpt>
      <trkpt lat="46.16456" lon="1.82509">
        <ele>626</ele>
        <time>2016-12-05T17:13:09Z</time>
      </trkpt>
      <trkpt lat="46.1646" lon="1.82507">
        <ele>626</ele>
        <time>2016-12-05T17:15:09Z</time>
      </trkpt>
      <trkpt lat="46.16464" lon="1.82504">
        <ele>626</ele>
        <time>2016-12-05T17:17:09Z</time>
      </trkpt>
      <trkpt lat="46.16467" lon="1.82501">
        <ele>626</ele>
        <time>2016-12-05T17:19:09Z</time>
      </trkpt>
      <trkpt lat="46.16469" lon="1.82499">
        <ele>626</ele>
        <time>2016-12-05T17:21:09Z</time>
      </trkpt>
      <trkpt lat="46.16472" lon="1.82498">
        <ele>626</ele>
        <time>2016-12-05T17:23:09Z</time>
      </trkpt>
      <trkpt lat="46.16474" lon="1.82496">
        <ele>626</ele>
        <time>2016-12-05T17:25:09Z</time>
      </trkpt>
      <trkpt lat="46.16476" lon="1.82496">
        <ele>626</ele>
        <time>2016-12-05T17:27:09Z</time>
      </trkpt>
      <trkpt lat="46.16478" lon="1.82494">
        <ele>626</ele>
        <time>2016-12-05T17:29:09Z</time>
      </trkpt>
      <trkpt lat="46.1648" lon="1.82493">
        <ele>626</ele>
        <time>2016-12-05T17:31:09Z</time>
      </trkpt>
      <trkpt lat="46.16482" lon="1.8249">
        <ele>625</ele>
        <time>2016-12-05T17:33:09Z</time>
      </trkpt>
      <trkpt lat="46.16484" lon="1.82487">
        <ele>625</ele>
        <time>2016-12-05T17:35:09Z</time>
      </trkpt>
      <trkpt lat="46.16487" lon="1.82485">
        <ele>625</ele>
        <time>2016-12-05T17:37:09Z</time>
      </trkpt>
      <trkpt lat="46.16489" lon="1.82483">
        <ele>625</ele>
        <time>2016-12-05T17:39:09Z</time>
      </trkpt>
      <trkpt lat="46.16491" lon="1.82483">
        <ele>625</ele>
        <time>2016-12-05T17:41:09Z</time>
      </trkpt>
      <trkpt lat="46.16494" lon="1.8248">
        <ele>625</ele>
        <time>2016-12-05T17:43:09Z</time>
      </trkpt>
      <trkpt lat="46.16497" lon="1.82479">
        <ele>625</ele>
        <time>2016-12-05T17:45:09Z</time>
      </trkpt>
      <trkpt lat="46.16501" lon="1.82476">
        <ele>625</ele>
        <time>2016-12-05T17:47:09Z</time>
      </trkpt>
      <trkpt lat="46.16504" lon="1.82475">
        <ele>625</ele>
        <time>2016-12-05T17:49:09Z</time>
      </trkpt>
      <trkpt lat="46.16506" lon="1.82473">
        <ele>624</ele>
        <time>2016-12-05T17:51:09Z</time>
      </trkpt>
      <trkpt lat="46.16509" lon="1.82473">
        <ele>624</ele>
        <time>2016-12-05T17:53:09Z</time>
      </trkpt>
      <trkpt lat="46.16514" lon="1.8247">
        <ele>624</ele>
        <time>2016-12-05T17:55:09Z</time>
      </trkpt>
      <trkpt lat="46.16518" lon="1.82465">
        <ele>623</ele>
        <time>2016-12-05T17:57:09Z</time>
      </trkpt>
      <trkpt lat="46.16522" lon="1.82462">
        <ele>623</ele>
        <time>2016-12-05T17:59:09Z</time>
      </trkpt>
      <trkpt lat="46.16528" lon="1.82461">
        <ele>623</ele>
        <time>2016-12-05T18:01:09Z</time>
      </trkpt>
      <trkpt lat="46.16531" lon="1.82459">
        <ele>623</ele>
        <time>2016-12-05T18:03:09Z</time>
      </trkpt>
      <trkpt lat="46.16544" lon="1.82452">
        <ele>622</ele>
        <time>2016-12-05T18:05:09Z</time>
      </trkpt>
      <trkpt lat="46.16547" lon="1.82449">
        <ele>622</ele>
        <time>2016-12-05T18:07:09Z</time>
      </trkpt>
      <trkpt lat="46.1655" lon="1.82446">
        <ele>621</ele>
        <time>2016-12-05T18:09:09Z</time>
      </trkpt>
      <trkpt lat="46.16555" lon="1.82444">
        <ele>621</ele>
        <time>2016-12-05T18:11:09Z</time>
      </trkpt>
      <trkpt lat="46.16557" lon="1.82443">
        <ele>621</ele>
        <time>2016-12-05T18:13:09Z</time>
      </trkpt>
      <trkpt lat="46.1656" lon="1.82442">
        <ele>621</ele>
        <time>2016-12-05T18:15:09Z</time>
      </trkpt>
      <trkpt lat="46.16561" lon="1.82442">
        <ele>621</ele>
        <time>2016-12-05T18:17:09Z</time>
      </trkpt>
      <trkpt lat="46.16563" lon="1.82444">
        <ele>621</ele>
        <time>2016-12-05T18:19:09Z</time>
      </trkpt>
      <trkpt lat="46.16566" lon="1.82449">
        <ele>621</ele>
        <time>2016-12-05T18:21:09Z</time>
      </trkpt>
      <trkpt lat="46.16568" lon="1.82451">
        <ele>621</ele>
        <time>2016-12-05T18:23:09Z</time>
      </trkpt>
      <trkpt lat="46.16569" lon="1.82455">
        <ele>622</ele>
        <time>2016-12-05T18:25:09Z</time>
      </trkpt>
      <trkpt lat="46.16576" lon="1.8246">
        <ele>622</ele>
        <time>2016-12-05T18:27:09Z</time>
      </trkpt>
      <trkpt lat="46.16578" lon="1.82461">
        <ele>622</ele>
        <time>2016-12-05T18:29:09Z</time>
      </trkpt>
      <trkpt lat="46.1658" lon="1.82463">
        <ele>622</ele>
        <time>2016-12-05T18:31:09Z</time>
      </trkpt>
      <trkpt lat="46.16582" lon="1.82465">
        <ele>623</ele>
        <time>2016-12-05T18:33:09Z</time>
      </trkpt>
      <trkpt lat="46.16583" lon="1.82468">
        <ele>623</ele>
        <time>2016-12-05T18:35:09Z</time>
      </trkpt>
      <trkpt lat="46.16585" lon="1.8247">
        <ele>623</ele>
        <time>2016-12-05T18:37:09Z</time>
      </trkpt>
      <trkpt lat="46.16586" lon="1.82472">
        <ele>623</ele>
        <time>2016-12-05T18:39:09Z</time>
      </trkpt>
      <trkpt lat="46.1659" lon="1.82476">
        <ele>624</ele>
        <time>2016-12-05T18:41:09Z</time>
      </trkpt>
      <trkpt lat="46.16594" lon="1.82481">
        <ele>624</ele>
        <time>2016-12-05T18:43:09Z</time>
      </trkpt>
      <trkpt lat="46.16595" lon="1.82482">
        <ele>624</ele>
        <time>2016-12-05T18:45:09Z</time>
      </trkpt>
      <trkpt lat="46.16597" lon="1.82482">
        <ele>624</ele>
        <time>2016-12-05T18:47:09Z</time>
      </trkpt>
      <trkpt lat="46.16599" lon="1.82484">
        <ele>625</ele>
        <time>2016-12-05T18:49:09Z</time>
      </trkpt>
      <trkpt lat="46.16602" lon="1.82485">
        <ele>625</ele>
        <time>2016-12-05T18:51:09Z</time>
      </trkpt>
      <trkpt lat="46.16605" lon="1.82487">
        <ele>625</ele>
        <time>2016-12-05T18:53:09Z</time>
      </trkpt>
      <trkpt lat="46.16609" lon="1.82488">
        <ele>625</ele>
        <time>2016-12-05T18:55:09Z</time>
      </trkpt>
      <trkpt lat="46.16615" lon="1.82491">
        <ele>625</ele>
        <time>2016-12-05T18:57:09Z</time>
      </trkpt>
      <trkpt lat="46.16619" lon="1.82493">
        <ele>626</ele>
        <time>2016-12-05T18:59:09Z</time>
      </trkpt>
      <trkpt lat="46.16621" lon="1.82495">
        <ele>626</ele>
        <time>2016-12-05T19:01:09Z</time>
      </trkpt>
      <trkpt lat="46.16622" lon="1.82496">
        <ele>626</ele>
        <time>2016-12-05T19:03:09Z</time>
      </trkpt>
      <trkpt lat="46.16624" lon="1.82497">
        <ele>626</ele>
        <time>2016-12-05T19:05:09Z</time>
      </trkpt>
      <trkpt lat="46.16626" lon="1.82499">
        <ele>626</ele>
        <time>2016-12-05T19:07:09Z</time>
      </trkpt>
      <trkpt lat="46.1663" lon="1.82501">
        <ele>627</ele>
        <time>2016-12-05T19:09:09Z</time>
      </trkpt>
      <trkpt lat="46.16631" lon="1.82501">
        <ele>627</ele>
        <time>2016-12-05T19:11:09Z</time>
      </trkpt>
      <trkpt lat="46.16633" lon="1.82501">
        <ele>627</ele>
        <time>2016-12-05T19:13:09Z</time>
      </trkpt>
      <trkpt lat="46.16636" lon="1.82503">
        <ele>627</ele>
        <time>2016-12-05T19:15:09Z</time>
      </trkpt>
      <trkpt lat="46.16638" lon="1.82505">
        <ele>627</ele>
        <time>2016-12-05T19:17:09Z</time>
      </trkpt>
      <trkpt lat="46.16639" lon="1.82507">
        <ele>628</ele>
        <time>2016-12-05T19:19:09Z</time>
      </trkpt>
      <trkpt lat="46.16638" lon="1.8251">
        <ele>628</ele>
        <time>2016-12-05T19:21:09Z</time>
      </trkpt>
      <trkpt lat="46.16636" lon="1.82514">
        <ele>629</ele>
        <time>2016-12-05T19:23:09Z</time>
      </trkpt>
      <trkpt lat="46.16637" lon="1.82515">
        <ele>629</ele>
        <time>2016-12-05T19:25:09Z</time>
      </trkpt>
      <trkpt lat="46.16636" lon="1.82516">
        <ele>629</ele>
        <time>2016-12-05T19:27:09Z</time>
      </trkpt>
      <trkpt lat="46.16634" lon="1.82516">
        <ele>629</ele>
        <time>2016-12-05T19:29:09Z</time>
      </trkpt>
      <trkpt lat="46.16633" lon="1.82517">
        <ele>629</ele>
        <time>2016-12-05T19:31:09Z</time>
      </trkpt>
      <trkpt lat="46.16631" lon="1.8252">
        <ele>630</ele>
        <time>2016-12-05T19:33:09Z</time>
      </trkpt>
      <trkpt lat="46.16631" lon="1.82521">
        <ele>630</ele>
        <time>2016-12-05T19:35:09Z</time>
      </trkpt>
      <trkpt lat="46.16634" lon="1.82524">
        <ele>630</ele>
        <time>2016-12-05T19:37:09Z</time>
      </trkpt>
      <trkpt lat="46.16636" lon="1.82525">
        <ele>631</ele>
        <time>2016-12-05T19:39:09Z</time>
      </trkpt>
      <trkpt lat="46.16637" lon="1.82526">
        <ele>631</ele>
        <time>2016-12-05T19:41:09Z</time>
      </trkpt>
      <trkpt lat="46.16641" lon="1.82527">
        <ele>631</ele>
        <time>2016-12-05T19:43:09Z</time>
      </trkpt>
      <trkpt lat="46.16646" lon="1.82528">
        <ele>631</ele>
        <time>2016-12-05T19:45:09Z</time>
      </trkpt>
      <trkpt lat="46.16649" lon="1.82526">
        <ele>631</ele>
        <time>2016-12-05T19:47:09Z</time>
      </trkpt>
      <trkpt lat="46.1665" lon="1.82526">
        <ele>631</ele>
        <time>2016-12-05T19:49:09Z</time>
      </trkpt>
      <trkpt lat="46.16652" lon="1.82526">
        <ele>631</ele>
        <time>2016-12-05T19:51:09Z</time>
      </trkpt>
      <trkpt lat="46.16653" lon="1.82527">
        <ele>631</ele>
        <time>2016-12-05T19:53:09Z</time>
      </trkpt>
      <trkpt lat="46.16656" lon="1.82529">
        <ele>632</ele>
        <time>2016-12-05T19:55:09Z</time>
      </trkpt>
      <trkpt lat="46.16656" lon="1.8253">
        <ele>632</ele>
        <time>2016-12-05T19:57:09Z</time>
      </trkpt>
      <trkpt lat="46.16658" lon="1.82531">
        <ele>632</ele>
        <time>2016-12-05T19:59:09Z</time>
      </trkpt>
      <trkpt lat="46.1666" lon="1.82529">
        <ele>632</ele>
        <time>2016-12-05T20:01:09Z</time>
      </trkpt>
      <trkpt lat="46.16663" lon="1.82531">
        <ele>632</ele>
        <time>2016-12-05T20:03:09Z</time>
      </trkpt>
      <trkpt lat="46.16666" lon="1.82534">
        <ele>633</ele>
        <time>2016-12-05T20:05:09Z</time>
      </trkpt>
      <trkpt lat="46.16667" lon="1.82534">
        <ele>633</ele>
        <time>2016-12-05T20:07:09Z</time>
      </trkpt>
      <trkpt lat="46.16669" lon="1.82534">
        <ele>633</ele>
        <time>2016-12-05T20:09:09Z</time>
      </trkpt>
      <trkpt lat="46.16671" lon="1.82536">
        <ele>633</ele>
        <time>2016-12-05T20:11:09Z</time>
      </trkpt>
      <trkpt lat="46.16673" lon="1.82537">
        <ele>633</ele>
        <time>2016-12-05T20:13:09Z</time>
      </trkpt>
      <trkpt lat="46.16673" lon="1.82539">
        <ele>633</ele>
        <time>2016-12-05T20:15:09Z</time>
      </trkpt>
      <trkpt lat="46.16674" lon="1.8254">
        <ele>633</ele>
        <time>2016-12-05T20:17:09Z</time>
      </trkpt>
      <trkpt lat="46.16676" lon="1.82542">
        <ele>633</ele>
        <time>2016-12-05T20:19:09Z</time>
      </trkpt>
      <trkpt lat="46.16675" lon="1.82545">
        <ele>634</ele>
        <time>2016-12-05T20:21:09Z</time>
      </trkpt>
      <trkpt lat="46.16676" lon="1.82548">
        <ele>634</ele>
        <time>2016-12-05T20:23:09Z</time>
      </trkpt>
      <trkpt lat="46.16675" lon="1.82551">
        <ele>635</ele>
        <time>2016-12-05T20:25:09Z</time>
      </trkpt>
      <trkpt lat="46.16675" lon="1.82554">
        <ele>635</ele>
        <time>2016-12-05T20:27:09Z</time>
      </trkpt>
      <trkpt lat="46.16674" lon="1.82554">
        <ele>636</ele>
        <time>2016-12-05T20:29:09Z</time>
      </trkpt>
      <trkpt lat="46.16673" lon="1.82556">
        <ele>636</ele>
        <time>2016-12-05T20:31:09Z</time>
      </trkpt>
      <trkpt lat="46.16674" lon="1.82557">
        <ele>636</ele>
        <time>2016-12-05T20:33:09Z</time>
      </trkpt>
      <trkpt lat="46.16673" lon="1.82559">
        <ele>636</ele>
        <time>2016-12-05T20:35:09Z</time>
      </trkpt>
      <trkpt lat="46.16672" lon="1.82562">
        <ele>637</ele>
        <time>2016-12-05T20:37:09Z</time>
      </trkpt>
      <trkpt lat="46.16671" lon="1.82563">
        <ele>637</ele>
        <time>2016-12-05T20:39:09Z</time>
      </trkpt>
      <trkpt lat="46.16668" lon="1.82564">
        <ele>638</ele>
        <time>2016-12-05T20:41:09Z</time>
      </trkpt>
      <trkpt lat="46.16666" lon="1.82565">
        <ele>638</ele>
        <time>2016-12-05T20:43:09Z</time>
      </trkpt>
      <trkpt lat="46.16665" lon="1.82569">
        <ele>639</ele>
        <time>2016-12-05T20:45:09Z</time>
      </trkpt>
      <trkpt lat="46.16665" lon="1.82571">
        <ele>639</ele>
        <time>2016-12-05T20:47:09Z</time>
      </trkpt>
      <trkpt lat="46.16666" lon="1.82574">
        <ele>639</ele>
        <time>2016-12-05T20:49:09Z</time>
      </trkpt>
      <trkpt lat="46.16665" lon="1.82576">
        <ele>640</ele>
        <time>2016-12-05T20:51:09Z</time>
      </trkpt>
      <trkpt lat="46.16666" lon="1.8258">
        <ele>640</ele>
        <time>2016-12-05T20:53:09Z</time>
      </trkpt>
      <trkpt lat="46.16666" lon="1.82582">
        <ele>641</ele>
        <time>2016-12-05T20:55:09Z</time>
      </trkpt>
      <trkpt lat="46.16668" lon="1.82583">
        <ele>641</ele>
        <time>2016-12-05T20:57:09Z</time>
      </trkpt>
      <trkpt lat="46.16668" lon="1.82585">
        <ele>641</ele>
        <time>2016-12-05T20:59:09Z</time>
      </trkpt>
      <trkpt lat="46.16669" lon="1.82586">
        <ele>641</ele>
        <time>2016-12-05T21:01:09Z</time>
      </trkpt>
      <trkpt lat="46.16669" lon="1.82587">
        <ele>641</ele>
        <time>2016-12-05T21:03:09Z</time>
      </trkpt>
      <trkpt lat="46.16669" lon="1.82589">
        <ele>641</ele>
        <time>2016-12-05T21:05:09Z</time>
      </trkpt>
      <trkpt lat="46.16669" lon="1.82593">
        <ele>642</ele>
        <time>2016-12-05T21:07:09Z</time>
      </trkpt>
      <trkpt lat="46.1667" lon="1.82596">
        <ele>642</ele>
        <time>2016-12-05T21:09:09Z</time>
      </trkpt>
      <trkpt lat="46.1667" lon="1.82598">
        <ele>642</ele>
        <time>2016-12-05T21:11:09Z</time>
      </trkpt>
      <trkpt lat="46.16671" lon="1.82601">
        <ele>643</ele>
        <time>2016-12-05T21:13:09Z</time>
      </trkpt>
      <trkpt lat="46.16671" lon="1.82602">
        <ele>643</ele>
        <time>2016-12-05T21:15:09Z</time>
      </trkpt>
      <trkpt lat="46.16672" lon="1.82605">
        <ele>643</ele>
        <time>2016-12-05T21:17:09Z</time>
      </trkpt>
      <trkpt lat="46.16672" lon="1.82605">
        <ele>643</ele>
        <time>2016-12-05T21:19:09Z</time>
      </trkpt>
      <trkpt lat="46.16671" lon="1.82609">
        <ele>644</ele>
        <time>2016-12-05T21:21:09Z</time>
      </trkpt>
      <trkpt lat="46.16672" lon="1.82611">
        <ele>644</ele>
        <time>2016-12-05T21:23:09Z</time>
      </trkpt>
      <trkpt lat="46.16671" lon="1.82613">
        <ele>644</ele>
        <time>2016-12-05T21:25:09Z</time>
      </trkpt>
      <trkpt lat="46.16672" lon="1.82615">
        <ele>644</ele>
        <time>2016-12-05T21:27:09Z</time>
      </trkpt>
      <trkpt lat="46.16673" lon="1.82617">
        <ele>644</ele>
        <time>2016-12-05T21:29:09Z</time>
      </trkpt>
      <trkpt lat="46.16672" lon="1.8262">
        <ele>645</ele>
        <time>2016-12-05T21:31:09Z</time>
      </trkpt>
      <trkpt lat="46.16672" lon="1.82622">
        <ele>645</ele>
        <time>2016-12-05T21:33:09Z</time>
      </trkpt>
      <trkpt lat="46.16672" lon="1.82624">
        <ele>645</ele>
        <time>2016-12-05T21:35:09Z</time>
      </trkpt>
      <trkpt lat="46.16672" lon="1.82626">
        <ele>645</ele>
        <time>2016-12-05T21:37:09Z</time>
      </trkpt>
      <trkpt lat="46.16672" lon="1.82628">
        <ele>646</ele>
        <time>2016-12-05T21:39:09Z</time>
      </trkpt>
      <trkpt lat="46.16672" lon="1.8263">
        <ele>646</ele>
        <time>2016-12-05T21:41:09Z</time>
      </trkpt>
      <trkpt lat="46.16673" lon="1.82632">
        <ele>646</ele>
        <time>2016-12-05T21:43:09Z</time>
      </trkpt>
      <trkpt lat="46.16673" lon="1.82636">
        <ele>646</ele>
        <time>2016-12-05T21:45:09Z</time>
      </trkpt>
      <trkpt lat="46.16673" lon="1.82636">
        <ele>646</ele>
        <time>2016-12-05T21:47:09Z</time>
      </trkpt>
      <trkpt lat="46.16673" lon="1.82643">
        <ele>647</ele>
        <time>2016-12-05T21:49:09Z</time>
      </trkpt>
      <trkpt lat="46.16673" lon="1.82648">
        <ele>648</ele>
        <time>2016-12-05T21:51:09Z</time>
      </trkpt>
      <trkpt lat="46.16673" lon="1.8265">
        <ele>648</ele>
        <time>2016-12-05T21:53:09Z</time>
      </trkpt>
      <trkpt lat="46.16672" lon="1.82652">
        <ele>648</ele>
        <time>2016-12-05T21:55:09Z</time>
      </trkpt>
      <trkpt lat="46.16673" lon="1.82654">
        <ele>649</ele>
        <time>2016-12-05T21:57:09Z</time>
      </trkpt>
      <trkpt lat="46.16672" lon="1.82657">
        <ele>649</ele>
        <time>2016-12-05T21:59:09Z</time>
      </trkpt>
      <trkpt lat="46.16672" lon="1.82661">
        <ele>650</ele>
        <time>2016-12-05T22:01:09Z</time>
      </trkpt>
      <trkpt lat="46.16672" lon="1.82664">
        <ele>650</ele>
        <time>2016-12-05T22:03:09Z</time>
      </trkpt>
      <trkpt lat="46.16674" lon="1.82673">
        <ele>650</ele>
        <time>2016-12-05T22:05:09Z</time>
      </trkpt>
      <trkpt lat="46.16673" lon="1.82683">
        <ele>651</ele>
        <time>2016-12-05T22:07:09Z</time>
      </trkpt>
      <trkpt lat="46.16673" lon="1.82686">
        <ele>651</ele>
        <time>2016-12-05T22:09:09Z</time>
      </trkpt>
      <trkpt lat="46.16672" lon="1.82689">
        <ele>651</ele>
        <time>2016-12-05T22:11:09Z</time>
      </trkpt>
      <trkpt lat="46.16674" lon="1.82693">
        <ele>651</ele>
        <time>2016-12-05T22:13:09Z</time>
      </trkpt>
      <trkpt lat="46.16673" lon="1.82695">
        <ele>651</ele>
        <time>2016-12-05T22:15:09Z</time>
      </trkpt>
      <trkpt lat="46.16674" lon="1.82702">
        <ele>651</ele>
        <time>2016-12-05T22:17:09Z</time>
      </trkpt>
      <trkpt lat="46.16675" lon="1.82705">
        <ele>651</ele>
        <time>2016-12-05T22:19:09Z</time>
      </trkpt>
      <trkpt lat="46.16676" lon="1.82708">
        <ele>651</ele>
        <time>2016-12-05T22:21:09Z</time>
      </trkpt>
      <trkpt lat="46.16676" lon="1.82719">
        <ele>651</ele>
        <time>2016-12-05T22:23:09Z</time>
      </trkpt>
      <trkpt lat="46.16677" lon="1.82724">
        <ele>652</ele>
        <time>2016-12-05T22:25:09Z</time>
      </trkpt>
      <trkpt lat="46.16678" lon="1.82727">
        <ele>652</ele>
        <time>2016-12-05T22:27:09Z</time>
      </trkpt>
      <trkpt lat="46.16678" lon="1.8273">
        <ele>652</ele>
        <time>2016-12-05T22:29:09Z</time>
      </trkpt>
      <trkpt lat="46.16678" lon="1.82734">
        <ele>652</ele>
        <time>2016-12-05T22:31:09Z</time>
      </trkpt>
      <trkpt lat="46.16679" lon="1.82738">
        <ele>652</ele>
        <time>2016-12-05T22:33:09Z</time>
      </trkpt>
      <trkpt lat="46.16679" lon="1.82746">
        <ele>652</ele>
        <time>2016-12-05T22:35:09Z</time>
      </trkpt>
      <trkpt lat="46.16678" lon="1.8275">
        <ele>652</ele>
        <time>2016-12-05T22:37:09Z</time>
      </trkpt>
      <trkpt lat="46.16678" lon="1.82754">
        <ele>652</ele>
        <time>2016-12-05T22:39:09Z</time>
      </trkpt>
      <trkpt lat="46.16678" lon="1.82758">
        <ele>652</ele>
        <time>2016-12-05T22:41:09Z</time>
      </trkpt>
      <trkpt lat="46.16678" lon="1.82762">
        <ele>652</ele>
        <time>2016-12-05T22:43:09Z</time>
      </trkpt>
      <trkpt lat="46.16679" lon="1.82766">
        <ele>652</ele>
        <time>2016-12-05T22:45:09Z</time>
      </trkpt>
      <trkpt lat="46.16678" lon="1.82775">
        <ele>652</ele>
        <time>2016-12-05T22:47:09Z</time>
      </trkpt>
      <trkpt lat="46.16678" lon="1.82778">
        <ele>652</ele>
        <time>2016-12-05T22:49:09Z</time>
      </trkpt>
      <trkpt lat="46.16678" lon="1.82782">
        <ele>652</ele>
        <time>2016-12-05T22:51:09Z</time>
      </trkpt>
      <trkpt lat="46.16678" lon="1.8279">
        <ele>652</ele>
        <time>2016-12-05T22:53:09Z</time>
      </trkpt>
      <trkpt lat="46.16679" lon="1.82802">
        <ele>652</ele>
        <time>2016-12-05T22:55:09Z</time>
      </trkpt>
      <trkpt lat="46.1668" lon="1.82805">
        <ele>651</ele>
        <time>2016-12-05T22:57:09Z</time>
      </trkpt>
      <trkpt lat="46.1668" lon="1.8281">
        <ele>651</ele>
        <time>2016-12-05T22:59:09Z</time>
      </trkpt>
      <trkpt lat="46.1668" lon="1.82815">
        <ele>651</ele>
        <time>2016-12-05T23:01:09Z</time>
      </trkpt>
      <trkpt lat="46.1668" lon="1.82819">
        <ele>651</ele>
        <time>2016-12-05T23:03:09Z</time>
      </trkpt>
      <trkpt lat="46.16679" lon="1.82823">
        <ele>651</ele>
        <time>2016-12-05T23:05:09Z</time>
      </trkpt>
      <trkpt lat="46.16678" lon="1.82826">
        <ele>651</ele>
        <time>2016-12-05T23:07:09Z</time>
      </trkpt>
      <trkpt lat="46.16679" lon="1.82832">
        <ele>651</ele>
        <time>2016-12-05T23:09:09Z</time>
      </trkpt>
      <trkpt lat="46.16681" lon="1.82838">
        <ele>651</ele>
        <time>2016-12-05T23:11:09Z</time>
      </trkpt>
      <trkpt lat="46.16682" lon="1.82843">
        <ele>650</ele>
        <time>2016-12-05T23:13:09Z</time>
      </trkpt>
      <trkpt lat="46.16682" lon="1.82847">
        <ele>650</ele>
        <time>2016-12-05T23:15:09Z</time>
      </trkpt>
      <trkpt lat="46.16682" lon="1.82852">
        <ele>650</ele>
        <time>2016-12-05T23:17:09Z</time>
      </trkpt>
      <trkpt lat="46.16683" lon="1.82857">
        <ele>650</ele>
        <time>2016-12-05T23:19:09Z</time>
      </trkpt>
      <trkpt lat="46.16683" lon="1.8286">
        <ele>650</ele>
        <time>2016-12-05T23:21:09Z</time>
      </trkpt>
      <trkpt lat="46.16683" lon="1.82864">
        <ele>649</ele>
        <time>2016-12-05T23:23:09Z</time>
      </trkpt>
      <trkpt lat="46.16684" lon="1.82868">
        <ele>649</ele>
        <time>2016-12-05T23:25:09Z</time>
      </trkpt>
      <trkpt lat="46.16684" lon="1.82873">
        <ele>649</ele>
        <time>2016-12-05T23:27:09Z</time>
      </trkpt>
      <trkpt lat="46.16685" lon="1.82875">
        <ele>649</ele>
        <time>2016-12-05T23:29:09Z</time>
      </trkpt>
      <trkpt lat="46.16685" lon="1.82883">
        <ele>648</ele>
        <time>2016-12-05T23:31:09Z</time>
      </trkpt>
      <trkpt lat="46.16685" lon="1.82888">
        <ele>648</ele>
        <time>2016-12-05T23:33:09Z</time>
      </trkpt>
      <trkpt lat="46.16686" lon="1.82893">
        <ele>648</ele>
        <time>2016-12-05T23:35:09Z</time>
      </trkpt>
      <trkpt lat="46.16686" lon="1.82897">
        <ele>648</ele>
        <time>2016-12-05T23:37:09Z</time>
      </trkpt>
      <trkpt lat="46.16686" lon="1.82895">
        <ele>648</ele>
        <time>2016-12-05T23:39:09Z</time>
      </trkpt>
      <trkpt lat="46.16687" lon="1.82899">
        <ele>648</ele>
        <time>2016-12-05T23:41:09Z</time>
      </trkpt>
      <trkpt lat="46.16688" lon="1.82902">
        <ele>647</ele>
        <time>2016-12-05T23:43:09Z</time>
      </trkpt>
      <trkpt lat="46.16688" lon="1.82906">
        <ele>647</ele>
        <time>2016-12-05T23:45:09Z</time>
      </trkpt>
      <trkpt lat="46.16688" lon="1.8291">
        <ele>647</ele>
        <time>2016-12-05T23:47:09Z</time>
      </trkpt>
      <trkpt lat="46.1669" lon="1.82921">
        <ele>647</ele>
        <time>2016-12-05T23:49:09Z</time>
      </trkpt>
      <trkpt lat="46.1669" lon="1.82924">
        <ele>646</ele>
        <time>2016-12-05T23:51:09Z</time>
      </trkpt>
      <trkpt lat="46.16691" lon="1.82928">
        <ele>646</ele>
        <time>2016-12-05T23:53:09Z</time>
      </trkpt>
      <trkpt lat="46.16691" lon="1.82931">
        <ele>646</ele>
        <time>2016-12-05T23:55:09Z</time>
      </trkpt>
      <trkpt lat="46.16692" lon="1.82935">
        <ele>646</ele>
        <time>2016-12-05T23:57:09Z</time>
      </trkpt>
      <trkpt lat="46.16694" lon="1.82937">
        <ele>646</ele>
        <time>2016-12-05T23:59:09Z</time>
      </trkpt>
      <trkpt lat="46.16694" lon="1.8296">
        <ele>645</ele>
        <time>2016-12-06T00:01:09Z</time>
      </trkpt>
      <trkpt lat="46.16694" lon="1.82963">
        <ele>645</ele>
        <time>2016-12-06T00:03:09Z</time>
      </trkpt>
      <trkpt lat="46.16694" lon="1.82971">
        <ele>645</ele>
        <time>2016-12-06T00:05:09Z</time>
      </trkpt>
      <trkpt lat="46.16692" lon="1.82979">
        <ele>645</ele>
        <time>2016-12-06T00:07:09Z</time>
      </trkpt>
      <trkpt lat="46.1669" lon="1.82982">
        <ele>645</ele>
        <time>2016-12-06T00:09:09Z</time>
      </trkpt>
      <trkpt lat="46.16687" lon="1.82986">
        <ele>645</ele>
        <time>2016-12-06T00:11:09Z</time>
      </trkpt>
      <trkpt lat="46.16685" lon="1.8299">
        <ele>645</ele>
        <time>2016-12-06T00:13:09Z</time>
      </trkpt>
      <trkpt lat="46.16683" lon="1.82992">
        <ele>645</ele>
        <time>2016-12-06T00:15:09Z</time>
      </trkpt>
      <trkpt lat="46.1668" lon="1.82997">
        <ele>646</ele>
        <time>2016-12-06T00:17:09Z</time>
      </trkpt>
      <trkpt lat="46.1668" lon="1.83">
        <ele>646</ele>
        <time>2016-12-06T00:19:09Z</time>
      </trkpt>
      <trkpt lat="46.16679" lon="1.83003">
        <ele>645</ele>
        <time>2016-12-06T00:21:09Z</time>
      </trkpt>
      <trkpt lat="46.16679" lon="1.83008">
        <ele>645</ele>
        <time>2016-12-06T00:23:09Z</time>
      </trkpt>
      <trkpt lat="46.1668" lon="1.83011">
        <ele>645</ele>
        <time>2016-12-06T00:25:09Z</time>
      </trkpt>
      <trkpt lat="46.16679" lon="1.83023">
        <ele>644</ele>
        <time>2016-12-06T00:27:09Z</time>
      </trkpt>
      <trkpt lat="46.16678" lon="1.83032">
        <ele>644</ele>
        <time>2016-12-06T00:29:09Z</time>
      </trkpt>
      <trkpt lat="46.16677" lon="1.83035">
        <ele>644</ele>
        <time>2016-12-06T00:31:09Z</time>
      </trkpt>
      <trkpt lat="46.16677" lon="1.83039">
        <ele>644</ele>
        <time>2016-12-06T00:33:09Z</time>
      </trkpt>
      <trkpt lat="46.16679" lon="1.83051">
        <ele>643</ele>
        <time>2016-12-06T00:35:09Z</time>
      </trkpt>
      <trkpt lat="46.1668" lon="1.83056">
        <ele>642</ele>
        <time>2016-12-06T00:37:09Z</time>
      </trkpt>
      <trkpt lat="46.16679" lon="1.83063">
        <ele>642</ele>
        <time>2016-12-06T00:39:09Z</time>
      </trkpt>
      <trkpt lat="46.16678" lon="1.83086">
        <ele>641</ele>
        <time>2016-12-06T00:41:09Z</time>
      </trkpt>
      <trkpt lat="46.16677" lon="1.83093">
        <ele>641</ele>
        <time>2016-12-06T00:43:09Z</time>
      </trkpt>
      <trkpt lat="46.16674" lon="1.83106">
        <ele>640</ele>
        <time>2016-12-06T00:45:09Z</time>
      </trkpt>
      <trkpt lat="46.16673" lon="1.83111">
        <ele>640</ele>
        <time>2016-12-06T00:47:09Z</time>
      </trkpt>
      <trkpt lat="46.16671" lon="1.83115">
        <ele>640</ele>
        <time>2016-12-06T00:49:09Z</time>
      </trkpt>
      <trkpt lat="46.16669" lon="1.83121">
        <ele>640</ele>
        <time>2016-12-06T00:51:09Z</time>
      </trkpt>
      <trkpt lat="46.16666" lon="1.83128">
        <ele>639</ele>
        <time>2016-12-06T00:53:09Z</time>
      </trkpt>
      <trkpt lat="46.16664" lon="1.83135">
        <ele>639</ele>
        <time>2016-12-06T00:55:09Z</time>
      </trkpt>
      <trkpt lat="46.16664" lon="1.83139">
        <ele>639</ele>
        <time>2016-12-06T00:57:09Z</time>
      </trkpt>
      <trkpt lat="46.16665" lon="1.83144">
        <ele>638</ele>
        <time>2016-12-06T00:59:09Z</time>
      </trkpt>
      <trkpt lat="46.16666" lon="1.83148">
        <ele>638</ele>
        <time>2016-12-06T01:01:09Z</time>
      </trkpt>
      <trkpt lat="46.1667" lon="1.83153">
        <ele>638</ele>
        <time>2016-12-06T01:03:09Z</time>
      </trkpt>
      <trkpt lat="46.16672" lon="1.83155">
        <ele>637</ele>
        <time>2016-12-06T01:05:09Z</time>
      </trkpt>
      <trkpt lat="46.16676" lon="1.8316">
        <ele>637</ele>
        <time>2016-12-06T01:07:09Z</time>
      </trkpt>
      <trkpt lat="46.16679" lon="1.83164">
        <ele>637</ele>
        <time>2016-12-06T01:09:09Z</time>
      </trkpt>
      <trkpt lat="46.16683" lon="1.83169">
        <ele>636</ele>
        <time>2016-12-06T01:11:09Z</time>
      </trkpt>
      <trkpt lat="46.16684" lon="1.83172">
        <ele>636</ele>
        <time>2016-12-06T01:13:09Z</time>
      </trkpt>
      <trkpt lat="46.16686" lon="1.83175">
        <ele>636</ele>
        <time>2016-12-06T01:15:09Z</time>
      </trkpt>
      <trkpt lat="46.16688" lon="1.83183">
        <ele>635</ele>
        <time>2016-12-06T01:17:09Z</time>
      </trkpt>
      <trkpt lat="46.16688" lon="1.83187">
        <ele>635</ele>
        <time>2016-12-06T01:19:09Z</time>
      </trkpt>
      <trkpt lat="46.16688" lon="1.83191">
        <ele>635</ele>
        <time>2016-12-06T01:21:09Z</time>
      </trkpt>
      <trkpt lat="46.16687" lon="1.83199">
        <ele>635</ele>
        <time>2016-12-06T01:23:09Z</time>
      </trkpt>
      <trkpt lat="46.16686" lon="1.83204">
        <ele>634</ele>
        <time>2016-12-06T01:25:09Z</time>
      </trkpt>
      <trkpt lat="46.16687" lon="1.83207">
        <ele>634</ele>
        <time>2016-12-06T01:27:09Z</time>
      </trkpt>
      <trkpt lat="46.16686" lon="1.83211">
        <ele>634</ele>
        <time>2016-12-06T01:29:09Z</time>
      </trkpt>
      <trkpt lat="46.16687" lon="1.83214">
        <ele>634</ele>
        <time>2016-12-06T01:31:09Z</time>
      </trkpt>
      <trkpt lat="46.16689" lon="1.83217">
        <ele>634</ele>
        <time>2016-12-06T01:33:09Z</time>
      </trkpt>
      <trkpt lat="46.16691" lon="1.8322">
        <ele>633</ele>
        <time>2016-12-06T01:35:09Z</time>
      </trkpt>
      <trkpt lat="46.16692" lon="1.83223">
        <ele>633</ele>
        <time>2016-12-06T01:37:09Z</time>
      </trkpt>
      <trkpt lat="46.16694" lon="1.83225">
        <ele>633</ele>
        <time>2016-12-06T01:39:09Z</time>
      </trkpt>
      <trkpt lat="46.16696" lon="1.83227">
        <ele>633</ele>
        <time>2016-12-06T01:41:09Z</time>
      </trkpt>
      <trkpt lat="46.16697" lon="1.8323">
        <ele>633</ele>
        <time>2016-12-06T01:43:09Z</time>
      </trkpt>
      <trkpt lat="46.167" lon="1.83235">
        <ele>632</ele>
        <time>2016-12-06T01:45:09Z</time>
      </trkpt>
      <trkpt lat="46.16701" lon="1.83237">
        <ele>632</ele>
        <time>2016-12-06T01:47:09Z</time>
      </trkpt>
      <trkpt lat="46.16703" lon="1.83238">
        <ele>632</ele>
        <time>2016-12-06T01:49:09Z</time>
      </trkpt>
      <trkpt lat="46.16708" lon="1.83236">
        <ele>632</ele>
        <time>2016-12-06T01:51:09Z</time>
      </trkpt>
      <trkpt lat="46.16712" lon="1.83236">
        <ele>632</ele>
        <time>2016-12-06T01:53:09Z</time>
      </trkpt>
      <trkpt lat="46.16718" lon="1.83237">
        <ele>632</ele>
        <time>2016-12-06T01:55:09Z</time>
      </trkpt>
      <trkpt lat="46.1672" lon="1.83238">
        <ele>632</ele>
        <time>2016-12-06T01:57:09Z</time>
      </trkpt>
      <trkpt lat="46.16723" lon="1.83239">
        <ele>631</ele>
        <time>2016-12-06T01:59:09Z</time>
      </trkpt>
      <trkpt lat="46.16729" lon="1.83237">
        <ele>631</ele>
        <time>2016-12-06T02:01:09Z</time>
      </trkpt>
      <trkpt lat="46.16736" lon="1.83238">
        <ele>631</ele>
        <time>2016-12-06T02:03:09Z</time>
      </trkpt>
      <trkpt lat="46.16739" lon="1.83237">
        <ele>631</ele>
        <time>2016-12-06T02:05:09Z</time>
      </trkpt>
      <trkpt lat="46.16742" lon="1.83235">
        <ele>631</ele>
        <time>2016-12-06T02:07:09Z</time>
      </trkpt>
      <trkpt lat="46.16744" lon="1.83233">
        <ele>631</ele>
        <time>2016-12-06T02:09:09Z</time>
      </trkpt>
      <trkpt lat="46.16746" lon="1.83232">
        <ele>631</ele>
        <time>2016-12-06T02:11:09Z</time>
      </trkpt>
      <trkpt lat="46.16751" lon="1.8323">
        <ele>631</ele>
        <time>2016-12-06T02:13:09Z</time>
      </trkpt>
      <trkpt lat="46.16753" lon="1.83228">
        <ele>630</ele>
        <time>2016-12-06T02:15:09Z</time>
      </trkpt>
      <trkpt lat="46.16755" lon="1.83225">
        <ele>630</ele>
        <time>2016-12-06T02:17:09Z</time>
      </trkpt>
      <trkpt lat="46.16757" lon="1.83224">
        <ele>630</ele>
        <time>2016-12-06T02:19:09Z</time>
      </trkpt>
      <trkpt lat="46.16761" lon="1.83222">
        <ele>629</ele>
        <time>2016-12-06T02:21:09Z</time>
      </trkpt>
      <trkpt lat="46.16766" lon="1.83218">
        <ele>629</ele>
        <time>2016-12-06T02:23:09Z</time>
      </trkpt>
      <trkpt lat="46.16768" lon="1.83215">
        <ele>629</ele>
        <time>2016-12-06T02:25:09Z</time>
      </trkpt>
      <trkpt lat="46.16774" lon="1.83211">
        <ele>628</ele>
        <time>2016-12-06T02:27:09Z</time>
      </trkpt>
      <trkpt lat="46.16781" lon="1.83207">
        <ele>627</ele>
        <time>2016-12-06T02:29:09Z</time>
      </trkpt>
      <trkpt lat="46.1679" lon="1.83199">
        <ele>626</ele>
        <time>2016-12-06T02:31:09Z</time>
      </trkpt>
      <trkpt lat="46.16797" lon="1.83196">
        <ele>625</ele>
        <time>2016-12-06T02:33:09Z</time>
      </trkpt>
      <trkpt lat="46.168" lon="1.83195">
        <ele>625</ele>
        <time>2016-12-06T02:35:09Z</time>
      </trkpt>
      <trkpt lat="46.16802" lon="1.83194">
        <ele>625</ele>
        <time>2016-12-06T02:37:09Z</time>
      </trkpt>
      <trkpt lat="46.16805" lon="1.83192">
        <ele>624</ele>
        <time>2016-12-06T02:39:09Z</time>
      </trkpt>
      <trkpt lat="46.1681" lon="1.83188">
        <ele>624</ele>
        <time>2016-12-06T02:41:09Z</time>
      </trkpt>
      <trkpt lat="46.1682" lon="1.83182">
        <ele>623</ele>
        <time>2016-12-06T02:43:09Z</time>
      </trkpt>
      <trkpt lat="46.16823" lon="1.83181">
        <ele>622</ele>
        <time>2016-12-06T02:45:09Z</time>
      </trkpt>
      <trkpt lat="46.16827" lon="1.83177">
        <ele>622</ele>
        <time>2016-12-06T02:47:09Z</time>
      </trkpt>
      <trkpt lat="46.16832" lon="1.83173">
        <ele>622</ele>
        <time>2016-12-06T02:49:09Z</time>
      </trkpt>
      <trkpt lat="46.16834" lon="1.83171">
        <ele>622</ele>
        <time>2016-12-06T02:51:09Z</time>
      </trkpt>
      <trkpt lat="46.16836" lon="1.83169">
        <ele>621</ele>
        <time>2016-12-06T02:53:09Z</time>
      </trkpt>
      <trkpt lat="46.1684" lon="1.83165">
        <ele>621</ele>
        <time>2016-12-06T02:55:09Z</time>
      </trkpt>
      <trkpt lat="46.16842" lon="1.83162">
        <ele>621</ele>
        <time>2016-12-06T02:57:09Z</time>
      </trkpt>
      <trkpt lat="46.16847" lon="1.83159">
        <ele>620</ele>
        <time>2016-12-06T02:59:09Z</time>
      </trkpt>
      <trkpt lat="46.16852" lon="1.83154">
        <ele>619</ele>
        <time>2016-12-06T03:01:09Z</time>
      </trkpt>
      <trkpt lat="46.16856" lon="1.83152">
        <ele>619</ele>
        <time>2016-12-06T03:03:09Z</time>
      </trkpt>
      <trkpt lat="46.16867" lon="1.83146">
        <ele>617</ele>
        <time>2016-12-06T03:05:09Z</time>
      </trkpt>
      <trkpt lat="46.1687" lon="1.83145">
        <ele>616</ele>
        <time>2016-12-06T03:07:09Z</time>
      </trkpt>
      <trkpt lat="46.16874" lon="1.83147">
        <ele>616</ele>
        <time>2016-12-06T03:09:09Z</time>
      </trkpt>
      <trkpt lat="46.16877" lon="1.83148">
        <ele>615</ele>
        <time>2016-12-06T03:11:09Z</time>
      </trkpt>
      <trkpt lat="46.16883" lon="1.83148">
        <ele>614</ele>
        <time>2016-12-06T03:13:09Z</time>
      </trkpt>
      <trkpt lat="46.16887" lon="1.83149">
        <ele>613</ele>
        <time>2016-12-06T03:15:09Z</time>
      </trkpt>
      <trkpt lat="46.16892" lon="1.83152">
        <ele>612</ele>
        <time>2016-12-06T03:17:09Z</time>
      </trkpt>
      <trkpt lat="46.16895" lon="1.83154">
        <ele>612</ele>
        <time>2016-12-06T03:19:09Z</time>
      </trkpt>
      <trkpt lat="46.16896" lon="1.83156">
        <ele>612</ele>
        <time>2016-12-06T03:21:09Z</time>
      </trkpt>
      <trkpt lat="46.16898" lon="1.83157">
        <ele>611</ele>
        <time>2016-12-06T03:23:09Z</time>
      </trkpt>
      <trkpt lat="46.16901" lon="1.83158">
        <ele>611</ele>
        <time>2016-12-06T03:25:09Z</time>
      </trkpt>
      <trkpt lat="46.16905" lon="1.83162">
        <ele>610</ele>
        <time>2016-12-06T03:27:09Z</time>
      </trkpt>
      <trkpt lat="46.16907" lon="1.83164">
        <ele>610</ele>
        <time>2016-12-06T03:29:09Z</time>
      </trkpt>
      <trkpt lat="46.1691" lon="1.83171">
        <ele>609</ele>
        <time>2016-12-06T03:31:09Z</time>
      </trkpt>
      <trkpt lat="46.16912" lon="1.83174">
        <ele>608</ele>
        <time>2016-12-06T03:33:09Z</time>
      </trkpt>
      <trkpt lat="46.16911" lon="1.83177">
        <ele>608</ele>
        <time>2016-12-06T03:35:09Z</time>
      </trkpt>
      <trkpt lat="46.16907" lon="1.83184">
        <ele>607</ele>
        <time>2016-12-06T03:37:09Z</time>
      </trkpt>
      <trkpt lat="46.16906" lon="1.83187">
        <ele>607</ele>
        <time>2016-12-06T03:39:09Z</time>
      </trkpt>
      <trkpt lat="46.16906" lon="1.83189">
        <ele>607</ele>
        <time>2016-12-06T03:41:09Z</time>
      </trkpt>
      <trkpt lat="46.16907" lon="1.83192">
        <ele>606</ele>
        <time>2016-12-06T03:43:09Z</time>
      </trkpt>
      <trkpt lat="46.16907" lon="1.83192">
        <ele>606</ele>
        <time>2016-12-06T03:45:09Z</time>
      </trkpt>
      <trkpt lat="46.16906" lon="1.83193">
        <ele>606</ele>
        <time>2016-12-06T03:47:09Z</time>
      </trkpt>
      <trkpt lat="46.16909" lon="1.83196">
        <ele>605</ele>
        <time>2016-12-06T03:49:09Z</time>
      </trkpt>
      <trkpt lat="46.1691" lon="1.83196">
        <ele>605</ele>
        <time>2016-12-06T03:51:09Z</time>
      </trkpt>
      <trkpt lat="46.16912" lon="1.83198">
        <ele>604</ele>
        <time>2016-12-06T03:53:09Z</time>
      </trkpt>
      <trkpt lat="46.16913" lon="1.83199">
        <ele>604</ele>
        <time>2016-12-06T03:55:09Z</time>
      </trkpt>
      <trkpt lat="46.16915" lon="1.83199">
        <ele>604</ele>
        <time>2016-12-06T03:57:09Z</time>
      </trkpt>
      <trkpt lat="46.16916" lon="1.832">
        <ele>603</ele>
        <time>2016-12-06T03:59:09Z</time>
      </trkpt>
      <trkpt lat="46.16918" lon="1.83201">
        <ele>603</ele>
        <time>2016-12-06T04:01:09Z</time>
      </trkpt>
      <trkpt lat="46.16921" lon="1.83201">
        <ele>602</ele>
        <time>2016-12-06T04:03:09Z</time>
      </trkpt>
      <trkpt lat="46.16927" lon="1.83205">
        <ele>599</ele>
        <time>2016-12-06T04:05:09Z</time>
      </trkpt>
      <trkpt lat="46.16929" lon="1.83207">
        <ele>598</ele>
        <time>2016-12-06T04:07:09Z</time>
      </trkpt>
      <trkpt lat="46.16931" lon="1.83209">
        <ele>597</ele>
        <time>2016-12-06T04:09:09Z</time>
      </trkpt>
      <trkpt lat="46.16933" lon="1.8321">
        <ele>596</ele>
        <time>2016-12-06T04:11:09Z</time>
      </trkpt>
      <trkpt lat="46.16936" lon="1.83212">
        <ele>595</ele>
        <time>2016-12-06T04:13:09Z</time>
      </trkpt>
      <trkpt lat="46.16937" lon="1.83213">
        <ele>595</ele>
        <time>2016-12-06T04:15:09Z</time>
      </trkpt>
      <trkpt lat="46.16938" lon="1.83214">
        <ele>594</ele>
        <time>2016-12-06T04:17:09Z</time>
      </trkpt>
      <trkpt lat="46.1694" lon="1.83215">
        <ele>593</ele>
        <time>2016-12-06T04:19:09Z</time>
      </trkpt>
      <trkpt lat="46.16942" lon="1.83217">
        <ele>592</ele>
        <time>2016-12-06T04:21:09Z</time>
      </trkpt>
      <trkpt lat="46.16946" lon="1.83218">
        <ele>591</ele>
        <time>2016-12-06T04:23:09Z</time>
      </trkpt>
      <trkpt lat="46.16948" lon="1.8322">
        <ele>590</ele>
        <time>2016-12-06T04:25:09Z</time>
      </trkpt>
      <trkpt lat="46.16949" lon="1.83222">
        <ele>589</ele>
        <time>2016-12-06T04:27:09Z</time>
      </trkpt>
      <trkpt lat="46.16951" lon="1.83222">
        <ele>589</ele>
        <time>2016-12-06T04:29:09Z</time>
      </trkpt>
      <trkpt lat="46.16954" lon="1.83224">
        <ele>587</ele>
        <time>2016-12-06T04:31:09Z</time>
      </trkpt>
      <trkpt lat="46.16955" lon="1.83225">
        <ele>587</ele>
        <time>2016-12-06T04:33:09Z</time>
      </trkpt>
      <trkpt lat="46.16959" lon="1.83226">
        <ele>585</ele>
        <time>2016-12-06T04:35:09Z</time>
      </trkpt>
      <trkpt lat="46.16961" lon="1.83226">
        <ele>585</ele>
        <time>2016-12-06T04:37:09Z</time>
      </trkpt>
      <trkpt lat="46.16963" lon="1.83226">
        <ele>584</ele>
        <time>2016-12-06T04:39:09Z</time>
      </trkpt>
      <trkpt lat="46.16963" lon="1.83224">
        <ele>584</ele>
        <time>2016-12-06T04:41:09Z</time>
      </trkpt>
      <trkpt lat="46.16963" lon="1.83217">
        <ele>586</ele>
        <time>2016-12-06T04:43:09Z</time>
      </trkpt>
      <trkpt lat="46.16963" lon="1.83215">
        <ele>586</ele>
        <time>2016-12-06T04:45:09Z</time>
      </trkpt>
      <trkpt lat="46.16964" lon="1.83207">
        <ele>587</ele>
        <time>2016-12-06T04:47:09Z</time>
      </trkpt>
      <trkpt lat="46.16965" lon="1.83203">
        <ele>587</ele>
        <time>2016-12-06T04:49:09Z</time>
      </trkpt>
      <trkpt lat="46.16965" lon="1.83199">
        <ele>588</ele>
        <time>2016-12-06T04:51:09Z</time>
      </trkpt>
      <trkpt lat="46.16965" lon="1.83192">
        <ele>589</ele>
        <time>2016-12-06T04:53:09Z</time>
      </trkpt>
      <trkpt lat="46.16965" lon="1.83189">
        <ele>590</ele>
        <time>2016-12-06T04:55:09Z</time>
      </trkpt>
      <trkpt lat="46.16965" lon="1.83185">
        <ele>590</ele>
        <time>2016-12-06T04:57:09Z</time>
      </trkpt>
      <trkpt lat="46.16966" lon="1.83182">
        <ele>591</ele>
        <time>2016-12-06T04:59:09Z</time>
      </trkpt>
      <trkpt lat="46.16966" lon="1.8318">
        <ele>591</ele>
        <time>2016-12-06T05:01:09Z</time>
      </trkpt>
      <trkpt lat="46.16968" lon="1.83178">
        <ele>591</ele>
        <time>2016-12-06T05:03:09Z</time>
      </trkpt>
      <trkpt lat="46.16969" lon="1.83175">
        <ele>591</ele>
        <time>2016-12-06T05:05:09Z</time>
      </trkpt>
      <trkpt lat="46.1697" lon="1.83173">
        <ele>591</ele>
        <time>2016-12-06T05:07:09Z</time>
      </trkpt>
      <trkpt lat="46.16971" lon="1.83171">
        <ele>591</ele>
        <time>2016-12-06T05:09:09Z</time>
      </trkpt>
      <trkpt lat="46.16971" lon="1.83169">
        <ele>591</ele>
        <time>2016-12-06T05:11:09Z</time>
      </trkpt>
      <trkpt lat="46.16972" lon="1.83165">
        <ele>591</ele>
        <time>2016-12-06T05:13:09Z</time>
      </trkpt>
      <trkpt lat="46.16973" lon="1.83163">
        <ele>591</ele>
        <time>2016-12-06T05:15:09Z</time>
      </trkpt>
      <trkpt lat="46.16974" lon="1.83161">
        <ele>591</ele>
        <time>2016-12-06T05:17:09Z</time>
      </trkpt>
      <trkpt lat="46.16975" lon="1.83158">
        <ele>591</ele>
        <time>2016-12-06T05:19:09Z</time>
      </trkpt>
      <trkpt lat="46.16975" lon="1.83154">
        <ele>591</ele>
        <time>2016-12-06T05:21:09Z</time>
      </trkpt>
      <trkpt lat="46.16975" lon="1.83151">
        <ele>591</ele>
        <time>2016-12-06T05:23:09Z</time>
      </trkpt>
      <trkpt lat="46.16975" lon="1.83146">
        <ele>591</ele>
        <time>2016-12-06T05:25:09Z</time>
      </trkpt>
      <trkpt lat="46.16976" lon="1.83139">
        <ele>591</ele>
        <time>2016-12-06T05:27:09Z</time>
      </trkpt>
      <trkpt lat="46.16975" lon="1.83137">
        <ele>592</ele>
        <time>2016-12-06T05:29:09Z</time>
      </trkpt>
      <trkpt lat="46.16975" lon="1.83134">
        <ele>592</ele>
        <time>2016-12-06T05:31:09Z</time>
      </trkpt>
      <trkpt lat="46.16976" lon="1.83132">
        <ele>592</ele>
        <time>2016-12-06T05:33:09Z</time>
      </trkpt>
      <trkpt lat="46.16976" lon="1.83129">
        <ele>592</ele>
        <time>2016-12-06T05:35:09Z</time>
      </trkpt>
      <trkpt lat="46.16976" lon="1.83121">
        <ele>592</ele>
        <time>2016-12-06T05:37:09Z</time>
      </trkpt>
      <trkpt lat="46.16976" lon="1.83119">
        <ele>592</ele>
        <time>2016-12-06T05:39:09Z</time>
      </trkpt>
      <trkpt lat="46.16977" lon="1.83112">
        <ele>592</ele>
        <time>2016-12-06T05:41:09Z</time>
      </trkpt>
      <trkpt lat="46.16977" lon="1.8311">
        <ele>593</ele>
        <time>2016-12-06T05:43:09Z</time>
      </trkpt>
      <trkpt lat="46.16978" lon="1.83105">
        <ele>593</ele>
        <time>2016-12-06T05:45:09Z</time>
      </trkpt>
      <trkpt lat="46.1698" lon="1.83088">
        <ele>593</ele>
        <time>2016-12-06T05:47:09Z</time>
      </trkpt>
      <trkpt lat="46.16981" lon="1.83083">
        <ele>593</ele>
        <time>2016-12-06T05:49:09Z</time>
      </trkpt>
      <trkpt lat="46.16981" lon="1.83075">
        <ele>593</ele>
        <time>2016-12-06T05:51:09Z</time>
      </trkpt>
      <trkpt lat="46.16982" lon="1.8307">
        <ele>593</ele>
        <time>2016-12-06T05:53:09Z</time>
      </trkpt>
      <trkpt lat="46.16982" lon="1.83065">
        <ele>593</ele>
        <time>2016-12-06T05:55:09Z</time>
      </trkpt>
      <trkpt lat="46.16983" lon="1.83061">
        <ele>592</ele>
        <time>2016-12-06T05:57:09Z</time>
      </trkpt>
      <trkpt lat="46.16983" lon="1.83057">
        <ele>592</ele>
        <time>2016-12-06T05:59:09Z</time>
      </trkpt>
      <trkpt lat="46.16984" lon="1.83048">
        <ele>592</ele>
        <time>2016-12-06T06:01:09Z</time>
      </trkpt>
      <trkpt lat="46.16985" lon="1.83039">
        <ele>592</ele>
        <time>2016-12-06T06:03:09Z</time>
      </trkpt>
      <trkpt lat="46.16986" lon="1.83032">
        <ele>592</ele>
        <time>2016-12-06T06:05:09Z</time>
      </trkpt>
      <trkpt lat="46.16989" lon="1.83025">
        <ele>591</ele>
        <time>2016-12-06T06:07:09Z</time>
      </trkpt>
      <trkpt lat="46.16991" lon="1.83017">
        <ele>591</ele>
        <time>2016-12-06T06:09:09Z</time>
      </trkpt>
      <trkpt lat="46.16996" lon="1.83002">
        <ele>590</ele>
        <time>2016-12-06T06:11:09Z</time>
      </trkpt>
      <trkpt lat="46.16997" lon="1.82999">
        <ele>590</ele>
        <time>2016-12-06T06:13:09Z</time>
      </trkpt>
      <trkpt lat="46.17005" lon="1.82982">
        <ele>589</ele>
        <time>2016-12-06T06:15:09Z</time>
      </trkpt>
      <trkpt lat="46.17006" lon="1.82979">
        <ele>589</ele>
        <time>2016-12-06T06:17:09Z</time>
      </trkpt>
      <trkpt lat="46.17008" lon="1.82975">
        <ele>588</ele>
        <time>2016-12-06T06:19:09Z</time>
      </trkpt>
      <trkpt lat="46.17009" lon="1.82972">
        <ele>588</ele>
        <time>2016-12-06T06:21:09Z</time>
      </trkpt>
      <trkpt lat="46.17016" lon="1.82956">
        <ele>587</ele>
        <time>2016-12-06T06:23:09Z</time>
      </trkpt>
      <trkpt lat="46.17018" lon="1.82948">
        <ele>587</ele>
        <time>2016-12-06T06:25:09Z</time>
      </trkpt>
      <trkpt lat="46.1702" lon="1.82932">
        <ele>588</ele>
        <time>2016-12-06T06:27:09Z</time>
      </trkpt>
      <trkpt lat="46.17021" lon="1.82928">
        <ele>588</ele>
        <time>2016-12-06T06:29:09Z</time>
      </trkpt>
      <trkpt lat="46.17025" lon="1.82918">
        <ele>588</ele>
        <time>2016-12-06T06:31:09Z</time>
      </trkpt>
      <trkpt lat="46.17025" lon="1.82915">
        <ele>588</ele>
        <time>2016-12-06T06:33:09Z</time>
      </trkpt>
      <trkpt lat="46.17026" lon="1.8291">
        <ele>587</ele>
        <time>2016-12-06T06:35:09Z</time>
      </trkpt>
      <trkpt lat="46.17026" lon="1.82903">
        <ele>587</ele>
        <time>2016-12-06T06:37:09Z</time>
      </trkpt>
      <trkpt lat="46.17025" lon="1.82892">
        <ele>588</ele>
        <time>2016-12-06T06:39:09Z</time>
      </trkpt>
      <trkpt lat="46.17023" lon="1.82884">
        <ele>588</ele>
        <time>2016-12-06T06:41:09Z</time>
      </trkpt>
      <trkpt lat="46.17019" lon="1.82867">
        <ele>589</ele>
        <time>2016-12-06T06:43:09Z</time>
      </trkpt>
      <trkpt lat="46.17019" lon="1.82864">
        <ele>589</ele>
        <time>2016-12-06T06:45:09Z</time>
      </trkpt>
      <trkpt lat="46.17018" lon="1.82848">
        <ele>589</ele>
        <time>2016-12-06T06:47:09Z</time>
      </trkpt>
      <trkpt lat="46.17018" lon="1.82844">
        <ele>589</ele>
        <time>2016-12-06T06:49:09Z</time>
      </trkpt>
      <trkpt lat="46.17018" lon="1.82832">
        <ele>589</ele>
        <time>2016-12-06T06:51:09Z</time>
      </trkpt>
      <trkpt lat="46.17017" lon="1.82828">
        <ele>588</ele>
        <time>2016-12-06T06:53:09Z</time>
      </trkpt>
      <trkpt lat="46.17017" lon="1.8282">
        <ele>588</ele>
        <time>2016-12-06T06:55:09Z</time>
      </trkpt>
      <trkpt lat="46.17016" lon="1.82816">
        <ele>588</ele>
        <time>2016-12-06T06:57:09Z</time>
      </trkpt>
      <trkpt lat="46.17015" lon="1.82804">
        <ele>587</ele>
        <time>2016-12-06T06:59:09Z</time>
      </trkpt>
      <trkpt lat="46.17015" lon="1.82792">
        <ele>586</ele>
        <time>2016-12-06T07:01:09Z</time>
      </trkpt>
      <trkpt lat="46.17015" lon="1.82788">
        <ele>585</ele>
        <time>2016-12-06T07:03:09Z</time>
      </trkpt>
      <trkpt lat="46.17015" lon="1.82783">
        <ele>585</ele>
        <time>2016-12-06T07:05:09Z</time>
      </trkpt>
      <trkpt lat="46.17015" lon="1.82779">
        <ele>585</ele>
        <time>2016-12-06T07:07:09Z</time>
      </trkpt>
      <trkpt lat="46.17015" lon="1.82771">
        <ele>584</ele>
        <time>2016-12-06T07:09:09Z</time>
      </trkpt>
      <trkpt lat="46.17014" lon="1.82764">
        <ele>584</ele>
        <time>2016-12-06T07:11:09Z</time>
      </trkpt>
      <trkpt lat="46.17012" lon="1.82748">
        <ele>583</ele>
        <time>2016-12-06T07:13:09Z</time>
      </trkpt>
      <trkpt lat="46.17012" lon="1.82746">
        <ele>582</ele>
        <time>2016-12-06T07:15:09Z</time>
      </trkpt>
      <trkpt lat="46.17011" lon="1.82742">
        <ele>582</ele>
        <time>2016-12-06T07:17:09Z</time>
      </trkpt>
      <trkpt lat="46.17012" lon="1.82736">
        <ele>581</ele>
        <time>2016-12-06T07:19:09Z</time>
      </trkpt>
      <trkpt lat="46.17011" lon="1.82727">
        <ele>581</ele>
        <time>2016-12-06T07:21:09Z</time>
      </trkpt>
      <trkpt lat="46.17011" lon="1.82713">
        <ele>579</ele>
        <time>2016-12-06T07:23:09Z</time>
      </trkpt>
      <trkpt lat="46.1701" lon="1.82708">
        <ele>579</ele>
        <time>2016-12-06T07:25:09Z</time>
      </trkpt>
      <trkpt lat="46.1701" lon="1.82704">
        <ele>579</ele>
        <time>2016-12-06T07:27:09Z</time>
      </trkpt>
      <trkpt lat="46.1701" lon="1.82699">
        <ele>578</ele>
        <time>2016-12-06T07:29:09Z</time>
      </trkpt>
      <trkpt lat="46.1701" lon="1.8269">
        <ele>577</ele>
        <time>2016-12-06T07:31:09Z</time>
      </trkpt>
      <trkpt lat="46.17009" lon="1.82674">
        <ele>576</ele>
        <time>2016-12-06T07:33:09Z</time>
      </trkpt>
      <trkpt lat="46.17008" lon="1.8267">
        <ele>576</ele>
        <time>2016-12-06T07:35:09Z</time>
      </trkpt>
      <trkpt lat="46.17007" lon="1.82665">
        <ele>576</ele>
        <time>2016-12-06T07:37:09Z</time>
      </trkpt>
      <trkpt lat="46.17007" lon="1.82654">
        <ele>575</ele>
        <time>2016-12-06T07:39:09Z</time>
      </trkpt>
      <trkpt lat="46.17006" lon="1.82651">
        <ele>575</ele>
        <time>2016-12-06T07:41:09Z</time>
      </trkpt>
      <trkpt lat="46.17006" lon="1.82643">
        <ele>574</ele>
        <time>2016-12-06T07:43:09Z</time>
      </trkpt>
      <trkpt lat="46.17006" lon="1.82641">
        <ele>574</ele>
        <time>2016-12-06T07:45:09Z</time>
      </trkpt>
      <trkpt lat="46.17006" lon="1.82637">
        <ele>573</ele>
        <time>2016-12-06T07:47:09Z</time>
      </trkpt>
      <trkpt lat="46.17006" lon="1.82623">
        <ele>572</ele>
        <time>2016-12-06T07:49:09Z</time>
      </trkpt>
      <trkpt lat="46.17005" lon="1.82618">
        <ele>572</ele>
        <time>2016-12-06T07:51:09Z</time>
      </trkpt>
      <trkpt lat="46.17004" lon="1.82615">
        <ele>572</ele>
        <time>2016-12-06T07:53:09Z</time>
      </trkpt>
      <trkpt lat="46.17005" lon="1.82611">
        <ele>571</ele>
        <time>2016-12-06T07:55:09Z</time>
      </trkpt>
      <trkpt lat="46.17004" lon="1.826">
        <ele>570</ele>
        <time>2016-12-06T07:57:09Z</time>
      </trkpt>
      <trkpt lat="46.17005" lon="1.82597">
        <ele>570</ele>
        <time>2016-12-06T07:59:09Z</time>
      </trkpt>
      <trkpt lat="46.17005" lon="1.82594">
        <ele>569</ele>
        <time>2016-12-06T08:01:09Z</time>
      </trkpt>
      <trkpt lat="46.17003" lon="1.82589">
        <ele>570</ele>
        <time>2016-12-06T08:03:09Z</time>
      </trkpt>
      <trkpt lat="46.17004" lon="1.82578">
        <ele>568</ele>
        <time>2016-12-06T08:05:09Z</time>
      </trkpt>
      <trkpt lat="46.17003" lon="1.82574">
        <ele>568</ele>
        <time>2016-12-06T08:07:09Z</time>
      </trkpt>
      <trkpt lat="46.17003" lon="1.8257">
        <ele>568</ele>
        <time>2016-12-06T08:09:09Z</time>
      </trkpt>
      <trkpt lat="46.17003" lon="1.82564">
        <ele>567</ele>
        <time>2016-12-06T08:11:09Z</time>
      </trkpt>
      <trkpt lat="46.17003" lon="1.82554">
        <ele>566</ele>
        <time>2016-12-06T08:13:09Z</time>
      </trkpt>
      <trkpt lat="46.17004" lon="1.8255">
        <ele>565</ele>
        <time>2016-12-06T08:15:09Z</time>
      </trkpt>
      <trkpt lat="46.17004" lon="1.82545">
        <ele>565</ele>
        <time>2016-12-06T08:17:09Z</time>
      </trkpt>
      <trkpt lat="46.17002" lon="1.82535">
        <ele>564</ele>
        <time>2016-12-06T08:19:09Z</time>
      </trkpt>
      <trkpt lat="46.17002" lon="1.82532">
        <ele>564</ele>
        <time>2016-12-06T08:21:09Z</time>
      </trkpt>
      <trkpt lat="46.17001" lon="1.82529">
        <ele>564</ele>
        <time>2016-12-06T08:23:09Z</time>
      </trkpt>
      <trkpt lat="46.17" lon="1.82526">
        <ele>564</ele>
        <time>2016-12-06T08:25:09Z</time>
      </trkpt>
      <trkpt lat="46.17" lon="1.82522">
        <ele>563</ele>
        <time>2016-12-06T08:27:09Z</time>
      </trkpt>
      <trkpt lat="46.17" lon="1.82518">
        <ele>563</ele>
        <time>2016-12-06T08:29:09Z</time>
      </trkpt>
      <trkpt lat="46.17" lon="1.82515">
        <ele>563</ele>
        <time>2016-12-06T08:31:09Z</time>
      </trkpt>
      <trkpt lat="46.17" lon="1.82513">
        <ele>562</ele>
        <time>2016-12-06T08:33:09Z</time>
      </trkpt>
      <trkpt lat="46.17" lon="1.8251">
        <ele>562</ele>
        <time>2016-12-06T08:35:09Z</time>
      </trkpt>
      <trkpt lat="46.17" lon="1.82508">
        <ele>562</ele>
        <time>2016-12-06T08:37:09Z</time>
      </trkpt>
      <trkpt lat="46.17001" lon="1.82504">
        <ele>561</ele>
        <time>2016-12-06T08:39:09Z</time>
      </trkpt>
      <trkpt lat="46.17002" lon="1.82501">
        <ele>561</ele>
        <time>2016-12-06T08:41:09Z</time>
      </trkpt>
      <trkpt lat="46.17001" lon="1.82493">
        <ele>560</ele>
        <time>2016-12-06T08:43:09Z</time>
      </trkpt>
      <trkpt lat="46.17002" lon="1.82481">
        <ele>559</ele>
        <time>2016-12-06T08:45:09Z</time>
      </trkpt>
      <trkpt lat="46.17002" lon="1.82477">
        <ele>559</ele>
        <time>2016-12-06T08:47:09Z</time>
      </trkpt>
      <trkpt lat="46.17001" lon="1.82473">
        <ele>559</ele>
        <time>2016-12-06T08:49:09Z</time>
      </trkpt>
      <trkpt lat="46.17" lon="1.82469">
        <ele>559</ele>
        <time>2016-12-06T08:51:09Z</time>
      </trkpt>
      <trkpt lat="46.16999" lon="1.82467">
        <ele>559</ele>
        <time>2016-12-06T08:53:09Z</time>
      </trkpt>
      <trkpt lat="46.16999" lon="1.82459">
        <ele>558</ele>
        <time>2016-12-06T08:55:09Z</time>
      </trkpt>
      <trkpt lat="46.16998" lon="1.82456">
        <ele>559</ele>
        <time>2016-12-06T08:57:09Z</time>
      </trkpt>
      <trkpt lat="46.16998" lon="1.82453">
        <ele>558</ele>
        <time>2016-12-06T08:59:09Z</time>
      </trkpt>
      <trkpt lat="46.16995" lon="1.82448">
        <ele>559</ele>
        <time>2016-12-06T09:01:09Z</time>
      </trkpt>
      <trkpt lat="46.16994" lon="1.82446">
        <ele>559</ele>
        <time>2016-12-06T09:03:09Z</time>
      </trkpt>
      <trkpt lat="46.16993" lon="1.82445">
        <ele>559</ele>
        <time>2016-12-06T09:05:09Z</time>
      </trkpt>
      <trkpt lat="46.16992" lon="1.82444">
        <ele>560</ele>
        <time>2016-12-06T09:07:09Z</time>
      </trkpt>
      <trkpt lat="46.16991" lon="1.82442">
        <ele>560</ele>
        <time>2016-12-06T09:09:09Z</time>
      </trkpt>
      <trkpt lat="46.16988" lon="1.8244">
        <ele>561</ele>
        <time>2016-12-06T09:11:09Z</time>
      </trkpt>
      <trkpt lat="46.16987" lon="1.8244">
        <ele>561</ele>
        <time>2016-12-06T09:13:09Z</time>
      </trkpt>
      <trkpt lat="46.16981" lon="1.82436">
        <ele>563</ele>
        <time>2016-12-06T09:15:09Z</time>
      </trkpt>
      <trkpt lat="46.16979" lon="1.82434">
        <ele>563</ele>
        <time>2016-12-06T09:17:09Z</time>
      </trkpt>
      <trkpt lat="46.16976" lon="1.82433">
        <ele>564</ele>
        <time>2016-12-06T09:19:09Z</time>
      </trkpt>
      <trkpt lat="46.16971" lon="1.82427">
        <ele>566</ele>
        <time>2016-12-06T09:21:09Z</time>
      </trkpt>
      <trkpt lat="46.1697" lon="1.82426">
        <ele>566</ele>
        <time>2016-12-06T09:23:09Z</time>
      </trkpt>
      <trkpt lat="46.16969" lon="1.82425">
        <ele>566</ele>
        <time>2016-12-06T09:25:09Z</time>
      </trkpt>
      <trkpt lat="46.16967" lon="1.82422">
        <ele>567</ele>
        <time>2016-12-06T09:27:09Z</time>
      </trkpt>
      <trkpt lat="46.16966" lon="1.82422">
        <ele>567</ele>
        <time>2016-12-06T09:29:09Z</time>
      </trkpt>
      <trkpt lat="46.16963" lon="1.82416">
        <ele>567</ele>
        <time>2016-12-06T09:31:09Z</time>
      </trkpt>
      <trkpt lat="46.1696" lon="1.82412">
        <ele>568</ele>
        <time>2016-12-06T09:33:09Z</time>
      </trkpt>
      <trkpt lat="46.16959" lon="1.8241">
        <ele>568</ele>
        <time>2016-12-06T09:35:09Z</time>
      </trkpt>
      <trkpt lat="46.16958" lon="1.82408">
        <ele>568</ele>
        <time>2016-12-06T09:37:09Z</time>
      </trkpt>
      <trkpt lat="46.16956" lon="1.82404">
        <ele>568</ele>
        <time>2016-12-06T09:39:09Z</time>
      </trkpt>
      <trkpt lat="46.16956" lon="1.82402">
        <ele>568</ele>
        <time>2016-12-06T09:41:09Z</time>
      </trkpt>
      <trkpt lat="46.16954" lon="1.82397">
        <ele>568</ele>
        <time>2016-12-06T09:43:09Z</time>
      </trkpt>
      <trkpt lat="46.16954" lon="1.82396">
        <ele>568</ele>
        <time>2016-12-06T09:45:09Z</time>
      </trkpt>
      <trkpt lat="46.16952" lon="1.82392">
        <ele>568</ele>
        <time>2016-12-06T09:47:09Z</time>
      </trkpt>
      <trkpt lat="46.1695" lon="1.8239">
        <ele>569</ele>
        <time>2016-12-06T09:49:09Z</time>
      </trkpt>
      <trkpt lat="46.16947" lon="1.82381">
        <ele>569</ele>
        <time>2016-12-06T09:51:09Z</time>
      </trkpt>
      <trkpt lat="46.16945" lon="1.82377">
        <ele>569</ele>
        <time>2016-12-06T09:53:09Z</time>
      </trkpt>
      <trkpt lat="46.16945" lon="1.82378">
        <ele>569</ele>
        <time>2016-12-06T09:55:09Z</time>
      </trkpt>
      <trkpt lat="46.16944" lon="1.82375">
        <ele>569</ele>
        <time>2016-12-06T09:57:09Z</time>
      </trkpt>
      <trkpt lat="46.16933" lon="1.82363">
        <ele>571</ele>
        <time>2016-12-06T09:59:09Z</time>
      </trkpt>
      <trkpt lat="46.16932" lon="1.82361">
        <ele>571</ele>
        <time>2016-12-06T10:01:09Z</time>
      </trkpt>
      <trkpt lat="46.16932" lon="1.8236">
        <ele>571</ele>
        <time>2016-12-06T10:03:09Z</time>
      </trkpt>
      <trkpt lat="46.16929" lon="1.82357">
        <ele>571</ele>
        <time>2016-12-06T10:05:09Z</time>
      </trkpt>
      <trkpt lat="46.16927" lon="1.82354">
        <ele>572</ele>
        <time>2016-12-06T10:07:09Z</time>
      </trkpt>
      <trkpt lat="46.16927" lon="1.82353">
        <ele>571</ele>
        <time>2016-12-06T10:09:09Z</time>
      </trkpt>
      <trkpt lat="46.16924" lon="1.82349">
        <ele>572</ele>
        <time>2016-12-06T10:11:09Z</time>
      </trkpt>
      <trkpt lat="46.16924" lon="1.82348">
        <ele>572</ele>
        <time>2016-12-06T10:13:09Z</time>
      </trkpt>
      <trkpt lat="46.16922" lon="1.82346">
        <ele>572</ele>
        <time>2016-12-06T10:15:09Z</time>
      </trkpt>
      <trkpt lat="46.16921" lon="1.82345">
        <ele>572</ele>
        <time>2016-12-06T10:17:09Z</time>
      </trkpt>
      <trkpt lat="46.1692" lon="1.82344">
        <ele>572</ele>
        <time>2016-12-06T10:19:09Z</time>
      </trkpt>
      <trkpt lat="46.16919" lon="1.82342">
        <ele>572</ele>
        <time>2016-12-06T10:21:09Z</time>
      </trkpt>
      <trkpt lat="46.16918" lon="1.82341">
        <ele>573</ele>
        <time>2016-12-06T10:23:09Z</time>
      </trkpt>
      <trkpt lat="46.16915" lon="1.82336">
        <ele>573</ele>
        <time>2016-12-06T10:25:09Z</time>
      </trkpt>
      <trkpt lat="46.16911" lon="1.82332">
        <ele>573</ele>
        <time>2016-12-06T10:27:09Z</time>
      </trkpt>
      <trkpt lat="46.1691" lon="1.8233">
        <ele>574</ele>
        <time>2016-12-06T10:29:09Z</time>
      </trkpt>
      <trkpt lat="46.16908" lon="1.82329">
        <ele>574</ele>
        <time>2016-12-06T10:31:09Z</time>
      </trkpt>
      <trkpt lat="46.16906" lon="1.82327">
        <ele>574</ele>
        <time>2016-12-06T10:33:09Z</time>
      </trkpt>
      <trkpt lat="46.16902" lon="1.82323">
        <ele>575</ele>
        <time>2016-12-06T10:35:09Z</time>
      </trkpt>
      <trkpt lat="46.169" lon="1.82321">
        <ele>576</ele>
        <time>2016-12-06T10:37:09Z</time>
      </trkpt>
      <trkpt lat="46.16897" lon="1.82318">
        <ele>576</ele>
        <time>2016-12-06T10:39:09Z</time>
      </trkpt>
      <trkpt lat="46.16895" lon="1.82314">
        <ele>576</ele>
        <time>2016-12-06T10:41:09Z</time>
      </trkpt>
      <trkpt lat="46.16892" lon="1.82311">
        <ele>577</ele>
        <time>2016-12-06T10:43:09Z</time>
      </trkpt>
      <trkpt lat="46.1689" lon="1.82308">
        <ele>577</ele>
        <time>2016-12-06T10:45:09Z</time>
      </trkpt>
      <trkpt lat="46.1689" lon="1.82307">
        <ele>577</ele>
        <time>2016-12-06T10:47:09Z</time>
      </trkpt>
      <trkpt lat="46.16889" lon="1.82305">
        <ele>577</ele>
        <time>2016-12-06T10:49:09Z</time>
      </trkpt>
      <trkpt lat="46.16889" lon="1.82303">
        <ele>577</ele>
        <time>2016-12-06T10:51:09Z</time>
      </trkpt>
      <trkpt lat="46.16887" lon="1.82302">
        <ele>577</ele>
        <time>2016-12-06T10:53:09Z</time>
      </trkpt>
      <trkpt lat="46.16885" lon="1.82298">
        <ele>578</ele>
        <time>2016-12-06T10:55:09Z</time>
      </trkpt>
      <trkpt lat="46.16885" lon="1.82297">
        <ele>578</ele>
        <time>2016-12-06T10:57:09Z</time>
      </trkpt>
      <trkpt lat="46.16885" lon="1.82295">
        <ele>577</ele>
        <time>2016-12-06T10:59:09Z</time>
      </trkpt>
      <trkpt lat="46.16882" lon="1.82289">
        <ele>578</ele>
        <time>2016-12-06T11:01:09Z</time>
      </trkpt>
      <trkpt lat="46.16882" lon="1.82287">
        <ele>577</ele>
        <time>2016-12-06T11:03:09Z</time>
      </trkpt>
      <trkpt lat="46.16881" lon="1.82285">
        <ele>578</ele>
        <time>2016-12-06T11:05:09Z</time>
      </trkpt>
      <trkpt lat="46.1688" lon="1.8228">
        <ele>577</ele>
        <time>2016-12-06T11:07:09Z</time>
      </trkpt>
      <trkpt lat="46.16879" lon="1.82279">
        <ele>578</ele>
        <time>2016-12-06T11:09:09Z</time>
      </trkpt>
      <trkpt lat="46.16878" lon="1.82275">
        <ele>577</ele>
        <time>2016-12-06T11:11:09Z</time>
      </trkpt>
      <trkpt lat="46.16876" lon="1.82271">
        <ele>578</ele>
        <time>2016-12-06T11:13:09Z</time>
      </trkpt>
      <trkpt lat="46.16875" lon="1.82268">
        <ele>578</ele>
        <time>2016-12-06T11:15:09Z</time>
      </trkpt>
      <trkpt lat="46.16873" lon="1.82264">
        <ele>578</ele>
        <time>2016-12-06T11:17:09Z</time>
      </trkpt>
      <trkpt lat="46.16873" lon="1.82262">
        <ele>578</ele>
        <time>2016-12-06T11:19:09Z</time>
      </trkpt>
      <trkpt lat="46.16872" lon="1.82261">
        <ele>578</ele>
        <time>2016-12-06T11:21:09Z</time>
      </trkpt>
      <trkpt lat="46.1687" lon="1.82254">
        <ele>578</ele>
        <time>2016-12-06T11:23:09Z</time>
      </trkpt>
      <trkpt lat="46.16869" lon="1.82252">
        <ele>578</ele>
        <time>2016-12-06T11:25:09Z</time>
      </trkpt>
      <trkpt lat="46.16869" lon="1.8225">
        <ele>578</ele>
        <time>2016-12-06T11:27:09Z</time>
      </trkpt>
      <trkpt lat="46.16868" lon="1.82247">
        <ele>578</ele>
        <time>2016-12-06T11:29:09Z</time>
      </trkpt>
      <trkpt lat="46.16867" lon="1.82243">
        <ele>578</ele>
        <time>2016-12-06T11:31:09Z</time>
      </trkpt>
      <trkpt lat="46.16865" lon="1.82241">
        <ele>579</ele>
        <time>2016-12-06T11:33:09Z</time>
      </trkpt>
      <trkpt lat="46.16864" lon="1.82238">
        <ele>579</ele>
        <time>2016-12-06T11:35:09Z</time>
      </trkpt>
      <trkpt lat="46.16864" lon="1.82236">
        <ele>579</ele>
        <time>2016-12-06T11:37:09Z</time>
      </trkpt>
      <trkpt lat="46.16861" lon="1.82231">
        <ele>579</ele>
        <time>2016-12-06T11:39:09Z</time>
      </trkpt>
      <trkpt lat="46.1686" lon="1.82229">
        <ele>580</ele>
        <time>2016-12-06T11:41:09Z</time>
      </trkpt>
      <trkpt lat="46.16859" lon="1.82229">
        <ele>580</ele>
        <time>2016-12-06T11:43:09Z</time>
      </trkpt>
      <trkpt lat="46.16858" lon="1.82228">
        <ele>580</ele>
        <time>2016-12-06T11:45:09Z</time>
      </trkpt>
      <trkpt lat="46.16854" lon="1.82226">
        <ele>581</ele>
        <time>2016-12-06T11:47:09Z</time>
      </trkpt>
      <trkpt lat="46.16853" lon="1.82226">
        <ele>581</ele>
        <time>2016-12-06T11:49:09Z</time>
      </trkpt>
      <trkpt lat="46.16852" lon="1.82227">
        <ele>582</ele>
        <time>2016-12-06T11:51:09Z</time>
      </trkpt>
      <trkpt lat="46.1685" lon="1.82227">
        <ele>582</ele>
        <time>2016-12-06T11:53:09Z</time>
      </trkpt>
      <trkpt lat="46.16849" lon="1.82227">
        <ele>583</ele>
        <time>2016-12-06T11:55:09Z</time>
      </trkpt>
      <trkpt lat="46.16847" lon="1.82226">
        <ele>583</ele>
        <time>2016-12-06T11:57:09Z</time>
      </trkpt>
      <trkpt lat="46.16845" lon="1.82225">
        <ele>584</ele>
        <time>2016-12-06T11:59:09Z</time>
      </trkpt>
      <trkpt lat="46.16843" lon="1.82225">
        <ele>585</ele>
        <time>2016-12-06T12:01:09Z</time>
      </trkpt>
      <trkpt lat="46.1684" lon="1.82224">
        <ele>585</ele>
        <time>2016-12-06T12:03:09Z</time>
      </trkpt>
      <trkpt lat="46.16837" lon="1.82224">
        <ele>586</ele>
        <time>2016-12-06T12:05:09Z</time>
      </trkpt>
      <trkpt lat="46.16834" lon="1.82225">
        <ele>587</ele>
        <time>2016-12-06T12:07:09Z</time>
      </trkpt>
      <trkpt lat="46.16829" lon="1.82227">
        <ele>588</ele>
        <time>2016-12-06T12:09:09Z</time>
      </trkpt>
      <trkpt lat="46.16828" lon="1.82228">
        <ele>588</ele>
        <time>2016-12-06T12:11:09Z</time>
      </trkpt>
      <trkpt lat="46.16826" lon="1.82232">
        <ele>589</ele>
        <time>2016-12-06T12:13:09Z</time>
      </trkpt>
      <trkpt lat="46.16819" lon="1.82244">
        <ele>590</ele>
        <time>2016-12-06T12:15:09Z</time>
      </trkpt>
      <trkpt lat="46.16816" lon="1.82247">
        <ele>591</ele>
        <time>2016-12-06T12:17:09Z</time>
      </trkpt>
      <trkpt lat="46.16807" lon="1.82253">
        <ele>592</ele>
        <time>2016-12-06T12:19:09Z</time>
      </trkpt>
      <trkpt lat="46.16801" lon="1.82256">
        <ele>593</ele>
        <time>2016-12-06T12:21:09Z</time>
      </trkpt>
      <trkpt lat="46.16795" lon="1.82263">
        <ele>594</ele>
        <time>2016-12-06T12:23:09Z</time>
      </trkpt>
      <trkpt lat="46.16793" lon="1.82266">
        <ele>594</ele>
        <time>2016-12-06T12:25:09Z</time>
      </trkpt>
      <trkpt lat="46.1679" lon="1.82267">
        <ele>595</ele>
        <time>2016-12-06T12:27:09Z</time>
      </trkpt>
      <trkpt lat="46.16788" lon="1.82265">
        <ele>595</ele>
        <time>2016-12-06T12:29:09Z</time>
      </trkpt>
      <trkpt lat="46.16786" lon="1.82263">
        <ele>595</ele>
        <time>2016-12-06T12:31:09Z</time>
      </trkpt>
      <trkpt lat="46.16783" lon="1.82257">
        <ele>595</ele>
        <time>2016-12-06T12:33:09Z</time>
      </trkpt>
      <trkpt lat="46.16783" lon="1.82255">
        <ele>594</ele>
        <time>2016-12-06T12:35:09Z</time>
      </trkpt>
      <trkpt lat="46.16781" lon="1.82252">
        <ele>594</ele>
        <time>2016-12-06T12:37:09Z</time>
      </trkpt>
      <trkpt lat="46.16779" lon="1.82249">
        <ele>594</ele>
        <time>2016-12-06T12:39:09Z</time>
      </trkpt>
      <trkpt lat="46.16779" lon="1.82246">
        <ele>594</ele>
        <time>2016-12-06T12:41:09Z</time>
      </trkpt>
      <trkpt lat="46.16778" lon="1.82243">
        <ele>594</ele>
        <time>2016-12-06T12:43:09Z</time>
      </trkpt>
      <trkpt lat="46.16775" lon="1.82226">
        <ele>594</ele>
        <time>2016-12-06T12:45:09Z</time>
      </trkpt>
      <trkpt lat="46.16774" lon="1.82218">
        <ele>594</ele>
        <time>2016-12-06T12:47:09Z</time>
      </trkpt>
      <trkpt lat="46.16772" lon="1.82213">
        <ele>594</ele>
        <time>2016-12-06T12:49:09Z</time>
      </trkpt>
      <trkpt lat="46.16772" lon="1.82209">
        <ele>594</ele>
        <time>2016-12-06T12:51:09Z</time>
      </trkpt>
      <trkpt lat="46.16772" lon="1.82203">
        <ele>593</ele>
        <time>2016-12-06T12:53:09Z</time>
      </trkpt>
      <trkpt lat="46.16772" lon="1.82199">
        <ele>593</ele>
        <time>2016-12-06T12:55:09Z</time>
      </trkpt>
      <trkpt lat="46.16772" lon="1.82193">
        <ele>593</ele>
        <time>2016-12-06T12:57:09Z</time>
      </trkpt>
      <trkpt lat="46.16771" lon="1.82191">
        <ele>593</ele>
        <time>2016-12-06T12:59:09Z</time>
      </trkpt>
      <trkpt lat="46.16771" lon="1.82189">
        <ele>593</ele>
        <time>2016-12-06T13:01:09Z</time>
      </trkpt>
      <trkpt lat="46.16772" lon="1.82186">
        <ele>593</ele>
        <time>2016-12-06T13:03:09Z</time>
      </trkpt>
      <trkpt lat="46.16774" lon="1.82179">
        <ele>592</ele>
        <time>2016-12-06T13:05:09Z</time>
      </trkpt>
      <trkpt lat="46.16774" lon="1.82176">
        <ele>592</ele>
        <time>2016-12-06T13:07:09Z</time>
      </trkpt>
      <trkpt lat="46.16774" lon="1.82169">
        <ele>592</ele>
        <time>2016-12-06T13:09:09Z</time>
      </trkpt>
      <trkpt lat="46.16774" lon="1.82166">
        <ele>592</ele>
        <time>2016-12-06T13:11:09Z</time>
      </trkpt>
      <trkpt lat="46.16774" lon="1.82161">
        <ele>593</ele>
        <time>2016-12-06T13:13:09Z</time>
      </trkpt>
      <trkpt lat="46.16774" lon="1.82157">
        <ele>593</ele>
        <time>2016-12-06T13:15:09Z</time>
      </trkpt>
      <trkpt lat="46.16775" lon="1.82148">
        <ele>594</ele>
        <time>2016-12-06T13:17:09Z</time>
      </trkpt>
      <trkpt lat="46.16775" lon="1.82146">
        <ele>594</ele>
        <time>2016-12-06T13:19:09Z</time>
      </trkpt>
      <trkpt lat="46.16776" lon="1.82134">
        <ele>596</ele>
        <time>2016-12-06T13:21:09Z</time>
      </trkpt>
      <trkpt lat="46.16778" lon="1.82127">
        <ele>596</ele>
        <time>2016-12-06T13:23:09Z</time>
      </trkpt>
      <trkpt lat="46.16779" lon="1.82124">
        <ele>596</ele>
        <time>2016-12-06T13:25:09Z</time>
      </trkpt>
      <trkpt lat="46.16782" lon="1.82114">
        <ele>597</ele>
        <time>2016-12-06T13:27:09Z</time>
      </trkpt>
      <trkpt lat="46.16783" lon="1.8211">
        <ele>597</ele>
        <time>2016-12-06T13:29:09Z</time>
      </trkpt>
      <trkpt lat="46.16785" lon="1.82106">
        <ele>597</ele>
        <time>2016-12-06T13:31:09Z</time>
      </trkpt>
      <trkpt lat="46.16787" lon="1.82099">
        <ele>598</ele>
        <time>2016-12-06T13:33:09Z</time>
      </trkpt>
      <trkpt lat="46.16789" lon="1.82092">
        <ele>598</ele>
        <time>2016-12-06T13:35:09Z</time>
      </trkpt>
      <trkpt lat="46.1679" lon="1.82085">
        <ele>599</ele>
        <time>2016-12-06T13:37:09Z</time>
      </trkpt>
      <trkpt lat="46.1679" lon="1.82077">
        <ele>600</ele>
        <time>2016-12-06T13:39:09Z</time>
      </trkpt>
      <trkpt lat="46.16792" lon="1.82066">
        <ele>600</ele>
        <time>2016-12-06T13:41:09Z</time>
      </trkpt>
      <trkpt lat="46.16792" lon="1.82055">
        <ele>600</ele>
        <time>2016-12-06T13:43:09Z</time>
      </trkpt>
      <trkpt lat="46.16792" lon="1.82052">
        <ele>600</ele>
        <time>2016-12-06T13:45:09Z</time>
      </trkpt>
      <trkpt lat="46.16792" lon="1.82048">
        <ele>601</ele>
        <time>2016-12-06T13:47:09Z</time>
      </trkpt>
      <trkpt lat="46.16791" lon="1.82042">
        <ele>601</ele>
        <time>2016-12-06T13:49:09Z</time>
      </trkpt>
      <trkpt lat="46.16791" lon="1.82034">
        <ele>602</ele>
        <time>2016-12-06T13:51:09Z</time>
      </trkpt>
      <trkpt lat="46.16791" lon="1.8203">
        <ele>602</ele>
        <time>2016-12-06T13:53:09Z</time>
      </trkpt>
      <trkpt lat="46.16791" lon="1.82027">
        <ele>602</ele>
        <time>2016-12-06T13:55:09Z</time>
      </trkpt>
      <trkpt lat="46.16791" lon="1.82024">
        <ele>602</ele>
        <time>2016-12-06T13:57:09Z</time>
      </trkpt>
      <trkpt lat="46.16793" lon="1.82002">
        <ele>603</ele>
        <time>2016-12-06T13:59:09Z</time>
      </trkpt>
      <trkpt lat="46.16793" lon="1.81998">
        <ele>603</ele>
        <time>2016-12-06T14:01:09Z</time>
      </trkpt>
      <trkpt lat="46.16793" lon="1.81995">
        <ele>602</ele>
        <time>2016-12-06T14:03:09Z</time>
      </trkpt>
      <trkpt lat="46.16793" lon="1.81983">
        <ele>602</ele>
        <time>2016-12-06T14:05:09Z</time>
      </trkpt>
      <trkpt lat="46.16793" lon="1.81979">
        <ele>602</ele>
        <time>2016-12-06T14:07:09Z</time>
      </trkpt>
      <trkpt lat="46.16792" lon="1.81976">
        <ele>602</ele>
        <time>2016-12-06T14:09:09Z</time>
      </trkpt>
      <trkpt lat="46.16792" lon="1.81969">
        <ele>601</ele>
        <time>2016-12-06T14:11:09Z</time>
      </trkpt>
      <trkpt lat="46.1679" lon="1.81955">
        <ele>601</ele>
        <time>2016-12-06T14:13:09Z</time>
      </trkpt>
      <trkpt lat="46.16788" lon="1.81947">
        <ele>601</ele>
        <time>2016-12-06T14:15:09Z</time>
      </trkpt>
      <trkpt lat="46.16786" lon="1.81939">
        <ele>601</ele>
        <time>2016-12-06T14:17:09Z</time>
      </trkpt>
      <trkpt lat="46.16786" lon="1.81933">
        <ele>601</ele>
        <time>2016-12-06T14:19:09Z</time>
      </trkpt>
      <trkpt lat="46.16784" lon="1.81917">
        <ele>600</ele>
        <time>2016-12-06T14:21:09Z</time>
      </trkpt>
      <trkpt lat="46.16783" lon="1.81913">
        <ele>600</ele>
        <time>2016-12-06T14:23:09Z</time>
      </trkpt>
      <trkpt lat="46.16781" lon="1.81904">
        <ele>600</ele>
        <time>2016-12-06T14:25:09Z</time>
      </trkpt>
      <trkpt lat="46.16782" lon="1.81903">
        <ele>600</ele>
        <time>2016-12-06T14:27:09Z</time>
      </trkpt>
      <trkpt lat="46.16782" lon="1.819">
        <ele>600</ele>
        <time>2016-12-06T14:29:09Z</time>
      </trkpt>
      <trkpt lat="46.16783" lon="1.81897">
        <ele>599</ele>
        <time>2016-12-06T14:31:09Z</time>
      </trkpt>
      <trkpt lat="46.16783" lon="1.81895">
        <ele>599</ele>
        <time>2016-12-06T14:33:09Z</time>
      </trkpt>
      <trkpt lat="46.16783" lon="1.81893">
        <ele>599</ele>
        <time>2016-12-06T14:35:09Z</time>
      </trkpt>
      <trkpt lat="46.16783" lon="1.81891">
        <ele>599</ele>
        <time>2016-12-06T14:37:09Z</time>
      </trkpt>
      <trkpt lat="46.16781" lon="1.81887">
        <ele>599</ele>
        <time>2016-12-06T14:39:09Z</time>
      </trkpt>
      <trkpt lat="46.1678" lon="1.81884">
        <ele>599</ele>
        <time>2016-12-06T14:41:09Z</time>
      </trkpt>
      <trkpt lat="46.16779" lon="1.81882">
        <ele>599</ele>
        <time>2016-12-06T14:43:09Z</time>
      </trkpt>
      <trkpt lat="46.16777" lon="1.81879">
        <ele>599</ele>
        <time>2016-12-06T14:45:09Z</time>
      </trkpt>
      <trkpt lat="46.16776" lon="1.81877">
        <ele>599</ele>
        <time>2016-12-06T14:47:09Z</time>
      </trkpt>
      <trkpt lat="46.16772" lon="1.8187">
        <ele>600</ele>
        <time>2016-12-06T14:49:09Z</time>
      </trkpt>
      <trkpt lat="46.16766" lon="1.81863">
        <ele>600</ele>
        <time>2016-12-06T14:51:09Z</time>
      </trkpt>
      <trkpt lat="46.16765" lon="1.81859">
        <ele>600</ele>
        <time>2016-12-06T14:53:09Z</time>
      </trkpt>
      <trkpt lat="46.16762" lon="1.81856">
        <ele>601</ele>
        <time>2016-12-06T14:55:09Z</time>
      </trkpt>
      <trkpt lat="46.16761" lon="1.81853">
        <ele>601</ele>
        <time>2016-12-06T14:57:09Z</time>
      </trkpt>
      <trkpt lat="46.1676" lon="1.8185">
        <ele>601</ele>
        <time>2016-12-06T14:59:09Z</time>
      </trkpt>
      <trkpt lat="46.16752" lon="1.81837">
        <ele>601</ele>
        <time>2016-12-06T15:01:09Z</time>
      </trkpt>
      <trkpt lat="46.16746" lon="1.81828">
        <ele>600</ele>
        <time>2016-12-06T15:03:09Z</time>
      </trkpt>
      <trkpt lat="46.16742" lon="1.8182">
        <ele>600</ele>
        <time>2016-12-06T15:05:09Z</time>
      </trkpt>
      <trkpt lat="46.16743" lon="1.81817">
        <ele>599</ele>
        <time>2016-12-06T15:07:09Z</time>
      </trkpt>
      <trkpt lat="46.1674" lon="1.81813">
        <ele>599</ele>
        <time>2016-12-06T15:09:09Z</time>
      </trkpt>
      <trkpt lat="46.16738" lon="1.81809">
        <ele>598</ele>
        <time>2016-12-06T15:11:09Z</time>
      </trkpt>
      <trkpt lat="46.16735" lon="1.81802">
        <ele>598</ele>
        <time>2016-12-06T15:13:09Z</time>
      </trkpt>
      <trkpt lat="46.16728" lon="1.81793">
        <ele>597</ele>
        <time>2016-12-06T15:15:09Z</time>
      </trkpt>
      <trkpt lat="46.16726" lon="1.81792">
        <ele>597</ele>
        <time>2016-12-06T15:17:09Z</time>
      </trkpt>
      <trkpt lat="46.16721" lon="1.81784">
        <ele>596</ele>
        <time>2016-12-06T15:19:09Z</time>
      </trkpt>
      <trkpt lat="46.16719" lon="1.81781">
        <ele>596</ele>
        <time>2016-12-06T15:21:09Z</time>
      </trkpt>
      <trkpt lat="46.16718" lon="1.81777">
        <ele>595</ele>
        <time>2016-12-06T15:23:09Z</time>
      </trkpt>
      <trkpt lat="46.16716" lon="1.81774">
        <ele>595</ele>
        <time>2016-12-06T15:25:09Z</time>
      </trkpt>
      <trkpt lat="46.16709" lon="1.81759">
        <ele>594</ele>
        <time>2016-12-06T15:27:09Z</time>
      </trkpt>
      <trkpt lat="46.16704" lon="1.81753">
        <ele>593</ele>
        <time>2016-12-06T15:29:09Z</time>
      </trkpt>
      <trkpt lat="46.16701" lon="1.81751">
        <ele>593</ele>
        <time>2016-12-06T15:31:09Z</time>
      </trkpt>
      <trkpt lat="46.16699" lon="1.81749">
        <ele>593</ele>
        <time>2016-12-06T15:33:09Z</time>
      </trkpt>
      <trkpt lat="46.16695" lon="1.81746">
        <ele>593</ele>
        <time>2016-12-06T15:35:09Z</time>
      </trkpt>
      <trkpt lat="46.16695" lon="1.81744">
        <ele>593</ele>
        <time>2016-12-06T15:37:09Z</time>
      </trkpt>
      <trkpt lat="46.16688" lon="1.81739">
        <ele>592</ele>
        <time>2016-12-06T15:39:09Z</time>
      </trkpt>
      <trkpt lat="46.16687" lon="1.81737">
        <ele>592</ele>
        <time>2016-12-06T15:41:09Z</time>
      </trkpt>
      <trkpt lat="46.16686" lon="1.81735">
        <ele>592</ele>
        <time>2016-12-06T15:43:09Z</time>
      </trkpt>
      <trkpt lat="46.16684" lon="1.81733">
        <ele>592</ele>
        <time>2016-12-06T15:45:09Z</time>
      </trkpt>
      <trkpt lat="46.16679" lon="1.8173">
        <ele>592</ele>
        <time>2016-12-06T15:47:09Z</time>
      </trkpt>
      <trkpt lat="46.16676" lon="1.8173">
        <ele>592</ele>
        <time>2016-12-06T15:49:09Z</time>
      </trkpt>
      <trkpt lat="46.16673" lon="1.8173">
        <ele>592</ele>
        <time>2016-12-06T15:51:09Z</time>
      </trkpt>
      <trkpt lat="46.16668" lon="1.81729">
        <ele>592</ele>
        <time>2016-12-06T15:53:09Z</time>
      </trkpt>
      <trkpt lat="46.16663" lon="1.81728">
        <ele>592</ele>
        <time>2016-12-06T15:55:09Z</time>
      </trkpt>
      <trkpt lat="46.16653" lon="1.81723">
        <ele>590</ele>
        <time>2016-12-06T15:57:09Z</time>
      </trkpt>
      <trkpt lat="46.16651" lon="1.8172">
        <ele>590</ele>
        <time>2016-12-06T15:59:09Z</time>
      </trkpt>
      <trkpt lat="46.16646" lon="1.81714">
        <ele>589</ele>
        <time>2016-12-06T16:01:09Z</time>
      </trkpt>
      <trkpt lat="46.16644" lon="1.81709">
        <ele>588</ele>
        <time>2016-12-06T16:03:09Z</time>
      </trkpt>
      <trkpt lat="46.16642" lon="1.81702">
        <ele>587</ele>
        <time>2016-12-06T16:05:09Z</time>
      </trkpt>
      <trkpt lat="46.16639" lon="1.81685">
        <ele>584</ele>
        <time>2016-12-06T16:07:09Z</time>
      </trkpt>
      <trkpt lat="46.16639" lon="1.81676">
        <ele>583</ele>
        <time>2016-12-06T16:09:09Z</time>
      </trkpt>
      <trkpt lat="46.16638" lon="1.81668">
        <ele>582</ele>
        <time>2016-12-06T16:11:09Z</time>
      </trkpt>
      <trkpt lat="46.16637" lon="1.81663">
        <ele>582</ele>
        <time>2016-12-06T16:13:09Z</time>
      </trkpt>
      <trkpt lat="46.16637" lon="1.81659">
        <ele>582</ele>
        <time>2016-12-06T16:15:09Z</time>
      </trkpt>
      <trkpt lat="46.16636" lon="1.81655">
        <ele>582</ele>
        <time>2016-12-06T16:17:09Z</time>
      </trkpt>
      <trkpt lat="46.16636" lon="1.81647">
        <ele>581</ele>
        <time>2016-12-06T16:19:09Z</time>
      </trkpt>
      <trkpt lat="46.16636" lon="1.81643">
        <ele>581</ele>
        <time>2016-12-06T16:21:09Z</time>
      </trkpt>
      <trkpt lat="46.16636" lon="1.81638">
        <ele>581</ele>
        <time>2016-12-06T16:23:09Z</time>
      </trkpt>
      <trkpt lat="46.16635" lon="1.81635">
        <ele>581</ele>
        <time>2016-12-06T16:25:09Z</time>
      </trkpt>
      <trkpt lat="46.16633" lon="1.81632">
        <ele>581</ele>
        <time>2016-12-06T16:27:09Z</time>
      </trkpt>
      <trkpt lat="46.1663" lon="1.81631">
        <ele>580</ele>
        <time>2016-12-06T16:29:09Z</time>
      </trkpt>
      <trkpt lat="46.16628" lon="1.81632">
        <ele>580</ele>
        <time>2016-12-06T16:31:09Z</time>
      </trkpt>
      <trkpt lat="46.16603" lon="1.81658">
        <ele>579</ele>
        <time>2016-12-06T16:33:09Z</time>
      </trkpt>
      <trkpt lat="46.16595" lon="1.81664">
        <ele>579</ele>
        <time>2016-12-06T16:35:09Z</time>
      </trkpt>
      <trkpt lat="46.16583" lon="1.81671">
        <ele>579</ele>
        <time>2016-12-06T16:37:09Z</time>
      </trkpt>
      <trkpt lat="46.1658" lon="1.81672">
        <ele>578</ele>
        <time>2016-12-06T16:39:09Z</time>
      </trkpt>
      <trkpt lat="46.16567" lon="1.81677">
        <ele>578</ele>
        <time>2016-12-06T16:41:09Z</time>
      </trkpt>
      <trkpt lat="46.16564" lon="1.81678">
        <ele>578</ele>
        <time>2016-12-06T16:43:09Z</time>
      </trkpt>
      <trkpt lat="46.16554" lon="1.81682">
        <ele>578</ele>
        <time>2016-12-06T16:45:09Z</time>
      </trkpt>
      <trkpt lat="46.16549" lon="1.81683">
        <ele>578</ele>
        <time>2016-12-06T16:47:09Z</time>
      </trkpt>
      <trkpt lat="46.16539" lon="1.81687">
        <ele>578</ele>
        <time>2016-12-06T16:49:09Z</time>
      </trkpt>
      <trkpt lat="46.16537" lon="1.81686">
        <ele>577</ele>
        <time>2016-12-06T16:51:09Z</time>
      </trkpt>
      <trkpt lat="46.16535" lon="1.81686">
        <ele>577</ele>
        <time>2016-12-06T16:53:09Z</time>
      </trkpt>
      <trkpt lat="46.16532" lon="1.81685">
        <ele>577</ele>
        <time>2016-12-06T16:55:09Z</time>
      </trkpt>
      <trkpt lat="46.1653" lon="1.81683">
        <ele>576</ele>
        <time>2016-12-06T16:57:09Z</time>
      </trkpt>
      <trkpt lat="46.16523" lon="1.81677">
        <ele>575</ele>
        <time>2016-12-06T16:59:09Z</time>
      </trkpt>
      <trkpt lat="46.16518" lon="1.81673">
        <ele>574</ele>
        <time>2016-12-06T17:01:09Z</time>
      </trkpt>
      <trkpt lat="46.16515" lon="1.81672">
        <ele>574</ele>
        <time>2016-12-06T17:03:09Z</time>
      </trkpt>
      <trkpt lat="46.16508" lon="1.81668">
        <ele>573</ele>
        <time>2016-12-06T17:05:09Z</time>
      </trkpt>
      <trkpt lat="46.16497" lon="1.81661">
        <ele>572</ele>
        <time>2016-12-06T17:07:09Z</time>
      </trkpt>
      <trkpt lat="46.16494" lon="1.8166">
        <ele>572</ele>
        <time>2016-12-06T17:09:09Z</time>
      </trkpt>
      <trkpt lat="46.1649" lon="1.81657">
        <ele>572</ele>
        <time>2016-12-06T17:11:09Z</time>
      </trkpt>
      <trkpt lat="46.16485" lon="1.81654">
        <ele>572</ele>
        <time>2016-12-06T17:13:09Z</time>
      </trkpt>
      <trkpt lat="46.16481" lon="1.81651">
        <ele>572</ele>
        <time>2016-12-06T17:15:09Z</time>
      </trkpt>
      <trkpt lat="46.16479" lon="1.8165">
        <ele>572</ele>
        <time>2016-12-06T17:17:09Z</time>
      </trkpt>
      <trkpt lat="46.16476" lon="1.81649">
        <ele>572</ele>
        <time>2016-12-06T17:19:09Z</time>
      </trkpt>
      <trkpt lat="46.16473" lon="1.81646">
        <ele>572</ele>
        <time>2016-12-06T17:21:09Z</time>
      </trkpt>
      <trkpt lat="46.16472" lon="1.81646">
        <ele>572</ele>
        <time>2016-12-06T17:23:09Z</time>
      </trkpt>
      <trkpt lat="46.16471" lon="1.81645">
        <ele>572</ele>
        <time>2016-12-06T17:25:09Z</time>
      </trkpt>
      <trkpt lat="46.16469" lon="1.81644">
        <ele>572</ele>
        <time>2016-12-06T17:27:09Z</time>
      </trkpt>
      <trkpt lat="46.16467" lon="1.81642">
        <ele>572</ele>
        <time>2016-12-06T17:29:09Z</time>
      </trkpt>
      <trkpt lat="46.16462" lon="1.8164">
        <ele>572</ele>
        <time>2016-12-06T17:31:09Z</time>
      </trkpt>
      <trkpt lat="46.1646" lon="1.8164">
        <ele>572</ele>
        <time>2016-12-06T17:33:09Z</time>
      </trkpt>
      <trkpt lat="46.16455" lon="1.81641">
        <ele>573</ele>
        <time>2016-12-06T17:35:09Z</time>
      </trkpt>
      <trkpt lat="46.16451" lon="1.81644">
        <ele>574</ele>
        <time>2016-12-06T17:37:09Z</time>
      </trkpt>
      <trkpt lat="46.16447" lon="1.81646">
        <ele>574</ele>
        <time>2016-12-06T17:39:09Z</time>
      </trkpt>
      <trkpt lat="46.16445" lon="1.81647">
        <ele>575</ele>
        <time>2016-12-06T17:41:09Z</time>
      </trkpt>
      <trkpt lat="46.16437" lon="1.81648">
        <ele>575</ele>
        <time>2016-12-06T17:43:09Z</time>
      </trkpt>
      <trkpt lat="46.16432" lon="1.8165">
        <ele>576</ele>
        <time>2016-12-06T17:45:09Z</time>
      </trkpt>
      <trkpt lat="46.16431" lon="1.81652">
        <ele>576</ele>
        <time>2016-12-06T17:47:09Z</time>
      </trkpt>
      <trkpt lat="46.16428" lon="1.81653">
        <ele>577</ele>
        <time>2016-12-06T17:49:09Z</time>
      </trkpt>
      <trkpt lat="46.16426" lon="1.81654">
        <ele>577</ele>
        <time>2016-12-06T17:51:09Z</time>
      </trkpt>
      <trkpt lat="46.16425" lon="1.81656">
        <ele>578</ele>
        <time>2016-12-06T17:53:09Z</time>
      </trkpt>
      <trkpt lat="46.16422" lon="1.81656">
        <ele>578</ele>
        <time>2016-12-06T17:55:09Z</time>
      </trkpt>
      <trkpt lat="46.16418" lon="1.81658">
        <ele>579</ele>
        <time>2016-12-06T17:57:09Z</time>
      </trkpt>
      <trkpt lat="46.16417" lon="1.81657">
        <ele>578</ele>
        <time>2016-12-06T17:59:09Z</time>
      </trkpt>
      <trkpt lat="46.16414" lon="1.81657">
        <ele>578</ele>
        <time>2016-12-06T18:01:09Z</time>
      </trkpt>
      <trkpt lat="46.16408" lon="1.81659">
        <ele>579</ele>
        <time>2016-12-06T18:03:09Z</time>
      </trkpt>
      <trkpt lat="46.164" lon="1.81659">
        <ele>578</ele>
        <time>2016-12-06T18:05:09Z</time>
      </trkpt>
      <trkpt lat="46.16394" lon="1.81658">
        <ele>578</ele>
        <time>2016-12-06T18:07:09Z</time>
      </trkpt>
      <trkpt lat="46.16388" lon="1.81658">
        <ele>578</ele>
        <time>2016-12-06T18:09:09Z</time>
      </trkpt>
      <trkpt lat="46.16378" lon="1.8166">
        <ele>578</ele>
        <time>2016-12-06T18:11:09Z</time>
      </trkpt>
      <trkpt lat="46.16375" lon="1.81661">
        <ele>578</ele>
        <time>2016-12-06T18:13:09Z</time>
      </trkpt>
      <trkpt lat="46.16373" lon="1.81662">
        <ele>578</ele>
        <time>2016-12-06T18:15:09Z</time>
      </trkpt>
      <trkpt lat="46.16371" lon="1.81662">
        <ele>578</ele>
        <time>2016-12-06T18:17:09Z</time>
      </trkpt>
      <trkpt lat="46.16367" lon="1.81666">
        <ele>579</ele>
        <time>2016-12-06T18:19:09Z</time>
      </trkpt>
      <trkpt lat="46.16362" lon="1.81667">
        <ele>579</ele>
        <time>2016-12-06T18:21:09Z</time>
      </trkpt>
      <trkpt lat="46.16356" lon="1.81668">
        <ele>579</ele>
        <time>2016-12-06T18:23:09Z</time>
      </trkpt>
      <trkpt lat="46.16353" lon="1.81669">
        <ele>579</ele>
        <time>2016-12-06T18:25:09Z</time>
      </trkpt>
      <trkpt lat="46.1635" lon="1.81668">
        <ele>579</ele>
        <time>2016-12-06T18:27:09Z</time>
      </trkpt>
      <trkpt lat="46.16348" lon="1.81669">
        <ele>579</ele>
        <time>2016-12-06T18:29:09Z</time>
      </trkpt>
      <trkpt lat="46.16344" lon="1.81669">
        <ele>579</ele>
        <time>2016-12-06T18:31:09Z</time>
      </trkpt>
      <trkpt lat="46.1634" lon="1.81669">
        <ele>578</ele>
        <time>2016-12-06T18:33:09Z</time>
      </trkpt>
      <trkpt lat="46.16338" lon="1.81669">
        <ele>578</ele>
        <time>2016-12-06T18:35:09Z</time>
      </trkpt>
      <trkpt lat="46.16336" lon="1.81669">
        <ele>578</ele>
        <time>2016-12-06T18:37:09Z</time>
      </trkpt>
      <trkpt lat="46.16333" lon="1.81669">
        <ele>578</ele>
        <time>2016-12-06T18:39:09Z</time>
      </trkpt>
      <trkpt lat="46.16327" lon="1.81668">
        <ele>578</ele>
        <time>2016-12-06T18:41:09Z</time>
      </trkpt>
      <trkpt lat="46.16325" lon="1.81668">
        <ele>578</ele>
        <time>2016-12-06T18:43:09Z</time>
      </trkpt>
      <trkpt lat="46.16322" lon="1.81666">
        <ele>577</ele>
        <time>2016-12-06T18:45:09Z</time>
      </trkpt>
      <trkpt lat="46.16316" lon="1.81665">
        <ele>577</ele>
        <time>2016-12-06T18:47:09Z</time>
      </trkpt>
      <trkpt lat="46.16314" lon="1.81663">
        <ele>576</ele>
        <time>2016-12-06T18:49:09Z</time>
      </trkpt>
      <trkpt lat="46.16309" lon="1.81661">
        <ele>576</ele>
        <time>2016-12-06T18:51:09Z</time>
      </trkpt>
      <trkpt lat="46.16305" lon="1.81661">
        <ele>575</ele>
        <time>2016-12-06T18:53:09Z</time>
      </trkpt>
      <trkpt lat="46.16302" lon="1.81661">
        <ele>575</ele>
        <time>2016-12-06T18:55:09Z</time>
      </trkpt>
      <trkpt lat="46.16296" lon="1.81659">
        <ele>575</ele>
        <time>2016-12-06T18:57:09Z</time>
      </trkpt>
      <trkpt lat="46.16293" lon="1.81657">
        <ele>574</ele>
        <time>2016-12-06T18:59:09Z</time>
      </trkpt>
      <trkpt lat="46.1629" lon="1.81657">
        <ele>574</ele>
        <time>2016-12-06T19:01:09Z</time>
      </trkpt>
      <trkpt lat="46.16287" lon="1.81656">
        <ele>574</ele>
        <time>2016-12-06T19:03:09Z</time>
      </trkpt>
      <trkpt lat="46.16281" lon="1.81655">
        <ele>573</ele>
        <time>2016-12-06T19:05:09Z</time>
      </trkpt>
      <trkpt lat="46.16272" lon="1.81653">
        <ele>572</ele>
        <time>2016-12-06T19:07:09Z</time>
      </trkpt>
      <trkpt lat="46.16269" lon="1.81651">
        <ele>572</ele>
        <time>2016-12-06T19:09:09Z</time>
      </trkpt>
      <trkpt lat="46.16266" lon="1.81651">
        <ele>571</ele>
        <time>2016-12-06T19:11:09Z</time>
      </trkpt>
      <trkpt lat="46.16262" lon="1.8165">
        <ele>571</ele>
        <time>2016-12-06T19:13:09Z</time>
      </trkpt>
      <trkpt lat="46.1626" lon="1.81648">
        <ele>571</ele>
        <time>2016-12-06T19:15:09Z</time>
      </trkpt>
      <trkpt lat="46.16254" lon="1.81647">
        <ele>570</ele>
        <time>2016-12-06T19:17:09Z</time>
      </trkpt>
      <trkpt lat="46.1625" lon="1.81648">
        <ele>570</ele>
        <time>2016-12-06T19:19:09Z</time>
      </trkpt>
      <trkpt lat="46.16248" lon="1.81648">
        <ele>570</ele>
        <time>2016-12-06T19:21:09Z</time>
      </trkpt>
      <trkpt lat="46.16245" lon="1.81646">
        <ele>569</ele>
        <time>2016-12-06T19:23:09Z</time>
      </trkpt>
      <trkpt lat="46.1624" lon="1.81642">
        <ele>568</ele>
        <time>2016-12-06T19:25:09Z</time>
      </trkpt>
      <trkpt lat="46.16235" lon="1.81639">
        <ele>567</ele>
        <time>2016-12-06T19:27:09Z</time>
      </trkpt>
      <trkpt lat="46.16233" lon="1.81637">
        <ele>567</ele>
        <time>2016-12-06T19:29:09Z</time>
      </trkpt>
      <trkpt lat="46.16232" lon="1.81635">
        <ele>567</ele>
        <time>2016-12-06T19:31:09Z</time>
      </trkpt>
      <trkpt lat="46.16227" lon="1.81631">
        <ele>566</ele>
        <time>2016-12-06T19:33:09Z</time>
      </trkpt>
      <trkpt lat="46.16222" lon="1.81629">
        <ele>565</ele>
        <time>2016-12-06T19:35:09Z</time>
      </trkpt>
      <trkpt lat="46.16219" lon="1.81629">
        <ele>565</ele>
        <time>2016-12-06T19:37:09Z</time>
      </trkpt>
      <trkpt lat="46.16217" lon="1.81628">
        <ele>564</ele>
        <time>2016-12-06T19:39:09Z</time>
      </trkpt>
      <trkpt lat="46.16214" lon="1.81627">
        <ele>564</ele>
        <time>2016-12-06T19:41:09Z</time>
      </trkpt>
      <trkpt lat="46.16211" lon="1.81626">
        <ele>564</ele>
        <time>2016-12-06T19:43:09Z</time>
      </trkpt>
      <trkpt lat="46.16207" lon="1.81626">
        <ele>563</ele>
        <time>2016-12-06T19:45:09Z</time>
      </trkpt>
      <trkpt lat="46.16201" lon="1.81624">
        <ele>563</ele>
        <time>2016-12-06T19:47:09Z</time>
      </trkpt>
      <trkpt lat="46.16199" lon="1.81623">
        <ele>562</ele>
        <time>2016-12-06T19:49:09Z</time>
      </trkpt>
      <trkpt lat="46.16197" lon="1.81624">
        <ele>562</ele>
        <time>2016-12-06T19:51:09Z</time>
      </trkpt>
      <trkpt lat="46.16194" lon="1.81624">
        <ele>562</ele>
        <time>2016-12-06T19:53:09Z</time>
      </trkpt>
      <trkpt lat="46.16181" lon="1.81624">
        <ele>561</ele>
        <time>2016-12-06T19:55:09Z</time>
      </trkpt>
      <trkpt lat="46.16178" lon="1.81622">
        <ele>561</ele>
        <time>2016-12-06T19:57:09Z</time>
      </trkpt>
      <trkpt lat="46.16166" lon="1.81621">
        <ele>560</ele>
        <time>2016-12-06T19:59:09Z</time>
      </trkpt>
      <trkpt lat="46.16163" lon="1.81621">
        <ele>559</ele>
        <time>2016-12-06T20:01:09Z</time>
      </trkpt>
      <trkpt lat="46.16157" lon="1.81623">
        <ele>559</ele>
        <time>2016-12-06T20:03:09Z</time>
      </trkpt>
      <trkpt lat="46.16153" lon="1.81626">
        <ele>559</ele>
        <time>2016-12-06T20:05:09Z</time>
      </trkpt>
      <trkpt lat="46.1615" lon="1.81627">
        <ele>559</ele>
        <time>2016-12-06T20:07:09Z</time>
      </trkpt>
      <trkpt lat="46.16147" lon="1.81629">
        <ele>558</ele>
        <time>2016-12-06T20:09:09Z</time>
      </trkpt>
      <trkpt lat="46.16144" lon="1.81631">
        <ele>558</ele>
        <time>2016-12-06T20:11:09Z</time>
      </trkpt>
      <trkpt lat="46.16133" lon="1.81638">
        <ele>558</ele>
        <time>2016-12-06T20:13:09Z</time>
      </trkpt>
      <trkpt lat="46.1613" lon="1.81638">
        <ele>558</ele>
        <time>2016-12-06T20:15:09Z</time>
      </trkpt>
      <trkpt lat="46.16128" lon="1.81639">
        <ele>558</ele>
        <time>2016-12-06T20:17:09Z</time>
      </trkpt>
      <trkpt lat="46.16126" lon="1.8164">
        <ele>558</ele>
        <time>2016-12-06T20:19:09Z</time>
      </trkpt>
      <trkpt lat="46.16124" lon="1.81643">
        <ele>558</ele>
        <time>2016-12-06T20:21:09Z</time>
      </trkpt>
      <trkpt lat="46.16116" lon="1.81647">
        <ele>557</ele>
        <time>2016-12-06T20:23:09Z</time>
      </trkpt>
      <trkpt lat="46.16112" lon="1.81649">
        <ele>557</ele>
        <time>2016-12-06T20:25:09Z</time>
      </trkpt>
      <trkpt lat="46.1611" lon="1.81651">
        <ele>557</ele>
        <time>2016-12-06T20:27:09Z</time>
      </trkpt>
      <trkpt lat="46.16105" lon="1.81656">
        <ele>557</ele>
        <time>2016-12-06T20:29:09Z</time>
      </trkpt>
      <trkpt lat="46.16103" lon="1.81659">
        <ele>558</ele>
        <time>2016-12-06T20:31:09Z</time>
      </trkpt>
      <trkpt lat="46.16102" lon="1.81662">
        <ele>558</ele>
        <time>2016-12-06T20:33:09Z</time>
      </trkpt>
      <trkpt lat="46.16101" lon="1.81663">
        <ele>558</ele>
        <time>2016-12-06T20:35:09Z</time>
      </trkpt>
      <trkpt lat="46.161" lon="1.81664">
        <ele>558</ele>
        <time>2016-12-06T20:37:09Z</time>
      </trkpt>
      <trkpt lat="46.16099" lon="1.81668">
        <ele>558</ele>
        <time>2016-12-06T20:39:09Z</time>
      </trkpt>
      <trkpt lat="46.161" lon="1.81671">
        <ele>559</ele>
        <time>2016-12-06T20:41:09Z</time>
      </trkpt>
      <trkpt lat="46.16094" lon="1.81672">
        <ele>558</ele>
        <time>2016-12-06T20:43:09Z</time>
      </trkpt>
      <trkpt lat="46.16093" lon="1.81674">
        <ele>559</ele>
        <time>2016-12-06T20:45:09Z</time>
      </trkpt>
      <trkpt lat="46.16092" lon="1.81678">
        <ele>559</ele>
        <time>2016-12-06T20:47:09Z</time>
      </trkpt>
      <trkpt lat="46.16086" lon="1.81683">
        <ele>559</ele>
        <time>2016-12-06T20:49:09Z</time>
      </trkpt>
      <trkpt lat="46.16084" lon="1.81686">
        <ele>560</ele>
        <time>2016-12-06T20:51:09Z</time>
      </trkpt>
      <trkpt lat="46.16081" lon="1.81687">
        <ele>560</ele>
        <time>2016-12-06T20:53:09Z</time>
      </trkpt>
      <trkpt lat="46.16079" lon="1.81689">
        <ele>560</ele>
        <time>2016-12-06T20:55:09Z</time>
      </trkpt>
      <trkpt lat="46.16075" lon="1.81692">
        <ele>560</ele>
        <time>2016-12-06T20:57:09Z</time>
      </trkpt>
      <trkpt lat="46.16071" lon="1.81694">
        <ele>561</ele>
        <time>2016-12-06T20:59:09Z</time>
      </trkpt>
      <trkpt lat="46.1606" lon="1.81699">
        <ele>561</ele>
        <time>2016-12-06T21:01:09Z</time>
      </trkpt>
      <trkpt lat="46.16053" lon="1.81703">
        <ele>562</ele>
        <time>2016-12-06T21:03:09Z</time>
      </trkpt>
      <trkpt lat="46.16048" lon="1.81708">
        <ele>562</ele>
        <time>2016-12-06T21:05:09Z</time>
      </trkpt>
      <trkpt lat="46.16043" lon="1.81709">
        <ele>562</ele>
        <time>2016-12-06T21:07:09Z</time>
      </trkpt>
      <trkpt lat="46.16033" lon="1.81708">
        <ele>562</ele>
        <time>2016-12-06T21:09:09Z</time>
      </trkpt>
      <trkpt lat="46.16028" lon="1.81706">
        <ele>562</ele>
        <time>2016-12-06T21:11:09Z</time>
      </trkpt>
      <trkpt lat="46.16026" lon="1.81704">
        <ele>561</ele>
        <time>2016-12-06T21:13:09Z</time>
      </trkpt>
      <trkpt lat="46.16024" lon="1.81702">
        <ele>561</ele>
        <time>2016-12-06T21:15:09Z</time>
      </trkpt>
      <trkpt lat="46.16022" lon="1.81697">
        <ele>561</ele>
        <time>2016-12-06T21:17:09Z</time>
      </trkpt>
      <trkpt lat="46.1602" lon="1.81694">
        <ele>560</ele>
        <time>2016-12-06T21:19:09Z</time>
      </trkpt>
      <trkpt lat="46.1602" lon="1.81692">
        <ele>560</ele>
        <time>2016-12-06T21:21:09Z</time>
      </trkpt>
      <trkpt lat="46.16016" lon="1.81686">
        <ele>559</ele>
        <time>2016-12-06T21:23:09Z</time>
      </trkpt>
      <trkpt lat="46.16014" lon="1.81683">
        <ele>559</ele>
        <time>2016-12-06T21:25:09Z</time>
      </trkpt>
      <trkpt lat="46.16012" lon="1.81678">
        <ele>559</ele>
        <time>2016-12-06T21:27:09Z</time>
      </trkpt>
      <trkpt lat="46.16012" lon="1.81673">
        <ele>558</ele>
        <time>2016-12-06T21:29:09Z</time>
      </trkpt>
      <trkpt lat="46.16012" lon="1.81671">
        <ele>558</ele>
        <time>2016-12-06T21:31:09Z</time>
      </trkpt>
      <trkpt lat="46.16013" lon="1.81661">
        <ele>557</ele>
        <time>2016-12-06T21:33:09Z</time>
      </trkpt>
      <trkpt lat="46.16014" lon="1.81654">
        <ele>556</ele>
        <time>2016-12-06T21:35:09Z</time>
      </trkpt>
      <trkpt lat="46.16013" lon="1.8165">
        <ele>556</ele>
        <time>2016-12-06T21:37:09Z</time>
      </trkpt>
      <trkpt lat="46.16013" lon="1.81646">
        <ele>556</ele>
        <time>2016-12-06T21:39:09Z</time>
      </trkpt>
      <trkpt lat="46.16013" lon="1.81642">
        <ele>555</ele>
        <time>2016-12-06T21:41:09Z</time>
      </trkpt>
      <trkpt lat="46.16013" lon="1.81639">
        <ele>555</ele>
        <time>2016-12-06T21:43:09Z</time>
      </trkpt>
      <trkpt lat="46.16014" lon="1.81635">
        <ele>555</ele>
        <time>2016-12-06T21:45:09Z</time>
      </trkpt>
      <trkpt lat="46.16013" lon="1.81627">
        <ele>554</ele>
        <time>2016-12-06T21:47:09Z</time>
      </trkpt>
      <trkpt lat="46.16014" lon="1.81623">
        <ele>553</ele>
        <time>2016-12-06T21:49:09Z</time>
      </trkpt>
      <trkpt lat="46.16013" lon="1.81618">
        <ele>553</ele>
        <time>2016-12-06T21:51:09Z</time>
      </trkpt>
      <trkpt lat="46.16013" lon="1.81613">
        <ele>552</ele>
        <time>2016-12-06T21:53:09Z</time>
      </trkpt>
      <trkpt lat="46.16014" lon="1.81606">
        <ele>552</ele>
        <time>2016-12-06T21:55:09Z</time>
      </trkpt>
      <trkpt lat="46.16012" lon="1.81601">
        <ele>551</ele>
        <time>2016-12-06T21:57:09Z</time>
      </trkpt>
      <trkpt lat="46.16011" lon="1.81597">
        <ele>551</ele>
        <time>2016-12-06T21:59:09Z</time>
      </trkpt>
      <trkpt lat="46.16011" lon="1.81592">
        <ele>551</ele>
        <time>2016-12-06T22:01:09Z</time>
      </trkpt>
      <trkpt lat="46.16007" lon="1.81584">
        <ele>550</ele>
        <time>2016-12-06T22:03:09Z</time>
      </trkpt>
      <trkpt lat="46.16007" lon="1.81579">
        <ele>549</ele>
        <time>2016-12-06T22:05:09Z</time>
      </trkpt>
      <trkpt lat="46.16006" lon="1.81576">
        <ele>549</ele>
        <time>2016-12-06T22:07:09Z</time>
      </trkpt>
      <trkpt lat="46.16004" lon="1.81566">
        <ele>547</ele>
        <time>2016-12-06T22:09:09Z</time>
      </trkpt>
      <trkpt lat="46.16003" lon="1.81559">
        <ele>546</ele>
        <time>2016-12-06T22:11:09Z</time>
      </trkpt>
      <trkpt lat="46.16003" lon="1.81555">
        <ele>545</ele>
        <time>2016-12-06T22:13:09Z</time>
      </trkpt>
      <trkpt lat="46.16004" lon="1.81551">
        <ele>544</ele>
        <time>2016-12-06T22:15:09Z</time>
      </trkpt>
      <trkpt lat="46.16004" lon="1.81544">
        <ele>542</ele>
        <time>2016-12-06T22:17:09Z</time>
      </trkpt>
      <trkpt lat="46.16004" lon="1.81542">
        <ele>542</ele>
        <time>2016-12-06T22:19:09Z</time>
      </trkpt>
      <trkpt lat="46.16004" lon="1.8154">
        <ele>542</ele>
        <time>2016-12-06T22:21:09Z</time>
      </trkpt>
      <trkpt lat="46.16005" lon="1.81538">
        <ele>541</ele>
        <time>2016-12-06T22:23:09Z</time>
      </trkpt>
      <trkpt lat="46.16004" lon="1.8153">
        <ele>540</ele>
        <time>2016-12-06T22:25:09Z</time>
      </trkpt>
      <trkpt lat="46.16003" lon="1.81529">
        <ele>540</ele>
        <time>2016-12-06T22:27:09Z</time>
      </trkpt>
      <trkpt lat="46.16003" lon="1.81528">
        <ele>539</ele>
        <time>2016-12-06T22:29:09Z</time>
      </trkpt>
      <trkpt lat="46.16001" lon="1.81527">
        <ele>539</ele>
        <time>2016-12-06T22:31:09Z</time>
      </trkpt>
      <trkpt lat="46.15999" lon="1.81525">
        <ele>539</ele>
        <time>2016-12-06T22:33:09Z</time>
      </trkpt>
      <trkpt lat="46.15996" lon="1.81524">
        <ele>539</ele>
        <time>2016-12-06T22:35:09Z</time>
      </trkpt>
      <trkpt lat="46.15992" lon="1.81519">
        <ele>538</ele>
        <time>2016-12-06T22:37:09Z</time>
      </trkpt>
      <trkpt lat="46.1599" lon="1.81519">
        <ele>538</ele>
        <time>2016-12-06T22:39:09Z</time>
      </trkpt>
      <trkpt lat="46.15985" lon="1.81521">
        <ele>539</ele>
        <time>2016-12-06T22:41:09Z</time>
      </trkpt>
      <trkpt lat="46.15983" lon="1.81522">
        <ele>539</ele>
        <time>2016-12-06T22:43:09Z</time>
      </trkpt>
      <trkpt lat="46.15983" lon="1.81523">
        <ele>539</ele>
        <time>2016-12-06T22:45:09Z</time>
      </trkpt>
      <trkpt lat="46.1598" lon="1.81524">
        <ele>540</ele>
        <time>2016-12-06T22:47:09Z</time>
      </trkpt>
      <trkpt lat="46.15979" lon="1.81525">
        <ele>540</ele>
        <time>2016-12-06T22:49:09Z</time>
      </trkpt>
      <trkpt lat="46.15977" lon="1.81527">
        <ele>541</ele>
        <time>2016-12-06T22:51:09Z</time>
      </trkpt>
      <trkpt lat="46.15975" lon="1.81527">
        <ele>541</ele>
        <time>2016-12-06T22:53:09Z</time>
      </trkpt>
      <trkpt lat="46.15972" lon="1.81527">
        <ele>541</ele>
        <time>2016-12-06T22:55:09Z</time>
      </trkpt>
      <trkpt lat="46.1597" lon="1.81526">
        <ele>541</ele>
        <time>2016-12-06T22:57:09Z</time>
      </trkpt>
      <trkpt lat="46.15965" lon="1.81525">
        <ele>541</ele>
        <time>2016-12-06T22:59:09Z</time>
      </trkpt>
      <trkpt lat="46.1596" lon="1.81524">
        <ele>541</ele>
        <time>2016-12-06T23:01:09Z</time>
      </trkpt>
      <trkpt lat="46.15959" lon="1.81525">
        <ele>541</ele>
        <time>2016-12-06T23:03:09Z</time>
      </trkpt>
      <trkpt lat="46.15956" lon="1.81528">
        <ele>542</ele>
        <time>2016-12-06T23:05:09Z</time>
      </trkpt>
      <trkpt lat="46.15954" lon="1.81529">
        <ele>542</ele>
        <time>2016-12-06T23:07:09Z</time>
      </trkpt>
      <trkpt lat="46.15953" lon="1.81531">
        <ele>542</ele>
        <time>2016-12-06T23:09:09Z</time>
      </trkpt>
      <trkpt lat="46.15953" lon="1.81532">
        <ele>543</ele>
        <time>2016-12-06T23:11:09Z</time>
      </trkpt>
      <trkpt lat="46.15948" lon="1.81535">
        <ele>543</ele>
        <time>2016-12-06T23:13:09Z</time>
      </trkpt>
      <trkpt lat="46.15949" lon="1.81535">
        <ele>543</ele>
        <time>2016-12-06T23:15:09Z</time>
      </trkpt>
      <trkpt lat="46.15947" lon="1.81536">
        <ele>544</ele>
        <time>2016-12-06T23:17:09Z</time>
      </trkpt>
      <trkpt lat="46.15946" lon="1.81539">
        <ele>544</ele>
        <time>2016-12-06T23:19:09Z</time>
      </trkpt>
      <trkpt lat="46.15947" lon="1.81539">
        <ele>544</ele>
        <time>2016-12-06T23:21:09Z</time>
      </trkpt>
      <trkpt lat="46.15946" lon="1.81539">
        <ele>544</ele>
        <time>2016-12-06T23:23:09Z</time>
      </trkpt>
      <trkpt lat="46.15945" lon="1.81541">
        <ele>545</ele>
        <time>2016-12-06T23:25:09Z</time>
      </trkpt>
      <trkpt lat="46.15943" lon="1.81544">
        <ele>545</ele>
        <time>2016-12-06T23:27:09Z</time>
      </trkpt>
      <trkpt lat="46.15943" lon="1.81545">
        <ele>546</ele>
        <time>2016-12-06T23:29:09Z</time>
      </trkpt>
      <trkpt lat="46.15941" lon="1.81548">
        <ele>546</ele>
        <time>2016-12-06T23:31:09Z</time>
      </trkpt>
      <trkpt lat="46.15941" lon="1.81549">
        <ele>546</ele>
        <time>2016-12-06T23:33:09Z</time>
      </trkpt>
      <trkpt lat="46.1594" lon="1.8155">
        <ele>547</ele>
        <time>2016-12-06T23:35:09Z</time>
      </trkpt>
      <trkpt lat="46.15939" lon="1.81551">
        <ele>547</ele>
        <time>2016-12-06T23:37:09Z</time>
      </trkpt>
      <trkpt lat="46.15938" lon="1.81551">
        <ele>547</ele>
        <time>2016-12-06T23:39:09Z</time>
      </trkpt>
      <trkpt lat="46.15936" lon="1.8155">
        <ele>547</ele>
        <time>2016-12-06T23:41:09Z</time>
      </trkpt>
      <trkpt lat="46.15935" lon="1.81549">
        <ele>547</ele>
        <time>2016-12-06T23:43:09Z</time>
      </trkpt>
      <trkpt lat="46.15933" lon="1.81548">
        <ele>547</ele>
        <time>2016-12-06T23:45:09Z</time>
      </trkpt>
      <trkpt lat="46.15929" lon="1.81546">
        <ele>546</ele>
        <time>2016-12-06T23:47:09Z</time>
      </trkpt>
      <trkpt lat="46.15927" lon="1.81546">
        <ele>546</ele>
        <time>2016-12-06T23:49:09Z</time>
      </trkpt>
      <trkpt lat="46.15926" lon="1.81546">
        <ele>546</ele>
        <time>2016-12-06T23:51:09Z</time>
      </trkpt>
      <trkpt lat="46.15924" lon="1.81547">
        <ele>547</ele>
        <time>2016-12-06T23:53:09Z</time>
      </trkpt>
      <trkpt lat="46.15921" lon="1.8155">
        <ele>547</ele>
        <time>2016-12-06T23:55:09Z</time>
      </trkpt>
      <trkpt lat="46.15919" lon="1.8155">
        <ele>548</ele>
        <time>2016-12-06T23:57:09Z</time>
      </trkpt>
      <trkpt lat="46.15918" lon="1.81552">
        <ele>548</ele>
        <time>2016-12-06T23:59:09Z</time>
      </trkpt>
      <trkpt lat="46.15917" lon="1.81553">
        <ele>548</ele>
        <time>2016-12-07T00:01:09Z</time>
      </trkpt>
      <trkpt lat="46.15915" lon="1.81556">
        <ele>549</ele>
        <time>2016-12-07T00:03:09Z</time>
      </trkpt>
      <trkpt lat="46.15914" lon="1.81559">
        <ele>549</ele>
        <time>2016-12-07T00:05:09Z</time>
      </trkpt>
      <trkpt lat="46.15913" lon="1.81561">
        <ele>549</ele>
        <time>2016-12-07T00:07:09Z</time>
      </trkpt>
      <trkpt lat="46.15912" lon="1.81563">
        <ele>550</ele>
        <time>2016-12-07T00:09:09Z</time>
      </trkpt>
      <trkpt lat="46.1591" lon="1.81565">
        <ele>550</ele>
        <time>2016-12-07T00:11:09Z</time>
      </trkpt>
      <trkpt lat="46.15905" lon="1.81568">
        <ele>550</ele>
        <time>2016-12-07T00:13:09Z</time>
      </trkpt>
      <trkpt lat="46.15904" lon="1.81571">
        <ele>551</ele>
        <time>2016-12-07T00:15:09Z</time>
      </trkpt>
      <trkpt lat="46.15902" lon="1.81573">
        <ele>551</ele>
        <time>2016-12-07T00:17:09Z</time>
      </trkpt>
      <trkpt lat="46.15901" lon="1.81576">
        <ele>551</ele>
        <time>2016-12-07T00:19:09Z</time>
      </trkpt>
      <trkpt lat="46.15899" lon="1.81578">
        <ele>551</ele>
        <time>2016-12-07T00:21:09Z</time>
      </trkpt>
      <trkpt lat="46.15897" lon="1.81584">
        <ele>552</ele>
        <time>2016-12-07T00:23:09Z</time>
      </trkpt>
      <trkpt lat="46.15895" lon="1.81586">
        <ele>552</ele>
        <time>2016-12-07T00:25:09Z</time>
      </trkpt>
      <trkpt lat="46.15894" lon="1.81589">
        <ele>552</ele>
        <time>2016-12-07T00:27:09Z</time>
      </trkpt>
      <trkpt lat="46.15893" lon="1.81593">
        <ele>552</ele>
        <time>2016-12-07T00:29:09Z</time>
      </trkpt>
      <trkpt lat="46.15892" lon="1.81596">
        <ele>553</ele>
        <time>2016-12-07T00:31:09Z</time>
      </trkpt>
      <trkpt lat="46.15891" lon="1.81597">
        <ele>553</ele>
        <time>2016-12-07T00:33:09Z</time>
      </trkpt>
      <trkpt lat="46.15891" lon="1.81603">
        <ele>553</ele>
        <time>2016-12-07T00:35:09Z</time>
      </trkpt>
      <trkpt lat="46.15891" lon="1.81605">
        <ele>553</ele>
        <time>2016-12-07T00:37:09Z</time>
      </trkpt>
      <trkpt lat="46.1589" lon="1.8161">
        <ele>554</ele>
        <time>2016-12-07T00:39:09Z</time>
      </trkpt>
      <trkpt lat="46.1589" lon="1.81612">
        <ele>554</ele>
        <time>2016-12-07T00:41:09Z</time>
      </trkpt>
      <trkpt lat="46.15891" lon="1.81619">
        <ele>555</ele>
        <time>2016-12-07T00:43:09Z</time>
      </trkpt>
      <trkpt lat="46.15891" lon="1.81624">
        <ele>555</ele>
        <time>2016-12-07T00:45:09Z</time>
      </trkpt>
      <trkpt lat="46.15892" lon="1.81629">
        <ele>556</ele>
        <time>2016-12-07T00:47:09Z</time>
      </trkpt>
      <trkpt lat="46.15892" lon="1.81638">
        <ele>557</ele>
        <time>2016-12-07T00:49:09Z</time>
      </trkpt>
      <trkpt lat="46.15891" lon="1.81644">
        <ele>557</ele>
        <time>2016-12-07T00:51:09Z</time>
      </trkpt>
      <trkpt lat="46.15892" lon="1.81655">
        <ele>559</ele>
        <time>2016-12-07T00:53:09Z</time>
      </trkpt>
      <trkpt lat="46.15893" lon="1.81659">
        <ele>559</ele>
        <time>2016-12-07T00:55:09Z</time>
      </trkpt>
      <trkpt lat="46.15893" lon="1.81666">
        <ele>560</ele>
        <time>2016-12-07T00:57:09Z</time>
      </trkpt>
      <trkpt lat="46.15892" lon="1.81669">
        <ele>560</ele>
        <time>2016-12-07T00:59:09Z</time>
      </trkpt>
      <trkpt lat="46.15894" lon="1.81676">
        <ele>561</ele>
        <time>2016-12-07T01:01:09Z</time>
      </trkpt>
      <trkpt lat="46.15894" lon="1.81679">
        <ele>561</ele>
        <time>2016-12-07T01:03:09Z</time>
      </trkpt>
      <trkpt lat="46.15895" lon="1.81683">
        <ele>561</ele>
        <time>2016-12-07T01:05:09Z</time>
      </trkpt>
      <trkpt lat="46.15896" lon="1.81688">
        <ele>561</ele>
        <time>2016-12-07T01:07:09Z</time>
      </trkpt>
      <trkpt lat="46.15897" lon="1.81695">
        <ele>562</ele>
        <time>2016-12-07T01:09:09Z</time>
      </trkpt>
      <trkpt lat="46.15898" lon="1.81702">
        <ele>562</ele>
        <time>2016-12-07T01:11:09Z</time>
      </trkpt>
      <trkpt lat="46.15898" lon="1.81707">
        <ele>563</ele>
        <time>2016-12-07T01:13:09Z</time>
      </trkpt>
      <trkpt lat="46.159" lon="1.81717">
        <ele>563</ele>
        <time>2016-12-07T01:15:09Z</time>
      </trkpt>
      <trkpt lat="46.15899" lon="1.81719">
        <ele>563</ele>
        <time>2016-12-07T01:17:09Z</time>
      </trkpt>
      <trkpt lat="46.15901" lon="1.81726">
        <ele>564</ele>
        <time>2016-12-07T01:19:09Z</time>
      </trkpt>
      <trkpt lat="46.15901" lon="1.81732">
        <ele>564</ele>
        <time>2016-12-07T01:21:09Z</time>
      </trkpt>
      <trkpt lat="46.15901" lon="1.81737">
        <ele>564</ele>
        <time>2016-12-07T01:23:09Z</time>
      </trkpt>
      <trkpt lat="46.15902" lon="1.81742">
        <ele>565</ele>
        <time>2016-12-07T01:25:09Z</time>
      </trkpt>
      <trkpt lat="46.15901" lon="1.81751">
        <ele>565</ele>
        <time>2016-12-07T01:27:09Z</time>
      </trkpt>
      <trkpt lat="46.159" lon="1.81754">
        <ele>565</ele>
        <time>2016-12-07T01:29:09Z</time>
      </trkpt>
      <trkpt lat="46.15901" lon="1.81756">
        <ele>565</ele>
        <time>2016-12-07T01:31:09Z</time>
      </trkpt>
      <trkpt lat="46.159" lon="1.81761">
        <ele>565</ele>
        <time>2016-12-07T01:33:09Z</time>
      </trkpt>
      <trkpt lat="46.159" lon="1.81763">
        <ele>565</ele>
        <time>2016-12-07T01:35:09Z</time>
      </trkpt>
      <trkpt lat="46.159" lon="1.81765">
        <ele>565</ele>
        <time>2016-12-07T01:37:09Z</time>
      </trkpt>
      <trkpt lat="46.159" lon="1.81768">
        <ele>565</ele>
        <time>2016-12-07T01:39:09Z</time>
      </trkpt>
      <trkpt lat="46.159" lon="1.81773">
        <ele>565</ele>
        <time>2016-12-07T01:41:09Z</time>
      </trkpt>
      <trkpt lat="46.159" lon="1.81776">
        <ele>565</ele>
        <time>2016-12-07T01:43:09Z</time>
      </trkpt>
      <trkpt lat="46.159" lon="1.81783">
        <ele>565</ele>
        <time>2016-12-07T01:45:09Z</time>
      </trkpt>
      <trkpt lat="46.159" lon="1.81786">
        <ele>565</ele>
        <time>2016-12-07T01:47:09Z</time>
      </trkpt>
      <trkpt lat="46.15899" lon="1.81789">
        <ele>565</ele>
        <time>2016-12-07T01:49:09Z</time>
      </trkpt>
      <trkpt lat="46.15899" lon="1.81792">
        <ele>565</ele>
        <time>2016-12-07T01:51:09Z</time>
      </trkpt>
      <trkpt lat="46.159" lon="1.81803">
        <ele>566</ele>
        <time>2016-12-07T01:53:09Z</time>
      </trkpt>
      <trkpt lat="46.159" lon="1.81806">
        <ele>566</ele>
        <time>2016-12-07T01:55:09Z</time>
      </trkpt>
      <trkpt lat="46.159" lon="1.81813">
        <ele>566</ele>
        <time>2016-12-07T01:57:09Z</time>
      </trkpt>
      <trkpt lat="46.159" lon="1.81819">
        <ele>566</ele>
        <time>2016-12-07T01:59:09Z</time>
      </trkpt>
      <trkpt lat="46.159" lon="1.81823">
        <ele>566</ele>
        <time>2016-12-07T02:01:09Z</time>
      </trkpt>
      <trkpt lat="46.15901" lon="1.81829">
        <ele>566</ele>
        <time>2016-12-07T02:03:09Z</time>
      </trkpt>
      <trkpt lat="46.15901" lon="1.81839">
        <ele>567</ele>
        <time>2016-12-07T02:05:09Z</time>
      </trkpt>
      <trkpt lat="46.15901" lon="1.81846">
        <ele>567</ele>
        <time>2016-12-07T02:07:09Z</time>
      </trkpt>
      <trkpt lat="46.15902" lon="1.81854">
        <ele>567</ele>
        <time>2016-12-07T02:09:09Z</time>
      </trkpt>
      <trkpt lat="46.15901" lon="1.8186">
        <ele>567</ele>
        <time>2016-12-07T02:11:09Z</time>
      </trkpt>
      <trkpt lat="46.15899" lon="1.81875">
        <ele>568</ele>
        <time>2016-12-07T02:13:09Z</time>
      </trkpt>
      <trkpt lat="46.15898" lon="1.81878">
        <ele>568</ele>
        <time>2016-12-07T02:15:09Z</time>
      </trkpt>
      <trkpt lat="46.15898" lon="1.81881">
        <ele>568</ele>
        <time>2016-12-07T02:17:09Z</time>
      </trkpt>
      <trkpt lat="46.15898" lon="1.81885">
        <ele>568</ele>
        <time>2016-12-07T02:19:09Z</time>
      </trkpt>
      <trkpt lat="46.15898" lon="1.81888">
        <ele>568</ele>
        <time>2016-12-07T02:21:09Z</time>
      </trkpt>
      <trkpt lat="46.15898" lon="1.81891">
        <ele>568</ele>
        <time>2016-12-07T02:23:09Z</time>
      </trkpt>
      <trkpt lat="46.15897" lon="1.81894">
        <ele>568</ele>
        <time>2016-12-07T02:25:09Z</time>
      </trkpt>
      <trkpt lat="46.15896" lon="1.81897">
        <ele>568</ele>
        <time>2016-12-07T02:27:09Z</time>
      </trkpt>
      <trkpt lat="46.15895" lon="1.81899">
        <ele>568</ele>
        <time>2016-12-07T02:29:09Z</time>
      </trkpt>
      <trkpt lat="46.15892" lon="1.819">
        <ele>569</ele>
        <time>2016-12-07T02:31:09Z</time>
      </trkpt>
      <trkpt lat="46.15889" lon="1.819">
        <ele>568</ele>
        <time>2016-12-07T02:33:09Z</time>
      </trkpt>
      <trkpt lat="46.15887" lon="1.81901">
        <ele>568</ele>
        <time>2016-12-07T02:35:09Z</time>
      </trkpt>
      <trkpt lat="46.15885" lon="1.81901">
        <ele>568</ele>
        <time>2016-12-07T02:37:09Z</time>
      </trkpt>
      <trkpt lat="46.15878" lon="1.81903">
        <ele>569</ele>
        <time>2016-12-07T02:39:09Z</time>
      </trkpt>
      <trkpt lat="46.15876" lon="1.81904">
        <ele>569</ele>
        <time>2016-12-07T02:41:09Z</time>
      </trkpt>
      <trkpt lat="46.15873" lon="1.81905">
        <ele>569</ele>
        <time>2016-12-07T02:43:09Z</time>
      </trkpt>
      <trkpt lat="46.15869" lon="1.81907">
        <ele>569</ele>
        <time>2016-12-07T02:45:09Z</time>
      </trkpt>
      <trkpt lat="46.15867" lon="1.81908">
        <ele>569</ele>
        <time>2016-12-07T02:47:09Z</time>
      </trkpt>
      <trkpt lat="46.15865" lon="1.81909">
        <ele>569</ele>
        <time>2016-12-07T02:49:09Z</time>
      </trkpt>
      <trkpt lat="46.15861" lon="1.8191">
        <ele>569</ele>
        <time>2016-12-07T02:51:09Z</time>
      </trkpt>
      <trkpt lat="46.15859" lon="1.81912">
        <ele>569</ele>
        <time>2016-12-07T02:53:09Z</time>
      </trkpt>
      <trkpt lat="46.15856" lon="1.81913">
        <ele>569</ele>
        <time>2016-12-07T02:55:09Z</time>
      </trkpt>
      <trkpt lat="46.15854" lon="1.81914">
        <ele>569</ele>
        <time>2016-12-07T02:57:09Z</time>
      </trkpt>
      <trkpt lat="46.15852" lon="1.81916">
        <ele>570</ele>
        <time>2016-12-07T02:59:09Z</time>
      </trkpt>
      <trkpt lat="46.1585" lon="1.81916">
        <ele>570</ele>
        <time>2016-12-07T03:01:09Z</time>
      </trkpt>
      <trkpt lat="46.15848" lon="1.81919">
        <ele>570</ele>
        <time>2016-12-07T03:03:09Z</time>
      </trkpt>
      <trkpt lat="46.1584" lon="1.81922">
        <ele>570</ele>
        <time>2016-12-07T03:05:09Z</time>
      </trkpt>
      <trkpt lat="46.15837" lon="1.81923">
        <ele>570</ele>
        <time>2016-12-07T03:07:09Z</time>
      </trkpt>
      <trkpt lat="46.15835" lon="1.81923">
        <ele>570</ele>
        <time>2016-12-07T03:09:09Z</time>
      </trkpt>
      <trkpt lat="46.1583" lon="1.81924">
        <ele>570</ele>
        <time>2016-12-07T03:11:09Z</time>
      </trkpt>
      <trkpt lat="46.15828" lon="1.81925">
        <ele>570</ele>
        <time>2016-12-07T03:13:09Z</time>
      </trkpt>
      <trkpt lat="46.15826" lon="1.81928">
        <ele>571</ele>
        <time>2016-12-07T03:15:09Z</time>
      </trkpt>
      <trkpt lat="46.15824" lon="1.8193">
        <ele>571</ele>
        <time>2016-12-07T03:17:09Z</time>
      </trkpt>
      <trkpt lat="46.1582" lon="1.81935">
        <ele>571</ele>
        <time>2016-12-07T03:19:09Z</time>
      </trkpt>
      <trkpt lat="46.15818" lon="1.81936">
        <ele>571</ele>
        <time>2016-12-07T03:21:09Z</time>
      </trkpt>
      <trkpt lat="46.1581" lon="1.81943">
        <ele>572</ele>
        <time>2016-12-07T03:23:09Z</time>
      </trkpt>
      <trkpt lat="46.15807" lon="1.81945">
        <ele>572</ele>
        <time>2016-12-07T03:25:09Z</time>
      </trkpt>
      <trkpt lat="46.15802" lon="1.8195">
        <ele>572</ele>
        <time>2016-12-07T03:27:09Z</time>
      </trkpt>
      <trkpt lat="46.15799" lon="1.81953">
        <ele>573</ele>
        <time>2016-12-07T03:29:09Z</time>
      </trkpt>
      <trkpt lat="46.15796" lon="1.81955">
        <ele>573</ele>
        <time>2016-12-07T03:31:09Z</time>
      </trkpt>
      <trkpt lat="46.15792" lon="1.81957">
        <ele>573</ele>
        <time>2016-12-07T03:33:09Z</time>
      </trkpt>
      <trkpt lat="46.15788" lon="1.81957">
        <ele>573</ele>
        <time>2016-12-07T03:35:09Z</time>
      </trkpt>
      <trkpt lat="46.15784" lon="1.81957">
        <ele>573</ele>
        <time>2016-12-07T03:37:09Z</time>
      </trkpt>
      <trkpt lat="46.15782" lon="1.81957">
        <ele>573</ele>
        <time>2016-12-07T03:39:09Z</time>
      </trkpt>
      <trkpt lat="46.15778" lon="1.81957">
        <ele>573</ele>
        <time>2016-12-07T03:41:09Z</time>
      </trkpt>
      <trkpt lat="46.15775" lon="1.81956">
        <ele>573</ele>
        <time>2016-12-07T03:43:09Z</time>
      </trkpt>
      <trkpt lat="46.15773" lon="1.81956">
        <ele>573</ele>
        <time>2016-12-07T03:45:09Z</time>
      </trkpt>
      <trkpt lat="46.1577" lon="1.81957">
        <ele>573</ele>
        <time>2016-12-07T03:47:09Z</time>
      </trkpt>
      <trkpt lat="46.15769" lon="1.81957">
        <ele>573</ele>
        <time>2016-12-07T03:49:09Z</time>
      </trkpt>
      <trkpt lat="46.15767" lon="1.81958">
        <ele>574</ele>
        <time>2016-12-07T03:51:09Z</time>
      </trkpt>
      <trkpt lat="46.15764" lon="1.81961">
        <ele>574</ele>
        <time>2016-12-07T03:53:09Z</time>
      </trkpt>
      <trkpt lat="46.15752" lon="1.81965">
        <ele>575</ele>
        <time>2016-12-07T03:55:09Z</time>
      </trkpt>
      <trkpt lat="46.1575" lon="1.81965">
        <ele>575</ele>
        <time>2016-12-07T03:57:09Z</time>
      </trkpt>
      <trkpt lat="46.15745" lon="1.81962">
        <ele>575</ele>
        <time>2016-12-07T03:59:09Z</time>
      </trkpt>
      <trkpt lat="46.15744" lon="1.81961">
        <ele>575</ele>
        <time>2016-12-07T04:01:09Z</time>
      </trkpt>
      <trkpt lat="46.15743" lon="1.81959">
        <ele>575</ele>
        <time>2016-12-07T04:03:09Z</time>
      </trkpt>
      <trkpt lat="46.15742" lon="1.81958">
        <ele>575</ele>
        <time>2016-12-07T04:05:09Z</time>
      </trkpt>
      <trkpt lat="46.1574" lon="1.81956">
        <ele>575</ele>
        <time>2016-12-07T04:07:09Z</time>
      </trkpt>
      <trkpt lat="46.15735" lon="1.81957">
        <ele>575</ele>
        <time>2016-12-07T04:09:09Z</time>
      </trkpt>
      <trkpt lat="46.1573" lon="1.81959">
        <ele>576</ele>
        <time>2016-12-07T04:11:09Z</time>
      </trkpt>
      <trkpt lat="46.15726" lon="1.81957">
        <ele>576</ele>
        <time>2016-12-07T04:13:09Z</time>
      </trkpt>
      <trkpt lat="46.15724" lon="1.81956">
        <ele>576</ele>
        <time>2016-12-07T04:15:09Z</time>
      </trkpt>
      <trkpt lat="46.15719" lon="1.8195">
        <ele>576</ele>
        <time>2016-12-07T04:17:09Z</time>
      </trkpt>
      <trkpt lat="46.15716" lon="1.81946">
        <ele>576</ele>
        <time>2016-12-07T04:19:09Z</time>
      </trkpt>
      <trkpt lat="46.15715" lon="1.81943">
        <ele>576</ele>
        <time>2016-12-07T04:21:09Z</time>
      </trkpt>
      <trkpt lat="46.15714" lon="1.81936">
        <ele>575</ele>
        <time>2016-12-07T04:23:09Z</time>
      </trkpt>
      <trkpt lat="46.15709" lon="1.81929">
        <ele>574</ele>
        <time>2016-12-07T04:25:09Z</time>
      </trkpt>
      <trkpt lat="46.15707" lon="1.81925">
        <ele>574</ele>
        <time>2016-12-07T04:27:09Z</time>
      </trkpt>
      <trkpt lat="46.15705" lon="1.81922">
        <ele>574</ele>
        <time>2016-12-07T04:29:09Z</time>
      </trkpt>
      <trkpt lat="46.15704" lon="1.81919">
        <ele>574</ele>
        <time>2016-12-07T04:31:09Z</time>
      </trkpt>
      <trkpt lat="46.15703" lon="1.81915">
        <ele>573</ele>
        <time>2016-12-07T04:33:09Z</time>
      </trkpt>
      <trkpt lat="46.15701" lon="1.8191">
        <ele>573</ele>
        <time>2016-12-07T04:35:09Z</time>
      </trkpt>
      <trkpt lat="46.15699" lon="1.81907">
        <ele>573</ele>
        <time>2016-12-07T04:37:09Z</time>
      </trkpt>
      <trkpt lat="46.15696" lon="1.81902">
        <ele>573</ele>
        <time>2016-12-07T04:39:09Z</time>
      </trkpt>
      <trkpt lat="46.15695" lon="1.81899">
        <ele>572</ele>
        <time>2016-12-07T04:41:09Z</time>
      </trkpt>
      <trkpt lat="46.15693" lon="1.81894">
        <ele>572</ele>
        <time>2016-12-07T04:43:09Z</time>
      </trkpt>
      <trkpt lat="46.15693" lon="1.81891">
        <ele>572</ele>
        <time>2016-12-07T04:45:09Z</time>
      </trkpt>
      <trkpt lat="46.15696" lon="1.81884">
        <ele>570</ele>
        <time>2016-12-07T04:47:09Z</time>
      </trkpt>
      <trkpt lat="46.15696" lon="1.81878">
        <ele>570</ele>
        <time>2016-12-07T04:49:09Z</time>
      </trkpt>
      <trkpt lat="46.15696" lon="1.81875">
        <ele>569</ele>
        <time>2016-12-07T04:51:09Z</time>
      </trkpt>
      <trkpt lat="46.15697" lon="1.81872">
        <ele>569</ele>
        <time>2016-12-07T04:53:09Z</time>
      </trkpt>
      <trkpt lat="46.15699" lon="1.8187">
        <ele>568</ele>
        <time>2016-12-07T04:55:09Z</time>
      </trkpt>
      <trkpt lat="46.15701" lon="1.81867">
        <ele>568</ele>
        <time>2016-12-07T04:57:09Z</time>
      </trkpt>
      <trkpt lat="46.15703" lon="1.81865">
        <ele>567</ele>
        <time>2016-12-07T04:59:09Z</time>
      </trkpt>
      <trkpt lat="46.15702" lon="1.81859">
        <ele>567</ele>
        <time>2016-12-07T05:01:09Z</time>
      </trkpt>
      <trkpt lat="46.15701" lon="1.81858">
        <ele>567</ele>
        <time>2016-12-07T05:03:09Z</time>
      </trkpt>
      <trkpt lat="46.15702" lon="1.81849">
        <ele>565</ele>
        <time>2016-12-07T05:05:09Z</time>
      </trkpt>
      <trkpt lat="46.15702" lon="1.81847">
        <ele>565</ele>
        <time>2016-12-07T05:07:09Z</time>
      </trkpt>
      <trkpt lat="46.15702" lon="1.81841">
        <ele>564</ele>
        <time>2016-12-07T05:09:09Z</time>
      </trkpt>
      <trkpt lat="46.15703" lon="1.81839">
        <ele>564</ele>
        <time>2016-12-07T05:11:09Z</time>
      </trkpt>
      <trkpt lat="46.15703" lon="1.81835">
        <ele>563</ele>
        <time>2016-12-07T05:13:09Z</time>
      </trkpt>
      <trkpt lat="46.15701" lon="1.81831">
        <ele>563</ele>
        <time>2016-12-07T05:15:09Z</time>
      </trkpt>
      <trkpt lat="46.157" lon="1.81827">
        <ele>563</ele>
        <time>2016-12-07T05:17:09Z</time>
      </trkpt>
      <trkpt lat="46.157" lon="1.81824">
        <ele>563</ele>
        <time>2016-12-07T05:19:09Z</time>
      </trkpt>
      <trkpt lat="46.157" lon="1.81821">
        <ele>562</ele>
        <time>2016-12-07T05:21:09Z</time>
      </trkpt>
      <trkpt lat="46.15701" lon="1.81819">
        <ele>562</ele>
        <time>2016-12-07T05:23:09Z</time>
      </trkpt>
      <trkpt lat="46.157" lon="1.81811">
        <ele>561</ele>
        <time>2016-12-07T05:25:09Z</time>
      </trkpt>
      <trkpt lat="46.15697" lon="1.81804">
        <ele>561</ele>
        <time>2016-12-07T05:27:09Z</time>
      </trkpt>
      <trkpt lat="46.15695" lon="1.818">
        <ele>561</ele>
        <time>2016-12-07T05:29:09Z</time>
      </trkpt>
      <trkpt lat="46.15696" lon="1.81775">
        <ele>558</ele>
        <time>2016-12-07T05:31:09Z</time>
      </trkpt>
      <trkpt lat="46.15695" lon="1.81771">
        <ele>557</ele>
        <time>2016-12-07T05:33:09Z</time>
      </trkpt>
      <trkpt lat="46.15691" lon="1.81759">
        <ele>556</ele>
        <time>2016-12-07T05:35:09Z</time>
      </trkpt>
      <trkpt lat="46.15689" lon="1.81755">
        <ele>556</ele>
        <time>2016-12-07T05:37:09Z</time>
      </trkpt>
      <trkpt lat="46.15687" lon="1.81752">
        <ele>556</ele>
        <time>2016-12-07T05:39:09Z</time>
      </trkpt>
      <trkpt lat="46.15683" lon="1.81749">
        <ele>556</ele>
        <time>2016-12-07T05:41:09Z</time>
      </trkpt>
      <trkpt lat="46.15681" lon="1.81746">
        <ele>555</ele>
        <time>2016-12-07T05:43:09Z</time>
      </trkpt>
      <trkpt lat="46.15679" lon="1.81744">
        <ele>555</ele>
        <time>2016-12-07T05:45:09Z</time>
      </trkpt>
      <trkpt lat="46.15677" lon="1.81741">
        <ele>555</ele>
        <time>2016-12-07T05:47:09Z</time>
      </trkpt>
      <trkpt lat="46.15676" lon="1.81739">
        <ele>555</ele>
        <time>2016-12-07T05:49:09Z</time>
      </trkpt>
      <trkpt lat="46.15671" lon="1.81735">
        <ele>555</ele>
        <time>2016-12-07T05:51:09Z</time>
      </trkpt>
      <trkpt lat="46.15669" lon="1.81733">
        <ele>555</ele>
        <time>2016-12-07T05:53:09Z</time>
      </trkpt>
      <trkpt lat="46.15667" lon="1.81732">
        <ele>555</ele>
        <time>2016-12-07T05:55:09Z</time>
      </trkpt>
      <trkpt lat="46.15665" lon="1.81729">
        <ele>554</ele>
        <time>2016-12-07T05:57:09Z</time>
      </trkpt>
      <trkpt lat="46.15663" lon="1.81727">
        <ele>554</ele>
        <time>2016-12-07T05:59:09Z</time>
      </trkpt>
      <trkpt lat="46.15661" lon="1.81726">
        <ele>554</ele>
        <time>2016-12-07T06:01:09Z</time>
      </trkpt>
      <trkpt lat="46.15657" lon="1.81724">
        <ele>554</ele>
        <time>2016-12-07T06:03:09Z</time>
      </trkpt>
      <trkpt lat="46.15652" lon="1.8172">
        <ele>553</ele>
        <time>2016-12-07T06:05:09Z</time>
      </trkpt>
      <trkpt lat="46.1565" lon="1.81717">
        <ele>553</ele>
        <time>2016-12-07T06:07:09Z</time>
      </trkpt>
      <trkpt lat="46.15646" lon="1.81708">
        <ele>552</ele>
        <time>2016-12-07T06:09:09Z</time>
      </trkpt>
      <trkpt lat="46.15644" lon="1.81705">
        <ele>552</ele>
        <time>2016-12-07T06:11:09Z</time>
      </trkpt>
      <trkpt lat="46.1564" lon="1.81701">
        <ele>551</ele>
        <time>2016-12-07T06:13:09Z</time>
      </trkpt>
      <trkpt lat="46.15638" lon="1.81698">
        <ele>551</ele>
        <time>2016-12-07T06:15:09Z</time>
      </trkpt>
      <trkpt lat="46.15636" lon="1.81696">
        <ele>551</ele>
        <time>2016-12-07T06:17:09Z</time>
      </trkpt>
      <trkpt lat="46.15633" lon="1.81695">
        <ele>551</ele>
        <time>2016-12-07T06:19:09Z</time>
      </trkpt>
      <trkpt lat="46.15628" lon="1.81695">
        <ele>551</ele>
        <time>2016-12-07T06:21:09Z</time>
      </trkpt>
      <trkpt lat="46.15628" lon="1.81695">
        <ele>551</ele>
        <time>2016-12-07T06:23:09Z</time>
      </trkpt>
      <trkpt lat="46.15628" lon="1.81698">
        <ele>551</ele>
        <time>2016-12-07T06:25:09Z</time>
      </trkpt>
      <trkpt lat="46.15628" lon="1.81701">
        <ele>551</ele>
        <time>2016-12-07T06:27:09Z</time>
      </trkpt>
      <trkpt lat="46.15628" lon="1.81701">
        <ele>551</ele>
        <time>2016-12-07T06:29:09Z</time>
      </trkpt>
      <trkpt lat="46.15627" lon="1.81701">
        <ele>551</ele>
        <time>2016-12-07T06:31:09Z</time>
      </trkpt>
      <trkpt lat="46.15628" lon="1.81704">
        <ele>552</ele>
        <time>2016-12-07T06:33:09Z</time>
      </trkpt>
      <trkpt lat="46.15628" lon="1.81708">
        <ele>552</ele>
        <time>2016-12-07T06:35:09Z</time>
      </trkpt>
      <trkpt lat="46.15627" lon="1.81712">
        <ele>553</ele>
        <time>2016-12-07T06:37:09Z</time>
      </trkpt>
      <trkpt lat="46.15625" lon="1.81715">
        <ele>553</ele>
        <time>2016-12-07T06:39:09Z</time>
      </trkpt>
      <trkpt lat="46.15624" lon="1.81715">
        <ele>553</ele>
        <time>2016-12-07T06:41:09Z</time>
      </trkpt>
      <trkpt lat="46.15624" lon="1.81717">
        <ele>553</ele>
        <time>2016-12-07T06:43:09Z</time>
      </trkpt>
      <trkpt lat="46.15621" lon="1.81721">
        <ele>554</ele>
        <time>2016-12-07T06:45:09Z</time>
      </trkpt>
      <trkpt lat="46.1562" lon="1.81723">
        <ele>554</ele>
        <time>2016-12-07T06:47:09Z</time>
      </trkpt>
      <trkpt lat="46.15619" lon="1.81726">
        <ele>554</ele>
        <time>2016-12-07T06:49:09Z</time>
      </trkpt>
      <trkpt lat="46.15618" lon="1.81727">
        <ele>554</ele>
        <time>2016-12-07T06:51:09Z</time>
      </trkpt>
      <trkpt lat="46.15618" lon="1.81728">
        <ele>555</ele>
        <time>2016-12-07T06:53:09Z</time>
      </trkpt>
      <trkpt lat="46.15617" lon="1.81731">
        <ele>555</ele>
        <time>2016-12-07T06:55:09Z</time>
      </trkpt>
      <trkpt lat="46.15617" lon="1.81741">
        <ele>556</ele>
        <time>2016-12-07T06:57:09Z</time>
      </trkpt>
      <trkpt lat="46.15616" lon="1.81748">
        <ele>557</ele>
        <time>2016-12-07T06:59:09Z</time>
      </trkpt>
      <trkpt lat="46.15616" lon="1.81752">
        <ele>557</ele>
        <time>2016-12-07T07:01:09Z</time>
      </trkpt>
      <trkpt lat="46.15615" lon="1.81758">
        <ele>558</ele>
        <time>2016-12-07T07:03:09Z</time>
      </trkpt>
      <trkpt lat="46.15615" lon="1.8176">
        <ele>559</ele>
        <time>2016-12-07T07:05:09Z</time>
      </trkpt>
      <trkpt lat="46.15615" lon="1.81762">
        <ele>559</ele>
        <time>2016-12-07T07:07:09Z</time>
      </trkpt>
      <trkpt lat="46.15614" lon="1.81763">
        <ele>559</ele>
        <time>2016-12-07T07:09:09Z</time>
      </trkpt>
      <trkpt lat="46.15614" lon="1.81766">
        <ele>560</ele>
        <time>2016-12-07T07:11:09Z</time>
      </trkpt>
      <trkpt lat="46.15613" lon="1.8177">
        <ele>560</ele>
        <time>2016-12-07T07:13:09Z</time>
      </trkpt>
      <trkpt lat="46.15612" lon="1.81774">
        <ele>561</ele>
        <time>2016-12-07T07:15:09Z</time>
      </trkpt>
      <trkpt lat="46.15612" lon="1.81778">
        <ele>562</ele>
        <time>2016-12-07T07:17:09Z</time>
      </trkpt>
      <trkpt lat="46.15611" lon="1.81779">
        <ele>562</ele>
        <time>2016-12-07T07:19:09Z</time>
      </trkpt>
      <trkpt lat="46.15611" lon="1.81783">
        <ele>562</ele>
        <time>2016-12-07T07:21:09Z</time>
      </trkpt>
      <trkpt lat="46.15611" lon="1.81785">
        <ele>563</ele>
        <time>2016-12-07T07:23:09Z</time>
      </trkpt>
      <trkpt lat="46.15611" lon="1.81793">
        <ele>564</ele>
        <time>2016-12-07T07:25:09Z</time>
      </trkpt>
      <trkpt lat="46.1561" lon="1.81794">
        <ele>564</ele>
        <time>2016-12-07T07:27:09Z</time>
      </trkpt>
      <trkpt lat="46.15611" lon="1.81796">
        <ele>565</ele>
        <time>2016-12-07T07:29:09Z</time>
      </trkpt>
      <trkpt lat="46.15611" lon="1.81798">
        <ele>565</ele>
        <time>2016-12-07T07:31:09Z</time>
      </trkpt>
      <trkpt lat="46.1561" lon="1.81799">
        <ele>565</ele>
        <time>2016-12-07T07:33:09Z</time>
      </trkpt>
      <trkpt lat="46.1561" lon="1.81803">
        <ele>566</ele>
        <time>2016-12-07T07:35:09Z</time>
      </trkpt>
      <trkpt lat="46.15609" lon="1.81808">
        <ele>567</ele>
        <time>2016-12-07T07:37:09Z</time>
      </trkpt>
      <trkpt lat="46.15609" lon="1.81812">
        <ele>567</ele>
        <time>2016-12-07T07:39:09Z</time>
      </trkpt>
      <trkpt lat="46.15608" lon="1.81817">
        <ele>568</ele>
        <time>2016-12-07T07:41:09Z</time>
      </trkpt>
      <trkpt lat="46.15608" lon="1.81818">
        <ele>568</ele>
        <time>2016-12-07T07:43:09Z</time>
      </trkpt>
      <trkpt lat="46.15608" lon="1.81821">
        <ele>569</ele>
        <time>2016-12-07T07:45:09Z</time>
      </trkpt>
      <trkpt lat="46.15607" lon="1.81825">
        <ele>569</ele>
        <time>2016-12-07T07:47:09Z</time>
      </trkpt>
      <trkpt lat="46.15606" lon="1.81835">
        <ele>571</ele>
        <time>2016-12-07T07:49:09Z</time>
      </trkpt>
      <trkpt lat="46.15603" lon="1.81841">
        <ele>572</ele>
        <time>2016-12-07T07:51:09Z</time>
      </trkpt>
      <trkpt lat="46.15602" lon="1.81851">
        <ele>573</ele>
        <time>2016-12-07T07:53:09Z</time>
      </trkpt>
      <trkpt lat="46.15602" lon="1.81852">
        <ele>573</ele>
        <time>2016-12-07T07:55:09Z</time>
      </trkpt>
      <trkpt lat="46.15603" lon="1.8186">
        <ele>574</ele>
        <time>2016-12-07T07:57:09Z</time>
      </trkpt>
      <trkpt lat="46.15603" lon="1.81868">
        <ele>574</ele>
        <time>2016-12-07T07:59:09Z</time>
      </trkpt>
      <trkpt lat="46.15603" lon="1.81871">
        <ele>575</ele>
        <time>2016-12-07T08:01:09Z</time>
      </trkpt>
      <trkpt lat="46.15603" lon="1.81873">
        <ele>575</ele>
        <time>2016-12-07T08:03:09Z</time>
      </trkpt>
      <trkpt lat="46.15601" lon="1.81877">
        <ele>575</ele>
        <time>2016-12-07T08:05:09Z</time>
      </trkpt>
      <trkpt lat="46.15599" lon="1.81883">
        <ele>576</ele>
        <time>2016-12-07T08:07:09Z</time>
      </trkpt>
      <trkpt lat="46.15597" lon="1.81886">
        <ele>576</ele>
        <time>2016-12-07T08:09:09Z</time>
      </trkpt>
      <trkpt lat="46.15597" lon="1.81888">
        <ele>576</ele>
        <time>2016-12-07T08:11:09Z</time>
      </trkpt>
      <trkpt lat="46.15596" lon="1.81894">
        <ele>577</ele>
        <time>2016-12-07T08:13:09Z</time>
      </trkpt>
      <trkpt lat="46.15596" lon="1.81898">
        <ele>577</ele>
        <time>2016-12-07T08:15:09Z</time>
      </trkpt>
      <trkpt lat="46.15594" lon="1.81903">
        <ele>578</ele>
        <time>2016-12-07T08:17:09Z</time>
      </trkpt>
      <trkpt lat="46.15593" lon="1.81906">
        <ele>578</ele>
        <time>2016-12-07T08:19:09Z</time>
      </trkpt>
      <trkpt lat="46.1559" lon="1.81912">
        <ele>579</ele>
        <time>2016-12-07T08:21:09Z</time>
      </trkpt>
      <trkpt lat="46.15589" lon="1.81915">
        <ele>579</ele>
        <time>2016-12-07T08:23:09Z</time>
      </trkpt>
      <trkpt lat="46.15587" lon="1.81928">
        <ele>580</ele>
        <time>2016-12-07T08:25:09Z</time>
      </trkpt>
      <trkpt lat="46.15586" lon="1.81931">
        <ele>580</ele>
        <time>2016-12-07T08:27:09Z</time>
      </trkpt>
      <trkpt lat="46.15585" lon="1.81934">
        <ele>580</ele>
        <time>2016-12-07T08:29:09Z</time>
      </trkpt>
      <trkpt lat="46.15585" lon="1.81937">
        <ele>580</ele>
        <time>2016-12-07T08:31:09Z</time>
      </trkpt>
      <trkpt lat="46.15585" lon="1.81941">
        <ele>580</ele>
        <time>2016-12-07T08:33:09Z</time>
      </trkpt>
      <trkpt lat="46.15585" lon="1.81944">
        <ele>581</ele>
        <time>2016-12-07T08:35:09Z</time>
      </trkpt>
      <trkpt lat="46.15585" lon="1.81952">
        <ele>581</ele>
        <time>2016-12-07T08:37:09Z</time>
      </trkpt>
      <trkpt lat="46.15585" lon="1.81956">
        <ele>581</ele>
        <time>2016-12-07T08:39:09Z</time>
      </trkpt>
      <trkpt lat="46.15586" lon="1.81959">
        <ele>582</ele>
        <time>2016-12-07T08:41:09Z</time>
      </trkpt>
      <trkpt lat="46.15586" lon="1.81962">
        <ele>582</ele>
        <time>2016-12-07T08:43:09Z</time>
      </trkpt>
      <trkpt lat="46.15587" lon="1.81966">
        <ele>582</ele>
        <time>2016-12-07T08:45:09Z</time>
      </trkpt>
      <trkpt lat="46.15586" lon="1.81969">
        <ele>582</ele>
        <time>2016-12-07T08:47:09Z</time>
      </trkpt>
      <trkpt lat="46.15587" lon="1.81977">
        <ele>583</ele>
        <time>2016-12-07T08:49:09Z</time>
      </trkpt>
      <trkpt lat="46.15586" lon="1.81984">
        <ele>583</ele>
        <time>2016-12-07T08:51:09Z</time>
      </trkpt>
      <trkpt lat="46.15587" lon="1.8199">
        <ele>584</ele>
        <time>2016-12-07T08:53:09Z</time>
      </trkpt>
      <trkpt lat="46.15586" lon="1.82002">
        <ele>584</ele>
        <time>2016-12-07T08:55:09Z</time>
      </trkpt>
      <trkpt lat="46.15586" lon="1.82005">
        <ele>585</ele>
        <time>2016-12-07T08:57:09Z</time>
      </trkpt>
      <trkpt lat="46.15585" lon="1.82007">
        <ele>585</ele>
        <time>2016-12-07T08:59:09Z</time>
      </trkpt>
      <trkpt lat="46.15583" lon="1.82011">
        <ele>586</ele>
        <time>2016-12-07T09:01:09Z</time>
      </trkpt>
      <trkpt lat="46.15582" lon="1.82013">
        <ele>586</ele>
        <time>2016-12-07T09:03:09Z</time>
      </trkpt>
      <trkpt lat="46.15578" lon="1.82015">
        <ele>585</ele>
        <time>2016-12-07T09:05:09Z</time>
      </trkpt>
      <trkpt lat="46.15575" lon="1.82016">
        <ele>585</ele>
        <time>2016-12-07T09:07:09Z</time>
      </trkpt>
      <trkpt lat="46.15563" lon="1.82017">
        <ele>584</ele>
        <time>2016-12-07T09:09:09Z</time>
      </trkpt>
      <trkpt lat="46.15558" lon="1.82016">
        <ele>583</ele>
        <time>2016-12-07T09:11:09Z</time>
      </trkpt>
      <trkpt lat="46.15556" lon="1.82016">
        <ele>583</ele>
        <time>2016-12-07T09:13:09Z</time>
      </trkpt>
      <trkpt lat="46.15554" lon="1.82015">
        <ele>582</ele>
        <time>2016-12-07T09:15:09Z</time>
      </trkpt>
      <trkpt lat="46.15552" lon="1.82015">
        <ele>582</ele>
        <time>2016-12-07T09:17:09Z</time>
      </trkpt>
      <trkpt lat="46.15549" lon="1.82017">
        <ele>582</ele>
        <time>2016-12-07T09:19:09Z</time>
      </trkpt>
      <trkpt lat="46.15545" lon="1.82016">
        <ele>581</ele>
        <time>2016-12-07T09:21:09Z</time>
      </trkpt>
      <trkpt lat="46.15537" lon="1.82016">
        <ele>580</ele>
        <time>2016-12-07T09:23:09Z</time>
      </trkpt>
      <trkpt lat="46.15531" lon="1.82016">
        <ele>579</ele>
        <time>2016-12-07T09:25:09Z</time>
      </trkpt>
      <trkpt lat="46.15526" lon="1.82017">
        <ele>579</ele>
        <time>2016-12-07T09:27:09Z</time>
      </trkpt>
      <trkpt lat="46.15524" lon="1.82016">
        <ele>578</ele>
        <time>2016-12-07T09:29:09Z</time>
      </trkpt>
      <trkpt lat="46.15522" lon="1.82017">
        <ele>578</ele>
        <time>2016-12-07T09:31:09Z</time>
      </trkpt>
      <trkpt lat="46.15521" lon="1.82019">
        <ele>578</ele>
        <time>2016-12-07T09:33:09Z</time>
      </trkpt>
      <trkpt lat="46.15519" lon="1.82022">
        <ele>578</ele>
        <time>2016-12-07T09:35:09Z</time>
      </trkpt>
      <trkpt lat="46.15519" lon="1.82024">
        <ele>579</ele>
        <time>2016-12-07T09:37:09Z</time>
      </trkpt>
      <trkpt lat="46.15519" lon="1.82031">
        <ele>580</ele>
        <time>2016-12-07T09:39:09Z</time>
      </trkpt>
      <trkpt lat="46.15518" lon="1.82034">
        <ele>580</ele>
        <time>2016-12-07T09:41:09Z</time>
      </trkpt>
      <trkpt lat="46.15519" lon="1.8204">
        <ele>581</ele>
        <time>2016-12-07T09:43:09Z</time>
      </trkpt>
      <trkpt lat="46.1552" lon="1.82043">
        <ele>581</ele>
        <time>2016-12-07T09:45:09Z</time>
      </trkpt>
      <trkpt lat="46.15519" lon="1.82044">
        <ele>581</ele>
        <time>2016-12-07T09:47:09Z</time>
      </trkpt>
      <trkpt lat="46.15519" lon="1.82045">
        <ele>582</ele>
        <time>2016-12-07T09:49:09Z</time>
      </trkpt>
      <trkpt lat="46.1552" lon="1.82051">
        <ele>583</ele>
        <time>2016-12-07T09:51:09Z</time>
      </trkpt>
      <trkpt lat="46.15521" lon="1.82055">
        <ele>583</ele>
        <time>2016-12-07T09:53:09Z</time>
      </trkpt>
      <trkpt lat="46.15522" lon="1.82055">
        <ele>583</ele>
        <time>2016-12-07T09:55:09Z</time>
      </trkpt>
      <trkpt lat="46.15522" lon="1.82056">
        <ele>583</ele>
        <time>2016-12-07T09:57:09Z</time>
      </trkpt>
      <trkpt lat="46.15523" lon="1.82059">
        <ele>584</ele>
        <time>2016-12-07T09:59:09Z</time>
      </trkpt>
      <trkpt lat="46.15523" lon="1.82059">
        <ele>584</ele>
        <time>2016-12-07T10:01:09Z</time>
      </trkpt>
      <trkpt lat="46.15523" lon="1.8206">
        <ele>584</ele>
        <time>2016-12-07T10:03:09Z</time>
      </trkpt>
      <trkpt lat="46.15524" lon="1.82063">
        <ele>585</ele>
        <time>2016-12-07T10:05:09Z</time>
      </trkpt>
      <trkpt lat="46.15524" lon="1.82065">
        <ele>585</ele>
        <time>2016-12-07T10:07:09Z</time>
      </trkpt>
      <trkpt lat="46.15524" lon="1.82066">
        <ele>585</ele>
        <time>2016-12-07T10:09:09Z</time>
      </trkpt>
      <trkpt lat="46.15526" lon="1.82077">
        <ele>587</ele>
        <time>2016-12-07T10:11:09Z</time>
      </trkpt>
      <trkpt lat="46.15526" lon="1.82079">
        <ele>587</ele>
        <time>2016-12-07T10:13:09Z</time>
      </trkpt>
      <trkpt lat="46.15526" lon="1.8208">
        <ele>587</ele>
        <time>2016-12-07T10:15:09Z</time>
      </trkpt>
      <trkpt lat="46.15526" lon="1.82081">
        <ele>587</ele>
        <time>2016-12-07T10:17:09Z</time>
      </trkpt>
      <trkpt lat="46.15526" lon="1.82083">
        <ele>588</ele>
        <time>2016-12-07T10:19:09Z</time>
      </trkpt>
      <trkpt lat="46.15527" lon="1.82085">
        <ele>588</ele>
        <time>2016-12-07T10:21:09Z</time>
      </trkpt>
      <trkpt lat="46.15526" lon="1.82085">
        <ele>588</ele>
        <time>2016-12-07T10:23:09Z</time>
      </trkpt>
      <trkpt lat="46.15526" lon="1.82085">
        <ele>588</ele>
        <time>2016-12-07T10:25:09Z</time>
      </trkpt>
      <trkpt lat="46.15526" lon="1.82086">
        <ele>588</ele>
        <time>2016-12-07T10:27:09Z</time>
      </trkpt>
      <trkpt lat="46.15527" lon="1.82088">
        <ele>589</ele>
        <time>2016-12-07T10:29:09Z</time>
      </trkpt>
      <trkpt lat="46.15527" lon="1.8209">
        <ele>589</ele>
        <time>2016-12-07T10:31:09Z</time>
      </trkpt>
      <trkpt lat="46.15527" lon="1.82093">
        <ele>589</ele>
        <time>2016-12-07T10:33:09Z</time>
      </trkpt>
      <trkpt lat="46.15527" lon="1.82094">
        <ele>590</ele>
        <time>2016-12-07T10:35:09Z</time>
      </trkpt>
      <trkpt lat="46.15527" lon="1.82096">
        <ele>590</ele>
        <time>2016-12-07T10:37:09Z</time>
      </trkpt>
      <trkpt lat="46.15528" lon="1.82102">
        <ele>591</ele>
        <time>2016-12-07T10:39:09Z</time>
      </trkpt>
      <trkpt lat="46.15528" lon="1.82103">
        <ele>591</ele>
        <time>2016-12-07T10:41:09Z</time>
      </trkpt>
      <trkpt lat="46.15529" lon="1.82106">
        <ele>592</ele>
        <time>2016-12-07T10:43:09Z</time>
      </trkpt>
      <trkpt lat="46.15529" lon="1.82109">
        <ele>592</ele>
        <time>2016-12-07T10:45:09Z</time>
      </trkpt>
      <trkpt lat="46.1553" lon="1.82111">
        <ele>593</ele>
        <time>2016-12-07T10:47:09Z</time>
      </trkpt>
      <trkpt lat="46.1553" lon="1.82112">
        <ele>593</ele>
        <time>2016-12-07T10:49:09Z</time>
      </trkpt>
      <trkpt lat="46.1553" lon="1.82117">
        <ele>594</ele>
        <time>2016-12-07T10:51:09Z</time>
      </trkpt>
      <trkpt lat="46.1553" lon="1.82117">
        <ele>594</ele>
        <time>2016-12-07T10:53:09Z</time>
      </trkpt>
      <trkpt lat="46.1553" lon="1.82117">
        <ele>594</ele>
        <time>2016-12-07T10:55:09Z</time>
      </trkpt>
      <trkpt lat="46.15531" lon="1.82119">
        <ele>594</ele>
        <time>2016-12-07T10:57:09Z</time>
      </trkpt>
      <trkpt lat="46.15531" lon="1.82119">
        <ele>594</ele>
        <time>2016-12-07T10:59:09Z</time>
      </trkpt>
      <trkpt lat="46.15531" lon="1.82119">
        <ele>594</ele>
        <time>2016-12-07T11:01:09Z</time>
      </trkpt>
      <trkpt lat="46.15532" lon="1.82121">
        <ele>595</ele>
        <time>2016-12-07T11:03:09Z</time>
      </trkpt>
      <trkpt lat="46.15534" lon="1.82122">
        <ele>595</ele>
        <time>2016-12-07T11:05:09Z</time>
      </trkpt>
      <trkpt lat="46.15534" lon="1.82123">
        <ele>595</ele>
        <time>2016-12-07T11:07:09Z</time>
      </trkpt>
      <trkpt lat="46.15534" lon="1.82124">
        <ele>595</ele>
        <time>2016-12-07T11:09:09Z</time>
      </trkpt>
      <trkpt lat="46.15536" lon="1.82126">
        <ele>596</ele>
        <time>2016-12-07T11:11:09Z</time>
      </trkpt>
      <trkpt lat="46.15536" lon="1.82128">
        <ele>596</ele>
        <time>2016-12-07T11:13:09Z</time>
      </trkpt>
      <trkpt lat="46.15536" lon="1.8213">
        <ele>597</ele>
        <time>2016-12-07T11:15:09Z</time>
      </trkpt>
      <trkpt lat="46.15537" lon="1.82132">
        <ele>597</ele>
        <time>2016-12-07T11:17:09Z</time>
      </trkpt>
      <trkpt lat="46.15537" lon="1.82133">
        <ele>597</ele>
        <time>2016-12-07T11:19:09Z</time>
      </trkpt>
      <trkpt lat="46.15538" lon="1.82135">
        <ele>598</ele>
        <time>2016-12-07T11:21:09Z</time>
      </trkpt>
      <trkpt lat="46.1554" lon="1.82149">
        <ele>600</ele>
        <time>2016-12-07T11:23:09Z</time>
      </trkpt>
      <trkpt lat="46.15541" lon="1.82151">
        <ele>601</ele>
        <time>2016-12-07T11:25:09Z</time>
      </trkpt>
      <trkpt lat="46.1554" lon="1.82153">
        <ele>601</ele>
        <time>2016-12-07T11:27:09Z</time>
      </trkpt>
      <trkpt lat="46.15541" lon="1.82155">
        <ele>602</ele>
        <time>2016-12-07T11:29:09Z</time>
      </trkpt>
      <trkpt lat="46.15541" lon="1.82157">
        <ele>602</ele>
        <time>2016-12-07T11:31:09Z</time>
      </trkpt>
      <trkpt lat="46.15542" lon="1.82163">
        <ele>603</ele>
        <time>2016-12-07T11:33:09Z</time>
      </trkpt>
      <trkpt lat="46.15543" lon="1.82165">
        <ele>603</ele>
        <time>2016-12-07T11:35:09Z</time>
      </trkpt>
      <trkpt lat="46.15546" lon="1.8217">
        <ele>605</ele>
        <time>2016-12-07T11:37:09Z</time>
      </trkpt>
      <trkpt lat="46.15547" lon="1.82174">
        <ele>605</ele>
        <time>2016-12-07T11:39:09Z</time>
      </trkpt>
      <trkpt lat="46.15547" lon="1.82176">
        <ele>605</ele>
        <time>2016-12-07T11:41:09Z</time>
      </trkpt>
      <trkpt lat="46.15547" lon="1.82177">
        <ele>605</ele>
        <time>2016-12-07T11:43:09Z</time>
      </trkpt>
      <trkpt lat="46.15547" lon="1.8218">
        <ele>606</ele>
        <time>2016-12-07T11:45:09Z</time>
      </trkpt>
      <trkpt lat="46.15548" lon="1.82183">
        <ele>606</ele>
        <time>2016-12-07T11:47:09Z</time>
      </trkpt>
      <trkpt lat="46.15548" lon="1.82186">
        <ele>606</ele>
        <time>2016-12-07T11:49:09Z</time>
      </trkpt>
      <trkpt lat="46.15548" lon="1.82189">
        <ele>607</ele>
        <time>2016-12-07T11:51:09Z</time>
      </trkpt>
      <trkpt lat="46.15548" lon="1.82191">
        <ele>607</ele>
        <time>2016-12-07T11:53:09Z</time>
      </trkpt>
      <trkpt lat="46.15548" lon="1.82194">
        <ele>607</ele>
        <time>2016-12-07T11:55:09Z</time>
      </trkpt>
      <trkpt lat="46.15548" lon="1.82195">
        <ele>607</ele>
        <time>2016-12-07T11:57:09Z</time>
      </trkpt>
      <trkpt lat="46.15548" lon="1.82197">
        <ele>607</ele>
        <time>2016-12-07T11:59:09Z</time>
      </trkpt>
      <trkpt lat="46.15548" lon="1.82198">
        <ele>608</ele>
        <time>2016-12-07T12:01:09Z</time>
      </trkpt>
      <trkpt lat="46.15547" lon="1.822">
        <ele>608</ele>
        <time>2016-12-07T12:03:09Z</time>
      </trkpt>
      <trkpt lat="46.15547" lon="1.82202">
        <ele>608</ele>
        <time>2016-12-07T12:05:09Z</time>
      </trkpt>
      <trkpt lat="46.15547" lon="1.82205">
        <ele>608</ele>
        <time>2016-12-07T12:07:09Z</time>
      </trkpt>
      <trkpt lat="46.15547" lon="1.82206">
        <ele>608</ele>
        <time>2016-12-07T12:09:09Z</time>
      </trkpt>
      <trkpt lat="46.15547" lon="1.82207">
        <ele>608</ele>
        <time>2016-12-07T12:11:09Z</time>
      </trkpt>
      <trkpt lat="46.15548" lon="1.82212">
        <ele>609</ele>
        <time>2016-12-07T12:13:09Z</time>
      </trkpt>
      <trkpt lat="46.15547" lon="1.82215">
        <ele>609</ele>
        <time>2016-12-07T12:15:09Z</time>
      </trkpt>
      <trkpt lat="46.15548" lon="1.82221">
        <ele>610</ele>
        <time>2016-12-07T12:17:09Z</time>
      </trkpt>
      <trkpt lat="46.15549" lon="1.82223">
        <ele>610</ele>
        <time>2016-12-07T12:19:09Z</time>
      </trkpt>
      <trkpt lat="46.1555" lon="1.82224">
        <ele>610</ele>
        <time>2016-12-07T12:21:09Z</time>
      </trkpt>
      <trkpt lat="46.15553" lon="1.82225">
        <ele>611</ele>
        <time>2016-12-07T12:23:09Z</time>
      </trkpt>
      <trkpt lat="46.15554" lon="1.82227">
        <ele>611</ele>
        <time>2016-12-07T12:25:09Z</time>
      </trkpt>
      <trkpt lat="46.15555" lon="1.8223">
        <ele>612</ele>
        <time>2016-12-07T12:27:09Z</time>
      </trkpt>
      <trkpt lat="46.15556" lon="1.82231">
        <ele>612</ele>
        <time>2016-12-07T12:29:09Z</time>
      </trkpt>
      <trkpt lat="46.15558" lon="1.82237">
        <ele>613</ele>
        <time>2016-12-07T12:31:09Z</time>
      </trkpt>
      <trkpt lat="46.15559" lon="1.82238">
        <ele>613</ele>
        <time>2016-12-07T12:33:09Z</time>
      </trkpt>
      <trkpt lat="46.15559" lon="1.8224">
        <ele>613</ele>
        <time>2016-12-07T12:35:09Z</time>
      </trkpt>
      <trkpt lat="46.15559" lon="1.82245">
        <ele>614</ele>
        <time>2016-12-07T12:37:09Z</time>
      </trkpt>
      <trkpt lat="46.15559" lon="1.82247">
        <ele>614</ele>
        <time>2016-12-07T12:39:09Z</time>
      </trkpt>
      <trkpt lat="46.15559" lon="1.82251">
        <ele>614</ele>
        <time>2016-12-07T12:41:09Z</time>
      </trkpt>
      <trkpt lat="46.15557" lon="1.82255">
        <ele>614</ele>
        <time>2016-12-07T12:43:09Z</time>
      </trkpt>
      <trkpt lat="46.15551" lon="1.82267">
        <ele>614</ele>
        <time>2016-12-07T12:45:09Z</time>
      </trkpt>
      <trkpt lat="46.1555" lon="1.82269">
        <ele>614</ele>
        <time>2016-12-07T12:47:09Z</time>
      </trkpt>
      <trkpt lat="46.1555" lon="1.82274">
        <ele>615</ele>
        <time>2016-12-07T12:49:09Z</time>
      </trkpt>
      <trkpt lat="46.15549" lon="1.82274">
        <ele>615</ele>
        <time>2016-12-07T12:51:09Z</time>
      </trkpt>
      <trkpt lat="46.15549" lon="1.82274">
        <ele>615</ele>
        <time>2016-12-07T12:53:09Z</time>
      </trkpt>
      <trkpt lat="46.15549" lon="1.82274">
        <ele>615</ele>
        <time>2016-12-07T12:55:09Z</time>
      </trkpt>
      <trkpt lat="46.1555" lon="1.82274">
        <ele>615</ele>
        <time>2016-12-07T12:57:09Z</time>
      </trkpt>
      <trkpt lat="46.15549" lon="1.82274">
        <ele>615</ele>
        <time>2016-12-07T12:59:09Z</time>
      </trkpt>
      <trkpt lat="46.1555" lon="1.82273">
        <ele>615</ele>
        <time>2016-12-07T13:01:09Z</time>
      </trkpt>
      <trkpt lat="46.1555" lon="1.82274">
        <ele>615</ele>
        <time>2016-12-07T13:03:09Z</time>
      </trkpt>
      <trkpt lat="46.15549" lon="1.82276">
        <ele>615</ele>
        <time>2016-12-07T13:05:09Z</time>
      </trkpt>
      <trkpt lat="46.15549" lon="1.82275">
        <ele>615</ele>
        <time>2016-12-07T13:07:09Z</time>
      </trkpt>
      <trkpt lat="46.15549" lon="1.82276">
        <ele>615</ele>
        <time>2016-12-07T13:09:09Z</time>
      </trkpt>
      <trkpt lat="46.1555" lon="1.82281">
        <ele>615</ele>
        <time>2016-12-07T13:11:09Z</time>
      </trkpt>
      <trkpt lat="46.15551" lon="1.82286">
        <ele>616</ele>
        <time>2016-12-07T13:13:09Z</time>
      </trkpt>
      <trkpt lat="46.15551" lon="1.82287">
        <ele>616</ele>
        <time>2016-12-07T13:15:09Z</time>
      </trkpt>
      <trkpt lat="46.15551" lon="1.8229">
        <ele>616</ele>
        <time>2016-12-07T13:17:09Z</time>
      </trkpt>
      <trkpt lat="46.15553" lon="1.82298">
        <ele>617</ele>
        <time>2016-12-07T13:19:09Z</time>
      </trkpt>
      <trkpt lat="46.15554" lon="1.8231">
        <ele>618</ele>
        <time>2016-12-07T13:21:09Z</time>
      </trkpt>
      <trkpt lat="46.15555" lon="1.82316">
        <ele>618</ele>
        <time>2016-12-07T13:23:09Z</time>
      </trkpt>
      <trkpt lat="46.15555" lon="1.82324">
        <ele>619</ele>
        <time>2016-12-07T13:25:09Z</time>
      </trkpt>
      <trkpt lat="46.15556" lon="1.8233">
        <ele>619</ele>
        <time>2016-12-07T13:27:09Z</time>
      </trkpt>
      <trkpt lat="46.15557" lon="1.82332">
        <ele>620</ele>
        <time>2016-12-07T13:29:09Z</time>
      </trkpt>
      <trkpt lat="46.1556" lon="1.82345">
        <ele>621</ele>
        <time>2016-12-07T13:31:09Z</time>
      </trkpt>
      <trkpt lat="46.1556" lon="1.82349">
        <ele>622</ele>
        <time>2016-12-07T13:33:09Z</time>
      </trkpt>
      <trkpt lat="46.15561" lon="1.82352">
        <ele>622</ele>
        <time>2016-12-07T13:35:09Z</time>
      </trkpt>
      <trkpt lat="46.15562" lon="1.82357">
        <ele>623</ele>
        <time>2016-12-07T13:37:09Z</time>
      </trkpt>
      <trkpt lat="46.15562" lon="1.82363">
        <ele>623</ele>
        <time>2016-12-07T13:39:09Z</time>
      </trkpt>
      <trkpt lat="46.15562" lon="1.82365">
        <ele>624</ele>
        <time>2016-12-07T13:41:09Z</time>
      </trkpt>
      <trkpt lat="46.15562" lon="1.82368">
        <ele>624</ele>
        <time>2016-12-07T13:43:09Z</time>
      </trkpt>
      <trkpt lat="46.15562" lon="1.82371">
        <ele>624</ele>
        <time>2016-12-07T13:45:09Z</time>
      </trkpt>
      <trkpt lat="46.15562" lon="1.82372">
        <ele>624</ele>
        <time>2016-12-07T13:47:09Z</time>
      </trkpt>
      <trkpt lat="46.15561" lon="1.82373">
        <ele>624</ele>
        <time>2016-12-07T13:49:09Z</time>
      </trkpt>
      <trkpt lat="46.15559" lon="1.82375">
        <ele>625</ele>
        <time>2016-12-07T13:51:09Z</time>
      </trkpt>
      <trkpt lat="46.15558" lon="1.82377">
        <ele>625</ele>
        <time>2016-12-07T13:53:09Z</time>
      </trkpt>
      <trkpt lat="46.15556" lon="1.82378">
        <ele>625</ele>
        <time>2016-12-07T13:55:09Z</time>
      </trkpt>
      <trkpt lat="46.15551" lon="1.8238">
        <ele>625</ele>
        <time>2016-12-07T13:57:09Z</time>
      </trkpt>
      <trkpt lat="46.15549" lon="1.82382">
        <ele>625</ele>
        <time>2016-12-07T13:59:09Z</time>
      </trkpt>
      <trkpt lat="46.15546" lon="1.82386">
        <ele>625</ele>
        <time>2016-12-07T14:01:09Z</time>
      </trkpt>
      <trkpt lat="46.15533" lon="1.82393">
        <ele>625</ele>
        <time>2016-12-07T14:03:09Z</time>
      </trkpt>
      <trkpt lat="46.15527" lon="1.82394">
        <ele>625</ele>
        <time>2016-12-07T14:05:09Z</time>
      </trkpt>
      <trkpt lat="46.15524" lon="1.82395">
        <ele>624</ele>
        <time>2016-12-07T14:07:09Z</time>
      </trkpt>
      <trkpt lat="46.15519" lon="1.82396">
        <ele>624</ele>
        <time>2016-12-07T14:09:09Z</time>
      </trkpt>
      <trkpt lat="46.15513" lon="1.82395">
        <ele>624</ele>
        <time>2016-12-07T14:11:09Z</time>
      </trkpt>
      <trkpt lat="46.1551" lon="1.82395">
        <ele>624</ele>
        <time>2016-12-07T14:13:09Z</time>
      </trkpt>
      <trkpt lat="46.15508" lon="1.82397">
        <ele>624</ele>
        <time>2016-12-07T14:15:09Z</time>
      </trkpt>
      <trkpt lat="46.15506" lon="1.824">
        <ele>624</ele>
        <time>2016-12-07T14:17:09Z</time>
      </trkpt>
      <trkpt lat="46.15502" lon="1.82407">
        <ele>624</ele>
        <time>2016-12-07T14:19:09Z</time>
      </trkpt>
      <trkpt lat="46.15502" lon="1.8241">
        <ele>625</ele>
        <time>2016-12-07T14:21:09Z</time>
      </trkpt>
      <trkpt lat="46.15502" lon="1.82413">
        <ele>625</ele>
        <time>2016-12-07T14:23:09Z</time>
      </trkpt>
      <trkpt lat="46.15501" lon="1.82417">
        <ele>625</ele>
        <time>2016-12-07T14:25:09Z</time>
      </trkpt>
      <trkpt lat="46.15501" lon="1.8242">
        <ele>625</ele>
        <time>2016-12-07T14:27:09Z</time>
      </trkpt>
      <trkpt lat="46.15501" lon="1.82423">
        <ele>625</ele>
        <time>2016-12-07T14:29:09Z</time>
      </trkpt>
      <trkpt lat="46.155" lon="1.82431">
        <ele>626</ele>
        <time>2016-12-07T14:31:09Z</time>
      </trkpt>
      <trkpt lat="46.15503" lon="1.82441">
        <ele>626</ele>
        <time>2016-12-07T14:33:09Z</time>
      </trkpt>
      <trkpt lat="46.15504" lon="1.82446">
        <ele>626</ele>
        <time>2016-12-07T14:35:09Z</time>
      </trkpt>
      <trkpt lat="46.15505" lon="1.82452">
        <ele>627</ele>
        <time>2016-12-07T14:37:09Z</time>
      </trkpt>
      <trkpt lat="46.15509" lon="1.82467">
        <ele>628</ele>
        <time>2016-12-07T14:39:09Z</time>
      </trkpt>
      <trkpt lat="46.15509" lon="1.82469">
        <ele>628</ele>
        <time>2016-12-07T14:41:09Z</time>
      </trkpt>
      <trkpt lat="46.15509" lon="1.82472">
        <ele>628</ele>
        <time>2016-12-07T14:43:09Z</time>
      </trkpt>
      <trkpt lat="46.15508" lon="1.82474">
        <ele>628</ele>
        <time>2016-12-07T14:45:09Z</time>
      </trkpt>
      <trkpt lat="46.15506" lon="1.82476">
        <ele>628</ele>
        <time>2016-12-07T14:47:09Z</time>
      </trkpt>
      <trkpt lat="46.15502" lon="1.82479">
        <ele>627</ele>
        <time>2016-12-07T14:49:09Z</time>
      </trkpt>
      <trkpt lat="46.15499" lon="1.8248">
        <ele>627</ele>
        <time>2016-12-07T14:51:09Z</time>
      </trkpt>
      <trkpt lat="46.15494" lon="1.82483">
        <ele>627</ele>
        <time>2016-12-07T14:53:09Z</time>
      </trkpt>
      <trkpt lat="46.15484" lon="1.82486">
        <ele>625</ele>
        <time>2016-12-07T14:55:09Z</time>
      </trkpt>
      <trkpt lat="46.15472" lon="1.82492">
        <ele>624</ele>
        <time>2016-12-07T14:57:09Z</time>
      </trkpt>
      <trkpt lat="46.1546" lon="1.82497">
        <ele>623</ele>
        <time>2016-12-07T14:59:09Z</time>
      </trkpt>
      <trkpt lat="46.15458" lon="1.82498">
        <ele>622</ele>
        <time>2016-12-07T15:01:09Z</time>
      </trkpt>
      <trkpt lat="46.15449" lon="1.82501">
        <ele>621</ele>
        <time>2016-12-07T15:03:09Z</time>
      </trkpt>
      <trkpt lat="46.15442" lon="1.82504">
        <ele>621</ele>
        <time>2016-12-07T15:05:09Z</time>
      </trkpt>
      <trkpt lat="46.15441" lon="1.82505">
        <ele>620</ele>
        <time>2016-12-07T15:07:09Z</time>
      </trkpt>
      <trkpt lat="46.15435" lon="1.82506">
        <ele>620</ele>
        <time>2016-12-07T15:09:09Z</time>
      </trkpt>
      <trkpt lat="46.15432" lon="1.82507">
        <ele>619</ele>
        <time>2016-12-07T15:11:09Z</time>
      </trkpt>
      <trkpt lat="46.15425" lon="1.82513">
        <ele>619</ele>
        <time>2016-12-07T15:13:09Z</time>
      </trkpt>
      <trkpt lat="46.1542" lon="1.82516">
        <ele>618</ele>
        <time>2016-12-07T15:15:09Z</time>
      </trkpt>
      <trkpt lat="46.15411" lon="1.82519">
        <ele>618</ele>
        <time>2016-12-07T15:17:09Z</time>
      </trkpt>
      <trkpt lat="46.15408" lon="1.82521">
        <ele>618</ele>
        <time>2016-12-07T15:19:09Z</time>
      </trkpt>
      <trkpt lat="46.15403" lon="1.82523">
        <ele>618</ele>
        <time>2016-12-07T15:21:09Z</time>
      </trkpt>
      <trkpt lat="46.15397" lon="1.82526">
        <ele>618</ele>
        <time>2016-12-07T15:23:09Z</time>
      </trkpt>
      <trkpt lat="46.15388" lon="1.8253">
        <ele>617</ele>
        <time>2016-12-07T15:25:09Z</time>
      </trkpt>
      <trkpt lat="46.15382" lon="1.8253">
        <ele>617</ele>
        <time>2016-12-07T15:27:09Z</time>
      </trkpt>
      <trkpt lat="46.15367" lon="1.8253">
        <ele>616</ele>
        <time>2016-12-07T15:29:09Z</time>
      </trkpt>
      <trkpt lat="46.15364" lon="1.8253">
        <ele>616</ele>
        <time>2016-12-07T15:31:09Z</time>
      </trkpt>
      <trkpt lat="46.15362" lon="1.8253">
        <ele>616</ele>
        <time>2016-12-07T15:33:09Z</time>
      </trkpt>
      <trkpt lat="46.15354" lon="1.82529">
        <ele>616</ele>
        <time>2016-12-07T15:35:09Z</time>
      </trkpt>
      <trkpt lat="46.15344" lon="1.82527">
        <ele>615</ele>
        <time>2016-12-07T15:37:09Z</time>
      </trkpt>
      <trkpt lat="46.15339" lon="1.82527">
        <ele>615</ele>
        <time>2016-12-07T15:39:09Z</time>
      </trkpt>
      <trkpt lat="46.15336" lon="1.82528">
        <ele>615</ele>
        <time>2016-12-07T15:41:09Z</time>
      </trkpt>
      <trkpt lat="46.15331" lon="1.82528">
        <ele>614</ele>
        <time>2016-12-07T15:43:09Z</time>
      </trkpt>
      <trkpt lat="46.15324" lon="1.82528">
        <ele>614</ele>
        <time>2016-12-07T15:45:09Z</time>
      </trkpt>
      <trkpt lat="46.1532" lon="1.82528">
        <ele>613</ele>
        <time>2016-12-07T15:47:09Z</time>
      </trkpt>
      <trkpt lat="46.1531" lon="1.82526">
        <ele>612</ele>
        <time>2016-12-07T15:49:09Z</time>
      </trkpt>
      <trkpt lat="46.15303" lon="1.82522">
        <ele>610</ele>
        <time>2016-12-07T15:51:09Z</time>
      </trkpt>
      <trkpt lat="46.15299" lon="1.8252">
        <ele>610</ele>
        <time>2016-12-07T15:53:09Z</time>
      </trkpt>
      <trkpt lat="46.1529" lon="1.82518">
        <ele>608</ele>
        <time>2016-12-07T15:55:09Z</time>
      </trkpt>
      <trkpt lat="46.15287" lon="1.82518">
        <ele>608</ele>
        <time>2016-12-07T15:57:09Z</time>
      </trkpt>
      <trkpt lat="46.15279" lon="1.8252">
        <ele>607</ele>
        <time>2016-12-07T15:59:09Z</time>
      </trkpt>
      <trkpt lat="46.15277" lon="1.82519">
        <ele>607</ele>
        <time>2016-12-07T16:01:09Z</time>
      </trkpt>
      <trkpt lat="46.15276" lon="1.8252">
        <ele>607</ele>
        <time>2016-12-07T16:03:09Z</time>
      </trkpt>
      <trkpt lat="46.15273" lon="1.8252">
        <ele>607</ele>
        <time>2016-12-07T16:05:09Z</time>
      </trkpt>
      <trkpt lat="46.15271" lon="1.8252">
        <ele>606</ele>
        <time>2016-12-07T16:07:09Z</time>
      </trkpt>
      <trkpt lat="46.1527" lon="1.82518">
        <ele>606</ele>
        <time>2016-12-07T16:09:09Z</time>
      </trkpt>
      <trkpt lat="46.15266" lon="1.82518">
        <ele>605</ele>
        <time>2016-12-07T16:11:09Z</time>
      </trkpt>
      <trkpt lat="46.15262" lon="1.82516">
        <ele>605</ele>
        <time>2016-12-07T16:13:09Z</time>
      </trkpt>
      <trkpt lat="46.1526" lon="1.82515">
        <ele>604</ele>
        <time>2016-12-07T16:15:09Z</time>
      </trkpt>
      <trkpt lat="46.15256" lon="1.82511">
        <ele>604</ele>
        <time>2016-12-07T16:17:09Z</time>
      </trkpt>
      <trkpt lat="46.15255" lon="1.82509">
        <ele>603</ele>
        <time>2016-12-07T16:19:09Z</time>
      </trkpt>
      <trkpt lat="46.15255" lon="1.82508">
        <ele>603</ele>
        <time>2016-12-07T16:21:09Z</time>
      </trkpt>
      <trkpt lat="46.15254" lon="1.82506">
        <ele>603</ele>
        <time>2016-12-07T16:23:09Z</time>
      </trkpt>
      <trkpt lat="46.15251" lon="1.82498">
        <ele>602</ele>
        <time>2016-12-07T16:25:09Z</time>
      </trkpt>
      <trkpt lat="46.15248" lon="1.82497">
        <ele>601</ele>
        <time>2016-12-07T16:27:09Z</time>
      </trkpt>
      <trkpt lat="46.15244" lon="1.82493">
        <ele>600</ele>
        <time>2016-12-07T16:29:09Z</time>
      </trkpt>
      <trkpt lat="46.15234" lon="1.8249">
        <ele>599</ele>
        <time>2016-12-07T16:31:09Z</time>
      </trkpt>
      <trkpt lat="46.15228" lon="1.82489">
        <ele>598</ele>
        <time>2016-12-07T16:33:09Z</time>
      </trkpt>
      <trkpt lat="46.15223" lon="1.82487">
        <ele>597</ele>
        <time>2016-12-07T16:35:09Z</time>
      </trkpt>
      <trkpt lat="46.15218" lon="1.82487">
        <ele>597</ele>
        <time>2016-12-07T16:37:09Z</time>
      </trkpt>
      <trkpt lat="46.15211" lon="1.82489">
        <ele>596</ele>
        <time>2016-12-07T16:39:09Z</time>
      </trkpt>
      <trkpt lat="46.15209" lon="1.8249">
        <ele>596</ele>
        <time>2016-12-07T16:41:09Z</time>
      </trkpt>
      <trkpt lat="46.152" lon="1.82497">
        <ele>596</ele>
        <time>2016-12-07T16:43:09Z</time>
      </trkpt>
      <trkpt lat="46.15198" lon="1.82499">
        <ele>596</ele>
        <time>2016-12-07T16:45:09Z</time>
      </trkpt>
      <trkpt lat="46.15195" lon="1.825">
        <ele>596</ele>
        <time>2016-12-07T16:47:09Z</time>
      </trkpt>
      <trkpt lat="46.15192" lon="1.82501">
        <ele>596</ele>
        <time>2016-12-07T16:49:09Z</time>
      </trkpt>
      <trkpt lat="46.15184" lon="1.82502">
        <ele>595</ele>
        <time>2016-12-07T16:51:09Z</time>
      </trkpt>
      <trkpt lat="46.15183" lon="1.82504">
        <ele>595</ele>
        <time>2016-12-07T16:53:09Z</time>
      </trkpt>
      <trkpt lat="46.15181" lon="1.82507">
        <ele>596</ele>
        <time>2016-12-07T16:55:09Z</time>
      </trkpt>
      <trkpt lat="46.1518" lon="1.82511">
        <ele>596</ele>
        <time>2016-12-07T16:57:09Z</time>
      </trkpt>
      <trkpt lat="46.15177" lon="1.8252">
        <ele>597</ele>
        <time>2016-12-07T16:59:09Z</time>
      </trkpt>
      <trkpt lat="46.15177" lon="1.82525">
        <ele>598</ele>
        <time>2016-12-07T17:01:09Z</time>
      </trkpt>
      <trkpt lat="46.15177" lon="1.82527">
        <ele>598</ele>
        <time>2016-12-07T17:03:09Z</time>
      </trkpt>
      <trkpt lat="46.15176" lon="1.82528">
        <ele>598</ele>
        <time>2016-12-07T17:05:09Z</time>
      </trkpt>
      <trkpt lat="46.15175" lon="1.82532">
        <ele>599</ele>
        <time>2016-12-07T17:07:09Z</time>
      </trkpt>
      <trkpt lat="46.15172" lon="1.82541">
        <ele>600</ele>
        <time>2016-12-07T17:09:09Z</time>
      </trkpt>
      <trkpt lat="46.15172" lon="1.82546">
        <ele>601</ele>
        <time>2016-12-07T17:11:09Z</time>
      </trkpt>
      <trkpt lat="46.15171" lon="1.82547">
        <ele>601</ele>
        <time>2016-12-07T17:13:09Z</time>
      </trkpt>
      <trkpt lat="46.1517" lon="1.82554">
        <ele>602</ele>
        <time>2016-12-07T17:15:09Z</time>
      </trkpt>
      <trkpt lat="46.15168" lon="1.82558">
        <ele>602</ele>
        <time>2016-12-07T17:17:09Z</time>
      </trkpt>
      <trkpt lat="46.15167" lon="1.8256">
        <ele>602</ele>
        <time>2016-12-07T17:19:09Z</time>
      </trkpt>
      <trkpt lat="46.15163" lon="1.8257">
        <ele>603</ele>
        <time>2016-12-07T17:21:09Z</time>
      </trkpt>
      <trkpt lat="46.15162" lon="1.82573">
        <ele>604</ele>
        <time>2016-12-07T17:23:09Z</time>
      </trkpt>
      <trkpt lat="46.1516" lon="1.82575">
        <ele>604</ele>
        <time>2016-12-07T17:25:09Z</time>
      </trkpt>
      <trkpt lat="46.15154" lon="1.82581">
        <ele>604</ele>
        <time>2016-12-07T17:27:09Z</time>
      </trkpt>
      <trkpt lat="46.15153" lon="1.82582">
        <ele>604</ele>
        <time>2016-12-07T17:29:09Z</time>
      </trkpt>
      <trkpt lat="46.15152" lon="1.82585">
        <ele>604</ele>
        <time>2016-12-07T17:31:09Z</time>
      </trkpt>
      <trkpt lat="46.15151" lon="1.82589">
        <ele>604</ele>
        <time>2016-12-07T17:33:09Z</time>
      </trkpt>
      <trkpt lat="46.1515" lon="1.82596">
        <ele>604</ele>
        <time>2016-12-07T17:35:09Z</time>
      </trkpt>
      <trkpt lat="46.1515" lon="1.82608">
        <ele>605</ele>
        <time>2016-12-07T17:37:09Z</time>
      </trkpt>
      <trkpt lat="46.1515" lon="1.82609">
        <ele>605</ele>
        <time>2016-12-07T17:39:09Z</time>
      </trkpt>
      <trkpt lat="46.1515" lon="1.82614">
        <ele>606</ele>
        <time>2016-12-07T17:41:09Z</time>
      </trkpt>
      <trkpt lat="46.1515" lon="1.82621">
        <ele>607</ele>
        <time>2016-12-07T17:43:09Z</time>
      </trkpt>
      <trkpt lat="46.1515" lon="1.82629">
        <ele>607</ele>
        <time>2016-12-07T17:45:09Z</time>
      </trkpt>
      <trkpt lat="46.1515" lon="1.82635">
        <ele>608</ele>
        <time>2016-12-07T17:47:09Z</time>
      </trkpt>
      <trkpt lat="46.1515" lon="1.82637">
        <ele>608</ele>
        <time>2016-12-07T17:49:09Z</time>
      </trkpt>
      <trkpt lat="46.1515" lon="1.82643">
        <ele>608</ele>
        <time>2016-12-07T17:51:09Z</time>
      </trkpt>
      <trkpt lat="46.15151" lon="1.82648">
        <ele>609</ele>
        <time>2016-12-07T17:53:09Z</time>
      </trkpt>
      <trkpt lat="46.15152" lon="1.82653">
        <ele>610</ele>
        <time>2016-12-07T17:55:09Z</time>
      </trkpt>
      <trkpt lat="46.15153" lon="1.82658">
        <ele>610</ele>
        <time>2016-12-07T17:57:09Z</time>
      </trkpt>
      <trkpt lat="46.15152" lon="1.8266">
        <ele>610</ele>
        <time>2016-12-07T17:59:09Z</time>
      </trkpt>
      <trkpt lat="46.15152" lon="1.82671">
        <ele>611</ele>
        <time>2016-12-07T18:01:09Z</time>
      </trkpt>
      <trkpt lat="46.15152" lon="1.82675">
        <ele>611</ele>
        <time>2016-12-07T18:03:09Z</time>
      </trkpt>
      <trkpt lat="46.15153" lon="1.8268">
        <ele>612</ele>
        <time>2016-12-07T18:05:09Z</time>
      </trkpt>
      <trkpt lat="46.15158" lon="1.82687">
        <ele>613</ele>
        <time>2016-12-07T18:07:09Z</time>
      </trkpt>
      <trkpt lat="46.15159" lon="1.82691">
        <ele>613</ele>
        <time>2016-12-07T18:09:09Z</time>
      </trkpt>
      <trkpt lat="46.15162" lon="1.82695">
        <ele>614</ele>
        <time>2016-12-07T18:11:09Z</time>
      </trkpt>
      <trkpt lat="46.15163" lon="1.82697">
        <ele>614</ele>
        <time>2016-12-07T18:13:09Z</time>
      </trkpt>
      <trkpt lat="46.15164" lon="1.82701">
        <ele>615</ele>
        <time>2016-12-07T18:15:09Z</time>
      </trkpt>
      <trkpt lat="46.15166" lon="1.8271">
        <ele>615</ele>
        <time>2016-12-07T18:17:09Z</time>
      </trkpt>
      <trkpt lat="46.15167" lon="1.82712">
        <ele>616</ele>
        <time>2016-12-07T18:19:09Z</time>
      </trkpt>
      <trkpt lat="46.15167" lon="1.82719">
        <ele>616</ele>
        <time>2016-12-07T18:21:09Z</time>
      </trkpt>
      <trkpt lat="46.15167" lon="1.82724">
        <ele>616</ele>
        <time>2016-12-07T18:23:09Z</time>
      </trkpt>
      <trkpt lat="46.15168" lon="1.8273">
        <ele>616</ele>
        <time>2016-12-07T18:25:09Z</time>
      </trkpt>
      <trkpt lat="46.15168" lon="1.82732">
        <ele>616</ele>
        <time>2016-12-07T18:27:09Z</time>
      </trkpt>
      <trkpt lat="46.15168" lon="1.82734">
        <ele>617</ele>
        <time>2016-12-07T18:29:09Z</time>
      </trkpt>
      <trkpt lat="46.15166" lon="1.82738">
        <ele>616</ele>
        <time>2016-12-07T18:31:09Z</time>
      </trkpt>
      <trkpt lat="46.15166" lon="1.82742">
        <ele>617</ele>
        <time>2016-12-07T18:33:09Z</time>
      </trkpt>
      <trkpt lat="46.15164" lon="1.82746">
        <ele>616</ele>
        <time>2016-12-07T18:35:09Z</time>
      </trkpt>
      <trkpt lat="46.15163" lon="1.8275">
        <ele>616</ele>
        <time>2016-12-07T18:37:09Z</time>
      </trkpt>
      <trkpt lat="46.15161" lon="1.82756">
        <ele>616</ele>
        <time>2016-12-07T18:39:09Z</time>
      </trkpt>
      <trkpt lat="46.1516" lon="1.8276">
        <ele>617</ele>
        <time>2016-12-07T18:41:09Z</time>
      </trkpt>
      <trkpt lat="46.1516" lon="1.82765">
        <ele>617</ele>
        <time>2016-12-07T18:43:09Z</time>
      </trkpt>
      <trkpt lat="46.1516" lon="1.82772">
        <ele>617</ele>
        <time>2016-12-07T18:45:09Z</time>
      </trkpt>
      <trkpt lat="46.1516" lon="1.82776">
        <ele>618</ele>
        <time>2016-12-07T18:47:09Z</time>
      </trkpt>
      <trkpt lat="46.15161" lon="1.82784">
        <ele>619</ele>
        <time>2016-12-07T18:49:09Z</time>
      </trkpt>
      <trkpt lat="46.15161" lon="1.82788">
        <ele>619</ele>
        <time>2016-12-07T18:51:09Z</time>
      </trkpt>
      <trkpt lat="46.1516" lon="1.82793">
        <ele>619</ele>
        <time>2016-12-07T18:53:09Z</time>
      </trkpt>
      <trkpt lat="46.15157" lon="1.82799">
        <ele>619</ele>
        <time>2016-12-07T18:55:09Z</time>
      </trkpt>
      <trkpt lat="46.15156" lon="1.82801">
        <ele>619</ele>
        <time>2016-12-07T18:57:09Z</time>
      </trkpt>
      <trkpt lat="46.15152" lon="1.82803">
        <ele>618</ele>
        <time>2016-12-07T18:59:09Z</time>
      </trkpt>
      <trkpt lat="46.15151" lon="1.82805">
        <ele>618</ele>
        <time>2016-12-07T19:01:09Z</time>
      </trkpt>
      <trkpt lat="46.15151" lon="1.82807">
        <ele>619</ele>
        <time>2016-12-07T19:03:09Z</time>
      </trkpt>
      <trkpt lat="46.15151" lon="1.82809">
        <ele>619</ele>
        <time>2016-12-07T19:05:09Z</time>
      </trkpt>
      <trkpt lat="46.15151" lon="1.82815">
        <ele>619</ele>
        <time>2016-12-07T19:07:09Z</time>
      </trkpt>
      <trkpt lat="46.15151" lon="1.82819">
        <ele>619</ele>
        <time>2016-12-07T19:09:09Z</time>
      </trkpt>
      <trkpt lat="46.15152" lon="1.82821">
        <ele>620</ele>
        <time>2016-12-07T19:11:09Z</time>
      </trkpt>
      <trkpt lat="46.15152" lon="1.82824">
        <ele>620</ele>
        <time>2016-12-07T19:13:09Z</time>
      </trkpt>
      <trkpt lat="46.1515" lon="1.82835">
        <ele>621</ele>
        <time>2016-12-07T19:15:09Z</time>
      </trkpt>
      <trkpt lat="46.1515" lon="1.82835">
        <ele>621</ele>
        <time>2016-12-07T19:17:09Z</time>
      </trkpt>
      <trkpt lat="46.1515" lon="1.82835">
        <ele>621</ele>
        <time>2016-12-07T19:19:09Z</time>
      </trkpt>
      <trkpt lat="46.15151" lon="1.82834">
        <ele>621</ele>
        <time>2016-12-07T19:21:09Z</time>
      </trkpt>
      <trkpt lat="46.1515" lon="1.82834">
        <ele>620</ele>
        <time>2016-12-07T19:23:09Z</time>
      </trkpt>
      <trkpt lat="46.1515" lon="1.82835">
        <ele>621</ele>
        <time>2016-12-07T19:25:09Z</time>
      </trkpt>
      <trkpt lat="46.1515" lon="1.82835">
        <ele>621</ele>
        <time>2016-12-07T19:27:09Z</time>
      </trkpt>
      <trkpt lat="46.1515" lon="1.82835">
        <ele>621</ele>
        <time>2016-12-07T19:29:09Z</time>
      </trkpt>
      <trkpt lat="46.1515" lon="1.82843">
        <ele>621</ele>
        <time>2016-12-07T19:31:09Z</time>
      </trkpt>
      <trkpt lat="46.1515" lon="1.82842">
        <ele>621</ele>
        <time>2016-12-07T19:33:09Z</time>
      </trkpt>
      <trkpt lat="46.1515" lon="1.82843">
        <ele>621</ele>
        <time>2016-12-07T19:35:09Z</time>
      </trkpt>
      <trkpt lat="46.15151" lon="1.82845">
        <ele>621</ele>
        <time>2016-12-07T19:37:09Z</time>
      </trkpt>
      <trkpt lat="46.15149" lon="1.82859">
        <ele>622</ele>
        <time>2016-12-07T19:39:09Z</time>
      </trkpt>
      <trkpt lat="46.15149" lon="1.82866">
        <ele>623</ele>
        <time>2016-12-07T19:41:09Z</time>
      </trkpt>
      <trkpt lat="46.1515" lon="1.82869">
        <ele>623</ele>
        <time>2016-12-07T19:43:09Z</time>
      </trkpt>
      <trkpt lat="46.15151" lon="1.82873">
        <ele>623</ele>
        <time>2016-12-07T19:45:09Z</time>
      </trkpt>
      <trkpt lat="46.15152" lon="1.82876">
        <ele>624</ele>
        <time>2016-12-07T19:47:09Z</time>
      </trkpt>
      <trkpt lat="46.15151" lon="1.82879">
        <ele>624</ele>
        <time>2016-12-07T19:49:09Z</time>
      </trkpt>
      <trkpt lat="46.15151" lon="1.82882">
        <ele>624</ele>
        <time>2016-12-07T19:51:09Z</time>
      </trkpt>
      <trkpt lat="46.15151" lon="1.82889">
        <ele>624</ele>
        <time>2016-12-07T19:53:09Z</time>
      </trkpt>
      <trkpt lat="46.1515" lon="1.82896">
        <ele>625</ele>
        <time>2016-12-07T19:55:09Z</time>
      </trkpt>
      <trkpt lat="46.15151" lon="1.82899">
        <ele>625</ele>
        <time>2016-12-07T19:57:09Z</time>
      </trkpt>
      <trkpt lat="46.1515" lon="1.82906">
        <ele>625</ele>
        <time>2016-12-07T19:59:09Z</time>
      </trkpt>
      <trkpt lat="46.1515" lon="1.82909">
        <ele>626</ele>
        <time>2016-12-07T20:01:09Z</time>
      </trkpt>
      <trkpt lat="46.1515" lon="1.82917">
        <ele>626</ele>
        <time>2016-12-07T20:03:09Z</time>
      </trkpt>
      <trkpt lat="46.1515" lon="1.8292">
        <ele>626</ele>
        <time>2016-12-07T20:05:09Z</time>
      </trkpt>
      <trkpt lat="46.15149" lon="1.8293">
        <ele>626</ele>
        <time>2016-12-07T20:07:09Z</time>
      </trkpt>
      <trkpt lat="46.1515" lon="1.82939">
        <ele>627</ele>
        <time>2016-12-07T20:09:09Z</time>
      </trkpt>
      <trkpt lat="46.15152" lon="1.82949">
        <ele>627</ele>
        <time>2016-12-07T20:11:09Z</time>
      </trkpt>
      <trkpt lat="46.15153" lon="1.82956">
        <ele>627</ele>
        <time>2016-12-07T20:13:09Z</time>
      </trkpt>
      <trkpt lat="46.15153" lon="1.82963">
        <ele>628</ele>
        <time>2016-12-07T20:15:09Z</time>
      </trkpt>
      <trkpt lat="46.15152" lon="1.8297">
        <ele>628</ele>
        <time>2016-12-07T20:17:09Z</time>
      </trkpt>
      <trkpt lat="46.15151" lon="1.82973">
        <ele>628</ele>
        <time>2016-12-07T20:19:09Z</time>
      </trkpt>
      <trkpt lat="46.1515" lon="1.82976">
        <ele>628</ele>
        <time>2016-12-07T20:21:09Z</time>
      </trkpt>
      <trkpt lat="46.15151" lon="1.8298">
        <ele>628</ele>
        <time>2016-12-07T20:23:09Z</time>
      </trkpt>
      <trkpt lat="46.15151" lon="1.82982">
        <ele>628</ele>
        <time>2016-12-07T20:25:09Z</time>
      </trkpt>
      <trkpt lat="46.15151" lon="1.82988">
        <ele>628</ele>
        <time>2016-12-07T20:27:09Z</time>
      </trkpt>
      <trkpt lat="46.15152" lon="1.8299">
        <ele>628</ele>
        <time>2016-12-07T20:29:09Z</time>
      </trkpt>
      <trkpt lat="46.15153" lon="1.82991">
        <ele>628</ele>
        <time>2016-12-07T20:31:09Z</time>
      </trkpt>
      <trkpt lat="46.15155" lon="1.82993">
        <ele>629</ele>
        <time>2016-12-07T20:33:09Z</time>
      </trkpt>
      <trkpt lat="46.15159" lon="1.82996">
        <ele>629</ele>
        <time>2016-12-07T20:35:09Z</time>
      </trkpt>
      <trkpt lat="46.15161" lon="1.82999">
        <ele>629</ele>
        <time>2016-12-07T20:37:09Z</time>
      </trkpt>
      <trkpt lat="46.15164" lon="1.83004">
        <ele>630</ele>
        <time>2016-12-07T20:39:09Z</time>
      </trkpt>
      <trkpt lat="46.15165" lon="1.83008">
        <ele>630</ele>
        <time>2016-12-07T20:41:09Z</time>
      </trkpt>
      <trkpt lat="46.15165" lon="1.83015">
        <ele>630</ele>
        <time>2016-12-07T20:43:09Z</time>
      </trkpt>
      <trkpt lat="46.15166" lon="1.83018">
        <ele>630</ele>
        <time>2016-12-07T20:45:09Z</time>
      </trkpt>
      <trkpt lat="46.15166" lon="1.83025">
        <ele>630</ele>
        <time>2016-12-07T20:47:09Z</time>
      </trkpt>
      <trkpt lat="46.15166" lon="1.83028">
        <ele>630</ele>
        <time>2016-12-07T20:49:09Z</time>
      </trkpt>
      <trkpt lat="46.15167" lon="1.83032">
        <ele>630</ele>
        <time>2016-12-07T20:51:09Z</time>
      </trkpt>
      <trkpt lat="46.15169" lon="1.83041">
        <ele>630</ele>
        <time>2016-12-07T20:53:09Z</time>
      </trkpt>
      <trkpt lat="46.15169" lon="1.83043">
        <ele>630</ele>
        <time>2016-12-07T20:55:09Z</time>
      </trkpt>
      <trkpt lat="46.1517" lon="1.83045">
        <ele>630</ele>
        <time>2016-12-07T20:57:09Z</time>
      </trkpt>
      <trkpt lat="46.15171" lon="1.83048">
        <ele>631</ele>
        <time>2016-12-07T20:59:09Z</time>
      </trkpt>
      <trkpt lat="46.15172" lon="1.83051">
        <ele>631</ele>
        <time>2016-12-07T21:01:09Z</time>
      </trkpt>
      <trkpt lat="46.15172" lon="1.83057">
        <ele>631</ele>
        <time>2016-12-07T21:03:09Z</time>
      </trkpt>
      <trkpt lat="46.15172" lon="1.83066">
        <ele>631</ele>
        <time>2016-12-07T21:05:09Z</time>
      </trkpt>
      <trkpt lat="46.15173" lon="1.83072">
        <ele>631</ele>
        <time>2016-12-07T21:07:09Z</time>
      </trkpt>
      <trkpt lat="46.15173" lon="1.83075">
        <ele>631</ele>
        <time>2016-12-07T21:09:09Z</time>
      </trkpt>
      <trkpt lat="46.15173" lon="1.83084">
        <ele>631</ele>
        <time>2016-12-07T21:11:09Z</time>
      </trkpt>
      <trkpt lat="46.15172" lon="1.83089">
        <ele>631</ele>
        <time>2016-12-07T21:13:09Z</time>
      </trkpt>
      <trkpt lat="46.15172" lon="1.83093">
        <ele>631</ele>
        <time>2016-12-07T21:15:09Z</time>
      </trkpt>
      <trkpt lat="46.15173" lon="1.83096">
        <ele>631</ele>
        <time>2016-12-07T21:17:09Z</time>
      </trkpt>
      <trkpt lat="46.15174" lon="1.831">
        <ele>632</ele>
        <time>2016-12-07T21:19:09Z</time>
      </trkpt>
      <trkpt lat="46.15174" lon="1.83103">
        <ele>632</ele>
        <time>2016-12-07T21:21:09Z</time>
      </trkpt>
      <trkpt lat="46.15174" lon="1.83107">
        <ele>632</ele>
        <time>2016-12-07T21:23:09Z</time>
      </trkpt>
      <trkpt lat="46.15174" lon="1.8311">
        <ele>632</ele>
        <time>2016-12-07T21:25:09Z</time>
      </trkpt>
      <trkpt lat="46.15173" lon="1.83117">
        <ele>632</ele>
        <time>2016-12-07T21:27:09Z</time>
      </trkpt>
      <trkpt lat="46.15173" lon="1.83121">
        <ele>632</ele>
        <time>2016-12-07T21:29:09Z</time>
      </trkpt>
      <trkpt lat="46.15172" lon="1.83125">
        <ele>632</ele>
        <time>2016-12-07T21:31:09Z</time>
      </trkpt>
      <trkpt lat="46.15172" lon="1.83128">
        <ele>632</ele>
        <time>2016-12-07T21:33:09Z</time>
      </trkpt>
      <trkpt lat="46.15172" lon="1.83131">
        <ele>632</ele>
        <time>2016-12-07T21:35:09Z</time>
      </trkpt>
      <trkpt lat="46.15172" lon="1.83135">
        <ele>632</ele>
        <time>2016-12-07T21:37:09Z</time>
      </trkpt>
      <trkpt lat="46.15171" lon="1.83138">
        <ele>632</ele>
        <time>2016-12-07T21:39:09Z</time>
      </trkpt>
      <trkpt lat="46.15171" lon="1.83142">
        <ele>632</ele>
        <time>2016-12-07T21:41:09Z</time>
      </trkpt>
      <trkpt lat="46.1517" lon="1.83149">
        <ele>632</ele>
        <time>2016-12-07T21:43:09Z</time>
      </trkpt>
      <trkpt lat="46.1517" lon="1.83153">
        <ele>632</ele>
        <time>2016-12-07T21:45:09Z</time>
      </trkpt>
      <trkpt lat="46.15169" lon="1.83156">
        <ele>632</ele>
        <time>2016-12-07T21:47:09Z</time>
      </trkpt>
      <trkpt lat="46.15169" lon="1.8316">
        <ele>632</ele>
        <time>2016-12-07T21:49:09Z</time>
      </trkpt>
      <trkpt lat="46.15168" lon="1.83164">
        <ele>632</ele>
        <time>2016-12-07T21:51:09Z</time>
      </trkpt>
      <trkpt lat="46.15167" lon="1.83167">
        <ele>632</ele>
        <time>2016-12-07T21:53:09Z</time>
      </trkpt>
      <trkpt lat="46.15167" lon="1.8317">
        <ele>632</ele>
        <time>2016-12-07T21:55:09Z</time>
      </trkpt>
      <trkpt lat="46.15167" lon="1.83176">
        <ele>632</ele>
        <time>2016-12-07T21:57:09Z</time>
      </trkpt>
      <trkpt lat="46.15165" lon="1.83187">
        <ele>632</ele>
        <time>2016-12-07T21:59:09Z</time>
      </trkpt>
      <trkpt lat="46.15164" lon="1.8319">
        <ele>632</ele>
        <time>2016-12-07T22:01:09Z</time>
      </trkpt>
      <trkpt lat="46.15162" lon="1.832">
        <ele>632</ele>
        <time>2016-12-07T22:03:09Z</time>
      </trkpt>
      <trkpt lat="46.15161" lon="1.83209">
        <ele>632</ele>
        <time>2016-12-07T22:05:09Z</time>
      </trkpt>
      <trkpt lat="46.1516" lon="1.83219">
        <ele>631</ele>
        <time>2016-12-07T22:07:09Z</time>
      </trkpt>
      <trkpt lat="46.1516" lon="1.83223">
        <ele>632</ele>
        <time>2016-12-07T22:09:09Z</time>
      </trkpt>
      <trkpt lat="46.15158" lon="1.83234">
        <ele>631</ele>
        <time>2016-12-07T22:11:09Z</time>
      </trkpt>
      <trkpt lat="46.15159" lon="1.83251">
        <ele>632</ele>
        <time>2016-12-07T22:13:09Z</time>
      </trkpt>
      <trkpt lat="46.15158" lon="1.83257">
        <ele>632</ele>
        <time>2016-12-07T22:15:09Z</time>
      </trkpt>
      <trkpt lat="46.15158" lon="1.83262">
        <ele>632</ele>
        <time>2016-12-07T22:17:09Z</time>
      </trkpt>
      <trkpt lat="46.15159" lon="1.83266">
        <ele>633</ele>
        <time>2016-12-07T22:19:09Z</time>
      </trkpt>
      <trkpt lat="46.15159" lon="1.8327">
        <ele>633</ele>
        <time>2016-12-07T22:21:09Z</time>
      </trkpt>
      <trkpt lat="46.15158" lon="1.83273">
        <ele>633</ele>
        <time>2016-12-07T22:23:09Z</time>
      </trkpt>
      <trkpt lat="46.15158" lon="1.83276">
        <ele>633</ele>
        <time>2016-12-07T22:25:09Z</time>
      </trkpt>
      <trkpt lat="46.15158" lon="1.83279">
        <ele>633</ele>
        <time>2016-12-07T22:27:09Z</time>
      </trkpt>
      <trkpt lat="46.15158" lon="1.83285">
        <ele>633</ele>
        <time>2016-12-07T22:29:09Z</time>
      </trkpt>
      <trkpt lat="46.1516" lon="1.83298">
        <ele>634</ele>
        <time>2016-12-07T22:31:09Z</time>
      </trkpt>
      <trkpt lat="46.1516" lon="1.83302">
        <ele>635</ele>
        <time>2016-12-07T22:33:09Z</time>
      </trkpt>
      <trkpt lat="46.15159" lon="1.83319">
        <ele>635</ele>
        <time>2016-12-07T22:35:09Z</time>
      </trkpt>
      <trkpt lat="46.1516" lon="1.83329">
        <ele>636</ele>
        <time>2016-12-07T22:37:09Z</time>
      </trkpt>
      <trkpt lat="46.15159" lon="1.83336">
        <ele>636</ele>
        <time>2016-12-07T22:39:09Z</time>
      </trkpt>
      <trkpt lat="46.1516" lon="1.83341">
        <ele>636</ele>
        <time>2016-12-07T22:41:09Z</time>
      </trkpt>
      <trkpt lat="46.15159" lon="1.83349">
        <ele>636</ele>
        <time>2016-12-07T22:43:09Z</time>
      </trkpt>
      <trkpt lat="46.1516" lon="1.83352">
        <ele>636</ele>
        <time>2016-12-07T22:45:09Z</time>
      </trkpt>
      <trkpt lat="46.1516" lon="1.83359">
        <ele>636</ele>
        <time>2016-12-07T22:47:09Z</time>
      </trkpt>
      <trkpt lat="46.1516" lon="1.83362">
        <ele>636</ele>
        <time>2016-12-07T22:49:09Z</time>
      </trkpt>
      <trkpt lat="46.1516" lon="1.8337">
        <ele>636</ele>
        <time>2016-12-07T22:51:09Z</time>
      </trkpt>
      <trkpt lat="46.15159" lon="1.83378">
        <ele>636</ele>
        <time>2016-12-07T22:53:09Z</time>
      </trkpt>
      <trkpt lat="46.15159" lon="1.83388">
        <ele>636</ele>
        <time>2016-12-07T22:55:09Z</time>
      </trkpt>
      <trkpt lat="46.15159" lon="1.83395">
        <ele>636</ele>
        <time>2016-12-07T22:57:09Z</time>
      </trkpt>
      <trkpt lat="46.15159" lon="1.83398">
        <ele>636</ele>
        <time>2016-12-07T22:59:09Z</time>
      </trkpt>
      <trkpt lat="46.15159" lon="1.83401">
        <ele>636</ele>
        <time>2016-12-07T23:01:09Z</time>
      </trkpt>
      <trkpt lat="46.15159" lon="1.83405">
        <ele>636</ele>
        <time>2016-12-07T23:03:09Z</time>
      </trkpt>
      <trkpt lat="46.1516" lon="1.83412">
        <ele>636</ele>
        <time>2016-12-07T23:05:09Z</time>
      </trkpt>
      <trkpt lat="46.15159" lon="1.83428">
        <ele>636</ele>
        <time>2016-12-07T23:07:09Z</time>
      </trkpt>
      <trkpt lat="46.1516" lon="1.83435">
        <ele>636</ele>
        <time>2016-12-07T23:09:09Z</time>
      </trkpt>
      <trkpt lat="46.1516" lon="1.83446">
        <ele>635</ele>
        <time>2016-12-07T23:11:09Z</time>
      </trkpt>
      <trkpt lat="46.1516" lon="1.8345">
        <ele>635</ele>
        <time>2016-12-07T23:13:09Z</time>
      </trkpt>
      <trkpt lat="46.1516" lon="1.83454">
        <ele>635</ele>
        <time>2016-12-07T23:15:09Z</time>
      </trkpt>
      <trkpt lat="46.15159" lon="1.83458">
        <ele>635</ele>
        <time>2016-12-07T23:17:09Z</time>
      </trkpt>
      <trkpt lat="46.15159" lon="1.83469">
        <ele>635</ele>
        <time>2016-12-07T23:19:09Z</time>
      </trkpt>
      <trkpt lat="46.1516" lon="1.83477">
        <ele>634</ele>
        <time>2016-12-07T23:21:09Z</time>
      </trkpt>
      <trkpt lat="46.15159" lon="1.8348">
        <ele>634</ele>
        <time>2016-12-07T23:23:09Z</time>
      </trkpt>
      <trkpt lat="46.1516" lon="1.83484">
        <ele>634</ele>
        <time>2016-12-07T23:25:09Z</time>
      </trkpt>
      <trkpt lat="46.1516" lon="1.8349">
        <ele>634</ele>
        <time>2016-12-07T23:27:09Z</time>
      </trkpt>
      <trkpt lat="46.15161" lon="1.83505">
        <ele>634</ele>
        <time>2016-12-07T23:29:09Z</time>
      </trkpt>
      <trkpt lat="46.15163" lon="1.83511">
        <ele>634</ele>
        <time>2016-12-07T23:31:09Z</time>
      </trkpt>
      <trkpt lat="46.15163" lon="1.83518">
        <ele>634</ele>
        <time>2016-12-07T23:33:09Z</time>
      </trkpt>
      <trkpt lat="46.15163" lon="1.83524">
        <ele>634</ele>
        <time>2016-12-07T23:35:09Z</time>
      </trkpt>
      <trkpt lat="46.15163" lon="1.83531">
        <ele>634</ele>
        <time>2016-12-07T23:37:09Z</time>
      </trkpt>
      <trkpt lat="46.15163" lon="1.83534">
        <ele>634</ele>
        <time>2016-12-07T23:39:09Z</time>
      </trkpt>
      <trkpt lat="46.15163" lon="1.83543">
        <ele>633</ele>
        <time>2016-12-07T23:41:09Z</time>
      </trkpt>
      <trkpt lat="46.15163" lon="1.83547">
        <ele>633</ele>
        <time>2016-12-07T23:43:09Z</time>
      </trkpt>
      <trkpt lat="46.15162" lon="1.83556">
        <ele>633</ele>
        <time>2016-12-07T23:45:09Z</time>
      </trkpt>
      <trkpt lat="46.15162" lon="1.83559">
        <ele>633</ele>
        <time>2016-12-07T23:47:09Z</time>
      </trkpt>
      <trkpt lat="46.15161" lon="1.83569">
        <ele>633</ele>
        <time>2016-12-07T23:49:09Z</time>
      </trkpt>
      <trkpt lat="46.15161" lon="1.83573">
        <ele>633</ele>
        <time>2016-12-07T23:51:09Z</time>
      </trkpt>
      <trkpt lat="46.15161" lon="1.83576">
        <ele>633</ele>
        <time>2016-12-07T23:53:09Z</time>
      </trkpt>
      <trkpt lat="46.15161" lon="1.8358">
        <ele>633</ele>
        <time>2016-12-07T23:55:09Z</time>
      </trkpt>
      <trkpt lat="46.15161" lon="1.83586">
        <ele>633</ele>
        <time>2016-12-07T23:57:09Z</time>
      </trkpt>
      <trkpt lat="46.15162" lon="1.83593">
        <ele>633</ele>
        <time>2016-12-07T23:59:09Z</time>
      </trkpt>
      <trkpt lat="46.15162" lon="1.83596">
        <ele>633</ele>
        <time>2016-12-08T00:01:09Z</time>
      </trkpt>
      <trkpt lat="46.15162" lon="1.83599">
        <ele>633</ele>
        <time>2016-12-08T00:03:09Z</time>
      </trkpt>
      <trkpt lat="46.15162" lon="1.83602">
        <ele>633</ele>
        <time>2016-12-08T00:05:09Z</time>
      </trkpt>
      <trkpt lat="46.15162" lon="1.83611">
        <ele>634</ele>
        <time>2016-12-08T00:07:09Z</time>
      </trkpt>
      <trkpt lat="46.15162" lon="1.83614">
        <ele>634</ele>
        <time>2016-12-08T00:09:09Z</time>
      </trkpt>
      <trkpt lat="46.15162" lon="1.83617">
        <ele>634</ele>
        <time>2016-12-08T00:11:09Z</time>
      </trkpt>
      <trkpt lat="46.15163" lon="1.83624">
        <ele>634</ele>
        <time>2016-12-08T00:13:09Z</time>
      </trkpt>
      <trkpt lat="46.15164" lon="1.83637">
        <ele>634</ele>
        <time>2016-12-08T00:15:09Z</time>
      </trkpt>
      <trkpt lat="46.15165" lon="1.83647">
        <ele>635</ele>
        <time>2016-12-08T00:17:09Z</time>
      </trkpt>
      <trkpt lat="46.15165" lon="1.8366">
        <ele>635</ele>
        <time>2016-12-08T00:19:09Z</time>
      </trkpt>
      <trkpt lat="46.15167" lon="1.83665">
        <ele>635</ele>
        <time>2016-12-08T00:21:09Z</time>
      </trkpt>
      <trkpt lat="46.15168" lon="1.83668">
        <ele>635</ele>
        <time>2016-12-08T00:23:09Z</time>
      </trkpt>
      <trkpt lat="46.15169" lon="1.83675">
        <ele>635</ele>
        <time>2016-12-08T00:25:09Z</time>
      </trkpt>
      <trkpt lat="46.15171" lon="1.83677">
        <ele>636</ele>
        <time>2016-12-08T00:27:09Z</time>
      </trkpt>
      <trkpt lat="46.15174" lon="1.83682">
        <ele>636</ele>
        <time>2016-12-08T00:29:09Z</time>
      </trkpt>
      <trkpt lat="46.15175" lon="1.83685">
        <ele>636</ele>
        <time>2016-12-08T00:31:09Z</time>
      </trkpt>
      <trkpt lat="46.15178" lon="1.8369">
        <ele>636</ele>
        <time>2016-12-08T00:33:09Z</time>
      </trkpt>
      <trkpt lat="46.1518" lon="1.83693">
        <ele>637</ele>
        <time>2016-12-08T00:35:09Z</time>
      </trkpt>
      <trkpt lat="46.15183" lon="1.83699">
        <ele>637</ele>
        <time>2016-12-08T00:37:09Z</time>
      </trkpt>
      <trkpt lat="46.15186" lon="1.83705">
        <ele>637</ele>
        <time>2016-12-08T00:39:09Z</time>
      </trkpt>
      <trkpt lat="46.15189" lon="1.83711">
        <ele>638</ele>
        <time>2016-12-08T00:41:09Z</time>
      </trkpt>
      <trkpt lat="46.15194" lon="1.83723">
        <ele>638</ele>
        <time>2016-12-08T00:43:09Z</time>
      </trkpt>
      <trkpt lat="46.15199" lon="1.83739">
        <ele>639</ele>
        <time>2016-12-08T00:45:09Z</time>
      </trkpt>
      <trkpt lat="46.15202" lon="1.83751">
        <ele>639</ele>
        <time>2016-12-08T00:47:09Z</time>
      </trkpt>
      <trkpt lat="46.15202" lon="1.83755">
        <ele>639</ele>
        <time>2016-12-08T00:49:09Z</time>
      </trkpt>
      <trkpt lat="46.15204" lon="1.83762">
        <ele>639</ele>
        <time>2016-12-08T00:51:09Z</time>
      </trkpt>
      <trkpt lat="46.15204" lon="1.83764">
        <ele>639</ele>
        <time>2016-12-08T00:53:09Z</time>
      </trkpt>
      <trkpt lat="46.15203" lon="1.83766">
        <ele>638</ele>
        <time>2016-12-08T00:55:09Z</time>
      </trkpt>
      <trkpt lat="46.15202" lon="1.83767">
        <ele>638</ele>
        <time>2016-12-08T00:57:09Z</time>
      </trkpt>
      <trkpt lat="46.15201" lon="1.8377">
        <ele>638</ele>
        <time>2016-12-08T00:59:09Z</time>
      </trkpt>
      <trkpt lat="46.15201" lon="1.8377">
        <ele>638</ele>
        <time>2016-12-08T01:01:09Z</time>
      </trkpt>
      <trkpt lat="46.152" lon="1.83771">
        <ele>638</ele>
        <time>2016-12-08T01:03:09Z</time>
      </trkpt>
      <trkpt lat="46.152" lon="1.83771">
        <ele>638</ele>
        <time>2016-12-08T01:05:09Z</time>
      </trkpt>
      <trkpt lat="46.152" lon="1.83771">
        <ele>638</ele>
        <time>2016-12-08T01:07:09Z</time>
      </trkpt>
      <trkpt lat="46.152" lon="1.83771">
        <ele>638</ele>
        <time>2016-12-08T01:09:09Z</time>
      </trkpt>
      <trkpt lat="46.15199" lon="1.83771">
        <ele>638</ele>
        <time>2016-12-08T01:11:09Z</time>
      </trkpt>
      <trkpt lat="46.15199" lon="1.8377">
        <ele>638</ele>
        <time>2016-12-08T01:13:09Z</time>
      </trkpt>
      <trkpt lat="46.15199" lon="1.83771">
        <ele>638</ele>
        <time>2016-12-08T01:15:09Z</time>
      </trkpt>
      <trkpt lat="46.15199" lon="1.8377">
        <ele>638</ele>
        <time>2016-12-08T01:17:09Z</time>
      </trkpt>
      <trkpt lat="46.15199" lon="1.83771">
        <ele>638</ele>
        <time>2016-12-08T01:19:09Z</time>
      </trkpt>
      <trkpt lat="46.15197" lon="1.8377">
        <ele>638</ele>
        <time>2016-12-08T01:21:09Z</time>
      </trkpt>
      <trkpt lat="46.15197" lon="1.8377">
        <ele>638</ele>
        <time>2016-12-08T01:23:09Z</time>
      </trkpt>
      <trkpt lat="46.15197" lon="1.8377">
        <ele>638</ele>
        <time>2016-12-08T01:25:09Z</time>
      </trkpt>
      <trkpt lat="46.15195" lon="1.83773">
        <ele>637</ele>
        <time>2016-12-08T01:27:09Z</time>
      </trkpt>
      <trkpt lat="46.15193" lon="1.83773">
        <ele>637</ele>
        <time>2016-12-08T01:29:09Z</time>
      </trkpt>
      <trkpt lat="46.15192" lon="1.83773">
        <ele>637</ele>
        <time>2016-12-08T01:31:09Z</time>
      </trkpt>
      <trkpt lat="46.15186" lon="1.83769">
        <ele>636</ele>
        <time>2016-12-08T01:33:09Z</time>
      </trkpt>
      <trkpt lat="46.15182" lon="1.83767">
        <ele>636</ele>
        <time>2016-12-08T01:35:09Z</time>
      </trkpt>
      <trkpt lat="46.15175" lon="1.83763">
        <ele>635</ele>
        <time>2016-12-08T01:37:09Z</time>
      </trkpt>
      <trkpt lat="46.15167" lon="1.8376">
        <ele>634</ele>
        <time>2016-12-08T01:39:09Z</time>
      </trkpt>
      <trkpt lat="46.15161" lon="1.83759">
        <ele>634</ele>
        <time>2016-12-08T01:41:09Z</time>
      </trkpt>
      <trkpt lat="46.15147" lon="1.83759">
        <ele>634</ele>
        <time>2016-12-08T01:43:09Z</time>
      </trkpt>
      <trkpt lat="46.15141" lon="1.83758">
        <ele>634</ele>
        <time>2016-12-08T01:45:09Z</time>
      </trkpt>
      <trkpt lat="46.15131" lon="1.83758">
        <ele>634</ele>
        <time>2016-12-08T01:47:09Z</time>
      </trkpt>
      <trkpt lat="46.15128" lon="1.83757">
        <ele>634</ele>
        <time>2016-12-08T01:49:09Z</time>
      </trkpt>
      <trkpt lat="46.15123" lon="1.83757">
        <ele>634</ele>
        <time>2016-12-08T01:51:09Z</time>
      </trkpt>
      <trkpt lat="46.15098" lon="1.83753">
        <ele>634</ele>
        <time>2016-12-08T01:53:09Z</time>
      </trkpt>
      <trkpt lat="46.15096" lon="1.83753">
        <ele>634</ele>
        <time>2016-12-08T01:55:09Z</time>
      </trkpt>
      <trkpt lat="46.1508" lon="1.83749">
        <ele>634</ele>
        <time>2016-12-08T01:57:09Z</time>
      </trkpt>
      <trkpt lat="46.15078" lon="1.83749">
        <ele>635</ele>
        <time>2016-12-08T01:59:09Z</time>
      </trkpt>
      <trkpt lat="46.15061" lon="1.83747">
        <ele>636</ele>
        <time>2016-12-08T02:01:09Z</time>
      </trkpt>
      <trkpt lat="46.15057" lon="1.83747">
        <ele>636</ele>
        <time>2016-12-08T02:03:09Z</time>
      </trkpt>
      <trkpt lat="46.15048" lon="1.83746">
        <ele>637</ele>
        <time>2016-12-08T02:05:09Z</time>
      </trkpt>
      <trkpt lat="46.15042" lon="1.83746">
        <ele>638</ele>
        <time>2016-12-08T02:07:09Z</time>
      </trkpt>
      <trkpt lat="46.1504" lon="1.83746">
        <ele>638</ele>
        <time>2016-12-08T02:09:09Z</time>
      </trkpt>
      <trkpt lat="46.15032" lon="1.83746">
        <ele>639</ele>
        <time>2016-12-08T02:11:09Z</time>
      </trkpt>
      <trkpt lat="46.15027" lon="1.83744">
        <ele>639</ele>
        <time>2016-12-08T02:13:09Z</time>
      </trkpt>
      <trkpt lat="46.15018" lon="1.83743">
        <ele>640</ele>
        <time>2016-12-08T02:15:09Z</time>
      </trkpt>
      <trkpt lat="46.15009" lon="1.83742">
        <ele>641</ele>
        <time>2016-12-08T02:17:09Z</time>
      </trkpt>
      <trkpt lat="46.14993" lon="1.83737">
        <ele>642</ele>
        <time>2016-12-08T02:19:09Z</time>
      </trkpt>
      <trkpt lat="46.14979" lon="1.83735">
        <ele>642</ele>
        <time>2016-12-08T02:21:09Z</time>
      </trkpt>
      <trkpt lat="46.14974" lon="1.83734">
        <ele>642</ele>
        <time>2016-12-08T02:23:09Z</time>
      </trkpt>
      <trkpt lat="46.14972" lon="1.83733">
        <ele>642</ele>
        <time>2016-12-08T02:25:09Z</time>
      </trkpt>
      <trkpt lat="46.14964" lon="1.83732">
        <ele>642</ele>
        <time>2016-12-08T02:27:09Z</time>
      </trkpt>
      <trkpt lat="46.14957" lon="1.83732">
        <ele>642</ele>
        <time>2016-12-08T02:29:09Z</time>
      </trkpt>
      <trkpt lat="46.14952" lon="1.83731">
        <ele>643</ele>
        <time>2016-12-08T02:31:09Z</time>
      </trkpt>
      <trkpt lat="46.14944" lon="1.83731">
        <ele>643</ele>
        <time>2016-12-08T02:33:09Z</time>
      </trkpt>
      <trkpt lat="46.14939" lon="1.8373">
        <ele>643</ele>
        <time>2016-12-08T02:35:09Z</time>
      </trkpt>
      <trkpt lat="46.14936" lon="1.8373">
        <ele>643</ele>
        <time>2016-12-08T02:37:09Z</time>
      </trkpt>
      <trkpt lat="46.14934" lon="1.83731">
        <ele>643</ele>
        <time>2016-12-08T02:39:09Z</time>
      </trkpt>
      <trkpt lat="46.14931" lon="1.83731">
        <ele>643</ele>
        <time>2016-12-08T02:41:09Z</time>
      </trkpt>
      <trkpt lat="46.14927" lon="1.83729">
        <ele>643</ele>
        <time>2016-12-08T02:43:09Z</time>
      </trkpt>
      <trkpt lat="46.14925" lon="1.83729">
        <ele>643</ele>
        <time>2016-12-08T02:45:09Z</time>
      </trkpt>
      <trkpt lat="46.14914" lon="1.83728">
        <ele>644</ele>
        <time>2016-12-08T02:47:09Z</time>
      </trkpt>
      <trkpt lat="46.1491" lon="1.83729">
        <ele>644</ele>
        <time>2016-12-08T02:49:09Z</time>
      </trkpt>
      <trkpt lat="46.14904" lon="1.83728">
        <ele>644</ele>
        <time>2016-12-08T02:51:09Z</time>
      </trkpt>
      <trkpt lat="46.14901" lon="1.83729">
        <ele>644</ele>
        <time>2016-12-08T02:53:09Z</time>
      </trkpt>
      <trkpt lat="46.14897" lon="1.83728">
        <ele>645</ele>
        <time>2016-12-08T02:55:09Z</time>
      </trkpt>
      <trkpt lat="46.14892" lon="1.83727">
        <ele>645</ele>
        <time>2016-12-08T02:57:09Z</time>
      </trkpt>
      <trkpt lat="46.14884" lon="1.83725">
        <ele>645</ele>
        <time>2016-12-08T02:59:09Z</time>
      </trkpt>
      <trkpt lat="46.14872" lon="1.83725">
        <ele>646</ele>
        <time>2016-12-08T03:01:09Z</time>
      </trkpt>
      <trkpt lat="46.14858" lon="1.83723">
        <ele>647</ele>
        <time>2016-12-08T03:03:09Z</time>
      </trkpt>
      <trkpt lat="46.14855" lon="1.83724">
        <ele>647</ele>
        <time>2016-12-08T03:05:09Z</time>
      </trkpt>
      <trkpt lat="46.14853" lon="1.83724">
        <ele>648</ele>
        <time>2016-12-08T03:07:09Z</time>
      </trkpt>
      <trkpt lat="46.1485" lon="1.83723">
        <ele>648</ele>
        <time>2016-12-08T03:09:09Z</time>
      </trkpt>
      <trkpt lat="46.14848" lon="1.83719">
        <ele>648</ele>
        <time>2016-12-08T03:11:09Z</time>
      </trkpt>
      <trkpt lat="46.14849" lon="1.83715">
        <ele>649</ele>
        <time>2016-12-08T03:13:09Z</time>
      </trkpt>
      <trkpt lat="46.14849" lon="1.8371">
        <ele>649</ele>
        <time>2016-12-08T03:15:09Z</time>
      </trkpt>
      <trkpt lat="46.14853" lon="1.83705">
        <ele>649</ele>
        <time>2016-12-08T03:17:09Z</time>
      </trkpt>
      <trkpt lat="46.14855" lon="1.83702">
        <ele>649</ele>
        <time>2016-12-08T03:19:09Z</time>
      </trkpt>
      <trkpt lat="46.14857" lon="1.83697">
        <ele>649</ele>
        <time>2016-12-08T03:21:09Z</time>
      </trkpt>
      <trkpt lat="46.14865" lon="1.83681">
        <ele>649</ele>
        <time>2016-12-08T03:23:09Z</time>
      </trkpt>
      <trkpt lat="46.14869" lon="1.83674">
        <ele>649</ele>
        <time>2016-12-08T03:25:09Z</time>
      </trkpt>
      <trkpt lat="46.1487" lon="1.8367">
        <ele>649</ele>
        <time>2016-12-08T03:27:09Z</time>
      </trkpt>
      <trkpt lat="46.14874" lon="1.83662">
        <ele>649</ele>
        <time>2016-12-08T03:29:09Z</time>
      </trkpt>
      <trkpt lat="46.14879" lon="1.8365">
        <ele>648</ele>
        <time>2016-12-08T03:31:09Z</time>
      </trkpt>
      <trkpt lat="46.14882" lon="1.83644">
        <ele>648</ele>
        <time>2016-12-08T03:33:09Z</time>
      </trkpt>
      <trkpt lat="46.14885" lon="1.8364">
        <ele>647</ele>
        <time>2016-12-08T03:35:09Z</time>
      </trkpt>
      <trkpt lat="46.14889" lon="1.83631">
        <ele>647</ele>
        <time>2016-12-08T03:37:09Z</time>
      </trkpt>
      <trkpt lat="46.14891" lon="1.83628">
        <ele>646</ele>
        <time>2016-12-08T03:39:09Z</time>
      </trkpt>
      <trkpt lat="46.14892" lon="1.83624">
        <ele>646</ele>
        <time>2016-12-08T03:41:09Z</time>
      </trkpt>
      <trkpt lat="46.14894" lon="1.8362">
        <ele>646</ele>
        <time>2016-12-08T03:43:09Z</time>
      </trkpt>
      <trkpt lat="46.14895" lon="1.83616">
        <ele>646</ele>
        <time>2016-12-08T03:45:09Z</time>
      </trkpt>
      <trkpt lat="46.14896" lon="1.83613">
        <ele>646</ele>
        <time>2016-12-08T03:47:09Z</time>
      </trkpt>
      <trkpt lat="46.14898" lon="1.83607">
        <ele>645</ele>
        <time>2016-12-08T03:49:09Z</time>
      </trkpt>
      <trkpt lat="46.14901" lon="1.83599">
        <ele>645</ele>
        <time>2016-12-08T03:51:09Z</time>
      </trkpt>
      <trkpt lat="46.14902" lon="1.83594">
        <ele>645</ele>
        <time>2016-12-08T03:53:09Z</time>
      </trkpt>
      <trkpt lat="46.14903" lon="1.83591">
        <ele>644</ele>
        <time>2016-12-08T03:55:09Z</time>
      </trkpt>
      <trkpt lat="46.14904" lon="1.83584">
        <ele>644</ele>
        <time>2016-12-08T03:57:09Z</time>
      </trkpt>
      <trkpt lat="46.14905" lon="1.83578">
        <ele>644</ele>
        <time>2016-12-08T03:59:09Z</time>
      </trkpt>
      <trkpt lat="46.14905" lon="1.83574">
        <ele>644</ele>
        <time>2016-12-08T04:01:09Z</time>
      </trkpt>
      <trkpt lat="46.14906" lon="1.83568">
        <ele>644</ele>
        <time>2016-12-08T04:03:09Z</time>
      </trkpt>
      <trkpt lat="46.14907" lon="1.83565">
        <ele>644</ele>
        <time>2016-12-08T04:05:09Z</time>
      </trkpt>
      <trkpt lat="46.14909" lon="1.83554">
        <ele>644</ele>
        <time>2016-12-08T04:07:09Z</time>
      </trkpt>
      <trkpt lat="46.1491" lon="1.83549">
        <ele>643</ele>
        <time>2016-12-08T04:09:09Z</time>
      </trkpt>
      <trkpt lat="46.14912" lon="1.8353">
        <ele>643</ele>
        <time>2016-12-08T04:11:09Z</time>
      </trkpt>
      <trkpt lat="46.14912" lon="1.83522">
        <ele>643</ele>
        <time>2016-12-08T04:13:09Z</time>
      </trkpt>
      <trkpt lat="46.14911" lon="1.83513">
        <ele>643</ele>
        <time>2016-12-08T04:15:09Z</time>
      </trkpt>
      <trkpt lat="46.14909" lon="1.83506">
        <ele>644</ele>
        <time>2016-12-08T04:17:09Z</time>
      </trkpt>
      <trkpt lat="46.14906" lon="1.83501">
        <ele>644</ele>
        <time>2016-12-08T04:19:09Z</time>
      </trkpt>
      <trkpt lat="46.14903" lon="1.83491">
        <ele>644</ele>
        <time>2016-12-08T04:21:09Z</time>
      </trkpt>
      <trkpt lat="46.14897" lon="1.83474">
        <ele>643</ele>
        <time>2016-12-08T04:23:09Z</time>
      </trkpt>
      <trkpt lat="46.14895" lon="1.83467">
        <ele>643</ele>
        <time>2016-12-08T04:25:09Z</time>
      </trkpt>
      <trkpt lat="46.1489" lon="1.83452">
        <ele>643</ele>
        <time>2016-12-08T04:27:09Z</time>
      </trkpt>
      <trkpt lat="46.14889" lon="1.83449">
        <ele>642</ele>
        <time>2016-12-08T04:29:09Z</time>
      </trkpt>
      <trkpt lat="46.14887" lon="1.83442">
        <ele>642</ele>
        <time>2016-12-08T04:31:09Z</time>
      </trkpt>
      <trkpt lat="46.14885" lon="1.83438">
        <ele>642</ele>
        <time>2016-12-08T04:33:09Z</time>
      </trkpt>
      <trkpt lat="46.14884" lon="1.83435">
        <ele>642</ele>
        <time>2016-12-08T04:35:09Z</time>
      </trkpt>
      <trkpt lat="46.14882" lon="1.83432">
        <ele>642</ele>
        <time>2016-12-08T04:37:09Z</time>
      </trkpt>
      <trkpt lat="46.14881" lon="1.83429">
        <ele>642</ele>
        <time>2016-12-08T04:39:09Z</time>
      </trkpt>
      <trkpt lat="46.14879" lon="1.83425">
        <ele>641</ele>
        <time>2016-12-08T04:41:09Z</time>
      </trkpt>
      <trkpt lat="46.14879" lon="1.83426">
        <ele>641</ele>
        <time>2016-12-08T04:43:09Z</time>
      </trkpt>
      <trkpt lat="46.14879" lon="1.83425">
        <ele>641</ele>
        <time>2016-12-08T04:45:09Z</time>
      </trkpt>
      <trkpt lat="46.14879" lon="1.83427">
        <ele>642</ele>
        <time>2016-12-08T04:47:09Z</time>
      </trkpt>
      <trkpt lat="46.14879" lon="1.83429">
        <ele>642</ele>
        <time>2016-12-08T04:49:09Z</time>
      </trkpt>
      <trkpt lat="46.1488" lon="1.8343">
        <ele>642</ele>
        <time>2016-12-08T04:51:09Z</time>
      </trkpt>
      <trkpt lat="46.14881" lon="1.83433">
        <ele>642</ele>
        <time>2016-12-08T04:53:09Z</time>
      </trkpt>
      <trkpt lat="46.14881" lon="1.83434">
        <ele>642</ele>
        <time>2016-12-08T04:55:09Z</time>
      </trkpt>
      <trkpt lat="46.14882" lon="1.83435">
        <ele>642</ele>
        <time>2016-12-08T04:57:09Z</time>
      </trkpt>
      <trkpt lat="46.14881" lon="1.83435">
        <ele>642</ele>
        <time>2016-12-08T04:59:09Z</time>
      </trkpt>
      <trkpt lat="46.14881" lon="1.83435">
        <ele>642</ele>
        <time>2016-12-08T05:01:09Z</time>
      </trkpt>
      <trkpt lat="46.14882" lon="1.83435">
        <ele>642</ele>
        <time>2016-12-08T05:03:09Z</time>
      </trkpt>
      <trkpt lat="46.14882" lon="1.83422">
        <ele>641</ele>
        <time>2016-12-08T05:05:09Z</time>
      </trkpt>
      <trkpt lat="46.1488" lon="1.83419">
        <ele>641</ele>
        <time>2016-12-08T05:07:09Z</time>
      </trkpt>
      <trkpt lat="46.14879" lon="1.83416">
        <ele>641</ele>
        <time>2016-12-08T05:09:09Z</time>
      </trkpt>
      <trkpt lat="46.14877" lon="1.83409">
        <ele>640</ele>
        <time>2016-12-08T05:11:09Z</time>
      </trkpt>
      <trkpt lat="46.14875" lon="1.83402">
        <ele>640</ele>
        <time>2016-12-08T05:13:09Z</time>
      </trkpt>
      <trkpt lat="46.14872" lon="1.83397">
        <ele>640</ele>
        <time>2016-12-08T05:15:09Z</time>
      </trkpt>
      <trkpt lat="46.14869" lon="1.83392">
        <ele>640</ele>
        <time>2016-12-08T05:17:09Z</time>
      </trkpt>
      <trkpt lat="46.14865" lon="1.83385">
        <ele>640</ele>
        <time>2016-12-08T05:19:09Z</time>
      </trkpt>
      <trkpt lat="46.14864" lon="1.8338">
        <ele>640</ele>
        <time>2016-12-08T05:21:09Z</time>
      </trkpt>
      <trkpt lat="46.14862" lon="1.83376">
        <ele>639</ele>
        <time>2016-12-08T05:23:09Z</time>
      </trkpt>
      <trkpt lat="46.14861" lon="1.83374">
        <ele>639</ele>
        <time>2016-12-08T05:25:09Z</time>
      </trkpt>
      <trkpt lat="46.14859" lon="1.8337">
        <ele>639</ele>
        <time>2016-12-08T05:27:09Z</time>
      </trkpt>
      <trkpt lat="46.14857" lon="1.83364">
        <ele>639</ele>
        <time>2016-12-08T05:29:09Z</time>
      </trkpt>
      <trkpt lat="46.14855" lon="1.83359">
        <ele>639</ele>
        <time>2016-12-08T05:31:09Z</time>
      </trkpt>
      <trkpt lat="46.14851" lon="1.83349">
        <ele>639</ele>
        <time>2016-12-08T05:33:09Z</time>
      </trkpt>
      <trkpt lat="46.14849" lon="1.83342">
        <ele>639</ele>
        <time>2016-12-08T05:35:09Z</time>
      </trkpt>
      <trkpt lat="46.14848" lon="1.8334">
        <ele>639</ele>
        <time>2016-12-08T05:37:09Z</time>
      </trkpt>
      <trkpt lat="46.14845" lon="1.83333">
        <ele>639</ele>
        <time>2016-12-08T05:39:09Z</time>
      </trkpt>
      <trkpt lat="46.14843" lon="1.83329">
        <ele>639</ele>
        <time>2016-12-08T05:41:09Z</time>
      </trkpt>
      <trkpt lat="46.14843" lon="1.83327">
        <ele>639</ele>
        <time>2016-12-08T05:43:09Z</time>
      </trkpt>
      <trkpt lat="46.14841" lon="1.83319">
        <ele>639</ele>
        <time>2016-12-08T05:45:09Z</time>
      </trkpt>
      <trkpt lat="46.14841" lon="1.83315">
        <ele>639</ele>
        <time>2016-12-08T05:47:09Z</time>
      </trkpt>
      <trkpt lat="46.14839" lon="1.83305">
        <ele>638</ele>
        <time>2016-12-08T05:49:09Z</time>
      </trkpt>
      <trkpt lat="46.14838" lon="1.83301">
        <ele>638</ele>
        <time>2016-12-08T05:51:09Z</time>
      </trkpt>
      <trkpt lat="46.14839" lon="1.83297">
        <ele>638</ele>
        <time>2016-12-08T05:53:09Z</time>
      </trkpt>
      <trkpt lat="46.1484" lon="1.83288">
        <ele>638</ele>
        <time>2016-12-08T05:55:09Z</time>
      </trkpt>
      <trkpt lat="46.14842" lon="1.83283">
        <ele>637</ele>
        <time>2016-12-08T05:57:09Z</time>
      </trkpt>
      <trkpt lat="46.14843" lon="1.83275">
        <ele>637</ele>
        <time>2016-12-08T05:59:09Z</time>
      </trkpt>
      <trkpt lat="46.14844" lon="1.83271">
        <ele>637</ele>
        <time>2016-12-08T06:01:09Z</time>
      </trkpt>
      <trkpt lat="46.14844" lon="1.83261">
        <ele>636</ele>
        <time>2016-12-08T06:03:09Z</time>
      </trkpt>
      <trkpt lat="46.14847" lon="1.83247">
        <ele>636</ele>
        <time>2016-12-08T06:05:09Z</time>
      </trkpt>
      <trkpt lat="46.14848" lon="1.83242">
        <ele>635</ele>
        <time>2016-12-08T06:07:09Z</time>
      </trkpt>
      <trkpt lat="46.14848" lon="1.83237">
        <ele>635</ele>
        <time>2016-12-08T06:09:09Z</time>
      </trkpt>
      <trkpt lat="46.14847" lon="1.83233">
        <ele>635</ele>
        <time>2016-12-08T06:11:09Z</time>
      </trkpt>
      <trkpt lat="46.14848" lon="1.83228">
        <ele>635</ele>
        <time>2016-12-08T06:13:09Z</time>
      </trkpt>
      <trkpt lat="46.14847" lon="1.83224">
        <ele>635</ele>
        <time>2016-12-08T06:15:09Z</time>
      </trkpt>
      <trkpt lat="46.14843" lon="1.83211">
        <ele>634</ele>
        <time>2016-12-08T06:17:09Z</time>
      </trkpt>
      <trkpt lat="46.14842" lon="1.83202">
        <ele>634</ele>
        <time>2016-12-08T06:19:09Z</time>
      </trkpt>
      <trkpt lat="46.14841" lon="1.83189">
        <ele>633</ele>
        <time>2016-12-08T06:21:09Z</time>
      </trkpt>
      <trkpt lat="46.1484" lon="1.83185">
        <ele>633</ele>
        <time>2016-12-08T06:23:09Z</time>
      </trkpt>
      <trkpt lat="46.14839" lon="1.83181">
        <ele>633</ele>
        <time>2016-12-08T06:25:09Z</time>
      </trkpt>
      <trkpt lat="46.14833" lon="1.83172">
        <ele>633</ele>
        <time>2016-12-08T06:27:09Z</time>
      </trkpt>
      <trkpt lat="46.14827" lon="1.83163">
        <ele>633</ele>
        <time>2016-12-08T06:29:09Z</time>
      </trkpt>
      <trkpt lat="46.14825" lon="1.83159">
        <ele>633</ele>
        <time>2016-12-08T06:31:09Z</time>
      </trkpt>
      <trkpt lat="46.14823" lon="1.83157">
        <ele>633</ele>
        <time>2016-12-08T06:33:09Z</time>
      </trkpt>
      <trkpt lat="46.14814" lon="1.83145">
        <ele>632</ele>
        <time>2016-12-08T06:35:09Z</time>
      </trkpt>
      <trkpt lat="46.14804" lon="1.83131">
        <ele>631</ele>
        <time>2016-12-08T06:37:09Z</time>
      </trkpt>
      <trkpt lat="46.14797" lon="1.83119">
        <ele>630</ele>
        <time>2016-12-08T06:39:09Z</time>
      </trkpt>
      <trkpt lat="46.14792" lon="1.83113">
        <ele>630</ele>
        <time>2016-12-08T06:41:09Z</time>
      </trkpt>
      <trkpt lat="46.14788" lon="1.83108">
        <ele>630</ele>
        <time>2016-12-08T06:43:09Z</time>
      </trkpt>
      <trkpt lat="46.14787" lon="1.83105">
        <ele>629</ele>
        <time>2016-12-08T06:45:09Z</time>
      </trkpt>
      <trkpt lat="46.14784" lon="1.83103">
        <ele>629</ele>
        <time>2016-12-08T06:47:09Z</time>
      </trkpt>
      <trkpt lat="46.14777" lon="1.83098">
        <ele>629</ele>
        <time>2016-12-08T06:49:09Z</time>
      </trkpt>
      <trkpt lat="46.14771" lon="1.83091">
        <ele>628</ele>
        <time>2016-12-08T06:51:09Z</time>
      </trkpt>
      <trkpt lat="46.14768" lon="1.83089">
        <ele>628</ele>
        <time>2016-12-08T06:53:09Z</time>
      </trkpt>
      <trkpt lat="46.14766" lon="1.83087">
        <ele>628</ele>
        <time>2016-12-08T06:55:09Z</time>
      </trkpt>
      <trkpt lat="46.14762" lon="1.83083">
        <ele>627</ele>
        <time>2016-12-08T06:57:09Z</time>
      </trkpt>
      <trkpt lat="46.1476" lon="1.83081">
        <ele>627</ele>
        <time>2016-12-08T06:59:09Z</time>
      </trkpt>
      <trkpt lat="46.14755" lon="1.83073">
        <ele>626</ele>
        <time>2016-12-08T07:01:09Z</time>
      </trkpt>
      <trkpt lat="46.1475" lon="1.83066">
        <ele>626</ele>
        <time>2016-12-08T07:03:09Z</time>
      </trkpt>
      <trkpt lat="46.14744" lon="1.83059">
        <ele>625</ele>
        <time>2016-12-08T07:05:09Z</time>
      </trkpt>
      <trkpt lat="46.14741" lon="1.83053">
        <ele>625</ele>
        <time>2016-12-08T07:07:09Z</time>
      </trkpt>
      <trkpt lat="46.1474" lon="1.8305">
        <ele>624</ele>
        <time>2016-12-08T07:09:09Z</time>
      </trkpt>
      <trkpt lat="46.14737" lon="1.83044">
        <ele>624</ele>
        <time>2016-12-08T07:11:09Z</time>
      </trkpt>
      <trkpt lat="46.14731" lon="1.83033">
        <ele>622</ele>
        <time>2016-12-08T07:13:09Z</time>
      </trkpt>
      <trkpt lat="46.14727" lon="1.83029">
        <ele>622</ele>
        <time>2016-12-08T07:15:09Z</time>
      </trkpt>
      <trkpt lat="46.14724" lon="1.83024">
        <ele>621</ele>
        <time>2016-12-08T07:17:09Z</time>
      </trkpt>
      <trkpt lat="46.14723" lon="1.83023">
        <ele>621</ele>
        <time>2016-12-08T07:19:09Z</time>
      </trkpt>
      <trkpt lat="46.14717" lon="1.83017">
        <ele>620</ele>
        <time>2016-12-08T07:21:09Z</time>
      </trkpt>
      <trkpt lat="46.14715" lon="1.83014">
        <ele>619</ele>
        <time>2016-12-08T07:23:09Z</time>
      </trkpt>
      <trkpt lat="46.14711" lon="1.83005">
        <ele>618</ele>
        <time>2016-12-08T07:25:09Z</time>
      </trkpt>
      <trkpt lat="46.14708" lon="1.82999">
        <ele>617</ele>
        <time>2016-12-08T07:27:09Z</time>
      </trkpt>
      <trkpt lat="46.14704" lon="1.82994">
        <ele>617</ele>
        <time>2016-12-08T07:29:09Z</time>
      </trkpt>
      <trkpt lat="46.147" lon="1.82989">
        <ele>616</ele>
        <time>2016-12-08T07:31:09Z</time>
      </trkpt>
      <trkpt lat="46.14697" lon="1.82981">
        <ele>614</ele>
        <time>2016-12-08T07:33:09Z</time>
      </trkpt>
      <trkpt lat="46.14695" lon="1.82976">
        <ele>614</ele>
        <time>2016-12-08T07:35:09Z</time>
      </trkpt>
      <trkpt lat="46.14693" lon="1.82974">
        <ele>613</ele>
        <time>2016-12-08T07:37:09Z</time>
      </trkpt>
      <trkpt lat="46.14691" lon="1.82972">
        <ele>613</ele>
        <time>2016-12-08T07:39:09Z</time>
      </trkpt>
      <trkpt lat="46.14688" lon="1.82968">
        <ele>612</ele>
        <time>2016-12-08T07:41:09Z</time>
      </trkpt>
      <trkpt lat="46.14685" lon="1.82966">
        <ele>611</ele>
        <time>2016-12-08T07:43:09Z</time>
      </trkpt>
      <trkpt lat="46.1468" lon="1.82959">
        <ele>610</ele>
        <time>2016-12-08T07:45:09Z</time>
      </trkpt>
      <trkpt lat="46.14676" lon="1.8295">
        <ele>608</ele>
        <time>2016-12-08T07:47:09Z</time>
      </trkpt>
      <trkpt lat="46.14674" lon="1.82948">
        <ele>608</ele>
        <time>2016-12-08T07:49:09Z</time>
      </trkpt>
      <trkpt lat="46.14672" lon="1.8295">
        <ele>608</ele>
        <time>2016-12-08T07:51:09Z</time>
      </trkpt>
      <trkpt lat="46.14666" lon="1.82957">
        <ele>608</ele>
        <time>2016-12-08T07:53:09Z</time>
      </trkpt>
      <trkpt lat="46.14661" lon="1.82959">
        <ele>607</ele>
        <time>2016-12-08T07:55:09Z</time>
      </trkpt>
      <trkpt lat="46.1466" lon="1.82961">
        <ele>607</ele>
        <time>2016-12-08T07:57:09Z</time>
      </trkpt>
      <trkpt lat="46.14657" lon="1.82964">
        <ele>607</ele>
        <time>2016-12-08T07:59:09Z</time>
      </trkpt>
      <trkpt lat="46.1465" lon="1.82969">
        <ele>606</ele>
        <time>2016-12-08T08:01:09Z</time>
      </trkpt>
      <trkpt lat="46.14638" lon="1.82983">
        <ele>606</ele>
        <time>2016-12-08T08:03:09Z</time>
      </trkpt>
      <trkpt lat="46.14628" lon="1.82988">
        <ele>605</ele>
        <time>2016-12-08T08:05:09Z</time>
      </trkpt>
      <trkpt lat="46.14625" lon="1.8299">
        <ele>605</ele>
        <time>2016-12-08T08:07:09Z</time>
      </trkpt>
      <trkpt lat="46.1462" lon="1.82993">
        <ele>604</ele>
        <time>2016-12-08T08:09:09Z</time>
      </trkpt>
      <trkpt lat="46.14616" lon="1.82994">
        <ele>604</ele>
        <time>2016-12-08T08:11:09Z</time>
      </trkpt>
      <trkpt lat="46.14614" lon="1.82995">
        <ele>603</ele>
        <time>2016-12-08T08:13:09Z</time>
      </trkpt>
      <trkpt lat="46.14614" lon="1.82998">
        <ele>604</ele>
        <time>2016-12-08T08:15:09Z</time>
      </trkpt>
      <trkpt lat="46.14613" lon="1.83004">
        <ele>605</ele>
        <time>2016-12-08T08:17:09Z</time>
      </trkpt>
      <trkpt lat="46.14613" lon="1.83007">
        <ele>605</ele>
        <time>2016-12-08T08:19:09Z</time>
      </trkpt>
      <trkpt lat="46.14611" lon="1.83009">
        <ele>605</ele>
        <time>2016-12-08T08:21:09Z</time>
      </trkpt>
      <trkpt lat="46.14609" lon="1.83011">
        <ele>605</ele>
        <time>2016-12-08T08:23:09Z</time>
      </trkpt>
      <trkpt lat="46.14606" lon="1.83013">
        <ele>605</ele>
        <time>2016-12-08T08:25:09Z</time>
      </trkpt>
      <trkpt lat="46.14598" lon="1.83017">
        <ele>605</ele>
        <time>2016-12-08T08:27:09Z</time>
      </trkpt>
      <trkpt lat="46.14595" lon="1.83019">
        <ele>605</ele>
        <time>2016-12-08T08:29:09Z</time>
      </trkpt>
      <trkpt lat="46.14592" lon="1.8302">
        <ele>604</ele>
        <time>2016-12-08T08:31:09Z</time>
      </trkpt>
      <trkpt lat="46.14587" lon="1.83024">
        <ele>604</ele>
        <time>2016-12-08T08:33:09Z</time>
      </trkpt>
      <trkpt lat="46.14584" lon="1.83026">
        <ele>604</ele>
        <time>2016-12-08T08:35:09Z</time>
      </trkpt>
      <trkpt lat="46.14575" lon="1.83031">
        <ele>604</ele>
        <time>2016-12-08T08:37:09Z</time>
      </trkpt>
      <trkpt lat="46.14568" lon="1.83036">
        <ele>604</ele>
        <time>2016-12-08T08:39:09Z</time>
      </trkpt>
      <trkpt lat="46.1456" lon="1.83043">
        <ele>604</ele>
        <time>2016-12-08T08:41:09Z</time>
      </trkpt>
      <trkpt lat="46.1455" lon="1.8305">
        <ele>603</ele>
        <time>2016-12-08T08:43:09Z</time>
      </trkpt>
      <trkpt lat="46.14545" lon="1.83053">
        <ele>603</ele>
        <time>2016-12-08T08:45:09Z</time>
      </trkpt>
      <trkpt lat="46.14536" lon="1.83056">
        <ele>602</ele>
        <time>2016-12-08T08:47:09Z</time>
      </trkpt>
      <trkpt lat="46.14528" lon="1.83057">
        <ele>601</ele>
        <time>2016-12-08T08:49:09Z</time>
      </trkpt>
      <trkpt lat="46.14524" lon="1.83059">
        <ele>601</ele>
        <time>2016-12-08T08:51:09Z</time>
      </trkpt>
      <trkpt lat="46.14519" lon="1.83061">
        <ele>601</ele>
        <time>2016-12-08T08:53:09Z</time>
      </trkpt>
      <trkpt lat="46.14516" lon="1.83063">
        <ele>601</ele>
        <time>2016-12-08T08:55:09Z</time>
      </trkpt>
      <trkpt lat="46.14512" lon="1.83069">
        <ele>601</ele>
        <time>2016-12-08T08:57:09Z</time>
      </trkpt>
      <trkpt lat="46.14508" lon="1.83076">
        <ele>602</ele>
        <time>2016-12-08T08:59:09Z</time>
      </trkpt>
      <trkpt lat="46.14504" lon="1.83081">
        <ele>603</ele>
        <time>2016-12-08T09:01:09Z</time>
      </trkpt>
      <trkpt lat="46.14503" lon="1.83083">
        <ele>603</ele>
        <time>2016-12-08T09:03:09Z</time>
      </trkpt>
      <trkpt lat="46.14501" lon="1.83085">
        <ele>603</ele>
        <time>2016-12-08T09:05:09Z</time>
      </trkpt>
      <trkpt lat="46.14494" lon="1.83096">
        <ele>603</ele>
        <time>2016-12-08T09:07:09Z</time>
      </trkpt>
      <trkpt lat="46.14489" lon="1.83102">
        <ele>603</ele>
        <time>2016-12-08T09:09:09Z</time>
      </trkpt>
      <trkpt lat="46.14485" lon="1.83109">
        <ele>603</ele>
        <time>2016-12-08T09:11:09Z</time>
      </trkpt>
      <trkpt lat="46.14482" lon="1.83114">
        <ele>603</ele>
        <time>2016-12-08T09:13:09Z</time>
      </trkpt>
      <trkpt lat="46.14479" lon="1.83116">
        <ele>603</ele>
        <time>2016-12-08T09:15:09Z</time>
      </trkpt>
      <trkpt lat="46.14472" lon="1.83122">
        <ele>602</ele>
        <time>2016-12-08T09:17:09Z</time>
      </trkpt>
      <trkpt lat="46.14469" lon="1.83124">
        <ele>601</ele>
        <time>2016-12-08T09:19:09Z</time>
      </trkpt>
      <trkpt lat="46.14467" lon="1.83126">
        <ele>601</ele>
        <time>2016-12-08T09:21:09Z</time>
      </trkpt>
      <trkpt lat="46.14462" lon="1.83132">
        <ele>601</ele>
        <time>2016-12-08T09:23:09Z</time>
      </trkpt>
      <trkpt lat="46.1446" lon="1.83135">
        <ele>601</ele>
        <time>2016-12-08T09:25:09Z</time>
      </trkpt>
      <trkpt lat="46.14456" lon="1.83141">
        <ele>601</ele>
        <time>2016-12-08T09:27:09Z</time>
      </trkpt>
      <trkpt lat="46.14452" lon="1.83147">
        <ele>600</ele>
        <time>2016-12-08T09:29:09Z</time>
      </trkpt>
      <trkpt lat="46.14447" lon="1.83152">
        <ele>600</ele>
        <time>2016-12-08T09:31:09Z</time>
      </trkpt>
      <trkpt lat="46.14444" lon="1.83154">
        <ele>599</ele>
        <time>2016-12-08T09:33:09Z</time>
      </trkpt>
      <trkpt lat="46.14441" lon="1.8316">
        <ele>599</ele>
        <time>2016-12-08T09:35:09Z</time>
      </trkpt>
      <trkpt lat="46.14439" lon="1.83161">
        <ele>599</ele>
        <time>2016-12-08T09:37:09Z</time>
      </trkpt>
      <trkpt lat="46.14437" lon="1.83163">
        <ele>599</ele>
        <time>2016-12-08T09:39:09Z</time>
      </trkpt>
      <trkpt lat="46.14436" lon="1.83166">
        <ele>599</ele>
        <time>2016-12-08T09:41:09Z</time>
      </trkpt>
      <trkpt lat="46.14434" lon="1.83169">
        <ele>599</ele>
        <time>2016-12-08T09:43:09Z</time>
      </trkpt>
      <trkpt lat="46.14429" lon="1.83175">
        <ele>598</ele>
        <time>2016-12-08T09:45:09Z</time>
      </trkpt>
      <trkpt lat="46.14427" lon="1.83178">
        <ele>598</ele>
        <time>2016-12-08T09:47:09Z</time>
      </trkpt>
      <trkpt lat="46.14425" lon="1.83181">
        <ele>598</ele>
        <time>2016-12-08T09:49:09Z</time>
      </trkpt>
      <trkpt lat="46.14417" lon="1.83194">
        <ele>597</ele>
        <time>2016-12-08T09:51:09Z</time>
      </trkpt>
      <trkpt lat="46.14414" lon="1.83198">
        <ele>597</ele>
        <time>2016-12-08T09:53:09Z</time>
      </trkpt>
      <trkpt lat="46.14412" lon="1.83201">
        <ele>597</ele>
        <time>2016-12-08T09:55:09Z</time>
      </trkpt>
      <trkpt lat="46.14411" lon="1.83204">
        <ele>597</ele>
        <time>2016-12-08T09:57:09Z</time>
      </trkpt>
      <trkpt lat="46.14409" lon="1.83206">
        <ele>597</ele>
        <time>2016-12-08T09:59:09Z</time>
      </trkpt>
      <trkpt lat="46.14405" lon="1.83212">
        <ele>596</ele>
        <time>2016-12-08T10:01:09Z</time>
      </trkpt>
      <trkpt lat="46.14403" lon="1.83215">
        <ele>596</ele>
        <time>2016-12-08T10:03:09Z</time>
      </trkpt>
      <trkpt lat="46.14401" lon="1.83224">
        <ele>597</ele>
        <time>2016-12-08T10:05:09Z</time>
      </trkpt>
      <trkpt lat="46.14401" lon="1.83228">
        <ele>597</ele>
        <time>2016-12-08T10:07:09Z</time>
      </trkpt>
      <trkpt lat="46.14401" lon="1.83232">
        <ele>598</ele>
        <time>2016-12-08T10:09:09Z</time>
      </trkpt>
      <trkpt lat="46.144" lon="1.83235">
        <ele>598</ele>
        <time>2016-12-08T10:11:09Z</time>
      </trkpt>
      <trkpt lat="46.144" lon="1.83238">
        <ele>598</ele>
        <time>2016-12-08T10:13:09Z</time>
      </trkpt>
      <trkpt lat="46.14399" lon="1.83247">
        <ele>599</ele>
        <time>2016-12-08T10:15:09Z</time>
      </trkpt>
      <trkpt lat="46.14399" lon="1.83253">
        <ele>599</ele>
        <time>2016-12-08T10:17:09Z</time>
      </trkpt>
      <trkpt lat="46.144" lon="1.83256">
        <ele>599</ele>
        <time>2016-12-08T10:19:09Z</time>
      </trkpt>
      <trkpt lat="46.14399" lon="1.83261">
        <ele>599</ele>
        <time>2016-12-08T10:21:09Z</time>
      </trkpt>
      <trkpt lat="46.14398" lon="1.83268">
        <ele>599</ele>
        <time>2016-12-08T10:23:09Z</time>
      </trkpt>
      <trkpt lat="46.14396" lon="1.83287">
        <ele>599</ele>
        <time>2016-12-08T10:25:09Z</time>
      </trkpt>
      <trkpt lat="46.14393" lon="1.83305">
        <ele>599</ele>
        <time>2016-12-08T10:27:09Z</time>
      </trkpt>
      <trkpt lat="46.14391" lon="1.83313">
        <ele>599</ele>
        <time>2016-12-08T10:29:09Z</time>
      </trkpt>
      <trkpt lat="46.14389" lon="1.83325">
        <ele>599</ele>
        <time>2016-12-08T10:31:09Z</time>
      </trkpt>
      <trkpt lat="46.14387" lon="1.83334">
        <ele>599</ele>
        <time>2016-12-08T10:33:09Z</time>
      </trkpt>
      <trkpt lat="46.14383" lon="1.83346">
        <ele>598</ele>
        <time>2016-12-08T10:35:09Z</time>
      </trkpt>
      <trkpt lat="46.14382" lon="1.8335">
        <ele>598</ele>
        <time>2016-12-08T10:37:09Z</time>
      </trkpt>
      <trkpt lat="46.1438" lon="1.83358">
        <ele>598</ele>
        <time>2016-12-08T10:39:09Z</time>
      </trkpt>
      <trkpt lat="46.14374" lon="1.8337">
        <ele>597</ele>
        <time>2016-12-08T10:41:09Z</time>
      </trkpt>
      <trkpt lat="46.14373" lon="1.83374">
        <ele>597</ele>
        <time>2016-12-08T10:43:09Z</time>
      </trkpt>
      <trkpt lat="46.14371" lon="1.83377">
        <ele>597</ele>
        <time>2016-12-08T10:45:09Z</time>
      </trkpt>
      <trkpt lat="46.14369" lon="1.83378">
        <ele>597</ele>
        <time>2016-12-08T10:47:09Z</time>
      </trkpt>
      <trkpt lat="46.14367" lon="1.83376">
        <ele>596</ele>
        <time>2016-12-08T10:49:09Z</time>
      </trkpt>
      <trkpt lat="46.14357" lon="1.83348">
        <ele>593</ele>
        <time>2016-12-08T10:51:09Z</time>
      </trkpt>
      <trkpt lat="46.14356" lon="1.83344">
        <ele>593</ele>
        <time>2016-12-08T10:53:09Z</time>
      </trkpt>
      <trkpt lat="46.14354" lon="1.83337">
        <ele>592</ele>
        <time>2016-12-08T10:55:09Z</time>
      </trkpt>
      <trkpt lat="46.14353" lon="1.83334">
        <ele>592</ele>
        <time>2016-12-08T10:57:09Z</time>
      </trkpt>
      <trkpt lat="46.14352" lon="1.83326">
        <ele>591</ele>
        <time>2016-12-08T10:59:09Z</time>
      </trkpt>
      <trkpt lat="46.14351" lon="1.83322">
        <ele>591</ele>
        <time>2016-12-08T11:01:09Z</time>
      </trkpt>
      <trkpt lat="46.14346" lon="1.83307">
        <ele>589</ele>
        <time>2016-12-08T11:03:09Z</time>
      </trkpt>
      <trkpt lat="46.1434" lon="1.83289">
        <ele>587</ele>
        <time>2016-12-08T11:05:09Z</time>
      </trkpt>
      <trkpt lat="46.14337" lon="1.83278">
        <ele>586</ele>
        <time>2016-12-08T11:07:09Z</time>
      </trkpt>
      <trkpt lat="46.14334" lon="1.83265">
        <ele>585</ele>
        <time>2016-12-08T11:09:09Z</time>
      </trkpt>
      <trkpt lat="46.14333" lon="1.83261">
        <ele>584</ele>
        <time>2016-12-08T11:11:09Z</time>
      </trkpt>
      <trkpt lat="46.14331" lon="1.83258">
        <ele>584</ele>
        <time>2016-12-08T11:13:09Z</time>
      </trkpt>
      <trkpt lat="46.14328" lon="1.83254">
        <ele>583</ele>
        <time>2016-12-08T11:15:09Z</time>
      </trkpt>
      <trkpt lat="46.14326" lon="1.83249">
        <ele>582</ele>
        <time>2016-12-08T11:17:09Z</time>
      </trkpt>
      <trkpt lat="46.14326" lon="1.83244">
        <ele>582</ele>
        <time>2016-12-08T11:19:09Z</time>
      </trkpt>
      <trkpt lat="46.14327" lon="1.83235">
        <ele>581</ele>
        <time>2016-12-08T11:21:09Z</time>
      </trkpt>
      <trkpt lat="46.14328" lon="1.8323">
        <ele>581</ele>
        <time>2016-12-08T11:23:09Z</time>
      </trkpt>
      <trkpt lat="46.14329" lon="1.83226">
        <ele>581</ele>
        <time>2016-12-08T11:25:09Z</time>
      </trkpt>
      <trkpt lat="46.14336" lon="1.83206">
        <ele>580</ele>
        <time>2016-12-08T11:27:09Z</time>
      </trkpt>
      <trkpt lat="46.14338" lon="1.83199">
        <ele>580</ele>
        <time>2016-12-08T11:29:09Z</time>
      </trkpt>
      <trkpt lat="46.14342" lon="1.83188">
        <ele>580</ele>
        <time>2016-12-08T11:31:09Z</time>
      </trkpt>
      <trkpt lat="46.1435" lon="1.83172">
        <ele>580</ele>
        <time>2016-12-08T11:33:09Z</time>
      </trkpt>
      <trkpt lat="46.14352" lon="1.83165">
        <ele>580</ele>
        <time>2016-12-08T11:35:09Z</time>
      </trkpt>
      <trkpt lat="46.14356" lon="1.83158">
        <ele>580</ele>
        <time>2016-12-08T11:37:09Z</time>
      </trkpt>
      <trkpt lat="46.1436" lon="1.83148">
        <ele>580</ele>
        <time>2016-12-08T11:39:09Z</time>
      </trkpt>
      <trkpt lat="46.14365" lon="1.83138">
        <ele>579</ele>
        <time>2016-12-08T11:41:09Z</time>
      </trkpt>
      <trkpt lat="46.14367" lon="1.83135">
        <ele>579</ele>
        <time>2016-12-08T11:43:09Z</time>
      </trkpt>
      <trkpt lat="46.14372" lon="1.83126">
        <ele>579</ele>
        <time>2016-12-08T11:45:09Z</time>
      </trkpt>
      <trkpt lat="46.14373" lon="1.83124">
        <ele>579</ele>
        <time>2016-12-08T11:47:09Z</time>
      </trkpt>
      <trkpt lat="46.14371" lon="1.83121">
        <ele>578</ele>
        <time>2016-12-08T11:49:09Z</time>
      </trkpt>
      <trkpt lat="46.14369" lon="1.83121">
        <ele>578</ele>
        <time>2016-12-08T11:51:09Z</time>
      </trkpt>
      <trkpt lat="46.14363" lon="1.83125">
        <ele>577</ele>
        <time>2016-12-08T11:53:09Z</time>
      </trkpt>
      <trkpt lat="46.14349" lon="1.83138">
        <ele>576</ele>
        <time>2016-12-08T11:55:09Z</time>
      </trkpt>
      <trkpt lat="46.14345" lon="1.8314">
        <ele>576</ele>
        <time>2016-12-08T11:57:09Z</time>
      </trkpt>
      <trkpt lat="46.14343" lon="1.8314">
        <ele>575</ele>
        <time>2016-12-08T11:59:09Z</time>
      </trkpt>
      <trkpt lat="46.14341" lon="1.8314">
        <ele>575</ele>
        <time>2016-12-08T12:01:09Z</time>
      </trkpt>
      <trkpt lat="46.1433" lon="1.83143">
        <ele>573</ele>
        <time>2016-12-08T12:03:09Z</time>
      </trkpt>
      <trkpt lat="46.14322" lon="1.83144">
        <ele>572</ele>
        <time>2016-12-08T12:05:09Z</time>
      </trkpt>
      <trkpt lat="46.1432" lon="1.83144">
        <ele>571</ele>
        <time>2016-12-08T12:07:09Z</time>
      </trkpt>
      <trkpt lat="46.1431" lon="1.83149">
        <ele>570</ele>
        <time>2016-12-08T12:09:09Z</time>
      </trkpt>
      <trkpt lat="46.14304" lon="1.83151">
        <ele>569</ele>
        <time>2016-12-08T12:11:09Z</time>
      </trkpt>
      <trkpt lat="46.14298" lon="1.83151">
        <ele>568</ele>
        <time>2016-12-08T12:13:09Z</time>
      </trkpt>
      <trkpt lat="46.14295" lon="1.83152">
        <ele>568</ele>
        <time>2016-12-08T12:15:09Z</time>
      </trkpt>
      <trkpt lat="46.14291" lon="1.83153">
        <ele>567</ele>
        <time>2016-12-08T12:17:09Z</time>
      </trkpt>
      <trkpt lat="46.14288" lon="1.83155">
        <ele>567</ele>
        <time>2016-12-08T12:19:09Z</time>
      </trkpt>
      <trkpt lat="46.14283" lon="1.83159">
        <ele>566</ele>
        <time>2016-12-08T12:21:09Z</time>
      </trkpt>
      <trkpt lat="46.1428" lon="1.83162">
        <ele>566</ele>
        <time>2016-12-08T12:23:09Z</time>
      </trkpt>
      <trkpt lat="46.14276" lon="1.83168">
        <ele>566</ele>
        <time>2016-12-08T12:25:09Z</time>
      </trkpt>
      <trkpt lat="46.14265" lon="1.83187">
        <ele>565</ele>
        <time>2016-12-08T12:27:09Z</time>
      </trkpt>
      <trkpt lat="46.14264" lon="1.8319">
        <ele>566</ele>
        <time>2016-12-08T12:29:09Z</time>
      </trkpt>
      <trkpt lat="46.14262" lon="1.83194">
        <ele>566</ele>
        <time>2016-12-08T12:31:09Z</time>
      </trkpt>
      <trkpt lat="46.1426" lon="1.83197">
        <ele>565</ele>
        <time>2016-12-08T12:33:09Z</time>
      </trkpt>
      <trkpt lat="46.14258" lon="1.83199">
        <ele>565</ele>
        <time>2016-12-08T12:35:09Z</time>
      </trkpt>
      <trkpt lat="46.14257" lon="1.83202">
        <ele>565</ele>
        <time>2016-12-08T12:37:09Z</time>
      </trkpt>
      <trkpt lat="46.14244" lon="1.83224">
        <ele>565</ele>
        <time>2016-12-08T12:39:09Z</time>
      </trkpt>
      <trkpt lat="46.14242" lon="1.83226">
        <ele>565</ele>
        <time>2016-12-08T12:41:09Z</time>
      </trkpt>
      <trkpt lat="46.14238" lon="1.8323">
        <ele>565</ele>
        <time>2016-12-08T12:43:09Z</time>
      </trkpt>
      <trkpt lat="46.14235" lon="1.83231">
        <ele>564</ele>
        <time>2016-12-08T12:45:09Z</time>
      </trkpt>
      <trkpt lat="46.14221" lon="1.83234">
        <ele>563</ele>
        <time>2016-12-08T12:47:09Z</time>
      </trkpt>
      <trkpt lat="46.14218" lon="1.83236">
        <ele>563</ele>
        <time>2016-12-08T12:49:09Z</time>
      </trkpt>
      <trkpt lat="46.14208" lon="1.83242">
        <ele>562</ele>
        <time>2016-12-08T12:51:09Z</time>
      </trkpt>
      <trkpt lat="46.14201" lon="1.83249">
        <ele>562</ele>
        <time>2016-12-08T12:53:09Z</time>
      </trkpt>
      <trkpt lat="46.14194" lon="1.83253">
        <ele>562</ele>
        <time>2016-12-08T12:55:09Z</time>
      </trkpt>
      <trkpt lat="46.1419" lon="1.83257">
        <ele>561</ele>
        <time>2016-12-08T12:57:09Z</time>
      </trkpt>
      <trkpt lat="46.14182" lon="1.83261">
        <ele>561</ele>
        <time>2016-12-08T12:59:09Z</time>
      </trkpt>
      <trkpt lat="46.14167" lon="1.83265">
        <ele>560</ele>
        <time>2016-12-08T13:01:09Z</time>
      </trkpt>
      <trkpt lat="46.14152" lon="1.83273">
        <ele>560</ele>
        <time>2016-12-08T13:03:09Z</time>
      </trkpt>
      <trkpt lat="46.1415" lon="1.83275">
        <ele>560</ele>
        <time>2016-12-08T13:05:09Z</time>
      </trkpt>
      <trkpt lat="46.14143" lon="1.83281">
        <ele>561</ele>
        <time>2016-12-08T13:07:09Z</time>
      </trkpt>
      <trkpt lat="46.14138" lon="1.83285">
        <ele>562</ele>
        <time>2016-12-08T13:09:09Z</time>
      </trkpt>
      <trkpt lat="46.14136" lon="1.83286">
        <ele>562</ele>
        <time>2016-12-08T13:11:09Z</time>
      </trkpt>
      <trkpt lat="46.14134" lon="1.83287">
        <ele>562</ele>
        <time>2016-12-08T13:13:09Z</time>
      </trkpt>
      <trkpt lat="46.14132" lon="1.83287">
        <ele>562</ele>
        <time>2016-12-08T13:15:09Z</time>
      </trkpt>
      <trkpt lat="46.14126" lon="1.83289">
        <ele>562</ele>
        <time>2016-12-08T13:17:09Z</time>
      </trkpt>
      <trkpt lat="46.14125" lon="1.8329">
        <ele>562</ele>
        <time>2016-12-08T13:19:09Z</time>
      </trkpt>
      <trkpt lat="46.14124" lon="1.8329">
        <ele>562</ele>
        <time>2016-12-08T13:21:09Z</time>
      </trkpt>
      <trkpt lat="46.14121" lon="1.8329">
        <ele>562</ele>
        <time>2016-12-08T13:23:09Z</time>
      </trkpt>
      <trkpt lat="46.14118" lon="1.83288">
        <ele>562</ele>
        <time>2016-12-08T13:25:09Z</time>
      </trkpt>
      <trkpt lat="46.14111" lon="1.83283">
        <ele>561</ele>
        <time>2016-12-08T13:27:09Z</time>
      </trkpt>
      <trkpt lat="46.14109" lon="1.83282">
        <ele>561</ele>
        <time>2016-12-08T13:29:09Z</time>
      </trkpt>
      <trkpt lat="46.14105" lon="1.83282">
        <ele>561</ele>
        <time>2016-12-08T13:31:09Z</time>
      </trkpt>
      <trkpt lat="46.14102" lon="1.83282">
        <ele>561</ele>
        <time>2016-12-08T13:33:09Z</time>
      </trkpt>
      <trkpt lat="46.141" lon="1.83284">
        <ele>561</ele>
        <time>2016-12-08T13:35:09Z</time>
      </trkpt>
      <trkpt lat="46.14096" lon="1.83286">
        <ele>561</ele>
        <time>2016-12-08T13:37:09Z</time>
      </trkpt>
      <trkpt lat="46.14091" lon="1.83288">
        <ele>562</ele>
        <time>2016-12-08T13:39:09Z</time>
      </trkpt>
      <trkpt lat="46.14089" lon="1.83289">
        <ele>562</ele>
        <time>2016-12-08T13:41:09Z</time>
      </trkpt>
      <trkpt lat="46.14085" lon="1.83291">
        <ele>562</ele>
        <time>2016-12-08T13:43:09Z</time>
      </trkpt>
      <trkpt lat="46.14077" lon="1.83294">
        <ele>563</ele>
        <time>2016-12-08T13:45:09Z</time>
      </trkpt>
      <trkpt lat="46.14071" lon="1.83293">
        <ele>563</ele>
        <time>2016-12-08T13:47:09Z</time>
      </trkpt>
      <trkpt lat="46.14069" lon="1.83294">
        <ele>563</ele>
        <time>2016-12-08T13:49:09Z</time>
      </trkpt>
      <trkpt lat="46.14066" lon="1.83294">
        <ele>563</ele>
        <time>2016-12-08T13:51:09Z</time>
      </trkpt>
      <trkpt lat="46.14058" lon="1.83294">
        <ele>564</ele>
        <time>2016-12-08T13:53:09Z</time>
      </trkpt>
      <trkpt lat="46.14056" lon="1.83293">
        <ele>564</ele>
        <time>2016-12-08T13:55:09Z</time>
      </trkpt>
      <trkpt lat="46.14049" lon="1.83293">
        <ele>564</ele>
        <time>2016-12-08T13:57:09Z</time>
      </trkpt>
      <trkpt lat="46.14044" lon="1.83292">
        <ele>564</ele>
        <time>2016-12-08T13:59:09Z</time>
      </trkpt>
      <trkpt lat="46.14035" lon="1.83293">
        <ele>565</ele>
        <time>2016-12-08T14:01:09Z</time>
      </trkpt>
      <trkpt lat="46.1403" lon="1.83295">
        <ele>565</ele>
        <time>2016-12-08T14:03:09Z</time>
      </trkpt>
      <trkpt lat="46.14027" lon="1.83296">
        <ele>566</ele>
        <time>2016-12-08T14:05:09Z</time>
      </trkpt>
      <trkpt lat="46.14024" lon="1.83297">
        <ele>566</ele>
        <time>2016-12-08T14:07:09Z</time>
      </trkpt>
      <trkpt lat="46.14015" lon="1.83298">
        <ele>567</ele>
        <time>2016-12-08T14:09:09Z</time>
      </trkpt>
      <trkpt lat="46.14012" lon="1.83299">
        <ele>567</ele>
        <time>2016-12-08T14:11:09Z</time>
      </trkpt>
      <trkpt lat="46.14007" lon="1.83302">
        <ele>567</ele>
        <time>2016-12-08T14:13:09Z</time>
      </trkpt>
      <trkpt lat="46.14" lon="1.83304">
        <ele>568</ele>
        <time>2016-12-08T14:15:09Z</time>
      </trkpt>
      <trkpt lat="46.13997" lon="1.83306">
        <ele>568</ele>
        <time>2016-12-08T14:17:09Z</time>
      </trkpt>
      <trkpt lat="46.13988" lon="1.8331">
        <ele>568</ele>
        <time>2016-12-08T14:19:09Z</time>
      </trkpt>
      <trkpt lat="46.1398" lon="1.83312">
        <ele>568</ele>
        <time>2016-12-08T14:21:09Z</time>
      </trkpt>
      <trkpt lat="46.13969" lon="1.83318">
        <ele>568</ele>
        <time>2016-12-08T14:23:09Z</time>
      </trkpt>
      <trkpt lat="46.13958" lon="1.83325">
        <ele>568</ele>
        <time>2016-12-08T14:25:09Z</time>
      </trkpt>
      <trkpt lat="46.13955" lon="1.83326">
        <ele>568</ele>
        <time>2016-12-08T14:27:09Z</time>
      </trkpt>
      <trkpt lat="46.13956" lon="1.83326">
        <ele>568</ele>
        <time>2016-12-08T14:29:09Z</time>
      </trkpt>
      <trkpt lat="46.13954" lon="1.83327">
        <ele>568</ele>
        <time>2016-12-08T14:31:09Z</time>
      </trkpt>
      <trkpt lat="46.13954" lon="1.83327">
        <ele>568</ele>
        <time>2016-12-08T14:33:09Z</time>
      </trkpt>
      <trkpt lat="46.1395" lon="1.83329">
        <ele>568</ele>
        <time>2016-12-08T14:35:09Z</time>
      </trkpt>
      <trkpt lat="46.13948" lon="1.83329">
        <ele>568</ele>
        <time>2016-12-08T14:37:09Z</time>
      </trkpt>
      <trkpt lat="46.13943" lon="1.83332">
        <ele>568</ele>
        <time>2016-12-08T14:39:09Z</time>
      </trkpt>
      <trkpt lat="46.13939" lon="1.83335">
        <ele>568</ele>
        <time>2016-12-08T14:41:09Z</time>
      </trkpt>
      <trkpt lat="46.13933" lon="1.83339">
        <ele>568</ele>
        <time>2016-12-08T14:43:09Z</time>
      </trkpt>
      <trkpt lat="46.13929" lon="1.83344">
        <ele>568</ele>
        <time>2016-12-08T14:45:09Z</time>
      </trkpt>
      <trkpt lat="46.13927" lon="1.83345">
        <ele>568</ele>
        <time>2016-12-08T14:47:09Z</time>
      </trkpt>
      <trkpt lat="46.13923" lon="1.83349">
        <ele>568</ele>
        <time>2016-12-08T14:49:09Z</time>
      </trkpt>
      <trkpt lat="46.13921" lon="1.83351">
        <ele>568</ele>
        <time>2016-12-08T14:51:09Z</time>
      </trkpt>
      <trkpt lat="46.13916" lon="1.83355">
        <ele>568</ele>
        <time>2016-12-08T14:53:09Z</time>
      </trkpt>
      <trkpt lat="46.13908" lon="1.83362">
        <ele>568</ele>
        <time>2016-12-08T14:55:09Z</time>
      </trkpt>
      <trkpt lat="46.13906" lon="1.83364">
        <ele>568</ele>
        <time>2016-12-08T14:57:09Z</time>
      </trkpt>
      <trkpt lat="46.13902" lon="1.8337">
        <ele>568</ele>
        <time>2016-12-08T14:59:09Z</time>
      </trkpt>
      <trkpt lat="46.13897" lon="1.83378">
        <ele>568</ele>
        <time>2016-12-08T15:01:09Z</time>
      </trkpt>
      <trkpt lat="46.13897" lon="1.8338">
        <ele>568</ele>
        <time>2016-12-08T15:03:09Z</time>
      </trkpt>
      <trkpt lat="46.13896" lon="1.83386">
        <ele>569</ele>
        <time>2016-12-08T15:05:09Z</time>
      </trkpt>
      <trkpt lat="46.13896" lon="1.83388">
        <ele>569</ele>
        <time>2016-12-08T15:07:09Z</time>
      </trkpt>
      <trkpt lat="46.13895" lon="1.83392">
        <ele>569</ele>
        <time>2016-12-08T15:09:09Z</time>
      </trkpt>
      <trkpt lat="46.13895" lon="1.83397">
        <ele>570</ele>
        <time>2016-12-08T15:11:09Z</time>
      </trkpt>
      <trkpt lat="46.13896" lon="1.83401">
        <ele>570</ele>
        <time>2016-12-08T15:13:09Z</time>
      </trkpt>
      <trkpt lat="46.13896" lon="1.83404">
        <ele>571</ele>
        <time>2016-12-08T15:15:09Z</time>
      </trkpt>
      <trkpt lat="46.13897" lon="1.83407">
        <ele>571</ele>
        <time>2016-12-08T15:17:09Z</time>
      </trkpt>
      <trkpt lat="46.13897" lon="1.83414">
        <ele>572</ele>
        <time>2016-12-08T15:19:09Z</time>
      </trkpt>
      <trkpt lat="46.13897" lon="1.83419">
        <ele>573</ele>
        <time>2016-12-08T15:21:09Z</time>
      </trkpt>
      <trkpt lat="46.13897" lon="1.83422">
        <ele>573</ele>
        <time>2016-12-08T15:23:09Z</time>
      </trkpt>
      <trkpt lat="46.13893" lon="1.83427">
        <ele>572</ele>
        <time>2016-12-08T15:25:09Z</time>
      </trkpt>
      <trkpt lat="46.13892" lon="1.83429">
        <ele>572</ele>
        <time>2016-12-08T15:27:09Z</time>
      </trkpt>
      <trkpt lat="46.13888" lon="1.83433">
        <ele>572</ele>
        <time>2016-12-08T15:29:09Z</time>
      </trkpt>
      <trkpt lat="46.13883" lon="1.83441">
        <ele>571</ele>
        <time>2016-12-08T15:31:09Z</time>
      </trkpt>
      <trkpt lat="46.13881" lon="1.83443">
        <ele>571</ele>
        <time>2016-12-08T15:33:09Z</time>
      </trkpt>
      <trkpt lat="46.13878" lon="1.83445">
        <ele>571</ele>
        <time>2016-12-08T15:35:09Z</time>
      </trkpt>
      <trkpt lat="46.13876" lon="1.83445">
        <ele>570</ele>
        <time>2016-12-08T15:37:09Z</time>
      </trkpt>
      <trkpt lat="46.13866" lon="1.83447">
        <ele>568</ele>
        <time>2016-12-08T15:39:09Z</time>
      </trkpt>
      <trkpt lat="46.13858" lon="1.83449">
        <ele>567</ele>
        <time>2016-12-08T15:41:09Z</time>
      </trkpt>
      <trkpt lat="46.13853" lon="1.83449">
        <ele>566</ele>
        <time>2016-12-08T15:43:09Z</time>
      </trkpt>
      <trkpt lat="46.13852" lon="1.8345">
        <ele>566</ele>
        <time>2016-12-08T15:45:09Z</time>
      </trkpt>
      <trkpt lat="46.13849" lon="1.8345">
        <ele>565</ele>
        <time>2016-12-08T15:47:09Z</time>
      </trkpt>
      <trkpt lat="46.13848" lon="1.83451">
        <ele>565</ele>
        <time>2016-12-08T15:49:09Z</time>
      </trkpt>
      <trkpt lat="46.13846" lon="1.83452">
        <ele>565</ele>
        <time>2016-12-08T15:51:09Z</time>
      </trkpt>
      <trkpt lat="46.13843" lon="1.83454">
        <ele>564</ele>
        <time>2016-12-08T15:53:09Z</time>
      </trkpt>
      <trkpt lat="46.1384" lon="1.83456">
        <ele>564</ele>
        <time>2016-12-08T15:55:09Z</time>
      </trkpt>
      <trkpt lat="46.13838" lon="1.83456">
        <ele>563</ele>
        <time>2016-12-08T15:57:09Z</time>
      </trkpt>
      <trkpt lat="46.13836" lon="1.83458">
        <ele>563</ele>
        <time>2016-12-08T15:59:09Z</time>
      </trkpt>
      <trkpt lat="46.13837" lon="1.83457">
        <ele>563</ele>
        <time>2016-12-08T16:01:09Z</time>
      </trkpt>
      <trkpt lat="46.13837" lon="1.83458">
        <ele>563</ele>
        <time>2016-12-08T16:03:09Z</time>
      </trkpt>
      <trkpt lat="46.13836" lon="1.83458">
        <ele>563</ele>
        <time>2016-12-08T16:05:09Z</time>
      </trkpt>
      <trkpt lat="46.13833" lon="1.83459">
        <ele>563</ele>
        <time>2016-12-08T16:07:09Z</time>
      </trkpt>
      <trkpt lat="46.13833" lon="1.83459">
        <ele>563</ele>
        <time>2016-12-08T16:09:09Z</time>
      </trkpt>
      <trkpt lat="46.13831" lon="1.83461">
        <ele>562</ele>
        <time>2016-12-08T16:11:09Z</time>
      </trkpt>
      <trkpt lat="46.13831" lon="1.8346">
        <ele>562</ele>
        <time>2016-12-08T16:13:09Z</time>
      </trkpt>
      <trkpt lat="46.13831" lon="1.8346">
        <ele>562</ele>
        <time>2016-12-08T16:15:09Z</time>
      </trkpt>
      <trkpt lat="46.13829" lon="1.8346">
        <ele>562</ele>
        <time>2016-12-08T16:17:09Z</time>
      </trkpt>
      <trkpt lat="46.13828" lon="1.83458">
        <ele>562</ele>
        <time>2016-12-08T16:19:09Z</time>
      </trkpt>
      <trkpt lat="46.13827" lon="1.83457">
        <ele>562</ele>
        <time>2016-12-08T16:21:09Z</time>
      </trkpt>
      <trkpt lat="46.13825" lon="1.83458">
        <ele>562</ele>
        <time>2016-12-08T16:23:09Z</time>
      </trkpt>
      <trkpt lat="46.13823" lon="1.83459">
        <ele>562</ele>
        <time>2016-12-08T16:25:09Z</time>
      </trkpt>
      <trkpt lat="46.13822" lon="1.83458">
        <ele>562</ele>
        <time>2016-12-08T16:27:09Z</time>
      </trkpt>
      <trkpt lat="46.13821" lon="1.83459">
        <ele>562</ele>
        <time>2016-12-08T16:29:09Z</time>
      </trkpt>
      <trkpt lat="46.1382" lon="1.8346">
        <ele>562</ele>
        <time>2016-12-08T16:31:09Z</time>
      </trkpt>
      <trkpt lat="46.1382" lon="1.83459">
        <ele>562</ele>
        <time>2016-12-08T16:33:09Z</time>
      </trkpt>
      <trkpt lat="46.13819" lon="1.83459">
        <ele>562</ele>
        <time>2016-12-08T16:35:09Z</time>
      </trkpt>
      <trkpt lat="46.1382" lon="1.83462">
        <ele>562</ele>
        <time>2016-12-08T16:37:09Z</time>
      </trkpt>
      <trkpt lat="46.13818" lon="1.83462">
        <ele>562</ele>
        <time>2016-12-08T16:39:09Z</time>
      </trkpt>
      <trkpt lat="46.13815" lon="1.83464">
        <ele>562</ele>
        <time>2016-12-08T16:41:09Z</time>
      </trkpt>
      <trkpt lat="46.13812" lon="1.83466">
        <ele>562</ele>
        <time>2016-12-08T16:43:09Z</time>
      </trkpt>
      <trkpt lat="46.13813" lon="1.83466">
        <ele>562</ele>
        <time>2016-12-08T16:45:09Z</time>
      </trkpt>
      <trkpt lat="46.13811" lon="1.83467">
        <ele>562</ele>
        <time>2016-12-08T16:47:09Z</time>
      </trkpt>
      <trkpt lat="46.13809" lon="1.83468">
        <ele>562</ele>
        <time>2016-12-08T16:49:09Z</time>
      </trkpt>
      <trkpt lat="46.13807" lon="1.83469">
        <ele>562</ele>
        <time>2016-12-08T16:51:09Z</time>
      </trkpt>
      <trkpt lat="46.13802" lon="1.8347">
        <ele>562</ele>
        <time>2016-12-08T16:53:09Z</time>
      </trkpt>
      <trkpt lat="46.13799" lon="1.83472">
        <ele>562</ele>
        <time>2016-12-08T16:55:09Z</time>
      </trkpt>
      <trkpt lat="46.13797" lon="1.83473">
        <ele>562</ele>
        <time>2016-12-08T16:57:09Z</time>
      </trkpt>
      <trkpt lat="46.13796" lon="1.83473">
        <ele>562</ele>
        <time>2016-12-08T16:59:09Z</time>
      </trkpt>
      <trkpt lat="46.13794" lon="1.83474">
        <ele>562</ele>
        <time>2016-12-08T17:01:09Z</time>
      </trkpt>
      <trkpt lat="46.13793" lon="1.83474">
        <ele>562</ele>
        <time>2016-12-08T17:03:09Z</time>
      </trkpt>
      <trkpt lat="46.13789" lon="1.83476">
        <ele>562</ele>
        <time>2016-12-08T17:05:09Z</time>
      </trkpt>
      <trkpt lat="46.13781" lon="1.83479">
        <ele>563</ele>
        <time>2016-12-08T17:07:09Z</time>
      </trkpt>
      <trkpt lat="46.1378" lon="1.8348">
        <ele>563</ele>
        <time>2016-12-08T17:09:09Z</time>
      </trkpt>
      <trkpt lat="46.13778" lon="1.8348">
        <ele>563</ele>
        <time>2016-12-08T17:11:09Z</time>
      </trkpt>
      <trkpt lat="46.13777" lon="1.8348">
        <ele>563</ele>
        <time>2016-12-08T17:13:09Z</time>
      </trkpt>
      <trkpt lat="46.13775" lon="1.83481">
        <ele>563</ele>
        <time>2016-12-08T17:15:09Z</time>
      </trkpt>
      <trkpt lat="46.13773" lon="1.8348">
        <ele>563</ele>
        <time>2016-12-08T17:17:09Z</time>
      </trkpt>
      <trkpt lat="46.13769" lon="1.8348">
        <ele>563</ele>
        <time>2016-12-08T17:19:09Z</time>
      </trkpt>
      <trkpt lat="46.13764" lon="1.83481">
        <ele>563</ele>
        <time>2016-12-08T17:21:09Z</time>
      </trkpt>
      <trkpt lat="46.13763" lon="1.83481">
        <ele>563</ele>
        <time>2016-12-08T17:23:09Z</time>
      </trkpt>
      <trkpt lat="46.13759" lon="1.83482">
        <ele>563</ele>
        <time>2016-12-08T17:25:09Z</time>
      </trkpt>
      <trkpt lat="46.13754" lon="1.83483">
        <ele>563</ele>
        <time>2016-12-08T17:27:09Z</time>
      </trkpt>
      <trkpt lat="46.13752" lon="1.83484">
        <ele>563</ele>
        <time>2016-12-08T17:29:09Z</time>
      </trkpt>
      <trkpt lat="46.13747" lon="1.83486">
        <ele>564</ele>
        <time>2016-12-08T17:31:09Z</time>
      </trkpt>
      <trkpt lat="46.13743" lon="1.83488">
        <ele>564</ele>
        <time>2016-12-08T17:33:09Z</time>
      </trkpt>
      <trkpt lat="46.13741" lon="1.83488">
        <ele>564</ele>
        <time>2016-12-08T17:35:09Z</time>
      </trkpt>
      <trkpt lat="46.13739" lon="1.83489">
        <ele>565</ele>
        <time>2016-12-08T17:37:09Z</time>
      </trkpt>
      <trkpt lat="46.13732" lon="1.83495">
        <ele>566</ele>
        <time>2016-12-08T17:39:09Z</time>
      </trkpt>
      <trkpt lat="46.1373" lon="1.83497">
        <ele>567</ele>
        <time>2016-12-08T17:41:09Z</time>
      </trkpt>
      <trkpt lat="46.13731" lon="1.83497">
        <ele>567</ele>
        <time>2016-12-08T17:43:09Z</time>
      </trkpt>
      <trkpt lat="46.13732" lon="1.83497">
        <ele>567</ele>
        <time>2016-12-08T17:45:09Z</time>
      </trkpt>
      <trkpt lat="46.13732" lon="1.83496">
        <ele>566</ele>
        <time>2016-12-08T17:47:09Z</time>
      </trkpt>
      <trkpt lat="46.13731" lon="1.83497">
        <ele>567</ele>
        <time>2016-12-08T17:49:09Z</time>
      </trkpt>
      <trkpt lat="46.13728" lon="1.83501">
        <ele>568</ele>
        <time>2016-12-08T17:51:09Z</time>
      </trkpt>
      <trkpt lat="46.13729" lon="1.83501">
        <ele>567</ele>
        <time>2016-12-08T17:53:09Z</time>
      </trkpt>
      <trkpt lat="46.13728" lon="1.83501">
        <ele>568</ele>
        <time>2016-12-08T17:55:09Z</time>
      </trkpt>
      <trkpt lat="46.13728" lon="1.83502">
        <ele>568</ele>
        <time>2016-12-08T17:57:09Z</time>
      </trkpt>
      <trkpt lat="46.13729" lon="1.83501">
        <ele>567</ele>
        <time>2016-12-08T17:59:09Z</time>
      </trkpt>
      <trkpt lat="46.13729" lon="1.83501">
        <ele>567</ele>
        <time>2016-12-08T18:01:09Z</time>
      </trkpt>
      <trkpt lat="46.13728" lon="1.83502">
        <ele>568</ele>
        <time>2016-12-08T18:03:09Z</time>
      </trkpt>
      <trkpt lat="46.13729" lon="1.83501">
        <ele>567</ele>
        <time>2016-12-08T18:05:09Z</time>
      </trkpt>
      <trkpt lat="46.13728" lon="1.83501">
        <ele>568</ele>
        <time>2016-12-08T18:07:09Z</time>
      </trkpt>
      <trkpt lat="46.13729" lon="1.83502">
        <ele>568</ele>
        <time>2016-12-08T18:09:09Z</time>
      </trkpt>
      <trkpt lat="46.13728" lon="1.83502">
        <ele>568</ele>
        <time>2016-12-08T18:11:09Z</time>
      </trkpt>
      <trkpt lat="46.13728" lon="1.83501">
        <ele>568</ele>
        <time>2016-12-08T18:13:09Z</time>
      </trkpt>
      <trkpt lat="46.13728" lon="1.83502">
        <ele>568</ele>
        <time>2016-12-08T18:15:09Z</time>
      </trkpt>
      <trkpt lat="46.13728" lon="1.83502">
        <ele>568</ele>
        <time>2016-12-08T18:17:09Z</time>
      </trkpt>
      <trkpt lat="46.13728" lon="1.83501">
        <ele>568</ele>
        <time>2016-12-08T18:19:09Z</time>
      </trkpt>
      <trkpt lat="46.13729" lon="1.83502">
        <ele>568</ele>
        <time>2016-12-08T18:21:09Z</time>
      </trkpt>
      <trkpt lat="46.13728" lon="1.83502">
        <ele>568</ele>
        <time>2016-12-08T18:23:09Z</time>
      </trkpt>
      <trkpt lat="46.13727" lon="1.83506">
        <ele>569</ele>
        <time>2016-12-08T18:25:09Z</time>
      </trkpt>
      <trkpt lat="46.13725" lon="1.83509">
        <ele>570</ele>
        <time>2016-12-08T18:27:09Z</time>
      </trkpt>
      <trkpt lat="46.13725" lon="1.8351">
        <ele>570</ele>
        <time>2016-12-08T18:29:09Z</time>
      </trkpt>
      <trkpt lat="46.13725" lon="1.83515">
        <ele>571</ele>
        <time>2016-12-08T18:31:09Z</time>
      </trkpt>
      <trkpt lat="46.13726" lon="1.83518">
        <ele>572</ele>
        <time>2016-12-08T18:33:09Z</time>
      </trkpt>
      <trkpt lat="46.13726" lon="1.83522">
        <ele>572</ele>
        <time>2016-12-08T18:35:09Z</time>
      </trkpt>
      <trkpt lat="46.13726" lon="1.83524">
        <ele>573</ele>
        <time>2016-12-08T18:37:09Z</time>
      </trkpt>
      <trkpt lat="46.13726" lon="1.83529">
        <ele>574</ele>
        <time>2016-12-08T18:39:09Z</time>
      </trkpt>
      <trkpt lat="46.13728" lon="1.83536">
        <ele>576</ele>
        <time>2016-12-08T18:41:09Z</time>
      </trkpt>
      <trkpt lat="46.13729" lon="1.83538">
        <ele>576</ele>
        <time>2016-12-08T18:43:09Z</time>
      </trkpt>
      <trkpt lat="46.1373" lon="1.83539">
        <ele>576</ele>
        <time>2016-12-08T18:45:09Z</time>
      </trkpt>
      <trkpt lat="46.13731" lon="1.83541">
        <ele>576</ele>
        <time>2016-12-08T18:47:09Z</time>
      </trkpt>
      <trkpt lat="46.13733" lon="1.83545">
        <ele>577</ele>
        <time>2016-12-08T18:49:09Z</time>
      </trkpt>
      <trkpt lat="46.13733" lon="1.83546">
        <ele>577</ele>
        <time>2016-12-08T18:51:09Z</time>
      </trkpt>
      <trkpt lat="46.13736" lon="1.83553">
        <ele>579</ele>
        <time>2016-12-08T18:53:09Z</time>
      </trkpt>
      <trkpt lat="46.13737" lon="1.83554">
        <ele>579</ele>
        <time>2016-12-08T18:55:09Z</time>
      </trkpt>
      <trkpt lat="46.13737" lon="1.83556">
        <ele>579</ele>
        <time>2016-12-08T18:57:09Z</time>
      </trkpt>
      <trkpt lat="46.13738" lon="1.83558">
        <ele>580</ele>
        <time>2016-12-08T18:59:09Z</time>
      </trkpt>
      <trkpt lat="46.13738" lon="1.83558">
        <ele>580</ele>
        <time>2016-12-08T19:01:09Z</time>
      </trkpt>
      <trkpt lat="46.13737" lon="1.83562">
        <ele>581</ele>
        <time>2016-12-08T19:03:09Z</time>
      </trkpt>
      <trkpt lat="46.13736" lon="1.83565">
        <ele>581</ele>
        <time>2016-12-08T19:05:09Z</time>
      </trkpt>
      <trkpt lat="46.13736" lon="1.83565">
        <ele>581</ele>
        <time>2016-12-08T19:07:09Z</time>
      </trkpt>
      <trkpt lat="46.13735" lon="1.83569">
        <ele>582</ele>
        <time>2016-12-08T19:09:09Z</time>
      </trkpt>
      <trkpt lat="46.13735" lon="1.83571">
        <ele>583</ele>
        <time>2016-12-08T19:11:09Z</time>
      </trkpt>
      <trkpt lat="46.13734" lon="1.83572">
        <ele>583</ele>
        <time>2016-12-08T19:13:09Z</time>
      </trkpt>
      <trkpt lat="46.13734" lon="1.83573">
        <ele>583</ele>
        <time>2016-12-08T19:15:09Z</time>
      </trkpt>
      <trkpt lat="46.13734" lon="1.83575">
        <ele>584</ele>
        <time>2016-12-08T19:17:09Z</time>
      </trkpt>
      <trkpt lat="46.13734" lon="1.83577">
        <ele>584</ele>
        <time>2016-12-08T19:19:09Z</time>
      </trkpt>
      <trkpt lat="46.13734" lon="1.83578">
        <ele>585</ele>
        <time>2016-12-08T19:21:09Z</time>
      </trkpt>
      <trkpt lat="46.13735" lon="1.83579">
        <ele>585</ele>
        <time>2016-12-08T19:23:09Z</time>
      </trkpt>
      <trkpt lat="46.13735" lon="1.83581">
        <ele>585</ele>
        <time>2016-12-08T19:25:09Z</time>
      </trkpt>
      <trkpt lat="46.13735" lon="1.83583">
        <ele>586</ele>
        <time>2016-12-08T19:27:09Z</time>
      </trkpt>
      <trkpt lat="46.13736" lon="1.83585">
        <ele>586</ele>
        <time>2016-12-08T19:29:09Z</time>
      </trkpt>
      <trkpt lat="46.13736" lon="1.83586">
        <ele>586</ele>
        <time>2016-12-08T19:31:09Z</time>
      </trkpt>
      <trkpt lat="46.13736" lon="1.83588">
        <ele>586</ele>
        <time>2016-12-08T19:33:09Z</time>
      </trkpt>
      <trkpt lat="46.13737" lon="1.83594">
        <ele>587</ele>
        <time>2016-12-08T19:35:09Z</time>
      </trkpt>
      <trkpt lat="46.13738" lon="1.83596">
        <ele>587</ele>
        <time>2016-12-08T19:37:09Z</time>
      </trkpt>
      <trkpt lat="46.13738" lon="1.836">
        <ele>588</ele>
        <time>2016-12-08T19:39:09Z</time>
      </trkpt>
      <trkpt lat="46.13738" lon="1.83602">
        <ele>589</ele>
        <time>2016-12-08T19:41:09Z</time>
      </trkpt>
      <trkpt lat="46.13739" lon="1.83605">
        <ele>589</ele>
        <time>2016-12-08T19:43:09Z</time>
      </trkpt>
      <trkpt lat="46.13739" lon="1.83607">
        <ele>589</ele>
        <time>2016-12-08T19:45:09Z</time>
      </trkpt>
      <trkpt lat="46.1374" lon="1.83608">
        <ele>589</ele>
        <time>2016-12-08T19:47:09Z</time>
      </trkpt>
      <trkpt lat="46.1374" lon="1.83611">
        <ele>590</ele>
        <time>2016-12-08T19:49:09Z</time>
      </trkpt>
      <trkpt lat="46.1374" lon="1.83615">
        <ele>591</ele>
        <time>2016-12-08T19:51:09Z</time>
      </trkpt>
      <trkpt lat="46.13742" lon="1.8362">
        <ele>591</ele>
        <time>2016-12-08T19:53:09Z</time>
      </trkpt>
      <trkpt lat="46.13742" lon="1.83623">
        <ele>592</ele>
        <time>2016-12-08T19:55:09Z</time>
      </trkpt>
      <trkpt lat="46.13743" lon="1.83627">
        <ele>592</ele>
        <time>2016-12-08T19:57:09Z</time>
      </trkpt>
      <trkpt lat="46.13746" lon="1.83631">
        <ele>593</ele>
        <time>2016-12-08T19:59:09Z</time>
      </trkpt>
      <trkpt lat="46.13745" lon="1.83633">
        <ele>593</ele>
        <time>2016-12-08T20:01:09Z</time>
      </trkpt>
      <trkpt lat="46.13746" lon="1.83635">
        <ele>593</ele>
        <time>2016-12-08T20:03:09Z</time>
      </trkpt>
      <trkpt lat="46.13748" lon="1.83639">
        <ele>594</ele>
        <time>2016-12-08T20:05:09Z</time>
      </trkpt>
      <trkpt lat="46.13748" lon="1.83641">
        <ele>594</ele>
        <time>2016-12-08T20:07:09Z</time>
      </trkpt>
      <trkpt lat="46.13749" lon="1.83643">
        <ele>594</ele>
        <time>2016-12-08T20:09:09Z</time>
      </trkpt>
      <trkpt lat="46.13752" lon="1.83653">
        <ele>595</ele>
        <time>2016-12-08T20:11:09Z</time>
      </trkpt>
      <trkpt lat="46.13752" lon="1.83655">
        <ele>596</ele>
        <time>2016-12-08T20:13:09Z</time>
      </trkpt>
      <trkpt lat="46.13753" lon="1.83658">
        <ele>596</ele>
        <time>2016-12-08T20:15:09Z</time>
      </trkpt>
      <trkpt lat="46.13754" lon="1.83664">
        <ele>597</ele>
        <time>2016-12-08T20:17:09Z</time>
      </trkpt>
      <trkpt lat="46.13755" lon="1.83667">
        <ele>597</ele>
        <time>2016-12-08T20:19:09Z</time>
      </trkpt>
      <trkpt lat="46.13755" lon="1.8367">
        <ele>598</ele>
        <time>2016-12-08T20:21:09Z</time>
      </trkpt>
      <trkpt lat="46.13756" lon="1.83674">
        <ele>598</ele>
        <time>2016-12-08T20:23:09Z</time>
      </trkpt>
      <trkpt lat="46.13756" lon="1.83676">
        <ele>598</ele>
        <time>2016-12-08T20:25:09Z</time>
      </trkpt>
      <trkpt lat="46.13757" lon="1.83681">
        <ele>599</ele>
        <time>2016-12-08T20:27:09Z</time>
      </trkpt>
      <trkpt lat="46.13759" lon="1.83688">
        <ele>599</ele>
        <time>2016-12-08T20:29:09Z</time>
      </trkpt>
      <trkpt lat="46.13762" lon="1.83695">
        <ele>600</ele>
        <time>2016-12-08T20:31:09Z</time>
      </trkpt>
      <trkpt lat="46.13762" lon="1.83698">
        <ele>600</ele>
        <time>2016-12-08T20:33:09Z</time>
      </trkpt>
      <trkpt lat="46.13766" lon="1.83707">
        <ele>600</ele>
        <time>2016-12-08T20:35:09Z</time>
      </trkpt>
      <trkpt lat="46.13766" lon="1.8371">
        <ele>601</ele>
        <time>2016-12-08T20:37:09Z</time>
      </trkpt>
      <trkpt lat="46.13768" lon="1.83712">
        <ele>601</ele>
        <time>2016-12-08T20:39:09Z</time>
      </trkpt>
      <trkpt lat="46.13769" lon="1.83715">
        <ele>601</ele>
        <time>2016-12-08T20:41:09Z</time>
      </trkpt>
      <trkpt lat="46.1377" lon="1.83717">
        <ele>601</ele>
        <time>2016-12-08T20:43:09Z</time>
      </trkpt>
      <trkpt lat="46.13771" lon="1.8372">
        <ele>601</ele>
        <time>2016-12-08T20:45:09Z</time>
      </trkpt>
      <trkpt lat="46.13771" lon="1.83722">
        <ele>601</ele>
        <time>2016-12-08T20:47:09Z</time>
      </trkpt>
      <trkpt lat="46.13772" lon="1.83728">
        <ele>602</ele>
        <time>2016-12-08T20:49:09Z</time>
      </trkpt>
      <trkpt lat="46.13772" lon="1.8373">
        <ele>602</ele>
        <time>2016-12-08T20:51:09Z</time>
      </trkpt>
      <trkpt lat="46.13772" lon="1.83733">
        <ele>602</ele>
        <time>2016-12-08T20:53:09Z</time>
      </trkpt>
      <trkpt lat="46.13772" lon="1.83734">
        <ele>603</ele>
        <time>2016-12-08T20:55:09Z</time>
      </trkpt>
      <trkpt lat="46.13773" lon="1.83737">
        <ele>603</ele>
        <time>2016-12-08T20:57:09Z</time>
      </trkpt>
      <trkpt lat="46.13773" lon="1.83741">
        <ele>603</ele>
        <time>2016-12-08T20:59:09Z</time>
      </trkpt>
      <trkpt lat="46.13773" lon="1.83745">
        <ele>604</ele>
        <time>2016-12-08T21:01:09Z</time>
      </trkpt>
      <trkpt lat="46.13774" lon="1.83748">
        <ele>604</ele>
        <time>2016-12-08T21:03:09Z</time>
      </trkpt>
      <trkpt lat="46.13774" lon="1.8375">
        <ele>604</ele>
        <time>2016-12-08T21:05:09Z</time>
      </trkpt>
      <trkpt lat="46.13774" lon="1.83752">
        <ele>604</ele>
        <time>2016-12-08T21:07:09Z</time>
      </trkpt>
      <trkpt lat="46.13775" lon="1.83754">
        <ele>604</ele>
        <time>2016-12-08T21:09:09Z</time>
      </trkpt>
      <trkpt lat="46.13775" lon="1.83755">
        <ele>605</ele>
        <time>2016-12-08T21:11:09Z</time>
      </trkpt>
      <trkpt lat="46.13776" lon="1.83759">
        <ele>605</ele>
        <time>2016-12-08T21:13:09Z</time>
      </trkpt>
      <trkpt lat="46.13776" lon="1.83763">
        <ele>605</ele>
        <time>2016-12-08T21:15:09Z</time>
      </trkpt>
      <trkpt lat="46.13779" lon="1.83768">
        <ele>605</ele>
        <time>2016-12-08T21:17:09Z</time>
      </trkpt>
      <trkpt lat="46.13779" lon="1.83771">
        <ele>605</ele>
        <time>2016-12-08T21:19:09Z</time>
      </trkpt>
      <trkpt lat="46.1378" lon="1.83774">
        <ele>605</ele>
        <time>2016-12-08T21:21:09Z</time>
      </trkpt>
      <trkpt lat="46.13779" lon="1.83778">
        <ele>606</ele>
        <time>2016-12-08T21:23:09Z</time>
      </trkpt>
      <trkpt lat="46.1378" lon="1.8378">
        <ele>606</ele>
        <time>2016-12-08T21:25:09Z</time>
      </trkpt>
      <trkpt lat="46.13779" lon="1.83782">
        <ele>607</ele>
        <time>2016-12-08T21:27:09Z</time>
      </trkpt>
      <trkpt lat="46.13781" lon="1.83785">
        <ele>606</ele>
        <time>2016-12-08T21:29:09Z</time>
      </trkpt>
      <trkpt lat="46.13782" lon="1.83793">
        <ele>607</ele>
        <time>2016-12-08T21:31:09Z</time>
      </trkpt>
      <trkpt lat="46.13783" lon="1.83796">
        <ele>607</ele>
        <time>2016-12-08T21:33:09Z</time>
      </trkpt>
      <trkpt lat="46.13783" lon="1.83798">
        <ele>607</ele>
        <time>2016-12-08T21:35:09Z</time>
      </trkpt>
      <trkpt lat="46.13784" lon="1.83803">
        <ele>608</ele>
        <time>2016-12-08T21:37:09Z</time>
      </trkpt>
      <trkpt lat="46.13784" lon="1.83805">
        <ele>608</ele>
        <time>2016-12-08T21:39:09Z</time>
      </trkpt>
      <trkpt lat="46.13784" lon="1.83806">
        <ele>608</ele>
        <time>2016-12-08T21:41:09Z</time>
      </trkpt>
      <trkpt lat="46.13784" lon="1.8381">
        <ele>608</ele>
        <time>2016-12-08T21:43:09Z</time>
      </trkpt>
      <trkpt lat="46.13784" lon="1.83812">
        <ele>609</ele>
        <time>2016-12-08T21:45:09Z</time>
      </trkpt>
      <trkpt lat="46.13785" lon="1.83814">
        <ele>609</ele>
        <time>2016-12-08T21:47:09Z</time>
      </trkpt>
      <trkpt lat="46.13786" lon="1.83823">
        <ele>609</ele>
        <time>2016-12-08T21:49:09Z</time>
      </trkpt>
      <trkpt lat="46.13786" lon="1.83825">
        <ele>610</ele>
        <time>2016-12-08T21:51:09Z</time>
      </trkpt>
      <trkpt lat="46.13786" lon="1.83827">
        <ele>610</ele>
        <time>2016-12-08T21:53:09Z</time>
      </trkpt>
      <trkpt lat="46.13787" lon="1.83829">
        <ele>610</ele>
        <time>2016-12-08T21:55:09Z</time>
      </trkpt>
      <trkpt lat="46.13787" lon="1.83831">
        <ele>610</ele>
        <time>2016-12-08T21:57:09Z</time>
      </trkpt>
      <trkpt lat="46.13787" lon="1.83833">
        <ele>610</ele>
        <time>2016-12-08T21:59:09Z</time>
      </trkpt>
      <trkpt lat="46.13788" lon="1.83836">
        <ele>610</ele>
        <time>2016-12-08T22:01:09Z</time>
      </trkpt>
      <trkpt lat="46.13788" lon="1.83838">
        <ele>610</ele>
        <time>2016-12-08T22:03:09Z</time>
      </trkpt>
      <trkpt lat="46.13787" lon="1.8384">
        <ele>611</ele>
        <time>2016-12-08T22:05:09Z</time>
      </trkpt>
      <trkpt lat="46.13788" lon="1.83843">
        <ele>611</ele>
        <time>2016-12-08T22:07:09Z</time>
      </trkpt>
      <trkpt lat="46.13788" lon="1.83845">
        <ele>611</ele>
        <time>2016-12-08T22:09:09Z</time>
      </trkpt>
      <trkpt lat="46.13788" lon="1.83852">
        <ele>612</ele>
        <time>2016-12-08T22:11:09Z</time>
      </trkpt>
      <trkpt lat="46.13789" lon="1.83854">
        <ele>612</ele>
        <time>2016-12-08T22:13:09Z</time>
      </trkpt>
      <trkpt lat="46.1379" lon="1.83858">
        <ele>612</ele>
        <time>2016-12-08T22:15:09Z</time>
      </trkpt>
      <trkpt lat="46.1379" lon="1.8386">
        <ele>612</ele>
        <time>2016-12-08T22:17:09Z</time>
      </trkpt>
      <trkpt lat="46.13792" lon="1.83868">
        <ele>612</ele>
        <time>2016-12-08T22:19:09Z</time>
      </trkpt>
      <trkpt lat="46.13793" lon="1.83872">
        <ele>612</ele>
        <time>2016-12-08T22:21:09Z</time>
      </trkpt>
      <trkpt lat="46.13793" lon="1.83875">
        <ele>613</ele>
        <time>2016-12-08T22:23:09Z</time>
      </trkpt>
      <trkpt lat="46.13795" lon="1.83881">
        <ele>613</ele>
        <time>2016-12-08T22:25:09Z</time>
      </trkpt>
      <trkpt lat="46.13795" lon="1.83884">
        <ele>613</ele>
        <time>2016-12-08T22:27:09Z</time>
      </trkpt>
      <trkpt lat="46.13796" lon="1.83887">
        <ele>613</ele>
        <time>2016-12-08T22:29:09Z</time>
      </trkpt>
      <trkpt lat="46.13797" lon="1.83888">
        <ele>613</ele>
        <time>2016-12-08T22:31:09Z</time>
      </trkpt>
      <trkpt lat="46.13796" lon="1.8389">
        <ele>613</ele>
        <time>2016-12-08T22:33:09Z</time>
      </trkpt>
      <trkpt lat="46.13797" lon="1.83892">
        <ele>613</ele>
        <time>2016-12-08T22:35:09Z</time>
      </trkpt>
      <trkpt lat="46.13798" lon="1.83896">
        <ele>614</ele>
        <time>2016-12-08T22:37:09Z</time>
      </trkpt>
      <trkpt lat="46.13798" lon="1.83898">
        <ele>614</ele>
        <time>2016-12-08T22:39:09Z</time>
      </trkpt>
      <trkpt lat="46.138" lon="1.839">
        <ele>614</ele>
        <time>2016-12-08T22:41:09Z</time>
      </trkpt>
      <trkpt lat="46.13802" lon="1.83905">
        <ele>614</ele>
        <time>2016-12-08T22:43:09Z</time>
      </trkpt>
      <trkpt lat="46.13802" lon="1.83907">
        <ele>614</ele>
        <time>2016-12-08T22:45:09Z</time>
      </trkpt>
      <trkpt lat="46.13804" lon="1.83912">
        <ele>614</ele>
        <time>2016-12-08T22:47:09Z</time>
      </trkpt>
      <trkpt lat="46.13805" lon="1.83914">
        <ele>614</ele>
        <time>2016-12-08T22:49:09Z</time>
      </trkpt>
      <trkpt lat="46.13805" lon="1.83917">
        <ele>614</ele>
        <time>2016-12-08T22:51:09Z</time>
      </trkpt>
      <trkpt lat="46.13807" lon="1.83928">
        <ele>615</ele>
        <time>2016-12-08T22:53:09Z</time>
      </trkpt>
      <trkpt lat="46.13809" lon="1.83934">
        <ele>615</ele>
        <time>2016-12-08T22:55:09Z</time>
      </trkpt>
      <trkpt lat="46.1381" lon="1.83939">
        <ele>615</ele>
        <time>2016-12-08T22:57:09Z</time>
      </trkpt>
      <trkpt lat="46.13809" lon="1.83942">
        <ele>616</ele>
        <time>2016-12-08T22:59:09Z</time>
      </trkpt>
      <trkpt lat="46.13808" lon="1.83942">
        <ele>616</ele>
        <time>2016-12-08T23:01:09Z</time>
      </trkpt>
      <trkpt lat="46.13806" lon="1.83942">
        <ele>616</ele>
        <time>2016-12-08T23:03:09Z</time>
      </trkpt>
      <trkpt lat="46.13805" lon="1.83941">
        <ele>616</ele>
        <time>2016-12-08T23:05:09Z</time>
      </trkpt>
      <trkpt lat="46.13802" lon="1.8394">
        <ele>617</ele>
        <time>2016-12-08T23:07:09Z</time>
      </trkpt>
      <trkpt lat="46.13802" lon="1.83939">
        <ele>617</ele>
        <time>2016-12-08T23:09:09Z</time>
      </trkpt>
      <trkpt lat="46.13801" lon="1.83939">
        <ele>617</ele>
        <time>2016-12-08T23:11:09Z</time>
      </trkpt>
      <trkpt lat="46.138" lon="1.83939">
        <ele>617</ele>
        <time>2016-12-08T23:13:09Z</time>
      </trkpt>
      <trkpt lat="46.13798" lon="1.83938">
        <ele>618</ele>
        <time>2016-12-08T23:15:09Z</time>
      </trkpt>
      <trkpt lat="46.13795" lon="1.83938">
        <ele>618</ele>
        <time>2016-12-08T23:17:09Z</time>
      </trkpt>
      <trkpt lat="46.13794" lon="1.83937">
        <ele>618</ele>
        <time>2016-12-08T23:19:09Z</time>
      </trkpt>
      <trkpt lat="46.13793" lon="1.83938">
        <ele>619</ele>
        <time>2016-12-08T23:21:09Z</time>
      </trkpt>
      <trkpt lat="46.13792" lon="1.83936">
        <ele>619</ele>
        <time>2016-12-08T23:23:09Z</time>
      </trkpt>
      <trkpt lat="46.13787" lon="1.83935">
        <ele>619</ele>
        <time>2016-12-08T23:25:09Z</time>
      </trkpt>
      <trkpt lat="46.13782" lon="1.83932">
        <ele>620</ele>
        <time>2016-12-08T23:27:09Z</time>
      </trkpt>
      <trkpt lat="46.13781" lon="1.83931">
        <ele>620</ele>
        <time>2016-12-08T23:29:09Z</time>
      </trkpt>
      <trkpt lat="46.1378" lon="1.83931">
        <ele>621</ele>
        <time>2016-12-08T23:31:09Z</time>
      </trkpt>
      <trkpt lat="46.13776" lon="1.83928">
        <ele>621</ele>
        <time>2016-12-08T23:33:09Z</time>
      </trkpt>
      <trkpt lat="46.13775" lon="1.83927">
        <ele>621</ele>
        <time>2016-12-08T23:35:09Z</time>
      </trkpt>
      <trkpt lat="46.13772" lon="1.83926">
        <ele>622</ele>
        <time>2016-12-08T23:37:09Z</time>
      </trkpt>
      <trkpt lat="46.13771" lon="1.83926">
        <ele>622</ele>
        <time>2016-12-08T23:39:09Z</time>
      </trkpt>
      <trkpt lat="46.1377" lon="1.83925">
        <ele>622</ele>
        <time>2016-12-08T23:41:09Z</time>
      </trkpt>
      <trkpt lat="46.13769" lon="1.83923">
        <ele>622</ele>
        <time>2016-12-08T23:43:09Z</time>
      </trkpt>
      <trkpt lat="46.13769" lon="1.83923">
        <ele>622</ele>
        <time>2016-12-08T23:45:09Z</time>
      </trkpt>
      <trkpt lat="46.13766" lon="1.83922">
        <ele>623</ele>
        <time>2016-12-08T23:47:09Z</time>
      </trkpt>
      <trkpt lat="46.13765" lon="1.83921">
        <ele>623</ele>
        <time>2016-12-08T23:49:09Z</time>
      </trkpt>
      <trkpt lat="46.13763" lon="1.83921">
        <ele>623</ele>
        <time>2016-12-08T23:51:09Z</time>
      </trkpt>
      <trkpt lat="46.13762" lon="1.83919">
        <ele>624</ele>
        <time>2016-12-08T23:53:09Z</time>
      </trkpt>
      <trkpt lat="46.13759" lon="1.83919">
        <ele>624</ele>
        <time>2016-12-08T23:55:09Z</time>
      </trkpt>
      <trkpt lat="46.13756" lon="1.83918">
        <ele>625</ele>
        <time>2016-12-08T23:57:09Z</time>
      </trkpt>
      <trkpt lat="46.13755" lon="1.83917">
        <ele>625</ele>
        <time>2016-12-08T23:59:09Z</time>
      </trkpt>
      <trkpt lat="46.13753" lon="1.83916">
        <ele>625</ele>
        <time>2016-12-09T00:01:09Z</time>
      </trkpt>
      <trkpt lat="46.13751" lon="1.83914">
        <ele>626</ele>
        <time>2016-12-09T00:03:09Z</time>
      </trkpt>
      <trkpt lat="46.13749" lon="1.83913">
        <ele>626</ele>
        <time>2016-12-09T00:05:09Z</time>
      </trkpt>
      <trkpt lat="46.13749" lon="1.83912">
        <ele>626</ele>
        <time>2016-12-09T00:07:09Z</time>
      </trkpt>
      <trkpt lat="46.13745" lon="1.83911">
        <ele>626</ele>
        <time>2016-12-09T00:09:09Z</time>
      </trkpt>
      <trkpt lat="46.13744" lon="1.8391">
        <ele>627</ele>
        <time>2016-12-09T00:11:09Z</time>
      </trkpt>
      <trkpt lat="46.13742" lon="1.8391">
        <ele>627</ele>
        <time>2016-12-09T00:13:09Z</time>
      </trkpt>
      <trkpt lat="46.13741" lon="1.83909">
        <ele>627</ele>
        <time>2016-12-09T00:15:09Z</time>
      </trkpt>
      <trkpt lat="46.13737" lon="1.83909">
        <ele>628</ele>
        <time>2016-12-09T00:17:09Z</time>
      </trkpt>
      <trkpt lat="46.13734" lon="1.83907">
        <ele>628</ele>
        <time>2016-12-09T00:19:09Z</time>
      </trkpt>
      <trkpt lat="46.13731" lon="1.83905">
        <ele>628</ele>
        <time>2016-12-09T00:21:09Z</time>
      </trkpt>
      <trkpt lat="46.1373" lon="1.83905">
        <ele>628</ele>
        <time>2016-12-09T00:23:09Z</time>
      </trkpt>
      <trkpt lat="46.13727" lon="1.83902">
        <ele>629</ele>
        <time>2016-12-09T00:25:09Z</time>
      </trkpt>
      <trkpt lat="46.13726" lon="1.83902">
        <ele>629</ele>
        <time>2016-12-09T00:27:09Z</time>
      </trkpt>
      <trkpt lat="46.1372" lon="1.83899">
        <ele>630</ele>
        <time>2016-12-09T00:29:09Z</time>
      </trkpt>
      <trkpt lat="46.13719" lon="1.83899">
        <ele>630</ele>
        <time>2016-12-09T00:31:09Z</time>
      </trkpt>
      <trkpt lat="46.13718" lon="1.83899">
        <ele>630</ele>
        <time>2016-12-09T00:33:09Z</time>
      </trkpt>
      <trkpt lat="46.13715" lon="1.83898">
        <ele>630</ele>
        <time>2016-12-09T00:35:09Z</time>
      </trkpt>
      <trkpt lat="46.13709" lon="1.83894">
        <ele>631</ele>
        <time>2016-12-09T00:37:09Z</time>
      </trkpt>
      <trkpt lat="46.13707" lon="1.83892">
        <ele>631</ele>
        <time>2016-12-09T00:39:09Z</time>
      </trkpt>
      <trkpt lat="46.13706" lon="1.83889">
        <ele>631</ele>
        <time>2016-12-09T00:41:09Z</time>
      </trkpt>
      <trkpt lat="46.13703" lon="1.83886">
        <ele>631</ele>
        <time>2016-12-09T00:43:09Z</time>
      </trkpt>
      <trkpt lat="46.13702" lon="1.83885">
        <ele>631</ele>
        <time>2016-12-09T00:45:09Z</time>
      </trkpt>
      <trkpt lat="46.13693" lon="1.83876">
        <ele>632</ele>
        <time>2016-12-09T00:47:09Z</time>
      </trkpt>
      <trkpt lat="46.13688" lon="1.83872">
        <ele>632</ele>
        <time>2016-12-09T00:49:09Z</time>
      </trkpt>
      <trkpt lat="46.13686" lon="1.83871">
        <ele>632</ele>
        <time>2016-12-09T00:51:09Z</time>
      </trkpt>
      <trkpt lat="46.13684" lon="1.83871">
        <ele>632</ele>
        <time>2016-12-09T00:53:09Z</time>
      </trkpt>
      <trkpt lat="46.13682" lon="1.8387">
        <ele>633</ele>
        <time>2016-12-09T00:55:09Z</time>
      </trkpt>
      <trkpt lat="46.13682" lon="1.8387">
        <ele>633</ele>
        <time>2016-12-09T00:57:09Z</time>
      </trkpt>
      <trkpt lat="46.13682" lon="1.83871">
        <ele>633</ele>
        <time>2016-12-09T00:59:09Z</time>
      </trkpt>
      <trkpt lat="46.13682" lon="1.8387">
        <ele>633</ele>
        <time>2016-12-09T01:01:09Z</time>
      </trkpt>
      <trkpt lat="46.13682" lon="1.8387">
        <ele>633</ele>
        <time>2016-12-09T01:03:09Z</time>
      </trkpt>
      <trkpt lat="46.13682" lon="1.83872">
        <ele>633</ele>
        <time>2016-12-09T01:05:09Z</time>
      </trkpt>
      <trkpt lat="46.13679" lon="1.8387">
        <ele>633</ele>
        <time>2016-12-09T01:07:09Z</time>
      </trkpt>
      <trkpt lat="46.13676" lon="1.8387">
        <ele>634</ele>
        <time>2016-12-09T01:09:09Z</time>
      </trkpt>
      <trkpt lat="46.13675" lon="1.8387">
        <ele>634</ele>
        <time>2016-12-09T01:11:09Z</time>
      </trkpt>
      <trkpt lat="46.1367" lon="1.83871">
        <ele>635</ele>
        <time>2016-12-09T01:13:09Z</time>
      </trkpt>
      <trkpt lat="46.13668" lon="1.83872">
        <ele>635</ele>
        <time>2016-12-09T01:15:09Z</time>
      </trkpt>
      <trkpt lat="46.13667" lon="1.83872">
        <ele>635</ele>
        <time>2016-12-09T01:17:09Z</time>
      </trkpt>
      <trkpt lat="46.13666" lon="1.83873">
        <ele>635</ele>
        <time>2016-12-09T01:19:09Z</time>
      </trkpt>
      <trkpt lat="46.13663" lon="1.83877">
        <ele>636</ele>
        <time>2016-12-09T01:21:09Z</time>
      </trkpt>
      <trkpt lat="46.13658" lon="1.83884">
        <ele>636</ele>
        <time>2016-12-09T01:23:09Z</time>
      </trkpt>
      <trkpt lat="46.13658" lon="1.83885">
        <ele>636</ele>
        <time>2016-12-09T01:25:09Z</time>
      </trkpt>
      <trkpt lat="46.13657" lon="1.83887">
        <ele>636</ele>
        <time>2016-12-09T01:27:09Z</time>
      </trkpt>
      <trkpt lat="46.13657" lon="1.83887">
        <ele>636</ele>
        <time>2016-12-09T01:29:09Z</time>
      </trkpt>
      <trkpt lat="46.13656" lon="1.8389">
        <ele>637</ele>
        <time>2016-12-09T01:31:09Z</time>
      </trkpt>
      <trkpt lat="46.13655" lon="1.83891">
        <ele>637</ele>
        <time>2016-12-09T01:33:09Z</time>
      </trkpt>
      <trkpt lat="46.13653" lon="1.83894">
        <ele>637</ele>
        <time>2016-12-09T01:35:09Z</time>
      </trkpt>
      <trkpt lat="46.13651" lon="1.83897">
        <ele>637</ele>
        <time>2016-12-09T01:37:09Z</time>
      </trkpt>
      <trkpt lat="46.13649" lon="1.839">
        <ele>638</ele>
        <time>2016-12-09T01:39:09Z</time>
      </trkpt>
      <trkpt lat="46.13648" lon="1.83902">
        <ele>638</ele>
        <time>2016-12-09T01:41:09Z</time>
      </trkpt>
      <trkpt lat="46.13644" lon="1.83912">
        <ele>639</ele>
        <time>2016-12-09T01:43:09Z</time>
      </trkpt>
      <trkpt lat="46.13643" lon="1.83913">
        <ele>639</ele>
        <time>2016-12-09T01:45:09Z</time>
      </trkpt>
      <trkpt lat="46.13642" lon="1.83918">
        <ele>639</ele>
        <time>2016-12-09T01:47:09Z</time>
      </trkpt>
      <trkpt lat="46.13639" lon="1.83922">
        <ele>640</ele>
        <time>2016-12-09T01:49:09Z</time>
      </trkpt>
      <trkpt lat="46.1364" lon="1.83923">
        <ele>640</ele>
        <time>2016-12-09T01:51:09Z</time>
      </trkpt>
      <trkpt lat="46.13638" lon="1.83926">
        <ele>640</ele>
        <time>2016-12-09T01:53:09Z</time>
      </trkpt>
      <trkpt lat="46.13637" lon="1.83928">
        <ele>640</ele>
        <time>2016-12-09T01:55:09Z</time>
      </trkpt>
      <trkpt lat="46.13636" lon="1.83929">
        <ele>640</ele>
        <time>2016-12-09T01:57:09Z</time>
      </trkpt>
      <trkpt lat="46.13636" lon="1.83929">
        <ele>640</ele>
        <time>2016-12-09T01:59:09Z</time>
      </trkpt>
      <trkpt lat="46.13634" lon="1.83932">
        <ele>640</ele>
        <time>2016-12-09T02:01:09Z</time>
      </trkpt>
      <trkpt lat="46.13633" lon="1.83935">
        <ele>640</ele>
        <time>2016-12-09T02:03:09Z</time>
      </trkpt>
      <trkpt lat="46.13632" lon="1.83936">
        <ele>640</ele>
        <time>2016-12-09T02:05:09Z</time>
      </trkpt>
      <trkpt lat="46.13632" lon="1.83938">
        <ele>641</ele>
        <time>2016-12-09T02:07:09Z</time>
      </trkpt>
      <trkpt lat="46.13629" lon="1.83944">
        <ele>641</ele>
        <time>2016-12-09T02:09:09Z</time>
      </trkpt>
      <trkpt lat="46.13627" lon="1.83948">
        <ele>641</ele>
        <time>2016-12-09T02:11:09Z</time>
      </trkpt>
      <trkpt lat="46.13625" lon="1.83952">
        <ele>642</ele>
        <time>2016-12-09T02:13:09Z</time>
      </trkpt>
      <trkpt lat="46.13622" lon="1.83957">
        <ele>642</ele>
        <time>2016-12-09T02:15:09Z</time>
      </trkpt>
      <trkpt lat="46.13621" lon="1.83959">
        <ele>642</ele>
        <time>2016-12-09T02:17:09Z</time>
      </trkpt>
      <trkpt lat="46.1362" lon="1.8396">
        <ele>642</ele>
        <time>2016-12-09T02:19:09Z</time>
      </trkpt>
      <trkpt lat="46.13619" lon="1.83962">
        <ele>642</ele>
        <time>2016-12-09T02:21:09Z</time>
      </trkpt>
      <trkpt lat="46.13618" lon="1.83964">
        <ele>643</ele>
        <time>2016-12-09T02:23:09Z</time>
      </trkpt>
      <trkpt lat="46.13616" lon="1.83969">
        <ele>643</ele>
        <time>2016-12-09T02:25:09Z</time>
      </trkpt>
      <trkpt lat="46.13616" lon="1.83974">
        <ele>643</ele>
        <time>2016-12-09T02:27:09Z</time>
      </trkpt>
      <trkpt lat="46.13616" lon="1.83976">
        <ele>644</ele>
        <time>2016-12-09T02:29:09Z</time>
      </trkpt>
      <trkpt lat="46.13615" lon="1.83978">
        <ele>644</ele>
        <time>2016-12-09T02:31:09Z</time>
      </trkpt>
      <trkpt lat="46.13617" lon="1.83987">
        <ele>644</ele>
        <time>2016-12-09T02:33:09Z</time>
      </trkpt>
      <trkpt lat="46.13617" lon="1.83991">
        <ele>645</ele>
        <time>2016-12-09T02:35:09Z</time>
      </trkpt>
      <trkpt lat="46.13617" lon="1.83995">
        <ele>645</ele>
        <time>2016-12-09T02:37:09Z</time>
      </trkpt>
      <trkpt lat="46.13616" lon="1.84001">
        <ele>645</ele>
        <time>2016-12-09T02:39:09Z</time>
      </trkpt>
      <trkpt lat="46.13617" lon="1.84004">
        <ele>646</ele>
        <time>2016-12-09T02:41:09Z</time>
      </trkpt>
      <trkpt lat="46.13617" lon="1.84009">
        <ele>646</ele>
        <time>2016-12-09T02:43:09Z</time>
      </trkpt>
      <trkpt lat="46.13618" lon="1.8401">
        <ele>646</ele>
        <time>2016-12-09T02:45:09Z</time>
      </trkpt>
      <trkpt lat="46.13617" lon="1.84015">
        <ele>646</ele>
        <time>2016-12-09T02:47:09Z</time>
      </trkpt>
      <trkpt lat="46.13618" lon="1.84016">
        <ele>646</ele>
        <time>2016-12-09T02:49:09Z</time>
      </trkpt>
      <trkpt lat="46.13618" lon="1.84019">
        <ele>647</ele>
        <time>2016-12-09T02:51:09Z</time>
      </trkpt>
      <trkpt lat="46.13618" lon="1.84018">
        <ele>647</ele>
        <time>2016-12-09T02:53:09Z</time>
      </trkpt>
      <trkpt lat="46.13617" lon="1.84024">
        <ele>647</ele>
        <time>2016-12-09T02:55:09Z</time>
      </trkpt>
      <trkpt lat="46.13618" lon="1.84029">
        <ele>647</ele>
        <time>2016-12-09T02:57:09Z</time>
      </trkpt>
      <trkpt lat="46.13617" lon="1.84031">
        <ele>647</ele>
        <time>2016-12-09T02:59:09Z</time>
      </trkpt>
      <trkpt lat="46.13618" lon="1.84037">
        <ele>648</ele>
        <time>2016-12-09T03:01:09Z</time>
      </trkpt>
      <trkpt lat="46.13617" lon="1.84041">
        <ele>648</ele>
        <time>2016-12-09T03:03:09Z</time>
      </trkpt>
      <trkpt lat="46.13617" lon="1.84047">
        <ele>649</ele>
        <time>2016-12-09T03:05:09Z</time>
      </trkpt>
      <trkpt lat="46.13617" lon="1.84048">
        <ele>649</ele>
        <time>2016-12-09T03:07:09Z</time>
      </trkpt>
      <trkpt lat="46.13616" lon="1.84051">
        <ele>649</ele>
        <time>2016-12-09T03:09:09Z</time>
      </trkpt>
      <trkpt lat="46.13616" lon="1.84057">
        <ele>649</ele>
        <time>2016-12-09T03:11:09Z</time>
      </trkpt>
      <trkpt lat="46.13615" lon="1.84064">
        <ele>650</ele>
        <time>2016-12-09T03:13:09Z</time>
      </trkpt>
      <trkpt lat="46.13614" lon="1.84069">
        <ele>650</ele>
        <time>2016-12-09T03:15:09Z</time>
      </trkpt>
      <trkpt lat="46.13613" lon="1.84076">
        <ele>651</ele>
        <time>2016-12-09T03:17:09Z</time>
      </trkpt>
      <trkpt lat="46.13613" lon="1.84077">
        <ele>651</ele>
        <time>2016-12-09T03:19:09Z</time>
      </trkpt>
      <trkpt lat="46.13612" lon="1.8408">
        <ele>651</ele>
        <time>2016-12-09T03:21:09Z</time>
      </trkpt>
      <trkpt lat="46.1361" lon="1.84092">
        <ele>652</ele>
        <time>2016-12-09T03:23:09Z</time>
      </trkpt>
      <trkpt lat="46.13609" lon="1.84094">
        <ele>653</ele>
        <time>2016-12-09T03:25:09Z</time>
      </trkpt>
      <trkpt lat="46.13608" lon="1.84099">
        <ele>653</ele>
        <time>2016-12-09T03:27:09Z</time>
      </trkpt>
      <trkpt lat="46.13606" lon="1.84106">
        <ele>654</ele>
        <time>2016-12-09T03:29:09Z</time>
      </trkpt>
      <trkpt lat="46.13606" lon="1.84109">
        <ele>654</ele>
        <time>2016-12-09T03:31:09Z</time>
      </trkpt>
      <trkpt lat="46.13604" lon="1.84119">
        <ele>655</ele>
        <time>2016-12-09T03:33:09Z</time>
      </trkpt>
      <trkpt lat="46.13604" lon="1.84121">
        <ele>655</ele>
        <time>2016-12-09T03:35:09Z</time>
      </trkpt>
      <trkpt lat="46.13606" lon="1.84126">
        <ele>655</ele>
        <time>2016-12-09T03:37:09Z</time>
      </trkpt>
      <trkpt lat="46.13606" lon="1.84129">
        <ele>655</ele>
        <time>2016-12-09T03:39:09Z</time>
      </trkpt>
      <trkpt lat="46.13607" lon="1.84132">
        <ele>655</ele>
        <time>2016-12-09T03:41:09Z</time>
      </trkpt>
      <trkpt lat="46.13607" lon="1.84134">
        <ele>655</ele>
        <time>2016-12-09T03:43:09Z</time>
      </trkpt>
      <trkpt lat="46.13607" lon="1.84137">
        <ele>655</ele>
        <time>2016-12-09T03:45:09Z</time>
      </trkpt>
      <trkpt lat="46.13609" lon="1.8414">
        <ele>655</ele>
        <time>2016-12-09T03:47:09Z</time>
      </trkpt>
      <trkpt lat="46.13609" lon="1.84144">
        <ele>656</ele>
        <time>2016-12-09T03:49:09Z</time>
      </trkpt>
      <trkpt lat="46.13609" lon="1.84147">
        <ele>656</ele>
        <time>2016-12-09T03:51:09Z</time>
      </trkpt>
      <trkpt lat="46.1361" lon="1.8415">
        <ele>656</ele>
        <time>2016-12-09T03:53:09Z</time>
      </trkpt>
      <trkpt lat="46.13611" lon="1.84153">
        <ele>656</ele>
        <time>2016-12-09T03:55:09Z</time>
      </trkpt>
      <trkpt lat="46.13612" lon="1.84161">
        <ele>656</ele>
        <time>2016-12-09T03:57:09Z</time>
      </trkpt>
      <trkpt lat="46.13613" lon="1.84164">
        <ele>656</ele>
        <time>2016-12-09T03:59:09Z</time>
      </trkpt>
      <trkpt lat="46.13614" lon="1.84168">
        <ele>656</ele>
        <time>2016-12-09T04:01:09Z</time>
      </trkpt>
      <trkpt lat="46.13614" lon="1.84172">
        <ele>657</ele>
        <time>2016-12-09T04:03:09Z</time>
      </trkpt>
      <trkpt lat="46.13615" lon="1.84174">
        <ele>657</ele>
        <time>2016-12-09T04:05:09Z</time>
      </trkpt>
      <trkpt lat="46.13615" lon="1.84176">
        <ele>657</ele>
        <time>2016-12-09T04:07:09Z</time>
      </trkpt>
      <trkpt lat="46.13614" lon="1.84178">
        <ele>657</ele>
        <time>2016-12-09T04:09:09Z</time>
      </trkpt>
      <trkpt lat="46.13612" lon="1.84181">
        <ele>658</ele>
        <time>2016-12-09T04:11:09Z</time>
      </trkpt>
      <trkpt lat="46.1361" lon="1.84183">
        <ele>658</ele>
        <time>2016-12-09T04:13:09Z</time>
      </trkpt>
      <trkpt lat="46.13605" lon="1.84186">
        <ele>660</ele>
        <time>2016-12-09T04:15:09Z</time>
      </trkpt>
      <trkpt lat="46.13604" lon="1.84187">
        <ele>660</ele>
        <time>2016-12-09T04:17:09Z</time>
      </trkpt>
      <trkpt lat="46.13603" lon="1.84187">
        <ele>660</ele>
        <time>2016-12-09T04:19:09Z</time>
      </trkpt>
      <trkpt lat="46.13599" lon="1.8419">
        <ele>661</ele>
        <time>2016-12-09T04:21:09Z</time>
      </trkpt>
      <trkpt lat="46.13597" lon="1.84191">
        <ele>661</ele>
        <time>2016-12-09T04:23:09Z</time>
      </trkpt>
      <trkpt lat="46.13595" lon="1.84191">
        <ele>662</ele>
        <time>2016-12-09T04:25:09Z</time>
      </trkpt>
      <trkpt lat="46.13593" lon="1.84192">
        <ele>662</ele>
        <time>2016-12-09T04:27:09Z</time>
      </trkpt>
      <trkpt lat="46.13591" lon="1.84192">
        <ele>662</ele>
        <time>2016-12-09T04:29:09Z</time>
      </trkpt>
      <trkpt lat="46.13587" lon="1.84192">
        <ele>663</ele>
        <time>2016-12-09T04:31:09Z</time>
      </trkpt>
      <trkpt lat="46.13584" lon="1.84192">
        <ele>664</ele>
        <time>2016-12-09T04:33:09Z</time>
      </trkpt>
      <trkpt lat="46.13583" lon="1.84193">
        <ele>664</ele>
        <time>2016-12-09T04:35:09Z</time>
      </trkpt>
      <trkpt lat="46.13581" lon="1.84194">
        <ele>664</ele>
        <time>2016-12-09T04:37:09Z</time>
      </trkpt>
      <trkpt lat="46.13578" lon="1.84194">
        <ele>664</ele>
        <time>2016-12-09T04:39:09Z</time>
      </trkpt>
      <trkpt lat="46.13575" lon="1.84195">
        <ele>664</ele>
        <time>2016-12-09T04:41:09Z</time>
      </trkpt>
      <trkpt lat="46.13573" lon="1.84195">
        <ele>664</ele>
        <time>2016-12-09T04:43:09Z</time>
      </trkpt>
      <trkpt lat="46.1357" lon="1.84197">
        <ele>664</ele>
        <time>2016-12-09T04:45:09Z</time>
      </trkpt>
      <trkpt lat="46.13561" lon="1.842">
        <ele>664</ele>
        <time>2016-12-09T04:47:09Z</time>
      </trkpt>
      <trkpt lat="46.13558" lon="1.84201">
        <ele>664</ele>
        <time>2016-12-09T04:49:09Z</time>
      </trkpt>
      <trkpt lat="46.13554" lon="1.84204">
        <ele>664</ele>
        <time>2016-12-09T04:51:09Z</time>
      </trkpt>
      <trkpt lat="46.13551" lon="1.84208">
        <ele>665</ele>
        <time>2016-12-09T04:53:09Z</time>
      </trkpt>
      <trkpt lat="46.13542" lon="1.84214">
        <ele>665</ele>
        <time>2016-12-09T04:55:09Z</time>
      </trkpt>
      <trkpt lat="46.1354" lon="1.84214">
        <ele>665</ele>
        <time>2016-12-09T04:57:09Z</time>
      </trkpt>
      <trkpt lat="46.13538" lon="1.84215">
        <ele>665</ele>
        <time>2016-12-09T04:59:09Z</time>
      </trkpt>
      <trkpt lat="46.13537" lon="1.84217">
        <ele>665</ele>
        <time>2016-12-09T05:01:09Z</time>
      </trkpt>
      <trkpt lat="46.13535" lon="1.84219">
        <ele>665</ele>
        <time>2016-12-09T05:03:09Z</time>
      </trkpt>
      <trkpt lat="46.13535" lon="1.84221">
        <ele>666</ele>
        <time>2016-12-09T05:05:09Z</time>
      </trkpt>
      <trkpt lat="46.13532" lon="1.84226">
        <ele>666</ele>
        <time>2016-12-09T05:07:09Z</time>
      </trkpt>
      <trkpt lat="46.13532" lon="1.84228">
        <ele>666</ele>
        <time>2016-12-09T05:09:09Z</time>
      </trkpt>
      <trkpt lat="46.13531" lon="1.84232">
        <ele>667</ele>
        <time>2016-12-09T05:11:09Z</time>
      </trkpt>
      <trkpt lat="46.13529" lon="1.84235">
        <ele>667</ele>
        <time>2016-12-09T05:13:09Z</time>
      </trkpt>
      <trkpt lat="46.13526" lon="1.84239">
        <ele>667</ele>
        <time>2016-12-09T05:15:09Z</time>
      </trkpt>
      <trkpt lat="46.13521" lon="1.84243">
        <ele>668</ele>
        <time>2016-12-09T05:17:09Z</time>
      </trkpt>
      <trkpt lat="46.13515" lon="1.84244">
        <ele>668</ele>
        <time>2016-12-09T05:19:09Z</time>
      </trkpt>
      <trkpt lat="46.13513" lon="1.84247">
        <ele>668</ele>
        <time>2016-12-09T05:21:09Z</time>
      </trkpt>
      <trkpt lat="46.13511" lon="1.84249">
        <ele>668</ele>
        <time>2016-12-09T05:23:09Z</time>
      </trkpt>
      <trkpt lat="46.13507" lon="1.84248">
        <ele>668</ele>
        <time>2016-12-09T05:25:09Z</time>
      </trkpt>
      <trkpt lat="46.13506" lon="1.84249">
        <ele>668</ele>
        <time>2016-12-09T05:27:09Z</time>
      </trkpt>
      <trkpt lat="46.13501" lon="1.84253">
        <ele>668</ele>
        <time>2016-12-09T05:29:09Z</time>
      </trkpt>
      <trkpt lat="46.13497" lon="1.84254">
        <ele>668</ele>
        <time>2016-12-09T05:31:09Z</time>
      </trkpt>
      <trkpt lat="46.13494" lon="1.84258">
        <ele>668</ele>
        <time>2016-12-09T05:33:09Z</time>
      </trkpt>
      <trkpt lat="46.13492" lon="1.84261">
        <ele>668</ele>
        <time>2016-12-09T05:35:09Z</time>
      </trkpt>
      <trkpt lat="46.13487" lon="1.84267">
        <ele>668</ele>
        <time>2016-12-09T05:37:09Z</time>
      </trkpt>
      <trkpt lat="46.13486" lon="1.84269">
        <ele>668</ele>
        <time>2016-12-09T05:39:09Z</time>
      </trkpt>
      <trkpt lat="46.13484" lon="1.84271">
        <ele>668</ele>
        <time>2016-12-09T05:41:09Z</time>
      </trkpt>
      <trkpt lat="46.13483" lon="1.84274">
        <ele>668</ele>
        <time>2016-12-09T05:43:09Z</time>
      </trkpt>
      <trkpt lat="46.13483" lon="1.84278">
        <ele>669</ele>
        <time>2016-12-09T05:45:09Z</time>
      </trkpt>
      <trkpt lat="46.13482" lon="1.84279">
        <ele>669</ele>
        <time>2016-12-09T05:47:09Z</time>
      </trkpt>
      <trkpt lat="46.13481" lon="1.8428">
        <ele>669</ele>
        <time>2016-12-09T05:49:09Z</time>
      </trkpt>
      <trkpt lat="46.1348" lon="1.84281">
        <ele>669</ele>
        <time>2016-12-09T05:51:09Z</time>
      </trkpt>
      <trkpt lat="46.13479" lon="1.84283">
        <ele>669</ele>
        <time>2016-12-09T05:53:09Z</time>
      </trkpt>
      <trkpt lat="46.13477" lon="1.84283">
        <ele>669</ele>
        <time>2016-12-09T05:55:09Z</time>
      </trkpt>
      <trkpt lat="46.13476" lon="1.84284">
        <ele>669</ele>
        <time>2016-12-09T05:57:09Z</time>
      </trkpt>
      <trkpt lat="46.13473" lon="1.84283">
        <ele>668</ele>
        <time>2016-12-09T05:59:09Z</time>
      </trkpt>
      <trkpt lat="46.13471" lon="1.84285">
        <ele>668</ele>
        <time>2016-12-09T06:01:09Z</time>
      </trkpt>
      <trkpt lat="46.13467" lon="1.84287">
        <ele>668</ele>
        <time>2016-12-09T06:03:09Z</time>
      </trkpt>
      <trkpt lat="46.13466" lon="1.84288">
        <ele>668</ele>
        <time>2016-12-09T06:05:09Z</time>
      </trkpt>
      <trkpt lat="46.13464" lon="1.84288">
        <ele>668</ele>
        <time>2016-12-09T06:07:09Z</time>
      </trkpt>
      <trkpt lat="46.13462" lon="1.84292">
        <ele>668</ele>
        <time>2016-12-09T06:09:09Z</time>
      </trkpt>
      <trkpt lat="46.1346" lon="1.84293">
        <ele>668</ele>
        <time>2016-12-09T06:11:09Z</time>
      </trkpt>
      <trkpt lat="46.13458" lon="1.84296">
        <ele>669</ele>
        <time>2016-12-09T06:13:09Z</time>
      </trkpt>
      <trkpt lat="46.13455" lon="1.84301">
        <ele>669</ele>
        <time>2016-12-09T06:15:09Z</time>
      </trkpt>
      <trkpt lat="46.13455" lon="1.84303">
        <ele>669</ele>
        <time>2016-12-09T06:17:09Z</time>
      </trkpt>
      <trkpt lat="46.13451" lon="1.8431">
        <ele>670</ele>
        <time>2016-12-09T06:19:09Z</time>
      </trkpt>
      <trkpt lat="46.13449" lon="1.84313">
        <ele>670</ele>
        <time>2016-12-09T06:21:09Z</time>
      </trkpt>
      <trkpt lat="46.13448" lon="1.84316">
        <ele>670</ele>
        <time>2016-12-09T06:23:09Z</time>
      </trkpt>
      <trkpt lat="46.13446" lon="1.84318">
        <ele>671</ele>
        <time>2016-12-09T06:25:09Z</time>
      </trkpt>
      <trkpt lat="46.13442" lon="1.8432">
        <ele>671</ele>
        <time>2016-12-09T06:27:09Z</time>
      </trkpt>
      <trkpt lat="46.13441" lon="1.84322">
        <ele>671</ele>
        <time>2016-12-09T06:29:09Z</time>
      </trkpt>
      <trkpt lat="46.1344" lon="1.84325">
        <ele>671</ele>
        <time>2016-12-09T06:31:09Z</time>
      </trkpt>
      <trkpt lat="46.1344" lon="1.8433">
        <ele>672</ele>
        <time>2016-12-09T06:33:09Z</time>
      </trkpt>
      <trkpt lat="46.13438" lon="1.84334">
        <ele>672</ele>
        <time>2016-12-09T06:35:09Z</time>
      </trkpt>
      <trkpt lat="46.13436" lon="1.84336">
        <ele>672</ele>
        <time>2016-12-09T06:37:09Z</time>
      </trkpt>
      <trkpt lat="46.13435" lon="1.84338">
        <ele>673</ele>
        <time>2016-12-09T06:39:09Z</time>
      </trkpt>
      <trkpt lat="46.13435" lon="1.8434">
        <ele>673</ele>
        <time>2016-12-09T06:41:09Z</time>
      </trkpt>
      <trkpt lat="46.13432" lon="1.8435">
        <ele>674</ele>
        <time>2016-12-09T06:43:09Z</time>
      </trkpt>
      <trkpt lat="46.13432" lon="1.84354">
        <ele>674</ele>
        <time>2016-12-09T06:45:09Z</time>
      </trkpt>
      <trkpt lat="46.13431" lon="1.84358">
        <ele>674</ele>
        <time>2016-12-09T06:47:09Z</time>
      </trkpt>
      <trkpt lat="46.13428" lon="1.84362">
        <ele>675</ele>
        <time>2016-12-09T06:49:09Z</time>
      </trkpt>
      <trkpt lat="46.13426" lon="1.84364">
        <ele>675</ele>
        <time>2016-12-09T06:51:09Z</time>
      </trkpt>
      <trkpt lat="46.13419" lon="1.84376">
        <ele>676</ele>
        <time>2016-12-09T06:53:09Z</time>
      </trkpt>
      <trkpt lat="46.13418" lon="1.84379">
        <ele>676</ele>
        <time>2016-12-09T06:55:09Z</time>
      </trkpt>
      <trkpt lat="46.13417" lon="1.84381">
        <ele>676</ele>
        <time>2016-12-09T06:57:09Z</time>
      </trkpt>
      <trkpt lat="46.13416" lon="1.84383">
        <ele>676</ele>
        <time>2016-12-09T06:59:09Z</time>
      </trkpt>
      <trkpt lat="46.13415" lon="1.84385">
        <ele>676</ele>
        <time>2016-12-09T07:01:09Z</time>
      </trkpt>
      <trkpt lat="46.13415" lon="1.84392">
        <ele>677</ele>
        <time>2016-12-09T07:03:09Z</time>
      </trkpt>
      <trkpt lat="46.13415" lon="1.84394">
        <ele>677</ele>
        <time>2016-12-09T07:05:09Z</time>
      </trkpt>
      <trkpt lat="46.13415" lon="1.84398">
        <ele>678</ele>
        <time>2016-12-09T07:07:09Z</time>
      </trkpt>
      <trkpt lat="46.13416" lon="1.84401">
        <ele>678</ele>
        <time>2016-12-09T07:09:09Z</time>
      </trkpt>
      <trkpt lat="46.13417" lon="1.84403">
        <ele>679</ele>
        <time>2016-12-09T07:11:09Z</time>
      </trkpt>
      <trkpt lat="46.13418" lon="1.84405">
        <ele>679</ele>
        <time>2016-12-09T07:13:09Z</time>
      </trkpt>
      <trkpt lat="46.13418" lon="1.84406">
        <ele>679</ele>
        <time>2016-12-09T07:15:09Z</time>
      </trkpt>
      <trkpt lat="46.13419" lon="1.84407">
        <ele>679</ele>
        <time>2016-12-09T07:17:09Z</time>
      </trkpt>
      <trkpt lat="46.1342" lon="1.84411">
        <ele>679</ele>
        <time>2016-12-09T07:19:09Z</time>
      </trkpt>
      <trkpt lat="46.1342" lon="1.84414">
        <ele>680</ele>
        <time>2016-12-09T07:21:09Z</time>
      </trkpt>
      <trkpt lat="46.13421" lon="1.84418">
        <ele>680</ele>
        <time>2016-12-09T07:23:09Z</time>
      </trkpt>
      <trkpt lat="46.13421" lon="1.84419">
        <ele>680</ele>
        <time>2016-12-09T07:25:09Z</time>
      </trkpt>
      <trkpt lat="46.13421" lon="1.84421">
        <ele>681</ele>
        <time>2016-12-09T07:27:09Z</time>
      </trkpt>
      <trkpt lat="46.13422" lon="1.84423">
        <ele>681</ele>
        <time>2016-12-09T07:29:09Z</time>
      </trkpt>
      <trkpt lat="46.13424" lon="1.84426">
        <ele>681</ele>
        <time>2016-12-09T07:31:09Z</time>
      </trkpt>
      <trkpt lat="46.13428" lon="1.8443">
        <ele>682</ele>
        <time>2016-12-09T07:33:09Z</time>
      </trkpt>
      <trkpt lat="46.13434" lon="1.84433">
        <ele>682</ele>
        <time>2016-12-09T07:35:09Z</time>
      </trkpt>
      <trkpt lat="46.13436" lon="1.84437">
        <ele>682</ele>
        <time>2016-12-09T07:37:09Z</time>
      </trkpt>
      <trkpt lat="46.1344" lon="1.84441">
        <ele>683</ele>
        <time>2016-12-09T07:39:09Z</time>
      </trkpt>
      <trkpt lat="46.1344" lon="1.84442">
        <ele>683</ele>
        <time>2016-12-09T07:41:09Z</time>
      </trkpt>
      <trkpt lat="46.13441" lon="1.84445">
        <ele>683</ele>
        <time>2016-12-09T07:43:09Z</time>
      </trkpt>
      <trkpt lat="46.13441" lon="1.84447">
        <ele>684</ele>
        <time>2016-12-09T07:45:09Z</time>
      </trkpt>
      <trkpt lat="46.13442" lon="1.84449">
        <ele>684</ele>
        <time>2016-12-09T07:47:09Z</time>
      </trkpt>
      <trkpt lat="46.13442" lon="1.84451">
        <ele>684</ele>
        <time>2016-12-09T07:49:09Z</time>
      </trkpt>
      <trkpt lat="46.13442" lon="1.84452">
        <ele>684</ele>
        <time>2016-12-09T07:51:09Z</time>
      </trkpt>
      <trkpt lat="46.13443" lon="1.84456">
        <ele>684</ele>
        <time>2016-12-09T07:53:09Z</time>
      </trkpt>
      <trkpt lat="46.13443" lon="1.84458">
        <ele>685</ele>
        <time>2016-12-09T07:55:09Z</time>
      </trkpt>
      <trkpt lat="46.13442" lon="1.84459">
        <ele>685</ele>
        <time>2016-12-09T07:57:09Z</time>
      </trkpt>
      <trkpt lat="46.13442" lon="1.84461">
        <ele>685</ele>
        <time>2016-12-09T07:59:09Z</time>
      </trkpt>
      <trkpt lat="46.13443" lon="1.84462">
        <ele>685</ele>
        <time>2016-12-09T08:01:09Z</time>
      </trkpt>
      <trkpt lat="46.13443" lon="1.84464">
        <ele>685</ele>
        <time>2016-12-09T08:03:09Z</time>
      </trkpt>
      <trkpt lat="46.13442" lon="1.84467">
        <ele>685</ele>
        <time>2016-12-09T08:05:09Z</time>
      </trkpt>
      <trkpt lat="46.13443" lon="1.84469">
        <ele>686</ele>
        <time>2016-12-09T08:07:09Z</time>
      </trkpt>
      <trkpt lat="46.13445" lon="1.84473">
        <ele>686</ele>
        <time>2016-12-09T08:09:09Z</time>
      </trkpt>
      <trkpt lat="46.13445" lon="1.84475">
        <ele>686</ele>
        <time>2016-12-09T08:11:09Z</time>
      </trkpt>
      <trkpt lat="46.13445" lon="1.84477">
        <ele>686</ele>
        <time>2016-12-09T08:13:09Z</time>
      </trkpt>
      <trkpt lat="46.13446" lon="1.84481">
        <ele>687</ele>
        <time>2016-12-09T08:15:09Z</time>
      </trkpt>
      <trkpt lat="46.13447" lon="1.84483">
        <ele>687</ele>
        <time>2016-12-09T08:17:09Z</time>
      </trkpt>
      <trkpt lat="46.13449" lon="1.84486">
        <ele>687</ele>
        <time>2016-12-09T08:19:09Z</time>
      </trkpt>
      <trkpt lat="46.13449" lon="1.84489">
        <ele>688</ele>
        <time>2016-12-09T08:21:09Z</time>
      </trkpt>
      <trkpt lat="46.13449" lon="1.84492">
        <ele>688</ele>
        <time>2016-12-09T08:23:09Z</time>
      </trkpt>
      <trkpt lat="46.13449" lon="1.84495">
        <ele>688</ele>
        <time>2016-12-09T08:25:09Z</time>
      </trkpt>
      <trkpt lat="46.13449" lon="1.84513">
        <ele>689</ele>
        <time>2016-12-09T08:27:09Z</time>
      </trkpt>
      <trkpt lat="46.1345" lon="1.84515">
        <ele>689</ele>
        <time>2016-12-09T08:29:09Z</time>
      </trkpt>
      <trkpt lat="46.1345" lon="1.84518">
        <ele>690</ele>
        <time>2016-12-09T08:31:09Z</time>
      </trkpt>
      <trkpt lat="46.13451" lon="1.84525">
        <ele>690</ele>
        <time>2016-12-09T08:33:09Z</time>
      </trkpt>
      <trkpt lat="46.13451" lon="1.84528">
        <ele>690</ele>
        <time>2016-12-09T08:35:09Z</time>
      </trkpt>
      <trkpt lat="46.13451" lon="1.84531">
        <ele>690</ele>
        <time>2016-12-09T08:37:09Z</time>
      </trkpt>
      <trkpt lat="46.13449" lon="1.84534">
        <ele>690</ele>
        <time>2016-12-09T08:39:09Z</time>
      </trkpt>
      <trkpt lat="46.13447" lon="1.84539">
        <ele>691</ele>
        <time>2016-12-09T08:41:09Z</time>
      </trkpt>
      <trkpt lat="46.13445" lon="1.84542">
        <ele>691</ele>
        <time>2016-12-09T08:43:09Z</time>
      </trkpt>
      <trkpt lat="46.13443" lon="1.84549">
        <ele>691</ele>
        <time>2016-12-09T08:45:09Z</time>
      </trkpt>
      <trkpt lat="46.13441" lon="1.84555">
        <ele>692</ele>
        <time>2016-12-09T08:47:09Z</time>
      </trkpt>
      <trkpt lat="46.13441" lon="1.84559">
        <ele>692</ele>
        <time>2016-12-09T08:49:09Z</time>
      </trkpt>
      <trkpt lat="46.13442" lon="1.84563">
        <ele>692</ele>
        <time>2016-12-09T08:51:09Z</time>
      </trkpt>
      <trkpt lat="46.13446" lon="1.84575">
        <ele>693</ele>
        <time>2016-12-09T08:53:09Z</time>
      </trkpt>
      <trkpt lat="46.13448" lon="1.84586">
        <ele>693</ele>
        <time>2016-12-09T08:55:09Z</time>
      </trkpt>
      <trkpt lat="46.13448" lon="1.84595">
        <ele>693</ele>
        <time>2016-12-09T08:57:09Z</time>
      </trkpt>
      <trkpt lat="46.13449" lon="1.84599">
        <ele>693</ele>
        <time>2016-12-09T08:59:09Z</time>
      </trkpt>
      <trkpt lat="46.1345" lon="1.84602">
        <ele>693</ele>
        <time>2016-12-09T09:01:09Z</time>
      </trkpt>
      <trkpt lat="46.13452" lon="1.84606">
        <ele>692</ele>
        <time>2016-12-09T09:03:09Z</time>
      </trkpt>
      <trkpt lat="46.13453" lon="1.8461">
        <ele>692</ele>
        <time>2016-12-09T09:05:09Z</time>
      </trkpt>
      <trkpt lat="46.13454" lon="1.84613">
        <ele>692</ele>
        <time>2016-12-09T09:07:09Z</time>
      </trkpt>
      <trkpt lat="46.13458" lon="1.84623">
        <ele>692</ele>
        <time>2016-12-09T09:09:09Z</time>
      </trkpt>
      <trkpt lat="46.13459" lon="1.84626">
        <ele>691</ele>
        <time>2016-12-09T09:11:09Z</time>
      </trkpt>
      <trkpt lat="46.1346" lon="1.84633">
        <ele>691</ele>
        <time>2016-12-09T09:13:09Z</time>
      </trkpt>
      <trkpt lat="46.13462" lon="1.84637">
        <ele>691</ele>
        <time>2016-12-09T09:15:09Z</time>
      </trkpt>
      <trkpt lat="46.13465" lon="1.84645">
        <ele>691</ele>
        <time>2016-12-09T09:17:09Z</time>
      </trkpt>
      <trkpt lat="46.13466" lon="1.84649">
        <ele>691</ele>
        <time>2016-12-09T09:19:09Z</time>
      </trkpt>
      <trkpt lat="46.13466" lon="1.84652">
        <ele>691</ele>
        <time>2016-12-09T09:21:09Z</time>
      </trkpt>
      <trkpt lat="46.13466" lon="1.84656">
        <ele>691</ele>
        <time>2016-12-09T09:23:09Z</time>
      </trkpt>
      <trkpt lat="46.13465" lon="1.84659">
        <ele>691</ele>
        <time>2016-12-09T09:25:09Z</time>
      </trkpt>
      <trkpt lat="46.13461" lon="1.84666">
        <ele>691</ele>
        <time>2016-12-09T09:27:09Z</time>
      </trkpt>
      <trkpt lat="46.13459" lon="1.84669">
        <ele>691</ele>
        <time>2016-12-09T09:29:09Z</time>
      </trkpt>
      <trkpt lat="46.13455" lon="1.84672">
        <ele>691</ele>
        <time>2016-12-09T09:31:09Z</time>
      </trkpt>
      <trkpt lat="46.13454" lon="1.84674">
        <ele>691</ele>
        <time>2016-12-09T09:33:09Z</time>
      </trkpt>
      <trkpt lat="46.13441" lon="1.84681">
        <ele>691</ele>
        <time>2016-12-09T09:35:09Z</time>
      </trkpt>
      <trkpt lat="46.13438" lon="1.84683">
        <ele>692</ele>
        <time>2016-12-09T09:37:09Z</time>
      </trkpt>
      <trkpt lat="46.13437" lon="1.84685">
        <ele>691</ele>
        <time>2016-12-09T09:39:09Z</time>
      </trkpt>
      <trkpt lat="46.13436" lon="1.84688">
        <ele>691</ele>
        <time>2016-12-09T09:41:09Z</time>
      </trkpt>
      <trkpt lat="46.13434" lon="1.84693">
        <ele>691</ele>
        <time>2016-12-09T09:43:09Z</time>
      </trkpt>
      <trkpt lat="46.13433" lon="1.84697">
        <ele>691</ele>
        <time>2016-12-09T09:45:09Z</time>
      </trkpt>
      <trkpt lat="46.13433" lon="1.84701">
        <ele>691</ele>
        <time>2016-12-09T09:47:09Z</time>
      </trkpt>
      <trkpt lat="46.13433" lon="1.84704">
        <ele>690</ele>
        <time>2016-12-09T09:49:09Z</time>
      </trkpt>
      <trkpt lat="46.13432" lon="1.84708">
        <ele>690</ele>
        <time>2016-12-09T09:51:09Z</time>
      </trkpt>
      <trkpt lat="46.13432" lon="1.84711">
        <ele>690</ele>
        <time>2016-12-09T09:53:09Z</time>
      </trkpt>
      <trkpt lat="46.13434" lon="1.84718">
        <ele>690</ele>
        <time>2016-12-09T09:55:09Z</time>
      </trkpt>
      <trkpt lat="46.13435" lon="1.84722">
        <ele>689</ele>
        <time>2016-12-09T09:57:09Z</time>
      </trkpt>
      <trkpt lat="46.13435" lon="1.84728">
        <ele>689</ele>
        <time>2016-12-09T09:59:09Z</time>
      </trkpt>
      <trkpt lat="46.13434" lon="1.84733">
        <ele>689</ele>
        <time>2016-12-09T10:01:09Z</time>
      </trkpt>
      <trkpt lat="46.13435" lon="1.84744">
        <ele>688</ele>
        <time>2016-12-09T10:03:09Z</time>
      </trkpt>
      <trkpt lat="46.13434" lon="1.84749">
        <ele>688</ele>
        <time>2016-12-09T10:05:09Z</time>
      </trkpt>
      <trkpt lat="46.13434" lon="1.84752">
        <ele>688</ele>
        <time>2016-12-09T10:07:09Z</time>
      </trkpt>
      <trkpt lat="46.13434" lon="1.84762">
        <ele>688</ele>
        <time>2016-12-09T10:09:09Z</time>
      </trkpt>
      <trkpt lat="46.13434" lon="1.84765">
        <ele>688</ele>
        <time>2016-12-09T10:11:09Z</time>
      </trkpt>
      <trkpt lat="46.13434" lon="1.84768">
        <ele>688</ele>
        <time>2016-12-09T10:13:09Z</time>
      </trkpt>
      <trkpt lat="46.13435" lon="1.84781">
        <ele>688</ele>
        <time>2016-12-09T10:15:09Z</time>
      </trkpt>
      <trkpt lat="46.13434" lon="1.84784">
        <ele>688</ele>
        <time>2016-12-09T10:17:09Z</time>
      </trkpt>
      <trkpt lat="46.13434" lon="1.84787">
        <ele>688</ele>
        <time>2016-12-09T10:19:09Z</time>
      </trkpt>
      <trkpt lat="46.13435" lon="1.84791">
        <ele>688</ele>
        <time>2016-12-09T10:21:09Z</time>
      </trkpt>
      <trkpt lat="46.13435" lon="1.84794">
        <ele>688</ele>
        <time>2016-12-09T10:23:09Z</time>
      </trkpt>
      <trkpt lat="46.13436" lon="1.84798">
        <ele>688</ele>
        <time>2016-12-09T10:25:09Z</time>
      </trkpt>
      <trkpt lat="46.13437" lon="1.84804">
        <ele>688</ele>
        <time>2016-12-09T10:27:09Z</time>
      </trkpt>
      <trkpt lat="46.13439" lon="1.84807">
        <ele>688</ele>
        <time>2016-12-09T10:29:09Z</time>
      </trkpt>
      <trkpt lat="46.1344" lon="1.84811">
        <ele>688</ele>
        <time>2016-12-09T10:31:09Z</time>
      </trkpt>
      <trkpt lat="46.13439" lon="1.84815">
        <ele>688</ele>
        <time>2016-12-09T10:33:09Z</time>
      </trkpt>
      <trkpt lat="46.1344" lon="1.84818">
        <ele>688</ele>
        <time>2016-12-09T10:35:09Z</time>
      </trkpt>
      <trkpt lat="46.13443" lon="1.84822">
        <ele>688</ele>
        <time>2016-12-09T10:37:09Z</time>
      </trkpt>
      <trkpt lat="46.13443" lon="1.84822">
        <ele>688</ele>
        <time>2016-12-09T10:39:09Z</time>
      </trkpt>
      <trkpt lat="46.13443" lon="1.84822">
        <ele>688</ele>
        <time>2016-12-09T10:41:09Z</time>
      </trkpt>
      <trkpt lat="46.13443" lon="1.84822">
        <ele>688</ele>
        <time>2016-12-09T10:43:09Z</time>
      </trkpt>
      <trkpt lat="46.13445" lon="1.84824">
        <ele>688</ele>
        <time>2016-12-09T10:45:09Z</time>
      </trkpt>
      <trkpt lat="46.13441" lon="1.84819">
        <ele>688</ele>
        <time>2016-12-09T10:47:09Z</time>
      </trkpt>
      <trkpt lat="46.13446" lon="1.84821">
        <ele>688</ele>
        <time>2016-12-09T10:49:09Z</time>
      </trkpt>
      <trkpt lat="46.13445" lon="1.84823">
        <ele>688</ele>
        <time>2016-12-09T10:51:09Z</time>
      </trkpt>
      <trkpt lat="46.13445" lon="1.84826">
        <ele>688</ele>
        <time>2016-12-09T10:53:09Z</time>
      </trkpt>
      <trkpt lat="46.13442" lon="1.84824">
        <ele>688</ele>
        <time>2016-12-09T10:55:09Z</time>
      </trkpt>
      <trkpt lat="46.13443" lon="1.84822">
        <ele>688</ele>
        <time>2016-12-09T10:57:09Z</time>
      </trkpt>
      <trkpt lat="46.13443" lon="1.84823">
        <ele>688</ele>
        <time>2016-12-09T10:59:09Z</time>
      </trkpt>
      <trkpt lat="46.13443" lon="1.84822">
        <ele>688</ele>
        <time>2016-12-09T11:01:09Z</time>
      </trkpt>
      <trkpt lat="46.13443" lon="1.84822">
        <ele>688</ele>
        <time>2016-12-09T11:03:09Z</time>
      </trkpt>
      <trkpt lat="46.13443" lon="1.84822">
        <ele>688</ele>
        <time>2016-12-09T11:05:09Z</time>
      </trkpt>
      <trkpt lat="46.13443" lon="1.84824">
        <ele>688</ele>
        <time>2016-12-09T11:07:09Z</time>
      </trkpt>
      <trkpt lat="46.13442" lon="1.84826">
        <ele>688</ele>
        <time>2016-12-09T11:09:09Z</time>
      </trkpt>
      <trkpt lat="46.13438" lon="1.84827">
        <ele>688</ele>
        <time>2016-12-09T11:11:09Z</time>
      </trkpt>
      <trkpt lat="46.13451" lon="1.84833">
        <ele>688</ele>
        <time>2016-12-09T11:13:09Z</time>
      </trkpt>
      <trkpt lat="46.1345" lon="1.84835">
        <ele>688</ele>
        <time>2016-12-09T11:15:09Z</time>
      </trkpt>
      <trkpt lat="46.13448" lon="1.84837">
        <ele>688</ele>
        <time>2016-12-09T11:17:09Z</time>
      </trkpt>
      <trkpt lat="46.13447" lon="1.84838">
        <ele>688</ele>
        <time>2016-12-09T11:19:09Z</time>
      </trkpt>
      <trkpt lat="46.13436" lon="1.84841">
        <ele>687</ele>
        <time>2016-12-09T11:21:09Z</time>
      </trkpt>
      <trkpt lat="46.13434" lon="1.84843">
        <ele>687</ele>
        <time>2016-12-09T11:23:09Z</time>
      </trkpt>
      <trkpt lat="46.13424" lon="1.84848">
        <ele>687</ele>
        <time>2016-12-09T11:25:09Z</time>
      </trkpt>
      <trkpt lat="46.13414" lon="1.8485">
        <ele>687</ele>
        <time>2016-12-09T11:27:09Z</time>
      </trkpt>
      <trkpt lat="46.13407" lon="1.84852">
        <ele>685</ele>
        <time>2016-12-09T11:29:09Z</time>
      </trkpt>
      <trkpt lat="46.13401" lon="1.84854">
        <ele>684</ele>
        <time>2016-12-09T11:31:09Z</time>
      </trkpt>
      <trkpt lat="46.13393" lon="1.84856">
        <ele>683</ele>
        <time>2016-12-09T11:33:09Z</time>
      </trkpt>
      <trkpt lat="46.13386" lon="1.84862">
        <ele>681</ele>
        <time>2016-12-09T11:35:09Z</time>
      </trkpt>
      <trkpt lat="46.1338" lon="1.84867">
        <ele>680</ele>
        <time>2016-12-09T11:37:09Z</time>
      </trkpt>
      <trkpt lat="46.13376" lon="1.84869">
        <ele>679</ele>
        <time>2016-12-09T11:39:09Z</time>
      </trkpt>
      <trkpt lat="46.13371" lon="1.84871">
        <ele>678</ele>
        <time>2016-12-09T11:41:09Z</time>
      </trkpt>
      <trkpt lat="46.13357" lon="1.84874">
        <ele>676</ele>
        <time>2016-12-09T11:43:09Z</time>
      </trkpt>
      <trkpt lat="46.1335" lon="1.84876">
        <ele>674</ele>
        <time>2016-12-09T11:45:09Z</time>
      </trkpt>
      <trkpt lat="46.13347" lon="1.84877">
        <ele>674</ele>
        <time>2016-12-09T11:47:09Z</time>
      </trkpt>
      <trkpt lat="46.13339" lon="1.84881">
        <ele>672</ele>
        <time>2016-12-09T11:49:09Z</time>
      </trkpt>
      <trkpt lat="46.1333" lon="1.84882">
        <ele>671</ele>
        <time>2016-12-09T11:51:09Z</time>
      </trkpt>
      <trkpt lat="46.13326" lon="1.84882">
        <ele>670</ele>
        <time>2016-12-09T11:53:09Z</time>
      </trkpt>
      <trkpt lat="46.13324" lon="1.84883">
        <ele>669</ele>
        <time>2016-12-09T11:55:09Z</time>
      </trkpt>
      <trkpt lat="46.13318" lon="1.84888">
        <ele>668</ele>
        <time>2016-12-09T11:57:09Z</time>
      </trkpt>
      <trkpt lat="46.13317" lon="1.84889">
        <ele>668</ele>
        <time>2016-12-09T11:59:09Z</time>
      </trkpt>
      <trkpt lat="46.13316" lon="1.8489">
        <ele>668</ele>
        <time>2016-12-09T12:01:09Z</time>
      </trkpt>
      <trkpt lat="46.13309" lon="1.84891">
        <ele>666</ele>
        <time>2016-12-09T12:03:09Z</time>
      </trkpt>
      <trkpt lat="46.13306" lon="1.8489">
        <ele>666</ele>
        <time>2016-12-09T12:05:09Z</time>
      </trkpt>
      <trkpt lat="46.13302" lon="1.84888">
        <ele>665</ele>
        <time>2016-12-09T12:07:09Z</time>
      </trkpt>
      <trkpt lat="46.13301" lon="1.84887">
        <ele>665</ele>
        <time>2016-12-09T12:09:09Z</time>
      </trkpt>
      <trkpt lat="46.13298" lon="1.84887">
        <ele>665</ele>
        <time>2016-12-09T12:11:09Z</time>
      </trkpt>
      <trkpt lat="46.13296" lon="1.84886">
        <ele>664</ele>
        <time>2016-12-09T12:13:09Z</time>
      </trkpt>
      <trkpt lat="46.1329" lon="1.84883">
        <ele>663</ele>
        <time>2016-12-09T12:15:09Z</time>
      </trkpt>
      <trkpt lat="46.13286" lon="1.84882">
        <ele>662</ele>
        <time>2016-12-09T12:17:09Z</time>
      </trkpt>
      <trkpt lat="46.13284" lon="1.84882">
        <ele>662</ele>
        <time>2016-12-09T12:19:09Z</time>
      </trkpt>
      <trkpt lat="46.13282" lon="1.84883">
        <ele>662</ele>
        <time>2016-12-09T12:21:09Z</time>
      </trkpt>
      <trkpt lat="46.13281" lon="1.84883">
        <ele>662</ele>
        <time>2016-12-09T12:23:09Z</time>
      </trkpt>
      <trkpt lat="46.13277" lon="1.84882">
        <ele>661</ele>
        <time>2016-12-09T12:25:09Z</time>
      </trkpt>
      <trkpt lat="46.13274" lon="1.84882">
        <ele>660</ele>
        <time>2016-12-09T12:27:09Z</time>
      </trkpt>
      <trkpt lat="46.13268" lon="1.84882">
        <ele>659</ele>
        <time>2016-12-09T12:29:09Z</time>
      </trkpt>
      <trkpt lat="46.13266" lon="1.84882">
        <ele>659</ele>
        <time>2016-12-09T12:31:09Z</time>
      </trkpt>
      <trkpt lat="46.1326" lon="1.84882">
        <ele>658</ele>
        <time>2016-12-09T12:33:09Z</time>
      </trkpt>
      <trkpt lat="46.13256" lon="1.8488">
        <ele>657</ele>
        <time>2016-12-09T12:35:09Z</time>
      </trkpt>
      <trkpt lat="46.13252" lon="1.8488">
        <ele>656</ele>
        <time>2016-12-09T12:37:09Z</time>
      </trkpt>
      <trkpt lat="46.13249" lon="1.8488">
        <ele>656</ele>
        <time>2016-12-09T12:39:09Z</time>
      </trkpt>
      <trkpt lat="46.13247" lon="1.84881">
        <ele>655</ele>
        <time>2016-12-09T12:41:09Z</time>
      </trkpt>
      <trkpt lat="46.13245" lon="1.8488">
        <ele>655</ele>
        <time>2016-12-09T12:43:09Z</time>
      </trkpt>
      <trkpt lat="46.13241" lon="1.84877">
        <ele>655</ele>
        <time>2016-12-09T12:45:09Z</time>
      </trkpt>
      <trkpt lat="46.13238" lon="1.84875">
        <ele>654</ele>
        <time>2016-12-09T12:47:09Z</time>
      </trkpt>
      <trkpt lat="46.13236" lon="1.84872">
        <ele>654</ele>
        <time>2016-12-09T12:49:09Z</time>
      </trkpt>
      <trkpt lat="46.13235" lon="1.84868">
        <ele>654</ele>
        <time>2016-12-09T12:51:09Z</time>
      </trkpt>
      <trkpt lat="46.13234" lon="1.84863">
        <ele>654</ele>
        <time>2016-12-09T12:53:09Z</time>
      </trkpt>
      <trkpt lat="46.13232" lon="1.8486">
        <ele>654</ele>
        <time>2016-12-09T12:55:09Z</time>
      </trkpt>
      <trkpt lat="46.13229" lon="1.84858">
        <ele>654</ele>
        <time>2016-12-09T12:57:09Z</time>
      </trkpt>
      <trkpt lat="46.13222" lon="1.84856">
        <ele>653</ele>
        <time>2016-12-09T12:59:09Z</time>
      </trkpt>
      <trkpt lat="46.13221" lon="1.84858">
        <ele>653</ele>
        <time>2016-12-09T13:01:09Z</time>
      </trkpt>
      <trkpt lat="46.1322" lon="1.84858">
        <ele>653</ele>
        <time>2016-12-09T13:03:09Z</time>
      </trkpt>
      <trkpt lat="46.13216" lon="1.84858">
        <ele>652</ele>
        <time>2016-12-09T13:05:09Z</time>
      </trkpt>
      <trkpt lat="46.13213" lon="1.8486">
        <ele>652</ele>
        <time>2016-12-09T13:07:09Z</time>
      </trkpt>
      <trkpt lat="46.1321" lon="1.84862">
        <ele>651</ele>
        <time>2016-12-09T13:09:09Z</time>
      </trkpt>
      <trkpt lat="46.13205" lon="1.84864">
        <ele>650</ele>
        <time>2016-12-09T13:11:09Z</time>
      </trkpt>
      <trkpt lat="46.13197" lon="1.84867">
        <ele>649</ele>
        <time>2016-12-09T13:13:09Z</time>
      </trkpt>
      <trkpt lat="46.13194" lon="1.84869">
        <ele>649</ele>
        <time>2016-12-09T13:15:09Z</time>
      </trkpt>
      <trkpt lat="46.13191" lon="1.8487">
        <ele>648</ele>
        <time>2016-12-09T13:17:09Z</time>
      </trkpt>
      <trkpt lat="46.13188" lon="1.84874">
        <ele>648</ele>
        <time>2016-12-09T13:19:09Z</time>
      </trkpt>
      <trkpt lat="46.13185" lon="1.84875">
        <ele>647</ele>
        <time>2016-12-09T13:21:09Z</time>
      </trkpt>
      <trkpt lat="46.13182" lon="1.84877">
        <ele>647</ele>
        <time>2016-12-09T13:23:09Z</time>
      </trkpt>
      <trkpt lat="46.13179" lon="1.84878">
        <ele>646</ele>
        <time>2016-12-09T13:25:09Z</time>
      </trkpt>
      <trkpt lat="46.13172" lon="1.84876">
        <ele>646</ele>
        <time>2016-12-09T13:27:09Z</time>
      </trkpt>
      <trkpt lat="46.13158" lon="1.84871">
        <ele>644</ele>
        <time>2016-12-09T13:29:09Z</time>
      </trkpt>
      <trkpt lat="46.13155" lon="1.84871">
        <ele>643</ele>
        <time>2016-12-09T13:31:09Z</time>
      </trkpt>
      <trkpt lat="46.13152" lon="1.84872">
        <ele>643</ele>
        <time>2016-12-09T13:33:09Z</time>
      </trkpt>
      <trkpt lat="46.13149" lon="1.84873">
        <ele>642</ele>
        <time>2016-12-09T13:35:09Z</time>
      </trkpt>
      <trkpt lat="46.13147" lon="1.84874">
        <ele>642</ele>
        <time>2016-12-09T13:37:09Z</time>
      </trkpt>
      <trkpt lat="46.1314" lon="1.84874">
        <ele>641</ele>
        <time>2016-12-09T13:39:09Z</time>
      </trkpt>
      <trkpt lat="46.13133" lon="1.84877">
        <ele>639</ele>
        <time>2016-12-09T13:41:09Z</time>
      </trkpt>
      <trkpt lat="46.1313" lon="1.84875">
        <ele>639</ele>
        <time>2016-12-09T13:43:09Z</time>
      </trkpt>
      <trkpt lat="46.13128" lon="1.84873">
        <ele>639</ele>
        <time>2016-12-09T13:45:09Z</time>
      </trkpt>
      <trkpt lat="46.13126" lon="1.84871">
        <ele>639</ele>
        <time>2016-12-09T13:47:09Z</time>
      </trkpt>
      <trkpt lat="46.13123" lon="1.8487">
        <ele>638</ele>
        <time>2016-12-09T13:49:09Z</time>
      </trkpt>
      <trkpt lat="46.1312" lon="1.84869">
        <ele>638</ele>
        <time>2016-12-09T13:51:09Z</time>
      </trkpt>
      <trkpt lat="46.13116" lon="1.84865">
        <ele>637</ele>
        <time>2016-12-09T13:53:09Z</time>
      </trkpt>
      <trkpt lat="46.13111" lon="1.84863">
        <ele>637</ele>
        <time>2016-12-09T13:55:09Z</time>
      </trkpt>
      <trkpt lat="46.13108" lon="1.84864">
        <ele>636</ele>
        <time>2016-12-09T13:57:09Z</time>
      </trkpt>
      <trkpt lat="46.13106" lon="1.84866">
        <ele>636</ele>
        <time>2016-12-09T13:59:09Z</time>
      </trkpt>
      <trkpt lat="46.13104" lon="1.84867">
        <ele>635</ele>
        <time>2016-12-09T14:01:09Z</time>
      </trkpt>
      <trkpt lat="46.13101" lon="1.84868">
        <ele>635</ele>
        <time>2016-12-09T14:03:09Z</time>
      </trkpt>
      <trkpt lat="46.13098" lon="1.84868">
        <ele>634</ele>
        <time>2016-12-09T14:05:09Z</time>
      </trkpt>
      <trkpt lat="46.13093" lon="1.84871">
        <ele>633</ele>
        <time>2016-12-09T14:07:09Z</time>
      </trkpt>
      <trkpt lat="46.13091" lon="1.84873">
        <ele>633</ele>
        <time>2016-12-09T14:09:09Z</time>
      </trkpt>
      <trkpt lat="46.13088" lon="1.84874">
        <ele>632</ele>
        <time>2016-12-09T14:11:09Z</time>
      </trkpt>
      <trkpt lat="46.13086" lon="1.84876">
        <ele>632</ele>
        <time>2016-12-09T14:13:09Z</time>
      </trkpt>
      <trkpt lat="46.13084" lon="1.84877">
        <ele>631</ele>
        <time>2016-12-09T14:15:09Z</time>
      </trkpt>
      <trkpt lat="46.13083" lon="1.84879">
        <ele>631</ele>
        <time>2016-12-09T14:17:09Z</time>
      </trkpt>
      <trkpt lat="46.1308" lon="1.84881">
        <ele>630</ele>
        <time>2016-12-09T14:19:09Z</time>
      </trkpt>
      <trkpt lat="46.13078" lon="1.84881">
        <ele>630</ele>
        <time>2016-12-09T14:21:09Z</time>
      </trkpt>
      <trkpt lat="46.13076" lon="1.84883">
        <ele>629</ele>
        <time>2016-12-09T14:23:09Z</time>
      </trkpt>
      <trkpt lat="46.13074" lon="1.84885">
        <ele>629</ele>
        <time>2016-12-09T14:25:09Z</time>
      </trkpt>
      <trkpt lat="46.13072" lon="1.84887">
        <ele>628</ele>
        <time>2016-12-09T14:27:09Z</time>
      </trkpt>
      <trkpt lat="46.13071" lon="1.84891">
        <ele>628</ele>
        <time>2016-12-09T14:29:09Z</time>
      </trkpt>
      <trkpt lat="46.13072" lon="1.84894">
        <ele>628</ele>
        <time>2016-12-09T14:31:09Z</time>
      </trkpt>
      <trkpt lat="46.13072" lon="1.84898">
        <ele>627</ele>
        <time>2016-12-09T14:33:09Z</time>
      </trkpt>
      <trkpt lat="46.13075" lon="1.84905">
        <ele>628</ele>
        <time>2016-12-09T14:35:09Z</time>
      </trkpt>
      <trkpt lat="46.13075" lon="1.84909">
        <ele>628</ele>
        <time>2016-12-09T14:37:09Z</time>
      </trkpt>
      <trkpt lat="46.13076" lon="1.84912">
        <ele>628</ele>
        <time>2016-12-09T14:39:09Z</time>
      </trkpt>
      <trkpt lat="46.13077" lon="1.84915">
        <ele>628</ele>
        <time>2016-12-09T14:41:09Z</time>
      </trkpt>
      <trkpt lat="46.13079" lon="1.84918">
        <ele>628</ele>
        <time>2016-12-09T14:43:09Z</time>
      </trkpt>
      <trkpt lat="46.13079" lon="1.8492">
        <ele>628</ele>
        <time>2016-12-09T14:45:09Z</time>
      </trkpt>
      <trkpt lat="46.1308" lon="1.84923">
        <ele>628</ele>
        <time>2016-12-09T14:47:09Z</time>
      </trkpt>
      <trkpt lat="46.13082" lon="1.84925">
        <ele>628</ele>
        <time>2016-12-09T14:49:09Z</time>
      </trkpt>
      <trkpt lat="46.13086" lon="1.84928">
        <ele>628</ele>
        <time>2016-12-09T14:51:09Z</time>
      </trkpt>
      <trkpt lat="46.13087" lon="1.8493">
        <ele>628</ele>
        <time>2016-12-09T14:53:09Z</time>
      </trkpt>
      <trkpt lat="46.13091" lon="1.84933">
        <ele>628</ele>
        <time>2016-12-09T14:55:09Z</time>
      </trkpt>
      <trkpt lat="46.13094" lon="1.84935">
        <ele>629</ele>
        <time>2016-12-09T14:57:09Z</time>
      </trkpt>
      <trkpt lat="46.13099" lon="1.84939">
        <ele>629</ele>
        <time>2016-12-09T14:59:09Z</time>
      </trkpt>
      <trkpt lat="46.13101" lon="1.8494">
        <ele>629</ele>
        <time>2016-12-09T15:01:09Z</time>
      </trkpt>
      <trkpt lat="46.13103" lon="1.84939">
        <ele>630</ele>
        <time>2016-12-09T15:03:09Z</time>
      </trkpt>
      <trkpt lat="46.1311" lon="1.84943">
        <ele>630</ele>
        <time>2016-12-09T15:05:09Z</time>
      </trkpt>
      <trkpt lat="46.13112" lon="1.84945">
        <ele>630</ele>
        <time>2016-12-09T15:07:09Z</time>
      </trkpt>
      <trkpt lat="46.13116" lon="1.84946">
        <ele>631</ele>
        <time>2016-12-09T15:09:09Z</time>
      </trkpt>
      <trkpt lat="46.13118" lon="1.84946">
        <ele>631</ele>
        <time>2016-12-09T15:11:09Z</time>
      </trkpt>
      <trkpt lat="46.1312" lon="1.84947">
        <ele>631</ele>
        <time>2016-12-09T15:13:09Z</time>
      </trkpt>
      <trkpt lat="46.13121" lon="1.84948">
        <ele>631</ele>
        <time>2016-12-09T15:15:09Z</time>
      </trkpt>
      <trkpt lat="46.13124" lon="1.84948">
        <ele>632</ele>
        <time>2016-12-09T15:17:09Z</time>
      </trkpt>
      <trkpt lat="46.13126" lon="1.84951">
        <ele>632</ele>
        <time>2016-12-09T15:19:09Z</time>
      </trkpt>
      <trkpt lat="46.1313" lon="1.84952">
        <ele>632</ele>
        <time>2016-12-09T15:21:09Z</time>
      </trkpt>
      <trkpt lat="46.13131" lon="1.84953">
        <ele>632</ele>
        <time>2016-12-09T15:23:09Z</time>
      </trkpt>
      <trkpt lat="46.13133" lon="1.84954">
        <ele>632</ele>
        <time>2016-12-09T15:25:09Z</time>
      </trkpt>
      <trkpt lat="46.13136" lon="1.84955">
        <ele>633</ele>
        <time>2016-12-09T15:27:09Z</time>
      </trkpt>
      <trkpt lat="46.13138" lon="1.84957">
        <ele>633</ele>
        <time>2016-12-09T15:29:09Z</time>
      </trkpt>
      <trkpt lat="46.13141" lon="1.84957">
        <ele>633</ele>
        <time>2016-12-09T15:31:09Z</time>
      </trkpt>
      <trkpt lat="46.13144" lon="1.84959">
        <ele>633</ele>
        <time>2016-12-09T15:33:09Z</time>
      </trkpt>
      <trkpt lat="46.13148" lon="1.8496">
        <ele>634</ele>
        <time>2016-12-09T15:35:09Z</time>
      </trkpt>
      <trkpt lat="46.13151" lon="1.84962">
        <ele>634</ele>
        <time>2016-12-09T15:37:09Z</time>
      </trkpt>
      <trkpt lat="46.13154" lon="1.84963">
        <ele>634</ele>
        <time>2016-12-09T15:39:09Z</time>
      </trkpt>
      <trkpt lat="46.13163" lon="1.84965">
        <ele>635</ele>
        <time>2016-12-09T15:41:09Z</time>
      </trkpt>
      <trkpt lat="46.13164" lon="1.84966">
        <ele>635</ele>
        <time>2016-12-09T15:43:09Z</time>
      </trkpt>
      <trkpt lat="46.13169" lon="1.84967">
        <ele>636</ele>
        <time>2016-12-09T15:45:09Z</time>
      </trkpt>
      <trkpt lat="46.13175" lon="1.84971">
        <ele>636</ele>
        <time>2016-12-09T15:47:09Z</time>
      </trkpt>
      <trkpt lat="46.13177" lon="1.84973">
        <ele>636</ele>
        <time>2016-12-09T15:49:09Z</time>
      </trkpt>
      <trkpt lat="46.13178" lon="1.84975">
        <ele>636</ele>
        <time>2016-12-09T15:51:09Z</time>
      </trkpt>
      <trkpt lat="46.13182" lon="1.84976">
        <ele>636</ele>
        <time>2016-12-09T15:53:09Z</time>
      </trkpt>
      <trkpt lat="46.13187" lon="1.84979">
        <ele>637</ele>
        <time>2016-12-09T15:55:09Z</time>
      </trkpt>
      <trkpt lat="46.13188" lon="1.8498">
        <ele>637</ele>
        <time>2016-12-09T15:57:09Z</time>
      </trkpt>
      <trkpt lat="46.13193" lon="1.84983">
        <ele>637</ele>
        <time>2016-12-09T15:59:09Z</time>
      </trkpt>
      <trkpt lat="46.13196" lon="1.84984">
        <ele>637</ele>
        <time>2016-12-09T16:01:09Z</time>
      </trkpt>
      <trkpt lat="46.13199" lon="1.84984">
        <ele>638</ele>
        <time>2016-12-09T16:03:09Z</time>
      </trkpt>
      <trkpt lat="46.13201" lon="1.84985">
        <ele>638</ele>
        <time>2016-12-09T16:05:09Z</time>
      </trkpt>
      <trkpt lat="46.13203" lon="1.84986">
        <ele>638</ele>
        <time>2016-12-09T16:07:09Z</time>
      </trkpt>
      <trkpt lat="46.13206" lon="1.84986">
        <ele>639</ele>
        <time>2016-12-09T16:09:09Z</time>
      </trkpt>
      <trkpt lat="46.13208" lon="1.84987">
        <ele>639</ele>
        <time>2016-12-09T16:11:09Z</time>
      </trkpt>
      <trkpt lat="46.13211" lon="1.84991">
        <ele>639</ele>
        <time>2016-12-09T16:13:09Z</time>
      </trkpt>
      <trkpt lat="46.13214" lon="1.84991">
        <ele>639</ele>
        <time>2016-12-09T16:15:09Z</time>
      </trkpt>
      <trkpt lat="46.13217" lon="1.84993">
        <ele>639</ele>
        <time>2016-12-09T16:17:09Z</time>
      </trkpt>
      <trkpt lat="46.13218" lon="1.84995">
        <ele>639</ele>
        <time>2016-12-09T16:19:09Z</time>
      </trkpt>
      <trkpt lat="46.1322" lon="1.84994">
        <ele>640</ele>
        <time>2016-12-09T16:21:09Z</time>
      </trkpt>
      <trkpt lat="46.13223" lon="1.84996">
        <ele>640</ele>
        <time>2016-12-09T16:23:09Z</time>
      </trkpt>
      <trkpt lat="46.13224" lon="1.84999">
        <ele>640</ele>
        <time>2016-12-09T16:25:09Z</time>
      </trkpt>
      <trkpt lat="46.13226" lon="1.85001">
        <ele>640</ele>
        <time>2016-12-09T16:27:09Z</time>
      </trkpt>
      <trkpt lat="46.13227" lon="1.85003">
        <ele>640</ele>
        <time>2016-12-09T16:29:09Z</time>
      </trkpt>
      <trkpt lat="46.13233" lon="1.85004">
        <ele>640</ele>
        <time>2016-12-09T16:31:09Z</time>
      </trkpt>
      <trkpt lat="46.13235" lon="1.85006">
        <ele>640</ele>
        <time>2016-12-09T16:33:09Z</time>
      </trkpt>
      <trkpt lat="46.13236" lon="1.85006">
        <ele>641</ele>
        <time>2016-12-09T16:35:09Z</time>
      </trkpt>
      <trkpt lat="46.13238" lon="1.85008">
        <ele>641</ele>
        <time>2016-12-09T16:37:09Z</time>
      </trkpt>
      <trkpt lat="46.13239" lon="1.85009">
        <ele>641</ele>
        <time>2016-12-09T16:39:09Z</time>
      </trkpt>
      <trkpt lat="46.13242" lon="1.85013">
        <ele>640</ele>
        <time>2016-12-09T16:41:09Z</time>
      </trkpt>
      <trkpt lat="46.13244" lon="1.85014">
        <ele>640</ele>
        <time>2016-12-09T16:43:09Z</time>
      </trkpt>
      <trkpt lat="46.13246" lon="1.85016">
        <ele>640</ele>
        <time>2016-12-09T16:45:09Z</time>
      </trkpt>
      <trkpt lat="46.13248" lon="1.85019">
        <ele>640</ele>
        <time>2016-12-09T16:47:09Z</time>
      </trkpt>
      <trkpt lat="46.1325" lon="1.85019">
        <ele>641</ele>
        <time>2016-12-09T16:49:09Z</time>
      </trkpt>
      <trkpt lat="46.13255" lon="1.8502">
        <ele>641</ele>
        <time>2016-12-09T16:51:09Z</time>
      </trkpt>
      <trkpt lat="46.13256" lon="1.8502">
        <ele>641</ele>
        <time>2016-12-09T16:53:09Z</time>
      </trkpt>
      <trkpt lat="46.13259" lon="1.85022">
        <ele>641</ele>
        <time>2016-12-09T16:55:09Z</time>
      </trkpt>
      <trkpt lat="46.13262" lon="1.85024">
        <ele>641</ele>
        <time>2016-12-09T16:57:09Z</time>
      </trkpt>
      <trkpt lat="46.13263" lon="1.85025">
        <ele>641</ele>
        <time>2016-12-09T16:59:09Z</time>
      </trkpt>
      <trkpt lat="46.13265" lon="1.85028">
        <ele>641</ele>
        <time>2016-12-09T17:01:09Z</time>
      </trkpt>
      <trkpt lat="46.13268" lon="1.85028">
        <ele>641</ele>
        <time>2016-12-09T17:03:09Z</time>
      </trkpt>
      <trkpt lat="46.1327" lon="1.85028">
        <ele>642</ele>
        <time>2016-12-09T17:05:09Z</time>
      </trkpt>
      <trkpt lat="46.13274" lon="1.85027">
        <ele>642</ele>
        <time>2016-12-09T17:07:09Z</time>
      </trkpt>
      <trkpt lat="46.13277" lon="1.85028">
        <ele>643</ele>
        <time>2016-12-09T17:09:09Z</time>
      </trkpt>
      <trkpt lat="46.1328" lon="1.85029">
        <ele>643</ele>
        <time>2016-12-09T17:11:09Z</time>
      </trkpt>
      <trkpt lat="46.13283" lon="1.85027">
        <ele>644</ele>
        <time>2016-12-09T17:13:09Z</time>
      </trkpt>
      <trkpt lat="46.13286" lon="1.85028">
        <ele>644</ele>
        <time>2016-12-09T17:15:09Z</time>
      </trkpt>
      <trkpt lat="46.13289" lon="1.85029">
        <ele>644</ele>
        <time>2016-12-09T17:17:09Z</time>
      </trkpt>
      <trkpt lat="46.13294" lon="1.85031">
        <ele>644</ele>
        <time>2016-12-09T17:19:09Z</time>
      </trkpt>
      <trkpt lat="46.13296" lon="1.85032">
        <ele>644</ele>
        <time>2016-12-09T17:21:09Z</time>
      </trkpt>
      <trkpt lat="46.13298" lon="1.85034">
        <ele>644</ele>
        <time>2016-12-09T17:23:09Z</time>
      </trkpt>
      <trkpt lat="46.13299" lon="1.85035">
        <ele>644</ele>
        <time>2016-12-09T17:25:09Z</time>
      </trkpt>
      <trkpt lat="46.13301" lon="1.85035">
        <ele>645</ele>
        <time>2016-12-09T17:27:09Z</time>
      </trkpt>
      <trkpt lat="46.13312" lon="1.85035">
        <ele>646</ele>
        <time>2016-12-09T17:29:09Z</time>
      </trkpt>
      <trkpt lat="46.13319" lon="1.85037">
        <ele>647</ele>
        <time>2016-12-09T17:31:09Z</time>
      </trkpt>
      <trkpt lat="46.13321" lon="1.85038">
        <ele>647</ele>
        <time>2016-12-09T17:33:09Z</time>
      </trkpt>
      <trkpt lat="46.13322" lon="1.85043">
        <ele>646</ele>
        <time>2016-12-09T17:35:09Z</time>
      </trkpt>
      <trkpt lat="46.13323" lon="1.85045">
        <ele>645</ele>
        <time>2016-12-09T17:37:09Z</time>
      </trkpt>
      <trkpt lat="46.13326" lon="1.85047">
        <ele>645</ele>
        <time>2016-12-09T17:39:09Z</time>
      </trkpt>
      <trkpt lat="46.1333" lon="1.85048">
        <ele>646</ele>
        <time>2016-12-09T17:41:09Z</time>
      </trkpt>
      <trkpt lat="46.13334" lon="1.85049">
        <ele>646</ele>
        <time>2016-12-09T17:43:09Z</time>
      </trkpt>
      <trkpt lat="46.13335" lon="1.85051">
        <ele>646</ele>
        <time>2016-12-09T17:45:09Z</time>
      </trkpt>
      <trkpt lat="46.13337" lon="1.85054">
        <ele>645</ele>
        <time>2016-12-09T17:47:09Z</time>
      </trkpt>
      <trkpt lat="46.13341" lon="1.85055">
        <ele>646</ele>
        <time>2016-12-09T17:49:09Z</time>
      </trkpt>
      <trkpt lat="46.13345" lon="1.85055">
        <ele>646</ele>
        <time>2016-12-09T17:51:09Z</time>
      </trkpt>
      <trkpt lat="46.13349" lon="1.85054">
        <ele>647</ele>
        <time>2016-12-09T17:53:09Z</time>
      </trkpt>
      <trkpt lat="46.13357" lon="1.85054">
        <ele>647</ele>
        <time>2016-12-09T17:55:09Z</time>
      </trkpt>
      <trkpt lat="46.13359" lon="1.85055">
        <ele>647</ele>
        <time>2016-12-09T17:57:09Z</time>
      </trkpt>
      <trkpt lat="46.13364" lon="1.85058">
        <ele>647</ele>
        <time>2016-12-09T17:59:09Z</time>
      </trkpt>
      <trkpt lat="46.13369" lon="1.85057">
        <ele>648</ele>
        <time>2016-12-09T18:01:09Z</time>
      </trkpt>
      <trkpt lat="46.13375" lon="1.85054">
        <ele>649</ele>
        <time>2016-12-09T18:03:09Z</time>
      </trkpt>
      <trkpt lat="46.1338" lon="1.85054">
        <ele>650</ele>
        <time>2016-12-09T18:05:09Z</time>
      </trkpt>
      <trkpt lat="46.13384" lon="1.85053">
        <ele>650</ele>
        <time>2016-12-09T18:07:09Z</time>
      </trkpt>
      <trkpt lat="46.13389" lon="1.85054">
        <ele>651</ele>
        <time>2016-12-09T18:09:09Z</time>
      </trkpt>
      <trkpt lat="46.13392" lon="1.85054">
        <ele>651</ele>
        <time>2016-12-09T18:11:09Z</time>
      </trkpt>
      <trkpt lat="46.13397" lon="1.85055">
        <ele>651</ele>
        <time>2016-12-09T18:13:09Z</time>
      </trkpt>
      <trkpt lat="46.13399" lon="1.85055">
        <ele>651</ele>
        <time>2016-12-09T18:15:09Z</time>
      </trkpt>
      <trkpt lat="46.13401" lon="1.85056">
        <ele>651</ele>
        <time>2016-12-09T18:17:09Z</time>
      </trkpt>
      <trkpt lat="46.13402" lon="1.85056">
        <ele>651</ele>
        <time>2016-12-09T18:19:09Z</time>
      </trkpt>
      <trkpt lat="46.13405" lon="1.85057">
        <ele>651</ele>
        <time>2016-12-09T18:21:09Z</time>
      </trkpt>
      <trkpt lat="46.13406" lon="1.85058">
        <ele>651</ele>
        <time>2016-12-09T18:23:09Z</time>
      </trkpt>
      <trkpt lat="46.13409" lon="1.85058">
        <ele>652</ele>
        <time>2016-12-09T18:25:09Z</time>
      </trkpt>
      <trkpt lat="46.13412" lon="1.85056">
        <ele>652</ele>
        <time>2016-12-09T18:27:09Z</time>
      </trkpt>
      <trkpt lat="46.13416" lon="1.85054">
        <ele>653</ele>
        <time>2016-12-09T18:29:09Z</time>
      </trkpt>
      <trkpt lat="46.13419" lon="1.85053">
        <ele>654</ele>
        <time>2016-12-09T18:31:09Z</time>
      </trkpt>
      <trkpt lat="46.13422" lon="1.85054">
        <ele>654</ele>
        <time>2016-12-09T18:33:09Z</time>
      </trkpt>
      <trkpt lat="46.13426" lon="1.85052">
        <ele>654</ele>
        <time>2016-12-09T18:35:09Z</time>
      </trkpt>
      <trkpt lat="46.13427" lon="1.8505">
        <ele>655</ele>
        <time>2016-12-09T18:37:09Z</time>
      </trkpt>
      <trkpt lat="46.13429" lon="1.85048">
        <ele>655</ele>
        <time>2016-12-09T18:39:09Z</time>
      </trkpt>
      <trkpt lat="46.13435" lon="1.85046">
        <ele>656</ele>
        <time>2016-12-09T18:41:09Z</time>
      </trkpt>
      <trkpt lat="46.13439" lon="1.85046">
        <ele>656</ele>
        <time>2016-12-09T18:43:09Z</time>
      </trkpt>
      <trkpt lat="46.13441" lon="1.85046">
        <ele>656</ele>
        <time>2016-12-09T18:45:09Z</time>
      </trkpt>
      <trkpt lat="46.13442" lon="1.85046">
        <ele>656</ele>
        <time>2016-12-09T18:47:09Z</time>
      </trkpt>
      <trkpt lat="46.13445" lon="1.85046">
        <ele>656</ele>
        <time>2016-12-09T18:49:09Z</time>
      </trkpt>
      <trkpt lat="46.13447" lon="1.85046">
        <ele>656</ele>
        <time>2016-12-09T18:51:09Z</time>
      </trkpt>
      <trkpt lat="46.13449" lon="1.85045">
        <ele>656</ele>
        <time>2016-12-09T18:53:09Z</time>
      </trkpt>
      <trkpt lat="46.1345" lon="1.85042">
        <ele>657</ele>
        <time>2016-12-09T18:55:09Z</time>
      </trkpt>
      <trkpt lat="46.13452" lon="1.8504">
        <ele>657</ele>
        <time>2016-12-09T18:57:09Z</time>
      </trkpt>
      <trkpt lat="46.13457" lon="1.8504">
        <ele>657</ele>
        <time>2016-12-09T18:59:09Z</time>
      </trkpt>
      <trkpt lat="46.13458" lon="1.8504">
        <ele>657</ele>
        <time>2016-12-09T19:01:09Z</time>
      </trkpt>
      <trkpt lat="46.13463" lon="1.85039">
        <ele>658</ele>
        <time>2016-12-09T19:03:09Z</time>
      </trkpt>
      <trkpt lat="46.13467" lon="1.85038">
        <ele>658</ele>
        <time>2016-12-09T19:05:09Z</time>
      </trkpt>
      <trkpt lat="46.13473" lon="1.85039">
        <ele>658</ele>
        <time>2016-12-09T19:07:09Z</time>
      </trkpt>
      <trkpt lat="46.13475" lon="1.85039">
        <ele>658</ele>
        <time>2016-12-09T19:09:09Z</time>
      </trkpt>
      <trkpt lat="46.13478" lon="1.85036">
        <ele>658</ele>
        <time>2016-12-09T19:11:09Z</time>
      </trkpt>
      <trkpt lat="46.1348" lon="1.85035">
        <ele>659</ele>
        <time>2016-12-09T19:13:09Z</time>
      </trkpt>
      <trkpt lat="46.13482" lon="1.85035">
        <ele>659</ele>
        <time>2016-12-09T19:15:09Z</time>
      </trkpt>
      <trkpt lat="46.13482" lon="1.85035">
        <ele>659</ele>
        <time>2016-12-09T19:17:09Z</time>
      </trkpt>
      <trkpt lat="46.13484" lon="1.85036">
        <ele>658</ele>
        <time>2016-12-09T19:19:09Z</time>
      </trkpt>
      <trkpt lat="46.13486" lon="1.85035">
        <ele>659</ele>
        <time>2016-12-09T19:21:09Z</time>
      </trkpt>
      <trkpt lat="46.13486" lon="1.85033">
        <ele>659</ele>
        <time>2016-12-09T19:23:09Z</time>
      </trkpt>
      <trkpt lat="46.13488" lon="1.85032">
        <ele>659</ele>
        <time>2016-12-09T19:25:09Z</time>
      </trkpt>
      <trkpt lat="46.1349" lon="1.85032">
        <ele>659</ele>
        <time>2016-12-09T19:27:09Z</time>
      </trkpt>
      <trkpt lat="46.13494" lon="1.8503">
        <ele>660</ele>
        <time>2016-12-09T19:29:09Z</time>
      </trkpt>
      <trkpt lat="46.13498" lon="1.85029">
        <ele>660</ele>
        <time>2016-12-09T19:31:09Z</time>
      </trkpt>
      <trkpt lat="46.13501" lon="1.85029">
        <ele>660</ele>
        <time>2016-12-09T19:33:09Z</time>
      </trkpt>
      <trkpt lat="46.13506" lon="1.85025">
        <ele>661</ele>
        <time>2016-12-09T19:35:09Z</time>
      </trkpt>
      <trkpt lat="46.13508" lon="1.85026">
        <ele>660</ele>
        <time>2016-12-09T19:37:09Z</time>
      </trkpt>
      <trkpt lat="46.13514" lon="1.85023">
        <ele>661</ele>
        <time>2016-12-09T19:39:09Z</time>
      </trkpt>
      <trkpt lat="46.13517" lon="1.8502">
        <ele>662</ele>
        <time>2016-12-09T19:41:09Z</time>
      </trkpt>
      <trkpt lat="46.13521" lon="1.85016">
        <ele>662</ele>
        <time>2016-12-09T19:43:09Z</time>
      </trkpt>
      <trkpt lat="46.13524" lon="1.85013">
        <ele>663</ele>
        <time>2016-12-09T19:45:09Z</time>
      </trkpt>
      <trkpt lat="46.13528" lon="1.85012">
        <ele>663</ele>
        <time>2016-12-09T19:47:09Z</time>
      </trkpt>
      <trkpt lat="46.13535" lon="1.85008">
        <ele>663</ele>
        <time>2016-12-09T19:49:09Z</time>
      </trkpt>
      <trkpt lat="46.13538" lon="1.85005">
        <ele>664</ele>
        <time>2016-12-09T19:51:09Z</time>
      </trkpt>
      <trkpt lat="46.13541" lon="1.85004">
        <ele>664</ele>
        <time>2016-12-09T19:53:09Z</time>
      </trkpt>
      <trkpt lat="46.13544" lon="1.85001">
        <ele>664</ele>
        <time>2016-12-09T19:55:09Z</time>
      </trkpt>
      <trkpt lat="46.13548" lon="1.84997">
        <ele>665</ele>
        <time>2016-12-09T19:57:09Z</time>
      </trkpt>
      <trkpt lat="46.1355" lon="1.84997">
        <ele>665</ele>
        <time>2016-12-09T19:59:09Z</time>
      </trkpt>
      <trkpt lat="46.13551" lon="1.84995">
        <ele>665</ele>
        <time>2016-12-09T20:01:09Z</time>
      </trkpt>
      <trkpt lat="46.13553" lon="1.84995">
        <ele>665</ele>
        <time>2016-12-09T20:03:09Z</time>
      </trkpt>
      <trkpt lat="46.13557" lon="1.84995">
        <ele>665</ele>
        <time>2016-12-09T20:05:09Z</time>
      </trkpt>
      <trkpt lat="46.1356" lon="1.84995">
        <ele>665</ele>
        <time>2016-12-09T20:07:09Z</time>
      </trkpt>
      <trkpt lat="46.13563" lon="1.84996">
        <ele>665</ele>
        <time>2016-12-09T20:09:09Z</time>
      </trkpt>
      <trkpt lat="46.13565" lon="1.84999">
        <ele>664</ele>
        <time>2016-12-09T20:11:09Z</time>
      </trkpt>
      <trkpt lat="46.13567" lon="1.85003">
        <ele>664</ele>
        <time>2016-12-09T20:13:09Z</time>
      </trkpt>
      <trkpt lat="46.13568" lon="1.85007">
        <ele>663</ele>
        <time>2016-12-09T20:15:09Z</time>
      </trkpt>
      <trkpt lat="46.13569" lon="1.85013">
        <ele>663</ele>
        <time>2016-12-09T20:17:09Z</time>
      </trkpt>
      <trkpt lat="46.13571" lon="1.85017">
        <ele>662</ele>
        <time>2016-12-09T20:19:09Z</time>
      </trkpt>
      <trkpt lat="46.13573" lon="1.85022">
        <ele>662</ele>
        <time>2016-12-09T20:21:09Z</time>
      </trkpt>
      <trkpt lat="46.13574" lon="1.85026">
        <ele>662</ele>
        <time>2016-12-09T20:23:09Z</time>
      </trkpt>
      <trkpt lat="46.13576" lon="1.85031">
        <ele>661</ele>
        <time>2016-12-09T20:25:09Z</time>
      </trkpt>
      <trkpt lat="46.13579" lon="1.8504">
        <ele>660</ele>
        <time>2016-12-09T20:27:09Z</time>
      </trkpt>
      <trkpt lat="46.13581" lon="1.85043">
        <ele>660</ele>
        <time>2016-12-09T20:29:09Z</time>
      </trkpt>
      <trkpt lat="46.13583" lon="1.85046">
        <ele>660</ele>
        <time>2016-12-09T20:31:09Z</time>
      </trkpt>
      <trkpt lat="46.13586" lon="1.85055">
        <ele>660</ele>
        <time>2016-12-09T20:33:09Z</time>
      </trkpt>
      <trkpt lat="46.1359" lon="1.85063">
        <ele>659</ele>
        <time>2016-12-09T20:35:09Z</time>
      </trkpt>
      <trkpt lat="46.1359" lon="1.85067">
        <ele>659</ele>
        <time>2016-12-09T20:37:09Z</time>
      </trkpt>
      <trkpt lat="46.13592" lon="1.8507">
        <ele>659</ele>
        <time>2016-12-09T20:39:09Z</time>
      </trkpt>
      <trkpt lat="46.13594" lon="1.85074">
        <ele>658</ele>
        <time>2016-12-09T20:41:09Z</time>
      </trkpt>
      <trkpt lat="46.13594" lon="1.85078">
        <ele>658</ele>
        <time>2016-12-09T20:43:09Z</time>
      </trkpt>
      <trkpt lat="46.13595" lon="1.85082">
        <ele>658</ele>
        <time>2016-12-09T20:45:09Z</time>
      </trkpt>
      <trkpt lat="46.13596" lon="1.8509">
        <ele>658</ele>
        <time>2016-12-09T20:47:09Z</time>
      </trkpt>
      <trkpt lat="46.13596" lon="1.85094">
        <ele>658</ele>
        <time>2016-12-09T20:49:09Z</time>
      </trkpt>
      <trkpt lat="46.13597" lon="1.85097">
        <ele>658</ele>
        <time>2016-12-09T20:51:09Z</time>
      </trkpt>
      <trkpt lat="46.13598" lon="1.85105">
        <ele>658</ele>
        <time>2016-12-09T20:53:09Z</time>
      </trkpt>
      <trkpt lat="46.13599" lon="1.85109">
        <ele>658</ele>
        <time>2016-12-09T20:55:09Z</time>
      </trkpt>
      <trkpt lat="46.136" lon="1.85113">
        <ele>658</ele>
        <time>2016-12-09T20:57:09Z</time>
      </trkpt>
      <trkpt lat="46.13601" lon="1.85116">
        <ele>658</ele>
        <time>2016-12-09T20:59:09Z</time>
      </trkpt>
      <trkpt lat="46.13602" lon="1.85123">
        <ele>658</ele>
        <time>2016-12-09T21:01:09Z</time>
      </trkpt>
      <trkpt lat="46.13604" lon="1.8513">
        <ele>658</ele>
        <time>2016-12-09T21:03:09Z</time>
      </trkpt>
      <trkpt lat="46.13605" lon="1.85133">
        <ele>658</ele>
        <time>2016-12-09T21:05:09Z</time>
      </trkpt>
      <trkpt lat="46.13605" lon="1.85137">
        <ele>658</ele>
        <time>2016-12-09T21:07:09Z</time>
      </trkpt>
      <trkpt lat="46.13606" lon="1.8514">
        <ele>659</ele>
        <time>2016-12-09T21:09:09Z</time>
      </trkpt>
      <trkpt lat="46.13608" lon="1.8515">
        <ele>659</ele>
        <time>2016-12-09T21:11:09Z</time>
      </trkpt>
      <trkpt lat="46.13608" lon="1.85153">
        <ele>659</ele>
        <time>2016-12-09T21:13:09Z</time>
      </trkpt>
      <trkpt lat="46.13609" lon="1.85156">
        <ele>659</ele>
        <time>2016-12-09T21:15:09Z</time>
      </trkpt>
      <trkpt lat="46.13609" lon="1.85159">
        <ele>659</ele>
        <time>2016-12-09T21:17:09Z</time>
      </trkpt>
      <trkpt lat="46.13611" lon="1.85163">
        <ele>659</ele>
        <time>2016-12-09T21:19:09Z</time>
      </trkpt>
      <trkpt lat="46.13612" lon="1.85166">
        <ele>659</ele>
        <time>2016-12-09T21:21:09Z</time>
      </trkpt>
      <trkpt lat="46.13612" lon="1.85169">
        <ele>659</ele>
        <time>2016-12-09T21:23:09Z</time>
      </trkpt>
      <trkpt lat="46.13613" lon="1.85176">
        <ele>660</ele>
        <time>2016-12-09T21:25:09Z</time>
      </trkpt>
      <trkpt lat="46.13613" lon="1.85179">
        <ele>660</ele>
        <time>2016-12-09T21:27:09Z</time>
      </trkpt>
      <trkpt lat="46.13615" lon="1.85181">
        <ele>661</ele>
        <time>2016-12-09T21:29:09Z</time>
      </trkpt>
      <trkpt lat="46.13616" lon="1.85182">
        <ele>661</ele>
        <time>2016-12-09T21:31:09Z</time>
      </trkpt>
      <trkpt lat="46.13618" lon="1.85181">
        <ele>661</ele>
        <time>2016-12-09T21:33:09Z</time>
      </trkpt>
      <trkpt lat="46.13626" lon="1.85184">
        <ele>662</ele>
        <time>2016-12-09T21:35:09Z</time>
      </trkpt>
      <trkpt lat="46.1363" lon="1.85182">
        <ele>662</ele>
        <time>2016-12-09T21:37:09Z</time>
      </trkpt>
      <trkpt lat="46.13633" lon="1.85181">
        <ele>662</ele>
        <time>2016-12-09T21:39:09Z</time>
      </trkpt>
      <trkpt lat="46.13634" lon="1.85182">
        <ele>662</ele>
        <time>2016-12-09T21:41:09Z</time>
      </trkpt>
      <trkpt lat="46.13635" lon="1.85183">
        <ele>662</ele>
        <time>2016-12-09T21:43:09Z</time>
      </trkpt>
      <trkpt lat="46.13636" lon="1.85184">
        <ele>662</ele>
        <time>2016-12-09T21:45:09Z</time>
      </trkpt>
      <trkpt lat="46.13636" lon="1.85185">
        <ele>662</ele>
        <time>2016-12-09T21:47:09Z</time>
      </trkpt>
      <trkpt lat="46.13637" lon="1.85185">
        <ele>663</ele>
        <time>2016-12-09T21:49:09Z</time>
      </trkpt>
      <trkpt lat="46.13638" lon="1.85187">
        <ele>663</ele>
        <time>2016-12-09T21:51:09Z</time>
      </trkpt>
      <trkpt lat="46.13639" lon="1.8519">
        <ele>663</ele>
        <time>2016-12-09T21:53:09Z</time>
      </trkpt>
      <trkpt lat="46.1364" lon="1.85191">
        <ele>663</ele>
        <time>2016-12-09T21:55:09Z</time>
      </trkpt>
      <trkpt lat="46.13641" lon="1.85195">
        <ele>664</ele>
        <time>2016-12-09T21:57:09Z</time>
      </trkpt>
      <trkpt lat="46.13641" lon="1.85197">
        <ele>664</ele>
        <time>2016-12-09T21:59:09Z</time>
      </trkpt>
      <trkpt lat="46.13641" lon="1.85198">
        <ele>664</ele>
        <time>2016-12-09T22:01:09Z</time>
      </trkpt>
      <trkpt lat="46.13641" lon="1.85199">
        <ele>664</ele>
        <time>2016-12-09T22:03:09Z</time>
      </trkpt>
      <trkpt lat="46.13641" lon="1.852">
        <ele>664</ele>
        <time>2016-12-09T22:05:09Z</time>
      </trkpt>
      <trkpt lat="46.13642" lon="1.85204">
        <ele>665</ele>
        <time>2016-12-09T22:07:09Z</time>
      </trkpt>
      <trkpt lat="46.13642" lon="1.85208">
        <ele>665</ele>
        <time>2016-12-09T22:09:09Z</time>
      </trkpt>
      <trkpt lat="46.13641" lon="1.8521">
        <ele>665</ele>
        <time>2016-12-09T22:11:09Z</time>
      </trkpt>
      <trkpt lat="46.13642" lon="1.85214">
        <ele>666</ele>
        <time>2016-12-09T22:13:09Z</time>
      </trkpt>
      <trkpt lat="46.13643" lon="1.85215">
        <ele>666</ele>
        <time>2016-12-09T22:15:09Z</time>
      </trkpt>
      <trkpt lat="46.13643" lon="1.85215">
        <ele>666</ele>
        <time>2016-12-09T22:17:09Z</time>
      </trkpt>
      <trkpt lat="46.13643" lon="1.85216">
        <ele>666</ele>
        <time>2016-12-09T22:19:09Z</time>
      </trkpt>
      <trkpt lat="46.13644" lon="1.85216">
        <ele>666</ele>
        <time>2016-12-09T22:21:09Z</time>
      </trkpt>
      <trkpt lat="46.13644" lon="1.85219">
        <ele>666</ele>
        <time>2016-12-09T22:23:09Z</time>
      </trkpt>
      <trkpt lat="46.13645" lon="1.85222">
        <ele>667</ele>
        <time>2016-12-09T22:25:09Z</time>
      </trkpt>
      <trkpt lat="46.13645" lon="1.85225">
        <ele>667</ele>
        <time>2016-12-09T22:27:09Z</time>
      </trkpt>
      <trkpt lat="46.13644" lon="1.8523">
        <ele>667</ele>
        <time>2016-12-09T22:29:09Z</time>
      </trkpt>
      <trkpt lat="46.13645" lon="1.85231">
        <ele>667</ele>
        <time>2016-12-09T22:31:09Z</time>
      </trkpt>
      <trkpt lat="46.13646" lon="1.85233">
        <ele>668</ele>
        <time>2016-12-09T22:33:09Z</time>
      </trkpt>
      <trkpt lat="46.13646" lon="1.85234">
        <ele>668</ele>
        <time>2016-12-09T22:35:09Z</time>
      </trkpt>
      <trkpt lat="46.13646" lon="1.85235">
        <ele>668</ele>
        <time>2016-12-09T22:37:09Z</time>
      </trkpt>
      <trkpt lat="46.13647" lon="1.85238">
        <ele>668</ele>
        <time>2016-12-09T22:39:09Z</time>
      </trkpt>
      <trkpt lat="46.13646" lon="1.85241">
        <ele>668</ele>
        <time>2016-12-09T22:41:09Z</time>
      </trkpt>
      <trkpt lat="46.13647" lon="1.85243">
        <ele>669</ele>
        <time>2016-12-09T22:43:09Z</time>
      </trkpt>
      <trkpt lat="46.13647" lon="1.85245">
        <ele>669</ele>
        <time>2016-12-09T22:45:09Z</time>
      </trkpt>
      <trkpt lat="46.13647" lon="1.85246">
        <ele>669</ele>
        <time>2016-12-09T22:47:09Z</time>
      </trkpt>
      <trkpt lat="46.13647" lon="1.85248">
        <ele>669</ele>
        <time>2016-12-09T22:49:09Z</time>
      </trkpt>
      <trkpt lat="46.13648" lon="1.85252">
        <ele>670</ele>
        <time>2016-12-09T22:51:09Z</time>
      </trkpt>
      <trkpt lat="46.13649" lon="1.85254">
        <ele>670</ele>
        <time>2016-12-09T22:53:09Z</time>
      </trkpt>
      <trkpt lat="46.13649" lon="1.85255">
        <ele>670</ele>
        <time>2016-12-09T22:55:09Z</time>
      </trkpt>
      <trkpt lat="46.13649" lon="1.85256">
        <ele>670</ele>
        <time>2016-12-09T22:57:09Z</time>
      </trkpt>
      <trkpt lat="46.1365" lon="1.85256">
        <ele>670</ele>
        <time>2016-12-09T22:59:09Z</time>
      </trkpt>
      <trkpt lat="46.13651" lon="1.85266">
        <ele>671</ele>
        <time>2016-12-09T23:01:09Z</time>
      </trkpt>
      <trkpt lat="46.13651" lon="1.85267">
        <ele>671</ele>
        <time>2016-12-09T23:03:09Z</time>
      </trkpt>
      <trkpt lat="46.13651" lon="1.85272">
        <ele>671</ele>
        <time>2016-12-09T23:05:09Z</time>
      </trkpt>
      <trkpt lat="46.13652" lon="1.85276">
        <ele>672</ele>
        <time>2016-12-09T23:07:09Z</time>
      </trkpt>
      <trkpt lat="46.13653" lon="1.85285">
        <ele>673</ele>
        <time>2016-12-09T23:09:09Z</time>
      </trkpt>
      <trkpt lat="46.13653" lon="1.85288">
        <ele>673</ele>
        <time>2016-12-09T23:11:09Z</time>
      </trkpt>
      <trkpt lat="46.13654" lon="1.8529">
        <ele>673</ele>
        <time>2016-12-09T23:13:09Z</time>
      </trkpt>
      <trkpt lat="46.13655" lon="1.85292">
        <ele>673</ele>
        <time>2016-12-09T23:15:09Z</time>
      </trkpt>
      <trkpt lat="46.13656" lon="1.85294">
        <ele>673</ele>
        <time>2016-12-09T23:17:09Z</time>
      </trkpt>
      <trkpt lat="46.13656" lon="1.85295">
        <ele>674</ele>
        <time>2016-12-09T23:19:09Z</time>
      </trkpt>
      <trkpt lat="46.13656" lon="1.85297">
        <ele>674</ele>
        <time>2016-12-09T23:21:09Z</time>
      </trkpt>
      <trkpt lat="46.13656" lon="1.85299">
        <ele>674</ele>
        <time>2016-12-09T23:23:09Z</time>
      </trkpt>
      <trkpt lat="46.13656" lon="1.853">
        <ele>674</ele>
        <time>2016-12-09T23:25:09Z</time>
      </trkpt>
      <trkpt lat="46.13656" lon="1.85302">
        <ele>674</ele>
        <time>2016-12-09T23:27:09Z</time>
      </trkpt>
      <trkpt lat="46.13657" lon="1.85303">
        <ele>674</ele>
        <time>2016-12-09T23:29:09Z</time>
      </trkpt>
      <trkpt lat="46.13657" lon="1.8531">
        <ele>675</ele>
        <time>2016-12-09T23:31:09Z</time>
      </trkpt>
      <trkpt lat="46.13658" lon="1.85313">
        <ele>675</ele>
        <time>2016-12-09T23:33:09Z</time>
      </trkpt>
      <trkpt lat="46.13658" lon="1.8532">
        <ele>676</ele>
        <time>2016-12-09T23:35:09Z</time>
      </trkpt>
      <trkpt lat="46.13659" lon="1.85321">
        <ele>676</ele>
        <time>2016-12-09T23:37:09Z</time>
      </trkpt>
      <trkpt lat="46.13658" lon="1.85324">
        <ele>676</ele>
        <time>2016-12-09T23:39:09Z</time>
      </trkpt>
      <trkpt lat="46.1366" lon="1.85327">
        <ele>676</ele>
        <time>2016-12-09T23:41:09Z</time>
      </trkpt>
      <trkpt lat="46.13659" lon="1.85333">
        <ele>677</ele>
        <time>2016-12-09T23:43:09Z</time>
      </trkpt>
      <trkpt lat="46.1366" lon="1.85337">
        <ele>677</ele>
        <time>2016-12-09T23:45:09Z</time>
      </trkpt>
      <trkpt lat="46.1366" lon="1.8534">
        <ele>677</ele>
        <time>2016-12-09T23:47:09Z</time>
      </trkpt>
      <trkpt lat="46.1366" lon="1.85341">
        <ele>677</ele>
        <time>2016-12-09T23:49:09Z</time>
      </trkpt>
      <trkpt lat="46.1366" lon="1.85344">
        <ele>677</ele>
        <time>2016-12-09T23:51:09Z</time>
      </trkpt>
      <trkpt lat="46.13661" lon="1.85348">
        <ele>677</ele>
        <time>2016-12-09T23:53:09Z</time>
      </trkpt>
      <trkpt lat="46.13662" lon="1.85349">
        <ele>677</ele>
        <time>2016-12-09T23:55:09Z</time>
      </trkpt>
      <trkpt lat="46.13665" lon="1.85349">
        <ele>677</ele>
        <time>2016-12-09T23:57:09Z</time>
      </trkpt>
      <trkpt lat="46.13664" lon="1.85357">
        <ele>677</ele>
        <time>2016-12-09T23:59:09Z</time>
      </trkpt>
      <trkpt lat="46.13664" lon="1.85358">
        <ele>677</ele>
        <time>2016-12-10T00:01:09Z</time>
      </trkpt>
      <trkpt lat="46.13669" lon="1.85358">
        <ele>677</ele>
        <time>2016-12-10T00:03:09Z</time>
      </trkpt>
      <trkpt lat="46.13671" lon="1.85359">
        <ele>677</ele>
        <time>2016-12-10T00:05:09Z</time>
      </trkpt>
      <trkpt lat="46.13681" lon="1.85357">
        <ele>678</ele>
        <time>2016-12-10T00:07:09Z</time>
      </trkpt>
      <trkpt lat="46.13684" lon="1.85358">
        <ele>678</ele>
        <time>2016-12-10T00:09:09Z</time>
      </trkpt>
      <trkpt lat="46.13687" lon="1.85357">
        <ele>678</ele>
        <time>2016-12-10T00:11:09Z</time>
      </trkpt>
      <trkpt lat="46.13694" lon="1.85355">
        <ele>678</ele>
        <time>2016-12-10T00:13:09Z</time>
      </trkpt>
      <trkpt lat="46.13697" lon="1.85356">
        <ele>678</ele>
        <time>2016-12-10T00:15:09Z</time>
      </trkpt>
      <trkpt lat="46.13699" lon="1.85357">
        <ele>678</ele>
        <time>2016-12-10T00:17:09Z</time>
      </trkpt>
      <trkpt lat="46.13701" lon="1.85356">
        <ele>678</ele>
        <time>2016-12-10T00:19:09Z</time>
      </trkpt>
      <trkpt lat="46.13706" lon="1.85356">
        <ele>678</ele>
        <time>2016-12-10T00:21:09Z</time>
      </trkpt>
      <trkpt lat="46.13709" lon="1.85355">
        <ele>678</ele>
        <time>2016-12-10T00:23:09Z</time>
      </trkpt>
      <trkpt lat="46.13727" lon="1.85353">
        <ele>678</ele>
        <time>2016-12-10T00:25:09Z</time>
      </trkpt>
      <trkpt lat="46.13732" lon="1.85353">
        <ele>678</ele>
        <time>2016-12-10T00:27:09Z</time>
      </trkpt>
      <trkpt lat="46.13735" lon="1.85352">
        <ele>678</ele>
        <time>2016-12-10T00:29:09Z</time>
      </trkpt>
      <trkpt lat="46.13752" lon="1.85352">
        <ele>678</ele>
        <time>2016-12-10T00:31:09Z</time>
      </trkpt>
      <trkpt lat="46.13756" lon="1.85354">
        <ele>678</ele>
        <time>2016-12-10T00:33:09Z</time>
      </trkpt>
      <trkpt lat="46.13766" lon="1.85356">
        <ele>678</ele>
        <time>2016-12-10T00:35:09Z</time>
      </trkpt>
      <trkpt lat="46.13769" lon="1.85356">
        <ele>678</ele>
        <time>2016-12-10T00:37:09Z</time>
      </trkpt>
      <trkpt lat="46.13774" lon="1.85354">
        <ele>678</ele>
        <time>2016-12-10T00:39:09Z</time>
      </trkpt>
      <trkpt lat="46.13777" lon="1.85354">
        <ele>678</ele>
        <time>2016-12-10T00:41:09Z</time>
      </trkpt>
      <trkpt lat="46.13783" lon="1.85354">
        <ele>678</ele>
        <time>2016-12-10T00:43:09Z</time>
      </trkpt>
      <trkpt lat="46.13787" lon="1.85354">
        <ele>678</ele>
        <time>2016-12-10T00:45:09Z</time>
      </trkpt>
      <trkpt lat="46.13791" lon="1.85355">
        <ele>678</ele>
        <time>2016-12-10T00:47:09Z</time>
      </trkpt>
      <trkpt lat="46.13796" lon="1.85355">
        <ele>678</ele>
        <time>2016-12-10T00:49:09Z</time>
      </trkpt>
      <trkpt lat="46.13801" lon="1.85355">
        <ele>678</ele>
        <time>2016-12-10T00:51:09Z</time>
      </trkpt>
      <trkpt lat="46.13804" lon="1.85355">
        <ele>678</ele>
        <time>2016-12-10T00:53:09Z</time>
      </trkpt>
      <trkpt lat="46.13806" lon="1.85355">
        <ele>677</ele>
        <time>2016-12-10T00:55:09Z</time>
      </trkpt>
      <trkpt lat="46.13805" lon="1.85355">
        <ele>678</ele>
        <time>2016-12-10T00:57:09Z</time>
      </trkpt>
      <trkpt lat="46.13805" lon="1.85355">
        <ele>678</ele>
        <time>2016-12-10T00:59:09Z</time>
      </trkpt>
      <trkpt lat="46.13804" lon="1.85355">
        <ele>678</ele>
        <time>2016-12-10T01:01:09Z</time>
      </trkpt>
      <trkpt lat="46.13806" lon="1.85357">
        <ele>678</ele>
        <time>2016-12-10T01:03:09Z</time>
      </trkpt>
      <trkpt lat="46.13804" lon="1.85359">
        <ele>678</ele>
        <time>2016-12-10T01:05:09Z</time>
      </trkpt>
      <trkpt lat="46.13805" lon="1.85359">
        <ele>678</ele>
        <time>2016-12-10T01:07:09Z</time>
      </trkpt>
      <trkpt lat="46.13805" lon="1.85358">
        <ele>678</ele>
        <time>2016-12-10T01:09:09Z</time>
      </trkpt>
      <trkpt lat="46.13804" lon="1.85358">
        <ele>678</ele>
        <time>2016-12-10T01:11:09Z</time>
      </trkpt>
      <trkpt lat="46.13805" lon="1.85358">
        <ele>678</ele>
        <time>2016-12-10T01:13:09Z</time>
      </trkpt>
      <trkpt lat="46.13805" lon="1.85361">
        <ele>678</ele>
        <time>2016-12-10T01:15:09Z</time>
      </trkpt>
      <trkpt lat="46.13805" lon="1.85361">
        <ele>678</ele>
        <time>2016-12-10T01:17:09Z</time>
      </trkpt>
      <trkpt lat="46.13805" lon="1.85362">
        <ele>678</ele>
        <time>2016-12-10T01:19:09Z</time>
      </trkpt>
      <trkpt lat="46.13805" lon="1.85362">
        <ele>678</ele>
        <time>2016-12-10T01:21:09Z</time>
      </trkpt>
      <trkpt lat="46.13805" lon="1.85361">
        <ele>678</ele>
        <time>2016-12-10T01:23:09Z</time>
      </trkpt>
      <trkpt lat="46.13805" lon="1.85363">
        <ele>678</ele>
        <time>2016-12-10T01:25:09Z</time>
      </trkpt>
      <trkpt lat="46.13805" lon="1.85362">
        <ele>678</ele>
        <time>2016-12-10T01:27:09Z</time>
      </trkpt>
      <trkpt lat="46.13805" lon="1.85362">
        <ele>678</ele>
        <time>2016-12-10T01:29:09Z</time>
      </trkpt>
      <trkpt lat="46.13805" lon="1.85361">
        <ele>678</ele>
        <time>2016-12-10T01:31:09Z</time>
      </trkpt>
      <trkpt lat="46.13805" lon="1.85362">
        <ele>678</ele>
        <time>2016-12-10T01:33:09Z</time>
      </trkpt>
      <trkpt lat="46.13805" lon="1.85361">
        <ele>678</ele>
        <time>2016-12-10T01:35:09Z</time>
      </trkpt>
      <trkpt lat="46.13807" lon="1.85363">
        <ele>678</ele>
        <time>2016-12-10T01:37:09Z</time>
      </trkpt>
      <trkpt lat="46.13807" lon="1.85363">
        <ele>678</ele>
        <time>2016-12-10T01:39:09Z</time>
      </trkpt>
      <trkpt lat="46.13807" lon="1.85363">
        <ele>678</ele>
        <time>2016-12-10T01:41:09Z</time>
      </trkpt>
      <trkpt lat="46.13807" lon="1.85362">
        <ele>678</ele>
        <time>2016-12-10T01:43:09Z</time>
      </trkpt>
      <trkpt lat="46.13807" lon="1.85363">
        <ele>678</ele>
        <time>2016-12-10T01:45:09Z</time>
      </trkpt>
      <trkpt lat="46.13807" lon="1.85362">
        <ele>678</ele>
        <time>2016-12-10T01:47:09Z</time>
      </trkpt>
      <trkpt lat="46.13808" lon="1.85365">
        <ele>678</ele>
        <time>2016-12-10T01:49:09Z</time>
      </trkpt>
      <trkpt lat="46.13808" lon="1.85366">
        <ele>678</ele>
        <time>2016-12-10T01:51:09Z</time>
      </trkpt>
      <trkpt lat="46.13808" lon="1.85367">
        <ele>678</ele>
        <time>2016-12-10T01:53:09Z</time>
      </trkpt>
      <trkpt lat="46.13808" lon="1.85367">
        <ele>678</ele>
        <time>2016-12-10T01:55:09Z</time>
      </trkpt>
      <trkpt lat="46.13809" lon="1.85368">
        <ele>678</ele>
        <time>2016-12-10T01:57:09Z</time>
      </trkpt>
      <trkpt lat="46.13808" lon="1.85368">
        <ele>678</ele>
        <time>2016-12-10T01:59:09Z</time>
      </trkpt>
      <trkpt lat="46.13809" lon="1.85368">
        <ele>678</ele>
        <time>2016-12-10T02:01:09Z</time>
      </trkpt>
      <trkpt lat="46.13808" lon="1.85367">
        <ele>678</ele>
        <time>2016-12-10T02:03:09Z</time>
      </trkpt>
      <trkpt lat="46.13812" lon="1.85369">
        <ele>677</ele>
        <time>2016-12-10T02:05:09Z</time>
      </trkpt>
      <trkpt lat="46.13812" lon="1.85369">
        <ele>677</ele>
        <time>2016-12-10T02:07:09Z</time>
      </trkpt>
      <trkpt lat="46.13812" lon="1.85369">
        <ele>677</ele>
        <time>2016-12-10T02:09:09Z</time>
      </trkpt>
      <trkpt lat="46.13813" lon="1.85369">
        <ele>677</ele>
        <time>2016-12-10T02:11:09Z</time>
      </trkpt>
      <trkpt lat="46.13818" lon="1.85369">
        <ele>677</ele>
        <time>2016-12-10T02:13:09Z</time>
      </trkpt>
      <trkpt lat="46.13821" lon="1.85368">
        <ele>677</ele>
        <time>2016-12-10T02:15:09Z</time>
      </trkpt>
      <trkpt lat="46.13826" lon="1.85367">
        <ele>677</ele>
        <time>2016-12-10T02:17:09Z</time>
      </trkpt>
      <trkpt lat="46.13829" lon="1.85367">
        <ele>677</ele>
        <time>2016-12-10T02:19:09Z</time>
      </trkpt>
      <trkpt lat="46.13831" lon="1.85368">
        <ele>677</ele>
        <time>2016-12-10T02:21:09Z</time>
      </trkpt>
      <trkpt lat="46.13835" lon="1.85368">
        <ele>677</ele>
        <time>2016-12-10T02:23:09Z</time>
      </trkpt>
      <trkpt lat="46.13845" lon="1.85368">
        <ele>676</ele>
        <time>2016-12-10T02:25:09Z</time>
      </trkpt>
      <trkpt lat="46.13851" lon="1.85368">
        <ele>676</ele>
        <time>2016-12-10T02:27:09Z</time>
      </trkpt>
      <trkpt lat="46.13854" lon="1.85369">
        <ele>676</ele>
        <time>2016-12-10T02:29:09Z</time>
      </trkpt>
      <trkpt lat="46.1386" lon="1.85373">
        <ele>675</ele>
        <time>2016-12-10T02:31:09Z</time>
      </trkpt>
      <trkpt lat="46.13863" lon="1.85374">
        <ele>675</ele>
        <time>2016-12-10T02:33:09Z</time>
      </trkpt>
      <trkpt lat="46.1387" lon="1.85377">
        <ele>675</ele>
        <time>2016-12-10T02:35:09Z</time>
      </trkpt>
      <trkpt lat="46.13874" lon="1.85378">
        <ele>675</ele>
        <time>2016-12-10T02:37:09Z</time>
      </trkpt>
      <trkpt lat="46.13877" lon="1.85379">
        <ele>674</ele>
        <time>2016-12-10T02:39:09Z</time>
      </trkpt>
      <trkpt lat="46.1388" lon="1.8538">
        <ele>674</ele>
        <time>2016-12-10T02:41:09Z</time>
      </trkpt>
      <trkpt lat="46.13883" lon="1.85381">
        <ele>674</ele>
        <time>2016-12-10T02:43:09Z</time>
      </trkpt>
      <trkpt lat="46.13886" lon="1.85382">
        <ele>674</ele>
        <time>2016-12-10T02:45:09Z</time>
      </trkpt>
      <trkpt lat="46.13892" lon="1.85382">
        <ele>673</ele>
        <time>2016-12-10T02:47:09Z</time>
      </trkpt>
      <trkpt lat="46.139" lon="1.85384">
        <ele>673</ele>
        <time>2016-12-10T02:49:09Z</time>
      </trkpt>
      <trkpt lat="46.13907" lon="1.85384">
        <ele>672</ele>
        <time>2016-12-10T02:51:09Z</time>
      </trkpt>
      <trkpt lat="46.1391" lon="1.85384">
        <ele>672</ele>
        <time>2016-12-10T02:53:09Z</time>
      </trkpt>
      <trkpt lat="46.13914" lon="1.85386">
        <ele>672</ele>
        <time>2016-12-10T02:55:09Z</time>
      </trkpt>
      <trkpt lat="46.13921" lon="1.8539">
        <ele>672</ele>
        <time>2016-12-10T02:57:09Z</time>
      </trkpt>
      <trkpt lat="46.13935" lon="1.85396">
        <ele>671</ele>
        <time>2016-12-10T02:59:09Z</time>
      </trkpt>
      <trkpt lat="46.13941" lon="1.854">
        <ele>671</ele>
        <time>2016-12-10T03:01:09Z</time>
      </trkpt>
      <trkpt lat="46.13947" lon="1.85404">
        <ele>671</ele>
        <time>2016-12-10T03:03:09Z</time>
      </trkpt>
      <trkpt lat="46.1395" lon="1.85405">
        <ele>670</ele>
        <time>2016-12-10T03:05:09Z</time>
      </trkpt>
      <trkpt lat="46.13957" lon="1.85412">
        <ele>670</ele>
        <time>2016-12-10T03:07:09Z</time>
      </trkpt>
      <trkpt lat="46.13959" lon="1.85415">
        <ele>670</ele>
        <time>2016-12-10T03:09:09Z</time>
      </trkpt>
      <trkpt lat="46.13962" lon="1.85417">
        <ele>670</ele>
        <time>2016-12-10T03:11:09Z</time>
      </trkpt>
      <trkpt lat="46.13967" lon="1.85422">
        <ele>670</ele>
        <time>2016-12-10T03:13:09Z</time>
      </trkpt>
      <trkpt lat="46.13976" lon="1.85427">
        <ele>669</ele>
        <time>2016-12-10T03:15:09Z</time>
      </trkpt>
      <trkpt lat="46.13981" lon="1.85427">
        <ele>669</ele>
        <time>2016-12-10T03:17:09Z</time>
      </trkpt>
      <trkpt lat="46.13987" lon="1.8543">
        <ele>669</ele>
        <time>2016-12-10T03:19:09Z</time>
      </trkpt>
      <trkpt lat="46.13992" lon="1.85434">
        <ele>669</ele>
        <time>2016-12-10T03:21:09Z</time>
      </trkpt>
      <trkpt lat="46.13994" lon="1.85436">
        <ele>669</ele>
        <time>2016-12-10T03:23:09Z</time>
      </trkpt>
      <trkpt lat="46.13996" lon="1.85439">
        <ele>669</ele>
        <time>2016-12-10T03:25:09Z</time>
      </trkpt>
      <trkpt lat="46.13999" lon="1.85443">
        <ele>669</ele>
        <time>2016-12-10T03:27:09Z</time>
      </trkpt>
      <trkpt lat="46.14001" lon="1.85444">
        <ele>669</ele>
        <time>2016-12-10T03:29:09Z</time>
      </trkpt>
      <trkpt lat="46.14003" lon="1.85446">
        <ele>669</ele>
        <time>2016-12-10T03:31:09Z</time>
      </trkpt>
      <trkpt lat="46.14008" lon="1.85449">
        <ele>669</ele>
        <time>2016-12-10T03:33:09Z</time>
      </trkpt>
      <trkpt lat="46.1401" lon="1.85452">
        <ele>668</ele>
        <time>2016-12-10T03:35:09Z</time>
      </trkpt>
      <trkpt lat="46.14016" lon="1.85456">
        <ele>668</ele>
        <time>2016-12-10T03:37:09Z</time>
      </trkpt>
      <trkpt lat="46.14024" lon="1.85461">
        <ele>668</ele>
        <time>2016-12-10T03:39:09Z</time>
      </trkpt>
      <trkpt lat="46.14028" lon="1.85464">
        <ele>668</ele>
        <time>2016-12-10T03:41:09Z</time>
      </trkpt>
      <trkpt lat="46.14031" lon="1.85465">
        <ele>668</ele>
        <time>2016-12-10T03:43:09Z</time>
      </trkpt>
      <trkpt lat="46.14044" lon="1.85473">
        <ele>668</ele>
        <time>2016-12-10T03:45:09Z</time>
      </trkpt>
      <trkpt lat="46.14048" lon="1.85476">
        <ele>667</ele>
        <time>2016-12-10T03:47:09Z</time>
      </trkpt>
      <trkpt lat="46.14053" lon="1.85478">
        <ele>667</ele>
        <time>2016-12-10T03:49:09Z</time>
      </trkpt>
      <trkpt lat="46.14061" lon="1.85483">
        <ele>667</ele>
        <time>2016-12-10T03:51:09Z</time>
      </trkpt>
      <trkpt lat="46.14063" lon="1.85484">
        <ele>667</ele>
        <time>2016-12-10T03:53:09Z</time>
      </trkpt>
      <trkpt lat="46.14065" lon="1.85485">
        <ele>667</ele>
        <time>2016-12-10T03:55:09Z</time>
      </trkpt>
      <trkpt lat="46.14067" lon="1.85484">
        <ele>667</ele>
        <time>2016-12-10T03:57:09Z</time>
      </trkpt>
      <trkpt lat="46.14068" lon="1.85483">
        <ele>667</ele>
        <time>2016-12-10T03:59:09Z</time>
      </trkpt>
      <trkpt lat="46.14069" lon="1.85481">
        <ele>667</ele>
        <time>2016-12-10T04:01:09Z</time>
      </trkpt>
      <trkpt lat="46.14066" lon="1.85474">
        <ele>667</ele>
        <time>2016-12-10T04:03:09Z</time>
      </trkpt>
      <trkpt lat="46.14065" lon="1.85471">
        <ele>667</ele>
        <time>2016-12-10T04:05:09Z</time>
      </trkpt>
      <trkpt lat="46.14065" lon="1.85468">
        <ele>667</ele>
        <time>2016-12-10T04:07:09Z</time>
      </trkpt>
      <trkpt lat="46.14065" lon="1.85466">
        <ele>667</ele>
        <time>2016-12-10T04:09:09Z</time>
      </trkpt>
      <trkpt lat="46.14065" lon="1.85464">
        <ele>668</ele>
        <time>2016-12-10T04:11:09Z</time>
      </trkpt>
      <trkpt lat="46.14065" lon="1.85461">
        <ele>668</ele>
        <time>2016-12-10T04:13:09Z</time>
      </trkpt>
      <trkpt lat="46.14064" lon="1.85458">
        <ele>668</ele>
        <time>2016-12-10T04:15:09Z</time>
      </trkpt>
      <trkpt lat="46.14064" lon="1.85454">
        <ele>668</ele>
        <time>2016-12-10T04:17:09Z</time>
      </trkpt>
      <trkpt lat="46.14062" lon="1.85444">
        <ele>668</ele>
        <time>2016-12-10T04:19:09Z</time>
      </trkpt>
      <trkpt lat="46.14062" lon="1.85441">
        <ele>668</ele>
        <time>2016-12-10T04:21:09Z</time>
      </trkpt>
      <trkpt lat="46.14061" lon="1.85437">
        <ele>668</ele>
        <time>2016-12-10T04:23:09Z</time>
      </trkpt>
      <trkpt lat="46.14059" lon="1.85434">
        <ele>668</ele>
        <time>2016-12-10T04:25:09Z</time>
      </trkpt>
      <trkpt lat="46.14058" lon="1.85426">
        <ele>669</ele>
        <time>2016-12-10T04:27:09Z</time>
      </trkpt>
      <trkpt lat="46.14058" lon="1.85422">
        <ele>669</ele>
        <time>2016-12-10T04:29:09Z</time>
      </trkpt>
      <trkpt lat="46.14056" lon="1.85418">
        <ele>669</ele>
        <time>2016-12-10T04:31:09Z</time>
      </trkpt>
      <trkpt lat="46.14056" lon="1.85415">
        <ele>669</ele>
        <time>2016-12-10T04:33:09Z</time>
      </trkpt>
      <trkpt lat="46.14056" lon="1.85412">
        <ele>669</ele>
        <time>2016-12-10T04:35:09Z</time>
      </trkpt>
      <trkpt lat="46.14054" lon="1.85405">
        <ele>669</ele>
        <time>2016-12-10T04:37:09Z</time>
      </trkpt>
      <trkpt lat="46.14052" lon="1.85398">
        <ele>670</ele>
        <time>2016-12-10T04:39:09Z</time>
      </trkpt>
      <trkpt lat="46.14052" lon="1.85395">
        <ele>670</ele>
        <time>2016-12-10T04:41:09Z</time>
      </trkpt>
      <trkpt lat="46.14052" lon="1.8539">
        <ele>670</ele>
        <time>2016-12-10T04:43:09Z</time>
      </trkpt>
      <trkpt lat="46.14051" lon="1.85385">
        <ele>670</ele>
        <time>2016-12-10T04:45:09Z</time>
      </trkpt>
      <trkpt lat="46.14051" lon="1.85381">
        <ele>670</ele>
        <time>2016-12-10T04:47:09Z</time>
      </trkpt>
      <trkpt lat="46.1405" lon="1.85373">
        <ele>671</ele>
        <time>2016-12-10T04:49:09Z</time>
      </trkpt>
      <trkpt lat="46.1405" lon="1.85369">
        <ele>671</ele>
        <time>2016-12-10T04:51:09Z</time>
      </trkpt>
      <trkpt lat="46.1405" lon="1.85366">
        <ele>671</ele>
        <time>2016-12-10T04:53:09Z</time>
      </trkpt>
      <trkpt lat="46.1405" lon="1.8536">
        <ele>671</ele>
        <time>2016-12-10T04:55:09Z</time>
      </trkpt>
      <trkpt lat="46.1405" lon="1.85358">
        <ele>671</ele>
        <time>2016-12-10T04:57:09Z</time>
      </trkpt>
      <trkpt lat="46.14049" lon="1.85354">
        <ele>671</ele>
        <time>2016-12-10T04:59:09Z</time>
      </trkpt>
      <trkpt lat="46.14048" lon="1.85351">
        <ele>671</ele>
        <time>2016-12-10T05:01:09Z</time>
      </trkpt>
      <trkpt lat="46.14048" lon="1.85347">
        <ele>672</ele>
        <time>2016-12-10T05:03:09Z</time>
      </trkpt>
      <trkpt lat="46.14048" lon="1.85344">
        <ele>672</ele>
        <time>2016-12-10T05:05:09Z</time>
      </trkpt>
      <trkpt lat="46.14046" lon="1.85337">
        <ele>672</ele>
        <time>2016-12-10T05:07:09Z</time>
      </trkpt>
      <trkpt lat="46.14045" lon="1.85331">
        <ele>672</ele>
        <time>2016-12-10T05:09:09Z</time>
      </trkpt>
      <trkpt lat="46.14043" lon="1.85319">
        <ele>672</ele>
        <time>2016-12-10T05:11:09Z</time>
      </trkpt>
      <trkpt lat="46.14041" lon="1.85311">
        <ele>672</ele>
        <time>2016-12-10T05:13:09Z</time>
      </trkpt>
      <trkpt lat="46.1404" lon="1.853">
        <ele>672</ele>
        <time>2016-12-10T05:15:09Z</time>
      </trkpt>
      <trkpt lat="46.14039" lon="1.85293">
        <ele>672</ele>
        <time>2016-12-10T05:17:09Z</time>
      </trkpt>
      <trkpt lat="46.14036" lon="1.85285">
        <ele>672</ele>
        <time>2016-12-10T05:19:09Z</time>
      </trkpt>
      <trkpt lat="46.14035" lon="1.85279">
        <ele>672</ele>
        <time>2016-12-10T05:21:09Z</time>
      </trkpt>
      <trkpt lat="46.14035" lon="1.85275">
        <ele>672</ele>
        <time>2016-12-10T05:23:09Z</time>
      </trkpt>
      <trkpt lat="46.14035" lon="1.85267">
        <ele>672</ele>
        <time>2016-12-10T05:25:09Z</time>
      </trkpt>
      <trkpt lat="46.14035" lon="1.85264">
        <ele>672</ele>
        <time>2016-12-10T05:27:09Z</time>
      </trkpt>
      <trkpt lat="46.14032" lon="1.85252">
        <ele>672</ele>
        <time>2016-12-10T05:29:09Z</time>
      </trkpt>
      <trkpt lat="46.14032" lon="1.85249">
        <ele>672</ele>
        <time>2016-12-10T05:31:09Z</time>
      </trkpt>
      <trkpt lat="46.14029" lon="1.8523">
        <ele>673</ele>
        <time>2016-12-10T05:33:09Z</time>
      </trkpt>
      <trkpt lat="46.14029" lon="1.85222">
        <ele>673</ele>
        <time>2016-12-10T05:35:09Z</time>
      </trkpt>
      <trkpt lat="46.14029" lon="1.85217">
        <ele>673</ele>
        <time>2016-12-10T05:37:09Z</time>
      </trkpt>
      <trkpt lat="46.14031" lon="1.85214">
        <ele>674</ele>
        <time>2016-12-10T05:39:09Z</time>
      </trkpt>
      <trkpt lat="46.14038" lon="1.85205">
        <ele>674</ele>
        <time>2016-12-10T05:41:09Z</time>
      </trkpt>
      <trkpt lat="46.14043" lon="1.85201">
        <ele>675</ele>
        <time>2016-12-10T05:43:09Z</time>
      </trkpt>
      <trkpt lat="46.14048" lon="1.85198">
        <ele>675</ele>
        <time>2016-12-10T05:45:09Z</time>
      </trkpt>
      <trkpt lat="46.1405" lon="1.85197">
        <ele>675</ele>
        <time>2016-12-10T05:47:09Z</time>
      </trkpt>
      <trkpt lat="46.14053" lon="1.85195">
        <ele>675</ele>
        <time>2016-12-10T05:49:09Z</time>
      </trkpt>
      <trkpt lat="46.1406" lon="1.85192">
        <ele>676</ele>
        <time>2016-12-10T05:51:09Z</time>
      </trkpt>
      <trkpt lat="46.14066" lon="1.8519">
        <ele>676</ele>
        <time>2016-12-10T05:53:09Z</time>
      </trkpt>
      <trkpt lat="46.14069" lon="1.8519">
        <ele>676</ele>
        <time>2016-12-10T05:55:09Z</time>
      </trkpt>
      <trkpt lat="46.14072" lon="1.85189">
        <ele>676</ele>
        <time>2016-12-10T05:57:09Z</time>
      </trkpt>
      <trkpt lat="46.14081" lon="1.85189">
        <ele>677</ele>
        <time>2016-12-10T05:59:09Z</time>
      </trkpt>
      <trkpt lat="46.14084" lon="1.85187">
        <ele>677</ele>
        <time>2016-12-10T06:01:09Z</time>
      </trkpt>
      <trkpt lat="46.14087" lon="1.85186">
        <ele>677</ele>
        <time>2016-12-10T06:03:09Z</time>
      </trkpt>
      <trkpt lat="46.1409" lon="1.85185">
        <ele>676</ele>
        <time>2016-12-10T06:05:09Z</time>
      </trkpt>
      <trkpt lat="46.14093" lon="1.85184">
        <ele>676</ele>
        <time>2016-12-10T06:07:09Z</time>
      </trkpt>
      <trkpt lat="46.141" lon="1.85183">
        <ele>676</ele>
        <time>2016-12-10T06:09:09Z</time>
      </trkpt>
      <trkpt lat="46.14111" lon="1.85182">
        <ele>675</ele>
        <time>2016-12-10T06:11:09Z</time>
      </trkpt>
      <trkpt lat="46.14114" lon="1.85182">
        <ele>674</ele>
        <time>2016-12-10T06:13:09Z</time>
      </trkpt>
      <trkpt lat="46.14117" lon="1.85182">
        <ele>674</ele>
        <time>2016-12-10T06:15:09Z</time>
      </trkpt>
      <trkpt lat="46.14126" lon="1.85182">
        <ele>673</ele>
        <time>2016-12-10T06:17:09Z</time>
      </trkpt>
      <trkpt lat="46.14131" lon="1.85182">
        <ele>673</ele>
        <time>2016-12-10T06:19:09Z</time>
      </trkpt>
      <trkpt lat="46.1414" lon="1.85183">
        <ele>672</ele>
        <time>2016-12-10T06:21:09Z</time>
      </trkpt>
      <trkpt lat="46.14148" lon="1.85184">
        <ele>671</ele>
        <time>2016-12-10T06:23:09Z</time>
      </trkpt>
      <trkpt lat="46.14151" lon="1.85185">
        <ele>671</ele>
        <time>2016-12-10T06:25:09Z</time>
      </trkpt>
      <trkpt lat="46.14154" lon="1.85187">
        <ele>670</ele>
        <time>2016-12-10T06:27:09Z</time>
      </trkpt>
      <trkpt lat="46.1416" lon="1.85189">
        <ele>670</ele>
        <time>2016-12-10T06:29:09Z</time>
      </trkpt>
      <trkpt lat="46.14164" lon="1.85191">
        <ele>670</ele>
        <time>2016-12-10T06:31:09Z</time>
      </trkpt>
      <trkpt lat="46.14174" lon="1.85195">
        <ele>668</ele>
        <time>2016-12-10T06:33:09Z</time>
      </trkpt>
      <trkpt lat="46.14177" lon="1.85196">
        <ele>668</ele>
        <time>2016-12-10T06:35:09Z</time>
      </trkpt>
      <trkpt lat="46.14179" lon="1.85198">
        <ele>668</ele>
        <time>2016-12-10T06:37:09Z</time>
      </trkpt>
      <trkpt lat="46.14182" lon="1.85199">
        <ele>667</ele>
        <time>2016-12-10T06:39:09Z</time>
      </trkpt>
      <trkpt lat="46.14184" lon="1.85201">
        <ele>667</ele>
        <time>2016-12-10T06:41:09Z</time>
      </trkpt>
      <trkpt lat="46.14187" lon="1.85203">
        <ele>666</ele>
        <time>2016-12-10T06:43:09Z</time>
      </trkpt>
      <trkpt lat="46.14189" lon="1.85204">
        <ele>666</ele>
        <time>2016-12-10T06:45:09Z</time>
      </trkpt>
      <trkpt lat="46.1419" lon="1.85205">
        <ele>666</ele>
        <time>2016-12-10T06:47:09Z</time>
      </trkpt>
      <trkpt lat="46.14189" lon="1.85204">
        <ele>666</ele>
        <time>2016-12-10T06:49:09Z</time>
      </trkpt>
      <trkpt lat="46.14189" lon="1.85203">
        <ele>666</ele>
        <time>2016-12-10T06:51:09Z</time>
      </trkpt>
      <trkpt lat="46.14189" lon="1.85205">
        <ele>666</ele>
        <time>2016-12-10T06:53:09Z</time>
      </trkpt>
      <trkpt lat="46.14189" lon="1.85204">
        <ele>666</ele>
        <time>2016-12-10T06:55:09Z</time>
      </trkpt>
      <trkpt lat="46.14189" lon="1.85204">
        <ele>666</ele>
        <time>2016-12-10T06:57:09Z</time>
      </trkpt>
      <trkpt lat="46.14189" lon="1.85204">
        <ele>666</ele>
        <time>2016-12-10T06:59:09Z</time>
      </trkpt>
      <trkpt lat="46.1419" lon="1.85205">
        <ele>666</ele>
        <time>2016-12-10T07:01:09Z</time>
      </trkpt>
      <trkpt lat="46.14193" lon="1.85205">
        <ele>666</ele>
        <time>2016-12-10T07:03:09Z</time>
      </trkpt>
      <trkpt lat="46.14192" lon="1.85205">
        <ele>666</ele>
        <time>2016-12-10T07:05:09Z</time>
      </trkpt>
      <trkpt lat="46.14192" lon="1.85204">
        <ele>666</ele>
        <time>2016-12-10T07:07:09Z</time>
      </trkpt>
      <trkpt lat="46.14192" lon="1.85205">
        <ele>666</ele>
        <time>2016-12-10T07:09:09Z</time>
      </trkpt>
      <trkpt lat="46.14192" lon="1.85204">
        <ele>666</ele>
        <time>2016-12-10T07:11:09Z</time>
      </trkpt>
      <trkpt lat="46.14193" lon="1.85206">
        <ele>666</ele>
        <time>2016-12-10T07:13:09Z</time>
      </trkpt>
      <trkpt lat="46.14192" lon="1.85207">
        <ele>666</ele>
        <time>2016-12-10T07:15:09Z</time>
      </trkpt>
      <trkpt lat="46.14193" lon="1.85207">
        <ele>666</ele>
        <time>2016-12-10T07:17:09Z</time>
      </trkpt>
      <trkpt lat="46.14192" lon="1.85207">
        <ele>666</ele>
        <time>2016-12-10T07:19:09Z</time>
      </trkpt>
      <trkpt lat="46.14193" lon="1.85206">
        <ele>666</ele>
        <time>2016-12-10T07:21:09Z</time>
      </trkpt>
      <trkpt lat="46.14192" lon="1.85207">
        <ele>666</ele>
        <time>2016-12-10T07:23:09Z</time>
      </trkpt>
      <trkpt lat="46.14193" lon="1.85207">
        <ele>666</ele>
        <time>2016-12-10T07:25:09Z</time>
      </trkpt>
      <trkpt lat="46.14192" lon="1.85207">
        <ele>666</ele>
        <time>2016-12-10T07:27:09Z</time>
      </trkpt>
      <trkpt lat="46.14193" lon="1.85207">
        <ele>666</ele>
        <time>2016-12-10T07:29:09Z</time>
      </trkpt>
      <trkpt lat="46.14193" lon="1.85207">
        <ele>666</ele>
        <time>2016-12-10T07:31:09Z</time>
      </trkpt>
      <trkpt lat="46.14192" lon="1.85207">
        <ele>666</ele>
        <time>2016-12-10T07:33:09Z</time>
      </trkpt>
      <trkpt lat="46.14192" lon="1.85208">
        <ele>666</ele>
        <time>2016-12-10T07:35:09Z</time>
      </trkpt>
      <trkpt lat="46.14192" lon="1.85207">
        <ele>666</ele>
        <time>2016-12-10T07:37:09Z</time>
      </trkpt>
      <trkpt lat="46.14191" lon="1.85208">
        <ele>666</ele>
        <time>2016-12-10T07:39:09Z</time>
      </trkpt>
      <trkpt lat="46.14194" lon="1.85205">
        <ele>665</ele>
        <time>2016-12-10T07:41:09Z</time>
      </trkpt>
      <trkpt lat="46.14197" lon="1.85205">
        <ele>665</ele>
        <time>2016-12-10T07:43:09Z</time>
      </trkpt>
      <trkpt lat="46.14188" lon="1.85219">
        <ele>667</ele>
        <time>2016-12-10T07:45:09Z</time>
      </trkpt>
      <trkpt lat="46.1419" lon="1.8522">
        <ele>666</ele>
        <time>2016-12-10T07:47:09Z</time>
      </trkpt>
      <trkpt lat="46.14192" lon="1.85222">
        <ele>666</ele>
        <time>2016-12-10T07:49:09Z</time>
      </trkpt>
      <trkpt lat="46.14193" lon="1.85223">
        <ele>666</ele>
        <time>2016-12-10T07:51:09Z</time>
      </trkpt>
      <trkpt lat="46.14195" lon="1.85225">
        <ele>666</ele>
        <time>2016-12-10T07:53:09Z</time>
      </trkpt>
      <trkpt lat="46.14204" lon="1.85228">
        <ele>665</ele>
        <time>2016-12-10T07:55:09Z</time>
      </trkpt>
      <trkpt lat="46.14207" lon="1.85229">
        <ele>664</ele>
        <time>2016-12-10T07:57:09Z</time>
      </trkpt>
      <trkpt lat="46.14211" lon="1.85232">
        <ele>664</ele>
        <time>2016-12-10T07:59:09Z</time>
      </trkpt>
      <trkpt lat="46.14213" lon="1.85234">
        <ele>663</ele>
        <time>2016-12-10T08:01:09Z</time>
      </trkpt>
      <trkpt lat="46.14216" lon="1.85235">
        <ele>663</ele>
        <time>2016-12-10T08:03:09Z</time>
      </trkpt>
      <trkpt lat="46.1422" lon="1.85236">
        <ele>663</ele>
        <time>2016-12-10T08:05:09Z</time>
      </trkpt>
      <trkpt lat="46.14224" lon="1.8524">
        <ele>662</ele>
        <time>2016-12-10T08:07:09Z</time>
      </trkpt>
      <trkpt lat="46.14227" lon="1.85242">
        <ele>662</ele>
        <time>2016-12-10T08:09:09Z</time>
      </trkpt>
      <trkpt lat="46.1423" lon="1.85242">
        <ele>661</ele>
        <time>2016-12-10T08:11:09Z</time>
      </trkpt>
      <trkpt lat="46.14233" lon="1.85243">
        <ele>661</ele>
        <time>2016-12-10T08:13:09Z</time>
      </trkpt>
      <trkpt lat="46.14237" lon="1.85244">
        <ele>661</ele>
        <time>2016-12-10T08:15:09Z</time>
      </trkpt>
      <trkpt lat="46.14244" lon="1.85243">
        <ele>660</ele>
        <time>2016-12-10T08:17:09Z</time>
      </trkpt>
      <trkpt lat="46.14248" lon="1.85243">
        <ele>659</ele>
        <time>2016-12-10T08:19:09Z</time>
      </trkpt>
      <trkpt lat="46.14255" lon="1.85243">
        <ele>658</ele>
        <time>2016-12-10T08:21:09Z</time>
      </trkpt>
      <trkpt lat="46.14261" lon="1.85243">
        <ele>657</ele>
        <time>2016-12-10T08:23:09Z</time>
      </trkpt>
      <trkpt lat="46.14264" lon="1.85244">
        <ele>657</ele>
        <time>2016-12-10T08:25:09Z</time>
      </trkpt>
      <trkpt lat="46.14271" lon="1.85243">
        <ele>656</ele>
        <time>2016-12-10T08:27:09Z</time>
      </trkpt>
      <trkpt lat="46.14279" lon="1.8524">
        <ele>655</ele>
        <time>2016-12-10T08:29:09Z</time>
      </trkpt>
      <trkpt lat="46.14282" lon="1.85241">
        <ele>655</ele>
        <time>2016-12-10T08:31:09Z</time>
      </trkpt>
      <trkpt lat="46.14292" lon="1.85237">
        <ele>653</ele>
        <time>2016-12-10T08:33:09Z</time>
      </trkpt>
      <trkpt lat="46.14294" lon="1.85237">
        <ele>653</ele>
        <time>2016-12-10T08:35:09Z</time>
      </trkpt>
      <trkpt lat="46.14296" lon="1.85237">
        <ele>653</ele>
        <time>2016-12-10T08:37:09Z</time>
      </trkpt>
      <trkpt lat="46.14302" lon="1.85237">
        <ele>652</ele>
        <time>2016-12-10T08:39:09Z</time>
      </trkpt>
      <trkpt lat="46.14305" lon="1.85237">
        <ele>651</ele>
        <time>2016-12-10T08:41:09Z</time>
      </trkpt>
      <trkpt lat="46.14312" lon="1.85236">
        <ele>651</ele>
        <time>2016-12-10T08:43:09Z</time>
      </trkpt>
      <trkpt lat="46.14314" lon="1.85235">
        <ele>650</ele>
        <time>2016-12-10T08:45:09Z</time>
      </trkpt>
      <trkpt lat="46.1432" lon="1.85236">
        <ele>650</ele>
        <time>2016-12-10T08:47:09Z</time>
      </trkpt>
      <trkpt lat="46.14324" lon="1.85235">
        <ele>649</ele>
        <time>2016-12-10T08:49:09Z</time>
      </trkpt>
      <trkpt lat="46.14327" lon="1.85236">
        <ele>649</ele>
        <time>2016-12-10T08:51:09Z</time>
      </trkpt>
      <trkpt lat="46.1433" lon="1.85235">
        <ele>648</ele>
        <time>2016-12-10T08:53:09Z</time>
      </trkpt>
      <trkpt lat="46.14333" lon="1.85236">
        <ele>648</ele>
        <time>2016-12-10T08:55:09Z</time>
      </trkpt>
      <trkpt lat="46.14338" lon="1.85235">
        <ele>648</ele>
        <time>2016-12-10T08:57:09Z</time>
      </trkpt>
      <trkpt lat="46.14341" lon="1.85235">
        <ele>648</ele>
        <time>2016-12-10T08:59:09Z</time>
      </trkpt>
      <trkpt lat="46.14343" lon="1.85235">
        <ele>648</ele>
        <time>2016-12-10T09:01:09Z</time>
      </trkpt>
      <trkpt lat="46.14346" lon="1.85235">
        <ele>649</ele>
        <time>2016-12-10T09:03:09Z</time>
      </trkpt>
      <trkpt lat="46.14352" lon="1.85235">
        <ele>649</ele>
        <time>2016-12-10T09:05:09Z</time>
      </trkpt>
      <trkpt lat="46.1437" lon="1.85232">
        <ele>650</ele>
        <time>2016-12-10T09:07:09Z</time>
      </trkpt>
      <trkpt lat="46.14373" lon="1.85233">
        <ele>650</ele>
        <time>2016-12-10T09:09:09Z</time>
      </trkpt>
      <trkpt lat="46.14376" lon="1.85234">
        <ele>650</ele>
        <time>2016-12-10T09:11:09Z</time>
      </trkpt>
      <trkpt lat="46.14379" lon="1.85234">
        <ele>650</ele>
        <time>2016-12-10T09:13:09Z</time>
      </trkpt>
      <trkpt lat="46.14391" lon="1.8524">
        <ele>651</ele>
        <time>2016-12-10T09:15:09Z</time>
      </trkpt>
      <trkpt lat="46.14394" lon="1.85241">
        <ele>651</ele>
        <time>2016-12-10T09:17:09Z</time>
      </trkpt>
      <trkpt lat="46.14401" lon="1.85244">
        <ele>651</ele>
        <time>2016-12-10T09:19:09Z</time>
      </trkpt>
      <trkpt lat="46.14402" lon="1.85247">
        <ele>651</ele>
        <time>2016-12-10T09:21:09Z</time>
      </trkpt>
      <trkpt lat="46.14403" lon="1.8525">
        <ele>651</ele>
        <time>2016-12-10T09:23:09Z</time>
      </trkpt>
      <trkpt lat="46.14404" lon="1.85252">
        <ele>651</ele>
        <time>2016-12-10T09:25:09Z</time>
      </trkpt>
      <trkpt lat="46.14405" lon="1.85255">
        <ele>651</ele>
        <time>2016-12-10T09:27:09Z</time>
      </trkpt>
      <trkpt lat="46.14408" lon="1.85263">
        <ele>650</ele>
        <time>2016-12-10T09:29:09Z</time>
      </trkpt>
      <trkpt lat="46.14408" lon="1.85267">
        <ele>650</ele>
        <time>2016-12-10T09:31:09Z</time>
      </trkpt>
      <trkpt lat="46.1441" lon="1.8527">
        <ele>650</ele>
        <time>2016-12-10T09:33:09Z</time>
      </trkpt>
      <trkpt lat="46.1441" lon="1.85274">
        <ele>650</ele>
        <time>2016-12-10T09:35:09Z</time>
      </trkpt>
      <trkpt lat="46.14408" lon="1.85277">
        <ele>649</ele>
        <time>2016-12-10T09:37:09Z</time>
      </trkpt>
      <trkpt lat="46.14408" lon="1.85281">
        <ele>649</ele>
        <time>2016-12-10T09:39:09Z</time>
      </trkpt>
      <trkpt lat="46.14406" lon="1.85288">
        <ele>648</ele>
        <time>2016-12-10T09:41:09Z</time>
      </trkpt>
      <trkpt lat="46.14406" lon="1.85294">
        <ele>648</ele>
        <time>2016-12-10T09:43:09Z</time>
      </trkpt>
      <trkpt lat="46.14407" lon="1.85297">
        <ele>648</ele>
        <time>2016-12-10T09:45:09Z</time>
      </trkpt>
      <trkpt lat="46.14409" lon="1.85308">
        <ele>647</ele>
        <time>2016-12-10T09:47:09Z</time>
      </trkpt>
      <trkpt lat="46.14411" lon="1.85307">
        <ele>647</ele>
        <time>2016-12-10T09:49:09Z</time>
      </trkpt>
      <trkpt lat="46.14423" lon="1.8532">
        <ele>645</ele>
        <time>2016-12-10T09:51:09Z</time>
      </trkpt>
      <trkpt lat="46.14425" lon="1.85322">
        <ele>645</ele>
        <time>2016-12-10T09:53:09Z</time>
      </trkpt>
      <trkpt lat="46.14429" lon="1.85323">
        <ele>644</ele>
        <time>2016-12-10T09:55:09Z</time>
      </trkpt>
      <trkpt lat="46.14437" lon="1.8533">
        <ele>643</ele>
        <time>2016-12-10T09:57:09Z</time>
      </trkpt>
      <trkpt lat="46.1444" lon="1.85331">
        <ele>643</ele>
        <time>2016-12-10T09:59:09Z</time>
      </trkpt>
      <trkpt lat="46.14442" lon="1.85333">
        <ele>643</ele>
        <time>2016-12-10T10:01:09Z</time>
      </trkpt>
      <trkpt lat="46.14444" lon="1.85336">
        <ele>642</ele>
        <time>2016-12-10T10:03:09Z</time>
      </trkpt>
      <trkpt lat="46.14449" lon="1.85338">
        <ele>642</ele>
        <time>2016-12-10T10:05:09Z</time>
      </trkpt>
      <trkpt lat="46.14459" lon="1.85346">
        <ele>641</ele>
        <time>2016-12-10T10:07:09Z</time>
      </trkpt>
      <trkpt lat="46.14471" lon="1.85351">
        <ele>639</ele>
        <time>2016-12-10T10:09:09Z</time>
      </trkpt>
      <trkpt lat="46.14474" lon="1.85353">
        <ele>639</ele>
        <time>2016-12-10T10:11:09Z</time>
      </trkpt>
      <trkpt lat="46.14478" lon="1.85353">
        <ele>639</ele>
        <time>2016-12-10T10:13:09Z</time>
      </trkpt>
      <trkpt lat="46.14481" lon="1.85355">
        <ele>638</ele>
        <time>2016-12-10T10:15:09Z</time>
      </trkpt>
      <trkpt lat="46.14489" lon="1.85361">
        <ele>637</ele>
        <time>2016-12-10T10:17:09Z</time>
      </trkpt>
      <trkpt lat="46.14494" lon="1.85367">
        <ele>636</ele>
        <time>2016-12-10T10:19:09Z</time>
      </trkpt>
      <trkpt lat="46.14496" lon="1.85371">
        <ele>635</ele>
        <time>2016-12-10T10:21:09Z</time>
      </trkpt>
      <trkpt lat="46.14497" lon="1.85375">
        <ele>635</ele>
        <time>2016-12-10T10:23:09Z</time>
      </trkpt>
      <trkpt lat="46.14497" lon="1.85383">
        <ele>634</ele>
        <time>2016-12-10T10:25:09Z</time>
      </trkpt>
      <trkpt lat="46.14496" lon="1.85387">
        <ele>634</ele>
        <time>2016-12-10T10:27:09Z</time>
      </trkpt>
      <trkpt lat="46.14492" lon="1.85399">
        <ele>633</ele>
        <time>2016-12-10T10:29:09Z</time>
      </trkpt>
      <trkpt lat="46.1449" lon="1.85403">
        <ele>633</ele>
        <time>2016-12-10T10:31:09Z</time>
      </trkpt>
      <trkpt lat="46.1449" lon="1.85408">
        <ele>632</ele>
        <time>2016-12-10T10:33:09Z</time>
      </trkpt>
      <trkpt lat="46.14491" lon="1.85417">
        <ele>631</ele>
        <time>2016-12-10T10:35:09Z</time>
      </trkpt>
      <trkpt lat="46.14492" lon="1.85421">
        <ele>631</ele>
        <time>2016-12-10T10:37:09Z</time>
      </trkpt>
      <trkpt lat="46.14494" lon="1.85425">
        <ele>631</ele>
        <time>2016-12-10T10:39:09Z</time>
      </trkpt>
      <trkpt lat="46.14497" lon="1.85427">
        <ele>631</ele>
        <time>2016-12-10T10:41:09Z</time>
      </trkpt>
      <trkpt lat="46.145" lon="1.8543">
        <ele>630</ele>
        <time>2016-12-10T10:43:09Z</time>
      </trkpt>
      <trkpt lat="46.14501" lon="1.85435">
        <ele>630</ele>
        <time>2016-12-10T10:45:09Z</time>
      </trkpt>
      <trkpt lat="46.145" lon="1.8544">
        <ele>630</ele>
        <time>2016-12-10T10:47:09Z</time>
      </trkpt>
      <trkpt lat="46.14496" lon="1.8546">
        <ele>631</ele>
        <time>2016-12-10T10:49:09Z</time>
      </trkpt>
      <trkpt lat="46.14496" lon="1.85477">
        <ele>631</ele>
        <time>2016-12-10T10:51:09Z</time>
      </trkpt>
      <trkpt lat="46.14498" lon="1.85484">
        <ele>631</ele>
        <time>2016-12-10T10:53:09Z</time>
      </trkpt>
      <trkpt lat="46.145" lon="1.85487">
        <ele>631</ele>
        <time>2016-12-10T10:55:09Z</time>
      </trkpt>
      <trkpt lat="46.14505" lon="1.85493">
        <ele>631</ele>
        <time>2016-12-10T10:57:09Z</time>
      </trkpt>
      <trkpt lat="46.14508" lon="1.85494">
        <ele>630</ele>
        <time>2016-12-10T10:59:09Z</time>
      </trkpt>
      <trkpt lat="46.1451" lon="1.85496">
        <ele>630</ele>
        <time>2016-12-10T11:01:09Z</time>
      </trkpt>
      <trkpt lat="46.14513" lon="1.85498">
        <ele>630</ele>
        <time>2016-12-10T11:03:09Z</time>
      </trkpt>
      <trkpt lat="46.14515" lon="1.85498">
        <ele>630</ele>
        <time>2016-12-10T11:05:09Z</time>
      </trkpt>
      <trkpt lat="46.14526" lon="1.85497">
        <ele>629</ele>
        <time>2016-12-10T11:07:09Z</time>
      </trkpt>
      <trkpt lat="46.14529" lon="1.85496">
        <ele>629</ele>
        <time>2016-12-10T11:09:09Z</time>
      </trkpt>
      <trkpt lat="46.14538" lon="1.85494">
        <ele>628</ele>
        <time>2016-12-10T11:11:09Z</time>
      </trkpt>
      <trkpt lat="46.14541" lon="1.85492">
        <ele>628</ele>
        <time>2016-12-10T11:13:09Z</time>
      </trkpt>
      <trkpt lat="46.14549" lon="1.85488">
        <ele>627</ele>
        <time>2016-12-10T11:15:09Z</time>
      </trkpt>
      <trkpt lat="46.14555" lon="1.85486">
        <ele>627</ele>
        <time>2016-12-10T11:17:09Z</time>
      </trkpt>
      <trkpt lat="46.1456" lon="1.85484">
        <ele>626</ele>
        <time>2016-12-10T11:19:09Z</time>
      </trkpt>
      <trkpt lat="46.14566" lon="1.85483">
        <ele>626</ele>
        <time>2016-12-10T11:21:09Z</time>
      </trkpt>
      <trkpt lat="46.14571" lon="1.8548">
        <ele>625</ele>
        <time>2016-12-10T11:23:09Z</time>
      </trkpt>
      <trkpt lat="46.1458" lon="1.85478">
        <ele>624</ele>
        <time>2016-12-10T11:25:09Z</time>
      </trkpt>
      <trkpt lat="46.14588" lon="1.85476">
        <ele>624</ele>
        <time>2016-12-10T11:27:09Z</time>
      </trkpt>
      <trkpt lat="46.14591" lon="1.85475">
        <ele>624</ele>
        <time>2016-12-10T11:29:09Z</time>
      </trkpt>
      <trkpt lat="46.14602" lon="1.85475">
        <ele>624</ele>
        <time>2016-12-10T11:31:09Z</time>
      </trkpt>
      <trkpt lat="46.14608" lon="1.85475">
        <ele>624</ele>
        <time>2016-12-10T11:33:09Z</time>
      </trkpt>
      <trkpt lat="46.14614" lon="1.85475">
        <ele>624</ele>
        <time>2016-12-10T11:35:09Z</time>
      </trkpt>
      <trkpt lat="46.14617" lon="1.85475">
        <ele>624</ele>
        <time>2016-12-10T11:37:09Z</time>
      </trkpt>
      <trkpt lat="46.14622" lon="1.85473">
        <ele>624</ele>
        <time>2016-12-10T11:39:09Z</time>
      </trkpt>
      <trkpt lat="46.14628" lon="1.85468">
        <ele>624</ele>
        <time>2016-12-10T11:41:09Z</time>
      </trkpt>
      <trkpt lat="46.1463" lon="1.85465">
        <ele>624</ele>
        <time>2016-12-10T11:43:09Z</time>
      </trkpt>
      <trkpt lat="46.14633" lon="1.85458">
        <ele>624</ele>
        <time>2016-12-10T11:45:09Z</time>
      </trkpt>
      <trkpt lat="46.14634" lon="1.85451">
        <ele>624</ele>
        <time>2016-12-10T11:47:09Z</time>
      </trkpt>
      <trkpt lat="46.14634" lon="1.85449">
        <ele>624</ele>
        <time>2016-12-10T11:49:09Z</time>
      </trkpt>
      <trkpt lat="46.14635" lon="1.85443">
        <ele>624</ele>
        <time>2016-12-10T11:51:09Z</time>
      </trkpt>
      <trkpt lat="46.14636" lon="1.85443">
        <ele>624</ele>
        <time>2016-12-10T11:53:09Z</time>
      </trkpt>
      <trkpt lat="46.14636" lon="1.85443">
        <ele>624</ele>
        <time>2016-12-10T11:55:09Z</time>
      </trkpt>
      <trkpt lat="46.14638" lon="1.85443">
        <ele>625</ele>
        <time>2016-12-10T11:57:09Z</time>
      </trkpt>
      <trkpt lat="46.14638" lon="1.85443">
        <ele>625</ele>
        <time>2016-12-10T11:59:09Z</time>
      </trkpt>
      <trkpt lat="46.14638" lon="1.85443">
        <ele>625</ele>
        <time>2016-12-10T12:01:09Z</time>
      </trkpt>
      <trkpt lat="46.14636" lon="1.85444">
        <ele>624</ele>
        <time>2016-12-10T12:03:09Z</time>
      </trkpt>
      <trkpt lat="46.14637" lon="1.85443">
        <ele>624</ele>
        <time>2016-12-10T12:05:09Z</time>
      </trkpt>
      <trkpt lat="46.14636" lon="1.85443">
        <ele>624</ele>
        <time>2016-12-10T12:07:09Z</time>
      </trkpt>
      <trkpt lat="46.14636" lon="1.85441">
        <ele>624</ele>
        <time>2016-12-10T12:09:09Z</time>
      </trkpt>
      <trkpt lat="46.14636" lon="1.85437">
        <ele>624</ele>
        <time>2016-12-10T12:11:09Z</time>
      </trkpt>
      <trkpt lat="46.14637" lon="1.85436">
        <ele>624</ele>
        <time>2016-12-10T12:13:09Z</time>
      </trkpt>
      <trkpt lat="46.14638" lon="1.85434">
        <ele>624</ele>
        <time>2016-12-10T12:15:09Z</time>
      </trkpt>
      <trkpt lat="46.14639" lon="1.85433">
        <ele>624</ele>
        <time>2016-12-10T12:17:09Z</time>
      </trkpt>
      <trkpt lat="46.14641" lon="1.85432">
        <ele>625</ele>
        <time>2016-12-10T12:19:09Z</time>
      </trkpt>
      <trkpt lat="46.14643" lon="1.85433">
        <ele>625</ele>
        <time>2016-12-10T12:21:09Z</time>
      </trkpt>
      <trkpt lat="46.14645" lon="1.85435">
        <ele>625</ele>
        <time>2016-12-10T12:23:09Z</time>
      </trkpt>
      <trkpt lat="46.14648" lon="1.85443">
        <ele>625</ele>
        <time>2016-12-10T12:25:09Z</time>
      </trkpt>
      <trkpt lat="46.1465" lon="1.85452">
        <ele>625</ele>
        <time>2016-12-10T12:27:09Z</time>
      </trkpt>
      <trkpt lat="46.14651" lon="1.85455">
        <ele>625</ele>
        <time>2016-12-10T12:29:09Z</time>
      </trkpt>
      <trkpt lat="46.14653" lon="1.85458">
        <ele>625</ele>
        <time>2016-12-10T12:31:09Z</time>
      </trkpt>
      <trkpt lat="46.14658" lon="1.85463">
        <ele>625</ele>
        <time>2016-12-10T12:33:09Z</time>
      </trkpt>
      <trkpt lat="46.14662" lon="1.85471">
        <ele>625</ele>
        <time>2016-12-10T12:35:09Z</time>
      </trkpt>
      <trkpt lat="46.14666" lon="1.85478">
        <ele>625</ele>
        <time>2016-12-10T12:37:09Z</time>
      </trkpt>
      <trkpt lat="46.14671" lon="1.85483">
        <ele>625</ele>
        <time>2016-12-10T12:39:09Z</time>
      </trkpt>
      <trkpt lat="46.14674" lon="1.8549">
        <ele>625</ele>
        <time>2016-12-10T12:41:09Z</time>
      </trkpt>
      <trkpt lat="46.14678" lon="1.85496">
        <ele>624</ele>
        <time>2016-12-10T12:43:09Z</time>
      </trkpt>
      <trkpt lat="46.14682" lon="1.85501">
        <ele>624</ele>
        <time>2016-12-10T12:45:09Z</time>
      </trkpt>
      <trkpt lat="46.14684" lon="1.85504">
        <ele>623</ele>
        <time>2016-12-10T12:47:09Z</time>
      </trkpt>
      <trkpt lat="46.14687" lon="1.85507">
        <ele>623</ele>
        <time>2016-12-10T12:49:09Z</time>
      </trkpt>
      <trkpt lat="46.14693" lon="1.85516">
        <ele>621</ele>
        <time>2016-12-10T12:51:09Z</time>
      </trkpt>
      <trkpt lat="46.14695" lon="1.8552">
        <ele>621</ele>
        <time>2016-12-10T12:53:09Z</time>
      </trkpt>
      <trkpt lat="46.14696" lon="1.85524">
        <ele>620</ele>
        <time>2016-12-10T12:55:09Z</time>
      </trkpt>
      <trkpt lat="46.14697" lon="1.85528">
        <ele>620</ele>
        <time>2016-12-10T12:57:09Z</time>
      </trkpt>
      <trkpt lat="46.14699" lon="1.85536">
        <ele>619</ele>
        <time>2016-12-10T12:59:09Z</time>
      </trkpt>
      <trkpt lat="46.147" lon="1.85541">
        <ele>618</ele>
        <time>2016-12-10T13:01:09Z</time>
      </trkpt>
      <trkpt lat="46.14701" lon="1.85545">
        <ele>618</ele>
        <time>2016-12-10T13:03:09Z</time>
      </trkpt>
      <trkpt lat="46.14703" lon="1.85557">
        <ele>616</ele>
        <time>2016-12-10T13:05:09Z</time>
      </trkpt>
      <trkpt lat="46.14703" lon="1.85561">
        <ele>616</ele>
        <time>2016-12-10T13:07:09Z</time>
      </trkpt>
      <trkpt lat="46.14702" lon="1.85566">
        <ele>616</ele>
        <time>2016-12-10T13:09:09Z</time>
      </trkpt>
      <trkpt lat="46.14702" lon="1.8557">
        <ele>615</ele>
        <time>2016-12-10T13:11:09Z</time>
      </trkpt>
      <trkpt lat="46.14701" lon="1.85574">
        <ele>615</ele>
        <time>2016-12-10T13:13:09Z</time>
      </trkpt>
      <trkpt lat="46.14699" lon="1.85584">
        <ele>614</ele>
        <time>2016-12-10T13:15:09Z</time>
      </trkpt>
      <trkpt lat="46.14698" lon="1.85592">
        <ele>613</ele>
        <time>2016-12-10T13:17:09Z</time>
      </trkpt>
      <trkpt lat="46.14698" lon="1.85595">
        <ele>613</ele>
        <time>2016-12-10T13:19:09Z</time>
      </trkpt>
      <trkpt lat="46.14702" lon="1.85607">
        <ele>611</ele>
        <time>2016-12-10T13:21:09Z</time>
      </trkpt>
      <trkpt lat="46.14702" lon="1.85611">
        <ele>610</ele>
        <time>2016-12-10T13:23:09Z</time>
      </trkpt>
      <trkpt lat="46.14701" lon="1.85621">
        <ele>609</ele>
        <time>2016-12-10T13:25:09Z</time>
      </trkpt>
      <trkpt lat="46.14701" lon="1.85627">
        <ele>608</ele>
        <time>2016-12-10T13:27:09Z</time>
      </trkpt>
      <trkpt lat="46.14698" lon="1.8564">
        <ele>607</ele>
        <time>2016-12-10T13:29:09Z</time>
      </trkpt>
      <trkpt lat="46.14694" lon="1.85648">
        <ele>607</ele>
        <time>2016-12-10T13:31:09Z</time>
      </trkpt>
      <trkpt lat="46.14691" lon="1.85655">
        <ele>607</ele>
        <time>2016-12-10T13:33:09Z</time>
      </trkpt>
      <trkpt lat="46.14687" lon="1.85669">
        <ele>607</ele>
        <time>2016-12-10T13:35:09Z</time>
      </trkpt>
      <trkpt lat="46.14684" lon="1.85675">
        <ele>606</ele>
        <time>2016-12-10T13:37:09Z</time>
      </trkpt>
      <trkpt lat="46.14684" lon="1.85678">
        <ele>606</ele>
        <time>2016-12-10T13:39:09Z</time>
      </trkpt>
      <trkpt lat="46.14684" lon="1.85681">
        <ele>606</ele>
        <time>2016-12-10T13:41:09Z</time>
      </trkpt>
      <trkpt lat="46.14679" lon="1.85696">
        <ele>605</ele>
        <time>2016-12-10T13:43:09Z</time>
      </trkpt>
      <trkpt lat="46.14678" lon="1.85701">
        <ele>604</ele>
        <time>2016-12-10T13:45:09Z</time>
      </trkpt>
      <trkpt lat="46.14677" lon="1.85709">
        <ele>603</ele>
        <time>2016-12-10T13:47:09Z</time>
      </trkpt>
      <trkpt lat="46.14676" lon="1.85711">
        <ele>603</ele>
        <time>2016-12-10T13:49:09Z</time>
      </trkpt>
      <trkpt lat="46.14672" lon="1.85719">
        <ele>603</ele>
        <time>2016-12-10T13:51:09Z</time>
      </trkpt>
      <trkpt lat="46.14672" lon="1.85719">
        <ele>603</ele>
        <time>2016-12-10T13:53:09Z</time>
      </trkpt>
      <trkpt lat="46.14672" lon="1.85719">
        <ele>603</ele>
        <time>2016-12-10T13:55:09Z</time>
      </trkpt>
      <trkpt lat="46.14672" lon="1.85719">
        <ele>603</ele>
        <time>2016-12-10T13:57:09Z</time>
      </trkpt>
      <trkpt lat="46.14671" lon="1.85719">
        <ele>604</ele>
        <time>2016-12-10T13:59:09Z</time>
      </trkpt>
      <trkpt lat="46.14671" lon="1.85719">
        <ele>604</ele>
        <time>2016-12-10T14:01:09Z</time>
      </trkpt>
      <trkpt lat="46.14671" lon="1.85721">
        <ele>603</ele>
        <time>2016-12-10T14:03:09Z</time>
      </trkpt>
      <trkpt lat="46.14672" lon="1.8572">
        <ele>603</ele>
        <time>2016-12-10T14:05:09Z</time>
      </trkpt>
      <trkpt lat="46.14671" lon="1.85719">
        <ele>604</ele>
        <time>2016-12-10T14:07:09Z</time>
      </trkpt>
      <trkpt lat="46.14673" lon="1.85719">
        <ele>603</ele>
        <time>2016-12-10T14:09:09Z</time>
      </trkpt>
      <trkpt lat="46.14669" lon="1.85723">
        <ele>603</ele>
        <time>2016-12-10T14:11:09Z</time>
      </trkpt>
      <trkpt lat="46.14666" lon="1.85729">
        <ele>603</ele>
        <time>2016-12-10T14:13:09Z</time>
      </trkpt>
      <trkpt lat="46.14666" lon="1.85729">
        <ele>603</ele>
        <time>2016-12-10T14:15:09Z</time>
      </trkpt>
      <trkpt lat="46.14666" lon="1.85729">
        <ele>603</ele>
        <time>2016-12-10T14:17:09Z</time>
      </trkpt>
      <trkpt lat="46.14665" lon="1.85731">
        <ele>603</ele>
        <time>2016-12-10T14:19:09Z</time>
      </trkpt>
      <trkpt lat="46.14666" lon="1.85732">
        <ele>603</ele>
        <time>2016-12-10T14:21:09Z</time>
      </trkpt>
      <trkpt lat="46.14665" lon="1.85731">
        <ele>603</ele>
        <time>2016-12-10T14:23:09Z</time>
      </trkpt>
      <trkpt lat="46.14666" lon="1.85732">
        <ele>603</ele>
        <time>2016-12-10T14:25:09Z</time>
      </trkpt>
      <trkpt lat="46.14665" lon="1.85731">
        <ele>603</ele>
        <time>2016-12-10T14:27:09Z</time>
      </trkpt>
      <trkpt lat="46.14665" lon="1.85734">
        <ele>603</ele>
        <time>2016-12-10T14:29:09Z</time>
      </trkpt>
      <trkpt lat="46.14664" lon="1.85735">
        <ele>603</ele>
        <time>2016-12-10T14:31:09Z</time>
      </trkpt>
      <trkpt lat="46.14664" lon="1.85735">
        <ele>603</ele>
        <time>2016-12-10T14:33:09Z</time>
      </trkpt>
      <trkpt lat="46.14664" lon="1.85735">
        <ele>603</ele>
        <time>2016-12-10T14:35:09Z</time>
      </trkpt>
      <trkpt lat="46.14665" lon="1.85735">
        <ele>603</ele>
        <time>2016-12-10T14:37:09Z</time>
      </trkpt>
      <trkpt lat="46.14664" lon="1.85734">
        <ele>603</ele>
        <time>2016-12-10T14:39:09Z</time>
      </trkpt>
      <trkpt lat="46.14665" lon="1.85732">
        <ele>603</ele>
        <time>2016-12-10T14:41:09Z</time>
      </trkpt>
      <trkpt lat="46.14665" lon="1.85734">
        <ele>603</ele>
        <time>2016-12-10T14:43:09Z</time>
      </trkpt>
      <trkpt lat="46.14662" lon="1.85737">
        <ele>603</ele>
        <time>2016-12-10T14:45:09Z</time>
      </trkpt>
      <trkpt lat="46.14659" lon="1.85738">
        <ele>604</ele>
        <time>2016-12-10T14:47:09Z</time>
      </trkpt>
      <trkpt lat="46.14659" lon="1.85738">
        <ele>604</ele>
        <time>2016-12-10T14:49:09Z</time>
      </trkpt>
      <trkpt lat="46.14658" lon="1.85737">
        <ele>604</ele>
        <time>2016-12-10T14:51:09Z</time>
      </trkpt>
      <trkpt lat="46.14659" lon="1.85738">
        <ele>604</ele>
        <time>2016-12-10T14:53:09Z</time>
      </trkpt>
      <trkpt lat="46.14659" lon="1.85738">
        <ele>604</ele>
        <time>2016-12-10T14:55:09Z</time>
      </trkpt>
      <trkpt lat="46.14659" lon="1.85738">
        <ele>604</ele>
        <time>2016-12-10T14:57:09Z</time>
      </trkpt>
      <trkpt lat="46.14658" lon="1.8574">
        <ele>604</ele>
        <time>2016-12-10T14:59:09Z</time>
      </trkpt>
      <trkpt lat="46.14658" lon="1.8574">
        <ele>604</ele>
        <time>2016-12-10T15:01:09Z</time>
      </trkpt>
      <trkpt lat="46.14658" lon="1.8574">
        <ele>604</ele>
        <time>2016-12-10T15:03:09Z</time>
      </trkpt>
      <trkpt lat="46.14657" lon="1.85741">
        <ele>604</ele>
        <time>2016-12-10T15:05:09Z</time>
      </trkpt>
      <trkpt lat="46.14658" lon="1.8574">
        <ele>604</ele>
        <time>2016-12-10T15:07:09Z</time>
      </trkpt>
      <trkpt lat="46.14659" lon="1.8574">
        <ele>603</ele>
        <time>2016-12-10T15:09:09Z</time>
      </trkpt>
      <trkpt lat="46.14659" lon="1.85742">
        <ele>603</ele>
        <time>2016-12-10T15:11:09Z</time>
      </trkpt>
      <trkpt lat="46.14658" lon="1.85744">
        <ele>603</ele>
        <time>2016-12-10T15:13:09Z</time>
      </trkpt>
      <trkpt lat="46.14658" lon="1.85743">
        <ele>603</ele>
        <time>2016-12-10T15:15:09Z</time>
      </trkpt>
      <trkpt lat="46.14658" lon="1.85743">
        <ele>603</ele>
        <time>2016-12-10T15:17:09Z</time>
      </trkpt>
      <trkpt lat="46.14657" lon="1.85742">
        <ele>604</ele>
        <time>2016-12-10T15:19:09Z</time>
      </trkpt>
      <trkpt lat="46.14657" lon="1.8574">
        <ele>604</ele>
        <time>2016-12-10T15:21:09Z</time>
      </trkpt>
      <trkpt lat="46.14658" lon="1.85741">
        <ele>603</ele>
        <time>2016-12-10T15:23:09Z</time>
      </trkpt>
      <trkpt lat="46.14657" lon="1.85741">
        <ele>604</ele>
        <time>2016-12-10T15:25:09Z</time>
      </trkpt>
      <trkpt lat="46.14658" lon="1.85741">
        <ele>603</ele>
        <time>2016-12-10T15:27:09Z</time>
      </trkpt>
      <trkpt lat="46.14658" lon="1.85742">
        <ele>603</ele>
        <time>2016-12-10T15:29:09Z</time>
      </trkpt>
      <trkpt lat="46.14658" lon="1.85741">
        <ele>603</ele>
        <time>2016-12-10T15:31:09Z</time>
      </trkpt>
      <trkpt lat="46.14657" lon="1.85741">
        <ele>604</ele>
        <time>2016-12-10T15:33:09Z</time>
      </trkpt>
      <trkpt lat="46.14658" lon="1.85738">
        <ele>604</ele>
        <time>2016-12-10T15:35:09Z</time>
      </trkpt>
      <trkpt lat="46.14658" lon="1.85738">
        <ele>604</ele>
        <time>2016-12-10T15:37:09Z</time>
      </trkpt>
      <trkpt lat="46.14659" lon="1.85738">
        <ele>604</ele>
        <time>2016-12-10T15:39:09Z</time>
      </trkpt>
      <trkpt lat="46.14654" lon="1.85744">
        <ele>604</ele>
        <time>2016-12-10T15:41:09Z</time>
      </trkpt>
      <trkpt lat="46.14654" lon="1.85748">
        <ele>603</ele>
        <time>2016-12-10T15:43:09Z</time>
      </trkpt>
      <trkpt lat="46.14652" lon="1.8575">
        <ele>604</ele>
        <time>2016-12-10T15:45:09Z</time>
      </trkpt>
      <trkpt lat="46.14651" lon="1.85752">
        <ele>603</ele>
        <time>2016-12-10T15:47:09Z</time>
      </trkpt>
      <trkpt lat="46.14648" lon="1.85762">
        <ele>602</ele>
        <time>2016-12-10T15:49:09Z</time>
      </trkpt>
      <trkpt lat="46.14646" lon="1.85764">
        <ele>602</ele>
        <time>2016-12-10T15:51:09Z</time>
      </trkpt>
      <trkpt lat="46.14643" lon="1.85768">
        <ele>601</ele>
        <time>2016-12-10T15:53:09Z</time>
      </trkpt>
      <trkpt lat="46.14642" lon="1.8577">
        <ele>601</ele>
        <time>2016-12-10T15:55:09Z</time>
      </trkpt>
      <trkpt lat="46.1464" lon="1.85772">
        <ele>601</ele>
        <time>2016-12-10T15:57:09Z</time>
      </trkpt>
      <trkpt lat="46.14638" lon="1.85774">
        <ele>601</ele>
        <time>2016-12-10T15:59:09Z</time>
      </trkpt>
      <trkpt lat="46.14636" lon="1.85775">
        <ele>602</ele>
        <time>2016-12-10T16:01:09Z</time>
      </trkpt>
      <trkpt lat="46.14633" lon="1.85778">
        <ele>602</ele>
        <time>2016-12-10T16:03:09Z</time>
      </trkpt>
      <trkpt lat="46.1463" lon="1.85781">
        <ele>602</ele>
        <time>2016-12-10T16:05:09Z</time>
      </trkpt>
      <trkpt lat="46.14624" lon="1.85786">
        <ele>602</ele>
        <time>2016-12-10T16:07:09Z</time>
      </trkpt>
      <trkpt lat="46.14622" lon="1.85788">
        <ele>602</ele>
        <time>2016-12-10T16:09:09Z</time>
      </trkpt>
      <trkpt lat="46.1462" lon="1.8579">
        <ele>602</ele>
        <time>2016-12-10T16:11:09Z</time>
      </trkpt>
      <trkpt lat="46.14613" lon="1.85796">
        <ele>603</ele>
        <time>2016-12-10T16:13:09Z</time>
      </trkpt>
      <trkpt lat="46.1461" lon="1.85799">
        <ele>603</ele>
        <time>2016-12-10T16:15:09Z</time>
      </trkpt>
      <trkpt lat="46.14607" lon="1.85802">
        <ele>603</ele>
        <time>2016-12-10T16:17:09Z</time>
      </trkpt>
      <trkpt lat="46.14603" lon="1.85809">
        <ele>603</ele>
        <time>2016-12-10T16:19:09Z</time>
      </trkpt>
      <trkpt lat="46.14601" lon="1.85811">
        <ele>603</ele>
        <time>2016-12-10T16:21:09Z</time>
      </trkpt>
      <trkpt lat="46.14599" lon="1.85816">
        <ele>603</ele>
        <time>2016-12-10T16:23:09Z</time>
      </trkpt>
      <trkpt lat="46.14596" lon="1.85819">
        <ele>603</ele>
        <time>2016-12-10T16:25:09Z</time>
      </trkpt>
      <trkpt lat="46.14593" lon="1.85825">
        <ele>603</ele>
        <time>2016-12-10T16:27:09Z</time>
      </trkpt>
      <trkpt lat="46.1459" lon="1.85829">
        <ele>603</ele>
        <time>2016-12-10T16:29:09Z</time>
      </trkpt>
      <trkpt lat="46.14587" lon="1.85835">
        <ele>603</ele>
        <time>2016-12-10T16:31:09Z</time>
      </trkpt>
      <trkpt lat="46.14585" lon="1.8584">
        <ele>603</ele>
        <time>2016-12-10T16:33:09Z</time>
      </trkpt>
      <trkpt lat="46.14584" lon="1.85843">
        <ele>602</ele>
        <time>2016-12-10T16:35:09Z</time>
      </trkpt>
      <trkpt lat="46.14584" lon="1.8585">
        <ele>601</ele>
        <time>2016-12-10T16:37:09Z</time>
      </trkpt>
      <trkpt lat="46.14583" lon="1.85859">
        <ele>600</ele>
        <time>2016-12-10T16:39:09Z</time>
      </trkpt>
      <trkpt lat="46.14582" lon="1.85864">
        <ele>600</ele>
        <time>2016-12-10T16:41:09Z</time>
      </trkpt>
      <trkpt lat="46.14581" lon="1.8587">
        <ele>599</ele>
        <time>2016-12-10T16:43:09Z</time>
      </trkpt>
      <trkpt lat="46.14581" lon="1.85875">
        <ele>599</ele>
        <time>2016-12-10T16:45:09Z</time>
      </trkpt>
      <trkpt lat="46.1458" lon="1.85886">
        <ele>597</ele>
        <time>2016-12-10T16:47:09Z</time>
      </trkpt>
      <trkpt lat="46.14579" lon="1.85895">
        <ele>596</ele>
        <time>2016-12-10T16:49:09Z</time>
      </trkpt>
      <trkpt lat="46.14579" lon="1.859">
        <ele>596</ele>
        <time>2016-12-10T16:51:09Z</time>
      </trkpt>
      <trkpt lat="46.14578" lon="1.85904">
        <ele>595</ele>
        <time>2016-12-10T16:53:09Z</time>
      </trkpt>
      <trkpt lat="46.14576" lon="1.85918">
        <ele>594</ele>
        <time>2016-12-10T16:55:09Z</time>
      </trkpt>
      <trkpt lat="46.14576" lon="1.85922">
        <ele>594</ele>
        <time>2016-12-10T16:57:09Z</time>
      </trkpt>
      <trkpt lat="46.14575" lon="1.8593">
        <ele>593</ele>
        <time>2016-12-10T16:59:09Z</time>
      </trkpt>
      <trkpt lat="46.14574" lon="1.85939">
        <ele>593</ele>
        <time>2016-12-10T17:01:09Z</time>
      </trkpt>
      <trkpt lat="46.14573" lon="1.85946">
        <ele>592</ele>
        <time>2016-12-10T17:03:09Z</time>
      </trkpt>
      <trkpt lat="46.14572" lon="1.85953">
        <ele>592</ele>
        <time>2016-12-10T17:05:09Z</time>
      </trkpt>
      <trkpt lat="46.14574" lon="1.85964">
        <ele>591</ele>
        <time>2016-12-10T17:07:09Z</time>
      </trkpt>
      <trkpt lat="46.14574" lon="1.85967">
        <ele>591</ele>
        <time>2016-12-10T17:09:09Z</time>
      </trkpt>
      <trkpt lat="46.14574" lon="1.8597">
        <ele>590</ele>
        <time>2016-12-10T17:11:09Z</time>
      </trkpt>
      <trkpt lat="46.14574" lon="1.85973">
        <ele>590</ele>
        <time>2016-12-10T17:13:09Z</time>
      </trkpt>
      <trkpt lat="46.14575" lon="1.85977">
        <ele>590</ele>
        <time>2016-12-10T17:15:09Z</time>
      </trkpt>
      <trkpt lat="46.14577" lon="1.85991">
        <ele>588</ele>
        <time>2016-12-10T17:17:09Z</time>
      </trkpt>
      <trkpt lat="46.14577" lon="1.85992">
        <ele>588</ele>
        <time>2016-12-10T17:19:09Z</time>
      </trkpt>
      <trkpt lat="46.14581" lon="1.85998">
        <ele>587</ele>
        <time>2016-12-10T17:21:09Z</time>
      </trkpt>
      <trkpt lat="46.14583" lon="1.86">
        <ele>586</ele>
        <time>2016-12-10T17:23:09Z</time>
      </trkpt>
      <trkpt lat="46.14588" lon="1.86002">
        <ele>585</ele>
        <time>2016-12-10T17:25:09Z</time>
      </trkpt>
      <trkpt lat="46.1459" lon="1.86002">
        <ele>584</ele>
        <time>2016-12-10T17:27:09Z</time>
      </trkpt>
      <trkpt lat="46.14591" lon="1.86001">
        <ele>584</ele>
        <time>2016-12-10T17:29:09Z</time>
      </trkpt>
      <trkpt lat="46.14594" lon="1.85999">
        <ele>583</ele>
        <time>2016-12-10T17:31:09Z</time>
      </trkpt>
      <trkpt lat="46.14597" lon="1.85997">
        <ele>583</ele>
        <time>2016-12-10T17:33:09Z</time>
      </trkpt>
      <trkpt lat="46.14602" lon="1.85993">
        <ele>582</ele>
        <time>2016-12-10T17:35:09Z</time>
      </trkpt>
      <trkpt lat="46.14604" lon="1.85992">
        <ele>581</ele>
        <time>2016-12-10T17:37:09Z</time>
      </trkpt>
      <trkpt lat="46.14617" lon="1.85979">
        <ele>579</ele>
        <time>2016-12-10T17:39:09Z</time>
      </trkpt>
      <trkpt lat="46.1462" lon="1.85977">
        <ele>578</ele>
        <time>2016-12-10T17:41:09Z</time>
      </trkpt>
      <trkpt lat="46.14627" lon="1.85974">
        <ele>576</ele>
        <time>2016-12-10T17:43:09Z</time>
      </trkpt>
      <trkpt lat="46.14629" lon="1.85975">
        <ele>576</ele>
        <time>2016-12-10T17:45:09Z</time>
      </trkpt>
      <trkpt lat="46.1463" lon="1.85977">
        <ele>575</ele>
        <time>2016-12-10T17:47:09Z</time>
      </trkpt>
      <trkpt lat="46.14631" lon="1.85981">
        <ele>575</ele>
        <time>2016-12-10T17:49:09Z</time>
      </trkpt>
      <trkpt lat="46.14633" lon="1.85985">
        <ele>574</ele>
        <time>2016-12-10T17:51:09Z</time>
      </trkpt>
      <trkpt lat="46.14635" lon="1.85987">
        <ele>574</ele>
        <time>2016-12-10T17:53:09Z</time>
      </trkpt>
      <trkpt lat="46.14641" lon="1.8599">
        <ele>572</ele>
        <time>2016-12-10T17:55:09Z</time>
      </trkpt>
      <trkpt lat="46.14644" lon="1.85994">
        <ele>571</ele>
        <time>2016-12-10T17:57:09Z</time>
      </trkpt>
      <trkpt lat="46.14648" lon="1.86">
        <ele>570</ele>
        <time>2016-12-10T17:59:09Z</time>
      </trkpt>
      <trkpt lat="46.14655" lon="1.85996">
        <ele>568</ele>
        <time>2016-12-10T18:01:09Z</time>
      </trkpt>
      <trkpt lat="46.14655" lon="1.85997">
        <ele>568</ele>
        <time>2016-12-10T18:03:09Z</time>
      </trkpt>
      <trkpt lat="46.14656" lon="1.85996">
        <ele>568</ele>
        <time>2016-12-10T18:05:09Z</time>
      </trkpt>
      <trkpt lat="46.14656" lon="1.85996">
        <ele>568</ele>
        <time>2016-12-10T18:07:09Z</time>
      </trkpt>
      <trkpt lat="46.14656" lon="1.85996">
        <ele>568</ele>
        <time>2016-12-10T18:09:09Z</time>
      </trkpt>
      <trkpt lat="46.14658" lon="1.85997">
        <ele>567</ele>
        <time>2016-12-10T18:11:09Z</time>
      </trkpt>
      <trkpt lat="46.14658" lon="1.85998">
        <ele>567</ele>
        <time>2016-12-10T18:13:09Z</time>
      </trkpt>
      <trkpt lat="46.14659" lon="1.85996">
        <ele>567</ele>
        <time>2016-12-10T18:15:09Z</time>
      </trkpt>
      <trkpt lat="46.14659" lon="1.85996">
        <ele>567</ele>
        <time>2016-12-10T18:17:09Z</time>
      </trkpt>
      <trkpt lat="46.14661" lon="1.85998">
        <ele>566</ele>
        <time>2016-12-10T18:19:09Z</time>
      </trkpt>
      <trkpt lat="46.14662" lon="1.86">
        <ele>566</ele>
        <time>2016-12-10T18:21:09Z</time>
      </trkpt>
      <trkpt lat="46.14664" lon="1.86006">
        <ele>565</ele>
        <time>2016-12-10T18:23:09Z</time>
      </trkpt>
      <trkpt lat="46.14666" lon="1.86013">
        <ele>564</ele>
        <time>2016-12-10T18:25:09Z</time>
      </trkpt>
      <trkpt lat="46.14667" lon="1.86021">
        <ele>563</ele>
        <time>2016-12-10T18:27:09Z</time>
      </trkpt>
      <trkpt lat="46.14667" lon="1.86029">
        <ele>562</ele>
        <time>2016-12-10T18:29:09Z</time>
      </trkpt>
      <trkpt lat="46.14668" lon="1.8604">
        <ele>560</ele>
        <time>2016-12-10T18:31:09Z</time>
      </trkpt>
      <trkpt lat="46.14669" lon="1.86049">
        <ele>559</ele>
        <time>2016-12-10T18:33:09Z</time>
      </trkpt>
      <trkpt lat="46.14669" lon="1.86057">
        <ele>558</ele>
        <time>2016-12-10T18:35:09Z</time>
      </trkpt>
      <trkpt lat="46.14668" lon="1.86062">
        <ele>558</ele>
        <time>2016-12-10T18:37:09Z</time>
      </trkpt>
      <trkpt lat="46.14668" lon="1.86066">
        <ele>558</ele>
        <time>2016-12-10T18:39:09Z</time>
      </trkpt>
      <trkpt lat="46.14668" lon="1.8607">
        <ele>557</ele>
        <time>2016-12-10T18:41:09Z</time>
      </trkpt>
      <trkpt lat="46.14668" lon="1.86074">
        <ele>557</ele>
        <time>2016-12-10T18:43:09Z</time>
      </trkpt>
      <trkpt lat="46.14668" lon="1.86079">
        <ele>556</ele>
        <time>2016-12-10T18:45:09Z</time>
      </trkpt>
      <trkpt lat="46.14667" lon="1.86081">
        <ele>556</ele>
        <time>2016-12-10T18:47:09Z</time>
      </trkpt>
      <trkpt lat="46.14664" lon="1.86082">
        <ele>557</ele>
        <time>2016-12-10T18:49:09Z</time>
      </trkpt>
      <trkpt lat="46.14662" lon="1.86084">
        <ele>557</ele>
        <time>2016-12-10T18:51:09Z</time>
      </trkpt>
      <trkpt lat="46.14655" lon="1.8609">
        <ele>559</ele>
        <time>2016-12-10T18:53:09Z</time>
      </trkpt>
      <trkpt lat="46.14648" lon="1.86096">
        <ele>560</ele>
        <time>2016-12-10T18:55:09Z</time>
      </trkpt>
      <trkpt lat="46.14646" lon="1.86099">
        <ele>560</ele>
        <time>2016-12-10T18:57:09Z</time>
      </trkpt>
      <trkpt lat="46.14641" lon="1.86102">
        <ele>561</ele>
        <time>2016-12-10T18:59:09Z</time>
      </trkpt>
      <trkpt lat="46.14638" lon="1.86104">
        <ele>561</ele>
        <time>2016-12-10T19:01:09Z</time>
      </trkpt>
      <trkpt lat="46.14633" lon="1.86109">
        <ele>562</ele>
        <time>2016-12-10T19:03:09Z</time>
      </trkpt>
      <trkpt lat="46.14624" lon="1.86114">
        <ele>564</ele>
        <time>2016-12-10T19:05:09Z</time>
      </trkpt>
      <trkpt lat="46.14623" lon="1.86114">
        <ele>564</ele>
        <time>2016-12-10T19:07:09Z</time>
      </trkpt>
      <trkpt lat="46.14618" lon="1.86118">
        <ele>565</ele>
        <time>2016-12-10T19:09:09Z</time>
      </trkpt>
      <trkpt lat="46.14617" lon="1.86119">
        <ele>565</ele>
        <time>2016-12-10T19:11:09Z</time>
      </trkpt>
      <trkpt lat="46.14616" lon="1.86119">
        <ele>566</ele>
        <time>2016-12-10T19:13:09Z</time>
      </trkpt>
      <trkpt lat="46.14616" lon="1.8612">
        <ele>565</ele>
        <time>2016-12-10T19:15:09Z</time>
      </trkpt>
      <trkpt lat="46.14614" lon="1.86122">
        <ele>566</ele>
        <time>2016-12-10T19:17:09Z</time>
      </trkpt>
      <trkpt lat="46.14609" lon="1.86125">
        <ele>567</ele>
        <time>2016-12-10T19:19:09Z</time>
      </trkpt>
      <trkpt lat="46.14605" lon="1.86128">
        <ele>567</ele>
        <time>2016-12-10T19:21:09Z</time>
      </trkpt>
      <trkpt lat="46.14605" lon="1.86128">
        <ele>567</ele>
        <time>2016-12-10T19:23:09Z</time>
      </trkpt>
      <trkpt lat="46.14602" lon="1.86129">
        <ele>568</ele>
        <time>2016-12-10T19:25:09Z</time>
      </trkpt>
      <trkpt lat="46.14601" lon="1.86129">
        <ele>568</ele>
        <time>2016-12-10T19:27:09Z</time>
      </trkpt>
      <trkpt lat="46.14598" lon="1.86131">
        <ele>569</ele>
        <time>2016-12-10T19:29:09Z</time>
      </trkpt>
      <trkpt lat="46.14595" lon="1.86133">
        <ele>569</ele>
        <time>2016-12-10T19:31:09Z</time>
      </trkpt>
      <trkpt lat="46.14589" lon="1.86135">
        <ele>571</ele>
        <time>2016-12-10T19:33:09Z</time>
      </trkpt>
      <trkpt lat="46.14589" lon="1.86134">
        <ele>571</ele>
        <time>2016-12-10T19:35:09Z</time>
      </trkpt>
      <trkpt lat="46.14589" lon="1.86134">
        <ele>571</ele>
        <time>2016-12-10T19:37:09Z</time>
      </trkpt>
      <trkpt lat="46.14589" lon="1.86134">
        <ele>571</ele>
        <time>2016-12-10T19:39:09Z</time>
      </trkpt>
      <trkpt lat="46.14589" lon="1.86133">
        <ele>571</ele>
        <time>2016-12-10T19:41:09Z</time>
      </trkpt>
      <trkpt lat="46.14588" lon="1.86134">
        <ele>571</ele>
        <time>2016-12-10T19:43:09Z</time>
      </trkpt>
      <trkpt lat="46.14585" lon="1.86135">
        <ele>572</ele>
        <time>2016-12-10T19:45:09Z</time>
      </trkpt>
      <trkpt lat="46.14581" lon="1.86135">
        <ele>573</ele>
        <time>2016-12-10T19:47:09Z</time>
      </trkpt>
      <trkpt lat="46.14579" lon="1.86134">
        <ele>573</ele>
        <time>2016-12-10T19:49:09Z</time>
      </trkpt>
      <trkpt lat="46.14579" lon="1.86134">
        <ele>573</ele>
        <time>2016-12-10T19:51:09Z</time>
      </trkpt>
      <trkpt lat="46.14578" lon="1.86135">
        <ele>573</ele>
        <time>2016-12-10T19:53:09Z</time>
      </trkpt>
      <trkpt lat="46.14572" lon="1.86135">
        <ele>575</ele>
        <time>2016-12-10T19:55:09Z</time>
      </trkpt>
      <trkpt lat="46.1457" lon="1.86134">
        <ele>575</ele>
        <time>2016-12-10T19:57:09Z</time>
      </trkpt>
      <trkpt lat="46.14565" lon="1.86134">
        <ele>576</ele>
        <time>2016-12-10T19:59:09Z</time>
      </trkpt>
      <trkpt lat="46.14562" lon="1.86135">
        <ele>577</ele>
        <time>2016-12-10T20:01:09Z</time>
      </trkpt>
      <trkpt lat="46.1456" lon="1.86136">
        <ele>577</ele>
        <time>2016-12-10T20:03:09Z</time>
      </trkpt>
      <trkpt lat="46.14558" lon="1.86138">
        <ele>577</ele>
        <time>2016-12-10T20:05:09Z</time>
      </trkpt>
      <trkpt lat="46.14555" lon="1.8614">
        <ele>578</ele>
        <time>2016-12-10T20:07:09Z</time>
      </trkpt>
      <trkpt lat="46.14553" lon="1.86141">
        <ele>578</ele>
        <time>2016-12-10T20:09:09Z</time>
      </trkpt>
      <trkpt lat="46.1455" lon="1.86143">
        <ele>578</ele>
        <time>2016-12-10T20:11:09Z</time>
      </trkpt>
      <trkpt lat="46.14548" lon="1.86145">
        <ele>578</ele>
        <time>2016-12-10T20:13:09Z</time>
      </trkpt>
      <trkpt lat="46.14545" lon="1.86146">
        <ele>579</ele>
        <time>2016-12-10T20:15:09Z</time>
      </trkpt>
      <trkpt lat="46.14541" lon="1.86148">
        <ele>579</ele>
        <time>2016-12-10T20:17:09Z</time>
      </trkpt>
      <trkpt lat="46.1454" lon="1.86149">
        <ele>580</ele>
        <time>2016-12-10T20:19:09Z</time>
      </trkpt>
      <trkpt lat="46.14539" lon="1.86151">
        <ele>579</ele>
        <time>2016-12-10T20:21:09Z</time>
      </trkpt>
      <trkpt lat="46.14537" lon="1.86154">
        <ele>579</ele>
        <time>2016-12-10T20:23:09Z</time>
      </trkpt>
      <trkpt lat="46.14536" lon="1.86157">
        <ele>579</ele>
        <time>2016-12-10T20:25:09Z</time>
      </trkpt>
      <trkpt lat="46.14533" lon="1.8616">
        <ele>579</ele>
        <time>2016-12-10T20:27:09Z</time>
      </trkpt>
      <trkpt lat="46.1453" lon="1.86161">
        <ele>580</ele>
        <time>2016-12-10T20:29:09Z</time>
      </trkpt>
      <trkpt lat="46.14529" lon="1.86161">
        <ele>580</ele>
        <time>2016-12-10T20:31:09Z</time>
      </trkpt>
      <trkpt lat="46.14526" lon="1.86163">
        <ele>581</ele>
        <time>2016-12-10T20:33:09Z</time>
      </trkpt>
      <trkpt lat="46.14523" lon="1.86165">
        <ele>581</ele>
        <time>2016-12-10T20:35:09Z</time>
      </trkpt>
      <trkpt lat="46.1452" lon="1.86166">
        <ele>582</ele>
        <time>2016-12-10T20:37:09Z</time>
      </trkpt>
      <trkpt lat="46.14515" lon="1.8617">
        <ele>582</ele>
        <time>2016-12-10T20:39:09Z</time>
      </trkpt>
      <trkpt lat="46.14512" lon="1.86172">
        <ele>583</ele>
        <time>2016-12-10T20:41:09Z</time>
      </trkpt>
      <trkpt lat="46.14511" lon="1.86171">
        <ele>583</ele>
        <time>2016-12-10T20:43:09Z</time>
      </trkpt>
      <trkpt lat="46.14509" lon="1.86173">
        <ele>583</ele>
        <time>2016-12-10T20:45:09Z</time>
      </trkpt>
      <trkpt lat="46.14509" lon="1.86173">
        <ele>583</ele>
        <time>2016-12-10T20:47:09Z</time>
      </trkpt>
      <trkpt lat="46.14504" lon="1.86176">
        <ele>584</ele>
        <time>2016-12-10T20:49:09Z</time>
      </trkpt>
      <trkpt lat="46.14505" lon="1.86176">
        <ele>584</ele>
        <time>2016-12-10T20:51:09Z</time>
      </trkpt>
      <trkpt lat="46.14498" lon="1.8618">
        <ele>585</ele>
        <time>2016-12-10T20:53:09Z</time>
      </trkpt>
      <trkpt lat="46.14496" lon="1.86183">
        <ele>585</ele>
        <time>2016-12-10T20:55:09Z</time>
      </trkpt>
      <trkpt lat="46.14496" lon="1.86183">
        <ele>585</ele>
        <time>2016-12-10T20:57:09Z</time>
      </trkpt>
      <trkpt lat="46.14496" lon="1.86184">
        <ele>585</ele>
        <time>2016-12-10T20:59:09Z</time>
      </trkpt>
      <trkpt lat="46.14495" lon="1.86186">
        <ele>585</ele>
        <time>2016-12-10T21:01:09Z</time>
      </trkpt>
      <trkpt lat="46.14496" lon="1.86188">
        <ele>584</ele>
        <time>2016-12-10T21:03:09Z</time>
      </trkpt>
      <trkpt lat="46.14496" lon="1.86191">
        <ele>584</ele>
        <time>2016-12-10T21:05:09Z</time>
      </trkpt>
      <trkpt lat="46.14495" lon="1.862">
        <ele>583</ele>
        <time>2016-12-10T21:07:09Z</time>
      </trkpt>
      <trkpt lat="46.14496" lon="1.86207">
        <ele>582</ele>
        <time>2016-12-10T21:09:09Z</time>
      </trkpt>
      <trkpt lat="46.14495" lon="1.8621">
        <ele>582</ele>
        <time>2016-12-10T21:11:09Z</time>
      </trkpt>
      <trkpt lat="46.14494" lon="1.86213">
        <ele>582</ele>
        <time>2016-12-10T21:13:09Z</time>
      </trkpt>
      <trkpt lat="46.14494" lon="1.86219">
        <ele>581</ele>
        <time>2016-12-10T21:15:09Z</time>
      </trkpt>
      <trkpt lat="46.14494" lon="1.86223">
        <ele>581</ele>
        <time>2016-12-10T21:17:09Z</time>
      </trkpt>
      <trkpt lat="46.14495" lon="1.86228">
        <ele>580</ele>
        <time>2016-12-10T21:19:09Z</time>
      </trkpt>
      <trkpt lat="46.14493" lon="1.86233">
        <ele>580</ele>
        <time>2016-12-10T21:21:09Z</time>
      </trkpt>
      <trkpt lat="46.14492" lon="1.86236">
        <ele>580</ele>
        <time>2016-12-10T21:23:09Z</time>
      </trkpt>
      <trkpt lat="46.14489" lon="1.86244">
        <ele>580</ele>
        <time>2016-12-10T21:25:09Z</time>
      </trkpt>
      <trkpt lat="46.14486" lon="1.86251">
        <ele>579</ele>
        <time>2016-12-10T21:27:09Z</time>
      </trkpt>
      <trkpt lat="46.14484" lon="1.86255">
        <ele>579</ele>
        <time>2016-12-10T21:29:09Z</time>
      </trkpt>
      <trkpt lat="46.14483" lon="1.8626">
        <ele>579</ele>
        <time>2016-12-10T21:31:09Z</time>
      </trkpt>
      <trkpt lat="46.1448" lon="1.86268">
        <ele>579</ele>
        <time>2016-12-10T21:33:09Z</time>
      </trkpt>
      <trkpt lat="46.14479" lon="1.86273">
        <ele>579</ele>
        <time>2016-12-10T21:35:09Z</time>
      </trkpt>
      <trkpt lat="46.14478" lon="1.86278">
        <ele>578</ele>
        <time>2016-12-10T21:37:09Z</time>
      </trkpt>
      <trkpt lat="46.14477" lon="1.86289">
        <ele>577</ele>
        <time>2016-12-10T21:39:09Z</time>
      </trkpt>
      <trkpt lat="46.14477" lon="1.86293">
        <ele>577</ele>
        <time>2016-12-10T21:41:09Z</time>
      </trkpt>
      <trkpt lat="46.14476" lon="1.86299">
        <ele>577</ele>
        <time>2016-12-10T21:43:09Z</time>
      </trkpt>
      <trkpt lat="46.14474" lon="1.86305">
        <ele>576</ele>
        <time>2016-12-10T21:45:09Z</time>
      </trkpt>
      <trkpt lat="46.14472" lon="1.86308">
        <ele>576</ele>
        <time>2016-12-10T21:47:09Z</time>
      </trkpt>
      <trkpt lat="46.14471" lon="1.8631">
        <ele>576</ele>
        <time>2016-12-10T21:49:09Z</time>
      </trkpt>
      <trkpt lat="46.14469" lon="1.86313">
        <ele>576</ele>
        <time>2016-12-10T21:51:09Z</time>
      </trkpt>
      <trkpt lat="46.14464" lon="1.8632">
        <ele>576</ele>
        <time>2016-12-10T21:53:09Z</time>
      </trkpt>
      <trkpt lat="46.1446" lon="1.86323">
        <ele>576</ele>
        <time>2016-12-10T21:55:09Z</time>
      </trkpt>
      <trkpt lat="46.14459" lon="1.86324">
        <ele>576</ele>
        <time>2016-12-10T21:57:09Z</time>
      </trkpt>
      <trkpt lat="46.14455" lon="1.86327">
        <ele>577</ele>
        <time>2016-12-10T21:59:09Z</time>
      </trkpt>
      <trkpt lat="46.14453" lon="1.86328">
        <ele>577</ele>
        <time>2016-12-10T22:01:09Z</time>
      </trkpt>
      <trkpt lat="46.14452" lon="1.8633">
        <ele>577</ele>
        <time>2016-12-10T22:03:09Z</time>
      </trkpt>
      <trkpt lat="46.1445" lon="1.86331">
        <ele>577</ele>
        <time>2016-12-10T22:05:09Z</time>
      </trkpt>
      <trkpt lat="46.14435" lon="1.86347">
        <ele>577</ele>
        <time>2016-12-10T22:07:09Z</time>
      </trkpt>
      <trkpt lat="46.14434" lon="1.86348">
        <ele>577</ele>
        <time>2016-12-10T22:09:09Z</time>
      </trkpt>
      <trkpt lat="46.14434" lon="1.86348">
        <ele>577</ele>
        <time>2016-12-10T22:11:09Z</time>
      </trkpt>
      <trkpt lat="46.14434" lon="1.86348">
        <ele>577</ele>
        <time>2016-12-10T22:13:09Z</time>
      </trkpt>
      <trkpt lat="46.14434" lon="1.86348">
        <ele>577</ele>
        <time>2016-12-10T22:15:09Z</time>
      </trkpt>
      <trkpt lat="46.14435" lon="1.86348">
        <ele>577</ele>
        <time>2016-12-10T22:17:09Z</time>
      </trkpt>
      <trkpt lat="46.14435" lon="1.86348">
        <ele>577</ele>
        <time>2016-12-10T22:19:09Z</time>
      </trkpt>
      <trkpt lat="46.14434" lon="1.86348">
        <ele>577</ele>
        <time>2016-12-10T22:21:09Z</time>
      </trkpt>
      <trkpt lat="46.14434" lon="1.86349">
        <ele>577</ele>
        <time>2016-12-10T22:23:09Z</time>
      </trkpt>
      <trkpt lat="46.14434" lon="1.86348">
        <ele>577</ele>
        <time>2016-12-10T22:25:09Z</time>
      </trkpt>
      <trkpt lat="46.14434" lon="1.86348">
        <ele>577</ele>
        <time>2016-12-10T22:27:09Z</time>
      </trkpt>
      <trkpt lat="46.14434" lon="1.86348">
        <ele>577</ele>
        <time>2016-12-10T22:29:09Z</time>
      </trkpt>
      <trkpt lat="46.14434" lon="1.86348">
        <ele>577</ele>
        <time>2016-12-10T22:31:09Z</time>
      </trkpt>
      <trkpt lat="46.14435" lon="1.86348">
        <ele>577</ele>
        <time>2016-12-10T22:33:09Z</time>
      </trkpt>
      <trkpt lat="46.14435" lon="1.86347">
        <ele>577</ele>
        <time>2016-12-10T22:35:09Z</time>
      </trkpt>
      <trkpt lat="46.14434" lon="1.86347">
        <ele>577</ele>
        <time>2016-12-10T22:37:09Z</time>
      </trkpt>
      <trkpt lat="46.14435" lon="1.86349">
        <ele>577</ele>
        <time>2016-12-10T22:39:09Z</time>
      </trkpt>
      <trkpt lat="46.14435" lon="1.86349">
        <ele>577</ele>
        <time>2016-12-10T22:41:09Z</time>
      </trkpt>
      <trkpt lat="46.14435" lon="1.86349">
        <ele>577</ele>
        <time>2016-12-10T22:43:09Z</time>
      </trkpt>
      <trkpt lat="46.14434" lon="1.86348">
        <ele>577</ele>
        <time>2016-12-10T22:45:09Z</time>
      </trkpt>
      <trkpt lat="46.14434" lon="1.8635">
        <ele>577</ele>
        <time>2016-12-10T22:47:09Z</time>
      </trkpt>
      <trkpt lat="46.14432" lon="1.8635">
        <ele>577</ele>
        <time>2016-12-10T22:49:09Z</time>
      </trkpt>
      <trkpt lat="46.14431" lon="1.86361">
        <ele>576</ele>
        <time>2016-12-10T22:51:09Z</time>
      </trkpt>
      <trkpt lat="46.1443" lon="1.86363">
        <ele>576</ele>
        <time>2016-12-10T22:53:09Z</time>
      </trkpt>
      <trkpt lat="46.14429" lon="1.86364">
        <ele>576</ele>
        <time>2016-12-10T22:55:09Z</time>
      </trkpt>
      <trkpt lat="46.14428" lon="1.86365">
        <ele>576</ele>
        <time>2016-12-10T22:57:09Z</time>
      </trkpt>
      <trkpt lat="46.14427" lon="1.86366">
        <ele>576</ele>
        <time>2016-12-10T22:59:09Z</time>
      </trkpt>
      <trkpt lat="46.14424" lon="1.86367">
        <ele>576</ele>
        <time>2016-12-10T23:01:09Z</time>
      </trkpt>
      <trkpt lat="46.14424" lon="1.86367">
        <ele>576</ele>
        <time>2016-12-10T23:03:09Z</time>
      </trkpt>
      <trkpt lat="46.14423" lon="1.86366">
        <ele>576</ele>
        <time>2016-12-10T23:05:09Z</time>
      </trkpt>
      <trkpt lat="46.14422" lon="1.86364">
        <ele>577</ele>
        <time>2016-12-10T23:07:09Z</time>
      </trkpt>
      <trkpt lat="46.1442" lon="1.86359">
        <ele>578</ele>
        <time>2016-12-10T23:09:09Z</time>
      </trkpt>
      <trkpt lat="46.1442" lon="1.86355">
        <ele>578</ele>
        <time>2016-12-10T23:11:09Z</time>
      </trkpt>
      <trkpt lat="46.1442" lon="1.86353">
        <ele>578</ele>
        <time>2016-12-10T23:13:09Z</time>
      </trkpt>
      <trkpt lat="46.14419" lon="1.86345">
        <ele>579</ele>
        <time>2016-12-10T23:15:09Z</time>
      </trkpt>
      <trkpt lat="46.14416" lon="1.8633">
        <ele>582</ele>
        <time>2016-12-10T23:17:09Z</time>
      </trkpt>
      <trkpt lat="46.14416" lon="1.8633">
        <ele>582</ele>
        <time>2016-12-10T23:19:09Z</time>
      </trkpt>
      <trkpt lat="46.14416" lon="1.8633">
        <ele>582</ele>
        <time>2016-12-10T23:21:09Z</time>
      </trkpt>
      <trkpt lat="46.14416" lon="1.86331">
        <ele>581</ele>
        <time>2016-12-10T23:23:09Z</time>
      </trkpt>
      <trkpt lat="46.14416" lon="1.8633">
        <ele>582</ele>
        <time>2016-12-10T23:25:09Z</time>
      </trkpt>
      <trkpt lat="46.14416" lon="1.86328">
        <ele>582</ele>
        <time>2016-12-10T23:27:09Z</time>
      </trkpt>
      <trkpt lat="46.14416" lon="1.86328">
        <ele>582</ele>
        <time>2016-12-10T23:29:09Z</time>
      </trkpt>
      <trkpt lat="46.14417" lon="1.86332">
        <ele>581</ele>
        <time>2016-12-10T23:31:09Z</time>
      </trkpt>
      <trkpt lat="46.14417" lon="1.86331">
        <ele>581</ele>
        <time>2016-12-10T23:33:09Z</time>
      </trkpt>
      <trkpt lat="46.14416" lon="1.86329">
        <ele>582</ele>
        <time>2016-12-10T23:35:09Z</time>
      </trkpt>
      <trkpt lat="46.14418" lon="1.86329">
        <ele>581</ele>
        <time>2016-12-10T23:37:09Z</time>
      </trkpt>
      <trkpt lat="46.14416" lon="1.86328">
        <ele>582</ele>
        <time>2016-12-10T23:39:09Z</time>
      </trkpt>
      <trkpt lat="46.14413" lon="1.86322">
        <ele>583</ele>
        <time>2016-12-10T23:41:09Z</time>
      </trkpt>
      <trkpt lat="46.14412" lon="1.86323">
        <ele>584</ele>
        <time>2016-12-10T23:43:09Z</time>
      </trkpt>
      <trkpt lat="46.14411" lon="1.86323">
        <ele>584</ele>
        <time>2016-12-10T23:45:09Z</time>
      </trkpt>
      <trkpt lat="46.1441" lon="1.86326">
        <ele>584</ele>
        <time>2016-12-10T23:47:09Z</time>
      </trkpt>
      <trkpt lat="46.14409" lon="1.86327">
        <ele>584</ele>
        <time>2016-12-10T23:49:09Z</time>
      </trkpt>
      <trkpt lat="46.14409" lon="1.86327">
        <ele>584</ele>
        <time>2016-12-10T23:51:09Z</time>
      </trkpt>
      <trkpt lat="46.14407" lon="1.86326">
        <ele>585</ele>
        <time>2016-12-10T23:53:09Z</time>
      </trkpt>
      <trkpt lat="46.14406" lon="1.86326">
        <ele>585</ele>
        <time>2016-12-10T23:55:09Z</time>
      </trkpt>
      <trkpt lat="46.14405" lon="1.86327">
        <ele>585</ele>
        <time>2016-12-10T23:57:09Z</time>
      </trkpt>
      <trkpt lat="46.14404" lon="1.86328">
        <ele>585</ele>
        <time>2016-12-10T23:59:09Z</time>
      </trkpt>
      <trkpt lat="46.14404" lon="1.86331">
        <ele>585</ele>
        <time>2016-12-11T00:01:09Z</time>
      </trkpt>
      <trkpt lat="46.14403" lon="1.86332">
        <ele>585</ele>
        <time>2016-12-11T00:03:09Z</time>
      </trkpt>
      <trkpt lat="46.14403" lon="1.86335">
        <ele>584</ele>
        <time>2016-12-11T00:05:09Z</time>
      </trkpt>
      <trkpt lat="46.14403" lon="1.86336">
        <ele>584</ele>
        <time>2016-12-11T00:07:09Z</time>
      </trkpt>
      <trkpt lat="46.14403" lon="1.86337">
        <ele>584</ele>
        <time>2016-12-11T00:09:09Z</time>
      </trkpt>
      <trkpt lat="46.14403" lon="1.86336">
        <ele>584</ele>
        <time>2016-12-11T00:11:09Z</time>
      </trkpt>
      <trkpt lat="46.14404" lon="1.86338">
        <ele>584</ele>
        <time>2016-12-11T00:13:09Z</time>
      </trkpt>
      <trkpt lat="46.14403" lon="1.86336">
        <ele>584</ele>
        <time>2016-12-11T00:15:09Z</time>
      </trkpt>
      <trkpt lat="46.14403" lon="1.86339">
        <ele>584</ele>
        <time>2016-12-11T00:17:09Z</time>
      </trkpt>
      <trkpt lat="46.14402" lon="1.86339">
        <ele>584</ele>
        <time>2016-12-11T00:19:09Z</time>
      </trkpt>
      <trkpt lat="46.14402" lon="1.86339">
        <ele>584</ele>
        <time>2016-12-11T00:21:09Z</time>
      </trkpt>
      <trkpt lat="46.14401" lon="1.86338">
        <ele>585</ele>
        <time>2016-12-11T00:23:09Z</time>
      </trkpt>
      <trkpt lat="46.14401" lon="1.86335">
        <ele>585</ele>
        <time>2016-12-11T00:25:09Z</time>
      </trkpt>
      <trkpt lat="46.14401" lon="1.86332">
        <ele>585</ele>
        <time>2016-12-11T00:27:09Z</time>
      </trkpt>
      <trkpt lat="46.144" lon="1.86328">
        <ele>586</ele>
        <time>2016-12-11T00:29:09Z</time>
      </trkpt>
      <trkpt lat="46.144" lon="1.86329">
        <ele>586</ele>
        <time>2016-12-11T00:31:09Z</time>
      </trkpt>
      <trkpt lat="46.14401" lon="1.86328">
        <ele>586</ele>
        <time>2016-12-11T00:33:09Z</time>
      </trkpt>
      <trkpt lat="46.144" lon="1.86329">
        <ele>586</ele>
        <time>2016-12-11T00:35:09Z</time>
      </trkpt>
      <trkpt lat="46.144" lon="1.86327">
        <ele>586</ele>
        <time>2016-12-11T00:37:09Z</time>
      </trkpt>
      <trkpt lat="46.144" lon="1.86328">
        <ele>586</ele>
        <time>2016-12-11T00:39:09Z</time>
      </trkpt>
      <trkpt lat="46.144" lon="1.86327">
        <ele>586</ele>
        <time>2016-12-11T00:41:09Z</time>
      </trkpt>
      <trkpt lat="46.14399" lon="1.86326">
        <ele>587</ele>
        <time>2016-12-11T00:43:09Z</time>
      </trkpt>
      <trkpt lat="46.14398" lon="1.86326">
        <ele>587</ele>
        <time>2016-12-11T00:45:09Z</time>
      </trkpt>
      <trkpt lat="46.14397" lon="1.86325">
        <ele>587</ele>
        <time>2016-12-11T00:47:09Z</time>
      </trkpt>
      <trkpt lat="46.14395" lon="1.86325">
        <ele>588</ele>
        <time>2016-12-11T00:49:09Z</time>
      </trkpt>
      <trkpt lat="46.14393" lon="1.86324">
        <ele>589</ele>
        <time>2016-12-11T00:51:09Z</time>
      </trkpt>
      <trkpt lat="46.14393" lon="1.86324">
        <ele>589</ele>
        <time>2016-12-11T00:53:09Z</time>
      </trkpt>
      <trkpt lat="46.14393" lon="1.86323">
        <ele>589</ele>
        <time>2016-12-11T00:55:09Z</time>
      </trkpt>
      <trkpt lat="46.14393" lon="1.86322">
        <ele>589</ele>
        <time>2016-12-11T00:57:09Z</time>
      </trkpt>
      <trkpt lat="46.14391" lon="1.86322">
        <ele>589</ele>
        <time>2016-12-11T00:59:09Z</time>
      </trkpt>
      <trkpt lat="46.14391" lon="1.86321">
        <ele>589</ele>
        <time>2016-12-11T01:01:09Z</time>
      </trkpt>
      <trkpt lat="46.1439" lon="1.86321">
        <ele>590</ele>
        <time>2016-12-11T01:03:09Z</time>
      </trkpt>
      <trkpt lat="46.14389" lon="1.86319">
        <ele>590</ele>
        <time>2016-12-11T01:05:09Z</time>
      </trkpt>
      <trkpt lat="46.14388" lon="1.86318">
        <ele>591</ele>
        <time>2016-12-11T01:07:09Z</time>
      </trkpt>
      <trkpt lat="46.14388" lon="1.86318">
        <ele>591</ele>
        <time>2016-12-11T01:09:09Z</time>
      </trkpt>
      <trkpt lat="46.14387" lon="1.86317">
        <ele>591</ele>
        <time>2016-12-11T01:11:09Z</time>
      </trkpt>
      <trkpt lat="46.14385" lon="1.86317">
        <ele>592</ele>
        <time>2016-12-11T01:13:09Z</time>
      </trkpt>
      <trkpt lat="46.14383" lon="1.86318">
        <ele>592</ele>
        <time>2016-12-11T01:15:09Z</time>
      </trkpt>
      <trkpt lat="46.14382" lon="1.86318">
        <ele>592</ele>
        <time>2016-12-11T01:17:09Z</time>
      </trkpt>
      <trkpt lat="46.1438" lon="1.8632">
        <ele>593</ele>
        <time>2016-12-11T01:19:09Z</time>
      </trkpt>
      <trkpt lat="46.14379" lon="1.8632">
        <ele>593</ele>
        <time>2016-12-11T01:21:09Z</time>
      </trkpt>
      <trkpt lat="46.14377" lon="1.8632">
        <ele>593</ele>
        <time>2016-12-11T01:23:09Z</time>
      </trkpt>
      <trkpt lat="46.14377" lon="1.8632">
        <ele>593</ele>
        <time>2016-12-11T01:25:09Z</time>
      </trkpt>
      <trkpt lat="46.14375" lon="1.86319">
        <ele>594</ele>
        <time>2016-12-11T01:27:09Z</time>
      </trkpt>
      <trkpt lat="46.14375" lon="1.86319">
        <ele>594</ele>
        <time>2016-12-11T01:29:09Z</time>
      </trkpt>
      <trkpt lat="46.14374" lon="1.86318">
        <ele>594</ele>
        <time>2016-12-11T01:31:09Z</time>
      </trkpt>
      <trkpt lat="46.14371" lon="1.86313">
        <ele>596</ele>
        <time>2016-12-11T01:33:09Z</time>
      </trkpt>
      <trkpt lat="46.14367" lon="1.86306">
        <ele>598</ele>
        <time>2016-12-11T01:35:09Z</time>
      </trkpt>
      <trkpt lat="46.14368" lon="1.86305">
        <ele>598</ele>
        <time>2016-12-11T01:37:09Z</time>
      </trkpt>
      <trkpt lat="46.14368" lon="1.86305">
        <ele>598</ele>
        <time>2016-12-11T01:39:09Z</time>
      </trkpt>
      <trkpt lat="46.14368" lon="1.86301">
        <ele>598</ele>
        <time>2016-12-11T01:41:09Z</time>
      </trkpt>
      <trkpt lat="46.14368" lon="1.86297">
        <ele>599</ele>
        <time>2016-12-11T01:43:09Z</time>
      </trkpt>
      <trkpt lat="46.14369" lon="1.86294">
        <ele>599</ele>
        <time>2016-12-11T01:45:09Z</time>
      </trkpt>
      <trkpt lat="46.14368" lon="1.86291">
        <ele>600</ele>
        <time>2016-12-11T01:47:09Z</time>
      </trkpt>
      <trkpt lat="46.14369" lon="1.86291">
        <ele>599</ele>
        <time>2016-12-11T01:49:09Z</time>
      </trkpt>
      <trkpt lat="46.14369" lon="1.86289">
        <ele>600</ele>
        <time>2016-12-11T01:51:09Z</time>
      </trkpt>
      <trkpt lat="46.14368" lon="1.86287">
        <ele>600</ele>
        <time>2016-12-11T01:53:09Z</time>
      </trkpt>
      <trkpt lat="46.14368" lon="1.86286">
        <ele>600</ele>
        <time>2016-12-11T01:55:09Z</time>
      </trkpt>
      <trkpt lat="46.14369" lon="1.86284">
        <ele>600</ele>
        <time>2016-12-11T01:57:09Z</time>
      </trkpt>
      <trkpt lat="46.1437" lon="1.86279">
        <ele>601</ele>
        <time>2016-12-11T01:59:09Z</time>
      </trkpt>
      <trkpt lat="46.14371" lon="1.86272">
        <ele>602</ele>
        <time>2016-12-11T02:01:09Z</time>
      </trkpt>
      <trkpt lat="46.14371" lon="1.86271">
        <ele>602</ele>
        <time>2016-12-11T02:03:09Z</time>
      </trkpt>
      <trkpt lat="46.14372" lon="1.86269">
        <ele>602</ele>
        <time>2016-12-11T02:05:09Z</time>
      </trkpt>
      <trkpt lat="46.14372" lon="1.86263">
        <ele>603</ele>
        <time>2016-12-11T02:07:09Z</time>
      </trkpt>
      <trkpt lat="46.14372" lon="1.86261">
        <ele>603</ele>
        <time>2016-12-11T02:09:09Z</time>
      </trkpt>
      <trkpt lat="46.14373" lon="1.86259">
        <ele>603</ele>
        <time>2016-12-11T02:11:09Z</time>
      </trkpt>
      <trkpt lat="46.14372" lon="1.86253">
        <ele>604</ele>
        <time>2016-12-11T02:13:09Z</time>
      </trkpt>
      <trkpt lat="46.14373" lon="1.86251">
        <ele>604</ele>
        <time>2016-12-11T02:15:09Z</time>
      </trkpt>
      <trkpt lat="46.14372" lon="1.86247">
        <ele>605</ele>
        <time>2016-12-11T02:17:09Z</time>
      </trkpt>
      <trkpt lat="46.14372" lon="1.86242">
        <ele>605</ele>
        <time>2016-12-11T02:19:09Z</time>
      </trkpt>
      <trkpt lat="46.14371" lon="1.86241">
        <ele>606</ele>
        <time>2016-12-11T02:21:09Z</time>
      </trkpt>
      <trkpt lat="46.14371" lon="1.86238">
        <ele>606</ele>
        <time>2016-12-11T02:23:09Z</time>
      </trkpt>
      <trkpt lat="46.14372" lon="1.86234">
        <ele>606</ele>
        <time>2016-12-11T02:25:09Z</time>
      </trkpt>
      <trkpt lat="46.14373" lon="1.8623">
        <ele>606</ele>
        <time>2016-12-11T02:27:09Z</time>
      </trkpt>
      <trkpt lat="46.14373" lon="1.86228">
        <ele>607</ele>
        <time>2016-12-11T02:29:09Z</time>
      </trkpt>
      <trkpt lat="46.14372" lon="1.86226">
        <ele>607</ele>
        <time>2016-12-11T02:31:09Z</time>
      </trkpt>
      <trkpt lat="46.14372" lon="1.86224">
        <ele>607</ele>
        <time>2016-12-11T02:33:09Z</time>
      </trkpt>
      <trkpt lat="46.14372" lon="1.8622">
        <ele>608</ele>
        <time>2016-12-11T02:35:09Z</time>
      </trkpt>
      <trkpt lat="46.14372" lon="1.86219">
        <ele>608</ele>
        <time>2016-12-11T02:37:09Z</time>
      </trkpt>
      <trkpt lat="46.14372" lon="1.86218">
        <ele>608</ele>
        <time>2016-12-11T02:39:09Z</time>
      </trkpt>
      <trkpt lat="46.14371" lon="1.86216">
        <ele>609</ele>
        <time>2016-12-11T02:41:09Z</time>
      </trkpt>
      <trkpt lat="46.14371" lon="1.86212">
        <ele>609</ele>
        <time>2016-12-11T02:43:09Z</time>
      </trkpt>
      <trkpt lat="46.14369" lon="1.86209">
        <ele>610</ele>
        <time>2016-12-11T02:45:09Z</time>
      </trkpt>
      <trkpt lat="46.14367" lon="1.86207">
        <ele>611</ele>
        <time>2016-12-11T02:47:09Z</time>
      </trkpt>
      <trkpt lat="46.14369" lon="1.86205">
        <ele>610</ele>
        <time>2016-12-11T02:49:09Z</time>
      </trkpt>
      <trkpt lat="46.1437" lon="1.86203">
        <ele>610</ele>
        <time>2016-12-11T02:51:09Z</time>
      </trkpt>
      <trkpt lat="46.1437" lon="1.86199">
        <ele>611</ele>
        <time>2016-12-11T02:53:09Z</time>
      </trkpt>
      <trkpt lat="46.1437" lon="1.86195">
        <ele>611</ele>
        <time>2016-12-11T02:55:09Z</time>
      </trkpt>
      <trkpt lat="46.14372" lon="1.86191">
        <ele>611</ele>
        <time>2016-12-11T02:57:09Z</time>
      </trkpt>
      <trkpt lat="46.14372" lon="1.86187">
        <ele>612</ele>
        <time>2016-12-11T02:59:09Z</time>
      </trkpt>
      <trkpt lat="46.14372" lon="1.86186">
        <ele>612</ele>
        <time>2016-12-11T03:01:09Z</time>
      </trkpt>
      <trkpt lat="46.14372" lon="1.86183">
        <ele>612</ele>
        <time>2016-12-11T03:03:09Z</time>
      </trkpt>
      <trkpt lat="46.14372" lon="1.86181">
        <ele>613</ele>
        <time>2016-12-11T03:05:09Z</time>
      </trkpt>
      <trkpt lat="46.14373" lon="1.86177">
        <ele>613</ele>
        <time>2016-12-11T03:07:09Z</time>
      </trkpt>
      <trkpt lat="46.14374" lon="1.8617">
        <ele>613</ele>
        <time>2016-12-11T03:09:09Z</time>
      </trkpt>
      <trkpt lat="46.14374" lon="1.86166">
        <ele>614</ele>
        <time>2016-12-11T03:11:09Z</time>
      </trkpt>
      <trkpt lat="46.14376" lon="1.86161">
        <ele>614</ele>
        <time>2016-12-11T03:13:09Z</time>
      </trkpt>
      <trkpt lat="46.14377" lon="1.8616">
        <ele>614</ele>
        <time>2016-12-11T03:15:09Z</time>
      </trkpt>
      <trkpt lat="46.14378" lon="1.86158">
        <ele>614</ele>
        <time>2016-12-11T03:17:09Z</time>
      </trkpt>
      <trkpt lat="46.14379" lon="1.86156">
        <ele>614</ele>
        <time>2016-12-11T03:19:09Z</time>
      </trkpt>
      <trkpt lat="46.14381" lon="1.86154">
        <ele>614</ele>
        <time>2016-12-11T03:21:09Z</time>
      </trkpt>
      <trkpt lat="46.14382" lon="1.86151">
        <ele>614</ele>
        <time>2016-12-11T03:23:09Z</time>
      </trkpt>
      <trkpt lat="46.14381" lon="1.86151">
        <ele>614</ele>
        <time>2016-12-11T03:25:09Z</time>
      </trkpt>
      <trkpt lat="46.14381" lon="1.86149">
        <ele>615</ele>
        <time>2016-12-11T03:27:09Z</time>
      </trkpt>
      <trkpt lat="46.14381" lon="1.86148">
        <ele>615</ele>
        <time>2016-12-11T03:29:09Z</time>
      </trkpt>
      <trkpt lat="46.14381" lon="1.86141">
        <ele>616</ele>
        <time>2016-12-11T03:31:09Z</time>
      </trkpt>
      <trkpt lat="46.1438" lon="1.86137">
        <ele>617</ele>
        <time>2016-12-11T03:33:09Z</time>
      </trkpt>
      <trkpt lat="46.1438" lon="1.86131">
        <ele>617</ele>
        <time>2016-12-11T03:35:09Z</time>
      </trkpt>
      <trkpt lat="46.1438" lon="1.86129">
        <ele>618</ele>
        <time>2016-12-11T03:37:09Z</time>
      </trkpt>
      <trkpt lat="46.1438" lon="1.86125">
        <ele>618</ele>
        <time>2016-12-11T03:39:09Z</time>
      </trkpt>
      <trkpt lat="46.14381" lon="1.86121">
        <ele>619</ele>
        <time>2016-12-11T03:41:09Z</time>
      </trkpt>
      <trkpt lat="46.14379" lon="1.86115">
        <ele>620</ele>
        <time>2016-12-11T03:43:09Z</time>
      </trkpt>
      <trkpt lat="46.14379" lon="1.86111">
        <ele>621</ele>
        <time>2016-12-11T03:45:09Z</time>
      </trkpt>
      <trkpt lat="46.14378" lon="1.86108">
        <ele>621</ele>
        <time>2016-12-11T03:47:09Z</time>
      </trkpt>
      <trkpt lat="46.14378" lon="1.86106">
        <ele>622</ele>
        <time>2016-12-11T03:49:09Z</time>
      </trkpt>
      <trkpt lat="46.14377" lon="1.86104">
        <ele>622</ele>
        <time>2016-12-11T03:51:09Z</time>
      </trkpt>
      <trkpt lat="46.14376" lon="1.86098">
        <ele>623</ele>
        <time>2016-12-11T03:53:09Z</time>
      </trkpt>
      <trkpt lat="46.14375" lon="1.86095">
        <ele>624</ele>
        <time>2016-12-11T03:55:09Z</time>
      </trkpt>
      <trkpt lat="46.14374" lon="1.86093">
        <ele>624</ele>
        <time>2016-12-11T03:57:09Z</time>
      </trkpt>
      <trkpt lat="46.14373" lon="1.8609">
        <ele>625</ele>
        <time>2016-12-11T03:59:09Z</time>
      </trkpt>
      <trkpt lat="46.14372" lon="1.86087">
        <ele>626</ele>
        <time>2016-12-11T04:01:09Z</time>
      </trkpt>
      <trkpt lat="46.1437" lon="1.86085">
        <ele>626</ele>
        <time>2016-12-11T04:03:09Z</time>
      </trkpt>
      <trkpt lat="46.1437" lon="1.86085">
        <ele>626</ele>
        <time>2016-12-11T04:05:09Z</time>
      </trkpt>
      <trkpt lat="46.1437" lon="1.86085">
        <ele>626</ele>
        <time>2016-12-11T04:07:09Z</time>
      </trkpt>
      <trkpt lat="46.1437" lon="1.86083">
        <ele>627</ele>
        <time>2016-12-11T04:09:09Z</time>
      </trkpt>
      <trkpt lat="46.14369" lon="1.86084">
        <ele>627</ele>
        <time>2016-12-11T04:11:09Z</time>
      </trkpt>
      <trkpt lat="46.14369" lon="1.86083">
        <ele>627</ele>
        <time>2016-12-11T04:13:09Z</time>
      </trkpt>
      <trkpt lat="46.14367" lon="1.8608">
        <ele>628</ele>
        <time>2016-12-11T04:15:09Z</time>
      </trkpt>
      <trkpt lat="46.14366" lon="1.86078">
        <ele>628</ele>
        <time>2016-12-11T04:17:09Z</time>
      </trkpt>
      <trkpt lat="46.14364" lon="1.86076">
        <ele>629</ele>
        <time>2016-12-11T04:19:09Z</time>
      </trkpt>
      <trkpt lat="46.14363" lon="1.86074">
        <ele>629</ele>
        <time>2016-12-11T04:21:09Z</time>
      </trkpt>
      <trkpt lat="46.14362" lon="1.86073">
        <ele>629</ele>
        <time>2016-12-11T04:23:09Z</time>
      </trkpt>
      <trkpt lat="46.14361" lon="1.86072">
        <ele>630</ele>
        <time>2016-12-11T04:25:09Z</time>
      </trkpt>
      <trkpt lat="46.14357" lon="1.86069">
        <ele>631</ele>
        <time>2016-12-11T04:27:09Z</time>
      </trkpt>
      <trkpt lat="46.14356" lon="1.86069">
        <ele>631</ele>
        <time>2016-12-11T04:29:09Z</time>
      </trkpt>
      <trkpt lat="46.14355" lon="1.86068">
        <ele>631</ele>
        <time>2016-12-11T04:31:09Z</time>
      </trkpt>
      <trkpt lat="46.14355" lon="1.86068">
        <ele>631</ele>
        <time>2016-12-11T04:33:09Z</time>
      </trkpt>
      <trkpt lat="46.1435" lon="1.86065">
        <ele>633</ele>
        <time>2016-12-11T04:35:09Z</time>
      </trkpt>
      <trkpt lat="46.14349" lon="1.86065">
        <ele>633</ele>
        <time>2016-12-11T04:37:09Z</time>
      </trkpt>
      <trkpt lat="46.14347" lon="1.86066">
        <ele>633</ele>
        <time>2016-12-11T04:39:09Z</time>
      </trkpt>
      <trkpt lat="46.1434" lon="1.86068">
        <ele>634</ele>
        <time>2016-12-11T04:41:09Z</time>
      </trkpt>
      <trkpt lat="46.14339" lon="1.86071">
        <ele>634</ele>
        <time>2016-12-11T04:43:09Z</time>
      </trkpt>
      <trkpt lat="46.14327" lon="1.86083">
        <ele>635</ele>
        <time>2016-12-11T04:45:09Z</time>
      </trkpt>
      <trkpt lat="46.14325" lon="1.86084">
        <ele>635</ele>
        <time>2016-12-11T04:47:09Z</time>
      </trkpt>
      <trkpt lat="46.14319" lon="1.8609">
        <ele>635</ele>
        <time>2016-12-11T04:49:09Z</time>
      </trkpt>
      <trkpt lat="46.14315" lon="1.86094">
        <ele>635</ele>
        <time>2016-12-11T04:51:09Z</time>
      </trkpt>
      <trkpt lat="46.14313" lon="1.86096">
        <ele>635</ele>
        <time>2016-12-11T04:53:09Z</time>
      </trkpt>
      <trkpt lat="46.14307" lon="1.86102">
        <ele>636</ele>
        <time>2016-12-11T04:55:09Z</time>
      </trkpt>
      <trkpt lat="46.143" lon="1.86113">
        <ele>635</ele>
        <time>2016-12-11T04:57:09Z</time>
      </trkpt>
      <trkpt lat="46.14296" lon="1.86121">
        <ele>635</ele>
        <time>2016-12-11T04:59:09Z</time>
      </trkpt>
      <trkpt lat="46.14293" lon="1.86127">
        <ele>635</ele>
        <time>2016-12-11T05:01:09Z</time>
      </trkpt>
      <trkpt lat="46.14292" lon="1.8613">
        <ele>635</ele>
        <time>2016-12-11T05:03:09Z</time>
      </trkpt>
      <trkpt lat="46.1429" lon="1.86134">
        <ele>635</ele>
        <time>2016-12-11T05:05:09Z</time>
      </trkpt>
      <trkpt lat="46.14287" lon="1.8614">
        <ele>635</ele>
        <time>2016-12-11T05:07:09Z</time>
      </trkpt>
      <trkpt lat="46.14281" lon="1.86149">
        <ele>635</ele>
        <time>2016-12-11T05:09:09Z</time>
      </trkpt>
      <trkpt lat="46.14276" lon="1.86157">
        <ele>635</ele>
        <time>2016-12-11T05:11:09Z</time>
      </trkpt>
      <trkpt lat="46.14273" lon="1.86165">
        <ele>635</ele>
        <time>2016-12-11T05:13:09Z</time>
      </trkpt>
      <trkpt lat="46.14272" lon="1.86167">
        <ele>635</ele>
        <time>2016-12-11T05:15:09Z</time>
      </trkpt>
      <trkpt lat="46.1427" lon="1.86169">
        <ele>635</ele>
        <time>2016-12-11T05:17:09Z</time>
      </trkpt>
      <trkpt lat="46.14269" lon="1.8617">
        <ele>635</ele>
        <time>2016-12-11T05:19:09Z</time>
      </trkpt>
      <trkpt lat="46.14266" lon="1.86172">
        <ele>636</ele>
        <time>2016-12-11T05:21:09Z</time>
      </trkpt>
      <trkpt lat="46.14262" lon="1.86178">
        <ele>636</ele>
        <time>2016-12-11T05:23:09Z</time>
      </trkpt>
      <trkpt lat="46.14255" lon="1.86185">
        <ele>637</ele>
        <time>2016-12-11T05:25:09Z</time>
      </trkpt>
      <trkpt lat="46.1425" lon="1.86188">
        <ele>637</ele>
        <time>2016-12-11T05:27:09Z</time>
      </trkpt>
      <trkpt lat="46.14244" lon="1.86192">
        <ele>638</ele>
        <time>2016-12-11T05:29:09Z</time>
      </trkpt>
      <trkpt lat="46.14241" lon="1.86196">
        <ele>638</ele>
        <time>2016-12-11T05:31:09Z</time>
      </trkpt>
      <trkpt lat="46.14239" lon="1.86197">
        <ele>638</ele>
        <time>2016-12-11T05:33:09Z</time>
      </trkpt>
      <trkpt lat="46.14234" lon="1.86203">
        <ele>638</ele>
        <time>2016-12-11T05:35:09Z</time>
      </trkpt>
      <trkpt lat="46.14229" lon="1.86209">
        <ele>638</ele>
        <time>2016-12-11T05:37:09Z</time>
      </trkpt>
      <trkpt lat="46.14226" lon="1.8621">
        <ele>638</ele>
        <time>2016-12-11T05:39:09Z</time>
      </trkpt>
      <trkpt lat="46.14217" lon="1.86219">
        <ele>638</ele>
        <time>2016-12-11T05:41:09Z</time>
      </trkpt>
      <trkpt lat="46.14215" lon="1.86221">
        <ele>638</ele>
        <time>2016-12-11T05:43:09Z</time>
      </trkpt>
      <trkpt lat="46.14211" lon="1.86224">
        <ele>639</ele>
        <time>2016-12-11T05:45:09Z</time>
      </trkpt>
      <trkpt lat="46.14207" lon="1.86228">
        <ele>639</ele>
        <time>2016-12-11T05:47:09Z</time>
      </trkpt>
      <trkpt lat="46.14202" lon="1.86234">
        <ele>639</ele>
        <time>2016-12-11T05:49:09Z</time>
      </trkpt>
      <trkpt lat="46.142" lon="1.86235">
        <ele>639</ele>
        <time>2016-12-11T05:51:09Z</time>
      </trkpt>
      <trkpt lat="46.14197" lon="1.86238">
        <ele>639</ele>
        <time>2016-12-11T05:53:09Z</time>
      </trkpt>
      <trkpt lat="46.14195" lon="1.86239">
        <ele>639</ele>
        <time>2016-12-11T05:55:09Z</time>
      </trkpt>
      <trkpt lat="46.14193" lon="1.86241">
        <ele>639</ele>
        <time>2016-12-11T05:57:09Z</time>
      </trkpt>
      <trkpt lat="46.14191" lon="1.86244">
        <ele>639</ele>
        <time>2016-12-11T05:59:09Z</time>
      </trkpt>
      <trkpt lat="46.14183" lon="1.86251">
        <ele>639</ele>
        <time>2016-12-11T06:01:09Z</time>
      </trkpt>
      <trkpt lat="46.14175" lon="1.86255">
        <ele>640</ele>
        <time>2016-12-11T06:03:09Z</time>
      </trkpt>
      <trkpt lat="46.14166" lon="1.86258">
        <ele>640</ele>
        <time>2016-12-11T06:05:09Z</time>
      </trkpt>
      <trkpt lat="46.14157" lon="1.86261">
        <ele>641</ele>
        <time>2016-12-11T06:07:09Z</time>
      </trkpt>
      <trkpt lat="46.14154" lon="1.86262">
        <ele>641</ele>
        <time>2016-12-11T06:09:09Z</time>
      </trkpt>
      <trkpt lat="46.14151" lon="1.86263">
        <ele>641</ele>
        <time>2016-12-11T06:11:09Z</time>
      </trkpt>
      <trkpt lat="46.14142" lon="1.86267">
        <ele>641</ele>
        <time>2016-12-11T06:13:09Z</time>
      </trkpt>
      <trkpt lat="46.14139" lon="1.86267">
        <ele>641</ele>
        <time>2016-12-11T06:15:09Z</time>
      </trkpt>
      <trkpt lat="46.14135" lon="1.8627">
        <ele>641</ele>
        <time>2016-12-11T06:17:09Z</time>
      </trkpt>
      <trkpt lat="46.14126" lon="1.86272">
        <ele>641</ele>
        <time>2016-12-11T06:19:09Z</time>
      </trkpt>
      <trkpt lat="46.14123" lon="1.86271">
        <ele>642</ele>
        <time>2016-12-11T06:21:09Z</time>
      </trkpt>
      <trkpt lat="46.14121" lon="1.86271">
        <ele>642</ele>
        <time>2016-12-11T06:23:09Z</time>
      </trkpt>
      <trkpt lat="46.14119" lon="1.86271">
        <ele>642</ele>
        <time>2016-12-11T06:25:09Z</time>
      </trkpt>
      <trkpt lat="46.14115" lon="1.86271">
        <ele>642</ele>
        <time>2016-12-11T06:27:09Z</time>
      </trkpt>
      <trkpt lat="46.14113" lon="1.86272">
        <ele>642</ele>
        <time>2016-12-11T06:29:09Z</time>
      </trkpt>
      <trkpt lat="46.14107" lon="1.86272">
        <ele>643</ele>
        <time>2016-12-11T06:31:09Z</time>
      </trkpt>
      <trkpt lat="46.14104" lon="1.86272">
        <ele>643</ele>
        <time>2016-12-11T06:33:09Z</time>
      </trkpt>
      <trkpt lat="46.141" lon="1.8627">
        <ele>643</ele>
        <time>2016-12-11T06:35:09Z</time>
      </trkpt>
      <trkpt lat="46.14096" lon="1.86269">
        <ele>644</ele>
        <time>2016-12-11T06:37:09Z</time>
      </trkpt>
      <trkpt lat="46.1409" lon="1.86269">
        <ele>644</ele>
        <time>2016-12-11T06:39:09Z</time>
      </trkpt>
      <trkpt lat="46.14087" lon="1.86267">
        <ele>645</ele>
        <time>2016-12-11T06:41:09Z</time>
      </trkpt>
      <trkpt lat="46.14077" lon="1.86262">
        <ele>646</ele>
        <time>2016-12-11T06:43:09Z</time>
      </trkpt>
      <trkpt lat="46.14074" lon="1.86261">
        <ele>646</ele>
        <time>2016-12-11T06:45:09Z</time>
      </trkpt>
      <trkpt lat="46.1407" lon="1.86257">
        <ele>646</ele>
        <time>2016-12-11T06:47:09Z</time>
      </trkpt>
      <trkpt lat="46.14066" lon="1.86257">
        <ele>646</ele>
        <time>2016-12-11T06:49:09Z</time>
      </trkpt>
      <trkpt lat="46.14061" lon="1.86254">
        <ele>646</ele>
        <time>2016-12-11T06:51:09Z</time>
      </trkpt>
      <trkpt lat="46.14057" lon="1.86249">
        <ele>647</ele>
        <time>2016-12-11T06:53:09Z</time>
      </trkpt>
      <trkpt lat="46.14055" lon="1.86247">
        <ele>647</ele>
        <time>2016-12-11T06:55:09Z</time>
      </trkpt>
      <trkpt lat="46.14053" lon="1.86243">
        <ele>647</ele>
        <time>2016-12-11T06:57:09Z</time>
      </trkpt>
      <trkpt lat="46.14051" lon="1.86242">
        <ele>647</ele>
        <time>2016-12-11T06:59:09Z</time>
      </trkpt>
      <trkpt lat="46.1405" lon="1.8624">
        <ele>647</ele>
        <time>2016-12-11T07:01:09Z</time>
      </trkpt>
      <trkpt lat="46.14049" lon="1.86239">
        <ele>647</ele>
        <time>2016-12-11T07:03:09Z</time>
      </trkpt>
      <trkpt lat="46.14048" lon="1.86237">
        <ele>648</ele>
        <time>2016-12-11T07:05:09Z</time>
      </trkpt>
      <trkpt lat="46.14045" lon="1.86234">
        <ele>648</ele>
        <time>2016-12-11T07:07:09Z</time>
      </trkpt>
      <trkpt lat="46.14044" lon="1.86232">
        <ele>648</ele>
        <time>2016-12-11T07:09:09Z</time>
      </trkpt>
      <trkpt lat="46.14043" lon="1.8623">
        <ele>648</ele>
        <time>2016-12-11T07:11:09Z</time>
      </trkpt>
      <trkpt lat="46.14042" lon="1.86229">
        <ele>648</ele>
        <time>2016-12-11T07:13:09Z</time>
      </trkpt>
      <trkpt lat="46.1404" lon="1.86225">
        <ele>649</ele>
        <time>2016-12-11T07:15:09Z</time>
      </trkpt>
      <trkpt lat="46.14038" lon="1.86221">
        <ele>649</ele>
        <time>2016-12-11T07:17:09Z</time>
      </trkpt>
      <trkpt lat="46.14037" lon="1.8622">
        <ele>649</ele>
        <time>2016-12-11T07:19:09Z</time>
      </trkpt>
      <trkpt lat="46.14036" lon="1.86216">
        <ele>650</ele>
        <time>2016-12-11T07:21:09Z</time>
      </trkpt>
      <trkpt lat="46.14032" lon="1.86209">
        <ele>650</ele>
        <time>2016-12-11T07:23:09Z</time>
      </trkpt>
      <trkpt lat="46.14032" lon="1.86209">
        <ele>650</ele>
        <time>2016-12-11T07:25:09Z</time>
      </trkpt>
      <trkpt lat="46.1403" lon="1.86206">
        <ele>651</ele>
        <time>2016-12-11T07:27:09Z</time>
      </trkpt>
      <trkpt lat="46.14029" lon="1.86202">
        <ele>651</ele>
        <time>2016-12-11T07:29:09Z</time>
      </trkpt>
      <trkpt lat="46.14028" lon="1.86199">
        <ele>652</ele>
        <time>2016-12-11T07:31:09Z</time>
      </trkpt>
      <trkpt lat="46.14025" lon="1.86193">
        <ele>652</ele>
        <time>2016-12-11T07:33:09Z</time>
      </trkpt>
      <trkpt lat="46.14024" lon="1.86191">
        <ele>653</ele>
        <time>2016-12-11T07:35:09Z</time>
      </trkpt>
      <trkpt lat="46.14023" lon="1.86189">
        <ele>653</ele>
        <time>2016-12-11T07:37:09Z</time>
      </trkpt>
      <trkpt lat="46.14021" lon="1.86185">
        <ele>653</ele>
        <time>2016-12-11T07:39:09Z</time>
      </trkpt>
      <trkpt lat="46.14019" lon="1.86174">
        <ele>655</ele>
        <time>2016-12-11T07:41:09Z</time>
      </trkpt>
      <trkpt lat="46.14018" lon="1.86167">
        <ele>656</ele>
        <time>2016-12-11T07:43:09Z</time>
      </trkpt>
      <trkpt lat="46.14018" lon="1.86165">
        <ele>656</ele>
        <time>2016-12-11T07:45:09Z</time>
      </trkpt>
      <trkpt lat="46.14017" lon="1.86156">
        <ele>656</ele>
        <time>2016-12-11T07:47:09Z</time>
      </trkpt>
      <trkpt lat="46.14017" lon="1.86154">
        <ele>656</ele>
        <time>2016-12-11T07:49:09Z</time>
      </trkpt>
      <trkpt lat="46.14017" lon="1.86153">
        <ele>656</ele>
        <time>2016-12-11T07:51:09Z</time>
      </trkpt>
      <trkpt lat="46.14018" lon="1.86147">
        <ele>657</ele>
        <time>2016-12-11T07:53:09Z</time>
      </trkpt>
      <trkpt lat="46.14019" lon="1.86144">
        <ele>657</ele>
        <time>2016-12-11T07:55:09Z</time>
      </trkpt>
      <trkpt lat="46.14019" lon="1.86143">
        <ele>657</ele>
        <time>2016-12-11T07:57:09Z</time>
      </trkpt>
      <trkpt lat="46.1402" lon="1.8614">
        <ele>657</ele>
        <time>2016-12-11T07:59:09Z</time>
      </trkpt>
      <trkpt lat="46.1402" lon="1.86135">
        <ele>657</ele>
        <time>2016-12-11T08:01:09Z</time>
      </trkpt>
      <trkpt lat="46.1402" lon="1.86129">
        <ele>658</ele>
        <time>2016-12-11T08:03:09Z</time>
      </trkpt>
      <trkpt lat="46.1402" lon="1.86127">
        <ele>658</ele>
        <time>2016-12-11T08:05:09Z</time>
      </trkpt>
      <trkpt lat="46.14021" lon="1.86125">
        <ele>658</ele>
        <time>2016-12-11T08:07:09Z</time>
      </trkpt>
      <trkpt lat="46.14022" lon="1.86123">
        <ele>658</ele>
        <time>2016-12-11T08:09:09Z</time>
      </trkpt>
      <trkpt lat="46.14022" lon="1.86121">
        <ele>658</ele>
        <time>2016-12-11T08:11:09Z</time>
      </trkpt>
      <trkpt lat="46.14024" lon="1.86111">
        <ele>659</ele>
        <time>2016-12-11T08:13:09Z</time>
      </trkpt>
      <trkpt lat="46.14024" lon="1.86108">
        <ele>659</ele>
        <time>2016-12-11T08:15:09Z</time>
      </trkpt>
      <trkpt lat="46.14025" lon="1.861">
        <ele>659</ele>
        <time>2016-12-11T08:17:09Z</time>
      </trkpt>
      <trkpt lat="46.14025" lon="1.86093">
        <ele>660</ele>
        <time>2016-12-11T08:19:09Z</time>
      </trkpt>
      <trkpt lat="46.14024" lon="1.86089">
        <ele>660</ele>
        <time>2016-12-11T08:21:09Z</time>
      </trkpt>
      <trkpt lat="46.14025" lon="1.86076">
        <ele>660</ele>
        <time>2016-12-11T08:23:09Z</time>
      </trkpt>
      <trkpt lat="46.14025" lon="1.86072">
        <ele>660</ele>
        <time>2016-12-11T08:25:09Z</time>
      </trkpt>
      <trkpt lat="46.14025" lon="1.86068">
        <ele>660</ele>
        <time>2016-12-11T08:27:09Z</time>
      </trkpt>
      <trkpt lat="46.14025" lon="1.86059">
        <ele>660</ele>
        <time>2016-12-11T08:29:09Z</time>
      </trkpt>
      <trkpt lat="46.14025" lon="1.86055">
        <ele>660</ele>
        <time>2016-12-11T08:31:09Z</time>
      </trkpt>
      <trkpt lat="46.14025" lon="1.86051">
        <ele>660</ele>
        <time>2016-12-11T08:33:09Z</time>
      </trkpt>
      <trkpt lat="46.14025" lon="1.86048">
        <ele>660</ele>
        <time>2016-12-11T08:35:09Z</time>
      </trkpt>
      <trkpt lat="46.14025" lon="1.86044">
        <ele>660</ele>
        <time>2016-12-11T08:37:09Z</time>
      </trkpt>
      <trkpt lat="46.14025" lon="1.8604">
        <ele>660</ele>
        <time>2016-12-11T08:39:09Z</time>
      </trkpt>
      <trkpt lat="46.14026" lon="1.86035">
        <ele>660</ele>
        <time>2016-12-11T08:41:09Z</time>
      </trkpt>
      <trkpt lat="46.14026" lon="1.86031">
        <ele>660</ele>
        <time>2016-12-11T08:43:09Z</time>
      </trkpt>
      <trkpt lat="46.14027" lon="1.86022">
        <ele>660</ele>
        <time>2016-12-11T08:45:09Z</time>
      </trkpt>
      <trkpt lat="46.14028" lon="1.86018">
        <ele>660</ele>
        <time>2016-12-11T08:47:09Z</time>
      </trkpt>
      <trkpt lat="46.14029" lon="1.86012">
        <ele>660</ele>
        <time>2016-12-11T08:49:09Z</time>
      </trkpt>
      <trkpt lat="46.14029" lon="1.86008">
        <ele>660</ele>
        <time>2016-12-11T08:51:09Z</time>
      </trkpt>
      <trkpt lat="46.1403" lon="1.86004">
        <ele>660</ele>
        <time>2016-12-11T08:53:09Z</time>
      </trkpt>
      <trkpt lat="46.1403" lon="1.85995">
        <ele>659</ele>
        <time>2016-12-11T08:55:09Z</time>
      </trkpt>
      <trkpt lat="46.1403" lon="1.8599">
        <ele>659</ele>
        <time>2016-12-11T08:57:09Z</time>
      </trkpt>
      <trkpt lat="46.14031" lon="1.85986">
        <ele>659</ele>
        <time>2016-12-11T08:59:09Z</time>
      </trkpt>
      <trkpt lat="46.14031" lon="1.85981">
        <ele>659</ele>
        <time>2016-12-11T09:01:09Z</time>
      </trkpt>
      <trkpt lat="46.1403" lon="1.85976">
        <ele>659</ele>
        <time>2016-12-11T09:03:09Z</time>
      </trkpt>
      <trkpt lat="46.1403" lon="1.85972">
        <ele>659</ele>
        <time>2016-12-11T09:05:09Z</time>
      </trkpt>
      <trkpt lat="46.14031" lon="1.85967">
        <ele>659</ele>
        <time>2016-12-11T09:07:09Z</time>
      </trkpt>
      <trkpt lat="46.14031" lon="1.85953">
        <ele>658</ele>
        <time>2016-12-11T09:09:09Z</time>
      </trkpt>
      <trkpt lat="46.14031" lon="1.85947">
        <ele>658</ele>
        <time>2016-12-11T09:11:09Z</time>
      </trkpt>
      <trkpt lat="46.14031" lon="1.85944">
        <ele>658</ele>
        <time>2016-12-11T09:13:09Z</time>
      </trkpt>
      <trkpt lat="46.1403" lon="1.85939">
        <ele>658</ele>
        <time>2016-12-11T09:15:09Z</time>
      </trkpt>
      <trkpt lat="46.14031" lon="1.85935">
        <ele>658</ele>
        <time>2016-12-11T09:17:09Z</time>
      </trkpt>
      <trkpt lat="46.14032" lon="1.85931">
        <ele>658</ele>
        <time>2016-12-11T09:19:09Z</time>
      </trkpt>
      <trkpt lat="46.14032" lon="1.85927">
        <ele>658</ele>
        <time>2016-12-11T09:21:09Z</time>
      </trkpt>
      <trkpt lat="46.14033" lon="1.85923">
        <ele>658</ele>
        <time>2016-12-11T09:23:09Z</time>
      </trkpt>
      <trkpt lat="46.14033" lon="1.85919">
        <ele>658</ele>
        <time>2016-12-11T09:25:09Z</time>
      </trkpt>
      <trkpt lat="46.14033" lon="1.85914">
        <ele>658</ele>
        <time>2016-12-11T09:27:09Z</time>
      </trkpt>
      <trkpt lat="46.14035" lon="1.85902">
        <ele>658</ele>
        <time>2016-12-11T09:29:09Z</time>
      </trkpt>
      <trkpt lat="46.14036" lon="1.85894">
        <ele>658</ele>
        <time>2016-12-11T09:31:09Z</time>
      </trkpt>
      <trkpt lat="46.14036" lon="1.8589">
        <ele>658</ele>
        <time>2016-12-11T09:33:09Z</time>
      </trkpt>
      <trkpt lat="46.14036" lon="1.85885">
        <ele>658</ele>
        <time>2016-12-11T09:35:09Z</time>
      </trkpt>
      <trkpt lat="46.14037" lon="1.85881">
        <ele>658</ele>
        <time>2016-12-11T09:37:09Z</time>
      </trkpt>
      <trkpt lat="46.14038" lon="1.85874">
        <ele>658</ele>
        <time>2016-12-11T09:39:09Z</time>
      </trkpt>
      <trkpt lat="46.14041" lon="1.85866">
        <ele>658</ele>
        <time>2016-12-11T09:41:09Z</time>
      </trkpt>
      <trkpt lat="46.14042" lon="1.85862">
        <ele>658</ele>
        <time>2016-12-11T09:43:09Z</time>
      </trkpt>
      <trkpt lat="46.14044" lon="1.85853">
        <ele>657</ele>
        <time>2016-12-11T09:45:09Z</time>
      </trkpt>
      <trkpt lat="46.14045" lon="1.85849">
        <ele>657</ele>
        <time>2016-12-11T09:47:09Z</time>
      </trkpt>
      <trkpt lat="46.14046" lon="1.85844">
        <ele>657</ele>
        <time>2016-12-11T09:49:09Z</time>
      </trkpt>
      <trkpt lat="46.14047" lon="1.8584">
        <ele>657</ele>
        <time>2016-12-11T09:51:09Z</time>
      </trkpt>
      <trkpt lat="46.14051" lon="1.85831">
        <ele>657</ele>
        <time>2016-12-11T09:53:09Z</time>
      </trkpt>
      <trkpt lat="46.14052" lon="1.85826">
        <ele>657</ele>
        <time>2016-12-11T09:55:09Z</time>
      </trkpt>
      <trkpt lat="46.14053" lon="1.85823">
        <ele>657</ele>
        <time>2016-12-11T09:57:09Z</time>
      </trkpt>
      <trkpt lat="46.14054" lon="1.85819">
        <ele>657</ele>
        <time>2016-12-11T09:59:09Z</time>
      </trkpt>
      <trkpt lat="46.14054" lon="1.85811">
        <ele>657</ele>
        <time>2016-12-11T10:01:09Z</time>
      </trkpt>
      <trkpt lat="46.14058" lon="1.85799">
        <ele>658</ele>
        <time>2016-12-11T10:03:09Z</time>
      </trkpt>
      <trkpt lat="46.14063" lon="1.85786">
        <ele>658</ele>
        <time>2016-12-11T10:05:09Z</time>
      </trkpt>
      <trkpt lat="46.14065" lon="1.85778">
        <ele>658</ele>
        <time>2016-12-11T10:07:09Z</time>
      </trkpt>
      <trkpt lat="46.14066" lon="1.85772">
        <ele>658</ele>
        <time>2016-12-11T10:09:09Z</time>
      </trkpt>
      <trkpt lat="46.14069" lon="1.85761">
        <ele>658</ele>
        <time>2016-12-11T10:11:09Z</time>
      </trkpt>
      <trkpt lat="46.1407" lon="1.85758">
        <ele>658</ele>
        <time>2016-12-11T10:13:09Z</time>
      </trkpt>
      <trkpt lat="46.14071" lon="1.85749">
        <ele>658</ele>
        <time>2016-12-11T10:15:09Z</time>
      </trkpt>
      <trkpt lat="46.14072" lon="1.85741">
        <ele>659</ele>
        <time>2016-12-11T10:17:09Z</time>
      </trkpt>
      <trkpt lat="46.14072" lon="1.85737">
        <ele>659</ele>
        <time>2016-12-11T10:19:09Z</time>
      </trkpt>
      <trkpt lat="46.14073" lon="1.85728">
        <ele>659</ele>
        <time>2016-12-11T10:21:09Z</time>
      </trkpt>
      <trkpt lat="46.14073" lon="1.85725">
        <ele>659</ele>
        <time>2016-12-11T10:23:09Z</time>
      </trkpt>
      <trkpt lat="46.14074" lon="1.85721">
        <ele>659</ele>
        <time>2016-12-11T10:25:09Z</time>
      </trkpt>
      <trkpt lat="46.14074" lon="1.85713">
        <ele>659</ele>
        <time>2016-12-11T10:27:09Z</time>
      </trkpt>
      <trkpt lat="46.14075" lon="1.85709">
        <ele>659</ele>
        <time>2016-12-11T10:29:09Z</time>
      </trkpt>
      <trkpt lat="46.14075" lon="1.85701">
        <ele>659</ele>
        <time>2016-12-11T10:31:09Z</time>
      </trkpt>
      <trkpt lat="46.14075" lon="1.85691">
        <ele>659</ele>
        <time>2016-12-11T10:33:09Z</time>
      </trkpt>
      <trkpt lat="46.14074" lon="1.85686">
        <ele>659</ele>
        <time>2016-12-11T10:35:09Z</time>
      </trkpt>
      <trkpt lat="46.14074" lon="1.85683">
        <ele>659</ele>
        <time>2016-12-11T10:37:09Z</time>
      </trkpt>
      <trkpt lat="46.14074" lon="1.8568">
        <ele>659</ele>
        <time>2016-12-11T10:39:09Z</time>
      </trkpt>
      <trkpt lat="46.14074" lon="1.85673">
        <ele>659</ele>
        <time>2016-12-11T10:41:09Z</time>
      </trkpt>
      <trkpt lat="46.14073" lon="1.85665">
        <ele>659</ele>
        <time>2016-12-11T10:43:09Z</time>
      </trkpt>
      <trkpt lat="46.14074" lon="1.85659">
        <ele>659</ele>
        <time>2016-12-11T10:45:09Z</time>
      </trkpt>
      <trkpt lat="46.14074" lon="1.85655">
        <ele>659</ele>
        <time>2016-12-11T10:47:09Z</time>
      </trkpt>
      <trkpt lat="46.14077" lon="1.8565">
        <ele>660</ele>
        <time>2016-12-11T10:49:09Z</time>
      </trkpt>
      <trkpt lat="46.14076" lon="1.85647">
        <ele>660</ele>
        <time>2016-12-11T10:51:09Z</time>
      </trkpt>
      <trkpt lat="46.14076" lon="1.85644">
        <ele>660</ele>
        <time>2016-12-11T10:53:09Z</time>
      </trkpt>
      <trkpt lat="46.14074" lon="1.85642">
        <ele>660</ele>
        <time>2016-12-11T10:55:09Z</time>
      </trkpt>
      <trkpt lat="46.14073" lon="1.85636">
        <ele>660</ele>
        <time>2016-12-11T10:57:09Z</time>
      </trkpt>
      <trkpt lat="46.14072" lon="1.85633">
        <ele>660</ele>
        <time>2016-12-11T10:59:09Z</time>
      </trkpt>
      <trkpt lat="46.1407" lon="1.85631">
        <ele>660</ele>
        <time>2016-12-11T11:01:09Z</time>
      </trkpt>
      <trkpt lat="46.14068" lon="1.8563">
        <ele>660</ele>
        <time>2016-12-11T11:03:09Z</time>
      </trkpt>
      <trkpt lat="46.14067" lon="1.85627">
        <ele>660</ele>
        <time>2016-12-11T11:05:09Z</time>
      </trkpt>
      <trkpt lat="46.14065" lon="1.85623">
        <ele>660</ele>
        <time>2016-12-11T11:07:09Z</time>
      </trkpt>
      <trkpt lat="46.14063" lon="1.85621">
        <ele>661</ele>
        <time>2016-12-11T11:09:09Z</time>
      </trkpt>
      <trkpt lat="46.14061" lon="1.85616">
        <ele>661</ele>
        <time>2016-12-11T11:11:09Z</time>
      </trkpt>
      <trkpt lat="46.1406" lon="1.85612">
        <ele>661</ele>
        <time>2016-12-11T11:13:09Z</time>
      </trkpt>
      <trkpt lat="46.14057" lon="1.8561">
        <ele>661</ele>
        <time>2016-12-11T11:15:09Z</time>
      </trkpt>
      <trkpt lat="46.14055" lon="1.85608">
        <ele>661</ele>
        <time>2016-12-11T11:17:09Z</time>
      </trkpt>
      <trkpt lat="46.14051" lon="1.85605">
        <ele>661</ele>
        <time>2016-12-11T11:19:09Z</time>
      </trkpt>
      <trkpt lat="46.14049" lon="1.85603">
        <ele>661</ele>
        <time>2016-12-11T11:21:09Z</time>
      </trkpt>
      <trkpt lat="46.14046" lon="1.85599">
        <ele>661</ele>
        <time>2016-12-11T11:23:09Z</time>
      </trkpt>
      <trkpt lat="46.14044" lon="1.85597">
        <ele>661</ele>
        <time>2016-12-11T11:25:09Z</time>
      </trkpt>
      <trkpt lat="46.14042" lon="1.85596">
        <ele>661</ele>
        <time>2016-12-11T11:27:09Z</time>
      </trkpt>
      <trkpt lat="46.14038" lon="1.85594">
        <ele>662</ele>
        <time>2016-12-11T11:29:09Z</time>
      </trkpt>
      <trkpt lat="46.14036" lon="1.85593">
        <ele>662</ele>
        <time>2016-12-11T11:31:09Z</time>
      </trkpt>
      <trkpt lat="46.14032" lon="1.85591">
        <ele>662</ele>
        <time>2016-12-11T11:33:09Z</time>
      </trkpt>
      <trkpt lat="46.1403" lon="1.85589">
        <ele>662</ele>
        <time>2016-12-11T11:35:09Z</time>
      </trkpt>
      <trkpt lat="46.14028" lon="1.85588">
        <ele>662</ele>
        <time>2016-12-11T11:37:09Z</time>
      </trkpt>
      <trkpt lat="46.14026" lon="1.85586">
        <ele>662</ele>
        <time>2016-12-11T11:39:09Z</time>
      </trkpt>
      <trkpt lat="46.14024" lon="1.85585">
        <ele>662</ele>
        <time>2016-12-11T11:41:09Z</time>
      </trkpt>
      <trkpt lat="46.14022" lon="1.85585">
        <ele>662</ele>
        <time>2016-12-11T11:43:09Z</time>
      </trkpt>
      <trkpt lat="46.1402" lon="1.85584">
        <ele>662</ele>
        <time>2016-12-11T11:45:09Z</time>
      </trkpt>
      <trkpt lat="46.14018" lon="1.8558">
        <ele>662</ele>
        <time>2016-12-11T11:47:09Z</time>
      </trkpt>
      <trkpt lat="46.14016" lon="1.85579">
        <ele>662</ele>
        <time>2016-12-11T11:49:09Z</time>
      </trkpt>
      <trkpt lat="46.14014" lon="1.85576">
        <ele>662</ele>
        <time>2016-12-11T11:51:09Z</time>
      </trkpt>
      <trkpt lat="46.14011" lon="1.85574">
        <ele>663</ele>
        <time>2016-12-11T11:53:09Z</time>
      </trkpt>
      <trkpt lat="46.1401" lon="1.85572">
        <ele>663</ele>
        <time>2016-12-11T11:55:09Z</time>
      </trkpt>
      <trkpt lat="46.14007" lon="1.85571">
        <ele>663</ele>
        <time>2016-12-11T11:57:09Z</time>
      </trkpt>
      <trkpt lat="46.14005" lon="1.85571">
        <ele>663</ele>
        <time>2016-12-11T11:59:09Z</time>
      </trkpt>
      <trkpt lat="46.14003" lon="1.8557">
        <ele>663</ele>
        <time>2016-12-11T12:01:09Z</time>
      </trkpt>
      <trkpt lat="46.14001" lon="1.85568">
        <ele>663</ele>
        <time>2016-12-11T12:03:09Z</time>
      </trkpt>
      <trkpt lat="46.13997" lon="1.85567">
        <ele>663</ele>
        <time>2016-12-11T12:05:09Z</time>
      </trkpt>
      <trkpt lat="46.13994" lon="1.85565">
        <ele>663</ele>
        <time>2016-12-11T12:07:09Z</time>
      </trkpt>
      <trkpt lat="46.13992" lon="1.85564">
        <ele>663</ele>
        <time>2016-12-11T12:09:09Z</time>
      </trkpt>
      <trkpt lat="46.1399" lon="1.85562">
        <ele>663</ele>
        <time>2016-12-11T12:11:09Z</time>
      </trkpt>
      <trkpt lat="46.13986" lon="1.85559">
        <ele>664</ele>
        <time>2016-12-11T12:13:09Z</time>
      </trkpt>
      <trkpt lat="46.13976" lon="1.85555">
        <ele>664</ele>
        <time>2016-12-11T12:15:09Z</time>
      </trkpt>
      <trkpt lat="46.13973" lon="1.85553">
        <ele>664</ele>
        <time>2016-12-11T12:17:09Z</time>
      </trkpt>
      <trkpt lat="46.13964" lon="1.8555">
        <ele>664</ele>
        <time>2016-12-11T12:19:09Z</time>
      </trkpt>
      <trkpt lat="46.13962" lon="1.85547">
        <ele>664</ele>
        <time>2016-12-11T12:21:09Z</time>
      </trkpt>
      <trkpt lat="46.13958" lon="1.85546">
        <ele>664</ele>
        <time>2016-12-11T12:23:09Z</time>
      </trkpt>
      <trkpt lat="46.13955" lon="1.85545">
        <ele>664</ele>
        <time>2016-12-11T12:25:09Z</time>
      </trkpt>
      <trkpt lat="46.13952" lon="1.85543">
        <ele>665</ele>
        <time>2016-12-11T12:27:09Z</time>
      </trkpt>
      <trkpt lat="46.13945" lon="1.8554">
        <ele>665</ele>
        <time>2016-12-11T12:29:09Z</time>
      </trkpt>
      <trkpt lat="46.13942" lon="1.85539">
        <ele>665</ele>
        <time>2016-12-11T12:31:09Z</time>
      </trkpt>
      <trkpt lat="46.13939" lon="1.85537">
        <ele>665</ele>
        <time>2016-12-11T12:33:09Z</time>
      </trkpt>
      <trkpt lat="46.13933" lon="1.85534">
        <ele>665</ele>
        <time>2016-12-11T12:35:09Z</time>
      </trkpt>
      <trkpt lat="46.1393" lon="1.85534">
        <ele>665</ele>
        <time>2016-12-11T12:37:09Z</time>
      </trkpt>
      <trkpt lat="46.13928" lon="1.85534">
        <ele>665</ele>
        <time>2016-12-11T12:39:09Z</time>
      </trkpt>
      <trkpt lat="46.13925" lon="1.85532">
        <ele>665</ele>
        <time>2016-12-11T12:41:09Z</time>
      </trkpt>
      <trkpt lat="46.13922" lon="1.85532">
        <ele>665</ele>
        <time>2016-12-11T12:43:09Z</time>
      </trkpt>
      <trkpt lat="46.13919" lon="1.85533">
        <ele>665</ele>
        <time>2016-12-11T12:45:09Z</time>
      </trkpt>
      <trkpt lat="46.13916" lon="1.85534">
        <ele>665</ele>
        <time>2016-12-11T12:47:09Z</time>
      </trkpt>
      <trkpt lat="46.13914" lon="1.85535">
        <ele>665</ele>
        <time>2016-12-11T12:49:09Z</time>
      </trkpt>
      <trkpt lat="46.13911" lon="1.85534">
        <ele>665</ele>
        <time>2016-12-11T12:51:09Z</time>
      </trkpt>
      <trkpt lat="46.13909" lon="1.85534">
        <ele>665</ele>
        <time>2016-12-11T12:53:09Z</time>
      </trkpt>
      <trkpt lat="46.13907" lon="1.85535">
        <ele>666</ele>
        <time>2016-12-11T12:55:09Z</time>
      </trkpt>
      <trkpt lat="46.13905" lon="1.85535">
        <ele>666</ele>
        <time>2016-12-11T12:57:09Z</time>
      </trkpt>
      <trkpt lat="46.13901" lon="1.85536">
        <ele>666</ele>
        <time>2016-12-11T12:59:09Z</time>
      </trkpt>
      <trkpt lat="46.13894" lon="1.85536">
        <ele>666</ele>
        <time>2016-12-11T13:01:09Z</time>
      </trkpt>
      <trkpt lat="46.13891" lon="1.85538">
        <ele>666</ele>
        <time>2016-12-11T13:03:09Z</time>
      </trkpt>
      <trkpt lat="46.13889" lon="1.85538">
        <ele>666</ele>
        <time>2016-12-11T13:05:09Z</time>
      </trkpt>
      <trkpt lat="46.13887" lon="1.85539">
        <ele>666</ele>
        <time>2016-12-11T13:07:09Z</time>
      </trkpt>
      <trkpt lat="46.13879" lon="1.85544">
        <ele>666</ele>
        <time>2016-12-11T13:09:09Z</time>
      </trkpt>
      <trkpt lat="46.13875" lon="1.85546">
        <ele>666</ele>
        <time>2016-12-11T13:11:09Z</time>
      </trkpt>
      <trkpt lat="46.13872" lon="1.85547">
        <ele>666</ele>
        <time>2016-12-11T13:13:09Z</time>
      </trkpt>
      <trkpt lat="46.13871" lon="1.85548">
        <ele>666</ele>
        <time>2016-12-11T13:15:09Z</time>
      </trkpt>
      <trkpt lat="46.13868" lon="1.85549">
        <ele>666</ele>
        <time>2016-12-11T13:17:09Z</time>
      </trkpt>
      <trkpt lat="46.13866" lon="1.85552">
        <ele>666</ele>
        <time>2016-12-11T13:19:09Z</time>
      </trkpt>
      <trkpt lat="46.13864" lon="1.85553">
        <ele>666</ele>
        <time>2016-12-11T13:21:09Z</time>
      </trkpt>
      <trkpt lat="46.13861" lon="1.85553">
        <ele>666</ele>
        <time>2016-12-11T13:23:09Z</time>
      </trkpt>
      <trkpt lat="46.13859" lon="1.85553">
        <ele>667</ele>
        <time>2016-12-11T13:25:09Z</time>
      </trkpt>
      <trkpt lat="46.13857" lon="1.85554">
        <ele>667</ele>
        <time>2016-12-11T13:27:09Z</time>
      </trkpt>
      <trkpt lat="46.13852" lon="1.85557">
        <ele>667</ele>
        <time>2016-12-11T13:29:09Z</time>
      </trkpt>
      <trkpt lat="46.1385" lon="1.85557">
        <ele>667</ele>
        <time>2016-12-11T13:31:09Z</time>
      </trkpt>
      <trkpt lat="46.13849" lon="1.85559">
        <ele>667</ele>
        <time>2016-12-11T13:33:09Z</time>
      </trkpt>
      <trkpt lat="46.13846" lon="1.85562">
        <ele>667</ele>
        <time>2016-12-11T13:35:09Z</time>
      </trkpt>
      <trkpt lat="46.13845" lon="1.85564">
        <ele>667</ele>
        <time>2016-12-11T13:37:09Z</time>
      </trkpt>
      <trkpt lat="46.13839" lon="1.85573">
        <ele>666</ele>
        <time>2016-12-11T13:39:09Z</time>
      </trkpt>
      <trkpt lat="46.13836" lon="1.8558">
        <ele>666</ele>
        <time>2016-12-11T13:41:09Z</time>
      </trkpt>
      <trkpt lat="46.13835" lon="1.85583">
        <ele>666</ele>
        <time>2016-12-11T13:43:09Z</time>
      </trkpt>
      <trkpt lat="46.13833" lon="1.85584">
        <ele>666</ele>
        <time>2016-12-11T13:45:09Z</time>
      </trkpt>
      <trkpt lat="46.13832" lon="1.85587">
        <ele>666</ele>
        <time>2016-12-11T13:47:09Z</time>
      </trkpt>
      <trkpt lat="46.1383" lon="1.85594">
        <ele>666</ele>
        <time>2016-12-11T13:49:09Z</time>
      </trkpt>
      <trkpt lat="46.1383" lon="1.85597">
        <ele>665</ele>
        <time>2016-12-11T13:51:09Z</time>
      </trkpt>
      <trkpt lat="46.13828" lon="1.85603">
        <ele>665</ele>
        <time>2016-12-11T13:53:09Z</time>
      </trkpt>
      <trkpt lat="46.13828" lon="1.85607">
        <ele>665</ele>
        <time>2016-12-11T13:55:09Z</time>
      </trkpt>
      <trkpt lat="46.13827" lon="1.85612">
        <ele>664</ele>
        <time>2016-12-11T13:57:09Z</time>
      </trkpt>
      <trkpt lat="46.13827" lon="1.85619">
        <ele>664</ele>
        <time>2016-12-11T13:59:09Z</time>
      </trkpt>
      <trkpt lat="46.13825" lon="1.85622">
        <ele>664</ele>
        <time>2016-12-11T14:01:09Z</time>
      </trkpt>
      <trkpt lat="46.13823" lon="1.85626">
        <ele>664</ele>
        <time>2016-12-11T14:03:09Z</time>
      </trkpt>
      <trkpt lat="46.13822" lon="1.85627">
        <ele>664</ele>
        <time>2016-12-11T14:05:09Z</time>
      </trkpt>
      <trkpt lat="46.13817" lon="1.8563">
        <ele>665</ele>
        <time>2016-12-11T14:07:09Z</time>
      </trkpt>
      <trkpt lat="46.13816" lon="1.85632">
        <ele>665</ele>
        <time>2016-12-11T14:09:09Z</time>
      </trkpt>
      <trkpt lat="46.13812" lon="1.85636">
        <ele>665</ele>
        <time>2016-12-11T14:11:09Z</time>
      </trkpt>
      <trkpt lat="46.13811" lon="1.85637">
        <ele>665</ele>
        <time>2016-12-11T14:13:09Z</time>
      </trkpt>
      <trkpt lat="46.13807" lon="1.8564">
        <ele>665</ele>
        <time>2016-12-11T14:15:09Z</time>
      </trkpt>
      <trkpt lat="46.13806" lon="1.85643">
        <ele>665</ele>
        <time>2016-12-11T14:17:09Z</time>
      </trkpt>
      <trkpt lat="46.13804" lon="1.85647">
        <ele>666</ele>
        <time>2016-12-11T14:19:09Z</time>
      </trkpt>
      <trkpt lat="46.13803" lon="1.85651">
        <ele>665</ele>
        <time>2016-12-11T14:21:09Z</time>
      </trkpt>
      <trkpt lat="46.13802" lon="1.85655">
        <ele>665</ele>
        <time>2016-12-11T14:23:09Z</time>
      </trkpt>
      <trkpt lat="46.13802" lon="1.85658">
        <ele>665</ele>
        <time>2016-12-11T14:25:09Z</time>
      </trkpt>
      <trkpt lat="46.13801" lon="1.85665">
        <ele>665</ele>
        <time>2016-12-11T14:27:09Z</time>
      </trkpt>
      <trkpt lat="46.138" lon="1.85669">
        <ele>665</ele>
        <time>2016-12-11T14:29:09Z</time>
      </trkpt>
      <trkpt lat="46.13796" lon="1.85676">
        <ele>665</ele>
        <time>2016-12-11T14:31:09Z</time>
      </trkpt>
      <trkpt lat="46.13794" lon="1.85679">
        <ele>665</ele>
        <time>2016-12-11T14:33:09Z</time>
      </trkpt>
      <trkpt lat="46.13794" lon="1.85683">
        <ele>665</ele>
        <time>2016-12-11T14:35:09Z</time>
      </trkpt>
      <trkpt lat="46.13794" lon="1.85691">
        <ele>665</ele>
        <time>2016-12-11T14:37:09Z</time>
      </trkpt>
      <trkpt lat="46.13793" lon="1.85695">
        <ele>665</ele>
        <time>2016-12-11T14:39:09Z</time>
      </trkpt>
      <trkpt lat="46.13792" lon="1.85701">
        <ele>665</ele>
        <time>2016-12-11T14:41:09Z</time>
      </trkpt>
      <trkpt lat="46.13791" lon="1.85704">
        <ele>665</ele>
        <time>2016-12-11T14:43:09Z</time>
      </trkpt>
      <trkpt lat="46.13788" lon="1.85709">
        <ele>665</ele>
        <time>2016-12-11T14:45:09Z</time>
      </trkpt>
      <trkpt lat="46.13785" lon="1.85711">
        <ele>665</ele>
        <time>2016-12-11T14:47:09Z</time>
      </trkpt>
      <trkpt lat="46.13779" lon="1.85718">
        <ele>666</ele>
        <time>2016-12-11T14:49:09Z</time>
      </trkpt>
      <trkpt lat="46.13776" lon="1.85721">
        <ele>667</ele>
        <time>2016-12-11T14:51:09Z</time>
      </trkpt>
      <trkpt lat="46.13777" lon="1.85726">
        <ele>666</ele>
        <time>2016-12-11T14:53:09Z</time>
      </trkpt>
      <trkpt lat="46.13776" lon="1.85729">
        <ele>666</ele>
        <time>2016-12-11T14:55:09Z</time>
      </trkpt>
      <trkpt lat="46.1377" lon="1.85737">
        <ele>667</ele>
        <time>2016-12-11T14:57:09Z</time>
      </trkpt>
      <trkpt lat="46.13767" lon="1.85741">
        <ele>667</ele>
        <time>2016-12-11T14:59:09Z</time>
      </trkpt>
      <trkpt lat="46.13762" lon="1.85749">
        <ele>668</ele>
        <time>2016-12-11T15:01:09Z</time>
      </trkpt>
      <trkpt lat="46.13757" lon="1.85753">
        <ele>668</ele>
        <time>2016-12-11T15:03:09Z</time>
      </trkpt>
      <trkpt lat="46.13754" lon="1.85755">
        <ele>669</ele>
        <time>2016-12-11T15:05:09Z</time>
      </trkpt>
      <trkpt lat="46.13751" lon="1.85755">
        <ele>670</ele>
        <time>2016-12-11T15:07:09Z</time>
      </trkpt>
      <trkpt lat="46.13745" lon="1.85754">
        <ele>670</ele>
        <time>2016-12-11T15:09:09Z</time>
      </trkpt>
      <trkpt lat="46.13735" lon="1.85753">
        <ele>671</ele>
        <time>2016-12-11T15:11:09Z</time>
      </trkpt>
      <trkpt lat="46.13733" lon="1.85752">
        <ele>671</ele>
        <time>2016-12-11T15:13:09Z</time>
      </trkpt>
      <trkpt lat="46.13729" lon="1.85753">
        <ele>672</ele>
        <time>2016-12-11T15:15:09Z</time>
      </trkpt>
      <trkpt lat="46.13723" lon="1.85752">
        <ele>672</ele>
        <time>2016-12-11T15:17:09Z</time>
      </trkpt>
      <trkpt lat="46.1372" lon="1.85751">
        <ele>672</ele>
        <time>2016-12-11T15:19:09Z</time>
      </trkpt>
      <trkpt lat="46.13719" lon="1.85751">
        <ele>673</ele>
        <time>2016-12-11T15:21:09Z</time>
      </trkpt>
      <trkpt lat="46.13715" lon="1.85752">
        <ele>673</ele>
        <time>2016-12-11T15:23:09Z</time>
      </trkpt>
      <trkpt lat="46.13712" lon="1.85753">
        <ele>673</ele>
        <time>2016-12-11T15:25:09Z</time>
      </trkpt>
      <trkpt lat="46.13711" lon="1.85755">
        <ele>673</ele>
        <time>2016-12-11T15:27:09Z</time>
      </trkpt>
      <trkpt lat="46.1371" lon="1.85758">
        <ele>673</ele>
        <time>2016-12-11T15:29:09Z</time>
      </trkpt>
      <trkpt lat="46.13712" lon="1.8577">
        <ele>673</ele>
        <time>2016-12-11T15:31:09Z</time>
      </trkpt>
      <trkpt lat="46.13713" lon="1.85786">
        <ele>672</ele>
        <time>2016-12-11T15:33:09Z</time>
      </trkpt>
      <trkpt lat="46.13713" lon="1.85798">
        <ele>672</ele>
        <time>2016-12-11T15:35:09Z</time>
      </trkpt>
      <trkpt lat="46.13714" lon="1.85801">
        <ele>671</ele>
        <time>2016-12-11T15:37:09Z</time>
      </trkpt>
      <trkpt lat="46.13714" lon="1.85809">
        <ele>671</ele>
        <time>2016-12-11T15:39:09Z</time>
      </trkpt>
      <trkpt lat="46.13715" lon="1.85812">
        <ele>671</ele>
        <time>2016-12-11T15:41:09Z</time>
      </trkpt>
      <trkpt lat="46.13715" lon="1.85815">
        <ele>671</ele>
        <time>2016-12-11T15:43:09Z</time>
      </trkpt>
      <trkpt lat="46.13715" lon="1.85818">
        <ele>671</ele>
        <time>2016-12-11T15:45:09Z</time>
      </trkpt>
      <trkpt lat="46.13717" lon="1.85822">
        <ele>670</ele>
        <time>2016-12-11T15:47:09Z</time>
      </trkpt>
      <trkpt lat="46.13717" lon="1.85827">
        <ele>670</ele>
        <time>2016-12-11T15:49:09Z</time>
      </trkpt>
      <trkpt lat="46.13718" lon="1.8583">
        <ele>670</ele>
        <time>2016-12-11T15:51:09Z</time>
      </trkpt>
      <trkpt lat="46.13722" lon="1.85835">
        <ele>669</ele>
        <time>2016-12-11T15:53:09Z</time>
      </trkpt>
      <trkpt lat="46.13724" lon="1.85839">
        <ele>669</ele>
        <time>2016-12-11T15:55:09Z</time>
      </trkpt>
      <trkpt lat="46.13725" lon="1.85842">
        <ele>668</ele>
        <time>2016-12-11T15:57:09Z</time>
      </trkpt>
      <trkpt lat="46.13726" lon="1.85849">
        <ele>668</ele>
        <time>2016-12-11T15:59:09Z</time>
      </trkpt>
      <trkpt lat="46.13725" lon="1.85853">
        <ele>668</ele>
        <time>2016-12-11T16:01:09Z</time>
      </trkpt>
      <trkpt lat="46.13726" lon="1.85861">
        <ele>667</ele>
        <time>2016-12-11T16:03:09Z</time>
      </trkpt>
      <trkpt lat="46.13725" lon="1.85865">
        <ele>667</ele>
        <time>2016-12-11T16:05:09Z</time>
      </trkpt>
      <trkpt lat="46.13726" lon="1.85868">
        <ele>667</ele>
        <time>2016-12-11T16:07:09Z</time>
      </trkpt>
      <trkpt lat="46.13726" lon="1.85872">
        <ele>667</ele>
        <time>2016-12-11T16:09:09Z</time>
      </trkpt>
      <trkpt lat="46.13727" lon="1.85879">
        <ele>666</ele>
        <time>2016-12-11T16:11:09Z</time>
      </trkpt>
      <trkpt lat="46.13726" lon="1.8589">
        <ele>666</ele>
        <time>2016-12-11T16:13:09Z</time>
      </trkpt>
      <trkpt lat="46.13727" lon="1.85893">
        <ele>666</ele>
        <time>2016-12-11T16:15:09Z</time>
      </trkpt>
      <trkpt lat="46.13727" lon="1.85899">
        <ele>666</ele>
        <time>2016-12-11T16:17:09Z</time>
      </trkpt>
      <trkpt lat="46.13728" lon="1.85903">
        <ele>665</ele>
        <time>2016-12-11T16:19:09Z</time>
      </trkpt>
      <trkpt lat="46.13728" lon="1.85907">
        <ele>665</ele>
        <time>2016-12-11T16:21:09Z</time>
      </trkpt>
      <trkpt lat="46.13729" lon="1.85911">
        <ele>665</ele>
        <time>2016-12-11T16:23:09Z</time>
      </trkpt>
      <trkpt lat="46.13731" lon="1.85918">
        <ele>664</ele>
        <time>2016-12-11T16:25:09Z</time>
      </trkpt>
      <trkpt lat="46.13732" lon="1.85921">
        <ele>664</ele>
        <time>2016-12-11T16:27:09Z</time>
      </trkpt>
      <trkpt lat="46.13737" lon="1.85929">
        <ele>663</ele>
        <time>2016-12-11T16:29:09Z</time>
      </trkpt>
      <trkpt lat="46.13739" lon="1.85932">
        <ele>663</ele>
        <time>2016-12-11T16:31:09Z</time>
      </trkpt>
      <trkpt lat="46.13739" lon="1.85936">
        <ele>663</ele>
        <time>2016-12-11T16:33:09Z</time>
      </trkpt>
      <trkpt lat="46.13739" lon="1.85939">
        <ele>663</ele>
        <time>2016-12-11T16:35:09Z</time>
      </trkpt>
      <trkpt lat="46.13742" lon="1.85941">
        <ele>662</ele>
        <time>2016-12-11T16:37:09Z</time>
      </trkpt>
      <trkpt lat="46.13743" lon="1.85943">
        <ele>662</ele>
        <time>2016-12-11T16:39:09Z</time>
      </trkpt>
      <trkpt lat="46.13746" lon="1.85949">
        <ele>662</ele>
        <time>2016-12-11T16:41:09Z</time>
      </trkpt>
      <trkpt lat="46.13747" lon="1.85956">
        <ele>661</ele>
        <time>2016-12-11T16:43:09Z</time>
      </trkpt>
      <trkpt lat="46.13748" lon="1.85961">
        <ele>661</ele>
        <time>2016-12-11T16:45:09Z</time>
      </trkpt>
      <trkpt lat="46.13748" lon="1.85964">
        <ele>661</ele>
        <time>2016-12-11T16:47:09Z</time>
      </trkpt>
      <trkpt lat="46.13748" lon="1.85967">
        <ele>661</ele>
        <time>2016-12-11T16:49:09Z</time>
      </trkpt>
      <trkpt lat="46.13749" lon="1.85976">
        <ele>661</ele>
        <time>2016-12-11T16:51:09Z</time>
      </trkpt>
      <trkpt lat="46.13752" lon="1.85983">
        <ele>661</ele>
        <time>2016-12-11T16:53:09Z</time>
      </trkpt>
      <trkpt lat="46.13753" lon="1.85986">
        <ele>661</ele>
        <time>2016-12-11T16:55:09Z</time>
      </trkpt>
      <trkpt lat="46.13753" lon="1.85991">
        <ele>661</ele>
        <time>2016-12-11T16:57:09Z</time>
      </trkpt>
      <trkpt lat="46.13752" lon="1.85996">
        <ele>661</ele>
        <time>2016-12-11T16:59:09Z</time>
      </trkpt>
      <trkpt lat="46.13752" lon="1.85997">
        <ele>661</ele>
        <time>2016-12-11T17:01:09Z</time>
      </trkpt>
      <trkpt lat="46.13752" lon="1.86002">
        <ele>661</ele>
        <time>2016-12-11T17:03:09Z</time>
      </trkpt>
      <trkpt lat="46.13751" lon="1.86011">
        <ele>661</ele>
        <time>2016-12-11T17:05:09Z</time>
      </trkpt>
      <trkpt lat="46.13753" lon="1.86012">
        <ele>660</ele>
        <time>2016-12-11T17:07:09Z</time>
      </trkpt>
      <trkpt lat="46.13753" lon="1.86014">
        <ele>660</ele>
        <time>2016-12-11T17:09:09Z</time>
      </trkpt>
      <trkpt lat="46.13754" lon="1.86016">
        <ele>660</ele>
        <time>2016-12-11T17:11:09Z</time>
      </trkpt>
      <trkpt lat="46.13755" lon="1.86018">
        <ele>660</ele>
        <time>2016-12-11T17:13:09Z</time>
      </trkpt>
      <trkpt lat="46.13759" lon="1.86033">
        <ele>659</ele>
        <time>2016-12-11T17:15:09Z</time>
      </trkpt>
      <trkpt lat="46.13759" lon="1.86036">
        <ele>659</ele>
        <time>2016-12-11T17:17:09Z</time>
      </trkpt>
      <trkpt lat="46.13756" lon="1.8604">
        <ele>660</ele>
        <time>2016-12-11T17:19:09Z</time>
      </trkpt>
      <trkpt lat="46.13751" lon="1.86043">
        <ele>661</ele>
        <time>2016-12-11T17:21:09Z</time>
      </trkpt>
      <trkpt lat="46.13749" lon="1.86046">
        <ele>661</ele>
        <time>2016-12-11T17:23:09Z</time>
      </trkpt>
      <trkpt lat="46.13748" lon="1.86047">
        <ele>661</ele>
        <time>2016-12-11T17:25:09Z</time>
      </trkpt>
      <trkpt lat="46.13747" lon="1.86048">
        <ele>661</ele>
        <time>2016-12-11T17:27:09Z</time>
      </trkpt>
      <trkpt lat="46.13746" lon="1.86048">
        <ele>662</ele>
        <time>2016-12-11T17:29:09Z</time>
      </trkpt>
      <trkpt lat="46.13746" lon="1.86052">
        <ele>662</ele>
        <time>2016-12-11T17:31:09Z</time>
      </trkpt>
      <trkpt lat="46.13745" lon="1.86054">
        <ele>662</ele>
        <time>2016-12-11T17:33:09Z</time>
      </trkpt>
      <trkpt lat="46.13745" lon="1.86057">
        <ele>662</ele>
        <time>2016-12-11T17:35:09Z</time>
      </trkpt>
      <trkpt lat="46.13745" lon="1.86056">
        <ele>662</ele>
        <time>2016-12-11T17:37:09Z</time>
      </trkpt>
      <trkpt lat="46.13745" lon="1.86056">
        <ele>662</ele>
        <time>2016-12-11T17:39:09Z</time>
      </trkpt>
      <trkpt lat="46.13745" lon="1.86056">
        <ele>662</ele>
        <time>2016-12-11T17:41:09Z</time>
      </trkpt>
      <trkpt lat="46.13745" lon="1.86058">
        <ele>662</ele>
        <time>2016-12-11T17:43:09Z</time>
      </trkpt>
      <trkpt lat="46.13744" lon="1.86058">
        <ele>662</ele>
        <time>2016-12-11T17:45:09Z</time>
      </trkpt>
      <trkpt lat="46.13745" lon="1.86058">
        <ele>662</ele>
        <time>2016-12-11T17:47:09Z</time>
      </trkpt>
      <trkpt lat="46.13745" lon="1.86058">
        <ele>662</ele>
        <time>2016-12-11T17:49:09Z</time>
      </trkpt>
      <trkpt lat="46.13745" lon="1.86059">
        <ele>662</ele>
        <time>2016-12-11T17:51:09Z</time>
      </trkpt>
      <trkpt lat="46.13745" lon="1.86057">
        <ele>662</ele>
        <time>2016-12-11T17:53:09Z</time>
      </trkpt>
      <trkpt lat="46.13741" lon="1.86061">
        <ele>662</ele>
        <time>2016-12-11T17:55:09Z</time>
      </trkpt>
      <trkpt lat="46.1374" lon="1.8606">
        <ele>662</ele>
        <time>2016-12-11T17:57:09Z</time>
      </trkpt>
      <trkpt lat="46.13739" lon="1.86061">
        <ele>663</ele>
        <time>2016-12-11T17:59:09Z</time>
      </trkpt>
      <trkpt lat="46.13737" lon="1.86062">
        <ele>663</ele>
        <time>2016-12-11T18:01:09Z</time>
      </trkpt>
      <trkpt lat="46.13735" lon="1.8606">
        <ele>663</ele>
        <time>2016-12-11T18:03:09Z</time>
      </trkpt>
      <trkpt lat="46.13734" lon="1.8606">
        <ele>663</ele>
        <time>2016-12-11T18:05:09Z</time>
      </trkpt>
      <trkpt lat="46.13731" lon="1.86063">
        <ele>664</ele>
        <time>2016-12-11T18:07:09Z</time>
      </trkpt>
      <trkpt lat="46.13731" lon="1.86062">
        <ele>664</ele>
        <time>2016-12-11T18:09:09Z</time>
      </trkpt>
      <trkpt lat="46.13729" lon="1.86063">
        <ele>664</ele>
        <time>2016-12-11T18:11:09Z</time>
      </trkpt>
      <trkpt lat="46.13728" lon="1.86064">
        <ele>664</ele>
        <time>2016-12-11T18:13:09Z</time>
      </trkpt>
      <trkpt lat="46.13728" lon="1.86064">
        <ele>664</ele>
        <time>2016-12-11T18:15:09Z</time>
      </trkpt>
      <trkpt lat="46.13729" lon="1.86064">
        <ele>664</ele>
        <time>2016-12-11T18:17:09Z</time>
      </trkpt>
      <trkpt lat="46.13728" lon="1.86065">
        <ele>664</ele>
        <time>2016-12-11T18:19:09Z</time>
      </trkpt>
      <trkpt lat="46.13729" lon="1.86062">
        <ele>664</ele>
        <time>2016-12-11T18:21:09Z</time>
      </trkpt>
      <trkpt lat="46.13728" lon="1.86065">
        <ele>664</ele>
        <time>2016-12-11T18:23:09Z</time>
      </trkpt>
      <trkpt lat="46.13729" lon="1.86064">
        <ele>664</ele>
        <time>2016-12-11T18:25:09Z</time>
      </trkpt>
      <trkpt lat="46.1373" lon="1.86064">
        <ele>664</ele>
        <time>2016-12-11T18:27:09Z</time>
      </trkpt>
      <trkpt lat="46.13731" lon="1.86065">
        <ele>664</ele>
        <time>2016-12-11T18:29:09Z</time>
      </trkpt>
      <trkpt lat="46.13729" lon="1.86065">
        <ele>664</ele>
        <time>2016-12-11T18:31:09Z</time>
      </trkpt>
      <trkpt lat="46.13731" lon="1.86063">
        <ele>664</ele>
        <time>2016-12-11T18:33:09Z</time>
      </trkpt>
      <trkpt lat="46.1373" lon="1.86064">
        <ele>664</ele>
        <time>2016-12-11T18:35:09Z</time>
      </trkpt>
      <trkpt lat="46.1373" lon="1.86064">
        <ele>664</ele>
        <time>2016-12-11T18:37:09Z</time>
      </trkpt>
      <trkpt lat="46.1373" lon="1.86064">
        <ele>664</ele>
        <time>2016-12-11T18:39:09Z</time>
      </trkpt>
      <trkpt lat="46.1373" lon="1.86064">
        <ele>664</ele>
        <time>2016-12-11T18:41:09Z</time>
      </trkpt>
      <trkpt lat="46.1373" lon="1.86064">
        <ele>664</ele>
        <time>2016-12-11T18:43:09Z</time>
      </trkpt>
      <trkpt lat="46.13732" lon="1.86066">
        <ele>664</ele>
        <time>2016-12-11T18:45:09Z</time>
      </trkpt>
      <trkpt lat="46.13732" lon="1.86066">
        <ele>664</ele>
        <time>2016-12-11T18:47:09Z</time>
      </trkpt>
      <trkpt lat="46.13731" lon="1.86066">
        <ele>664</ele>
        <time>2016-12-11T18:49:09Z</time>
      </trkpt>
      <trkpt lat="46.13732" lon="1.86066">
        <ele>664</ele>
        <time>2016-12-11T18:51:09Z</time>
      </trkpt>
      <trkpt lat="46.13733" lon="1.86065">
        <ele>663</ele>
        <time>2016-12-11T18:53:09Z</time>
      </trkpt>
      <trkpt lat="46.13732" lon="1.86065">
        <ele>664</ele>
        <time>2016-12-11T18:55:09Z</time>
      </trkpt>
      <trkpt lat="46.13733" lon="1.86065">
        <ele>663</ele>
        <time>2016-12-11T18:57:09Z</time>
      </trkpt>
      <trkpt lat="46.13733" lon="1.86066">
        <ele>663</ele>
        <time>2016-12-11T18:59:09Z</time>
      </trkpt>
      <trkpt lat="46.13733" lon="1.86065">
        <ele>663</ele>
        <time>2016-12-11T19:01:09Z</time>
      </trkpt>
      <trkpt lat="46.13733" lon="1.86066">
        <ele>663</ele>
        <time>2016-12-11T19:03:09Z</time>
      </trkpt>
      <trkpt lat="46.13732" lon="1.86066">
        <ele>664</ele>
        <time>2016-12-11T19:05:09Z</time>
      </trkpt>
      <trkpt lat="46.13732" lon="1.86066">
        <ele>664</ele>
        <time>2016-12-11T19:07:09Z</time>
      </trkpt>
      <trkpt lat="46.13732" lon="1.86065">
        <ele>664</ele>
        <time>2016-12-11T19:09:09Z</time>
      </trkpt>
      <trkpt lat="46.13732" lon="1.86066">
        <ele>664</ele>
        <time>2016-12-11T19:11:09Z</time>
      </trkpt>
      <trkpt lat="46.13732" lon="1.86067">
        <ele>664</ele>
        <time>2016-12-11T19:13:09Z</time>
      </trkpt>
      <trkpt lat="46.13733" lon="1.86067">
        <ele>663</ele>
        <time>2016-12-11T19:15:09Z</time>
      </trkpt>
      <trkpt lat="46.13733" lon="1.86066">
        <ele>663</ele>
        <time>2016-12-11T19:17:09Z</time>
      </trkpt>
      <trkpt lat="46.13733" lon="1.86066">
        <ele>663</ele>
        <time>2016-12-11T19:19:09Z</time>
      </trkpt>
      <trkpt lat="46.13732" lon="1.86067">
        <ele>664</ele>
        <time>2016-12-11T19:21:09Z</time>
      </trkpt>
      <trkpt lat="46.13733" lon="1.86066">
        <ele>663</ele>
        <time>2016-12-11T19:23:09Z</time>
      </trkpt>
      <trkpt lat="46.13734" lon="1.86064">
        <ele>663</ele>
        <time>2016-12-11T19:25:09Z</time>
      </trkpt>
      <trkpt lat="46.13734" lon="1.86066">
        <ele>663</ele>
        <time>2016-12-11T19:27:09Z</time>
      </trkpt>
      <trkpt lat="46.13734" lon="1.86066">
        <ele>663</ele>
        <time>2016-12-11T19:29:09Z</time>
      </trkpt>
      <trkpt lat="46.13733" lon="1.86067">
        <ele>663</ele>
        <time>2016-12-11T19:31:09Z</time>
      </trkpt>
      <trkpt lat="46.13732" lon="1.86068">
        <ele>664</ele>
        <time>2016-12-11T19:33:09Z</time>
      </trkpt>
      <trkpt lat="46.13733" lon="1.86066">
        <ele>663</ele>
        <time>2016-12-11T19:35:09Z</time>
      </trkpt>
      <trkpt lat="46.13731" lon="1.86063">
        <ele>664</ele>
        <time>2016-12-11T19:37:09Z</time>
      </trkpt>
      <trkpt lat="46.13731" lon="1.86063">
        <ele>664</ele>
        <time>2016-12-11T19:39:09Z</time>
      </trkpt>
      <trkpt lat="46.13731" lon="1.86063">
        <ele>664</ele>
        <time>2016-12-11T19:41:09Z</time>
      </trkpt>
      <trkpt lat="46.13731" lon="1.86063">
        <ele>664</ele>
        <time>2016-12-11T19:43:09Z</time>
      </trkpt>
      <trkpt lat="46.1373" lon="1.86064">
        <ele>664</ele>
        <time>2016-12-11T19:45:09Z</time>
      </trkpt>
      <trkpt lat="46.13731" lon="1.86063">
        <ele>664</ele>
        <time>2016-12-11T19:47:09Z</time>
      </trkpt>
      <trkpt lat="46.13733" lon="1.86062">
        <ele>664</ele>
        <time>2016-12-11T19:49:09Z</time>
      </trkpt>
      <trkpt lat="46.13731" lon="1.86063">
        <ele>664</ele>
        <time>2016-12-11T19:51:09Z</time>
      </trkpt>
      <trkpt lat="46.13733" lon="1.86061">
        <ele>664</ele>
        <time>2016-12-11T19:53:09Z</time>
      </trkpt>
      <trkpt lat="46.13736" lon="1.8606">
        <ele>663</ele>
        <time>2016-12-11T19:55:09Z</time>
      </trkpt>
      <trkpt lat="46.13731" lon="1.86063">
        <ele>664</ele>
        <time>2016-12-11T19:57:09Z</time>
      </trkpt>
      <trkpt lat="46.13733" lon="1.86061">
        <ele>664</ele>
        <time>2016-12-11T19:59:09Z</time>
      </trkpt>
      <trkpt lat="46.13733" lon="1.86061">
        <ele>664</ele>
        <time>2016-12-11T20:01:09Z</time>
      </trkpt>
      <trkpt lat="46.13733" lon="1.86061">
        <ele>664</ele>
        <time>2016-12-11T20:03:09Z</time>
      </trkpt>
      <trkpt lat="46.13733" lon="1.86061">
        <ele>664</ele>
        <time>2016-12-11T20:05:09Z</time>
      </trkpt>
      <trkpt lat="46.13734" lon="1.8606">
        <ele>663</ele>
        <time>2016-12-11T20:07:09Z</time>
      </trkpt>
      <trkpt lat="46.13735" lon="1.86061">
        <ele>663</ele>
        <time>2016-12-11T20:09:09Z</time>
      </trkpt>
      <trkpt lat="46.13734" lon="1.86061">
        <ele>663</ele>
        <time>2016-12-11T20:11:09Z</time>
      </trkpt>
      <trkpt lat="46.13735" lon="1.86061">
        <ele>663</ele>
        <time>2016-12-11T20:13:09Z</time>
      </trkpt>
      <trkpt lat="46.13735" lon="1.86061">
        <ele>663</ele>
        <time>2016-12-11T20:15:09Z</time>
      </trkpt>
      <trkpt lat="46.13734" lon="1.8606">
        <ele>663</ele>
        <time>2016-12-11T20:17:09Z</time>
      </trkpt>
      <trkpt lat="46.13735" lon="1.86064">
        <ele>663</ele>
        <time>2016-12-11T20:19:09Z</time>
      </trkpt>
      <trkpt lat="46.13733" lon="1.86066">
        <ele>663</ele>
        <time>2016-12-11T20:21:09Z</time>
      </trkpt>
      <trkpt lat="46.13733" lon="1.86065">
        <ele>663</ele>
        <time>2016-12-11T20:23:09Z</time>
      </trkpt>
      <trkpt lat="46.13733" lon="1.86066">
        <ele>663</ele>
        <time>2016-12-11T20:25:09Z</time>
      </trkpt>
      <trkpt lat="46.13733" lon="1.86065">
        <ele>663</ele>
        <time>2016-12-11T20:27:09Z</time>
      </trkpt>
      <trkpt lat="46.13732" lon="1.86066">
        <ele>664</ele>
        <time>2016-12-11T20:29:09Z</time>
      </trkpt>
      <trkpt lat="46.13733" lon="1.86067">
        <ele>663</ele>
        <time>2016-12-11T20:31:09Z</time>
      </trkpt>
      <trkpt lat="46.13733" lon="1.86065">
        <ele>663</ele>
        <time>2016-12-11T20:33:09Z</time>
      </trkpt>
      <trkpt lat="46.13731" lon="1.86067">
        <ele>664</ele>
        <time>2016-12-11T20:35:09Z</time>
      </trkpt>
      <trkpt lat="46.1373" lon="1.86068">
        <ele>664</ele>
        <time>2016-12-11T20:37:09Z</time>
      </trkpt>
      <trkpt lat="46.13726" lon="1.8607">
        <ele>665</ele>
        <time>2016-12-11T20:39:09Z</time>
      </trkpt>
      <trkpt lat="46.13726" lon="1.8607">
        <ele>665</ele>
        <time>2016-12-11T20:41:09Z</time>
      </trkpt>
      <trkpt lat="46.13726" lon="1.86071">
        <ele>664</ele>
        <time>2016-12-11T20:43:09Z</time>
      </trkpt>
      <trkpt lat="46.13725" lon="1.86071">
        <ele>665</ele>
        <time>2016-12-11T20:45:09Z</time>
      </trkpt>
      <trkpt lat="46.13725" lon="1.86072">
        <ele>665</ele>
        <time>2016-12-11T20:47:09Z</time>
      </trkpt>
      <trkpt lat="46.13725" lon="1.86073">
        <ele>665</ele>
        <time>2016-12-11T20:49:09Z</time>
      </trkpt>
      <trkpt lat="46.13726" lon="1.8607">
        <ele>665</ele>
        <time>2016-12-11T20:51:09Z</time>
      </trkpt>
      <trkpt lat="46.13724" lon="1.86071">
        <ele>665</ele>
        <time>2016-12-11T20:53:09Z</time>
      </trkpt>
      <trkpt lat="46.13724" lon="1.86071">
        <ele>665</ele>
        <time>2016-12-11T20:55:09Z</time>
      </trkpt>
      <trkpt lat="46.13724" lon="1.8607">
        <ele>665</ele>
        <time>2016-12-11T20:57:09Z</time>
      </trkpt>
      <trkpt lat="46.13724" lon="1.86069">
        <ele>665</ele>
        <time>2016-12-11T20:59:09Z</time>
      </trkpt>
      <trkpt lat="46.13724" lon="1.86071">
        <ele>665</ele>
        <time>2016-12-11T21:01:09Z</time>
      </trkpt>
      <trkpt lat="46.13723" lon="1.86077">
        <ele>665</ele>
        <time>2016-12-11T21:03:09Z</time>
      </trkpt>
      <trkpt lat="46.13723" lon="1.86073">
        <ele>665</ele>
        <time>2016-12-11T21:05:09Z</time>
      </trkpt>
      <trkpt lat="46.13723" lon="1.86072">
        <ele>665</ele>
        <time>2016-12-11T21:07:09Z</time>
      </trkpt>
      <trkpt lat="46.13722" lon="1.86076">
        <ele>665</ele>
        <time>2016-12-11T21:09:09Z</time>
      </trkpt>
      <trkpt lat="46.13726" lon="1.86074">
        <ele>664</ele>
        <time>2016-12-11T21:11:09Z</time>
      </trkpt>
      <trkpt lat="46.13722" lon="1.86073">
        <ele>665</ele>
        <time>2016-12-11T21:13:09Z</time>
      </trkpt>
      <trkpt lat="46.13724" lon="1.86072">
        <ele>665</ele>
        <time>2016-12-11T21:15:09Z</time>
      </trkpt>
      <trkpt lat="46.13725" lon="1.86073">
        <ele>665</ele>
        <time>2016-12-11T21:17:09Z</time>
      </trkpt>
      <trkpt lat="46.13725" lon="1.86068">
        <ele>665</ele>
        <time>2016-12-11T21:19:09Z</time>
      </trkpt>
      <trkpt lat="46.13723" lon="1.8607">
        <ele>665</ele>
        <time>2016-12-11T21:21:09Z</time>
      </trkpt>
      <trkpt lat="46.13724" lon="1.86073">
        <ele>665</ele>
        <time>2016-12-11T21:23:09Z</time>
      </trkpt>
      <trkpt lat="46.13718" lon="1.86076">
        <ele>666</ele>
        <time>2016-12-11T21:25:09Z</time>
      </trkpt>
      <trkpt lat="46.13719" lon="1.86076">
        <ele>665</ele>
        <time>2016-12-11T21:27:09Z</time>
      </trkpt>
      <trkpt lat="46.13718" lon="1.86076">
        <ele>666</ele>
        <time>2016-12-11T21:29:09Z</time>
      </trkpt>
      <trkpt lat="46.13719" lon="1.86075">
        <ele>666</ele>
        <time>2016-12-11T21:31:09Z</time>
      </trkpt>
      <trkpt lat="46.13719" lon="1.86075">
        <ele>666</ele>
        <time>2016-12-11T21:33:09Z</time>
      </trkpt>
      <trkpt lat="46.13719" lon="1.86075">
        <ele>666</ele>
        <time>2016-12-11T21:35:09Z</time>
      </trkpt>
      <trkpt lat="46.13719" lon="1.86074">
        <ele>666</ele>
        <time>2016-12-11T21:37:09Z</time>
      </trkpt>
      <trkpt lat="46.13719" lon="1.86075">
        <ele>666</ele>
        <time>2016-12-11T21:39:09Z</time>
      </trkpt>
      <trkpt lat="46.13719" lon="1.86073">
        <ele>666</ele>
        <time>2016-12-11T21:41:09Z</time>
      </trkpt>
      <trkpt lat="46.13719" lon="1.86074">
        <ele>666</ele>
        <time>2016-12-11T21:43:09Z</time>
      </trkpt>
      <trkpt lat="46.13719" lon="1.86073">
        <ele>666</ele>
        <time>2016-12-11T21:45:09Z</time>
      </trkpt>
      <trkpt lat="46.13719" lon="1.86074">
        <ele>666</ele>
        <time>2016-12-11T21:47:09Z</time>
      </trkpt>
      <trkpt lat="46.13719" lon="1.86074">
        <ele>666</ele>
        <time>2016-12-11T21:49:09Z</time>
      </trkpt>
      <trkpt lat="46.13718" lon="1.86075">
        <ele>666</ele>
        <time>2016-12-11T21:51:09Z</time>
      </trkpt>
      <trkpt lat="46.13718" lon="1.86074">
        <ele>666</ele>
        <time>2016-12-11T21:53:09Z</time>
      </trkpt>
      <trkpt lat="46.13719" lon="1.86075">
        <ele>666</ele>
        <time>2016-12-11T21:55:09Z</time>
      </trkpt>
      <trkpt lat="46.13718" lon="1.86075">
        <ele>666</ele>
        <time>2016-12-11T21:57:09Z</time>
      </trkpt>
      <trkpt lat="46.13719" lon="1.86074">
        <ele>666</ele>
        <time>2016-12-11T21:59:09Z</time>
      </trkpt>
      <trkpt lat="46.1372" lon="1.86073">
        <ele>665</ele>
        <time>2016-12-11T22:01:09Z</time>
      </trkpt>
      <trkpt lat="46.13719" lon="1.86074">
        <ele>666</ele>
        <time>2016-12-11T22:03:09Z</time>
      </trkpt>
      <trkpt lat="46.1372" lon="1.86073">
        <ele>665</ele>
        <time>2016-12-11T22:05:09Z</time>
      </trkpt>
      <trkpt lat="46.13719" lon="1.86074">
        <ele>666</ele>
        <time>2016-12-11T22:07:09Z</time>
      </trkpt>
      <trkpt lat="46.13717" lon="1.86076">
        <ele>666</ele>
        <time>2016-12-11T22:09:09Z</time>
      </trkpt>
      <trkpt lat="46.13719" lon="1.86075">
        <ele>666</ele>
        <time>2016-12-11T22:11:09Z</time>
      </trkpt>
      <trkpt lat="46.13718" lon="1.86068">
        <ele>666</ele>
        <time>2016-12-11T22:13:09Z</time>
      </trkpt>
      <trkpt lat="46.13723" lon="1.86073">
        <ele>665</ele>
        <time>2016-12-11T22:15:09Z</time>
      </trkpt>
      <trkpt lat="46.13723" lon="1.86073">
        <ele>665</ele>
        <time>2016-12-11T22:17:09Z</time>
      </trkpt>
      <trkpt lat="46.13724" lon="1.86073">
        <ele>665</ele>
        <time>2016-12-11T22:19:09Z</time>
      </trkpt>
      <trkpt lat="46.13719" lon="1.86071">
        <ele>666</ele>
        <time>2016-12-11T22:21:09Z</time>
      </trkpt>
      <trkpt lat="46.13719" lon="1.86071">
        <ele>666</ele>
        <time>2016-12-11T22:23:09Z</time>
      </trkpt>
      <trkpt lat="46.13719" lon="1.86071">
        <ele>666</ele>
        <time>2016-12-11T22:25:09Z</time>
      </trkpt>
      <trkpt lat="46.1372" lon="1.86071">
        <ele>665</ele>
        <time>2016-12-11T22:27:09Z</time>
      </trkpt>
      <trkpt lat="46.1372" lon="1.86071">
        <ele>665</ele>
        <time>2016-12-11T22:29:09Z</time>
      </trkpt>
      <trkpt lat="46.13718" lon="1.86071">
        <ele>666</ele>
        <time>2016-12-11T22:31:09Z</time>
      </trkpt>
      <trkpt lat="46.13719" lon="1.8607">
        <ele>666</ele>
        <time>2016-12-11T22:33:09Z</time>
      </trkpt>
      <trkpt lat="46.13719" lon="1.86072">
        <ele>666</ele>
        <time>2016-12-11T22:35:09Z</time>
      </trkpt>
      <trkpt lat="46.13719" lon="1.86073">
        <ele>666</ele>
        <time>2016-12-11T22:37:09Z</time>
      </trkpt>
      <trkpt lat="46.1372" lon="1.86073">
        <ele>665</ele>
        <time>2016-12-11T22:39:09Z</time>
      </trkpt>
      <trkpt lat="46.13719" lon="1.86074">
        <ele>666</ele>
        <time>2016-12-11T22:41:09Z</time>
      </trkpt>
      <trkpt lat="46.13719" lon="1.86073">
        <ele>666</ele>
        <time>2016-12-11T22:43:09Z</time>
      </trkpt>
      <trkpt lat="46.1372" lon="1.86074">
        <ele>665</ele>
        <time>2016-12-11T22:45:09Z</time>
      </trkpt>
      <trkpt lat="46.13721" lon="1.86073">
        <ele>665</ele>
        <time>2016-12-11T22:47:09Z</time>
      </trkpt>
      <trkpt lat="46.13721" lon="1.86074">
        <ele>665</ele>
        <time>2016-12-11T22:49:09Z</time>
      </trkpt>
      <trkpt lat="46.13721" lon="1.86072">
        <ele>665</ele>
        <time>2016-12-11T22:51:09Z</time>
      </trkpt>
      <trkpt lat="46.13719" lon="1.86075">
        <ele>666</ele>
        <time>2016-12-11T22:53:09Z</time>
      </trkpt>
      <trkpt lat="46.13721" lon="1.86073">
        <ele>665</ele>
        <time>2016-12-11T22:55:09Z</time>
      </trkpt>
      <trkpt lat="46.13722" lon="1.8607">
        <ele>665</ele>
        <time>2016-12-11T22:57:09Z</time>
      </trkpt>
      <trkpt lat="46.13739" lon="1.86073">
        <ele>663</ele>
        <time>2016-12-11T22:59:09Z</time>
      </trkpt>
      <trkpt lat="46.13742" lon="1.86072">
        <ele>662</ele>
        <time>2016-12-11T23:01:09Z</time>
      </trkpt>
      <trkpt lat="46.13742" lon="1.86077">
        <ele>662</ele>
        <time>2016-12-11T23:03:09Z</time>
      </trkpt>
      <trkpt lat="46.13743" lon="1.8608">
        <ele>662</ele>
        <time>2016-12-11T23:05:09Z</time>
      </trkpt>
      <trkpt lat="46.13743" lon="1.86084">
        <ele>662</ele>
        <time>2016-12-11T23:07:09Z</time>
      </trkpt>
      <trkpt lat="46.13742" lon="1.86089">
        <ele>662</ele>
        <time>2016-12-11T23:09:09Z</time>
      </trkpt>
      <trkpt lat="46.13743" lon="1.86099">
        <ele>661</ele>
        <time>2016-12-11T23:11:09Z</time>
      </trkpt>
      <trkpt lat="46.13741" lon="1.8611">
        <ele>661</ele>
        <time>2016-12-11T23:13:09Z</time>
      </trkpt>
      <trkpt lat="46.13741" lon="1.86114">
        <ele>661</ele>
        <time>2016-12-11T23:15:09Z</time>
      </trkpt>
      <trkpt lat="46.13741" lon="1.86117">
        <ele>661</ele>
        <time>2016-12-11T23:17:09Z</time>
      </trkpt>
      <trkpt lat="46.13743" lon="1.86124">
        <ele>660</ele>
        <time>2016-12-11T23:19:09Z</time>
      </trkpt>
      <trkpt lat="46.13744" lon="1.86127">
        <ele>660</ele>
        <time>2016-12-11T23:21:09Z</time>
      </trkpt>
      <trkpt lat="46.13748" lon="1.86133">
        <ele>659</ele>
        <time>2016-12-11T23:23:09Z</time>
      </trkpt>
      <trkpt lat="46.1375" lon="1.86135">
        <ele>659</ele>
        <time>2016-12-11T23:25:09Z</time>
      </trkpt>
      <trkpt lat="46.13755" lon="1.86141">
        <ele>657</ele>
        <time>2016-12-11T23:27:09Z</time>
      </trkpt>
      <trkpt lat="46.13755" lon="1.86144">
        <ele>657</ele>
        <time>2016-12-11T23:29:09Z</time>
      </trkpt>
      <trkpt lat="46.13755" lon="1.86147">
        <ele>657</ele>
        <time>2016-12-11T23:31:09Z</time>
      </trkpt>
      <trkpt lat="46.13754" lon="1.86151">
        <ele>657</ele>
        <time>2016-12-11T23:33:09Z</time>
      </trkpt>
      <trkpt lat="46.13752" lon="1.86156">
        <ele>657</ele>
        <time>2016-12-11T23:35:09Z</time>
      </trkpt>
      <trkpt lat="46.13752" lon="1.86159">
        <ele>657</ele>
        <time>2016-12-11T23:37:09Z</time>
      </trkpt>
      <trkpt lat="46.1375" lon="1.86164">
        <ele>657</ele>
        <time>2016-12-11T23:39:09Z</time>
      </trkpt>
      <trkpt lat="46.13749" lon="1.86169">
        <ele>657</ele>
        <time>2016-12-11T23:41:09Z</time>
      </trkpt>
      <trkpt lat="46.13749" lon="1.86175">
        <ele>656</ele>
        <time>2016-12-11T23:43:09Z</time>
      </trkpt>
      <trkpt lat="46.13749" lon="1.86179">
        <ele>655</ele>
        <time>2016-12-11T23:45:09Z</time>
      </trkpt>
      <trkpt lat="46.13747" lon="1.86185">
        <ele>655</ele>
        <time>2016-12-11T23:47:09Z</time>
      </trkpt>
      <trkpt lat="46.13746" lon="1.8619">
        <ele>654</ele>
        <time>2016-12-11T23:49:09Z</time>
      </trkpt>
      <trkpt lat="46.13746" lon="1.86193">
        <ele>654</ele>
        <time>2016-12-11T23:51:09Z</time>
      </trkpt>
      <trkpt lat="46.13744" lon="1.86198">
        <ele>653</ele>
        <time>2016-12-11T23:53:09Z</time>
      </trkpt>
      <trkpt lat="46.13743" lon="1.86201">
        <ele>653</ele>
        <time>2016-12-11T23:55:09Z</time>
      </trkpt>
      <trkpt lat="46.13741" lon="1.86208">
        <ele>652</ele>
        <time>2016-12-11T23:57:09Z</time>
      </trkpt>
      <trkpt lat="46.13741" lon="1.86213">
        <ele>652</ele>
        <time>2016-12-11T23:59:09Z</time>
      </trkpt>
      <trkpt lat="46.13741" lon="1.86215">
        <ele>651</ele>
        <time>2016-12-12T00:01:09Z</time>
      </trkpt>
      <trkpt lat="46.13741" lon="1.8622">
        <ele>651</ele>
        <time>2016-12-12T00:03:09Z</time>
      </trkpt>
      <trkpt lat="46.1374" lon="1.86227">
        <ele>650</ele>
        <time>2016-12-12T00:05:09Z</time>
      </trkpt>
      <trkpt lat="46.13739" lon="1.8623">
        <ele>650</ele>
        <time>2016-12-12T00:07:09Z</time>
      </trkpt>
      <trkpt lat="46.13737" lon="1.86235">
        <ele>649</ele>
        <time>2016-12-12T00:09:09Z</time>
      </trkpt>
      <trkpt lat="46.13736" lon="1.86244">
        <ele>648</ele>
        <time>2016-12-12T00:11:09Z</time>
      </trkpt>
      <trkpt lat="46.13737" lon="1.86247">
        <ele>648</ele>
        <time>2016-12-12T00:13:09Z</time>
      </trkpt>
      <trkpt lat="46.13736" lon="1.86253">
        <ele>647</ele>
        <time>2016-12-12T00:15:09Z</time>
      </trkpt>
      <trkpt lat="46.13737" lon="1.86263">
        <ele>646</ele>
        <time>2016-12-12T00:17:09Z</time>
      </trkpt>
      <trkpt lat="46.13738" lon="1.86267">
        <ele>645</ele>
        <time>2016-12-12T00:19:09Z</time>
      </trkpt>
      <trkpt lat="46.13739" lon="1.86272">
        <ele>644</ele>
        <time>2016-12-12T00:21:09Z</time>
      </trkpt>
      <trkpt lat="46.13737" lon="1.86274">
        <ele>644</ele>
        <time>2016-12-12T00:23:09Z</time>
      </trkpt>
      <trkpt lat="46.13736" lon="1.86277">
        <ele>644</ele>
        <time>2016-12-12T00:25:09Z</time>
      </trkpt>
      <trkpt lat="46.13734" lon="1.86276">
        <ele>644</ele>
        <time>2016-12-12T00:27:09Z</time>
      </trkpt>
      <trkpt lat="46.13731" lon="1.86276">
        <ele>645</ele>
        <time>2016-12-12T00:29:09Z</time>
      </trkpt>
      <trkpt lat="46.1373" lon="1.86277">
        <ele>645</ele>
        <time>2016-12-12T00:31:09Z</time>
      </trkpt>
      <trkpt lat="46.13729" lon="1.86276">
        <ele>645</ele>
        <time>2016-12-12T00:33:09Z</time>
      </trkpt>
      <trkpt lat="46.13727" lon="1.86277">
        <ele>645</ele>
        <time>2016-12-12T00:35:09Z</time>
      </trkpt>
      <trkpt lat="46.13725" lon="1.86276">
        <ele>646</ele>
        <time>2016-12-12T00:37:09Z</time>
      </trkpt>
      <trkpt lat="46.13724" lon="1.86277">
        <ele>646</ele>
        <time>2016-12-12T00:39:09Z</time>
      </trkpt>
      <trkpt lat="46.13725" lon="1.86277">
        <ele>645</ele>
        <time>2016-12-12T00:41:09Z</time>
      </trkpt>
      <trkpt lat="46.1372" lon="1.86278">
        <ele>646</ele>
        <time>2016-12-12T00:43:09Z</time>
      </trkpt>
      <trkpt lat="46.13719" lon="1.86279">
        <ele>646</ele>
        <time>2016-12-12T00:45:09Z</time>
      </trkpt>
      <trkpt lat="46.13716" lon="1.86282">
        <ele>646</ele>
        <time>2016-12-12T00:47:09Z</time>
      </trkpt>
      <trkpt lat="46.13714" lon="1.86282">
        <ele>646</ele>
        <time>2016-12-12T00:49:09Z</time>
      </trkpt>
      <trkpt lat="46.13711" lon="1.86283">
        <ele>647</ele>
        <time>2016-12-12T00:51:09Z</time>
      </trkpt>
      <trkpt lat="46.1371" lon="1.86283">
        <ele>647</ele>
        <time>2016-12-12T00:53:09Z</time>
      </trkpt>
      <trkpt lat="46.13706" lon="1.86282">
        <ele>648</ele>
        <time>2016-12-12T00:55:09Z</time>
      </trkpt>
      <trkpt lat="46.13704" lon="1.86281">
        <ele>648</ele>
        <time>2016-12-12T00:57:09Z</time>
      </trkpt>
      <trkpt lat="46.13702" lon="1.8628">
        <ele>648</ele>
        <time>2016-12-12T00:59:09Z</time>
      </trkpt>
      <trkpt lat="46.13701" lon="1.86279">
        <ele>649</ele>
        <time>2016-12-12T01:01:09Z</time>
      </trkpt>
      <trkpt lat="46.137" lon="1.8628">
        <ele>649</ele>
        <time>2016-12-12T01:03:09Z</time>
      </trkpt>
      <trkpt lat="46.13698" lon="1.86279">
        <ele>649</ele>
        <time>2016-12-12T01:05:09Z</time>
      </trkpt>
      <trkpt lat="46.13698" lon="1.86279">
        <ele>649</ele>
        <time>2016-12-12T01:07:09Z</time>
      </trkpt>
      <trkpt lat="46.13696" lon="1.86279">
        <ele>649</ele>
        <time>2016-12-12T01:09:09Z</time>
      </trkpt>
      <trkpt lat="46.13696" lon="1.86278">
        <ele>650</ele>
        <time>2016-12-12T01:11:09Z</time>
      </trkpt>
      <trkpt lat="46.13693" lon="1.86276">
        <ele>650</ele>
        <time>2016-12-12T01:13:09Z</time>
      </trkpt>
      <trkpt lat="46.13692" lon="1.86276">
        <ele>651</ele>
        <time>2016-12-12T01:15:09Z</time>
      </trkpt>
      <trkpt lat="46.1369" lon="1.86275">
        <ele>651</ele>
        <time>2016-12-12T01:17:09Z</time>
      </trkpt>
      <trkpt lat="46.13688" lon="1.86274">
        <ele>651</ele>
        <time>2016-12-12T01:19:09Z</time>
      </trkpt>
      <trkpt lat="46.13687" lon="1.86272">
        <ele>652</ele>
        <time>2016-12-12T01:21:09Z</time>
      </trkpt>
      <trkpt lat="46.13686" lon="1.86271">
        <ele>652</ele>
        <time>2016-12-12T01:23:09Z</time>
      </trkpt>
      <trkpt lat="46.13685" lon="1.86271">
        <ele>652</ele>
        <time>2016-12-12T01:25:09Z</time>
      </trkpt>
      <trkpt lat="46.13684" lon="1.86271">
        <ele>653</ele>
        <time>2016-12-12T01:27:09Z</time>
      </trkpt>
      <trkpt lat="46.13685" lon="1.86271">
        <ele>652</ele>
        <time>2016-12-12T01:29:09Z</time>
      </trkpt>
      <trkpt lat="46.13681" lon="1.8627">
        <ele>653</ele>
        <time>2016-12-12T01:31:09Z</time>
      </trkpt>
      <trkpt lat="46.13679" lon="1.8627">
        <ele>654</ele>
        <time>2016-12-12T01:33:09Z</time>
      </trkpt>
      <trkpt lat="46.13675" lon="1.8627">
        <ele>654</ele>
        <time>2016-12-12T01:35:09Z</time>
      </trkpt>
      <trkpt lat="46.13672" lon="1.8627">
        <ele>655</ele>
        <time>2016-12-12T01:37:09Z</time>
      </trkpt>
      <trkpt lat="46.13667" lon="1.86269">
        <ele>656</ele>
        <time>2016-12-12T01:39:09Z</time>
      </trkpt>
      <trkpt lat="46.13663" lon="1.8627">
        <ele>656</ele>
        <time>2016-12-12T01:41:09Z</time>
      </trkpt>
      <trkpt lat="46.13661" lon="1.86269">
        <ele>656</ele>
        <time>2016-12-12T01:43:09Z</time>
      </trkpt>
      <trkpt lat="46.13658" lon="1.8627">
        <ele>656</ele>
        <time>2016-12-12T01:45:09Z</time>
      </trkpt>
      <trkpt lat="46.13657" lon="1.86271">
        <ele>656</ele>
        <time>2016-12-12T01:47:09Z</time>
      </trkpt>
      <trkpt lat="46.13656" lon="1.86273">
        <ele>656</ele>
        <time>2016-12-12T01:49:09Z</time>
      </trkpt>
      <trkpt lat="46.13656" lon="1.86275">
        <ele>655</ele>
        <time>2016-12-12T01:51:09Z</time>
      </trkpt>
      <trkpt lat="46.13652" lon="1.86277">
        <ele>655</ele>
        <time>2016-12-12T01:53:09Z</time>
      </trkpt>
      <trkpt lat="46.1365" lon="1.86275">
        <ele>656</ele>
        <time>2016-12-12T01:55:09Z</time>
      </trkpt>
      <trkpt lat="46.13647" lon="1.86273">
        <ele>656</ele>
        <time>2016-12-12T01:57:09Z</time>
      </trkpt>
      <trkpt lat="46.13644" lon="1.86273">
        <ele>657</ele>
        <time>2016-12-12T01:59:09Z</time>
      </trkpt>
      <trkpt lat="46.13642" lon="1.86271">
        <ele>657</ele>
        <time>2016-12-12T02:01:09Z</time>
      </trkpt>
      <trkpt lat="46.13639" lon="1.86271">
        <ele>657</ele>
        <time>2016-12-12T02:03:09Z</time>
      </trkpt>
      <trkpt lat="46.13636" lon="1.8627">
        <ele>658</ele>
        <time>2016-12-12T02:05:09Z</time>
      </trkpt>
      <trkpt lat="46.13631" lon="1.8627">
        <ele>658</ele>
        <time>2016-12-12T02:07:09Z</time>
      </trkpt>
      <trkpt lat="46.13629" lon="1.86268">
        <ele>659</ele>
        <time>2016-12-12T02:09:09Z</time>
      </trkpt>
      <trkpt lat="46.13624" lon="1.86266">
        <ele>659</ele>
        <time>2016-12-12T02:11:09Z</time>
      </trkpt>
      <trkpt lat="46.13621" lon="1.86266">
        <ele>660</ele>
        <time>2016-12-12T02:13:09Z</time>
      </trkpt>
      <trkpt lat="46.13616" lon="1.86265">
        <ele>660</ele>
        <time>2016-12-12T02:15:09Z</time>
      </trkpt>
      <trkpt lat="46.13614" lon="1.86265">
        <ele>660</ele>
        <time>2016-12-12T02:17:09Z</time>
      </trkpt>
      <trkpt lat="46.13607" lon="1.86264">
        <ele>661</ele>
        <time>2016-12-12T02:19:09Z</time>
      </trkpt>
      <trkpt lat="46.13604" lon="1.86264">
        <ele>661</ele>
        <time>2016-12-12T02:21:09Z</time>
      </trkpt>
      <trkpt lat="46.13599" lon="1.86265">
        <ele>661</ele>
        <time>2016-12-12T02:23:09Z</time>
      </trkpt>
      <trkpt lat="46.13596" lon="1.86265">
        <ele>662</ele>
        <time>2016-12-12T02:25:09Z</time>
      </trkpt>
      <trkpt lat="46.13591" lon="1.86265">
        <ele>662</ele>
        <time>2016-12-12T02:27:09Z</time>
      </trkpt>
      <trkpt lat="46.13589" lon="1.86265">
        <ele>662</ele>
        <time>2016-12-12T02:29:09Z</time>
      </trkpt>
      <trkpt lat="46.13585" lon="1.86265">
        <ele>662</ele>
        <time>2016-12-12T02:31:09Z</time>
      </trkpt>
      <trkpt lat="46.13576" lon="1.86266">
        <ele>662</ele>
        <time>2016-12-12T02:33:09Z</time>
      </trkpt>
      <trkpt lat="46.13573" lon="1.86266">
        <ele>662</ele>
        <time>2016-12-12T02:35:09Z</time>
      </trkpt>
      <trkpt lat="46.13571" lon="1.86265">
        <ele>662</ele>
        <time>2016-12-12T02:37:09Z</time>
      </trkpt>
      <trkpt lat="46.13569" lon="1.86264">
        <ele>663</ele>
        <time>2016-12-12T02:39:09Z</time>
      </trkpt>
      <trkpt lat="46.13566" lon="1.86263">
        <ele>663</ele>
        <time>2016-12-12T02:41:09Z</time>
      </trkpt>
      <trkpt lat="46.13564" lon="1.86262">
        <ele>663</ele>
        <time>2016-12-12T02:43:09Z</time>
      </trkpt>
      <trkpt lat="46.13562" lon="1.86261">
        <ele>663</ele>
        <time>2016-12-12T02:45:09Z</time>
      </trkpt>
      <trkpt lat="46.13554" lon="1.86258">
        <ele>663</ele>
        <time>2016-12-12T02:47:09Z</time>
      </trkpt>
      <trkpt lat="46.13545" lon="1.86257">
        <ele>663</ele>
        <time>2016-12-12T02:49:09Z</time>
      </trkpt>
      <trkpt lat="46.13543" lon="1.86256">
        <ele>664</ele>
        <time>2016-12-12T02:51:09Z</time>
      </trkpt>
      <trkpt lat="46.13541" lon="1.86256">
        <ele>664</ele>
        <time>2016-12-12T02:53:09Z</time>
      </trkpt>
      <trkpt lat="46.13539" lon="1.86255">
        <ele>664</ele>
        <time>2016-12-12T02:55:09Z</time>
      </trkpt>
      <trkpt lat="46.13537" lon="1.86253">
        <ele>664</ele>
        <time>2016-12-12T02:57:09Z</time>
      </trkpt>
      <trkpt lat="46.13531" lon="1.86252">
        <ele>664</ele>
        <time>2016-12-12T02:59:09Z</time>
      </trkpt>
      <trkpt lat="46.13522" lon="1.86248">
        <ele>664</ele>
        <time>2016-12-12T03:01:09Z</time>
      </trkpt>
      <trkpt lat="46.13517" lon="1.86248">
        <ele>664</ele>
        <time>2016-12-12T03:03:09Z</time>
      </trkpt>
      <trkpt lat="46.13509" lon="1.86244">
        <ele>665</ele>
        <time>2016-12-12T03:05:09Z</time>
      </trkpt>
      <trkpt lat="46.13501" lon="1.86242">
        <ele>665</ele>
        <time>2016-12-12T03:07:09Z</time>
      </trkpt>
      <trkpt lat="46.13499" lon="1.86242">
        <ele>665</ele>
        <time>2016-12-12T03:09:09Z</time>
      </trkpt>
      <trkpt lat="46.13494" lon="1.86241">
        <ele>665</ele>
        <time>2016-12-12T03:11:09Z</time>
      </trkpt>
      <trkpt lat="46.13492" lon="1.86239">
        <ele>665</ele>
        <time>2016-12-12T03:13:09Z</time>
      </trkpt>
      <trkpt lat="46.13487" lon="1.86238">
        <ele>665</ele>
        <time>2016-12-12T03:15:09Z</time>
      </trkpt>
      <trkpt lat="46.13482" lon="1.86237">
        <ele>666</ele>
        <time>2016-12-12T03:17:09Z</time>
      </trkpt>
      <trkpt lat="46.1348" lon="1.86235">
        <ele>666</ele>
        <time>2016-12-12T03:19:09Z</time>
      </trkpt>
      <trkpt lat="46.13475" lon="1.86234">
        <ele>666</ele>
        <time>2016-12-12T03:21:09Z</time>
      </trkpt>
      <trkpt lat="46.13473" lon="1.86233">
        <ele>666</ele>
        <time>2016-12-12T03:23:09Z</time>
      </trkpt>
      <trkpt lat="46.13469" lon="1.86231">
        <ele>666</ele>
        <time>2016-12-12T03:25:09Z</time>
      </trkpt>
      <trkpt lat="46.13464" lon="1.86226">
        <ele>667</ele>
        <time>2016-12-12T03:27:09Z</time>
      </trkpt>
      <trkpt lat="46.1346" lon="1.86224">
        <ele>667</ele>
        <time>2016-12-12T03:29:09Z</time>
      </trkpt>
      <trkpt lat="46.13461" lon="1.86224">
        <ele>667</ele>
        <time>2016-12-12T03:31:09Z</time>
      </trkpt>
      <trkpt lat="46.1346" lon="1.86224">
        <ele>667</ele>
        <time>2016-12-12T03:33:09Z</time>
      </trkpt>
      <trkpt lat="46.1346" lon="1.86222">
        <ele>667</ele>
        <time>2016-12-12T03:35:09Z</time>
      </trkpt>
      <trkpt lat="46.1346" lon="1.86224">
        <ele>667</ele>
        <time>2016-12-12T03:37:09Z</time>
      </trkpt>
      <trkpt lat="46.13461" lon="1.86223">
        <ele>667</ele>
        <time>2016-12-12T03:39:09Z</time>
      </trkpt>
      <trkpt lat="46.1346" lon="1.86224">
        <ele>667</ele>
        <time>2016-12-12T03:41:09Z</time>
      </trkpt>
      <trkpt lat="46.1346" lon="1.86224">
        <ele>667</ele>
        <time>2016-12-12T03:43:09Z</time>
      </trkpt>
      <trkpt lat="46.13461" lon="1.86222">
        <ele>667</ele>
        <time>2016-12-12T03:45:09Z</time>
      </trkpt>
      <trkpt lat="46.1346" lon="1.86222">
        <ele>667</ele>
        <time>2016-12-12T03:47:09Z</time>
      </trkpt>
      <trkpt lat="46.13461" lon="1.86222">
        <ele>667</ele>
        <time>2016-12-12T03:49:09Z</time>
      </trkpt>
      <trkpt lat="46.1346" lon="1.86222">
        <ele>667</ele>
        <time>2016-12-12T03:51:09Z</time>
      </trkpt>
      <trkpt lat="46.1344" lon="1.86227">
        <ele>667</ele>
        <time>2016-12-12T03:53:09Z</time>
      </trkpt>
      <trkpt lat="46.13436" lon="1.86227">
        <ele>667</ele>
        <time>2016-12-12T03:55:09Z</time>
      </trkpt>
      <trkpt lat="46.13417" lon="1.86224">
        <ele>668</ele>
        <time>2016-12-12T03:57:09Z</time>
      </trkpt>
      <trkpt lat="46.13408" lon="1.86225">
        <ele>668</ele>
        <time>2016-12-12T03:59:09Z</time>
      </trkpt>
      <trkpt lat="46.13405" lon="1.86225">
        <ele>668</ele>
        <time>2016-12-12T04:01:09Z</time>
      </trkpt>
      <trkpt lat="46.13396" lon="1.86225">
        <ele>667</ele>
        <time>2016-12-12T04:03:09Z</time>
      </trkpt>
      <trkpt lat="46.13388" lon="1.86223">
        <ele>667</ele>
        <time>2016-12-12T04:05:09Z</time>
      </trkpt>
      <trkpt lat="46.13382" lon="1.86223">
        <ele>667</ele>
        <time>2016-12-12T04:07:09Z</time>
      </trkpt>
      <trkpt lat="46.13376" lon="1.86223">
        <ele>667</ele>
        <time>2016-12-12T04:09:09Z</time>
      </trkpt>
      <trkpt lat="46.13373" lon="1.86224">
        <ele>667</ele>
        <time>2016-12-12T04:11:09Z</time>
      </trkpt>
      <trkpt lat="46.13368" lon="1.86226">
        <ele>667</ele>
        <time>2016-12-12T04:13:09Z</time>
      </trkpt>
      <trkpt lat="46.13366" lon="1.86228">
        <ele>667</ele>
        <time>2016-12-12T04:15:09Z</time>
      </trkpt>
      <trkpt lat="46.13362" lon="1.86231">
        <ele>666</ele>
        <time>2016-12-12T04:17:09Z</time>
      </trkpt>
      <trkpt lat="46.13359" lon="1.86232">
        <ele>666</ele>
        <time>2016-12-12T04:19:09Z</time>
      </trkpt>
      <trkpt lat="46.1335" lon="1.86234">
        <ele>666</ele>
        <time>2016-12-12T04:21:09Z</time>
      </trkpt>
      <trkpt lat="46.13347" lon="1.86235">
        <ele>666</ele>
        <time>2016-12-12T04:23:09Z</time>
      </trkpt>
      <trkpt lat="46.13342" lon="1.86239">
        <ele>666</ele>
        <time>2016-12-12T04:25:09Z</time>
      </trkpt>
      <trkpt lat="46.13333" lon="1.8625">
        <ele>665</ele>
        <time>2016-12-12T04:27:09Z</time>
      </trkpt>
      <trkpt lat="46.1333" lon="1.86252">
        <ele>665</ele>
        <time>2016-12-12T04:29:09Z</time>
      </trkpt>
      <trkpt lat="46.13325" lon="1.86257">
        <ele>664</ele>
        <time>2016-12-12T04:31:09Z</time>
      </trkpt>
      <trkpt lat="46.13321" lon="1.86258">
        <ele>663</ele>
        <time>2016-12-12T04:33:09Z</time>
      </trkpt>
      <trkpt lat="46.13318" lon="1.86258">
        <ele>663</ele>
        <time>2016-12-12T04:35:09Z</time>
      </trkpt>
      <trkpt lat="46.13315" lon="1.86258">
        <ele>663</ele>
        <time>2016-12-12T04:37:09Z</time>
      </trkpt>
      <trkpt lat="46.13306" lon="1.86256">
        <ele>662</ele>
        <time>2016-12-12T04:39:09Z</time>
      </trkpt>
      <trkpt lat="46.1329" lon="1.86254">
        <ele>660</ele>
        <time>2016-12-12T04:41:09Z</time>
      </trkpt>
      <trkpt lat="46.13277" lon="1.86252">
        <ele>659</ele>
        <time>2016-12-12T04:43:09Z</time>
      </trkpt>
      <trkpt lat="46.13271" lon="1.86251">
        <ele>658</ele>
        <time>2016-12-12T04:45:09Z</time>
      </trkpt>
      <trkpt lat="46.13265" lon="1.86251">
        <ele>658</ele>
        <time>2016-12-12T04:47:09Z</time>
      </trkpt>
      <trkpt lat="46.13258" lon="1.86251">
        <ele>657</ele>
        <time>2016-12-12T04:49:09Z</time>
      </trkpt>
      <trkpt lat="46.13255" lon="1.86252">
        <ele>656</ele>
        <time>2016-12-12T04:51:09Z</time>
      </trkpt>
      <trkpt lat="46.1325" lon="1.86254">
        <ele>656</ele>
        <time>2016-12-12T04:53:09Z</time>
      </trkpt>
      <trkpt lat="46.13236" lon="1.86265">
        <ele>654</ele>
        <time>2016-12-12T04:55:09Z</time>
      </trkpt>
      <trkpt lat="46.13225" lon="1.86271">
        <ele>652</ele>
        <time>2016-12-12T04:57:09Z</time>
      </trkpt>
      <trkpt lat="46.1322" lon="1.86274">
        <ele>652</ele>
        <time>2016-12-12T04:59:09Z</time>
      </trkpt>
      <trkpt lat="46.13217" lon="1.86276">
        <ele>651</ele>
        <time>2016-12-12T05:01:09Z</time>
      </trkpt>
      <trkpt lat="46.13214" lon="1.86275">
        <ele>651</ele>
        <time>2016-12-12T05:03:09Z</time>
      </trkpt>
      <trkpt lat="46.13212" lon="1.86273">
        <ele>651</ele>
        <time>2016-12-12T05:05:09Z</time>
      </trkpt>
      <trkpt lat="46.13208" lon="1.86268">
        <ele>650</ele>
        <time>2016-12-12T05:07:09Z</time>
      </trkpt>
      <trkpt lat="46.13207" lon="1.86267">
        <ele>650</ele>
        <time>2016-12-12T05:09:09Z</time>
      </trkpt>
      <trkpt lat="46.13202" lon="1.86267">
        <ele>649</ele>
        <time>2016-12-12T05:11:09Z</time>
      </trkpt>
      <trkpt lat="46.13197" lon="1.86266">
        <ele>649</ele>
        <time>2016-12-12T05:13:09Z</time>
      </trkpt>
      <trkpt lat="46.13195" lon="1.86266">
        <ele>648</ele>
        <time>2016-12-12T05:15:09Z</time>
      </trkpt>
      <trkpt lat="46.1319" lon="1.86269">
        <ele>648</ele>
        <time>2016-12-12T05:17:09Z</time>
      </trkpt>
      <trkpt lat="46.13185" lon="1.86271">
        <ele>647</ele>
        <time>2016-12-12T05:19:09Z</time>
      </trkpt>
      <trkpt lat="46.13182" lon="1.86271">
        <ele>647</ele>
        <time>2016-12-12T05:21:09Z</time>
      </trkpt>
      <trkpt lat="46.13178" lon="1.86269">
        <ele>646</ele>
        <time>2016-12-12T05:23:09Z</time>
      </trkpt>
      <trkpt lat="46.13172" lon="1.86269">
        <ele>645</ele>
        <time>2016-12-12T05:25:09Z</time>
      </trkpt>
      <trkpt lat="46.13169" lon="1.86268">
        <ele>645</ele>
        <time>2016-12-12T05:27:09Z</time>
      </trkpt>
      <trkpt lat="46.13164" lon="1.86264">
        <ele>645</ele>
        <time>2016-12-12T05:29:09Z</time>
      </trkpt>
      <trkpt lat="46.13162" lon="1.86262">
        <ele>645</ele>
        <time>2016-12-12T05:31:09Z</time>
      </trkpt>
      <trkpt lat="46.1316" lon="1.86258">
        <ele>645</ele>
        <time>2016-12-12T05:33:09Z</time>
      </trkpt>
      <trkpt lat="46.13157" lon="1.86251">
        <ele>644</ele>
        <time>2016-12-12T05:35:09Z</time>
      </trkpt>
      <trkpt lat="46.13155" lon="1.86246">
        <ele>644</ele>
        <time>2016-12-12T05:37:09Z</time>
      </trkpt>
      <trkpt lat="46.13154" lon="1.86241">
        <ele>644</ele>
        <time>2016-12-12T05:39:09Z</time>
      </trkpt>
      <trkpt lat="46.13154" lon="1.86237">
        <ele>644</ele>
        <time>2016-12-12T05:41:09Z</time>
      </trkpt>
      <trkpt lat="46.13153" lon="1.86232">
        <ele>643</ele>
        <time>2016-12-12T05:43:09Z</time>
      </trkpt>
      <trkpt lat="46.13152" lon="1.86229">
        <ele>643</ele>
        <time>2016-12-12T05:45:09Z</time>
      </trkpt>
      <trkpt lat="46.1315" lon="1.86226">
        <ele>643</ele>
        <time>2016-12-12T05:47:09Z</time>
      </trkpt>
      <trkpt lat="46.13145" lon="1.8622">
        <ele>642</ele>
        <time>2016-12-12T05:49:09Z</time>
      </trkpt>
      <trkpt lat="46.13139" lon="1.86214">
        <ele>642</ele>
        <time>2016-12-12T05:51:09Z</time>
      </trkpt>
      <trkpt lat="46.1313" lon="1.86209">
        <ele>641</ele>
        <time>2016-12-12T05:53:09Z</time>
      </trkpt>
      <trkpt lat="46.13128" lon="1.86206">
        <ele>641</ele>
        <time>2016-12-12T05:55:09Z</time>
      </trkpt>
      <trkpt lat="46.13123" lon="1.86201">
        <ele>640</ele>
        <time>2016-12-12T05:57:09Z</time>
      </trkpt>
      <trkpt lat="46.13121" lon="1.86198">
        <ele>640</ele>
        <time>2016-12-12T05:59:09Z</time>
      </trkpt>
      <trkpt lat="46.1312" lon="1.86194">
        <ele>640</ele>
        <time>2016-12-12T06:01:09Z</time>
      </trkpt>
      <trkpt lat="46.13119" lon="1.86189">
        <ele>639</ele>
        <time>2016-12-12T06:03:09Z</time>
      </trkpt>
      <trkpt lat="46.13118" lon="1.86185">
        <ele>639</ele>
        <time>2016-12-12T06:05:09Z</time>
      </trkpt>
      <trkpt lat="46.13117" lon="1.86181">
        <ele>639</ele>
        <time>2016-12-12T06:07:09Z</time>
      </trkpt>
      <trkpt lat="46.13112" lon="1.86175">
        <ele>638</ele>
        <time>2016-12-12T06:09:09Z</time>
      </trkpt>
      <trkpt lat="46.13109" lon="1.86168">
        <ele>638</ele>
        <time>2016-12-12T06:11:09Z</time>
      </trkpt>
      <trkpt lat="46.13108" lon="1.86164">
        <ele>637</ele>
        <time>2016-12-12T06:13:09Z</time>
      </trkpt>
      <trkpt lat="46.13106" lon="1.86161">
        <ele>637</ele>
        <time>2016-12-12T06:15:09Z</time>
      </trkpt>
      <trkpt lat="46.13103" lon="1.86153">
        <ele>637</ele>
        <time>2016-12-12T06:17:09Z</time>
      </trkpt>
      <trkpt lat="46.13096" lon="1.86144">
        <ele>636</ele>
        <time>2016-12-12T06:19:09Z</time>
      </trkpt>
      <trkpt lat="46.13094" lon="1.86141">
        <ele>636</ele>
        <time>2016-12-12T06:21:09Z</time>
      </trkpt>
      <trkpt lat="46.13092" lon="1.86137">
        <ele>636</ele>
        <time>2016-12-12T06:23:09Z</time>
      </trkpt>
      <trkpt lat="46.1309" lon="1.86134">
        <ele>636</ele>
        <time>2016-12-12T06:25:09Z</time>
      </trkpt>
      <trkpt lat="46.13083" lon="1.86127">
        <ele>635</ele>
        <time>2016-12-12T06:27:09Z</time>
      </trkpt>
      <trkpt lat="46.13081" lon="1.86125">
        <ele>635</ele>
        <time>2016-12-12T06:29:09Z</time>
      </trkpt>
      <trkpt lat="46.13079" lon="1.86123">
        <ele>635</ele>
        <time>2016-12-12T06:31:09Z</time>
      </trkpt>
      <trkpt lat="46.13077" lon="1.86121">
        <ele>635</ele>
        <time>2016-12-12T06:33:09Z</time>
      </trkpt>
      <trkpt lat="46.13076" lon="1.86117">
        <ele>635</ele>
        <time>2016-12-12T06:35:09Z</time>
      </trkpt>
      <trkpt lat="46.13074" lon="1.86113">
        <ele>634</ele>
        <time>2016-12-12T06:37:09Z</time>
      </trkpt>
      <trkpt lat="46.13073" lon="1.86109">
        <ele>634</ele>
        <time>2016-12-12T06:39:09Z</time>
      </trkpt>
      <trkpt lat="46.13071" lon="1.86097">
        <ele>634</ele>
        <time>2016-12-12T06:41:09Z</time>
      </trkpt>
      <trkpt lat="46.13071" lon="1.86084">
        <ele>634</ele>
        <time>2016-12-12T06:43:09Z</time>
      </trkpt>
      <trkpt lat="46.1307" lon="1.86075">
        <ele>634</ele>
        <time>2016-12-12T06:45:09Z</time>
      </trkpt>
      <trkpt lat="46.13068" lon="1.86063">
        <ele>634</ele>
        <time>2016-12-12T06:47:09Z</time>
      </trkpt>
      <trkpt lat="46.13064" lon="1.86045">
        <ele>635</ele>
        <time>2016-12-12T06:49:09Z</time>
      </trkpt>
      <trkpt lat="46.13063" lon="1.86042">
        <ele>635</ele>
        <time>2016-12-12T06:51:09Z</time>
      </trkpt>
      <trkpt lat="46.13061" lon="1.86038">
        <ele>635</ele>
        <time>2016-12-12T06:53:09Z</time>
      </trkpt>
      <trkpt lat="46.13054" lon="1.86028">
        <ele>635</ele>
        <time>2016-12-12T06:55:09Z</time>
      </trkpt>
      <trkpt lat="46.13052" lon="1.86025">
        <ele>636</ele>
        <time>2016-12-12T06:57:09Z</time>
      </trkpt>
      <trkpt lat="46.13038" lon="1.86016">
        <ele>636</ele>
        <time>2016-12-12T06:59:09Z</time>
      </trkpt>
      <trkpt lat="46.13036" lon="1.86013">
        <ele>636</ele>
        <time>2016-12-12T07:01:09Z</time>
      </trkpt>
      <trkpt lat="46.13034" lon="1.86011">
        <ele>637</ele>
        <time>2016-12-12T07:03:09Z</time>
      </trkpt>
      <trkpt lat="46.13029" lon="1.86">
        <ele>637</ele>
        <time>2016-12-12T07:05:09Z</time>
      </trkpt>
      <trkpt lat="46.13019" lon="1.85985">
        <ele>639</ele>
        <time>2016-12-12T07:07:09Z</time>
      </trkpt>
      <trkpt lat="46.13015" lon="1.85979">
        <ele>639</ele>
        <time>2016-12-12T07:09:09Z</time>
      </trkpt>
      <trkpt lat="46.13013" lon="1.85976">
        <ele>640</ele>
        <time>2016-12-12T07:11:09Z</time>
      </trkpt>
      <trkpt lat="46.13009" lon="1.85968">
        <ele>640</ele>
        <time>2016-12-12T07:13:09Z</time>
      </trkpt>
      <trkpt lat="46.13006" lon="1.85965">
        <ele>641</ele>
        <time>2016-12-12T07:15:09Z</time>
      </trkpt>
      <trkpt lat="46.13004" lon="1.85963">
        <ele>641</ele>
        <time>2016-12-12T07:17:09Z</time>
      </trkpt>
      <trkpt lat="46.13002" lon="1.85961">
        <ele>641</ele>
        <time>2016-12-12T07:19:09Z</time>
      </trkpt>
      <trkpt lat="46.13001" lon="1.8596">
        <ele>641</ele>
        <time>2016-12-12T07:21:09Z</time>
      </trkpt>
      <trkpt lat="46.12999" lon="1.8596">
        <ele>641</ele>
        <time>2016-12-12T07:23:09Z</time>
      </trkpt>
      <trkpt lat="46.12999" lon="1.85959">
        <ele>641</ele>
        <time>2016-12-12T07:25:09Z</time>
      </trkpt>
      <trkpt lat="46.12998" lon="1.8596">
        <ele>641</ele>
        <time>2016-12-12T07:27:09Z</time>
      </trkpt>
      <trkpt lat="46.12999" lon="1.85958">
        <ele>642</ele>
        <time>2016-12-12T07:29:09Z</time>
      </trkpt>
      <trkpt lat="46.12994" lon="1.85958">
        <ele>642</ele>
        <time>2016-12-12T07:31:09Z</time>
      </trkpt>
      <trkpt lat="46.12992" lon="1.85958">
        <ele>642</ele>
        <time>2016-12-12T07:33:09Z</time>
      </trkpt>
      <trkpt lat="46.12991" lon="1.85957">
        <ele>642</ele>
        <time>2016-12-12T07:35:09Z</time>
      </trkpt>
      <trkpt lat="46.12987" lon="1.85957">
        <ele>642</ele>
        <time>2016-12-12T07:37:09Z</time>
      </trkpt>
      <trkpt lat="46.12987" lon="1.85956">
        <ele>642</ele>
        <time>2016-12-12T07:39:09Z</time>
      </trkpt>
      <trkpt lat="46.12984" lon="1.85955">
        <ele>643</ele>
        <time>2016-12-12T07:41:09Z</time>
      </trkpt>
      <trkpt lat="46.12982" lon="1.85953">
        <ele>643</ele>
        <time>2016-12-12T07:43:09Z</time>
      </trkpt>
      <trkpt lat="46.12982" lon="1.85953">
        <ele>643</ele>
        <time>2016-12-12T07:45:09Z</time>
      </trkpt>
      <trkpt lat="46.12979" lon="1.85953">
        <ele>643</ele>
        <time>2016-12-12T07:47:09Z</time>
      </trkpt>
      <trkpt lat="46.12978" lon="1.85953">
        <ele>643</ele>
        <time>2016-12-12T07:49:09Z</time>
      </trkpt>
      <trkpt lat="46.12977" lon="1.85952">
        <ele>643</ele>
        <time>2016-12-12T07:51:09Z</time>
      </trkpt>
      <trkpt lat="46.12977" lon="1.8595">
        <ele>643</ele>
        <time>2016-12-12T07:53:09Z</time>
      </trkpt>
      <trkpt lat="46.12977" lon="1.85948">
        <ele>644</ele>
        <time>2016-12-12T07:55:09Z</time>
      </trkpt>
      <trkpt lat="46.12978" lon="1.85942">
        <ele>644</ele>
        <time>2016-12-12T07:57:09Z</time>
      </trkpt>
      <trkpt lat="46.12979" lon="1.85938">
        <ele>644</ele>
        <time>2016-12-12T07:59:09Z</time>
      </trkpt>
      <trkpt lat="46.12979" lon="1.85935">
        <ele>645</ele>
        <time>2016-12-12T08:01:09Z</time>
      </trkpt>
      <trkpt lat="46.1298" lon="1.85931">
        <ele>645</ele>
        <time>2016-12-12T08:03:09Z</time>
      </trkpt>
      <trkpt lat="46.1298" lon="1.85929">
        <ele>645</ele>
        <time>2016-12-12T08:05:09Z</time>
      </trkpt>
      <trkpt lat="46.12979" lon="1.85924">
        <ele>646</ele>
        <time>2016-12-12T08:07:09Z</time>
      </trkpt>
      <trkpt lat="46.12978" lon="1.8592">
        <ele>646</ele>
        <time>2016-12-12T08:09:09Z</time>
      </trkpt>
      <trkpt lat="46.12978" lon="1.85918">
        <ele>646</ele>
        <time>2016-12-12T08:11:09Z</time>
      </trkpt>
      <trkpt lat="46.12979" lon="1.85915">
        <ele>647</ele>
        <time>2016-12-12T08:13:09Z</time>
      </trkpt>
      <trkpt lat="46.12978" lon="1.85912">
        <ele>647</ele>
        <time>2016-12-12T08:15:09Z</time>
      </trkpt>
      <trkpt lat="46.12978" lon="1.85909">
        <ele>647</ele>
        <time>2016-12-12T08:17:09Z</time>
      </trkpt>
      <trkpt lat="46.12977" lon="1.85906">
        <ele>647</ele>
        <time>2016-12-12T08:19:09Z</time>
      </trkpt>
      <trkpt lat="46.12975" lon="1.85895">
        <ele>647</ele>
        <time>2016-12-12T08:21:09Z</time>
      </trkpt>
      <trkpt lat="46.12974" lon="1.85893">
        <ele>648</ele>
        <time>2016-12-12T08:23:09Z</time>
      </trkpt>
      <trkpt lat="46.12975" lon="1.8589">
        <ele>648</ele>
        <time>2016-12-12T08:25:09Z</time>
      </trkpt>
      <trkpt lat="46.12972" lon="1.85884">
        <ele>648</ele>
        <time>2016-12-12T08:27:09Z</time>
      </trkpt>
      <trkpt lat="46.12969" lon="1.85879">
        <ele>648</ele>
        <time>2016-12-12T08:29:09Z</time>
      </trkpt>
      <trkpt lat="46.12969" lon="1.85875">
        <ele>649</ele>
        <time>2016-12-12T08:31:09Z</time>
      </trkpt>
      <trkpt lat="46.12969" lon="1.85872">
        <ele>649</ele>
        <time>2016-12-12T08:33:09Z</time>
      </trkpt>
      <trkpt lat="46.12967" lon="1.85869">
        <ele>649</ele>
        <time>2016-12-12T08:35:09Z</time>
      </trkpt>
      <trkpt lat="46.12966" lon="1.85867">
        <ele>649</ele>
        <time>2016-12-12T08:37:09Z</time>
      </trkpt>
      <trkpt lat="46.12964" lon="1.8586">
        <ele>650</ele>
        <time>2016-12-12T08:39:09Z</time>
      </trkpt>
      <trkpt lat="46.12963" lon="1.85855">
        <ele>650</ele>
        <time>2016-12-12T08:41:09Z</time>
      </trkpt>
      <trkpt lat="46.12963" lon="1.85848">
        <ele>650</ele>
        <time>2016-12-12T08:43:09Z</time>
      </trkpt>
      <trkpt lat="46.12962" lon="1.85844">
        <ele>650</ele>
        <time>2016-12-12T08:45:09Z</time>
      </trkpt>
      <trkpt lat="46.12962" lon="1.8584">
        <ele>650</ele>
        <time>2016-12-12T08:47:09Z</time>
      </trkpt>
      <trkpt lat="46.12962" lon="1.85837">
        <ele>651</ele>
        <time>2016-12-12T08:49:09Z</time>
      </trkpt>
      <trkpt lat="46.12959" lon="1.85831">
        <ele>651</ele>
        <time>2016-12-12T08:51:09Z</time>
      </trkpt>
      <trkpt lat="46.12959" lon="1.85827">
        <ele>650</ele>
        <time>2016-12-12T08:53:09Z</time>
      </trkpt>
      <trkpt lat="46.12959" lon="1.85822">
        <ele>650</ele>
        <time>2016-12-12T08:55:09Z</time>
      </trkpt>
      <trkpt lat="46.12956" lon="1.85818">
        <ele>650</ele>
        <time>2016-12-12T08:57:09Z</time>
      </trkpt>
      <trkpt lat="46.12955" lon="1.85815">
        <ele>650</ele>
        <time>2016-12-12T08:59:09Z</time>
      </trkpt>
      <trkpt lat="46.12954" lon="1.85811">
        <ele>650</ele>
        <time>2016-12-12T09:01:09Z</time>
      </trkpt>
      <trkpt lat="46.12953" lon="1.85807">
        <ele>649</ele>
        <time>2016-12-12T09:03:09Z</time>
      </trkpt>
      <trkpt lat="46.12951" lon="1.85803">
        <ele>649</ele>
        <time>2016-12-12T09:05:09Z</time>
      </trkpt>
      <trkpt lat="46.1295" lon="1.85798">
        <ele>649</ele>
        <time>2016-12-12T09:07:09Z</time>
      </trkpt>
      <trkpt lat="46.12948" lon="1.85797">
        <ele>649</ele>
        <time>2016-12-12T09:09:09Z</time>
      </trkpt>
      <trkpt lat="46.12947" lon="1.85796">
        <ele>649</ele>
        <time>2016-12-12T09:11:09Z</time>
      </trkpt>
      <trkpt lat="46.12945" lon="1.85795">
        <ele>649</ele>
        <time>2016-12-12T09:13:09Z</time>
      </trkpt>
      <trkpt lat="46.12943" lon="1.85795">
        <ele>650</ele>
        <time>2016-12-12T09:15:09Z</time>
      </trkpt>
      <trkpt lat="46.12941" lon="1.85794">
        <ele>650</ele>
        <time>2016-12-12T09:17:09Z</time>
      </trkpt>
      <trkpt lat="46.12936" lon="1.85793">
        <ele>650</ele>
        <time>2016-12-12T09:19:09Z</time>
      </trkpt>
      <trkpt lat="46.12934" lon="1.85792">
        <ele>650</ele>
        <time>2016-12-12T09:21:09Z</time>
      </trkpt>
      <trkpt lat="46.12929" lon="1.85792">
        <ele>651</ele>
        <time>2016-12-12T09:23:09Z</time>
      </trkpt>
      <trkpt lat="46.12927" lon="1.85791">
        <ele>651</ele>
        <time>2016-12-12T09:25:09Z</time>
      </trkpt>
      <trkpt lat="46.12925" lon="1.85791">
        <ele>651</ele>
        <time>2016-12-12T09:27:09Z</time>
      </trkpt>
      <trkpt lat="46.12922" lon="1.85792">
        <ele>651</ele>
        <time>2016-12-12T09:29:09Z</time>
      </trkpt>
      <trkpt lat="46.12919" lon="1.85791">
        <ele>652</ele>
        <time>2016-12-12T09:31:09Z</time>
      </trkpt>
      <trkpt lat="46.12916" lon="1.85791">
        <ele>652</ele>
        <time>2016-12-12T09:33:09Z</time>
      </trkpt>
      <trkpt lat="46.12914" lon="1.85793">
        <ele>652</ele>
        <time>2016-12-12T09:35:09Z</time>
      </trkpt>
      <trkpt lat="46.1291" lon="1.85792">
        <ele>653</ele>
        <time>2016-12-12T09:37:09Z</time>
      </trkpt>
      <trkpt lat="46.12907" lon="1.85792">
        <ele>653</ele>
        <time>2016-12-12T09:39:09Z</time>
      </trkpt>
      <trkpt lat="46.12899" lon="1.8579">
        <ele>653</ele>
        <time>2016-12-12T09:41:09Z</time>
      </trkpt>
      <trkpt lat="46.12897" lon="1.85789">
        <ele>654</ele>
        <time>2016-12-12T09:43:09Z</time>
      </trkpt>
      <trkpt lat="46.12894" lon="1.85789">
        <ele>654</ele>
        <time>2016-12-12T09:45:09Z</time>
      </trkpt>
      <trkpt lat="46.12892" lon="1.85788">
        <ele>654</ele>
        <time>2016-12-12T09:47:09Z</time>
      </trkpt>
      <trkpt lat="46.12889" lon="1.85789">
        <ele>654</ele>
        <time>2016-12-12T09:49:09Z</time>
      </trkpt>
      <trkpt lat="46.12883" lon="1.85788">
        <ele>655</ele>
        <time>2016-12-12T09:51:09Z</time>
      </trkpt>
      <trkpt lat="46.12881" lon="1.85789">
        <ele>655</ele>
        <time>2016-12-12T09:53:09Z</time>
      </trkpt>
      <trkpt lat="46.1287" lon="1.85787">
        <ele>656</ele>
        <time>2016-12-12T09:55:09Z</time>
      </trkpt>
      <trkpt lat="46.12867" lon="1.85787">
        <ele>656</ele>
        <time>2016-12-12T09:57:09Z</time>
      </trkpt>
      <trkpt lat="46.12866" lon="1.85788">
        <ele>656</ele>
        <time>2016-12-12T09:59:09Z</time>
      </trkpt>
      <trkpt lat="46.12861" lon="1.85787">
        <ele>657</ele>
        <time>2016-12-12T10:01:09Z</time>
      </trkpt>
      <trkpt lat="46.12859" lon="1.85788">
        <ele>657</ele>
        <time>2016-12-12T10:03:09Z</time>
      </trkpt>
      <trkpt lat="46.12853" lon="1.85786">
        <ele>657</ele>
        <time>2016-12-12T10:05:09Z</time>
      </trkpt>
      <trkpt lat="46.12851" lon="1.85785">
        <ele>657</ele>
        <time>2016-12-12T10:07:09Z</time>
      </trkpt>
      <trkpt lat="46.12847" lon="1.85784">
        <ele>658</ele>
        <time>2016-12-12T10:09:09Z</time>
      </trkpt>
      <trkpt lat="46.12844" lon="1.85784">
        <ele>658</ele>
        <time>2016-12-12T10:11:09Z</time>
      </trkpt>
      <trkpt lat="46.12841" lon="1.85783">
        <ele>658</ele>
        <time>2016-12-12T10:13:09Z</time>
      </trkpt>
      <trkpt lat="46.1284" lon="1.85784">
        <ele>658</ele>
        <time>2016-12-12T10:15:09Z</time>
      </trkpt>
      <trkpt lat="46.12838" lon="1.85783">
        <ele>659</ele>
        <time>2016-12-12T10:17:09Z</time>
      </trkpt>
      <trkpt lat="46.12836" lon="1.85783">
        <ele>659</ele>
        <time>2016-12-12T10:19:09Z</time>
      </trkpt>
      <trkpt lat="46.12834" lon="1.85781">
        <ele>659</ele>
        <time>2016-12-12T10:21:09Z</time>
      </trkpt>
      <trkpt lat="46.12832" lon="1.85781">
        <ele>659</ele>
        <time>2016-12-12T10:23:09Z</time>
      </trkpt>
      <trkpt lat="46.12829" lon="1.85781">
        <ele>659</ele>
        <time>2016-12-12T10:25:09Z</time>
      </trkpt>
      <trkpt lat="46.12826" lon="1.8578">
        <ele>659</ele>
        <time>2016-12-12T10:27:09Z</time>
      </trkpt>
      <trkpt lat="46.12818" lon="1.8578">
        <ele>658</ele>
        <time>2016-12-12T10:29:09Z</time>
      </trkpt>
      <trkpt lat="46.1281" lon="1.8578">
        <ele>658</ele>
        <time>2016-12-12T10:31:09Z</time>
      </trkpt>
      <trkpt lat="46.12804" lon="1.8578">
        <ele>658</ele>
        <time>2016-12-12T10:33:09Z</time>
      </trkpt>
      <trkpt lat="46.12798" lon="1.85778">
        <ele>658</ele>
        <time>2016-12-12T10:35:09Z</time>
      </trkpt>
      <trkpt lat="46.12796" lon="1.85776">
        <ele>658</ele>
        <time>2016-12-12T10:37:09Z</time>
      </trkpt>
      <trkpt lat="46.12794" lon="1.85777">
        <ele>658</ele>
        <time>2016-12-12T10:39:09Z</time>
      </trkpt>
      <trkpt lat="46.12789" lon="1.85776">
        <ele>658</ele>
        <time>2016-12-12T10:41:09Z</time>
      </trkpt>
      <trkpt lat="46.12786" lon="1.85775">
        <ele>658</ele>
        <time>2016-12-12T10:43:09Z</time>
      </trkpt>
      <trkpt lat="46.1278" lon="1.85776">
        <ele>657</ele>
        <time>2016-12-12T10:45:09Z</time>
      </trkpt>
      <trkpt lat="46.12773" lon="1.85774">
        <ele>657</ele>
        <time>2016-12-12T10:47:09Z</time>
      </trkpt>
      <trkpt lat="46.12767" lon="1.85774">
        <ele>657</ele>
        <time>2016-12-12T10:49:09Z</time>
      </trkpt>
      <trkpt lat="46.12762" lon="1.85773">
        <ele>657</ele>
        <time>2016-12-12T10:51:09Z</time>
      </trkpt>
      <trkpt lat="46.12756" lon="1.85772">
        <ele>657</ele>
        <time>2016-12-12T10:53:09Z</time>
      </trkpt>
      <trkpt lat="46.12754" lon="1.85773">
        <ele>657</ele>
        <time>2016-12-12T10:55:09Z</time>
      </trkpt>
      <trkpt lat="46.12749" lon="1.8577">
        <ele>657</ele>
        <time>2016-12-12T10:57:09Z</time>
      </trkpt>
      <trkpt lat="46.12746" lon="1.85771">
        <ele>656</ele>
        <time>2016-12-12T10:59:09Z</time>
      </trkpt>
      <trkpt lat="46.12743" lon="1.8577">
        <ele>656</ele>
        <time>2016-12-12T11:01:09Z</time>
      </trkpt>
      <trkpt lat="46.12741" lon="1.85769">
        <ele>656</ele>
        <time>2016-12-12T11:03:09Z</time>
      </trkpt>
      <trkpt lat="46.12739" lon="1.8577">
        <ele>656</ele>
        <time>2016-12-12T11:05:09Z</time>
      </trkpt>
      <trkpt lat="46.12735" lon="1.8577">
        <ele>656</ele>
        <time>2016-12-12T11:07:09Z</time>
      </trkpt>
      <trkpt lat="46.12732" lon="1.8577">
        <ele>656</ele>
        <time>2016-12-12T11:09:09Z</time>
      </trkpt>
      <trkpt lat="46.12729" lon="1.8577">
        <ele>656</ele>
        <time>2016-12-12T11:11:09Z</time>
      </trkpt>
      <trkpt lat="46.12726" lon="1.8577">
        <ele>656</ele>
        <time>2016-12-12T11:13:09Z</time>
      </trkpt>
      <trkpt lat="46.12721" lon="1.85769">
        <ele>656</ele>
        <time>2016-12-12T11:15:09Z</time>
      </trkpt>
      <trkpt lat="46.12717" lon="1.85769">
        <ele>656</ele>
        <time>2016-12-12T11:17:09Z</time>
      </trkpt>
      <trkpt lat="46.12716" lon="1.85767">
        <ele>656</ele>
        <time>2016-12-12T11:19:09Z</time>
      </trkpt>
      <trkpt lat="46.12709" lon="1.85768">
        <ele>656</ele>
        <time>2016-12-12T11:21:09Z</time>
      </trkpt>
      <trkpt lat="46.12706" lon="1.85768">
        <ele>656</ele>
        <time>2016-12-12T11:23:09Z</time>
      </trkpt>
      <trkpt lat="46.12705" lon="1.85767">
        <ele>656</ele>
        <time>2016-12-12T11:25:09Z</time>
      </trkpt>
      <trkpt lat="46.12703" lon="1.85766">
        <ele>656</ele>
        <time>2016-12-12T11:27:09Z</time>
      </trkpt>
      <trkpt lat="46.12691" lon="1.85766">
        <ele>656</ele>
        <time>2016-12-12T11:29:09Z</time>
      </trkpt>
      <trkpt lat="46.12689" lon="1.85767">
        <ele>656</ele>
        <time>2016-12-12T11:31:09Z</time>
      </trkpt>
      <trkpt lat="46.12681" lon="1.85766">
        <ele>656</ele>
        <time>2016-12-12T11:33:09Z</time>
      </trkpt>
      <trkpt lat="46.12678" lon="1.85766">
        <ele>656</ele>
        <time>2016-12-12T11:35:09Z</time>
      </trkpt>
      <trkpt lat="46.12675" lon="1.85768">
        <ele>656</ele>
        <time>2016-12-12T11:37:09Z</time>
      </trkpt>
      <trkpt lat="46.12673" lon="1.85769">
        <ele>656</ele>
        <time>2016-12-12T11:39:09Z</time>
      </trkpt>
      <trkpt lat="46.12671" lon="1.85771">
        <ele>656</ele>
        <time>2016-12-12T11:41:09Z</time>
      </trkpt>
      <trkpt lat="46.12669" lon="1.85774">
        <ele>656</ele>
        <time>2016-12-12T11:43:09Z</time>
      </trkpt>
      <trkpt lat="46.12665" lon="1.85779">
        <ele>656</ele>
        <time>2016-12-12T11:45:09Z</time>
      </trkpt>
      <trkpt lat="46.12663" lon="1.85781">
        <ele>656</ele>
        <time>2016-12-12T11:47:09Z</time>
      </trkpt>
      <trkpt lat="46.1266" lon="1.85782">
        <ele>656</ele>
        <time>2016-12-12T11:49:09Z</time>
      </trkpt>
      <trkpt lat="46.12656" lon="1.85784">
        <ele>656</ele>
        <time>2016-12-12T11:51:09Z</time>
      </trkpt>
      <trkpt lat="46.12652" lon="1.85788">
        <ele>656</ele>
        <time>2016-12-12T11:53:09Z</time>
      </trkpt>
      <trkpt lat="46.12646" lon="1.8579">
        <ele>656</ele>
        <time>2016-12-12T11:55:09Z</time>
      </trkpt>
      <trkpt lat="46.12643" lon="1.8579">
        <ele>656</ele>
        <time>2016-12-12T11:57:09Z</time>
      </trkpt>
      <trkpt lat="46.12641" lon="1.85791">
        <ele>656</ele>
        <time>2016-12-12T11:59:09Z</time>
      </trkpt>
      <trkpt lat="46.12638" lon="1.85793">
        <ele>656</ele>
        <time>2016-12-12T12:01:09Z</time>
      </trkpt>
      <trkpt lat="46.12636" lon="1.85794">
        <ele>656</ele>
        <time>2016-12-12T12:03:09Z</time>
      </trkpt>
      <trkpt lat="46.12635" lon="1.85795">
        <ele>656</ele>
        <time>2016-12-12T12:05:09Z</time>
      </trkpt>
      <trkpt lat="46.12635" lon="1.85797">
        <ele>656</ele>
        <time>2016-12-12T12:07:09Z</time>
      </trkpt>
      <trkpt lat="46.12633" lon="1.858">
        <ele>656</ele>
        <time>2016-12-12T12:09:09Z</time>
      </trkpt>
      <trkpt lat="46.12631" lon="1.85802">
        <ele>656</ele>
        <time>2016-12-12T12:11:09Z</time>
      </trkpt>
      <trkpt lat="46.1263" lon="1.85804">
        <ele>656</ele>
        <time>2016-12-12T12:13:09Z</time>
      </trkpt>
      <trkpt lat="46.12628" lon="1.85806">
        <ele>656</ele>
        <time>2016-12-12T12:15:09Z</time>
      </trkpt>
      <trkpt lat="46.12626" lon="1.85807">
        <ele>656</ele>
        <time>2016-12-12T12:17:09Z</time>
      </trkpt>
      <trkpt lat="46.12626" lon="1.85814">
        <ele>656</ele>
        <time>2016-12-12T12:19:09Z</time>
      </trkpt>
      <trkpt lat="46.12627" lon="1.85825">
        <ele>656</ele>
        <time>2016-12-12T12:21:09Z</time>
      </trkpt>
      <trkpt lat="46.12626" lon="1.85827">
        <ele>656</ele>
        <time>2016-12-12T12:23:09Z</time>
      </trkpt>
      <trkpt lat="46.12624" lon="1.85829">
        <ele>656</ele>
        <time>2016-12-12T12:25:09Z</time>
      </trkpt>
      <trkpt lat="46.12622" lon="1.85831">
        <ele>656</ele>
        <time>2016-12-12T12:27:09Z</time>
      </trkpt>
      <trkpt lat="46.12621" lon="1.85835">
        <ele>656</ele>
        <time>2016-12-12T12:29:09Z</time>
      </trkpt>
      <trkpt lat="46.1262" lon="1.8584">
        <ele>655</ele>
        <time>2016-12-12T12:31:09Z</time>
      </trkpt>
      <trkpt lat="46.1262" lon="1.85843">
        <ele>655</ele>
        <time>2016-12-12T12:33:09Z</time>
      </trkpt>
      <trkpt lat="46.12617" lon="1.85849">
        <ele>655</ele>
        <time>2016-12-12T12:35:09Z</time>
      </trkpt>
      <trkpt lat="46.12615" lon="1.8585">
        <ele>655</ele>
        <time>2016-12-12T12:37:09Z</time>
      </trkpt>
      <trkpt lat="46.12613" lon="1.85852">
        <ele>655</ele>
        <time>2016-12-12T12:39:09Z</time>
      </trkpt>
      <trkpt lat="46.12611" lon="1.85852">
        <ele>655</ele>
        <time>2016-12-12T12:41:09Z</time>
      </trkpt>
      <trkpt lat="46.12609" lon="1.85851">
        <ele>655</ele>
        <time>2016-12-12T12:43:09Z</time>
      </trkpt>
      <trkpt lat="46.12607" lon="1.85851">
        <ele>655</ele>
        <time>2016-12-12T12:45:09Z</time>
      </trkpt>
      <trkpt lat="46.12603" lon="1.85854">
        <ele>654</ele>
        <time>2016-12-12T12:47:09Z</time>
      </trkpt>
      <trkpt lat="46.12601" lon="1.85857">
        <ele>654</ele>
        <time>2016-12-12T12:49:09Z</time>
      </trkpt>
      <trkpt lat="46.12598" lon="1.85861">
        <ele>654</ele>
        <time>2016-12-12T12:51:09Z</time>
      </trkpt>
      <trkpt lat="46.12596" lon="1.85863">
        <ele>654</ele>
        <time>2016-12-12T12:53:09Z</time>
      </trkpt>
      <trkpt lat="46.12593" lon="1.85863">
        <ele>654</ele>
        <time>2016-12-12T12:55:09Z</time>
      </trkpt>
      <trkpt lat="46.12592" lon="1.85862">
        <ele>654</ele>
        <time>2016-12-12T12:57:09Z</time>
      </trkpt>
      <trkpt lat="46.1259" lon="1.85861">
        <ele>654</ele>
        <time>2016-12-12T12:59:09Z</time>
      </trkpt>
      <trkpt lat="46.12586" lon="1.8586">
        <ele>654</ele>
        <time>2016-12-12T13:01:09Z</time>
      </trkpt>
      <trkpt lat="46.12579" lon="1.85859">
        <ele>653</ele>
        <time>2016-12-12T13:03:09Z</time>
      </trkpt>
      <trkpt lat="46.12573" lon="1.85857">
        <ele>653</ele>
        <time>2016-12-12T13:05:09Z</time>
      </trkpt>
      <trkpt lat="46.1257" lon="1.85856">
        <ele>653</ele>
        <time>2016-12-12T13:07:09Z</time>
      </trkpt>
      <trkpt lat="46.12566" lon="1.85853">
        <ele>653</ele>
        <time>2016-12-12T13:09:09Z</time>
      </trkpt>
      <trkpt lat="46.12563" lon="1.85855">
        <ele>652</ele>
        <time>2016-12-12T13:11:09Z</time>
      </trkpt>
      <trkpt lat="46.12556" lon="1.85855">
        <ele>651</ele>
        <time>2016-12-12T13:13:09Z</time>
      </trkpt>
      <trkpt lat="46.12553" lon="1.85855">
        <ele>651</ele>
        <time>2016-12-12T13:15:09Z</time>
      </trkpt>
      <trkpt lat="46.1255" lon="1.85856">
        <ele>651</ele>
        <time>2016-12-12T13:17:09Z</time>
      </trkpt>
      <trkpt lat="46.12545" lon="1.85856">
        <ele>650</ele>
        <time>2016-12-12T13:19:09Z</time>
      </trkpt>
      <trkpt lat="46.1254" lon="1.85858">
        <ele>650</ele>
        <time>2016-12-12T13:21:09Z</time>
      </trkpt>
      <trkpt lat="46.12534" lon="1.85858">
        <ele>649</ele>
        <time>2016-12-12T13:23:09Z</time>
      </trkpt>
      <trkpt lat="46.12531" lon="1.85857">
        <ele>649</ele>
        <time>2016-12-12T13:25:09Z</time>
      </trkpt>
      <trkpt lat="46.12526" lon="1.85857">
        <ele>648</ele>
        <time>2016-12-12T13:27:09Z</time>
      </trkpt>
      <trkpt lat="46.12524" lon="1.85857">
        <ele>648</ele>
        <time>2016-12-12T13:29:09Z</time>
      </trkpt>
      <trkpt lat="46.1252" lon="1.85858">
        <ele>648</ele>
        <time>2016-12-12T13:31:09Z</time>
      </trkpt>
      <trkpt lat="46.12516" lon="1.85857">
        <ele>647</ele>
        <time>2016-12-12T13:33:09Z</time>
      </trkpt>
      <trkpt lat="46.12513" lon="1.85858">
        <ele>647</ele>
        <time>2016-12-12T13:35:09Z</time>
      </trkpt>
      <trkpt lat="46.12513" lon="1.85857">
        <ele>647</ele>
        <time>2016-12-12T13:37:09Z</time>
      </trkpt>
      <trkpt lat="46.12512" lon="1.85857">
        <ele>647</ele>
        <time>2016-12-12T13:39:09Z</time>
      </trkpt>
      <trkpt lat="46.12511" lon="1.85858">
        <ele>647</ele>
        <time>2016-12-12T13:41:09Z</time>
      </trkpt>
      <trkpt lat="46.1251" lon="1.8586">
        <ele>647</ele>
        <time>2016-12-12T13:43:09Z</time>
      </trkpt>
      <trkpt lat="46.12509" lon="1.8586">
        <ele>647</ele>
        <time>2016-12-12T13:45:09Z</time>
      </trkpt>
      <trkpt lat="46.12507" lon="1.85863">
        <ele>646</ele>
        <time>2016-12-12T13:47:09Z</time>
      </trkpt>
      <trkpt lat="46.12505" lon="1.85865">
        <ele>646</ele>
        <time>2016-12-12T13:49:09Z</time>
      </trkpt>
      <trkpt lat="46.12505" lon="1.85868">
        <ele>646</ele>
        <time>2016-12-12T13:51:09Z</time>
      </trkpt>
      <trkpt lat="46.12505" lon="1.8587">
        <ele>646</ele>
        <time>2016-12-12T13:53:09Z</time>
      </trkpt>
      <trkpt lat="46.12505" lon="1.85871">
        <ele>646</ele>
        <time>2016-12-12T13:55:09Z</time>
      </trkpt>
      <trkpt lat="46.12505" lon="1.85872">
        <ele>646</ele>
        <time>2016-12-12T13:57:09Z</time>
      </trkpt>
      <trkpt lat="46.12504" lon="1.85874">
        <ele>645</ele>
        <time>2016-12-12T13:59:09Z</time>
      </trkpt>
      <trkpt lat="46.12498" lon="1.85881">
        <ele>645</ele>
        <time>2016-12-12T14:01:09Z</time>
      </trkpt>
      <trkpt lat="46.12496" lon="1.85885">
        <ele>644</ele>
        <time>2016-12-12T14:03:09Z</time>
      </trkpt>
      <trkpt lat="46.12493" lon="1.85889">
        <ele>644</ele>
        <time>2016-12-12T14:05:09Z</time>
      </trkpt>
      <trkpt lat="46.12492" lon="1.8589">
        <ele>644</ele>
        <time>2016-12-12T14:07:09Z</time>
      </trkpt>
      <trkpt lat="46.12491" lon="1.85892">
        <ele>643</ele>
        <time>2016-12-12T14:09:09Z</time>
      </trkpt>
      <trkpt lat="46.12488" lon="1.85894">
        <ele>643</ele>
        <time>2016-12-12T14:11:09Z</time>
      </trkpt>
      <trkpt lat="46.12486" lon="1.85897">
        <ele>643</ele>
        <time>2016-12-12T14:13:09Z</time>
      </trkpt>
      <trkpt lat="46.12484" lon="1.85899">
        <ele>643</ele>
        <time>2016-12-12T14:15:09Z</time>
      </trkpt>
      <trkpt lat="46.12479" lon="1.85903">
        <ele>642</ele>
        <time>2016-12-12T14:17:09Z</time>
      </trkpt>
      <trkpt lat="46.12474" lon="1.85904">
        <ele>642</ele>
        <time>2016-12-12T14:19:09Z</time>
      </trkpt>
      <trkpt lat="46.12471" lon="1.85905">
        <ele>641</ele>
        <time>2016-12-12T14:21:09Z</time>
      </trkpt>
      <trkpt lat="46.12467" lon="1.85905">
        <ele>641</ele>
        <time>2016-12-12T14:23:09Z</time>
      </trkpt>
      <trkpt lat="46.12464" lon="1.85904">
        <ele>641</ele>
        <time>2016-12-12T14:25:09Z</time>
      </trkpt>
      <trkpt lat="46.12462" lon="1.85903">
        <ele>641</ele>
        <time>2016-12-12T14:27:09Z</time>
      </trkpt>
      <trkpt lat="46.12458" lon="1.85901">
        <ele>640</ele>
        <time>2016-12-12T14:29:09Z</time>
      </trkpt>
      <trkpt lat="46.12456" lon="1.85902">
        <ele>640</ele>
        <time>2016-12-12T14:31:09Z</time>
      </trkpt>
      <trkpt lat="46.12453" lon="1.85901">
        <ele>640</ele>
        <time>2016-12-12T14:33:09Z</time>
      </trkpt>
      <trkpt lat="46.12452" lon="1.85901">
        <ele>640</ele>
        <time>2016-12-12T14:35:09Z</time>
      </trkpt>
      <trkpt lat="46.12448" lon="1.85899">
        <ele>640</ele>
        <time>2016-12-12T14:37:09Z</time>
      </trkpt>
      <trkpt lat="46.12444" lon="1.859">
        <ele>639</ele>
        <time>2016-12-12T14:39:09Z</time>
      </trkpt>
      <trkpt lat="46.1244" lon="1.85902">
        <ele>639</ele>
        <time>2016-12-12T14:41:09Z</time>
      </trkpt>
      <trkpt lat="46.12438" lon="1.85903">
        <ele>639</ele>
        <time>2016-12-12T14:43:09Z</time>
      </trkpt>
      <trkpt lat="46.12435" lon="1.85904">
        <ele>639</ele>
        <time>2016-12-12T14:45:09Z</time>
      </trkpt>
      <trkpt lat="46.1243" lon="1.85909">
        <ele>638</ele>
        <time>2016-12-12T14:47:09Z</time>
      </trkpt>
      <trkpt lat="46.12428" lon="1.8591">
        <ele>638</ele>
        <time>2016-12-12T14:49:09Z</time>
      </trkpt>
      <trkpt lat="46.12425" lon="1.85909">
        <ele>638</ele>
        <time>2016-12-12T14:51:09Z</time>
      </trkpt>
      <trkpt lat="46.12422" lon="1.85909">
        <ele>637</ele>
        <time>2016-12-12T14:53:09Z</time>
      </trkpt>
      <trkpt lat="46.12421" lon="1.8591">
        <ele>637</ele>
        <time>2016-12-12T14:55:09Z</time>
      </trkpt>
      <trkpt lat="46.12419" lon="1.85909">
        <ele>637</ele>
        <time>2016-12-12T14:57:09Z</time>
      </trkpt>
      <trkpt lat="46.12415" lon="1.85905">
        <ele>637</ele>
        <time>2016-12-12T14:59:09Z</time>
      </trkpt>
      <trkpt lat="46.12411" lon="1.85905">
        <ele>636</ele>
        <time>2016-12-12T15:01:09Z</time>
      </trkpt>
      <trkpt lat="46.12408" lon="1.85905">
        <ele>636</ele>
        <time>2016-12-12T15:03:09Z</time>
      </trkpt>
      <trkpt lat="46.12404" lon="1.85904">
        <ele>636</ele>
        <time>2016-12-12T15:05:09Z</time>
      </trkpt>
      <trkpt lat="46.12404" lon="1.85904">
        <ele>636</ele>
        <time>2016-12-12T15:07:09Z</time>
      </trkpt>
      <trkpt lat="46.12404" lon="1.85904">
        <ele>636</ele>
        <time>2016-12-12T15:09:09Z</time>
      </trkpt>
      <trkpt lat="46.12405" lon="1.85903">
        <ele>636</ele>
        <time>2016-12-12T15:11:09Z</time>
      </trkpt>
      <trkpt lat="46.12404" lon="1.85904">
        <ele>636</ele>
        <time>2016-12-12T15:13:09Z</time>
      </trkpt>
      <trkpt lat="46.12405" lon="1.85904">
        <ele>636</ele>
        <time>2016-12-12T15:15:09Z</time>
      </trkpt>
      <trkpt lat="46.12405" lon="1.85904">
        <ele>636</ele>
        <time>2016-12-12T15:17:09Z</time>
      </trkpt>
      <trkpt lat="46.12403" lon="1.85905">
        <ele>636</ele>
        <time>2016-12-12T15:19:09Z</time>
      </trkpt>
      <trkpt lat="46.12405" lon="1.85905">
        <ele>636</ele>
        <time>2016-12-12T15:21:09Z</time>
      </trkpt>
      <trkpt lat="46.12406" lon="1.85904">
        <ele>636</ele>
        <time>2016-12-12T15:23:09Z</time>
      </trkpt>
      <trkpt lat="46.12405" lon="1.85905">
        <ele>636</ele>
        <time>2016-12-12T15:25:09Z</time>
      </trkpt>
      <trkpt lat="46.12402" lon="1.85906">
        <ele>635</ele>
        <time>2016-12-12T15:27:09Z</time>
      </trkpt>
      <trkpt lat="46.12399" lon="1.85907">
        <ele>635</ele>
        <time>2016-12-12T15:29:09Z</time>
      </trkpt>
      <trkpt lat="46.12399" lon="1.85906">
        <ele>635</ele>
        <time>2016-12-12T15:31:09Z</time>
      </trkpt>
      <trkpt lat="46.12398" lon="1.85906">
        <ele>635</ele>
        <time>2016-12-12T15:33:09Z</time>
      </trkpt>
      <trkpt lat="46.12399" lon="1.85906">
        <ele>635</ele>
        <time>2016-12-12T15:35:09Z</time>
      </trkpt>
      <trkpt lat="46.12398" lon="1.85906">
        <ele>635</ele>
        <time>2016-12-12T15:37:09Z</time>
      </trkpt>
      <trkpt lat="46.12398" lon="1.85904">
        <ele>635</ele>
        <time>2016-12-12T15:39:09Z</time>
      </trkpt>
      <trkpt lat="46.12399" lon="1.85903">
        <ele>635</ele>
        <time>2016-12-12T15:41:09Z</time>
      </trkpt>
      <trkpt lat="46.12398" lon="1.85903">
        <ele>635</ele>
        <time>2016-12-12T15:43:09Z</time>
      </trkpt>
      <trkpt lat="46.12399" lon="1.85901">
        <ele>635</ele>
        <time>2016-12-12T15:45:09Z</time>
      </trkpt>
      <trkpt lat="46.12399" lon="1.85901">
        <ele>635</ele>
        <time>2016-12-12T15:47:09Z</time>
      </trkpt>
      <trkpt lat="46.12399" lon="1.85902">
        <ele>635</ele>
        <time>2016-12-12T15:49:09Z</time>
      </trkpt>
      <trkpt lat="46.124" lon="1.85903">
        <ele>635</ele>
        <time>2016-12-12T15:51:09Z</time>
      </trkpt>
      <trkpt lat="46.12398" lon="1.85903">
        <ele>635</ele>
        <time>2016-12-12T15:53:09Z</time>
      </trkpt>
      <trkpt lat="46.12399" lon="1.85902">
        <ele>635</ele>
        <time>2016-12-12T15:55:09Z</time>
      </trkpt>
      <trkpt lat="46.12397" lon="1.85902">
        <ele>635</ele>
        <time>2016-12-12T15:57:09Z</time>
      </trkpt>
      <trkpt lat="46.12398" lon="1.85901">
        <ele>635</ele>
        <time>2016-12-12T15:59:09Z</time>
      </trkpt>
      <trkpt lat="46.12396" lon="1.85901">
        <ele>635</ele>
        <time>2016-12-12T16:01:09Z</time>
      </trkpt>
      <trkpt lat="46.12388" lon="1.85896">
        <ele>634</ele>
        <time>2016-12-12T16:03:09Z</time>
      </trkpt>
      <trkpt lat="46.12385" lon="1.85894">
        <ele>634</ele>
        <time>2016-12-12T16:05:09Z</time>
      </trkpt>
      <trkpt lat="46.12382" lon="1.85892">
        <ele>634</ele>
        <time>2016-12-12T16:07:09Z</time>
      </trkpt>
      <trkpt lat="46.12379" lon="1.8589">
        <ele>633</ele>
        <time>2016-12-12T16:09:09Z</time>
      </trkpt>
      <trkpt lat="46.12378" lon="1.85889">
        <ele>633</ele>
        <time>2016-12-12T16:11:09Z</time>
      </trkpt>
      <trkpt lat="46.12377" lon="1.85889">
        <ele>633</ele>
        <time>2016-12-12T16:13:09Z</time>
      </trkpt>
      <trkpt lat="46.12375" lon="1.85887">
        <ele>633</ele>
        <time>2016-12-12T16:15:09Z</time>
      </trkpt>
      <trkpt lat="46.12374" lon="1.85886">
        <ele>633</ele>
        <time>2016-12-12T16:17:09Z</time>
      </trkpt>
      <trkpt lat="46.12372" lon="1.85884">
        <ele>633</ele>
        <time>2016-12-12T16:19:09Z</time>
      </trkpt>
      <trkpt lat="46.1237" lon="1.85882">
        <ele>633</ele>
        <time>2016-12-12T16:21:09Z</time>
      </trkpt>
      <trkpt lat="46.12368" lon="1.85881">
        <ele>632</ele>
        <time>2016-12-12T16:23:09Z</time>
      </trkpt>
      <trkpt lat="46.12364" lon="1.8588">
        <ele>632</ele>
        <time>2016-12-12T16:25:09Z</time>
      </trkpt>
      <trkpt lat="46.12361" lon="1.85878">
        <ele>632</ele>
        <time>2016-12-12T16:27:09Z</time>
      </trkpt>
      <trkpt lat="46.12355" lon="1.85873">
        <ele>631</ele>
        <time>2016-12-12T16:29:09Z</time>
      </trkpt>
      <trkpt lat="46.1235" lon="1.85864">
        <ele>631</ele>
        <time>2016-12-12T16:31:09Z</time>
      </trkpt>
      <trkpt lat="46.12348" lon="1.85859">
        <ele>631</ele>
        <time>2016-12-12T16:33:09Z</time>
      </trkpt>
      <trkpt lat="46.12339" lon="1.85846">
        <ele>631</ele>
        <time>2016-12-12T16:35:09Z</time>
      </trkpt>
      <trkpt lat="46.12338" lon="1.85844">
        <ele>631</ele>
        <time>2016-12-12T16:37:09Z</time>
      </trkpt>
      <trkpt lat="46.12335" lon="1.85836">
        <ele>631</ele>
        <time>2016-12-12T16:39:09Z</time>
      </trkpt>
      <trkpt lat="46.12333" lon="1.85831">
        <ele>631</ele>
        <time>2016-12-12T16:41:09Z</time>
      </trkpt>
      <trkpt lat="46.12331" lon="1.85824">
        <ele>630</ele>
        <time>2016-12-12T16:43:09Z</time>
      </trkpt>
      <trkpt lat="46.1233" lon="1.85816">
        <ele>630</ele>
        <time>2016-12-12T16:45:09Z</time>
      </trkpt>
      <trkpt lat="46.12329" lon="1.85812">
        <ele>629</ele>
        <time>2016-12-12T16:47:09Z</time>
      </trkpt>
      <trkpt lat="46.12328" lon="1.85809">
        <ele>629</ele>
        <time>2016-12-12T16:49:09Z</time>
      </trkpt>
      <trkpt lat="46.12328" lon="1.85799">
        <ele>629</ele>
        <time>2016-12-12T16:51:09Z</time>
      </trkpt>
      <trkpt lat="46.12329" lon="1.85796">
        <ele>629</ele>
        <time>2016-12-12T16:53:09Z</time>
      </trkpt>
      <trkpt lat="46.12328" lon="1.85789">
        <ele>628</ele>
        <time>2016-12-12T16:55:09Z</time>
      </trkpt>
      <trkpt lat="46.12326" lon="1.85785">
        <ele>628</ele>
        <time>2016-12-12T16:57:09Z</time>
      </trkpt>
      <trkpt lat="46.12326" lon="1.85781">
        <ele>628</ele>
        <time>2016-12-12T16:59:09Z</time>
      </trkpt>
      <trkpt lat="46.12324" lon="1.85778">
        <ele>627</ele>
        <time>2016-12-12T17:01:09Z</time>
      </trkpt>
      <trkpt lat="46.12324" lon="1.85775">
        <ele>627</ele>
        <time>2016-12-12T17:03:09Z</time>
      </trkpt>
      <trkpt lat="46.12321" lon="1.85771">
        <ele>626</ele>
        <time>2016-12-12T17:05:09Z</time>
      </trkpt>
      <trkpt lat="46.1232" lon="1.85768">
        <ele>626</ele>
        <time>2016-12-12T17:07:09Z</time>
      </trkpt>
      <trkpt lat="46.1232" lon="1.85763">
        <ele>626</ele>
        <time>2016-12-12T17:09:09Z</time>
      </trkpt>
      <trkpt lat="46.12319" lon="1.85759">
        <ele>626</ele>
        <time>2016-12-12T17:11:09Z</time>
      </trkpt>
      <trkpt lat="46.12315" lon="1.85749">
        <ele>624</ele>
        <time>2016-12-12T17:13:09Z</time>
      </trkpt>
      <trkpt lat="46.12313" lon="1.85745">
        <ele>624</ele>
        <time>2016-12-12T17:15:09Z</time>
      </trkpt>
      <trkpt lat="46.12314" lon="1.8574">
        <ele>624</ele>
        <time>2016-12-12T17:17:09Z</time>
      </trkpt>
      <trkpt lat="46.12315" lon="1.85733">
        <ele>624</ele>
        <time>2016-12-12T17:19:09Z</time>
      </trkpt>
      <trkpt lat="46.12315" lon="1.8573">
        <ele>624</ele>
        <time>2016-12-12T17:21:09Z</time>
      </trkpt>
      <trkpt lat="46.12313" lon="1.85728">
        <ele>623</ele>
        <time>2016-12-12T17:23:09Z</time>
      </trkpt>
      <trkpt lat="46.12312" lon="1.85724">
        <ele>623</ele>
        <time>2016-12-12T17:25:09Z</time>
      </trkpt>
      <trkpt lat="46.12311" lon="1.85721">
        <ele>622</ele>
        <time>2016-12-12T17:27:09Z</time>
      </trkpt>
      <trkpt lat="46.1231" lon="1.85716">
        <ele>622</ele>
        <time>2016-12-12T17:29:09Z</time>
      </trkpt>
      <trkpt lat="46.12308" lon="1.85709">
        <ele>621</ele>
        <time>2016-12-12T17:31:09Z</time>
      </trkpt>
      <trkpt lat="46.12308" lon="1.85707">
        <ele>621</ele>
        <time>2016-12-12T17:33:09Z</time>
      </trkpt>
      <trkpt lat="46.12309" lon="1.85702">
        <ele>621</ele>
        <time>2016-12-12T17:35:09Z</time>
      </trkpt>
      <trkpt lat="46.12309" lon="1.85699">
        <ele>621</ele>
        <time>2016-12-12T17:37:09Z</time>
      </trkpt>
      <trkpt lat="46.12308" lon="1.85696">
        <ele>620</ele>
        <time>2016-12-12T17:39:09Z</time>
      </trkpt>
      <trkpt lat="46.12306" lon="1.85693">
        <ele>620</ele>
        <time>2016-12-12T17:41:09Z</time>
      </trkpt>
      <trkpt lat="46.12305" lon="1.8569">
        <ele>619</ele>
        <time>2016-12-12T17:43:09Z</time>
      </trkpt>
      <trkpt lat="46.12303" lon="1.85684">
        <ele>619</ele>
        <time>2016-12-12T17:45:09Z</time>
      </trkpt>
      <trkpt lat="46.12302" lon="1.8568">
        <ele>618</ele>
        <time>2016-12-12T17:47:09Z</time>
      </trkpt>
      <trkpt lat="46.12299" lon="1.85672">
        <ele>617</ele>
        <time>2016-12-12T17:49:09Z</time>
      </trkpt>
      <trkpt lat="46.12298" lon="1.85666">
        <ele>617</ele>
        <time>2016-12-12T17:51:09Z</time>
      </trkpt>
      <trkpt lat="46.12295" lon="1.85659">
        <ele>616</ele>
        <time>2016-12-12T17:53:09Z</time>
      </trkpt>
      <trkpt lat="46.12292" lon="1.8565">
        <ele>615</ele>
        <time>2016-12-12T17:55:09Z</time>
      </trkpt>
      <trkpt lat="46.1229" lon="1.85647">
        <ele>614</ele>
        <time>2016-12-12T17:57:09Z</time>
      </trkpt>
      <trkpt lat="46.1229" lon="1.85643">
        <ele>614</ele>
        <time>2016-12-12T17:59:09Z</time>
      </trkpt>
      <trkpt lat="46.12287" lon="1.85639">
        <ele>614</ele>
        <time>2016-12-12T18:01:09Z</time>
      </trkpt>
      <trkpt lat="46.12287" lon="1.85636">
        <ele>614</ele>
        <time>2016-12-12T18:03:09Z</time>
      </trkpt>
      <trkpt lat="46.12287" lon="1.85633">
        <ele>614</ele>
        <time>2016-12-12T18:05:09Z</time>
      </trkpt>
      <trkpt lat="46.12287" lon="1.8563">
        <ele>614</ele>
        <time>2016-12-12T18:07:09Z</time>
      </trkpt>
      <trkpt lat="46.12286" lon="1.85626">
        <ele>613</ele>
        <time>2016-12-12T18:09:09Z</time>
      </trkpt>
      <trkpt lat="46.12285" lon="1.85623">
        <ele>613</ele>
        <time>2016-12-12T18:11:09Z</time>
      </trkpt>
      <trkpt lat="46.12283" lon="1.85617">
        <ele>612</ele>
        <time>2016-12-12T18:13:09Z</time>
      </trkpt>
      <trkpt lat="46.12284" lon="1.85612">
        <ele>613</ele>
        <time>2016-12-12T18:15:09Z</time>
      </trkpt>
      <trkpt lat="46.12284" lon="1.85604">
        <ele>612</ele>
        <time>2016-12-12T18:17:09Z</time>
      </trkpt>
      <trkpt lat="46.12283" lon="1.85599">
        <ele>612</ele>
        <time>2016-12-12T18:19:09Z</time>
      </trkpt>
      <trkpt lat="46.12281" lon="1.85595">
        <ele>611</ele>
        <time>2016-12-12T18:21:09Z</time>
      </trkpt>
      <trkpt lat="46.1228" lon="1.85587">
        <ele>611</ele>
        <time>2016-12-12T18:23:09Z</time>
      </trkpt>
      <trkpt lat="46.1228" lon="1.85582">
        <ele>611</ele>
        <time>2016-12-12T18:25:09Z</time>
      </trkpt>
      <trkpt lat="46.12283" lon="1.85572">
        <ele>611</ele>
        <time>2016-12-12T18:27:09Z</time>
      </trkpt>
      <trkpt lat="46.12282" lon="1.85568">
        <ele>611</ele>
        <time>2016-12-12T18:29:09Z</time>
      </trkpt>
      <trkpt lat="46.12281" lon="1.8556">
        <ele>610</ele>
        <time>2016-12-12T18:31:09Z</time>
      </trkpt>
      <trkpt lat="46.1228" lon="1.85557">
        <ele>610</ele>
        <time>2016-12-12T18:33:09Z</time>
      </trkpt>
      <trkpt lat="46.12279" lon="1.85553">
        <ele>609</ele>
        <time>2016-12-12T18:35:09Z</time>
      </trkpt>
      <trkpt lat="46.12279" lon="1.85551">
        <ele>609</ele>
        <time>2016-12-12T18:37:09Z</time>
      </trkpt>
      <trkpt lat="46.12276" lon="1.85549">
        <ele>608</ele>
        <time>2016-12-12T18:39:09Z</time>
      </trkpt>
      <trkpt lat="46.12271" lon="1.85544">
        <ele>607</ele>
        <time>2016-12-12T18:41:09Z</time>
      </trkpt>
      <trkpt lat="46.12271" lon="1.85541">
        <ele>607</ele>
        <time>2016-12-12T18:43:09Z</time>
      </trkpt>
      <trkpt lat="46.12269" lon="1.8554">
        <ele>606</ele>
        <time>2016-12-12T18:45:09Z</time>
      </trkpt>
      <trkpt lat="46.12268" lon="1.85538">
        <ele>606</ele>
        <time>2016-12-12T18:47:09Z</time>
      </trkpt>
      <trkpt lat="46.12265" lon="1.85535">
        <ele>605</ele>
        <time>2016-12-12T18:49:09Z</time>
      </trkpt>
      <trkpt lat="46.12263" lon="1.85531">
        <ele>604</ele>
        <time>2016-12-12T18:51:09Z</time>
      </trkpt>
      <trkpt lat="46.12262" lon="1.85527">
        <ele>603</ele>
        <time>2016-12-12T18:53:09Z</time>
      </trkpt>
      <trkpt lat="46.1226" lon="1.8552">
        <ele>603</ele>
        <time>2016-12-12T18:55:09Z</time>
      </trkpt>
      <trkpt lat="46.1226" lon="1.85515">
        <ele>602</ele>
        <time>2016-12-12T18:57:09Z</time>
      </trkpt>
      <trkpt lat="46.12258" lon="1.85511">
        <ele>602</ele>
        <time>2016-12-12T18:59:09Z</time>
      </trkpt>
      <trkpt lat="46.12257" lon="1.85503">
        <ele>601</ele>
        <time>2016-12-12T19:01:09Z</time>
      </trkpt>
      <trkpt lat="46.12254" lon="1.85496">
        <ele>600</ele>
        <time>2016-12-12T19:03:09Z</time>
      </trkpt>
      <trkpt lat="46.12253" lon="1.85489">
        <ele>599</ele>
        <time>2016-12-12T19:05:09Z</time>
      </trkpt>
      <trkpt lat="46.12251" lon="1.85481">
        <ele>599</ele>
        <time>2016-12-12T19:07:09Z</time>
      </trkpt>
      <trkpt lat="46.1225" lon="1.85471">
        <ele>598</ele>
        <time>2016-12-12T19:09:09Z</time>
      </trkpt>
      <trkpt lat="46.12247" lon="1.85463">
        <ele>597</ele>
        <time>2016-12-12T19:11:09Z</time>
      </trkpt>
      <trkpt lat="46.12247" lon="1.85458">
        <ele>597</ele>
        <time>2016-12-12T19:13:09Z</time>
      </trkpt>
      <trkpt lat="46.12246" lon="1.85453">
        <ele>596</ele>
        <time>2016-12-12T19:15:09Z</time>
      </trkpt>
      <trkpt lat="46.12244" lon="1.85446">
        <ele>596</ele>
        <time>2016-12-12T19:17:09Z</time>
      </trkpt>
      <trkpt lat="46.12242" lon="1.85443">
        <ele>595</ele>
        <time>2016-12-12T19:19:09Z</time>
      </trkpt>
      <trkpt lat="46.12242" lon="1.85438">
        <ele>595</ele>
        <time>2016-12-12T19:21:09Z</time>
      </trkpt>
      <trkpt lat="46.1224" lon="1.8543">
        <ele>594</ele>
        <time>2016-12-12T19:23:09Z</time>
      </trkpt>
      <trkpt lat="46.12241" lon="1.85426">
        <ele>594</ele>
        <time>2016-12-12T19:25:09Z</time>
      </trkpt>
      <trkpt lat="46.12241" lon="1.85422">
        <ele>594</ele>
        <time>2016-12-12T19:27:09Z</time>
      </trkpt>
      <trkpt lat="46.12241" lon="1.85417">
        <ele>594</ele>
        <time>2016-12-12T19:29:09Z</time>
      </trkpt>
      <trkpt lat="46.12242" lon="1.85413">
        <ele>594</ele>
        <time>2016-12-12T19:31:09Z</time>
      </trkpt>
      <trkpt lat="46.12242" lon="1.8541">
        <ele>594</ele>
        <time>2016-12-12T19:33:09Z</time>
      </trkpt>
      <trkpt lat="46.12239" lon="1.85405">
        <ele>593</ele>
        <time>2016-12-12T19:35:09Z</time>
      </trkpt>
      <trkpt lat="46.12237" lon="1.85402">
        <ele>592</ele>
        <time>2016-12-12T19:37:09Z</time>
      </trkpt>
      <trkpt lat="46.12237" lon="1.85399">
        <ele>592</ele>
        <time>2016-12-12T19:39:09Z</time>
      </trkpt>
      <trkpt lat="46.12238" lon="1.85394">
        <ele>592</ele>
        <time>2016-12-12T19:41:09Z</time>
      </trkpt>
      <trkpt lat="46.12238" lon="1.85386">
        <ele>592</ele>
        <time>2016-12-12T19:43:09Z</time>
      </trkpt>
      <trkpt lat="46.12238" lon="1.85383">
        <ele>592</ele>
        <time>2016-12-12T19:45:09Z</time>
      </trkpt>
      <trkpt lat="46.12237" lon="1.85378">
        <ele>591</ele>
        <time>2016-12-12T19:47:09Z</time>
      </trkpt>
      <trkpt lat="46.12233" lon="1.85372">
        <ele>590</ele>
        <time>2016-12-12T19:49:09Z</time>
      </trkpt>
      <trkpt lat="46.12228" lon="1.85361">
        <ele>589</ele>
        <time>2016-12-12T19:51:09Z</time>
      </trkpt>
      <trkpt lat="46.12222" lon="1.85354">
        <ele>587</ele>
        <time>2016-12-12T19:53:09Z</time>
      </trkpt>
      <trkpt lat="46.12222" lon="1.85352">
        <ele>587</ele>
        <time>2016-12-12T19:55:09Z</time>
      </trkpt>
      <trkpt lat="46.12221" lon="1.8535">
        <ele>587</ele>
        <time>2016-12-12T19:57:09Z</time>
      </trkpt>
      <trkpt lat="46.12219" lon="1.85347">
        <ele>586</ele>
        <time>2016-12-12T19:59:09Z</time>
      </trkpt>
      <trkpt lat="46.12218" lon="1.85345">
        <ele>586</ele>
        <time>2016-12-12T20:01:09Z</time>
      </trkpt>
      <trkpt lat="46.12216" lon="1.85343">
        <ele>586</ele>
        <time>2016-12-12T20:03:09Z</time>
      </trkpt>
      <trkpt lat="46.12211" lon="1.85339">
        <ele>585</ele>
        <time>2016-12-12T20:05:09Z</time>
      </trkpt>
      <trkpt lat="46.12209" lon="1.85337">
        <ele>584</ele>
        <time>2016-12-12T20:07:09Z</time>
      </trkpt>
      <trkpt lat="46.12207" lon="1.85334">
        <ele>584</ele>
        <time>2016-12-12T20:09:09Z</time>
      </trkpt>
      <trkpt lat="46.12204" lon="1.85328">
        <ele>583</ele>
        <time>2016-12-12T20:11:09Z</time>
      </trkpt>
      <trkpt lat="46.12202" lon="1.85327">
        <ele>583</ele>
        <time>2016-12-12T20:13:09Z</time>
      </trkpt>
      <trkpt lat="46.122" lon="1.85324">
        <ele>583</ele>
        <time>2016-12-12T20:15:09Z</time>
      </trkpt>
      <trkpt lat="46.12198" lon="1.85322">
        <ele>582</ele>
        <time>2016-12-12T20:17:09Z</time>
      </trkpt>
      <trkpt lat="46.12193" lon="1.85316">
        <ele>582</ele>
        <time>2016-12-12T20:19:09Z</time>
      </trkpt>
      <trkpt lat="46.12192" lon="1.85313">
        <ele>582</ele>
        <time>2016-12-12T20:21:09Z</time>
      </trkpt>
      <trkpt lat="46.12188" lon="1.85305">
        <ele>581</ele>
        <time>2016-12-12T20:23:09Z</time>
      </trkpt>
      <trkpt lat="46.12186" lon="1.85298">
        <ele>582</ele>
        <time>2016-12-12T20:25:09Z</time>
      </trkpt>
      <trkpt lat="46.12183" lon="1.85295">
        <ele>581</ele>
        <time>2016-12-12T20:27:09Z</time>
      </trkpt>
      <trkpt lat="46.12181" lon="1.85292">
        <ele>581</ele>
        <time>2016-12-12T20:29:09Z</time>
      </trkpt>
      <trkpt lat="46.12173" lon="1.85286">
        <ele>581</ele>
        <time>2016-12-12T20:31:09Z</time>
      </trkpt>
      <trkpt lat="46.12171" lon="1.85283">
        <ele>581</ele>
        <time>2016-12-12T20:33:09Z</time>
      </trkpt>
      <trkpt lat="46.12166" lon="1.85277">
        <ele>581</ele>
        <time>2016-12-12T20:35:09Z</time>
      </trkpt>
      <trkpt lat="46.12165" lon="1.85274">
        <ele>582</ele>
        <time>2016-12-12T20:37:09Z</time>
      </trkpt>
      <trkpt lat="46.12162" lon="1.85272">
        <ele>581</ele>
        <time>2016-12-12T20:39:09Z</time>
      </trkpt>
      <trkpt lat="46.12156" lon="1.85268">
        <ele>581</ele>
        <time>2016-12-12T20:41:09Z</time>
      </trkpt>
      <trkpt lat="46.12152" lon="1.85264">
        <ele>581</ele>
        <time>2016-12-12T20:43:09Z</time>
      </trkpt>
      <trkpt lat="46.12152" lon="1.85261">
        <ele>581</ele>
        <time>2016-12-12T20:45:09Z</time>
      </trkpt>
      <trkpt lat="46.12149" lon="1.85257">
        <ele>581</ele>
        <time>2016-12-12T20:47:09Z</time>
      </trkpt>
      <trkpt lat="46.12149" lon="1.85257">
        <ele>581</ele>
        <time>2016-12-12T20:49:09Z</time>
      </trkpt>
      <trkpt lat="46.12148" lon="1.85255">
        <ele>582</ele>
        <time>2016-12-12T20:51:09Z</time>
      </trkpt>
      <trkpt lat="46.12147" lon="1.85254">
        <ele>582</ele>
        <time>2016-12-12T20:53:09Z</time>
      </trkpt>
      <trkpt lat="46.12141" lon="1.85251">
        <ele>581</ele>
        <time>2016-12-12T20:55:09Z</time>
      </trkpt>
      <trkpt lat="46.12139" lon="1.85248">
        <ele>581</ele>
        <time>2016-12-12T20:57:09Z</time>
      </trkpt>
      <trkpt lat="46.12137" lon="1.85246">
        <ele>581</ele>
        <time>2016-12-12T20:59:09Z</time>
      </trkpt>
      <trkpt lat="46.12131" lon="1.85242">
        <ele>580</ele>
        <time>2016-12-12T21:01:09Z</time>
      </trkpt>
      <trkpt lat="46.12128" lon="1.85243">
        <ele>580</ele>
        <time>2016-12-12T21:03:09Z</time>
      </trkpt>
      <trkpt lat="46.12122" lon="1.85241">
        <ele>580</ele>
        <time>2016-12-12T21:05:09Z</time>
      </trkpt>
      <trkpt lat="46.12121" lon="1.85242">
        <ele>579</ele>
        <time>2016-12-12T21:07:09Z</time>
      </trkpt>
      <trkpt lat="46.12122" lon="1.85242">
        <ele>579</ele>
        <time>2016-12-12T21:09:09Z</time>
      </trkpt>
      <trkpt lat="46.12122" lon="1.85242">
        <ele>579</ele>
        <time>2016-12-12T21:11:09Z</time>
      </trkpt>
      <trkpt lat="46.12119" lon="1.85241">
        <ele>579</ele>
        <time>2016-12-12T21:13:09Z</time>
      </trkpt>
      <trkpt lat="46.12116" lon="1.85238">
        <ele>579</ele>
        <time>2016-12-12T21:15:09Z</time>
      </trkpt>
      <trkpt lat="46.12114" lon="1.85238">
        <ele>579</ele>
        <time>2016-12-12T21:17:09Z</time>
      </trkpt>
      <trkpt lat="46.12111" lon="1.85235">
        <ele>579</ele>
        <time>2016-12-12T21:19:09Z</time>
      </trkpt>
      <trkpt lat="46.12111" lon="1.85232">
        <ele>579</ele>
        <time>2016-12-12T21:21:09Z</time>
      </trkpt>
      <trkpt lat="46.1211" lon="1.85229">
        <ele>579</ele>
        <time>2016-12-12T21:23:09Z</time>
      </trkpt>
      <trkpt lat="46.12107" lon="1.85222">
        <ele>579</ele>
        <time>2016-12-12T21:25:09Z</time>
      </trkpt>
      <trkpt lat="46.12104" lon="1.8522">
        <ele>579</ele>
        <time>2016-12-12T21:27:09Z</time>
      </trkpt>
      <trkpt lat="46.12103" lon="1.8522">
        <ele>579</ele>
        <time>2016-12-12T21:29:09Z</time>
      </trkpt>
      <trkpt lat="46.121" lon="1.8522">
        <ele>579</ele>
        <time>2016-12-12T21:31:09Z</time>
      </trkpt>
      <trkpt lat="46.12098" lon="1.85219">
        <ele>579</ele>
        <time>2016-12-12T21:33:09Z</time>
      </trkpt>
      <trkpt lat="46.12095" lon="1.85216">
        <ele>579</ele>
        <time>2016-12-12T21:35:09Z</time>
      </trkpt>
      <trkpt lat="46.12094" lon="1.85213">
        <ele>579</ele>
        <time>2016-12-12T21:37:09Z</time>
      </trkpt>
      <trkpt lat="46.12092" lon="1.85213">
        <ele>579</ele>
        <time>2016-12-12T21:39:09Z</time>
      </trkpt>
      <trkpt lat="46.12092" lon="1.85216">
        <ele>578</ele>
        <time>2016-12-12T21:41:09Z</time>
      </trkpt>
      <trkpt lat="46.1209" lon="1.85216">
        <ele>578</ele>
        <time>2016-12-12T21:43:09Z</time>
      </trkpt>
      <trkpt lat="46.1209" lon="1.85217">
        <ele>578</ele>
        <time>2016-12-12T21:45:09Z</time>
      </trkpt>
      <trkpt lat="46.12089" lon="1.85218">
        <ele>578</ele>
        <time>2016-12-12T21:47:09Z</time>
      </trkpt>
      <trkpt lat="46.12088" lon="1.8522">
        <ele>578</ele>
        <time>2016-12-12T21:49:09Z</time>
      </trkpt>
      <trkpt lat="46.12085" lon="1.85219">
        <ele>578</ele>
        <time>2016-12-12T21:51:09Z</time>
      </trkpt>
      <trkpt lat="46.12082" lon="1.85217">
        <ele>578</ele>
        <time>2016-12-12T21:53:09Z</time>
      </trkpt>
      <trkpt lat="46.1208" lon="1.85215">
        <ele>577</ele>
        <time>2016-12-12T21:55:09Z</time>
      </trkpt>
      <trkpt lat="46.12078" lon="1.85213">
        <ele>577</ele>
        <time>2016-12-12T21:57:09Z</time>
      </trkpt>
      <trkpt lat="46.12074" lon="1.85211">
        <ele>576</ele>
        <time>2016-12-12T21:59:09Z</time>
      </trkpt>
      <trkpt lat="46.12071" lon="1.85209">
        <ele>576</ele>
        <time>2016-12-12T22:01:09Z</time>
      </trkpt>
      <trkpt lat="46.12062" lon="1.85201">
        <ele>575</ele>
        <time>2016-12-12T22:03:09Z</time>
      </trkpt>
      <trkpt lat="46.12053" lon="1.85192">
        <ele>573</ele>
        <time>2016-12-12T22:05:09Z</time>
      </trkpt>
      <trkpt lat="46.1205" lon="1.8519">
        <ele>573</ele>
        <time>2016-12-12T22:07:09Z</time>
      </trkpt>
      <trkpt lat="46.1204" lon="1.85185">
        <ele>571</ele>
        <time>2016-12-12T22:09:09Z</time>
      </trkpt>
      <trkpt lat="46.12032" lon="1.85179">
        <ele>570</ele>
        <time>2016-12-12T22:11:09Z</time>
      </trkpt>
      <trkpt lat="46.12022" lon="1.85167">
        <ele>568</ele>
        <time>2016-12-12T22:13:09Z</time>
      </trkpt>
      <trkpt lat="46.12019" lon="1.85165">
        <ele>567</ele>
        <time>2016-12-12T22:15:09Z</time>
      </trkpt>
      <trkpt lat="46.12016" lon="1.85162">
        <ele>567</ele>
        <time>2016-12-12T22:17:09Z</time>
      </trkpt>
      <trkpt lat="46.12013" lon="1.8516">
        <ele>566</ele>
        <time>2016-12-12T22:19:09Z</time>
      </trkpt>
      <trkpt lat="46.12011" lon="1.85158">
        <ele>565</ele>
        <time>2016-12-12T22:21:09Z</time>
      </trkpt>
      <trkpt lat="46.12005" lon="1.85153">
        <ele>564</ele>
        <time>2016-12-12T22:23:09Z</time>
      </trkpt>
      <trkpt lat="46.11998" lon="1.85147">
        <ele>563</ele>
        <time>2016-12-12T22:25:09Z</time>
      </trkpt>
      <trkpt lat="46.11996" lon="1.85143">
        <ele>562</ele>
        <time>2016-12-12T22:27:09Z</time>
      </trkpt>
      <trkpt lat="46.11991" lon="1.8514">
        <ele>562</ele>
        <time>2016-12-12T22:29:09Z</time>
      </trkpt>
      <trkpt lat="46.1199" lon="1.85138">
        <ele>562</ele>
        <time>2016-12-12T22:31:09Z</time>
      </trkpt>
      <trkpt lat="46.11989" lon="1.85138">
        <ele>562</ele>
        <time>2016-12-12T22:33:09Z</time>
      </trkpt>
      <trkpt lat="46.11988" lon="1.85136">
        <ele>562</ele>
        <time>2016-12-12T22:35:09Z</time>
      </trkpt>
      <trkpt lat="46.11986" lon="1.85135">
        <ele>562</ele>
        <time>2016-12-12T22:37:09Z</time>
      </trkpt>
      <trkpt lat="46.11985" lon="1.85133">
        <ele>561</ele>
        <time>2016-12-12T22:39:09Z</time>
      </trkpt>
      <trkpt lat="46.11984" lon="1.85128">
        <ele>561</ele>
        <time>2016-12-12T22:41:09Z</time>
      </trkpt>
      <trkpt lat="46.11982" lon="1.85125">
        <ele>561</ele>
        <time>2016-12-12T22:43:09Z</time>
      </trkpt>
      <trkpt lat="46.11981" lon="1.85125">
        <ele>561</ele>
        <time>2016-12-12T22:45:09Z</time>
      </trkpt>
      <trkpt lat="46.11981" lon="1.85123">
        <ele>561</ele>
        <time>2016-12-12T22:47:09Z</time>
      </trkpt>
      <trkpt lat="46.11982" lon="1.85123">
        <ele>561</ele>
        <time>2016-12-12T22:49:09Z</time>
      </trkpt>
      <trkpt lat="46.11976" lon="1.85131">
        <ele>561</ele>
        <time>2016-12-12T22:51:09Z</time>
      </trkpt>
      <trkpt lat="46.11973" lon="1.85134">
        <ele>561</ele>
        <time>2016-12-12T22:53:09Z</time>
      </trkpt>
      <trkpt lat="46.11974" lon="1.85136">
        <ele>561</ele>
        <time>2016-12-12T22:55:09Z</time>
      </trkpt>
      <trkpt lat="46.11973" lon="1.85137">
        <ele>561</ele>
        <time>2016-12-12T22:57:09Z</time>
      </trkpt>
      <trkpt lat="46.11973" lon="1.85144">
        <ele>561</ele>
        <time>2016-12-12T22:59:09Z</time>
      </trkpt>
      <trkpt lat="46.11974" lon="1.85155">
        <ele>561</ele>
        <time>2016-12-12T23:01:09Z</time>
      </trkpt>
      <trkpt lat="46.11977" lon="1.85161">
        <ele>561</ele>
        <time>2016-12-12T23:03:09Z</time>
      </trkpt>
      <trkpt lat="46.11979" lon="1.85169">
        <ele>561</ele>
        <time>2016-12-12T23:05:09Z</time>
      </trkpt>
      <trkpt lat="46.11979" lon="1.85172">
        <ele>561</ele>
        <time>2016-12-12T23:07:09Z</time>
      </trkpt>
      <trkpt lat="46.11983" lon="1.85185">
        <ele>561</ele>
        <time>2016-12-12T23:09:09Z</time>
      </trkpt>
      <trkpt lat="46.11988" lon="1.85194">
        <ele>561</ele>
        <time>2016-12-12T23:11:09Z</time>
      </trkpt>
      <trkpt lat="46.1199" lon="1.85202">
        <ele>561</ele>
        <time>2016-12-12T23:13:09Z</time>
      </trkpt>
      <trkpt lat="46.11999" lon="1.85214">
        <ele>561</ele>
        <time>2016-12-12T23:15:09Z</time>
      </trkpt>
      <trkpt lat="46.12001" lon="1.85221">
        <ele>561</ele>
        <time>2016-12-12T23:17:09Z</time>
      </trkpt>
      <trkpt lat="46.12006" lon="1.85228">
        <ele>562</ele>
        <time>2016-12-12T23:19:09Z</time>
      </trkpt>
      <trkpt lat="46.12008" lon="1.85234">
        <ele>562</ele>
        <time>2016-12-12T23:21:09Z</time>
      </trkpt>
      <trkpt lat="46.1201" lon="1.85238">
        <ele>562</ele>
        <time>2016-12-12T23:23:09Z</time>
      </trkpt>
      <trkpt lat="46.1201" lon="1.85242">
        <ele>562</ele>
        <time>2016-12-12T23:25:09Z</time>
      </trkpt>
      <trkpt lat="46.12012" lon="1.85244">
        <ele>562</ele>
        <time>2016-12-12T23:27:09Z</time>
      </trkpt>
      <trkpt lat="46.12012" lon="1.85247">
        <ele>562</ele>
        <time>2016-12-12T23:29:09Z</time>
      </trkpt>
      <trkpt lat="46.12014" lon="1.85253">
        <ele>562</ele>
        <time>2016-12-12T23:31:09Z</time>
      </trkpt>
      <trkpt lat="46.12015" lon="1.85257">
        <ele>562</ele>
        <time>2016-12-12T23:33:09Z</time>
      </trkpt>
      <trkpt lat="46.12016" lon="1.8526">
        <ele>562</ele>
        <time>2016-12-12T23:35:09Z</time>
      </trkpt>
      <trkpt lat="46.12018" lon="1.85265">
        <ele>561</ele>
        <time>2016-12-12T23:37:09Z</time>
      </trkpt>
      <trkpt lat="46.12019" lon="1.85269">
        <ele>561</ele>
        <time>2016-12-12T23:39:09Z</time>
      </trkpt>
      <trkpt lat="46.12024" lon="1.85278">
        <ele>561</ele>
        <time>2016-12-12T23:41:09Z</time>
      </trkpt>
      <trkpt lat="46.12026" lon="1.85284">
        <ele>560</ele>
        <time>2016-12-12T23:43:09Z</time>
      </trkpt>
      <trkpt lat="46.12029" lon="1.85289">
        <ele>560</ele>
        <time>2016-12-12T23:45:09Z</time>
      </trkpt>
      <trkpt lat="46.12037" lon="1.85299">
        <ele>561</ele>
        <time>2016-12-12T23:47:09Z</time>
      </trkpt>
      <trkpt lat="46.1204" lon="1.85302">
        <ele>561</ele>
        <time>2016-12-12T23:49:09Z</time>
      </trkpt>
      <trkpt lat="46.12043" lon="1.85302">
        <ele>562</ele>
        <time>2016-12-12T23:51:09Z</time>
      </trkpt>
      <trkpt lat="46.12043" lon="1.85307">
        <ele>561</ele>
        <time>2016-12-12T23:53:09Z</time>
      </trkpt>
      <trkpt lat="46.12045" lon="1.8531">
        <ele>561</ele>
        <time>2016-12-12T23:55:09Z</time>
      </trkpt>
      <trkpt lat="46.12046" lon="1.85311">
        <ele>562</ele>
        <time>2016-12-12T23:57:09Z</time>
      </trkpt>
      <trkpt lat="46.12051" lon="1.85319">
        <ele>562</ele>
        <time>2016-12-12T23:59:09Z</time>
      </trkpt>
      <trkpt lat="46.12054" lon="1.85326">
        <ele>562</ele>
        <time>2016-12-13T00:01:09Z</time>
      </trkpt>
      <trkpt lat="46.12053" lon="1.85331">
        <ele>561</ele>
        <time>2016-12-13T00:03:09Z</time>
      </trkpt>
      <trkpt lat="46.12054" lon="1.85334">
        <ele>561</ele>
        <time>2016-12-13T00:05:09Z</time>
      </trkpt>
      <trkpt lat="46.12053" lon="1.85343">
        <ele>560</ele>
        <time>2016-12-13T00:07:09Z</time>
      </trkpt>
      <trkpt lat="46.12052" lon="1.85348">
        <ele>560</ele>
        <time>2016-12-13T00:09:09Z</time>
      </trkpt>
      <trkpt lat="46.12051" lon="1.85349">
        <ele>559</ele>
        <time>2016-12-13T00:11:09Z</time>
      </trkpt>
      <trkpt lat="46.12051" lon="1.85353">
        <ele>559</ele>
        <time>2016-12-13T00:13:09Z</time>
      </trkpt>
      <trkpt lat="46.12051" lon="1.85356">
        <ele>559</ele>
        <time>2016-12-13T00:15:09Z</time>
      </trkpt>
      <trkpt lat="46.1205" lon="1.85358">
        <ele>559</ele>
        <time>2016-12-13T00:17:09Z</time>
      </trkpt>
      <trkpt lat="46.12051" lon="1.85363">
        <ele>559</ele>
        <time>2016-12-13T00:19:09Z</time>
      </trkpt>
      <trkpt lat="46.12051" lon="1.85372">
        <ele>558</ele>
        <time>2016-12-13T00:21:09Z</time>
      </trkpt>
      <trkpt lat="46.12051" lon="1.85375">
        <ele>558</ele>
        <time>2016-12-13T00:23:09Z</time>
      </trkpt>
      <trkpt lat="46.12052" lon="1.85379">
        <ele>558</ele>
        <time>2016-12-13T00:25:09Z</time>
      </trkpt>
      <trkpt lat="46.12051" lon="1.85383">
        <ele>557</ele>
        <time>2016-12-13T00:27:09Z</time>
      </trkpt>
      <trkpt lat="46.12052" lon="1.85392">
        <ele>557</ele>
        <time>2016-12-13T00:29:09Z</time>
      </trkpt>
      <trkpt lat="46.12052" lon="1.85401">
        <ele>557</ele>
        <time>2016-12-13T00:31:09Z</time>
      </trkpt>
      <trkpt lat="46.12051" lon="1.85408">
        <ele>556</ele>
        <time>2016-12-13T00:33:09Z</time>
      </trkpt>
      <trkpt lat="46.1205" lon="1.85411">
        <ele>556</ele>
        <time>2016-12-13T00:35:09Z</time>
      </trkpt>
      <trkpt lat="46.12046" lon="1.85417">
        <ele>555</ele>
        <time>2016-12-13T00:37:09Z</time>
      </trkpt>
      <trkpt lat="46.12044" lon="1.85423">
        <ele>555</ele>
        <time>2016-12-13T00:39:09Z</time>
      </trkpt>
      <trkpt lat="46.1204" lon="1.85432">
        <ele>555</ele>
        <time>2016-12-13T00:41:09Z</time>
      </trkpt>
      <trkpt lat="46.12039" lon="1.85434">
        <ele>555</ele>
        <time>2016-12-13T00:43:09Z</time>
      </trkpt>
      <trkpt lat="46.12038" lon="1.85438">
        <ele>556</ele>
        <time>2016-12-13T00:45:09Z</time>
      </trkpt>
      <trkpt lat="46.12037" lon="1.85445">
        <ele>556</ele>
        <time>2016-12-13T00:47:09Z</time>
      </trkpt>
      <trkpt lat="46.12034" lon="1.85449">
        <ele>556</ele>
        <time>2016-12-13T00:49:09Z</time>
      </trkpt>
      <trkpt lat="46.12032" lon="1.85453">
        <ele>556</ele>
        <time>2016-12-13T00:51:09Z</time>
      </trkpt>
      <trkpt lat="46.12027" lon="1.85463">
        <ele>557</ele>
        <time>2016-12-13T00:53:09Z</time>
      </trkpt>
      <trkpt lat="46.12022" lon="1.85471">
        <ele>557</ele>
        <time>2016-12-13T00:55:09Z</time>
      </trkpt>
      <trkpt lat="46.12019" lon="1.85473">
        <ele>557</ele>
        <time>2016-12-13T00:57:09Z</time>
      </trkpt>
      <trkpt lat="46.12016" lon="1.85475">
        <ele>556</ele>
        <time>2016-12-13T00:59:09Z</time>
      </trkpt>
      <trkpt lat="46.12011" lon="1.85478">
        <ele>556</ele>
        <time>2016-12-13T01:01:09Z</time>
      </trkpt>
      <trkpt lat="46.12009" lon="1.85482">
        <ele>556</ele>
        <time>2016-12-13T01:03:09Z</time>
      </trkpt>
      <trkpt lat="46.12006" lon="1.85484">
        <ele>556</ele>
        <time>2016-12-13T01:05:09Z</time>
      </trkpt>
      <trkpt lat="46.12002" lon="1.85487">
        <ele>555</ele>
        <time>2016-12-13T01:07:09Z</time>
      </trkpt>
      <trkpt lat="46.11996" lon="1.85494">
        <ele>555</ele>
        <time>2016-12-13T01:09:09Z</time>
      </trkpt>
      <trkpt lat="46.11994" lon="1.85497">
        <ele>555</ele>
        <time>2016-12-13T01:11:09Z</time>
      </trkpt>
      <trkpt lat="46.11992" lon="1.855">
        <ele>556</ele>
        <time>2016-12-13T01:13:09Z</time>
      </trkpt>
      <trkpt lat="46.11989" lon="1.85503">
        <ele>555</ele>
        <time>2016-12-13T01:15:09Z</time>
      </trkpt>
      <trkpt lat="46.11987" lon="1.85506">
        <ele>556</ele>
        <time>2016-12-13T01:17:09Z</time>
      </trkpt>
      <trkpt lat="46.11982" lon="1.8551">
        <ele>555</ele>
        <time>2016-12-13T01:19:09Z</time>
      </trkpt>
      <trkpt lat="46.11974" lon="1.85518">
        <ele>555</ele>
        <time>2016-12-13T01:21:09Z</time>
      </trkpt>
      <trkpt lat="46.11971" lon="1.85522">
        <ele>555</ele>
        <time>2016-12-13T01:23:09Z</time>
      </trkpt>
      <trkpt lat="46.11966" lon="1.85531">
        <ele>556</ele>
        <time>2016-12-13T01:25:09Z</time>
      </trkpt>
      <trkpt lat="46.11964" lon="1.85535">
        <ele>556</ele>
        <time>2016-12-13T01:27:09Z</time>
      </trkpt>
      <trkpt lat="46.11959" lon="1.8554">
        <ele>556</ele>
        <time>2016-12-13T01:29:09Z</time>
      </trkpt>
      <trkpt lat="46.11957" lon="1.85544">
        <ele>556</ele>
        <time>2016-12-13T01:31:09Z</time>
      </trkpt>
      <trkpt lat="46.11949" lon="1.85555">
        <ele>556</ele>
        <time>2016-12-13T01:33:09Z</time>
      </trkpt>
      <trkpt lat="46.11948" lon="1.85555">
        <ele>556</ele>
        <time>2016-12-13T01:35:09Z</time>
      </trkpt>
      <trkpt lat="46.11946" lon="1.85559">
        <ele>556</ele>
        <time>2016-12-13T01:37:09Z</time>
      </trkpt>
      <trkpt lat="46.11944" lon="1.8556">
        <ele>556</ele>
        <time>2016-12-13T01:39:09Z</time>
      </trkpt>
      <trkpt lat="46.11942" lon="1.85563">
        <ele>556</ele>
        <time>2016-12-13T01:41:09Z</time>
      </trkpt>
      <trkpt lat="46.11941" lon="1.85564">
        <ele>556</ele>
        <time>2016-12-13T01:43:09Z</time>
      </trkpt>
      <trkpt lat="46.11938" lon="1.85569">
        <ele>556</ele>
        <time>2016-12-13T01:45:09Z</time>
      </trkpt>
      <trkpt lat="46.11937" lon="1.85571">
        <ele>556</ele>
        <time>2016-12-13T01:47:09Z</time>
      </trkpt>
      <trkpt lat="46.11934" lon="1.85579">
        <ele>557</ele>
        <time>2016-12-13T01:49:09Z</time>
      </trkpt>
      <trkpt lat="46.11933" lon="1.85584">
        <ele>557</ele>
        <time>2016-12-13T01:51:09Z</time>
      </trkpt>
      <trkpt lat="46.1193" lon="1.85591">
        <ele>557</ele>
        <time>2016-12-13T01:53:09Z</time>
      </trkpt>
      <trkpt lat="46.11928" lon="1.85595">
        <ele>556</ele>
        <time>2016-12-13T01:55:09Z</time>
      </trkpt>
      <trkpt lat="46.11924" lon="1.85602">
        <ele>556</ele>
        <time>2016-12-13T01:57:09Z</time>
      </trkpt>
      <trkpt lat="46.1192" lon="1.85604">
        <ele>555</ele>
        <time>2016-12-13T01:59:09Z</time>
      </trkpt>
      <trkpt lat="46.11916" lon="1.8561">
        <ele>554</ele>
        <time>2016-12-13T02:01:09Z</time>
      </trkpt>
      <trkpt lat="46.1191" lon="1.85616">
        <ele>553</ele>
        <time>2016-12-13T02:03:09Z</time>
      </trkpt>
      <trkpt lat="46.11908" lon="1.85618">
        <ele>553</ele>
        <time>2016-12-13T02:05:09Z</time>
      </trkpt>
      <trkpt lat="46.11903" lon="1.85626">
        <ele>552</ele>
        <time>2016-12-13T02:07:09Z</time>
      </trkpt>
      <trkpt lat="46.11898" lon="1.85629">
        <ele>552</ele>
        <time>2016-12-13T02:09:09Z</time>
      </trkpt>
      <trkpt lat="46.11897" lon="1.85632">
        <ele>552</ele>
        <time>2016-12-13T02:11:09Z</time>
      </trkpt>
      <trkpt lat="46.11893" lon="1.85632">
        <ele>551</ele>
        <time>2016-12-13T02:13:09Z</time>
      </trkpt>
      <trkpt lat="46.11889" lon="1.85633">
        <ele>550</ele>
        <time>2016-12-13T02:15:09Z</time>
      </trkpt>
      <trkpt lat="46.11886" lon="1.85638">
        <ele>550</ele>
        <time>2016-12-13T02:17:09Z</time>
      </trkpt>
      <trkpt lat="46.11881" lon="1.85648">
        <ele>549</ele>
        <time>2016-12-13T02:19:09Z</time>
      </trkpt>
      <trkpt lat="46.1188" lon="1.85649">
        <ele>549</ele>
        <time>2016-12-13T02:21:09Z</time>
      </trkpt>
      <trkpt lat="46.11877" lon="1.85651">
        <ele>549</ele>
        <time>2016-12-13T02:23:09Z</time>
      </trkpt>
      <trkpt lat="46.11871" lon="1.85653">
        <ele>548</ele>
        <time>2016-12-13T02:25:09Z</time>
      </trkpt>
      <trkpt lat="46.11865" lon="1.85655">
        <ele>547</ele>
        <time>2016-12-13T02:27:09Z</time>
      </trkpt>
      <trkpt lat="46.1186" lon="1.85659">
        <ele>547</ele>
        <time>2016-12-13T02:29:09Z</time>
      </trkpt>
      <trkpt lat="46.11855" lon="1.85664">
        <ele>546</ele>
        <time>2016-12-13T02:31:09Z</time>
      </trkpt>
      <trkpt lat="46.11851" lon="1.85667">
        <ele>546</ele>
        <time>2016-12-13T02:33:09Z</time>
      </trkpt>
      <trkpt lat="46.11847" lon="1.85671">
        <ele>545</ele>
        <time>2016-12-13T02:35:09Z</time>
      </trkpt>
      <trkpt lat="46.11838" lon="1.85681">
        <ele>542</ele>
        <time>2016-12-13T02:37:09Z</time>
      </trkpt>
      <trkpt lat="46.11831" lon="1.85685">
        <ele>541</ele>
        <time>2016-12-13T02:39:09Z</time>
      </trkpt>
      <trkpt lat="46.11828" lon="1.85689">
        <ele>541</ele>
        <time>2016-12-13T02:41:09Z</time>
      </trkpt>
      <trkpt lat="46.11818" lon="1.85697">
        <ele>540</ele>
        <time>2016-12-13T02:43:09Z</time>
      </trkpt>
      <trkpt lat="46.11815" lon="1.857">
        <ele>539</ele>
        <time>2016-12-13T02:45:09Z</time>
      </trkpt>
      <trkpt lat="46.1181" lon="1.85703">
        <ele>539</ele>
        <time>2016-12-13T02:47:09Z</time>
      </trkpt>
      <trkpt lat="46.11808" lon="1.85703">
        <ele>539</ele>
        <time>2016-12-13T02:49:09Z</time>
      </trkpt>
      <trkpt lat="46.118" lon="1.85704">
        <ele>539</ele>
        <time>2016-12-13T02:51:09Z</time>
      </trkpt>
      <trkpt lat="46.11795" lon="1.85703">
        <ele>539</ele>
        <time>2016-12-13T02:53:09Z</time>
      </trkpt>
      <trkpt lat="46.11784" lon="1.85709">
        <ele>539</ele>
        <time>2016-12-13T02:55:09Z</time>
      </trkpt>
      <trkpt lat="46.11781" lon="1.8571">
        <ele>539</ele>
        <time>2016-12-13T02:57:09Z</time>
      </trkpt>
      <trkpt lat="46.11778" lon="1.85712">
        <ele>539</ele>
        <time>2016-12-13T02:59:09Z</time>
      </trkpt>
      <trkpt lat="46.11774" lon="1.85714">
        <ele>539</ele>
        <time>2016-12-13T03:01:09Z</time>
      </trkpt>
      <trkpt lat="46.11768" lon="1.85715">
        <ele>539</ele>
        <time>2016-12-13T03:03:09Z</time>
      </trkpt>
      <trkpt lat="46.11765" lon="1.85715">
        <ele>539</ele>
        <time>2016-12-13T03:05:09Z</time>
      </trkpt>
      <trkpt lat="46.1176" lon="1.85714">
        <ele>539</ele>
        <time>2016-12-13T03:07:09Z</time>
      </trkpt>
      <trkpt lat="46.11746" lon="1.85715">
        <ele>539</ele>
        <time>2016-12-13T03:09:09Z</time>
      </trkpt>
      <trkpt lat="46.11736" lon="1.85715">
        <ele>538</ele>
        <time>2016-12-13T03:11:09Z</time>
      </trkpt>
      <trkpt lat="46.11733" lon="1.85716">
        <ele>538</ele>
        <time>2016-12-13T03:13:09Z</time>
      </trkpt>
      <trkpt lat="46.11727" lon="1.85717">
        <ele>537</ele>
        <time>2016-12-13T03:15:09Z</time>
      </trkpt>
      <trkpt lat="46.11725" lon="1.85718">
        <ele>537</ele>
        <time>2016-12-13T03:17:09Z</time>
      </trkpt>
      <trkpt lat="46.11723" lon="1.85719">
        <ele>537</ele>
        <time>2016-12-13T03:19:09Z</time>
      </trkpt>
      <trkpt lat="46.11721" lon="1.85722">
        <ele>537</ele>
        <time>2016-12-13T03:21:09Z</time>
      </trkpt>
      <trkpt lat="46.11717" lon="1.85724">
        <ele>536</ele>
        <time>2016-12-13T03:23:09Z</time>
      </trkpt>
      <trkpt lat="46.11715" lon="1.85726">
        <ele>536</ele>
        <time>2016-12-13T03:25:09Z</time>
      </trkpt>
      <trkpt lat="46.11712" lon="1.85729">
        <ele>536</ele>
        <time>2016-12-13T03:27:09Z</time>
      </trkpt>
      <trkpt lat="46.1171" lon="1.85731">
        <ele>536</ele>
        <time>2016-12-13T03:29:09Z</time>
      </trkpt>
      <trkpt lat="46.11705" lon="1.85733">
        <ele>535</ele>
        <time>2016-12-13T03:31:09Z</time>
      </trkpt>
      <trkpt lat="46.11703" lon="1.85734">
        <ele>535</ele>
        <time>2016-12-13T03:33:09Z</time>
      </trkpt>
      <trkpt lat="46.11702" lon="1.85736">
        <ele>535</ele>
        <time>2016-12-13T03:35:09Z</time>
      </trkpt>
      <trkpt lat="46.11702" lon="1.85738">
        <ele>535</ele>
        <time>2016-12-13T03:37:09Z</time>
      </trkpt>
      <trkpt lat="46.11702" lon="1.8574">
        <ele>535</ele>
        <time>2016-12-13T03:39:09Z</time>
      </trkpt>
      <trkpt lat="46.11701" lon="1.85742">
        <ele>535</ele>
        <time>2016-12-13T03:41:09Z</time>
      </trkpt>
      <trkpt lat="46.11701" lon="1.85745">
        <ele>535</ele>
        <time>2016-12-13T03:43:09Z</time>
      </trkpt>
      <trkpt lat="46.11703" lon="1.85751">
        <ele>535</ele>
        <time>2016-12-13T03:45:09Z</time>
      </trkpt>
      <trkpt lat="46.11703" lon="1.85754">
        <ele>535</ele>
        <time>2016-12-13T03:47:09Z</time>
      </trkpt>
      <trkpt lat="46.11702" lon="1.85756">
        <ele>534</ele>
        <time>2016-12-13T03:49:09Z</time>
      </trkpt>
      <trkpt lat="46.11701" lon="1.85759">
        <ele>534</ele>
        <time>2016-12-13T03:51:09Z</time>
      </trkpt>
      <trkpt lat="46.11701" lon="1.85764">
        <ele>533</ele>
        <time>2016-12-13T03:53:09Z</time>
      </trkpt>
      <trkpt lat="46.117" lon="1.8577">
        <ele>532</ele>
        <time>2016-12-13T03:55:09Z</time>
      </trkpt>
      <trkpt lat="46.11698" lon="1.85773">
        <ele>532</ele>
        <time>2016-12-13T03:57:09Z</time>
      </trkpt>
      <trkpt lat="46.11696" lon="1.85776">
        <ele>531</ele>
        <time>2016-12-13T03:59:09Z</time>
      </trkpt>
      <trkpt lat="46.11692" lon="1.85781">
        <ele>531</ele>
        <time>2016-12-13T04:01:09Z</time>
      </trkpt>
      <trkpt lat="46.1169" lon="1.85784">
        <ele>530</ele>
        <time>2016-12-13T04:03:09Z</time>
      </trkpt>
      <trkpt lat="46.11687" lon="1.85786">
        <ele>530</ele>
        <time>2016-12-13T04:05:09Z</time>
      </trkpt>
      <trkpt lat="46.11677" lon="1.85791">
        <ele>528</ele>
        <time>2016-12-13T04:07:09Z</time>
      </trkpt>
      <trkpt lat="46.11673" lon="1.85795">
        <ele>528</ele>
        <time>2016-12-13T04:09:09Z</time>
      </trkpt>
      <trkpt lat="46.11669" lon="1.85799">
        <ele>527</ele>
        <time>2016-12-13T04:11:09Z</time>
      </trkpt>
      <trkpt lat="46.11667" lon="1.85801">
        <ele>527</ele>
        <time>2016-12-13T04:13:09Z</time>
      </trkpt>
      <trkpt lat="46.11664" lon="1.85809">
        <ele>526</ele>
        <time>2016-12-13T04:15:09Z</time>
      </trkpt>
      <trkpt lat="46.11663" lon="1.85811">
        <ele>525</ele>
        <time>2016-12-13T04:17:09Z</time>
      </trkpt>
      <trkpt lat="46.11661" lon="1.85812">
        <ele>525</ele>
        <time>2016-12-13T04:19:09Z</time>
      </trkpt>
      <trkpt lat="46.11655" lon="1.85813">
        <ele>525</ele>
        <time>2016-12-13T04:21:09Z</time>
      </trkpt>
      <trkpt lat="46.11652" lon="1.85815">
        <ele>525</ele>
        <time>2016-12-13T04:23:09Z</time>
      </trkpt>
      <trkpt lat="46.11649" lon="1.85815">
        <ele>525</ele>
        <time>2016-12-13T04:25:09Z</time>
      </trkpt>
      <trkpt lat="46.11644" lon="1.85815">
        <ele>525</ele>
        <time>2016-12-13T04:27:09Z</time>
      </trkpt>
      <trkpt lat="46.11641" lon="1.85816">
        <ele>525</ele>
        <time>2016-12-13T04:29:09Z</time>
      </trkpt>
      <trkpt lat="46.11639" lon="1.85817">
        <ele>525</ele>
        <time>2016-12-13T04:31:09Z</time>
      </trkpt>
      <trkpt lat="46.11634" lon="1.85819">
        <ele>524</ele>
        <time>2016-12-13T04:33:09Z</time>
      </trkpt>
      <trkpt lat="46.11625" lon="1.85824">
        <ele>524</ele>
        <time>2016-12-13T04:35:09Z</time>
      </trkpt>
      <trkpt lat="46.11623" lon="1.85826">
        <ele>524</ele>
        <time>2016-12-13T04:37:09Z</time>
      </trkpt>
      <trkpt lat="46.1162" lon="1.8583">
        <ele>524</ele>
        <time>2016-12-13T04:39:09Z</time>
      </trkpt>
      <trkpt lat="46.11617" lon="1.85832">
        <ele>524</ele>
        <time>2016-12-13T04:41:09Z</time>
      </trkpt>
      <trkpt lat="46.11612" lon="1.85836">
        <ele>523</ele>
        <time>2016-12-13T04:43:09Z</time>
      </trkpt>
      <trkpt lat="46.11605" lon="1.85839">
        <ele>523</ele>
        <time>2016-12-13T04:45:09Z</time>
      </trkpt>
      <trkpt lat="46.11603" lon="1.85841">
        <ele>522</ele>
        <time>2016-12-13T04:47:09Z</time>
      </trkpt>
      <trkpt lat="46.11599" lon="1.85845">
        <ele>522</ele>
        <time>2016-12-13T04:49:09Z</time>
      </trkpt>
      <trkpt lat="46.11597" lon="1.85847">
        <ele>521</ele>
        <time>2016-12-13T04:51:09Z</time>
      </trkpt>
      <trkpt lat="46.11594" lon="1.85849">
        <ele>521</ele>
        <time>2016-12-13T04:53:09Z</time>
      </trkpt>
      <trkpt lat="46.11592" lon="1.8585">
        <ele>521</ele>
        <time>2016-12-13T04:55:09Z</time>
      </trkpt>
      <trkpt lat="46.11587" lon="1.85851">
        <ele>521</ele>
        <time>2016-12-13T04:57:09Z</time>
      </trkpt>
      <trkpt lat="46.11584" lon="1.85851">
        <ele>521</ele>
        <time>2016-12-13T04:59:09Z</time>
      </trkpt>
      <trkpt lat="46.11582" lon="1.85851">
        <ele>521</ele>
        <time>2016-12-13T05:01:09Z</time>
      </trkpt>
      <trkpt lat="46.11576" lon="1.85851">
        <ele>521</ele>
        <time>2016-12-13T05:03:09Z</time>
      </trkpt>
      <trkpt lat="46.11568" lon="1.85852">
        <ele>521</ele>
        <time>2016-12-13T05:05:09Z</time>
      </trkpt>
      <trkpt lat="46.11563" lon="1.85852">
        <ele>521</ele>
        <time>2016-12-13T05:07:09Z</time>
      </trkpt>
      <trkpt lat="46.11555" lon="1.8585">
        <ele>522</ele>
        <time>2016-12-13T05:09:09Z</time>
      </trkpt>
      <trkpt lat="46.11553" lon="1.85849">
        <ele>522</ele>
        <time>2016-12-13T05:11:09Z</time>
      </trkpt>
      <trkpt lat="46.11546" lon="1.85847">
        <ele>522</ele>
        <time>2016-12-13T05:13:09Z</time>
      </trkpt>
      <trkpt lat="46.11542" lon="1.85848">
        <ele>522</ele>
        <time>2016-12-13T05:15:09Z</time>
      </trkpt>
      <trkpt lat="46.11536" lon="1.85846">
        <ele>523</ele>
        <time>2016-12-13T05:17:09Z</time>
      </trkpt>
      <trkpt lat="46.1153" lon="1.85847">
        <ele>523</ele>
        <time>2016-12-13T05:19:09Z</time>
      </trkpt>
      <trkpt lat="46.11525" lon="1.85846">
        <ele>523</ele>
        <time>2016-12-13T05:21:09Z</time>
      </trkpt>
      <trkpt lat="46.11522" lon="1.85847">
        <ele>523</ele>
        <time>2016-12-13T05:23:09Z</time>
      </trkpt>
      <trkpt lat="46.1152" lon="1.85846">
        <ele>523</ele>
        <time>2016-12-13T05:25:09Z</time>
      </trkpt>
      <trkpt lat="46.11513" lon="1.85847">
        <ele>523</ele>
        <time>2016-12-13T05:27:09Z</time>
      </trkpt>
      <trkpt lat="46.1151" lon="1.85849">
        <ele>523</ele>
        <time>2016-12-13T05:29:09Z</time>
      </trkpt>
      <trkpt lat="46.11505" lon="1.85851">
        <ele>523</ele>
        <time>2016-12-13T05:31:09Z</time>
      </trkpt>
      <trkpt lat="46.11499" lon="1.85852">
        <ele>522</ele>
        <time>2016-12-13T05:33:09Z</time>
      </trkpt>
      <trkpt lat="46.11496" lon="1.85853">
        <ele>522</ele>
        <time>2016-12-13T05:35:09Z</time>
      </trkpt>
      <trkpt lat="46.11491" lon="1.85856">
        <ele>521</ele>
        <time>2016-12-13T05:37:09Z</time>
      </trkpt>
      <trkpt lat="46.11484" lon="1.85859">
        <ele>520</ele>
        <time>2016-12-13T05:39:09Z</time>
      </trkpt>
      <trkpt lat="46.11481" lon="1.8586">
        <ele>520</ele>
        <time>2016-12-13T05:41:09Z</time>
      </trkpt>
      <trkpt lat="46.11478" lon="1.85861">
        <ele>520</ele>
        <time>2016-12-13T05:43:09Z</time>
      </trkpt>
      <trkpt lat="46.11472" lon="1.85862">
        <ele>519</ele>
        <time>2016-12-13T05:45:09Z</time>
      </trkpt>
      <trkpt lat="46.11469" lon="1.85867">
        <ele>519</ele>
        <time>2016-12-13T05:47:09Z</time>
      </trkpt>
      <trkpt lat="46.11464" lon="1.85871">
        <ele>518</ele>
        <time>2016-12-13T05:49:09Z</time>
      </trkpt>
      <trkpt lat="46.11458" lon="1.85874">
        <ele>517</ele>
        <time>2016-12-13T05:51:09Z</time>
      </trkpt>
      <trkpt lat="46.11447" lon="1.85877">
        <ele>516</ele>
        <time>2016-12-13T05:53:09Z</time>
      </trkpt>
      <trkpt lat="46.11445" lon="1.85878">
        <ele>516</ele>
        <time>2016-12-13T05:55:09Z</time>
      </trkpt>
      <trkpt lat="46.1144" lon="1.85882">
        <ele>516</ele>
        <time>2016-12-13T05:57:09Z</time>
      </trkpt>
      <trkpt lat="46.11436" lon="1.85884">
        <ele>515</ele>
        <time>2016-12-13T05:59:09Z</time>
      </trkpt>
      <trkpt lat="46.11436" lon="1.85884">
        <ele>515</ele>
        <time>2016-12-13T06:01:09Z</time>
      </trkpt>
      <trkpt lat="46.11431" lon="1.85885">
        <ele>515</ele>
        <time>2016-12-13T06:03:09Z</time>
      </trkpt>
      <trkpt lat="46.11425" lon="1.85886">
        <ele>515</ele>
        <time>2016-12-13T06:05:09Z</time>
      </trkpt>
      <trkpt lat="46.1141" lon="1.85888">
        <ele>514</ele>
        <time>2016-12-13T06:07:09Z</time>
      </trkpt>
      <trkpt lat="46.11406" lon="1.8589">
        <ele>513</ele>
        <time>2016-12-13T06:09:09Z</time>
      </trkpt>
      <trkpt lat="46.11404" lon="1.8589">
        <ele>513</ele>
        <time>2016-12-13T06:11:09Z</time>
      </trkpt>
      <trkpt lat="46.11401" lon="1.8589">
        <ele>513</ele>
        <time>2016-12-13T06:13:09Z</time>
      </trkpt>
      <trkpt lat="46.11401" lon="1.8589">
        <ele>513</ele>
        <time>2016-12-13T06:15:09Z</time>
      </trkpt>
      <trkpt lat="46.114" lon="1.85891">
        <ele>513</ele>
        <time>2016-12-13T06:17:09Z</time>
      </trkpt>
      <trkpt lat="46.11401" lon="1.85891">
        <ele>513</ele>
        <time>2016-12-13T06:19:09Z</time>
      </trkpt>
      <trkpt lat="46.114" lon="1.85893">
        <ele>512</ele>
        <time>2016-12-13T06:21:09Z</time>
      </trkpt>
      <trkpt lat="46.11401" lon="1.85892">
        <ele>513</ele>
        <time>2016-12-13T06:23:09Z</time>
      </trkpt>
      <trkpt lat="46.114" lon="1.85892">
        <ele>512</ele>
        <time>2016-12-13T06:25:09Z</time>
      </trkpt>
      <trkpt lat="46.11399" lon="1.85891">
        <ele>512</ele>
        <time>2016-12-13T06:27:09Z</time>
      </trkpt>
      <trkpt lat="46.11401" lon="1.85892">
        <ele>513</ele>
        <time>2016-12-13T06:29:09Z</time>
      </trkpt>
      <trkpt lat="46.11401" lon="1.85889">
        <ele>513</ele>
        <time>2016-12-13T06:31:09Z</time>
      </trkpt>
      <trkpt lat="46.114" lon="1.85892">
        <ele>512</ele>
        <time>2016-12-13T06:33:09Z</time>
      </trkpt>
      <trkpt lat="46.11398" lon="1.85894">
        <ele>512</ele>
        <time>2016-12-13T06:35:09Z</time>
      </trkpt>
      <trkpt lat="46.11398" lon="1.85896">
        <ele>512</ele>
        <time>2016-12-13T06:37:09Z</time>
      </trkpt>
      <trkpt lat="46.11398" lon="1.85896">
        <ele>512</ele>
        <time>2016-12-13T06:39:09Z</time>
      </trkpt>
      <trkpt lat="46.11398" lon="1.85896">
        <ele>512</ele>
        <time>2016-12-13T06:41:09Z</time>
      </trkpt>
      <trkpt lat="46.11398" lon="1.85896">
        <ele>512</ele>
        <time>2016-12-13T06:43:09Z</time>
      </trkpt>
      <trkpt lat="46.11398" lon="1.85897">
        <ele>512</ele>
        <time>2016-12-13T06:45:09Z</time>
      </trkpt>
      <trkpt lat="46.11396" lon="1.85892">
        <ele>512</ele>
        <time>2016-12-13T06:47:09Z</time>
      </trkpt>
      <trkpt lat="46.11396" lon="1.85895">
        <ele>512</ele>
        <time>2016-12-13T06:49:09Z</time>
      </trkpt>
      <trkpt lat="46.11395" lon="1.85899">
        <ele>512</ele>
        <time>2016-12-13T06:51:09Z</time>
      </trkpt>
      <trkpt lat="46.11395" lon="1.85895">
        <ele>512</ele>
        <time>2016-12-13T06:53:09Z</time>
      </trkpt>
      <trkpt lat="46.11394" lon="1.85894">
        <ele>512</ele>
        <time>2016-12-13T06:55:09Z</time>
      </trkpt>
      <trkpt lat="46.11393" lon="1.85891">
        <ele>512</ele>
        <time>2016-12-13T06:57:09Z</time>
      </trkpt>
      <trkpt lat="46.11394" lon="1.85891">
        <ele>512</ele>
        <time>2016-12-13T06:59:09Z</time>
      </trkpt>
      <trkpt lat="46.11393" lon="1.85891">
        <ele>512</ele>
        <time>2016-12-13T07:01:09Z</time>
      </trkpt>
      <trkpt lat="46.11394" lon="1.85891">
        <ele>512</ele>
        <time>2016-12-13T07:03:09Z</time>
      </trkpt>
      <trkpt lat="46.11393" lon="1.8589">
        <ele>512</ele>
        <time>2016-12-13T07:05:09Z</time>
      </trkpt>
      <trkpt lat="46.11393" lon="1.85891">
        <ele>512</ele>
        <time>2016-12-13T07:07:09Z</time>
      </trkpt>
      <trkpt lat="46.11392" lon="1.85889">
        <ele>512</ele>
        <time>2016-12-13T07:09:09Z</time>
      </trkpt>
      <trkpt lat="46.11391" lon="1.85885">
        <ele>512</ele>
        <time>2016-12-13T07:11:09Z</time>
      </trkpt>
      <trkpt lat="46.1139" lon="1.85881">
        <ele>512</ele>
        <time>2016-12-13T07:13:09Z</time>
      </trkpt>
      <trkpt lat="46.1139" lon="1.85878">
        <ele>512</ele>
        <time>2016-12-13T07:15:09Z</time>
      </trkpt>
      <trkpt lat="46.1139" lon="1.85879">
        <ele>512</ele>
        <time>2016-12-13T07:17:09Z</time>
      </trkpt>
      <trkpt lat="46.11389" lon="1.85867">
        <ele>512</ele>
        <time>2016-12-13T07:19:09Z</time>
      </trkpt>
      <trkpt lat="46.11389" lon="1.85858">
        <ele>513</ele>
        <time>2016-12-13T07:21:09Z</time>
      </trkpt>
      <trkpt lat="46.11388" lon="1.85854">
        <ele>513</ele>
        <time>2016-12-13T07:23:09Z</time>
      </trkpt>
      <trkpt lat="46.11388" lon="1.85849">
        <ele>513</ele>
        <time>2016-12-13T07:25:09Z</time>
      </trkpt>
      <trkpt lat="46.11387" lon="1.8584">
        <ele>513</ele>
        <time>2016-12-13T07:27:09Z</time>
      </trkpt>
      <trkpt lat="46.11386" lon="1.85836">
        <ele>513</ele>
        <time>2016-12-13T07:29:09Z</time>
      </trkpt>
      <trkpt lat="46.11386" lon="1.85833">
        <ele>513</ele>
        <time>2016-12-13T07:31:09Z</time>
      </trkpt>
      <trkpt lat="46.11382" lon="1.85816">
        <ele>513</ele>
        <time>2016-12-13T07:33:09Z</time>
      </trkpt>
      <trkpt lat="46.11379" lon="1.85808">
        <ele>512</ele>
        <time>2016-12-13T07:35:09Z</time>
      </trkpt>
      <trkpt lat="46.11378" lon="1.858">
        <ele>512</ele>
        <time>2016-12-13T07:37:09Z</time>
      </trkpt>
      <trkpt lat="46.11375" lon="1.85792">
        <ele>512</ele>
        <time>2016-12-13T07:39:09Z</time>
      </trkpt>
      <trkpt lat="46.11374" lon="1.85789">
        <ele>511</ele>
        <time>2016-12-13T07:41:09Z</time>
      </trkpt>
      <trkpt lat="46.11367" lon="1.85777">
        <ele>511</ele>
        <time>2016-12-13T07:43:09Z</time>
      </trkpt>
      <trkpt lat="46.11361" lon="1.85768">
        <ele>510</ele>
        <time>2016-12-13T07:45:09Z</time>
      </trkpt>
      <trkpt lat="46.11356" lon="1.8576">
        <ele>510</ele>
        <time>2016-12-13T07:47:09Z</time>
      </trkpt>
      <trkpt lat="46.11354" lon="1.85757">
        <ele>510</ele>
        <time>2016-12-13T07:49:09Z</time>
      </trkpt>
      <trkpt lat="46.11353" lon="1.85754">
        <ele>510</ele>
        <time>2016-12-13T07:51:09Z</time>
      </trkpt>
      <trkpt lat="46.11351" lon="1.85752">
        <ele>510</ele>
        <time>2016-12-13T07:53:09Z</time>
      </trkpt>
      <trkpt lat="46.11343" lon="1.85745">
        <ele>509</ele>
        <time>2016-12-13T07:55:09Z</time>
      </trkpt>
      <trkpt lat="46.11333" lon="1.85734">
        <ele>508</ele>
        <time>2016-12-13T07:57:09Z</time>
      </trkpt>
      <trkpt lat="46.11327" lon="1.85728">
        <ele>508</ele>
        <time>2016-12-13T07:59:09Z</time>
      </trkpt>
      <trkpt lat="46.11322" lon="1.85722">
        <ele>507</ele>
        <time>2016-12-13T08:01:09Z</time>
      </trkpt>
      <trkpt lat="46.1131" lon="1.85712">
        <ele>506</ele>
        <time>2016-12-13T08:03:09Z</time>
      </trkpt>
      <trkpt lat="46.11302" lon="1.85704">
        <ele>505</ele>
        <time>2016-12-13T08:05:09Z</time>
      </trkpt>
      <trkpt lat="46.11299" lon="1.85701">
        <ele>505</ele>
        <time>2016-12-13T08:07:09Z</time>
      </trkpt>
      <trkpt lat="46.11288" lon="1.85691">
        <ele>504</ele>
        <time>2016-12-13T08:09:09Z</time>
      </trkpt>
      <trkpt lat="46.11286" lon="1.85689">
        <ele>504</ele>
        <time>2016-12-13T08:11:09Z</time>
      </trkpt>
      <trkpt lat="46.11282" lon="1.85688">
        <ele>504</ele>
        <time>2016-12-13T08:13:09Z</time>
      </trkpt>
      <trkpt lat="46.11276" lon="1.85685">
        <ele>503</ele>
        <time>2016-12-13T08:15:09Z</time>
      </trkpt>
      <trkpt lat="46.11273" lon="1.85684">
        <ele>503</ele>
        <time>2016-12-13T08:17:09Z</time>
      </trkpt>
      <trkpt lat="46.11267" lon="1.85683">
        <ele>503</ele>
        <time>2016-12-13T08:19:09Z</time>
      </trkpt>
      <trkpt lat="46.11264" lon="1.85683">
        <ele>503</ele>
        <time>2016-12-13T08:21:09Z</time>
      </trkpt>
      <trkpt lat="46.11255" lon="1.85685">
        <ele>502</ele>
        <time>2016-12-13T08:23:09Z</time>
      </trkpt>
      <trkpt lat="46.11245" lon="1.85685">
        <ele>502</ele>
        <time>2016-12-13T08:25:09Z</time>
      </trkpt>
      <trkpt lat="46.11235" lon="1.85684">
        <ele>502</ele>
        <time>2016-12-13T08:27:09Z</time>
      </trkpt>
      <trkpt lat="46.1123" lon="1.85683">
        <ele>502</ele>
        <time>2016-12-13T08:29:09Z</time>
      </trkpt>
      <trkpt lat="46.11223" lon="1.85683">
        <ele>501</ele>
        <time>2016-12-13T08:31:09Z</time>
      </trkpt>
      <trkpt lat="46.11212" lon="1.85682">
        <ele>501</ele>
        <time>2016-12-13T08:33:09Z</time>
      </trkpt>
      <trkpt lat="46.112" lon="1.85682">
        <ele>501</ele>
        <time>2016-12-13T08:35:09Z</time>
      </trkpt>
      <trkpt lat="46.1119" lon="1.85683">
        <ele>500</ele>
        <time>2016-12-13T08:37:09Z</time>
      </trkpt>
      <trkpt lat="46.11185" lon="1.85683">
        <ele>500</ele>
        <time>2016-12-13T08:39:09Z</time>
      </trkpt>
      <trkpt lat="46.11161" lon="1.85684">
        <ele>500</ele>
        <time>2016-12-13T08:41:09Z</time>
      </trkpt>
      <trkpt lat="46.11152" lon="1.85685">
        <ele>500</ele>
        <time>2016-12-13T08:43:09Z</time>
      </trkpt>
      <trkpt lat="46.11149" lon="1.85685">
        <ele>501</ele>
        <time>2016-12-13T08:45:09Z</time>
      </trkpt>
      <trkpt lat="46.11147" lon="1.85684">
        <ele>501</ele>
        <time>2016-12-13T08:47:09Z</time>
      </trkpt>
      <trkpt lat="46.11142" lon="1.85681">
        <ele>501</ele>
        <time>2016-12-13T08:49:09Z</time>
      </trkpt>
      <trkpt lat="46.11139" lon="1.85679">
        <ele>501</ele>
        <time>2016-12-13T08:51:09Z</time>
      </trkpt>
      <trkpt lat="46.11136" lon="1.85674">
        <ele>502</ele>
        <time>2016-12-13T08:53:09Z</time>
      </trkpt>
      <trkpt lat="46.11135" lon="1.85672">
        <ele>502</ele>
        <time>2016-12-13T08:55:09Z</time>
      </trkpt>
      <trkpt lat="46.11133" lon="1.85661">
        <ele>502</ele>
        <time>2016-12-13T08:57:09Z</time>
      </trkpt>
      <trkpt lat="46.11133" lon="1.85656">
        <ele>502</ele>
        <time>2016-12-13T08:59:09Z</time>
      </trkpt>
      <trkpt lat="46.11133" lon="1.8565">
        <ele>501</ele>
        <time>2016-12-13T09:01:09Z</time>
      </trkpt>
      <trkpt lat="46.11133" lon="1.85645">
        <ele>501</ele>
        <time>2016-12-13T09:03:09Z</time>
      </trkpt>
      <trkpt lat="46.11132" lon="1.8563">
        <ele>500</ele>
        <time>2016-12-13T09:05:09Z</time>
      </trkpt>
      <trkpt lat="46.11133" lon="1.85626">
        <ele>500</ele>
        <time>2016-12-13T09:07:09Z</time>
      </trkpt>
      <trkpt lat="46.11132" lon="1.85624">
        <ele>500</ele>
        <time>2016-12-13T09:09:09Z</time>
      </trkpt>
      <trkpt lat="46.11131" lon="1.85618">
        <ele>499</ele>
        <time>2016-12-13T09:11:09Z</time>
      </trkpt>
      <trkpt lat="46.1113" lon="1.85612">
        <ele>499</ele>
        <time>2016-12-13T09:13:09Z</time>
      </trkpt>
      <trkpt lat="46.11127" lon="1.85603">
        <ele>499</ele>
        <time>2016-12-13T09:15:09Z</time>
      </trkpt>
      <trkpt lat="46.11127" lon="1.85598">
        <ele>498</ele>
        <time>2016-12-13T09:17:09Z</time>
      </trkpt>
      <trkpt lat="46.11127" lon="1.85594">
        <ele>498</ele>
        <time>2016-12-13T09:19:09Z</time>
      </trkpt>
      <trkpt lat="46.11128" lon="1.85583">
        <ele>497</ele>
        <time>2016-12-13T09:21:09Z</time>
      </trkpt>
      <trkpt lat="46.1113" lon="1.85574">
        <ele>497</ele>
        <time>2016-12-13T09:23:09Z</time>
      </trkpt>
      <trkpt lat="46.11131" lon="1.8557">
        <ele>497</ele>
        <time>2016-12-13T09:25:09Z</time>
      </trkpt>
      <trkpt lat="46.11133" lon="1.85566">
        <ele>496</ele>
        <time>2016-12-13T09:27:09Z</time>
      </trkpt>
      <trkpt lat="46.11134" lon="1.85563">
        <ele>496</ele>
        <time>2016-12-13T09:29:09Z</time>
      </trkpt>
      <trkpt lat="46.11135" lon="1.8556">
        <ele>496</ele>
        <time>2016-12-13T09:31:09Z</time>
      </trkpt>
      <trkpt lat="46.1114" lon="1.85546">
        <ele>495</ele>
        <time>2016-12-13T09:33:09Z</time>
      </trkpt>
      <trkpt lat="46.11141" lon="1.85542">
        <ele>495</ele>
        <time>2016-12-13T09:35:09Z</time>
      </trkpt>
      <trkpt lat="46.11142" lon="1.85538">
        <ele>495</ele>
        <time>2016-12-13T09:37:09Z</time>
      </trkpt>
      <trkpt lat="46.11142" lon="1.8553">
        <ele>495</ele>
        <time>2016-12-13T09:39:09Z</time>
      </trkpt>
      <trkpt lat="46.1114" lon="1.85521">
        <ele>495</ele>
        <time>2016-12-13T09:41:09Z</time>
      </trkpt>
      <trkpt lat="46.11138" lon="1.85517">
        <ele>494</ele>
        <time>2016-12-13T09:43:09Z</time>
      </trkpt>
      <trkpt lat="46.11137" lon="1.85514">
        <ele>494</ele>
        <time>2016-12-13T09:45:09Z</time>
      </trkpt>
      <trkpt lat="46.11132" lon="1.8551">
        <ele>494</ele>
        <time>2016-12-13T09:47:09Z</time>
      </trkpt>
      <trkpt lat="46.11126" lon="1.85501">
        <ele>494</ele>
        <time>2016-12-13T09:49:09Z</time>
      </trkpt>
      <trkpt lat="46.11122" lon="1.85496">
        <ele>494</ele>
        <time>2016-12-13T09:51:09Z</time>
      </trkpt>
      <trkpt lat="46.11111" lon="1.85482">
        <ele>494</ele>
        <time>2016-12-13T09:53:09Z</time>
      </trkpt>
      <trkpt lat="46.11105" lon="1.85468">
        <ele>494</ele>
        <time>2016-12-13T09:55:09Z</time>
      </trkpt>
      <trkpt lat="46.11103" lon="1.85465">
        <ele>494</ele>
        <time>2016-12-13T09:57:09Z</time>
      </trkpt>
      <trkpt lat="46.11101" lon="1.85457">
        <ele>495</ele>
        <time>2016-12-13T09:59:09Z</time>
      </trkpt>
      <trkpt lat="46.11097" lon="1.85447">
        <ele>495</ele>
        <time>2016-12-13T10:01:09Z</time>
      </trkpt>
      <trkpt lat="46.11093" lon="1.85436">
        <ele>495</ele>
        <time>2016-12-13T10:03:09Z</time>
      </trkpt>
      <trkpt lat="46.11092" lon="1.85427">
        <ele>496</ele>
        <time>2016-12-13T10:05:09Z</time>
      </trkpt>
      <trkpt lat="46.1109" lon="1.8542">
        <ele>496</ele>
        <time>2016-12-13T10:07:09Z</time>
      </trkpt>
      <trkpt lat="46.11087" lon="1.85408">
        <ele>498</ele>
        <time>2016-12-13T10:09:09Z</time>
      </trkpt>
      <trkpt lat="46.11087" lon="1.85405">
        <ele>498</ele>
        <time>2016-12-13T10:11:09Z</time>
      </trkpt>
      <trkpt lat="46.11086" lon="1.85397">
        <ele>499</ele>
        <time>2016-12-13T10:13:09Z</time>
      </trkpt>
      <trkpt lat="46.11085" lon="1.85383">
        <ele>502</ele>
        <time>2016-12-13T10:15:09Z</time>
      </trkpt>
      <trkpt lat="46.11084" lon="1.8538">
        <ele>503</ele>
        <time>2016-12-13T10:17:09Z</time>
      </trkpt>
      <trkpt lat="46.11084" lon="1.85376">
        <ele>503</ele>
        <time>2016-12-13T10:19:09Z</time>
      </trkpt>
      <trkpt lat="46.11082" lon="1.85372">
        <ele>504</ele>
        <time>2016-12-13T10:21:09Z</time>
      </trkpt>
      <trkpt lat="46.11074" lon="1.85361">
        <ele>506</ele>
        <time>2016-12-13T10:23:09Z</time>
      </trkpt>
      <trkpt lat="46.11073" lon="1.8536">
        <ele>506</ele>
        <time>2016-12-13T10:25:09Z</time>
      </trkpt>
      <trkpt lat="46.11069" lon="1.85358">
        <ele>506</ele>
        <time>2016-12-13T10:27:09Z</time>
      </trkpt>
      <trkpt lat="46.11059" lon="1.8535">
        <ele>507</ele>
        <time>2016-12-13T10:29:09Z</time>
      </trkpt>
      <trkpt lat="46.11055" lon="1.85344">
        <ele>508</ele>
        <time>2016-12-13T10:31:09Z</time>
      </trkpt>
      <trkpt lat="46.11052" lon="1.85341">
        <ele>508</ele>
        <time>2016-12-13T10:33:09Z</time>
      </trkpt>
      <trkpt lat="46.11049" lon="1.85338">
        <ele>509</ele>
        <time>2016-12-13T10:35:09Z</time>
      </trkpt>
      <trkpt lat="46.11047" lon="1.85337">
        <ele>509</ele>
        <time>2016-12-13T10:37:09Z</time>
      </trkpt>
      <trkpt lat="46.11046" lon="1.85335">
        <ele>509</ele>
        <time>2016-12-13T10:39:09Z</time>
      </trkpt>
      <trkpt lat="46.11045" lon="1.85334">
        <ele>510</ele>
        <time>2016-12-13T10:41:09Z</time>
      </trkpt>
      <trkpt lat="46.11042" lon="1.85332">
        <ele>510</ele>
        <time>2016-12-13T10:43:09Z</time>
      </trkpt>
      <trkpt lat="46.11038" lon="1.85328">
        <ele>510</ele>
        <time>2016-12-13T10:45:09Z</time>
      </trkpt>
      <trkpt lat="46.11035" lon="1.85326">
        <ele>510</ele>
        <time>2016-12-13T10:47:09Z</time>
      </trkpt>
      <trkpt lat="46.11034" lon="1.85325">
        <ele>511</ele>
        <time>2016-12-13T10:49:09Z</time>
      </trkpt>
      <trkpt lat="46.11033" lon="1.85324">
        <ele>511</ele>
        <time>2016-12-13T10:51:09Z</time>
      </trkpt>
      <trkpt lat="46.11028" lon="1.85321">
        <ele>511</ele>
        <time>2016-12-13T10:53:09Z</time>
      </trkpt>
      <trkpt lat="46.11026" lon="1.85319">
        <ele>511</ele>
        <time>2016-12-13T10:55:09Z</time>
      </trkpt>
      <trkpt lat="46.1102" lon="1.85314">
        <ele>512</ele>
        <time>2016-12-13T10:57:09Z</time>
      </trkpt>
      <trkpt lat="46.11016" lon="1.85312">
        <ele>512</ele>
        <time>2016-12-13T10:59:09Z</time>
      </trkpt>
      <trkpt lat="46.11009" lon="1.85309">
        <ele>512</ele>
        <time>2016-12-13T11:01:09Z</time>
      </trkpt>
      <trkpt lat="46.11008" lon="1.85308">
        <ele>512</ele>
        <time>2016-12-13T11:03:09Z</time>
      </trkpt>
      <trkpt lat="46.10992" lon="1.85299">
        <ele>512</ele>
        <time>2016-12-13T11:05:09Z</time>
      </trkpt>
      <trkpt lat="46.1099" lon="1.85297">
        <ele>512</ele>
        <time>2016-12-13T11:07:09Z</time>
      </trkpt>
      <trkpt lat="46.10988" lon="1.85295">
        <ele>513</ele>
        <time>2016-12-13T11:09:09Z</time>
      </trkpt>
      <trkpt lat="46.10985" lon="1.85291">
        <ele>513</ele>
        <time>2016-12-13T11:11:09Z</time>
      </trkpt>
      <trkpt lat="46.10983" lon="1.85288">
        <ele>513</ele>
        <time>2016-12-13T11:13:09Z</time>
      </trkpt>
      <trkpt lat="46.10984" lon="1.85286">
        <ele>514</ele>
        <time>2016-12-13T11:15:09Z</time>
      </trkpt>
      <trkpt lat="46.10983" lon="1.85283">
        <ele>514</ele>
        <time>2016-12-13T11:17:09Z</time>
      </trkpt>
      <trkpt lat="46.10985" lon="1.85281">
        <ele>515</ele>
        <time>2016-12-13T11:19:09Z</time>
      </trkpt>
      <trkpt lat="46.10986" lon="1.85277">
        <ele>515</ele>
        <time>2016-12-13T11:21:09Z</time>
      </trkpt>
      <trkpt lat="46.10987" lon="1.85275">
        <ele>515</ele>
        <time>2016-12-13T11:23:09Z</time>
      </trkpt>
      <trkpt lat="46.10989" lon="1.85275">
        <ele>515</ele>
        <time>2016-12-13T11:25:09Z</time>
      </trkpt>
      <trkpt lat="46.10991" lon="1.85273">
        <ele>516</ele>
        <time>2016-12-13T11:27:09Z</time>
      </trkpt>
      <trkpt lat="46.10993" lon="1.85267">
        <ele>517</ele>
        <time>2016-12-13T11:29:09Z</time>
      </trkpt>
      <trkpt lat="46.10993" lon="1.85265">
        <ele>517</ele>
        <time>2016-12-13T11:31:09Z</time>
      </trkpt>
      <trkpt lat="46.10995" lon="1.85255">
        <ele>518</ele>
        <time>2016-12-13T11:33:09Z</time>
      </trkpt>
      <trkpt lat="46.10995" lon="1.85248">
        <ele>519</ele>
        <time>2016-12-13T11:35:09Z</time>
      </trkpt>
      <trkpt lat="46.10996" lon="1.85245">
        <ele>520</ele>
        <time>2016-12-13T11:37:09Z</time>
      </trkpt>
      <trkpt lat="46.10998" lon="1.85236">
        <ele>522</ele>
        <time>2016-12-13T11:39:09Z</time>
      </trkpt>
      <trkpt lat="46.10998" lon="1.85234">
        <ele>522</ele>
        <time>2016-12-13T11:41:09Z</time>
      </trkpt>
      <trkpt lat="46.10999" lon="1.85232">
        <ele>522</ele>
        <time>2016-12-13T11:43:09Z</time>
      </trkpt>
      <trkpt lat="46.10999" lon="1.8523">
        <ele>523</ele>
        <time>2016-12-13T11:45:09Z</time>
      </trkpt>
      <trkpt lat="46.11001" lon="1.85226">
        <ele>523</ele>
        <time>2016-12-13T11:47:09Z</time>
      </trkpt>
      <trkpt lat="46.11002" lon="1.85223">
        <ele>524</ele>
        <time>2016-12-13T11:49:09Z</time>
      </trkpt>
      <trkpt lat="46.11002" lon="1.85222">
        <ele>524</ele>
        <time>2016-12-13T11:51:09Z</time>
      </trkpt>
      <trkpt lat="46.11003" lon="1.85216">
        <ele>525</ele>
        <time>2016-12-13T11:53:09Z</time>
      </trkpt>
      <trkpt lat="46.11003" lon="1.85213">
        <ele>526</ele>
        <time>2016-12-13T11:55:09Z</time>
      </trkpt>
      <trkpt lat="46.11004" lon="1.85207">
        <ele>527</ele>
        <time>2016-12-13T11:57:09Z</time>
      </trkpt>
      <trkpt lat="46.11004" lon="1.85205">
        <ele>527</ele>
        <time>2016-12-13T11:59:09Z</time>
      </trkpt>
      <trkpt lat="46.11004" lon="1.85203">
        <ele>528</ele>
        <time>2016-12-13T12:01:09Z</time>
      </trkpt>
      <trkpt lat="46.11003" lon="1.85201">
        <ele>528</ele>
        <time>2016-12-13T12:03:09Z</time>
      </trkpt>
      <trkpt lat="46.11003" lon="1.85198">
        <ele>528</ele>
        <time>2016-12-13T12:05:09Z</time>
      </trkpt>
      <trkpt lat="46.11002" lon="1.85196">
        <ele>529</ele>
        <time>2016-12-13T12:07:09Z</time>
      </trkpt>
      <trkpt lat="46.11002" lon="1.85195">
        <ele>529</ele>
        <time>2016-12-13T12:09:09Z</time>
      </trkpt>
      <trkpt lat="46.11" lon="1.85191">
        <ele>530</ele>
        <time>2016-12-13T12:11:09Z</time>
      </trkpt>
      <trkpt lat="46.10999" lon="1.8519">
        <ele>530</ele>
        <time>2016-12-13T12:13:09Z</time>
      </trkpt>
      <trkpt lat="46.10997" lon="1.85186">
        <ele>530</ele>
        <time>2016-12-13T12:15:09Z</time>
      </trkpt>
      <trkpt lat="46.10989" lon="1.85178">
        <ele>532</ele>
        <time>2016-12-13T12:17:09Z</time>
      </trkpt>
      <trkpt lat="46.10986" lon="1.85176">
        <ele>532</ele>
        <time>2016-12-13T12:19:09Z</time>
      </trkpt>
      <trkpt lat="46.10981" lon="1.85173">
        <ele>533</ele>
        <time>2016-12-13T12:21:09Z</time>
      </trkpt>
      <trkpt lat="46.1098" lon="1.85173">
        <ele>533</ele>
        <time>2016-12-13T12:23:09Z</time>
      </trkpt>
      <trkpt lat="46.10972" lon="1.85174">
        <ele>532</ele>
        <time>2016-12-13T12:25:09Z</time>
      </trkpt>
      <trkpt lat="46.10967" lon="1.85175">
        <ele>532</ele>
        <time>2016-12-13T12:27:09Z</time>
      </trkpt>
      <trkpt lat="46.10963" lon="1.85176">
        <ele>532</ele>
        <time>2016-12-13T12:29:09Z</time>
      </trkpt>
      <trkpt lat="46.10954" lon="1.8518">
        <ele>531</ele>
        <time>2016-12-13T12:31:09Z</time>
      </trkpt>
      <trkpt lat="46.1095" lon="1.8518">
        <ele>531</ele>
        <time>2016-12-13T12:33:09Z</time>
      </trkpt>
      <trkpt lat="46.10948" lon="1.8518">
        <ele>531</ele>
        <time>2016-12-13T12:35:09Z</time>
      </trkpt>
      <trkpt lat="46.10941" lon="1.8518">
        <ele>531</ele>
        <time>2016-12-13T12:37:09Z</time>
      </trkpt>
      <trkpt lat="46.10935" lon="1.85181">
        <ele>531</ele>
        <time>2016-12-13T12:39:09Z</time>
      </trkpt>
      <trkpt lat="46.10933" lon="1.85182">
        <ele>531</ele>
        <time>2016-12-13T12:41:09Z</time>
      </trkpt>
      <trkpt lat="46.10931" lon="1.85183">
        <ele>530</ele>
        <time>2016-12-13T12:43:09Z</time>
      </trkpt>
      <trkpt lat="46.10927" lon="1.85184">
        <ele>530</ele>
        <time>2016-12-13T12:45:09Z</time>
      </trkpt>
      <trkpt lat="46.10919" lon="1.85187">
        <ele>530</ele>
        <time>2016-12-13T12:47:09Z</time>
      </trkpt>
      <trkpt lat="46.10911" lon="1.85189">
        <ele>529</ele>
        <time>2016-12-13T12:49:09Z</time>
      </trkpt>
      <trkpt lat="46.10908" lon="1.8519">
        <ele>529</ele>
        <time>2016-12-13T12:51:09Z</time>
      </trkpt>
      <trkpt lat="46.10902" lon="1.85191">
        <ele>528</ele>
        <time>2016-12-13T12:53:09Z</time>
      </trkpt>
      <trkpt lat="46.10899" lon="1.85192">
        <ele>528</ele>
        <time>2016-12-13T12:55:09Z</time>
      </trkpt>
      <trkpt lat="46.10894" lon="1.85194">
        <ele>527</ele>
        <time>2016-12-13T12:57:09Z</time>
      </trkpt>
      <trkpt lat="46.10891" lon="1.85194">
        <ele>527</ele>
        <time>2016-12-13T12:59:09Z</time>
      </trkpt>
      <trkpt lat="46.10888" lon="1.85195">
        <ele>527</ele>
        <time>2016-12-13T13:01:09Z</time>
      </trkpt>
      <trkpt lat="46.10888" lon="1.85196">
        <ele>526</ele>
        <time>2016-12-13T13:03:09Z</time>
      </trkpt>
      <trkpt lat="46.10882" lon="1.85196">
        <ele>526</ele>
        <time>2016-12-13T13:05:09Z</time>
      </trkpt>
      <trkpt lat="46.1088" lon="1.85197">
        <ele>526</ele>
        <time>2016-12-13T13:07:09Z</time>
      </trkpt>
      <trkpt lat="46.10878" lon="1.85197">
        <ele>526</ele>
        <time>2016-12-13T13:09:09Z</time>
      </trkpt>
      <trkpt lat="46.10871" lon="1.85198">
        <ele>525</ele>
        <time>2016-12-13T13:11:09Z</time>
      </trkpt>
      <trkpt lat="46.10864" lon="1.85199">
        <ele>525</ele>
        <time>2016-12-13T13:13:09Z</time>
      </trkpt>
      <trkpt lat="46.10858" lon="1.85198">
        <ele>524</ele>
        <time>2016-12-13T13:15:09Z</time>
      </trkpt>
      <trkpt lat="46.10855" lon="1.85197">
        <ele>524</ele>
        <time>2016-12-13T13:17:09Z</time>
      </trkpt>
      <trkpt lat="46.10849" lon="1.85194">
        <ele>525</ele>
        <time>2016-12-13T13:19:09Z</time>
      </trkpt>
      <trkpt lat="46.10846" lon="1.85192">
        <ele>525</ele>
        <time>2016-12-13T13:21:09Z</time>
      </trkpt>
      <trkpt lat="46.1084" lon="1.85189">
        <ele>525</ele>
        <time>2016-12-13T13:23:09Z</time>
      </trkpt>
      <trkpt lat="46.10831" lon="1.85185">
        <ele>525</ele>
        <time>2016-12-13T13:25:09Z</time>
      </trkpt>
      <trkpt lat="46.10824" lon="1.8518">
        <ele>527</ele>
        <time>2016-12-13T13:27:09Z</time>
      </trkpt>
      <trkpt lat="46.10816" lon="1.85174">
        <ele>528</ele>
        <time>2016-12-13T13:29:09Z</time>
      </trkpt>
      <trkpt lat="46.10808" lon="1.85168">
        <ele>530</ele>
        <time>2016-12-13T13:31:09Z</time>
      </trkpt>
      <trkpt lat="46.10806" lon="1.85166">
        <ele>530</ele>
        <time>2016-12-13T13:33:09Z</time>
      </trkpt>
      <trkpt lat="46.10804" lon="1.85164">
        <ele>530</ele>
        <time>2016-12-13T13:35:09Z</time>
      </trkpt>
      <trkpt lat="46.108" lon="1.85159">
        <ele>531</ele>
        <time>2016-12-13T13:37:09Z</time>
      </trkpt>
      <trkpt lat="46.10797" lon="1.85158">
        <ele>531</ele>
        <time>2016-12-13T13:39:09Z</time>
      </trkpt>
      <trkpt lat="46.10795" lon="1.85155">
        <ele>531</ele>
        <time>2016-12-13T13:41:09Z</time>
      </trkpt>
      <trkpt lat="46.10793" lon="1.85154">
        <ele>532</ele>
        <time>2016-12-13T13:43:09Z</time>
      </trkpt>
      <trkpt lat="46.10791" lon="1.85151">
        <ele>532</ele>
        <time>2016-12-13T13:45:09Z</time>
      </trkpt>
      <trkpt lat="46.1079" lon="1.8515">
        <ele>532</ele>
        <time>2016-12-13T13:47:09Z</time>
      </trkpt>
      <trkpt lat="46.10788" lon="1.85148">
        <ele>532</ele>
        <time>2016-12-13T13:49:09Z</time>
      </trkpt>
      <trkpt lat="46.10787" lon="1.85146">
        <ele>533</ele>
        <time>2016-12-13T13:51:09Z</time>
      </trkpt>
      <trkpt lat="46.10785" lon="1.85144">
        <ele>533</ele>
        <time>2016-12-13T13:53:09Z</time>
      </trkpt>
      <trkpt lat="46.10783" lon="1.85142">
        <ele>533</ele>
        <time>2016-12-13T13:55:09Z</time>
      </trkpt>
      <trkpt lat="46.10782" lon="1.8514">
        <ele>533</ele>
        <time>2016-12-13T13:57:09Z</time>
      </trkpt>
      <trkpt lat="46.1078" lon="1.85137">
        <ele>533</ele>
        <time>2016-12-13T13:59:09Z</time>
      </trkpt>
      <trkpt lat="46.10777" lon="1.85134">
        <ele>534</ele>
        <time>2016-12-13T14:01:09Z</time>
      </trkpt>
      <trkpt lat="46.10776" lon="1.85132">
        <ele>534</ele>
        <time>2016-12-13T14:03:09Z</time>
      </trkpt>
      <trkpt lat="46.10775" lon="1.8513">
        <ele>534</ele>
        <time>2016-12-13T14:05:09Z</time>
      </trkpt>
      <trkpt lat="46.10773" lon="1.85127">
        <ele>534</ele>
        <time>2016-12-13T14:07:09Z</time>
      </trkpt>
      <trkpt lat="46.1077" lon="1.85122">
        <ele>535</ele>
        <time>2016-12-13T14:09:09Z</time>
      </trkpt>
      <trkpt lat="46.10768" lon="1.85119">
        <ele>535</ele>
        <time>2016-12-13T14:11:09Z</time>
      </trkpt>
      <trkpt lat="46.10762" lon="1.85109">
        <ele>536</ele>
        <time>2016-12-13T14:13:09Z</time>
      </trkpt>
      <trkpt lat="46.10761" lon="1.85107">
        <ele>536</ele>
        <time>2016-12-13T14:15:09Z</time>
      </trkpt>
      <trkpt lat="46.10755" lon="1.85099">
        <ele>536</ele>
        <time>2016-12-13T14:17:09Z</time>
      </trkpt>
      <trkpt lat="46.10754" lon="1.85096">
        <ele>536</ele>
        <time>2016-12-13T14:19:09Z</time>
      </trkpt>
      <trkpt lat="46.10753" lon="1.85093">
        <ele>537</ele>
        <time>2016-12-13T14:21:09Z</time>
      </trkpt>
      <trkpt lat="46.10749" lon="1.85086">
        <ele>537</ele>
        <time>2016-12-13T14:23:09Z</time>
      </trkpt>
      <trkpt lat="46.10745" lon="1.8508">
        <ele>538</ele>
        <time>2016-12-13T14:25:09Z</time>
      </trkpt>
      <trkpt lat="46.10744" lon="1.85078">
        <ele>538</ele>
        <time>2016-12-13T14:27:09Z</time>
      </trkpt>
      <trkpt lat="46.10741" lon="1.85074">
        <ele>538</ele>
        <time>2016-12-13T14:29:09Z</time>
      </trkpt>
      <trkpt lat="46.10739" lon="1.85071">
        <ele>538</ele>
        <time>2016-12-13T14:31:09Z</time>
      </trkpt>
      <trkpt lat="46.10737" lon="1.85068">
        <ele>538</ele>
        <time>2016-12-13T14:33:09Z</time>
      </trkpt>
      <trkpt lat="46.1073" lon="1.85058">
        <ele>539</ele>
        <time>2016-12-13T14:35:09Z</time>
      </trkpt>
      <trkpt lat="46.10726" lon="1.85051">
        <ele>539</ele>
        <time>2016-12-13T14:37:09Z</time>
      </trkpt>
      <trkpt lat="46.10721" lon="1.85041">
        <ele>539</ele>
        <time>2016-12-13T14:39:09Z</time>
      </trkpt>
      <trkpt lat="46.1072" lon="1.85037">
        <ele>539</ele>
        <time>2016-12-13T14:41:09Z</time>
      </trkpt>
      <trkpt lat="46.10718" lon="1.85033">
        <ele>539</ele>
        <time>2016-12-13T14:43:09Z</time>
      </trkpt>
      <trkpt lat="46.10717" lon="1.85029">
        <ele>539</ele>
        <time>2016-12-13T14:45:09Z</time>
      </trkpt>
      <trkpt lat="46.10715" lon="1.85017">
        <ele>538</ele>
        <time>2016-12-13T14:47:09Z</time>
      </trkpt>
      <trkpt lat="46.10713" lon="1.84999">
        <ele>538</ele>
        <time>2016-12-13T14:49:09Z</time>
      </trkpt>
      <trkpt lat="46.10712" lon="1.84996">
        <ele>537</ele>
        <time>2016-12-13T14:51:09Z</time>
      </trkpt>
      <trkpt lat="46.1071" lon="1.84993">
        <ele>537</ele>
        <time>2016-12-13T14:53:09Z</time>
      </trkpt>
      <trkpt lat="46.10708" lon="1.84991">
        <ele>537</ele>
        <time>2016-12-13T14:55:09Z</time>
      </trkpt>
      <trkpt lat="46.10703" lon="1.84986">
        <ele>538</ele>
        <time>2016-12-13T14:57:09Z</time>
      </trkpt>
      <trkpt lat="46.10699" lon="1.84981">
        <ele>538</ele>
        <time>2016-12-13T14:59:09Z</time>
      </trkpt>
      <trkpt lat="46.10696" lon="1.84977">
        <ele>538</ele>
        <time>2016-12-13T15:01:09Z</time>
      </trkpt>
      <trkpt lat="46.10692" lon="1.84973">
        <ele>538</ele>
        <time>2016-12-13T15:03:09Z</time>
      </trkpt>
      <trkpt lat="46.10689" lon="1.84969">
        <ele>537</ele>
        <time>2016-12-13T15:05:09Z</time>
      </trkpt>
      <trkpt lat="46.10686" lon="1.84966">
        <ele>537</ele>
        <time>2016-12-13T15:07:09Z</time>
      </trkpt>
      <trkpt lat="46.10685" lon="1.84965">
        <ele>537</ele>
        <time>2016-12-13T15:09:09Z</time>
      </trkpt>
      <trkpt lat="46.10683" lon="1.84963">
        <ele>537</ele>
        <time>2016-12-13T15:11:09Z</time>
      </trkpt>
      <trkpt lat="46.1068" lon="1.8496">
        <ele>537</ele>
        <time>2016-12-13T15:13:09Z</time>
      </trkpt>
      <trkpt lat="46.10678" lon="1.84959">
        <ele>538</ele>
        <time>2016-12-13T15:15:09Z</time>
      </trkpt>
      <trkpt lat="46.10677" lon="1.84958">
        <ele>538</ele>
        <time>2016-12-13T15:17:09Z</time>
      </trkpt>
      <trkpt lat="46.10676" lon="1.84957">
        <ele>538</ele>
        <time>2016-12-13T15:19:09Z</time>
      </trkpt>
      <trkpt lat="46.10673" lon="1.84956">
        <ele>538</ele>
        <time>2016-12-13T15:21:09Z</time>
      </trkpt>
      <trkpt lat="46.10671" lon="1.84954">
        <ele>538</ele>
        <time>2016-12-13T15:23:09Z</time>
      </trkpt>
      <trkpt lat="46.10665" lon="1.84952">
        <ele>538</ele>
        <time>2016-12-13T15:25:09Z</time>
      </trkpt>
      <trkpt lat="46.10662" lon="1.84948">
        <ele>538</ele>
        <time>2016-12-13T15:27:09Z</time>
      </trkpt>
      <trkpt lat="46.10651" lon="1.8494">
        <ele>537</ele>
        <time>2016-12-13T15:29:09Z</time>
      </trkpt>
      <trkpt lat="46.10649" lon="1.84939">
        <ele>537</ele>
        <time>2016-12-13T15:31:09Z</time>
      </trkpt>
      <trkpt lat="46.10644" lon="1.84937">
        <ele>536</ele>
        <time>2016-12-13T15:33:09Z</time>
      </trkpt>
      <trkpt lat="46.10642" lon="1.84935">
        <ele>536</ele>
        <time>2016-12-13T15:35:09Z</time>
      </trkpt>
      <trkpt lat="46.10637" lon="1.84931">
        <ele>536</ele>
        <time>2016-12-13T15:37:09Z</time>
      </trkpt>
      <trkpt lat="46.10633" lon="1.84927">
        <ele>535</ele>
        <time>2016-12-13T15:39:09Z</time>
      </trkpt>
      <trkpt lat="46.10631" lon="1.84924">
        <ele>535</ele>
        <time>2016-12-13T15:41:09Z</time>
      </trkpt>
      <trkpt lat="46.1063" lon="1.84921">
        <ele>534</ele>
        <time>2016-12-13T15:43:09Z</time>
      </trkpt>
      <trkpt lat="46.10627" lon="1.84918">
        <ele>534</ele>
        <time>2016-12-13T15:45:09Z</time>
      </trkpt>
      <trkpt lat="46.10625" lon="1.84912">
        <ele>533</ele>
        <time>2016-12-13T15:47:09Z</time>
      </trkpt>
      <trkpt lat="46.10623" lon="1.84909">
        <ele>532</ele>
        <time>2016-12-13T15:49:09Z</time>
      </trkpt>
      <trkpt lat="46.10612" lon="1.84896">
        <ele>529</ele>
        <time>2016-12-13T15:51:09Z</time>
      </trkpt>
      <trkpt lat="46.10609" lon="1.84894">
        <ele>529</ele>
        <time>2016-12-13T15:53:09Z</time>
      </trkpt>
      <trkpt lat="46.106" lon="1.84886">
        <ele>528</ele>
        <time>2016-12-13T15:55:09Z</time>
      </trkpt>
      <trkpt lat="46.10597" lon="1.84883">
        <ele>527</ele>
        <time>2016-12-13T15:57:09Z</time>
      </trkpt>
      <trkpt lat="46.10594" lon="1.84882">
        <ele>527</ele>
        <time>2016-12-13T15:59:09Z</time>
      </trkpt>
      <trkpt lat="46.10584" lon="1.84875">
        <ele>525</ele>
        <time>2016-12-13T16:01:09Z</time>
      </trkpt>
      <trkpt lat="46.10581" lon="1.84874">
        <ele>525</ele>
        <time>2016-12-13T16:03:09Z</time>
      </trkpt>
      <trkpt lat="46.10574" lon="1.84874">
        <ele>526</ele>
        <time>2016-12-13T16:05:09Z</time>
      </trkpt>
      <trkpt lat="46.1057" lon="1.84875">
        <ele>526</ele>
        <time>2016-12-13T16:07:09Z</time>
      </trkpt>
      <trkpt lat="46.10566" lon="1.84877">
        <ele>527</ele>
        <time>2016-12-13T16:09:09Z</time>
      </trkpt>
      <trkpt lat="46.10561" lon="1.84877">
        <ele>527</ele>
        <time>2016-12-13T16:11:09Z</time>
      </trkpt>
      <trkpt lat="46.10558" lon="1.84877">
        <ele>527</ele>
        <time>2016-12-13T16:13:09Z</time>
      </trkpt>
      <trkpt lat="46.10557" lon="1.84878">
        <ele>527</ele>
        <time>2016-12-13T16:15:09Z</time>
      </trkpt>
      <trkpt lat="46.10552" lon="1.8488">
        <ele>528</ele>
        <time>2016-12-13T16:17:09Z</time>
      </trkpt>
      <trkpt lat="46.1055" lon="1.8488">
        <ele>528</ele>
        <time>2016-12-13T16:19:09Z</time>
      </trkpt>
      <trkpt lat="46.10547" lon="1.84881">
        <ele>528</ele>
        <time>2016-12-13T16:21:09Z</time>
      </trkpt>
      <trkpt lat="46.1054" lon="1.84882">
        <ele>528</ele>
        <time>2016-12-13T16:23:09Z</time>
      </trkpt>
      <trkpt lat="46.10539" lon="1.84881">
        <ele>528</ele>
        <time>2016-12-13T16:25:09Z</time>
      </trkpt>
      <trkpt lat="46.10536" lon="1.84882">
        <ele>528</ele>
        <time>2016-12-13T16:27:09Z</time>
      </trkpt>
      <trkpt lat="46.10534" lon="1.84882">
        <ele>528</ele>
        <time>2016-12-13T16:29:09Z</time>
      </trkpt>
      <trkpt lat="46.10531" lon="1.84883">
        <ele>529</ele>
        <time>2016-12-13T16:31:09Z</time>
      </trkpt>
      <trkpt lat="46.10529" lon="1.84883">
        <ele>529</ele>
        <time>2016-12-13T16:33:09Z</time>
      </trkpt>
      <trkpt lat="46.10527" lon="1.84884">
        <ele>529</ele>
        <time>2016-12-13T16:35:09Z</time>
      </trkpt>
      <trkpt lat="46.10524" lon="1.84884">
        <ele>529</ele>
        <time>2016-12-13T16:37:09Z</time>
      </trkpt>
      <trkpt lat="46.10521" lon="1.84886">
        <ele>529</ele>
        <time>2016-12-13T16:39:09Z</time>
      </trkpt>
      <trkpt lat="46.10519" lon="1.84887">
        <ele>530</ele>
        <time>2016-12-13T16:41:09Z</time>
      </trkpt>
      <trkpt lat="46.10516" lon="1.84888">
        <ele>530</ele>
        <time>2016-12-13T16:43:09Z</time>
      </trkpt>
      <trkpt lat="46.10511" lon="1.84888">
        <ele>530</ele>
        <time>2016-12-13T16:45:09Z</time>
      </trkpt>
      <trkpt lat="46.10506" lon="1.8489">
        <ele>530</ele>
        <time>2016-12-13T16:47:09Z</time>
      </trkpt>
      <trkpt lat="46.10503" lon="1.8489">
        <ele>530</ele>
        <time>2016-12-13T16:49:09Z</time>
      </trkpt>
      <trkpt lat="46.10498" lon="1.84891">
        <ele>531</ele>
        <time>2016-12-13T16:51:09Z</time>
      </trkpt>
      <trkpt lat="46.10495" lon="1.84892">
        <ele>531</ele>
        <time>2016-12-13T16:53:09Z</time>
      </trkpt>
      <trkpt lat="46.10489" lon="1.84894">
        <ele>532</ele>
        <time>2016-12-13T16:55:09Z</time>
      </trkpt>
      <trkpt lat="46.10485" lon="1.84895">
        <ele>532</ele>
        <time>2016-12-13T16:57:09Z</time>
      </trkpt>
      <trkpt lat="46.10482" lon="1.84895">
        <ele>532</ele>
        <time>2016-12-13T16:59:09Z</time>
      </trkpt>
      <trkpt lat="46.1048" lon="1.84894">
        <ele>532</ele>
        <time>2016-12-13T17:01:09Z</time>
      </trkpt>
      <trkpt lat="46.10475" lon="1.84894">
        <ele>533</ele>
        <time>2016-12-13T17:03:09Z</time>
      </trkpt>
      <trkpt lat="46.1047" lon="1.84897">
        <ele>533</ele>
        <time>2016-12-13T17:05:09Z</time>
      </trkpt>
      <trkpt lat="46.10467" lon="1.84898">
        <ele>534</ele>
        <time>2016-12-13T17:07:09Z</time>
      </trkpt>
      <trkpt lat="46.10453" lon="1.84898">
        <ele>535</ele>
        <time>2016-12-13T17:09:09Z</time>
      </trkpt>
      <trkpt lat="46.10451" lon="1.84898">
        <ele>535</ele>
        <time>2016-12-13T17:11:09Z</time>
      </trkpt>
      <trkpt lat="46.1044" lon="1.84895">
        <ele>535</ele>
        <time>2016-12-13T17:13:09Z</time>
      </trkpt>
      <trkpt lat="46.10434" lon="1.84888">
        <ele>535</ele>
        <time>2016-12-13T17:15:09Z</time>
      </trkpt>
      <trkpt lat="46.10432" lon="1.84885">
        <ele>535</ele>
        <time>2016-12-13T17:17:09Z</time>
      </trkpt>
      <trkpt lat="46.10429" lon="1.84882">
        <ele>535</ele>
        <time>2016-12-13T17:19:09Z</time>
      </trkpt>
      <trkpt lat="46.10428" lon="1.8488">
        <ele>535</ele>
        <time>2016-12-13T17:21:09Z</time>
      </trkpt>
      <trkpt lat="46.10425" lon="1.8487">
        <ele>534</ele>
        <time>2016-12-13T17:23:09Z</time>
      </trkpt>
      <trkpt lat="46.10424" lon="1.84866">
        <ele>534</ele>
        <time>2016-12-13T17:25:09Z</time>
      </trkpt>
      <trkpt lat="46.10423" lon="1.84862">
        <ele>533</ele>
        <time>2016-12-13T17:27:09Z</time>
      </trkpt>
      <trkpt lat="46.10421" lon="1.84859">
        <ele>533</ele>
        <time>2016-12-13T17:29:09Z</time>
      </trkpt>
      <trkpt lat="46.10421" lon="1.84855">
        <ele>533</ele>
        <time>2016-12-13T17:31:09Z</time>
      </trkpt>
      <trkpt lat="46.1042" lon="1.84848">
        <ele>532</ele>
        <time>2016-12-13T17:33:09Z</time>
      </trkpt>
      <trkpt lat="46.10419" lon="1.8484">
        <ele>531</ele>
        <time>2016-12-13T17:35:09Z</time>
      </trkpt>
      <trkpt lat="46.1042" lon="1.84833">
        <ele>531</ele>
        <time>2016-12-13T17:37:09Z</time>
      </trkpt>
      <trkpt lat="46.1042" lon="1.8483">
        <ele>530</ele>
        <time>2016-12-13T17:39:09Z</time>
      </trkpt>
      <trkpt lat="46.10418" lon="1.84827">
        <ele>530</ele>
        <time>2016-12-13T17:41:09Z</time>
      </trkpt>
      <trkpt lat="46.10417" lon="1.84823">
        <ele>530</ele>
        <time>2016-12-13T17:43:09Z</time>
      </trkpt>
      <trkpt lat="46.10418" lon="1.84819">
        <ele>530</ele>
        <time>2016-12-13T17:45:09Z</time>
      </trkpt>
      <trkpt lat="46.10418" lon="1.84815">
        <ele>529</ele>
        <time>2016-12-13T17:47:09Z</time>
      </trkpt>
      <trkpt lat="46.10421" lon="1.84808">
        <ele>528</ele>
        <time>2016-12-13T17:49:09Z</time>
      </trkpt>
      <trkpt lat="46.10422" lon="1.84804">
        <ele>528</ele>
        <time>2016-12-13T17:51:09Z</time>
      </trkpt>
      <trkpt lat="46.10423" lon="1.84801">
        <ele>527</ele>
        <time>2016-12-13T17:53:09Z</time>
      </trkpt>
      <trkpt lat="46.10423" lon="1.84792">
        <ele>527</ele>
        <time>2016-12-13T17:55:09Z</time>
      </trkpt>
      <trkpt lat="46.10425" lon="1.84786">
        <ele>526</ele>
        <time>2016-12-13T17:57:09Z</time>
      </trkpt>
      <trkpt lat="46.10426" lon="1.84783">
        <ele>525</ele>
        <time>2016-12-13T17:59:09Z</time>
      </trkpt>
      <trkpt lat="46.10427" lon="1.8478">
        <ele>525</ele>
        <time>2016-12-13T18:01:09Z</time>
      </trkpt>
      <trkpt lat="46.10429" lon="1.84773">
        <ele>524</ele>
        <time>2016-12-13T18:03:09Z</time>
      </trkpt>
      <trkpt lat="46.1043" lon="1.84771">
        <ele>523</ele>
        <time>2016-12-13T18:05:09Z</time>
      </trkpt>
      <trkpt lat="46.10431" lon="1.84767">
        <ele>523</ele>
        <time>2016-12-13T18:07:09Z</time>
      </trkpt>
      <trkpt lat="46.10434" lon="1.8475">
        <ele>520</ele>
        <time>2016-12-13T18:09:09Z</time>
      </trkpt>
      <trkpt lat="46.10435" lon="1.84746">
        <ele>520</ele>
        <time>2016-12-13T18:11:09Z</time>
      </trkpt>
      <trkpt lat="46.10437" lon="1.84742">
        <ele>519</ele>
        <time>2016-12-13T18:13:09Z</time>
      </trkpt>
      <trkpt lat="46.10439" lon="1.84738">
        <ele>519</ele>
        <time>2016-12-13T18:15:09Z</time>
      </trkpt>
      <trkpt lat="46.10441" lon="1.84735">
        <ele>518</ele>
        <time>2016-12-13T18:17:09Z</time>
      </trkpt>
      <trkpt lat="46.10443" lon="1.84727">
        <ele>517</ele>
        <time>2016-12-13T18:19:09Z</time>
      </trkpt>
      <trkpt lat="46.10444" lon="1.84723">
        <ele>517</ele>
        <time>2016-12-13T18:21:09Z</time>
      </trkpt>
      <trkpt lat="46.10445" lon="1.84721">
        <ele>517</ele>
        <time>2016-12-13T18:23:09Z</time>
      </trkpt>
      <trkpt lat="46.10447" lon="1.84717">
        <ele>516</ele>
        <time>2016-12-13T18:25:09Z</time>
      </trkpt>
      <trkpt lat="46.1045" lon="1.8471">
        <ele>515</ele>
        <time>2016-12-13T18:27:09Z</time>
      </trkpt>
      <trkpt lat="46.10453" lon="1.84703">
        <ele>514</ele>
        <time>2016-12-13T18:29:09Z</time>
      </trkpt>
      <trkpt lat="46.10455" lon="1.84699">
        <ele>513</ele>
        <time>2016-12-13T18:31:09Z</time>
      </trkpt>
      <trkpt lat="46.1046" lon="1.84679">
        <ele>511</ele>
        <time>2016-12-13T18:33:09Z</time>
      </trkpt>
      <trkpt lat="46.1046" lon="1.84674">
        <ele>511</ele>
        <time>2016-12-13T18:35:09Z</time>
      </trkpt>
      <trkpt lat="46.1046" lon="1.84665">
        <ele>511</ele>
        <time>2016-12-13T18:37:09Z</time>
      </trkpt>
      <trkpt lat="46.1046" lon="1.84657">
        <ele>510</ele>
        <time>2016-12-13T18:39:09Z</time>
      </trkpt>
      <trkpt lat="46.10459" lon="1.84644">
        <ele>509</ele>
        <time>2016-12-13T18:41:09Z</time>
      </trkpt>
      <trkpt lat="46.10458" lon="1.84636">
        <ele>509</ele>
        <time>2016-12-13T18:43:09Z</time>
      </trkpt>
      <trkpt lat="46.10458" lon="1.84624">
        <ele>508</ele>
        <time>2016-12-13T18:45:09Z</time>
      </trkpt>
      <trkpt lat="46.10458" lon="1.84619">
        <ele>508</ele>
        <time>2016-12-13T18:47:09Z</time>
      </trkpt>
      <trkpt lat="46.10458" lon="1.84615">
        <ele>507</ele>
        <time>2016-12-13T18:49:09Z</time>
      </trkpt>
      <trkpt lat="46.10456" lon="1.84609">
        <ele>507</ele>
        <time>2016-12-13T18:51:09Z</time>
      </trkpt>
      <trkpt lat="46.10457" lon="1.84606">
        <ele>507</ele>
        <time>2016-12-13T18:53:09Z</time>
      </trkpt>
      <trkpt lat="46.10456" lon="1.84604">
        <ele>507</ele>
        <time>2016-12-13T18:55:09Z</time>
      </trkpt>
      <trkpt lat="46.10455" lon="1.846">
        <ele>507</ele>
        <time>2016-12-13T18:57:09Z</time>
      </trkpt>
      <trkpt lat="46.10453" lon="1.84596">
        <ele>507</ele>
        <time>2016-12-13T18:59:09Z</time>
      </trkpt>
      <trkpt lat="46.10452" lon="1.84592">
        <ele>507</ele>
        <time>2016-12-13T19:01:09Z</time>
      </trkpt>
      <trkpt lat="46.10448" lon="1.8458">
        <ele>507</ele>
        <time>2016-12-13T19:03:09Z</time>
      </trkpt>
      <trkpt lat="46.10446" lon="1.84576">
        <ele>507</ele>
        <time>2016-12-13T19:05:09Z</time>
      </trkpt>
      <trkpt lat="46.10444" lon="1.84573">
        <ele>507</ele>
        <time>2016-12-13T19:07:09Z</time>
      </trkpt>
      <trkpt lat="46.10443" lon="1.84569">
        <ele>507</ele>
        <time>2016-12-13T19:09:09Z</time>
      </trkpt>
      <trkpt lat="46.10442" lon="1.84567">
        <ele>507</ele>
        <time>2016-12-13T19:11:09Z</time>
      </trkpt>
      <trkpt lat="46.1044" lon="1.84563">
        <ele>507</ele>
        <time>2016-12-13T19:13:09Z</time>
      </trkpt>
      <trkpt lat="46.10437" lon="1.84561">
        <ele>507</ele>
        <time>2016-12-13T19:15:09Z</time>
      </trkpt>
      <trkpt lat="46.10431" lon="1.84551">
        <ele>507</ele>
        <time>2016-12-13T19:17:09Z</time>
      </trkpt>
      <trkpt lat="46.10427" lon="1.84546">
        <ele>507</ele>
        <time>2016-12-13T19:19:09Z</time>
      </trkpt>
      <trkpt lat="46.10424" lon="1.84544">
        <ele>507</ele>
        <time>2016-12-13T19:21:09Z</time>
      </trkpt>
      <trkpt lat="46.10417" lon="1.84539">
        <ele>508</ele>
        <time>2016-12-13T19:23:09Z</time>
      </trkpt>
      <trkpt lat="46.10415" lon="1.84539">
        <ele>508</ele>
        <time>2016-12-13T19:25:09Z</time>
      </trkpt>
      <trkpt lat="46.10412" lon="1.84537">
        <ele>508</ele>
        <time>2016-12-13T19:27:09Z</time>
      </trkpt>
      <trkpt lat="46.10409" lon="1.84533">
        <ele>508</ele>
        <time>2016-12-13T19:29:09Z</time>
      </trkpt>
      <trkpt lat="46.10408" lon="1.8453">
        <ele>507</ele>
        <time>2016-12-13T19:31:09Z</time>
      </trkpt>
      <trkpt lat="46.10407" lon="1.84526">
        <ele>507</ele>
        <time>2016-12-13T19:33:09Z</time>
      </trkpt>
      <trkpt lat="46.10404" lon="1.8452">
        <ele>507</ele>
        <time>2016-12-13T19:35:09Z</time>
      </trkpt>
      <trkpt lat="46.10404" lon="1.84517">
        <ele>506</ele>
        <time>2016-12-13T19:37:09Z</time>
      </trkpt>
      <trkpt lat="46.10403" lon="1.84515">
        <ele>506</ele>
        <time>2016-12-13T19:39:09Z</time>
      </trkpt>
      <trkpt lat="46.10401" lon="1.84515">
        <ele>506</ele>
        <time>2016-12-13T19:41:09Z</time>
      </trkpt>
      <trkpt lat="46.10401" lon="1.84514">
        <ele>506</ele>
        <time>2016-12-13T19:43:09Z</time>
      </trkpt>
      <trkpt lat="46.104" lon="1.84512">
        <ele>506</ele>
        <time>2016-12-13T19:45:09Z</time>
      </trkpt>
      <trkpt lat="46.10399" lon="1.8451">
        <ele>506</ele>
        <time>2016-12-13T19:47:09Z</time>
      </trkpt>
      <trkpt lat="46.10395" lon="1.84507">
        <ele>506</ele>
        <time>2016-12-13T19:49:09Z</time>
      </trkpt>
      <trkpt lat="46.10392" lon="1.84505">
        <ele>506</ele>
        <time>2016-12-13T19:51:09Z</time>
      </trkpt>
      <trkpt lat="46.10388" lon="1.84503">
        <ele>506</ele>
        <time>2016-12-13T19:53:09Z</time>
      </trkpt>
      <trkpt lat="46.10381" lon="1.84499">
        <ele>506</ele>
        <time>2016-12-13T19:55:09Z</time>
      </trkpt>
      <trkpt lat="46.10378" lon="1.84497">
        <ele>506</ele>
        <time>2016-12-13T19:57:09Z</time>
      </trkpt>
      <trkpt lat="46.10372" lon="1.84496">
        <ele>507</ele>
        <time>2016-12-13T19:59:09Z</time>
      </trkpt>
      <trkpt lat="46.10367" lon="1.84493">
        <ele>507</ele>
        <time>2016-12-13T20:01:09Z</time>
      </trkpt>
      <trkpt lat="46.10364" lon="1.84491">
        <ele>507</ele>
        <time>2016-12-13T20:03:09Z</time>
      </trkpt>
      <trkpt lat="46.10354" lon="1.84487">
        <ele>507</ele>
        <time>2016-12-13T20:05:09Z</time>
      </trkpt>
      <trkpt lat="46.10351" lon="1.84486">
        <ele>508</ele>
        <time>2016-12-13T20:07:09Z</time>
      </trkpt>
      <trkpt lat="46.10349" lon="1.84484">
        <ele>508</ele>
        <time>2016-12-13T20:09:09Z</time>
      </trkpt>
      <trkpt lat="46.10347" lon="1.84477">
        <ele>507</ele>
        <time>2016-12-13T20:11:09Z</time>
      </trkpt>
      <trkpt lat="46.10346" lon="1.84474">
        <ele>506</ele>
        <time>2016-12-13T20:13:09Z</time>
      </trkpt>
      <trkpt lat="46.10343" lon="1.84471">
        <ele>506</ele>
        <time>2016-12-13T20:15:09Z</time>
      </trkpt>
      <trkpt lat="46.1034" lon="1.84469">
        <ele>506</ele>
        <time>2016-12-13T20:17:09Z</time>
      </trkpt>
      <trkpt lat="46.10333" lon="1.84461">
        <ele>505</ele>
        <time>2016-12-13T20:19:09Z</time>
      </trkpt>
      <trkpt lat="46.1033" lon="1.84459">
        <ele>505</ele>
        <time>2016-12-13T20:21:09Z</time>
      </trkpt>
      <trkpt lat="46.10329" lon="1.84456">
        <ele>505</ele>
        <time>2016-12-13T20:23:09Z</time>
      </trkpt>
      <trkpt lat="46.10328" lon="1.84453">
        <ele>505</ele>
        <time>2016-12-13T20:25:09Z</time>
      </trkpt>
      <trkpt lat="46.10327" lon="1.8445">
        <ele>504</ele>
        <time>2016-12-13T20:27:09Z</time>
      </trkpt>
      <trkpt lat="46.10325" lon="1.84449">
        <ele>504</ele>
        <time>2016-12-13T20:29:09Z</time>
      </trkpt>
      <trkpt lat="46.10325" lon="1.84447">
        <ele>504</ele>
        <time>2016-12-13T20:31:09Z</time>
      </trkpt>
      <trkpt lat="46.10323" lon="1.84443">
        <ele>504</ele>
        <time>2016-12-13T20:33:09Z</time>
      </trkpt>
      <trkpt lat="46.10322" lon="1.84441">
        <ele>503</ele>
        <time>2016-12-13T20:35:09Z</time>
      </trkpt>
      <trkpt lat="46.10321" lon="1.84436">
        <ele>503</ele>
        <time>2016-12-13T20:37:09Z</time>
      </trkpt>
      <trkpt lat="46.10319" lon="1.84435">
        <ele>503</ele>
        <time>2016-12-13T20:39:09Z</time>
      </trkpt>
      <trkpt lat="46.10315" lon="1.84433">
        <ele>503</ele>
        <time>2016-12-13T20:41:09Z</time>
      </trkpt>
      <trkpt lat="46.10313" lon="1.84431">
        <ele>503</ele>
        <time>2016-12-13T20:43:09Z</time>
      </trkpt>
      <trkpt lat="46.10309" lon="1.84427">
        <ele>503</ele>
        <time>2016-12-13T20:45:09Z</time>
      </trkpt>
      <trkpt lat="46.10307" lon="1.84425">
        <ele>503</ele>
        <time>2016-12-13T20:47:09Z</time>
      </trkpt>
      <trkpt lat="46.10305" lon="1.84423">
        <ele>503</ele>
        <time>2016-12-13T20:49:09Z</time>
      </trkpt>
      <trkpt lat="46.103" lon="1.84418">
        <ele>502</ele>
        <time>2016-12-13T20:51:09Z</time>
      </trkpt>
      <trkpt lat="46.10297" lon="1.84415">
        <ele>502</ele>
        <time>2016-12-13T20:53:09Z</time>
      </trkpt>
      <trkpt lat="46.10295" lon="1.84414">
        <ele>502</ele>
        <time>2016-12-13T20:55:09Z</time>
      </trkpt>
      <trkpt lat="46.10292" lon="1.8441">
        <ele>502</ele>
        <time>2016-12-13T20:57:09Z</time>
      </trkpt>
      <trkpt lat="46.10289" lon="1.84406">
        <ele>502</ele>
        <time>2016-12-13T20:59:09Z</time>
      </trkpt>
      <trkpt lat="46.10286" lon="1.84399">
        <ele>501</ele>
        <time>2016-12-13T21:01:09Z</time>
      </trkpt>
      <trkpt lat="46.10281" lon="1.84393">
        <ele>501</ele>
        <time>2016-12-13T21:03:09Z</time>
      </trkpt>
      <trkpt lat="46.10278" lon="1.8439">
        <ele>501</ele>
        <time>2016-12-13T21:05:09Z</time>
      </trkpt>
      <trkpt lat="46.10274" lon="1.84385">
        <ele>501</ele>
        <time>2016-12-13T21:07:09Z</time>
      </trkpt>
      <trkpt lat="46.10271" lon="1.84381">
        <ele>501</ele>
        <time>2016-12-13T21:09:09Z</time>
      </trkpt>
      <trkpt lat="46.1027" lon="1.84379">
        <ele>501</ele>
        <time>2016-12-13T21:11:09Z</time>
      </trkpt>
      <trkpt lat="46.10267" lon="1.84376">
        <ele>500</ele>
        <time>2016-12-13T21:13:09Z</time>
      </trkpt>
      <trkpt lat="46.10264" lon="1.84373">
        <ele>500</ele>
        <time>2016-12-13T21:15:09Z</time>
      </trkpt>
      <trkpt lat="46.10259" lon="1.8437">
        <ele>501</ele>
        <time>2016-12-13T21:17:09Z</time>
      </trkpt>
      <trkpt lat="46.10257" lon="1.84367">
        <ele>500</ele>
        <time>2016-12-13T21:19:09Z</time>
      </trkpt>
      <trkpt lat="46.10252" lon="1.8436">
        <ele>500</ele>
        <time>2016-12-13T21:21:09Z</time>
      </trkpt>
      <trkpt lat="46.1025" lon="1.84357">
        <ele>500</ele>
        <time>2016-12-13T21:23:09Z</time>
      </trkpt>
      <trkpt lat="46.10247" lon="1.84353">
        <ele>499</ele>
        <time>2016-12-13T21:25:09Z</time>
      </trkpt>
      <trkpt lat="46.10245" lon="1.84349">
        <ele>499</ele>
        <time>2016-12-13T21:27:09Z</time>
      </trkpt>
      <trkpt lat="46.10244" lon="1.84346">
        <ele>498</ele>
        <time>2016-12-13T21:29:09Z</time>
      </trkpt>
      <trkpt lat="46.10245" lon="1.84339">
        <ele>498</ele>
        <time>2016-12-13T21:31:09Z</time>
      </trkpt>
      <trkpt lat="46.10244" lon="1.84336">
        <ele>497</ele>
        <time>2016-12-13T21:33:09Z</time>
      </trkpt>
      <trkpt lat="46.10242" lon="1.84331">
        <ele>496</ele>
        <time>2016-12-13T21:35:09Z</time>
      </trkpt>
      <trkpt lat="46.1024" lon="1.84322">
        <ele>495</ele>
        <time>2016-12-13T21:37:09Z</time>
      </trkpt>
      <trkpt lat="46.10239" lon="1.84318">
        <ele>495</ele>
        <time>2016-12-13T21:39:09Z</time>
      </trkpt>
      <trkpt lat="46.10238" lon="1.84313">
        <ele>494</ele>
        <time>2016-12-13T21:41:09Z</time>
      </trkpt>
      <trkpt lat="46.10237" lon="1.84307">
        <ele>493</ele>
        <time>2016-12-13T21:43:09Z</time>
      </trkpt>
      <trkpt lat="46.10237" lon="1.84296">
        <ele>492</ele>
        <time>2016-12-13T21:45:09Z</time>
      </trkpt>
      <trkpt lat="46.10237" lon="1.84291">
        <ele>491</ele>
        <time>2016-12-13T21:47:09Z</time>
      </trkpt>
      <trkpt lat="46.10236" lon="1.84284">
        <ele>490</ele>
        <time>2016-12-13T21:49:09Z</time>
      </trkpt>
      <trkpt lat="46.10234" lon="1.84274">
        <ele>489</ele>
        <time>2016-12-13T21:51:09Z</time>
      </trkpt>
      <trkpt lat="46.10232" lon="1.84256">
        <ele>486</ele>
        <time>2016-12-13T21:53:09Z</time>
      </trkpt>
      <trkpt lat="46.10231" lon="1.84239">
        <ele>485</ele>
        <time>2016-12-13T21:55:09Z</time>
      </trkpt>
      <trkpt lat="46.10232" lon="1.84233">
        <ele>485</ele>
        <time>2016-12-13T21:57:09Z</time>
      </trkpt>
      <trkpt lat="46.10231" lon="1.84229">
        <ele>485</ele>
        <time>2016-12-13T21:59:09Z</time>
      </trkpt>
      <trkpt lat="46.10232" lon="1.8422">
        <ele>484</ele>
        <time>2016-12-13T22:01:09Z</time>
      </trkpt>
      <trkpt lat="46.10233" lon="1.84216">
        <ele>484</ele>
        <time>2016-12-13T22:03:09Z</time>
      </trkpt>
      <trkpt lat="46.10233" lon="1.84212">
        <ele>484</ele>
        <time>2016-12-13T22:05:09Z</time>
      </trkpt>
      <trkpt lat="46.10233" lon="1.84209">
        <ele>484</ele>
        <time>2016-12-13T22:07:09Z</time>
      </trkpt>
      <trkpt lat="46.10234" lon="1.84201">
        <ele>484</ele>
        <time>2016-12-13T22:09:09Z</time>
      </trkpt>
      <trkpt lat="46.10234" lon="1.84189">
        <ele>483</ele>
        <time>2016-12-13T22:11:09Z</time>
      </trkpt>
      <trkpt lat="46.10235" lon="1.84185">
        <ele>483</ele>
        <time>2016-12-13T22:13:09Z</time>
      </trkpt>
      <trkpt lat="46.10233" lon="1.84181">
        <ele>483</ele>
        <time>2016-12-13T22:15:09Z</time>
      </trkpt>
      <trkpt lat="46.10232" lon="1.84178">
        <ele>483</ele>
        <time>2016-12-13T22:17:09Z</time>
      </trkpt>
      <trkpt lat="46.10233" lon="1.84175">
        <ele>483</ele>
        <time>2016-12-13T22:19:09Z</time>
      </trkpt>
      <trkpt lat="46.10233" lon="1.84172">
        <ele>483</ele>
        <time>2016-12-13T22:21:09Z</time>
      </trkpt>
      <trkpt lat="46.10234" lon="1.84159">
        <ele>483</ele>
        <time>2016-12-13T22:23:09Z</time>
      </trkpt>
      <trkpt lat="46.10234" lon="1.84155">
        <ele>483</ele>
        <time>2016-12-13T22:25:09Z</time>
      </trkpt>
      <trkpt lat="46.10234" lon="1.84149">
        <ele>483</ele>
        <time>2016-12-13T22:27:09Z</time>
      </trkpt>
      <trkpt lat="46.10235" lon="1.84145">
        <ele>483</ele>
        <time>2016-12-13T22:29:09Z</time>
      </trkpt>
      <trkpt lat="46.10234" lon="1.84141">
        <ele>483</ele>
        <time>2016-12-13T22:31:09Z</time>
      </trkpt>
      <trkpt lat="46.10236" lon="1.84134">
        <ele>483</ele>
        <time>2016-12-13T22:33:09Z</time>
      </trkpt>
      <trkpt lat="46.10237" lon="1.84127">
        <ele>483</ele>
        <time>2016-12-13T22:35:09Z</time>
      </trkpt>
      <trkpt lat="46.10237" lon="1.84122">
        <ele>483</ele>
        <time>2016-12-13T22:37:09Z</time>
      </trkpt>
      <trkpt lat="46.10236" lon="1.84117">
        <ele>483</ele>
        <time>2016-12-13T22:39:09Z</time>
      </trkpt>
      <trkpt lat="46.10237" lon="1.84112">
        <ele>483</ele>
        <time>2016-12-13T22:41:09Z</time>
      </trkpt>
      <trkpt lat="46.10238" lon="1.84104">
        <ele>483</ele>
        <time>2016-12-13T22:43:09Z</time>
      </trkpt>
      <trkpt lat="46.10238" lon="1.84097">
        <ele>484</ele>
        <time>2016-12-13T22:45:09Z</time>
      </trkpt>
      <trkpt lat="46.10237" lon="1.84094">
        <ele>484</ele>
        <time>2016-12-13T22:47:09Z</time>
      </trkpt>
      <trkpt lat="46.10236" lon="1.84091">
        <ele>484</ele>
        <time>2016-12-13T22:49:09Z</time>
      </trkpt>
      <trkpt lat="46.10234" lon="1.84088">
        <ele>484</ele>
        <time>2016-12-13T22:51:09Z</time>
      </trkpt>
      <trkpt lat="46.10232" lon="1.84086">
        <ele>484</ele>
        <time>2016-12-13T22:53:09Z</time>
      </trkpt>
      <trkpt lat="46.10227" lon="1.84083">
        <ele>485</ele>
        <time>2016-12-13T22:55:09Z</time>
      </trkpt>
      <trkpt lat="46.10224" lon="1.84081">
        <ele>485</ele>
        <time>2016-12-13T22:57:09Z</time>
      </trkpt>
      <trkpt lat="46.10222" lon="1.8408">
        <ele>485</ele>
        <time>2016-12-13T22:59:09Z</time>
      </trkpt>
      <trkpt lat="46.10219" lon="1.8408">
        <ele>485</ele>
        <time>2016-12-13T23:01:09Z</time>
      </trkpt>
      <trkpt lat="46.10218" lon="1.84081">
        <ele>485</ele>
        <time>2016-12-13T23:03:09Z</time>
      </trkpt>
      <trkpt lat="46.1021" lon="1.84082">
        <ele>486</ele>
        <time>2016-12-13T23:05:09Z</time>
      </trkpt>
      <trkpt lat="46.10208" lon="1.84083">
        <ele>486</ele>
        <time>2016-12-13T23:07:09Z</time>
      </trkpt>
      <trkpt lat="46.10204" lon="1.84083">
        <ele>486</ele>
        <time>2016-12-13T23:09:09Z</time>
      </trkpt>
      <trkpt lat="46.10202" lon="1.84084">
        <ele>486</ele>
        <time>2016-12-13T23:11:09Z</time>
      </trkpt>
      <trkpt lat="46.10198" lon="1.84084">
        <ele>487</ele>
        <time>2016-12-13T23:13:09Z</time>
      </trkpt>
      <trkpt lat="46.1019" lon="1.84087">
        <ele>487</ele>
        <time>2016-12-13T23:15:09Z</time>
      </trkpt>
      <trkpt lat="46.10183" lon="1.84089">
        <ele>488</ele>
        <time>2016-12-13T23:17:09Z</time>
      </trkpt>
      <trkpt lat="46.10171" lon="1.84092">
        <ele>488</ele>
        <time>2016-12-13T23:19:09Z</time>
      </trkpt>
      <trkpt lat="46.10169" lon="1.84093">
        <ele>488</ele>
        <time>2016-12-13T23:21:09Z</time>
      </trkpt>
      <trkpt lat="46.10163" lon="1.84095">
        <ele>488</ele>
        <time>2016-12-13T23:23:09Z</time>
      </trkpt>
      <trkpt lat="46.10155" lon="1.84098">
        <ele>488</ele>
        <time>2016-12-13T23:25:09Z</time>
      </trkpt>
      <trkpt lat="46.10152" lon="1.84098">
        <ele>489</ele>
        <time>2016-12-13T23:27:09Z</time>
      </trkpt>
      <trkpt lat="46.10145" lon="1.84101">
        <ele>488</ele>
        <time>2016-12-13T23:29:09Z</time>
      </trkpt>
      <trkpt lat="46.10142" lon="1.84102">
        <ele>489</ele>
        <time>2016-12-13T23:31:09Z</time>
      </trkpt>
      <trkpt lat="46.10137" lon="1.84103">
        <ele>489</ele>
        <time>2016-12-13T23:33:09Z</time>
      </trkpt>
      <trkpt lat="46.10134" lon="1.84104">
        <ele>489</ele>
        <time>2016-12-13T23:35:09Z</time>
      </trkpt>
      <trkpt lat="46.10129" lon="1.84106">
        <ele>489</ele>
        <time>2016-12-13T23:37:09Z</time>
      </trkpt>
      <trkpt lat="46.10124" lon="1.84106">
        <ele>489</ele>
        <time>2016-12-13T23:39:09Z</time>
      </trkpt>
      <trkpt lat="46.10121" lon="1.84107">
        <ele>489</ele>
        <time>2016-12-13T23:41:09Z</time>
      </trkpt>
      <trkpt lat="46.10116" lon="1.84108">
        <ele>489</ele>
        <time>2016-12-13T23:43:09Z</time>
      </trkpt>
      <trkpt lat="46.10109" lon="1.8411">
        <ele>489</ele>
        <time>2016-12-13T23:45:09Z</time>
      </trkpt>
      <trkpt lat="46.10107" lon="1.84111">
        <ele>489</ele>
        <time>2016-12-13T23:47:09Z</time>
      </trkpt>
      <trkpt lat="46.10104" lon="1.84112">
        <ele>489</ele>
        <time>2016-12-13T23:49:09Z</time>
      </trkpt>
      <trkpt lat="46.10096" lon="1.84115">
        <ele>488</ele>
        <time>2016-12-13T23:51:09Z</time>
      </trkpt>
      <trkpt lat="46.10093" lon="1.84115">
        <ele>488</ele>
        <time>2016-12-13T23:53:09Z</time>
      </trkpt>
      <trkpt lat="46.10088" lon="1.84118">
        <ele>488</ele>
        <time>2016-12-13T23:55:09Z</time>
      </trkpt>
      <trkpt lat="46.10085" lon="1.84118">
        <ele>488</ele>
        <time>2016-12-13T23:57:09Z</time>
      </trkpt>
      <trkpt lat="46.10082" lon="1.84119">
        <ele>488</ele>
        <time>2016-12-13T23:59:09Z</time>
      </trkpt>
      <trkpt lat="46.1008" lon="1.8412">
        <ele>488</ele>
        <time>2016-12-14T00:01:09Z</time>
      </trkpt>
      <trkpt lat="46.10077" lon="1.84119">
        <ele>488</ele>
        <time>2016-12-14T00:03:09Z</time>
      </trkpt>
      <trkpt lat="46.10075" lon="1.84116">
        <ele>488</ele>
        <time>2016-12-14T00:05:09Z</time>
      </trkpt>
      <trkpt lat="46.10076" lon="1.84112">
        <ele>488</ele>
        <time>2016-12-14T00:07:09Z</time>
      </trkpt>
      <trkpt lat="46.10078" lon="1.8411">
        <ele>489</ele>
        <time>2016-12-14T00:09:09Z</time>
      </trkpt>
      <trkpt lat="46.1008" lon="1.8411">
        <ele>489</ele>
        <time>2016-12-14T00:11:09Z</time>
      </trkpt>
      <trkpt lat="46.10081" lon="1.84108">
        <ele>489</ele>
        <time>2016-12-14T00:13:09Z</time>
      </trkpt>
      <trkpt lat="46.10083" lon="1.84107">
        <ele>489</ele>
        <time>2016-12-14T00:15:09Z</time>
      </trkpt>
      <trkpt lat="46.10085" lon="1.84105">
        <ele>490</ele>
        <time>2016-12-14T00:17:09Z</time>
      </trkpt>
      <trkpt lat="46.10085" lon="1.84104">
        <ele>490</ele>
        <time>2016-12-14T00:19:09Z</time>
      </trkpt>
      <trkpt lat="46.10087" lon="1.84103">
        <ele>490</ele>
        <time>2016-12-14T00:21:09Z</time>
      </trkpt>
      <trkpt lat="46.10094" lon="1.84097">
        <ele>490</ele>
        <time>2016-12-14T00:23:09Z</time>
      </trkpt>
      <trkpt lat="46.10094" lon="1.84096">
        <ele>490</ele>
        <time>2016-12-14T00:25:09Z</time>
      </trkpt>
      <trkpt lat="46.10092" lon="1.84091">
        <ele>491</ele>
        <time>2016-12-14T00:27:09Z</time>
      </trkpt>
      <trkpt lat="46.10092" lon="1.84089">
        <ele>491</ele>
        <time>2016-12-14T00:29:09Z</time>
      </trkpt>
      <trkpt lat="46.10091" lon="1.84087">
        <ele>491</ele>
        <time>2016-12-14T00:31:09Z</time>
      </trkpt>
      <trkpt lat="46.1009" lon="1.84083">
        <ele>492</ele>
        <time>2016-12-14T00:33:09Z</time>
      </trkpt>
      <trkpt lat="46.10088" lon="1.84078">
        <ele>492</ele>
        <time>2016-12-14T00:35:09Z</time>
      </trkpt>
      <trkpt lat="46.10086" lon="1.84074">
        <ele>492</ele>
        <time>2016-12-14T00:37:09Z</time>
      </trkpt>
      <trkpt lat="46.10085" lon="1.84073">
        <ele>493</ele>
        <time>2016-12-14T00:39:09Z</time>
      </trkpt>
      <trkpt lat="46.10084" lon="1.8407">
        <ele>493</ele>
        <time>2016-12-14T00:41:09Z</time>
      </trkpt>
      <trkpt lat="46.10082" lon="1.84066">
        <ele>493</ele>
        <time>2016-12-14T00:43:09Z</time>
      </trkpt>
      <trkpt lat="46.1008" lon="1.84061">
        <ele>493</ele>
        <time>2016-12-14T00:45:09Z</time>
      </trkpt>
      <trkpt lat="46.10079" lon="1.8406">
        <ele>493</ele>
        <time>2016-12-14T00:47:09Z</time>
      </trkpt>
      <trkpt lat="46.10078" lon="1.84058">
        <ele>493</ele>
        <time>2016-12-14T00:49:09Z</time>
      </trkpt>
      <trkpt lat="46.10076" lon="1.84055">
        <ele>493</ele>
        <time>2016-12-14T00:51:09Z</time>
      </trkpt>
      <trkpt lat="46.10073" lon="1.84048">
        <ele>493</ele>
        <time>2016-12-14T00:53:09Z</time>
      </trkpt>
      <trkpt lat="46.10072" lon="1.84044">
        <ele>493</ele>
        <time>2016-12-14T00:55:09Z</time>
      </trkpt>
      <trkpt lat="46.10072" lon="1.84037">
        <ele>494</ele>
        <time>2016-12-14T00:57:09Z</time>
      </trkpt>
      <trkpt lat="46.10072" lon="1.84032">
        <ele>494</ele>
        <time>2016-12-14T00:59:09Z</time>
      </trkpt>
      <trkpt lat="46.10073" lon="1.8403">
        <ele>494</ele>
        <time>2016-12-14T01:01:09Z</time>
      </trkpt>
      <trkpt lat="46.10073" lon="1.84026">
        <ele>494</ele>
        <time>2016-12-14T01:03:09Z</time>
      </trkpt>
      <trkpt lat="46.10074" lon="1.84024">
        <ele>495</ele>
        <time>2016-12-14T01:05:09Z</time>
      </trkpt>
      <trkpt lat="46.10075" lon="1.84021">
        <ele>495</ele>
        <time>2016-12-14T01:07:09Z</time>
      </trkpt>
      <trkpt lat="46.10075" lon="1.84018">
        <ele>495</ele>
        <time>2016-12-14T01:09:09Z</time>
      </trkpt>
      <trkpt lat="46.10076" lon="1.84015">
        <ele>495</ele>
        <time>2016-12-14T01:11:09Z</time>
      </trkpt>
      <trkpt lat="46.10081" lon="1.84002">
        <ele>497</ele>
        <time>2016-12-14T01:13:09Z</time>
      </trkpt>
      <trkpt lat="46.10082" lon="1.83998">
        <ele>497</ele>
        <time>2016-12-14T01:15:09Z</time>
      </trkpt>
      <trkpt lat="46.10083" lon="1.83995">
        <ele>497</ele>
        <time>2016-12-14T01:17:09Z</time>
      </trkpt>
      <trkpt lat="46.10087" lon="1.8399">
        <ele>497</ele>
        <time>2016-12-14T01:19:09Z</time>
      </trkpt>
      <trkpt lat="46.10088" lon="1.83986">
        <ele>497</ele>
        <time>2016-12-14T01:21:09Z</time>
      </trkpt>
      <trkpt lat="46.10089" lon="1.83983">
        <ele>496</ele>
        <time>2016-12-14T01:23:09Z</time>
      </trkpt>
      <trkpt lat="46.10092" lon="1.83981">
        <ele>496</ele>
        <time>2016-12-14T01:25:09Z</time>
      </trkpt>
      <trkpt lat="46.10094" lon="1.83975">
        <ele>496</ele>
        <time>2016-12-14T01:27:09Z</time>
      </trkpt>
      <trkpt lat="46.10093" lon="1.83971">
        <ele>496</ele>
        <time>2016-12-14T01:29:09Z</time>
      </trkpt>
      <trkpt lat="46.10094" lon="1.8397">
        <ele>496</ele>
        <time>2016-12-14T01:31:09Z</time>
      </trkpt>
      <trkpt lat="46.10092" lon="1.83967">
        <ele>496</ele>
        <time>2016-12-14T01:33:09Z</time>
      </trkpt>
      <trkpt lat="46.1009" lon="1.83963">
        <ele>496</ele>
        <time>2016-12-14T01:35:09Z</time>
      </trkpt>
      <trkpt lat="46.10087" lon="1.83961">
        <ele>496</ele>
        <time>2016-12-14T01:37:09Z</time>
      </trkpt>
      <trkpt lat="46.10085" lon="1.83957">
        <ele>496</ele>
        <time>2016-12-14T01:39:09Z</time>
      </trkpt>
      <trkpt lat="46.10082" lon="1.83953">
        <ele>496</ele>
        <time>2016-12-14T01:41:09Z</time>
      </trkpt>
      <trkpt lat="46.1008" lon="1.83952">
        <ele>496</ele>
        <time>2016-12-14T01:43:09Z</time>
      </trkpt>
      <trkpt lat="46.10078" lon="1.83946">
        <ele>495</ele>
        <time>2016-12-14T01:45:09Z</time>
      </trkpt>
      <trkpt lat="46.10074" lon="1.83941">
        <ele>495</ele>
        <time>2016-12-14T01:47:09Z</time>
      </trkpt>
      <trkpt lat="46.10069" lon="1.83935">
        <ele>494</ele>
        <time>2016-12-14T01:49:09Z</time>
      </trkpt>
      <trkpt lat="46.10066" lon="1.83932">
        <ele>494</ele>
        <time>2016-12-14T01:51:09Z</time>
      </trkpt>
      <trkpt lat="46.10062" lon="1.83928">
        <ele>494</ele>
        <time>2016-12-14T01:53:09Z</time>
      </trkpt>
      <trkpt lat="46.1006" lon="1.83924">
        <ele>494</ele>
        <time>2016-12-14T01:55:09Z</time>
      </trkpt>
      <trkpt lat="46.10053" lon="1.83917">
        <ele>493</ele>
        <time>2016-12-14T01:57:09Z</time>
      </trkpt>
      <trkpt lat="46.10046" lon="1.83909">
        <ele>493</ele>
        <time>2016-12-14T01:59:09Z</time>
      </trkpt>
      <trkpt lat="46.10043" lon="1.83907">
        <ele>493</ele>
        <time>2016-12-14T02:01:09Z</time>
      </trkpt>
      <trkpt lat="46.10041" lon="1.83905">
        <ele>493</ele>
        <time>2016-12-14T02:03:09Z</time>
      </trkpt>
      <trkpt lat="46.10038" lon="1.83902">
        <ele>493</ele>
        <time>2016-12-14T02:05:09Z</time>
      </trkpt>
      <trkpt lat="46.10032" lon="1.83895">
        <ele>493</ele>
        <time>2016-12-14T02:07:09Z</time>
      </trkpt>
      <trkpt lat="46.10025" lon="1.83887">
        <ele>493</ele>
        <time>2016-12-14T02:09:09Z</time>
      </trkpt>
      <trkpt lat="46.10023" lon="1.83885">
        <ele>493</ele>
        <time>2016-12-14T02:11:09Z</time>
      </trkpt>
      <trkpt lat="46.10018" lon="1.83878">
        <ele>493</ele>
        <time>2016-12-14T02:13:09Z</time>
      </trkpt>
      <trkpt lat="46.10011" lon="1.83871">
        <ele>493</ele>
        <time>2016-12-14T02:15:09Z</time>
      </trkpt>
      <trkpt lat="46.10008" lon="1.83867">
        <ele>493</ele>
        <time>2016-12-14T02:17:09Z</time>
      </trkpt>
      <trkpt lat="46.10006" lon="1.83864">
        <ele>493</ele>
        <time>2016-12-14T02:19:09Z</time>
      </trkpt>
      <trkpt lat="46.10003" lon="1.83861">
        <ele>493</ele>
        <time>2016-12-14T02:21:09Z</time>
      </trkpt>
      <trkpt lat="46.10001" lon="1.83858">
        <ele>494</ele>
        <time>2016-12-14T02:23:09Z</time>
      </trkpt>
      <trkpt lat="46.09999" lon="1.83855">
        <ele>494</ele>
        <time>2016-12-14T02:25:09Z</time>
      </trkpt>
      <trkpt lat="46.09997" lon="1.83852">
        <ele>494</ele>
        <time>2016-12-14T02:27:09Z</time>
      </trkpt>
      <trkpt lat="46.09995" lon="1.8385">
        <ele>494</ele>
        <time>2016-12-14T02:29:09Z</time>
      </trkpt>
      <trkpt lat="46.09984" lon="1.83841">
        <ele>494</ele>
        <time>2016-12-14T02:31:09Z</time>
      </trkpt>
      <trkpt lat="46.09982" lon="1.83839">
        <ele>494</ele>
        <time>2016-12-14T02:33:09Z</time>
      </trkpt>
      <trkpt lat="46.09979" lon="1.83837">
        <ele>494</ele>
        <time>2016-12-14T02:35:09Z</time>
      </trkpt>
      <trkpt lat="46.09977" lon="1.83834">
        <ele>494</ele>
        <time>2016-12-14T02:37:09Z</time>
      </trkpt>
      <trkpt lat="46.09974" lon="1.83832">
        <ele>494</ele>
        <time>2016-12-14T02:39:09Z</time>
      </trkpt>
      <trkpt lat="46.09972" lon="1.8383">
        <ele>494</ele>
        <time>2016-12-14T02:41:09Z</time>
      </trkpt>
      <trkpt lat="46.0997" lon="1.83827">
        <ele>494</ele>
        <time>2016-12-14T02:43:09Z</time>
      </trkpt>
      <trkpt lat="46.09968" lon="1.83825">
        <ele>494</ele>
        <time>2016-12-14T02:45:09Z</time>
      </trkpt>
      <trkpt lat="46.09961" lon="1.83817">
        <ele>494</ele>
        <time>2016-12-14T02:47:09Z</time>
      </trkpt>
      <trkpt lat="46.09952" lon="1.83807">
        <ele>495</ele>
        <time>2016-12-14T02:49:09Z</time>
      </trkpt>
      <trkpt lat="46.09947" lon="1.83802">
        <ele>495</ele>
        <time>2016-12-14T02:51:09Z</time>
      </trkpt>
      <trkpt lat="46.09942" lon="1.83797">
        <ele>496</ele>
        <time>2016-12-14T02:53:09Z</time>
      </trkpt>
      <trkpt lat="46.0994" lon="1.83794">
        <ele>496</ele>
        <time>2016-12-14T02:55:09Z</time>
      </trkpt>
      <trkpt lat="46.09938" lon="1.83792">
        <ele>496</ele>
        <time>2016-12-14T02:57:09Z</time>
      </trkpt>
      <trkpt lat="46.09935" lon="1.8379">
        <ele>496</ele>
        <time>2016-12-14T02:59:09Z</time>
      </trkpt>
      <trkpt lat="46.09933" lon="1.83787">
        <ele>497</ele>
        <time>2016-12-14T03:01:09Z</time>
      </trkpt>
      <trkpt lat="46.09929" lon="1.83781">
        <ele>497</ele>
        <time>2016-12-14T03:03:09Z</time>
      </trkpt>
      <trkpt lat="46.09925" lon="1.83777">
        <ele>498</ele>
        <time>2016-12-14T03:05:09Z</time>
      </trkpt>
      <trkpt lat="46.09922" lon="1.83776">
        <ele>498</ele>
        <time>2016-12-14T03:07:09Z</time>
      </trkpt>
      <trkpt lat="46.09916" lon="1.83772">
        <ele>498</ele>
        <time>2016-12-14T03:09:09Z</time>
      </trkpt>
      <trkpt lat="46.09913" lon="1.83771">
        <ele>498</ele>
        <time>2016-12-14T03:11:09Z</time>
      </trkpt>
      <trkpt lat="46.09911" lon="1.83769">
        <ele>498</ele>
        <time>2016-12-14T03:13:09Z</time>
      </trkpt>
      <trkpt lat="46.09908" lon="1.83768">
        <ele>498</ele>
        <time>2016-12-14T03:15:09Z</time>
      </trkpt>
      <trkpt lat="46.09903" lon="1.83764">
        <ele>498</ele>
        <time>2016-12-14T03:17:09Z</time>
      </trkpt>
      <trkpt lat="46.09898" lon="1.8376">
        <ele>498</ele>
        <time>2016-12-14T03:19:09Z</time>
      </trkpt>
      <trkpt lat="46.09893" lon="1.83758">
        <ele>498</ele>
        <time>2016-12-14T03:21:09Z</time>
      </trkpt>
      <trkpt lat="46.09889" lon="1.83757">
        <ele>497</ele>
        <time>2016-12-14T03:23:09Z</time>
      </trkpt>
      <trkpt lat="46.09884" lon="1.83755">
        <ele>497</ele>
        <time>2016-12-14T03:25:09Z</time>
      </trkpt>
      <trkpt lat="46.09879" lon="1.83752">
        <ele>497</ele>
        <time>2016-12-14T03:27:09Z</time>
      </trkpt>
      <trkpt lat="46.09877" lon="1.8375">
        <ele>497</ele>
        <time>2016-12-14T03:29:09Z</time>
      </trkpt>
      <trkpt lat="46.09874" lon="1.83748">
        <ele>497</ele>
        <time>2016-12-14T03:31:09Z</time>
      </trkpt>
      <trkpt lat="46.09871" lon="1.83747">
        <ele>496</ele>
        <time>2016-12-14T03:33:09Z</time>
      </trkpt>
      <trkpt lat="46.09866" lon="1.83743">
        <ele>497</ele>
        <time>2016-12-14T03:35:09Z</time>
      </trkpt>
      <trkpt lat="46.09864" lon="1.83741">
        <ele>497</ele>
        <time>2016-12-14T03:37:09Z</time>
      </trkpt>
      <trkpt lat="46.09856" lon="1.83737">
        <ele>496</ele>
        <time>2016-12-14T03:39:09Z</time>
      </trkpt>
      <trkpt lat="46.09846" lon="1.83731">
        <ele>496</ele>
        <time>2016-12-14T03:41:09Z</time>
      </trkpt>
      <trkpt lat="46.09841" lon="1.83727">
        <ele>497</ele>
        <time>2016-12-14T03:43:09Z</time>
      </trkpt>
      <trkpt lat="46.09836" lon="1.83723">
        <ele>497</ele>
        <time>2016-12-14T03:45:09Z</time>
      </trkpt>
      <trkpt lat="46.09832" lon="1.83719">
        <ele>497</ele>
        <time>2016-12-14T03:47:09Z</time>
      </trkpt>
      <trkpt lat="46.09829" lon="1.83718">
        <ele>497</ele>
        <time>2016-12-14T03:49:09Z</time>
      </trkpt>
      <trkpt lat="46.09827" lon="1.83716">
        <ele>497</ele>
        <time>2016-12-14T03:51:09Z</time>
      </trkpt>
      <trkpt lat="46.09819" lon="1.83712">
        <ele>497</ele>
        <time>2016-12-14T03:53:09Z</time>
      </trkpt>
      <trkpt lat="46.09814" lon="1.83708">
        <ele>497</ele>
        <time>2016-12-14T03:55:09Z</time>
      </trkpt>
      <trkpt lat="46.09811" lon="1.83706">
        <ele>497</ele>
        <time>2016-12-14T03:57:09Z</time>
      </trkpt>
      <trkpt lat="46.09809" lon="1.83704">
        <ele>497</ele>
        <time>2016-12-14T03:59:09Z</time>
      </trkpt>
      <trkpt lat="46.09804" lon="1.83701">
        <ele>497</ele>
        <time>2016-12-14T04:01:09Z</time>
      </trkpt>
      <trkpt lat="46.09802" lon="1.83699">
        <ele>497</ele>
        <time>2016-12-14T04:03:09Z</time>
      </trkpt>
      <trkpt lat="46.09799" lon="1.83698">
        <ele>497</ele>
        <time>2016-12-14T04:05:09Z</time>
      </trkpt>
      <trkpt lat="46.09797" lon="1.83695">
        <ele>497</ele>
        <time>2016-12-14T04:07:09Z</time>
      </trkpt>
      <trkpt lat="46.09794" lon="1.83694">
        <ele>497</ele>
        <time>2016-12-14T04:09:09Z</time>
      </trkpt>
      <trkpt lat="46.09789" lon="1.8369">
        <ele>497</ele>
        <time>2016-12-14T04:11:09Z</time>
      </trkpt>
      <trkpt lat="46.09784" lon="1.83687">
        <ele>496</ele>
        <time>2016-12-14T04:13:09Z</time>
      </trkpt>
      <trkpt lat="46.09775" lon="1.83681">
        <ele>496</ele>
        <time>2016-12-14T04:15:09Z</time>
      </trkpt>
      <trkpt lat="46.09773" lon="1.83679">
        <ele>496</ele>
        <time>2016-12-14T04:17:09Z</time>
      </trkpt>
      <trkpt lat="46.09768" lon="1.83676">
        <ele>496</ele>
        <time>2016-12-14T04:19:09Z</time>
      </trkpt>
      <trkpt lat="46.09763" lon="1.83674">
        <ele>495</ele>
        <time>2016-12-14T04:21:09Z</time>
      </trkpt>
      <trkpt lat="46.09752" lon="1.83667">
        <ele>494</ele>
        <time>2016-12-14T04:23:09Z</time>
      </trkpt>
      <trkpt lat="46.0975" lon="1.83666">
        <ele>494</ele>
        <time>2016-12-14T04:25:09Z</time>
      </trkpt>
      <trkpt lat="46.09745" lon="1.83663">
        <ele>494</ele>
        <time>2016-12-14T04:27:09Z</time>
      </trkpt>
      <trkpt lat="46.09742" lon="1.83662">
        <ele>494</ele>
        <time>2016-12-14T04:29:09Z</time>
      </trkpt>
      <trkpt lat="46.09737" lon="1.83658">
        <ele>494</ele>
        <time>2016-12-14T04:31:09Z</time>
      </trkpt>
      <trkpt lat="46.09734" lon="1.83657">
        <ele>494</ele>
        <time>2016-12-14T04:33:09Z</time>
      </trkpt>
      <trkpt lat="46.09729" lon="1.83654">
        <ele>494</ele>
        <time>2016-12-14T04:35:09Z</time>
      </trkpt>
      <trkpt lat="46.09726" lon="1.83653">
        <ele>494</ele>
        <time>2016-12-14T04:37:09Z</time>
      </trkpt>
      <trkpt lat="46.09713" lon="1.83646">
        <ele>494</ele>
        <time>2016-12-14T04:39:09Z</time>
      </trkpt>
      <trkpt lat="46.09698" lon="1.83636">
        <ele>494</ele>
        <time>2016-12-14T04:41:09Z</time>
      </trkpt>
      <trkpt lat="46.0969" lon="1.83632">
        <ele>494</ele>
        <time>2016-12-14T04:43:09Z</time>
      </trkpt>
      <trkpt lat="46.09686" lon="1.83628">
        <ele>494</ele>
        <time>2016-12-14T04:45:09Z</time>
      </trkpt>
      <trkpt lat="46.09683" lon="1.83627">
        <ele>494</ele>
        <time>2016-12-14T04:47:09Z</time>
      </trkpt>
      <trkpt lat="46.0968" lon="1.83625">
        <ele>494</ele>
        <time>2016-12-14T04:49:09Z</time>
      </trkpt>
      <trkpt lat="46.09678" lon="1.83624">
        <ele>494</ele>
        <time>2016-12-14T04:51:09Z</time>
      </trkpt>
      <trkpt lat="46.09672" lon="1.83621">
        <ele>494</ele>
        <time>2016-12-14T04:53:09Z</time>
      </trkpt>
      <trkpt lat="46.09665" lon="1.83617">
        <ele>494</ele>
        <time>2016-12-14T04:55:09Z</time>
      </trkpt>
      <trkpt lat="46.09659" lon="1.83615">
        <ele>494</ele>
        <time>2016-12-14T04:57:09Z</time>
      </trkpt>
      <trkpt lat="46.09657" lon="1.83613">
        <ele>494</ele>
        <time>2016-12-14T04:59:09Z</time>
      </trkpt>
      <trkpt lat="46.09651" lon="1.83611">
        <ele>494</ele>
        <time>2016-12-14T05:01:09Z</time>
      </trkpt>
      <trkpt lat="46.09647" lon="1.83611">
        <ele>494</ele>
        <time>2016-12-14T05:03:09Z</time>
      </trkpt>
      <trkpt lat="46.09645" lon="1.8361">
        <ele>494</ele>
        <time>2016-12-14T05:05:09Z</time>
      </trkpt>
      <trkpt lat="46.0964" lon="1.83609">
        <ele>495</ele>
        <time>2016-12-14T05:07:09Z</time>
      </trkpt>
      <trkpt lat="46.09635" lon="1.83609">
        <ele>495</ele>
        <time>2016-12-14T05:09:09Z</time>
      </trkpt>
      <trkpt lat="46.09618" lon="1.83611">
        <ele>495</ele>
        <time>2016-12-14T05:11:09Z</time>
      </trkpt>
      <trkpt lat="46.09612" lon="1.83613">
        <ele>495</ele>
        <time>2016-12-14T05:13:09Z</time>
      </trkpt>
      <trkpt lat="46.09597" lon="1.83618">
        <ele>495</ele>
        <time>2016-12-14T05:15:09Z</time>
      </trkpt>
      <trkpt lat="46.0959" lon="1.83623">
        <ele>495</ele>
        <time>2016-12-14T05:17:09Z</time>
      </trkpt>
      <trkpt lat="46.09583" lon="1.83629">
        <ele>495</ele>
        <time>2016-12-14T05:19:09Z</time>
      </trkpt>
      <trkpt lat="46.09561" lon="1.83645">
        <ele>497</ele>
        <time>2016-12-14T05:21:09Z</time>
      </trkpt>
      <trkpt lat="46.09552" lon="1.83651">
        <ele>498</ele>
        <time>2016-12-14T05:23:09Z</time>
      </trkpt>
      <trkpt lat="46.09548" lon="1.83654">
        <ele>498</ele>
        <time>2016-12-14T05:25:09Z</time>
      </trkpt>
      <trkpt lat="46.09546" lon="1.83656">
        <ele>498</ele>
        <time>2016-12-14T05:27:09Z</time>
      </trkpt>
      <trkpt lat="46.09537" lon="1.83662">
        <ele>500</ele>
        <time>2016-12-14T05:29:09Z</time>
      </trkpt>
      <trkpt lat="46.09531" lon="1.83665">
        <ele>500</ele>
        <time>2016-12-14T05:31:09Z</time>
      </trkpt>
      <trkpt lat="46.09529" lon="1.83667">
        <ele>501</ele>
        <time>2016-12-14T05:33:09Z</time>
      </trkpt>
      <trkpt lat="46.09526" lon="1.83669">
        <ele>501</ele>
        <time>2016-12-14T05:35:09Z</time>
      </trkpt>
      <trkpt lat="46.09525" lon="1.83669">
        <ele>501</ele>
        <time>2016-12-14T05:37:09Z</time>
      </trkpt>
      <trkpt lat="46.09517" lon="1.83673">
        <ele>503</ele>
        <time>2016-12-14T05:39:09Z</time>
      </trkpt>
      <trkpt lat="46.09515" lon="1.83676">
        <ele>504</ele>
        <time>2016-12-14T05:41:09Z</time>
      </trkpt>
      <trkpt lat="46.09513" lon="1.83677">
        <ele>504</ele>
        <time>2016-12-14T05:43:09Z</time>
      </trkpt>
      <trkpt lat="46.09513" lon="1.83679">
        <ele>505</ele>
        <time>2016-12-14T05:45:09Z</time>
      </trkpt>
      <trkpt lat="46.09512" lon="1.83686">
        <ele>506</ele>
        <time>2016-12-14T05:47:09Z</time>
      </trkpt>
      <trkpt lat="46.09512" lon="1.83689">
        <ele>507</ele>
        <time>2016-12-14T05:49:09Z</time>
      </trkpt>
      <trkpt lat="46.09513" lon="1.83693">
        <ele>507</ele>
        <time>2016-12-14T05:51:09Z</time>
      </trkpt>
      <trkpt lat="46.09515" lon="1.83699">
        <ele>508</ele>
        <time>2016-12-14T05:53:09Z</time>
      </trkpt>
      <trkpt lat="46.09517" lon="1.83704">
        <ele>509</ele>
        <time>2016-12-14T05:55:09Z</time>
      </trkpt>
      <trkpt lat="46.09524" lon="1.83713">
        <ele>509</ele>
        <time>2016-12-14T05:57:09Z</time>
      </trkpt>
      <trkpt lat="46.09526" lon="1.83715">
        <ele>509</ele>
        <time>2016-12-14T05:59:09Z</time>
      </trkpt>
      <trkpt lat="46.09528" lon="1.83717">
        <ele>509</ele>
        <time>2016-12-14T06:01:09Z</time>
      </trkpt>
      <trkpt lat="46.0953" lon="1.83718">
        <ele>509</ele>
        <time>2016-12-14T06:03:09Z</time>
      </trkpt>
      <trkpt lat="46.09533" lon="1.83721">
        <ele>509</ele>
        <time>2016-12-14T06:05:09Z</time>
      </trkpt>
      <trkpt lat="46.09538" lon="1.83726">
        <ele>509</ele>
        <time>2016-12-14T06:07:09Z</time>
      </trkpt>
      <trkpt lat="46.0954" lon="1.83727">
        <ele>509</ele>
        <time>2016-12-14T06:09:09Z</time>
      </trkpt>
      <trkpt lat="46.09548" lon="1.83735">
        <ele>509</ele>
        <time>2016-12-14T06:11:09Z</time>
      </trkpt>
      <trkpt lat="46.09555" lon="1.83743">
        <ele>508</ele>
        <time>2016-12-14T06:13:09Z</time>
      </trkpt>
      <trkpt lat="46.09559" lon="1.8375">
        <ele>509</ele>
        <time>2016-12-14T06:15:09Z</time>
      </trkpt>
      <trkpt lat="46.09564" lon="1.83756">
        <ele>509</ele>
        <time>2016-12-14T06:17:09Z</time>
      </trkpt>
      <trkpt lat="46.09572" lon="1.83763">
        <ele>508</ele>
        <time>2016-12-14T06:19:09Z</time>
      </trkpt>
      <trkpt lat="46.09577" lon="1.83767">
        <ele>508</ele>
        <time>2016-12-14T06:21:09Z</time>
      </trkpt>
      <trkpt lat="46.0958" lon="1.83771">
        <ele>508</ele>
        <time>2016-12-14T06:23:09Z</time>
      </trkpt>
      <trkpt lat="46.09586" lon="1.83775">
        <ele>508</ele>
        <time>2016-12-14T06:25:09Z</time>
      </trkpt>
      <trkpt lat="46.09591" lon="1.8378">
        <ele>508</ele>
        <time>2016-12-14T06:27:09Z</time>
      </trkpt>
      <trkpt lat="46.096" lon="1.83785">
        <ele>508</ele>
        <time>2016-12-14T06:29:09Z</time>
      </trkpt>
      <trkpt lat="46.09603" lon="1.83788">
        <ele>508</ele>
        <time>2016-12-14T06:31:09Z</time>
      </trkpt>
      <trkpt lat="46.09605" lon="1.8379">
        <ele>508</ele>
        <time>2016-12-14T06:33:09Z</time>
      </trkpt>
      <trkpt lat="46.09622" lon="1.83803">
        <ele>508</ele>
        <time>2016-12-14T06:35:09Z</time>
      </trkpt>
      <trkpt lat="46.09626" lon="1.83807">
        <ele>508</ele>
        <time>2016-12-14T06:37:09Z</time>
      </trkpt>
      <trkpt lat="46.09628" lon="1.83809">
        <ele>508</ele>
        <time>2016-12-14T06:39:09Z</time>
      </trkpt>
      <trkpt lat="46.09634" lon="1.83812">
        <ele>508</ele>
        <time>2016-12-14T06:41:09Z</time>
      </trkpt>
      <trkpt lat="46.09635" lon="1.83814">
        <ele>508</ele>
        <time>2016-12-14T06:43:09Z</time>
      </trkpt>
      <trkpt lat="46.09639" lon="1.83815">
        <ele>508</ele>
        <time>2016-12-14T06:45:09Z</time>
      </trkpt>
      <trkpt lat="46.09648" lon="1.8382">
        <ele>507</ele>
        <time>2016-12-14T06:47:09Z</time>
      </trkpt>
      <trkpt lat="46.09654" lon="1.83823">
        <ele>507</ele>
        <time>2016-12-14T06:49:09Z</time>
      </trkpt>
      <trkpt lat="46.09658" lon="1.83825">
        <ele>506</ele>
        <time>2016-12-14T06:51:09Z</time>
      </trkpt>
      <trkpt lat="46.09662" lon="1.83827">
        <ele>506</ele>
        <time>2016-12-14T06:53:09Z</time>
      </trkpt>
      <trkpt lat="46.09666" lon="1.83829">
        <ele>506</ele>
        <time>2016-12-14T06:55:09Z</time>
      </trkpt>
      <trkpt lat="46.09669" lon="1.83832">
        <ele>505</ele>
        <time>2016-12-14T06:57:09Z</time>
      </trkpt>
      <trkpt lat="46.09673" lon="1.83838">
        <ele>505</ele>
        <time>2016-12-14T06:59:09Z</time>
      </trkpt>
      <trkpt lat="46.09675" lon="1.83841">
        <ele>505</ele>
        <time>2016-12-14T07:01:09Z</time>
      </trkpt>
      <trkpt lat="46.09677" lon="1.83844">
        <ele>505</ele>
        <time>2016-12-14T07:03:09Z</time>
      </trkpt>
      <trkpt lat="46.09678" lon="1.83847">
        <ele>505</ele>
        <time>2016-12-14T07:05:09Z</time>
      </trkpt>
      <trkpt lat="46.09679" lon="1.8385">
        <ele>505</ele>
        <time>2016-12-14T07:07:09Z</time>
      </trkpt>
      <trkpt lat="46.09692" lon="1.83867">
        <ele>503</ele>
        <time>2016-12-14T07:09:09Z</time>
      </trkpt>
      <trkpt lat="46.09694" lon="1.8387">
        <ele>502</ele>
        <time>2016-12-14T07:11:09Z</time>
      </trkpt>
      <trkpt lat="46.09697" lon="1.83875">
        <ele>502</ele>
        <time>2016-12-14T07:13:09Z</time>
      </trkpt>
      <trkpt lat="46.09701" lon="1.83881">
        <ele>501</ele>
        <time>2016-12-14T07:15:09Z</time>
      </trkpt>
      <trkpt lat="46.09704" lon="1.83888">
        <ele>501</ele>
        <time>2016-12-14T07:17:09Z</time>
      </trkpt>
      <trkpt lat="46.09707" lon="1.83894">
        <ele>500</ele>
        <time>2016-12-14T07:19:09Z</time>
      </trkpt>
      <trkpt lat="46.09708" lon="1.83898">
        <ele>500</ele>
        <time>2016-12-14T07:21:09Z</time>
      </trkpt>
      <trkpt lat="46.09708" lon="1.83901">
        <ele>500</ele>
        <time>2016-12-14T07:23:09Z</time>
      </trkpt>
      <trkpt lat="46.09709" lon="1.83913">
        <ele>501</ele>
        <time>2016-12-14T07:25:09Z</time>
      </trkpt>
      <trkpt lat="46.09709" lon="1.83922">
        <ele>501</ele>
        <time>2016-12-14T07:27:09Z</time>
      </trkpt>
      <trkpt lat="46.09708" lon="1.8393">
        <ele>501</ele>
        <time>2016-12-14T07:29:09Z</time>
      </trkpt>
      <trkpt lat="46.09703" lon="1.83942">
        <ele>502</ele>
        <time>2016-12-14T07:31:09Z</time>
      </trkpt>
      <trkpt lat="46.09699" lon="1.8395">
        <ele>503</ele>
        <time>2016-12-14T07:33:09Z</time>
      </trkpt>
      <trkpt lat="46.09697" lon="1.83953">
        <ele>504</ele>
        <time>2016-12-14T07:35:09Z</time>
      </trkpt>
      <trkpt lat="46.09695" lon="1.83957">
        <ele>504</ele>
        <time>2016-12-14T07:37:09Z</time>
      </trkpt>
      <trkpt lat="46.09687" lon="1.83971">
        <ele>506</ele>
        <time>2016-12-14T07:39:09Z</time>
      </trkpt>
      <trkpt lat="46.09683" lon="1.83978">
        <ele>508</ele>
        <time>2016-12-14T07:41:09Z</time>
      </trkpt>
      <trkpt lat="46.0968" lon="1.83987">
        <ele>508</ele>
        <time>2016-12-14T07:43:09Z</time>
      </trkpt>
      <trkpt lat="46.09677" lon="1.83994">
        <ele>509</ele>
        <time>2016-12-14T07:45:09Z</time>
      </trkpt>
      <trkpt lat="46.09676" lon="1.83997">
        <ele>509</ele>
        <time>2016-12-14T07:47:09Z</time>
      </trkpt>
      <trkpt lat="46.09675" lon="1.84001">
        <ele>510</ele>
        <time>2016-12-14T07:49:09Z</time>
      </trkpt>
      <trkpt lat="46.09675" lon="1.84005">
        <ele>509</ele>
        <time>2016-12-14T07:51:09Z</time>
      </trkpt>
      <trkpt lat="46.09676" lon="1.84009">
        <ele>509</ele>
        <time>2016-12-14T07:53:09Z</time>
      </trkpt>
      <trkpt lat="46.09678" lon="1.84018">
        <ele>507</ele>
        <time>2016-12-14T07:55:09Z</time>
      </trkpt>
      <trkpt lat="46.0968" lon="1.84021">
        <ele>507</ele>
        <time>2016-12-14T07:57:09Z</time>
      </trkpt>
      <trkpt lat="46.09682" lon="1.84025">
        <ele>506</ele>
        <time>2016-12-14T07:59:09Z</time>
      </trkpt>
      <trkpt lat="46.09683" lon="1.84028">
        <ele>505</ele>
        <time>2016-12-14T08:01:09Z</time>
      </trkpt>
      <trkpt lat="46.09687" lon="1.84034">
        <ele>504</ele>
        <time>2016-12-14T08:03:09Z</time>
      </trkpt>
      <trkpt lat="46.09692" lon="1.84043">
        <ele>502</ele>
        <time>2016-12-14T08:05:09Z</time>
      </trkpt>
      <trkpt lat="46.09698" lon="1.84051">
        <ele>500</ele>
        <time>2016-12-14T08:07:09Z</time>
      </trkpt>
      <trkpt lat="46.09702" lon="1.8406">
        <ele>499</ele>
        <time>2016-12-14T08:09:09Z</time>
      </trkpt>
      <trkpt lat="46.09705" lon="1.84065">
        <ele>498</ele>
        <time>2016-12-14T08:11:09Z</time>
      </trkpt>
      <trkpt lat="46.09707" lon="1.84068">
        <ele>497</ele>
        <time>2016-12-14T08:13:09Z</time>
      </trkpt>
      <trkpt lat="46.09708" lon="1.84071">
        <ele>497</ele>
        <time>2016-12-14T08:15:09Z</time>
      </trkpt>
      <trkpt lat="46.09708" lon="1.84074">
        <ele>497</ele>
        <time>2016-12-14T08:17:09Z</time>
      </trkpt>
      <trkpt lat="46.09706" lon="1.84075">
        <ele>497</ele>
        <time>2016-12-14T08:19:09Z</time>
      </trkpt>
      <trkpt lat="46.09704" lon="1.84074">
        <ele>498</ele>
        <time>2016-12-14T08:21:09Z</time>
      </trkpt>
      <trkpt lat="46.09699" lon="1.84068">
        <ele>499</ele>
        <time>2016-12-14T08:23:09Z</time>
      </trkpt>
      <trkpt lat="46.09698" lon="1.84067">
        <ele>499</ele>
        <time>2016-12-14T08:25:09Z</time>
      </trkpt>
      <trkpt lat="46.09694" lon="1.84065">
        <ele>500</ele>
        <time>2016-12-14T08:27:09Z</time>
      </trkpt>
      <trkpt lat="46.09691" lon="1.84063">
        <ele>501</ele>
        <time>2016-12-14T08:29:09Z</time>
      </trkpt>
      <trkpt lat="46.09686" lon="1.84063">
        <ele>502</ele>
        <time>2016-12-14T08:31:09Z</time>
      </trkpt>
      <trkpt lat="46.09684" lon="1.84064">
        <ele>503</ele>
        <time>2016-12-14T08:33:09Z</time>
      </trkpt>
      <trkpt lat="46.09683" lon="1.84064">
        <ele>503</ele>
        <time>2016-12-14T08:35:09Z</time>
      </trkpt>
      <trkpt lat="46.09679" lon="1.84065">
        <ele>504</ele>
        <time>2016-12-14T08:37:09Z</time>
      </trkpt>
      <trkpt lat="46.09679" lon="1.84065">
        <ele>504</ele>
        <time>2016-12-14T08:39:09Z</time>
      </trkpt>
      <trkpt lat="46.09679" lon="1.84065">
        <ele>504</ele>
        <time>2016-12-14T08:41:09Z</time>
      </trkpt>
      <trkpt lat="46.09678" lon="1.84065">
        <ele>504</ele>
        <time>2016-12-14T08:43:09Z</time>
      </trkpt>
      <trkpt lat="46.09678" lon="1.84067">
        <ele>504</ele>
        <time>2016-12-14T08:45:09Z</time>
      </trkpt>
      <trkpt lat="46.09677" lon="1.84068">
        <ele>504</ele>
        <time>2016-12-14T08:47:09Z</time>
      </trkpt>
      <trkpt lat="46.09676" lon="1.84071">
        <ele>504</ele>
        <time>2016-12-14T08:49:09Z</time>
      </trkpt>
      <trkpt lat="46.09675" lon="1.84074">
        <ele>504</ele>
        <time>2016-12-14T08:51:09Z</time>
      </trkpt>
      <trkpt lat="46.09674" lon="1.84078">
        <ele>504</ele>
        <time>2016-12-14T08:53:09Z</time>
      </trkpt>
      <trkpt lat="46.09674" lon="1.8408">
        <ele>504</ele>
        <time>2016-12-14T08:55:09Z</time>
      </trkpt>
      <trkpt lat="46.09673" lon="1.84083">
        <ele>504</ele>
        <time>2016-12-14T08:57:09Z</time>
      </trkpt>
      <trkpt lat="46.09672" lon="1.84092">
        <ele>504</ele>
        <time>2016-12-14T08:59:09Z</time>
      </trkpt>
      <trkpt lat="46.09672" lon="1.84092">
        <ele>504</ele>
        <time>2016-12-14T09:01:09Z</time>
      </trkpt>
      <trkpt lat="46.09672" lon="1.84095">
        <ele>504</ele>
        <time>2016-12-14T09:03:09Z</time>
      </trkpt>
      <trkpt lat="46.0967" lon="1.84098">
        <ele>504</ele>
        <time>2016-12-14T09:05:09Z</time>
      </trkpt>
      <trkpt lat="46.09669" lon="1.841">
        <ele>505</ele>
        <time>2016-12-14T09:07:09Z</time>
      </trkpt>
      <trkpt lat="46.09668" lon="1.841">
        <ele>505</ele>
        <time>2016-12-14T09:09:09Z</time>
      </trkpt>
      <trkpt lat="46.09668" lon="1.841">
        <ele>505</ele>
        <time>2016-12-14T09:11:09Z</time>
      </trkpt>
      <trkpt lat="46.09666" lon="1.84101">
        <ele>505</ele>
        <time>2016-12-14T09:13:09Z</time>
      </trkpt>
      <trkpt lat="46.09662" lon="1.84102">
        <ele>506</ele>
        <time>2016-12-14T09:15:09Z</time>
      </trkpt>
      <trkpt lat="46.09657" lon="1.84104">
        <ele>508</ele>
        <time>2016-12-14T09:17:09Z</time>
      </trkpt>
      <trkpt lat="46.09655" lon="1.84106">
        <ele>509</ele>
        <time>2016-12-14T09:19:09Z</time>
      </trkpt>
      <trkpt lat="46.09652" lon="1.8411">
        <ele>509</ele>
        <time>2016-12-14T09:21:09Z</time>
      </trkpt>
      <trkpt lat="46.09648" lon="1.84112">
        <ele>511</ele>
        <time>2016-12-14T09:23:09Z</time>
      </trkpt>
      <trkpt lat="46.09643" lon="1.84113">
        <ele>512</ele>
        <time>2016-12-14T09:25:09Z</time>
      </trkpt>
      <trkpt lat="46.09636" lon="1.84111">
        <ele>514</ele>
        <time>2016-12-14T09:27:09Z</time>
      </trkpt>
      <trkpt lat="46.09633" lon="1.84111">
        <ele>515</ele>
        <time>2016-12-14T09:29:09Z</time>
      </trkpt>
      <trkpt lat="46.0963" lon="1.84111">
        <ele>516</ele>
        <time>2016-12-14T09:31:09Z</time>
      </trkpt>
      <trkpt lat="46.09627" lon="1.84111">
        <ele>517</ele>
        <time>2016-12-14T09:33:09Z</time>
      </trkpt>
      <trkpt lat="46.09624" lon="1.84111">
        <ele>518</ele>
        <time>2016-12-14T09:35:09Z</time>
      </trkpt>
      <trkpt lat="46.09622" lon="1.84111">
        <ele>519</ele>
        <time>2016-12-14T09:37:09Z</time>
      </trkpt>
      <trkpt lat="46.09617" lon="1.84111">
        <ele>520</ele>
        <time>2016-12-14T09:39:09Z</time>
      </trkpt>
      <trkpt lat="46.09614" lon="1.84111">
        <ele>521</ele>
        <time>2016-12-14T09:41:09Z</time>
      </trkpt>
      <trkpt lat="46.09611" lon="1.84111">
        <ele>522</ele>
        <time>2016-12-14T09:43:09Z</time>
      </trkpt>
      <trkpt lat="46.0961" lon="1.8411">
        <ele>522</ele>
        <time>2016-12-14T09:45:09Z</time>
      </trkpt>
      <trkpt lat="46.09609" lon="1.8411">
        <ele>523</ele>
        <time>2016-12-14T09:47:09Z</time>
      </trkpt>
      <trkpt lat="46.09599" lon="1.84112">
        <ele>526</ele>
        <time>2016-12-14T09:49:09Z</time>
      </trkpt>
      <trkpt lat="46.09598" lon="1.84111">
        <ele>526</ele>
        <time>2016-12-14T09:51:09Z</time>
      </trkpt>
      <trkpt lat="46.09596" lon="1.84111">
        <ele>526</ele>
        <time>2016-12-14T09:53:09Z</time>
      </trkpt>
      <trkpt lat="46.09594" lon="1.84111">
        <ele>527</ele>
        <time>2016-12-14T09:55:09Z</time>
      </trkpt>
      <trkpt lat="46.09588" lon="1.84111">
        <ele>529</ele>
        <time>2016-12-14T09:57:09Z</time>
      </trkpt>
      <trkpt lat="46.09578" lon="1.84109">
        <ele>531</ele>
        <time>2016-12-14T09:59:09Z</time>
      </trkpt>
      <trkpt lat="46.09577" lon="1.84109">
        <ele>531</ele>
        <time>2016-12-14T10:01:09Z</time>
      </trkpt>
      <trkpt lat="46.09576" lon="1.84108">
        <ele>531</ele>
        <time>2016-12-14T10:03:09Z</time>
      </trkpt>
      <trkpt lat="46.09573" lon="1.84109">
        <ele>531</ele>
        <time>2016-12-14T10:05:09Z</time>
      </trkpt>
      <trkpt lat="46.0957" lon="1.84108">
        <ele>532</ele>
        <time>2016-12-14T10:07:09Z</time>
      </trkpt>
      <trkpt lat="46.09564" lon="1.84107">
        <ele>532</ele>
        <time>2016-12-14T10:09:09Z</time>
      </trkpt>
      <trkpt lat="46.09563" lon="1.84108">
        <ele>532</ele>
        <time>2016-12-14T10:11:09Z</time>
      </trkpt>
      <trkpt lat="46.09559" lon="1.84107">
        <ele>533</ele>
        <time>2016-12-14T10:13:09Z</time>
      </trkpt>
      <trkpt lat="46.09556" lon="1.84106">
        <ele>533</ele>
        <time>2016-12-14T10:15:09Z</time>
      </trkpt>
      <trkpt lat="46.09552" lon="1.84105">
        <ele>533</ele>
        <time>2016-12-14T10:17:09Z</time>
      </trkpt>
      <trkpt lat="46.09551" lon="1.84103">
        <ele>534</ele>
        <time>2016-12-14T10:19:09Z</time>
      </trkpt>
      <trkpt lat="46.09549" lon="1.84099">
        <ele>534</ele>
        <time>2016-12-14T10:21:09Z</time>
      </trkpt>
      <trkpt lat="46.09545" lon="1.84097">
        <ele>534</ele>
        <time>2016-12-14T10:23:09Z</time>
      </trkpt>
      <trkpt lat="46.09539" lon="1.8409">
        <ele>535</ele>
        <time>2016-12-14T10:25:09Z</time>
      </trkpt>
      <trkpt lat="46.09537" lon="1.84086">
        <ele>535</ele>
        <time>2016-12-14T10:27:09Z</time>
      </trkpt>
      <trkpt lat="46.09537" lon="1.84084">
        <ele>535</ele>
        <time>2016-12-14T10:29:09Z</time>
      </trkpt>
      <trkpt lat="46.09536" lon="1.84084">
        <ele>535</ele>
        <time>2016-12-14T10:31:09Z</time>
      </trkpt>
      <trkpt lat="46.09534" lon="1.84083">
        <ele>535</ele>
        <time>2016-12-14T10:33:09Z</time>
      </trkpt>
      <trkpt lat="46.09533" lon="1.84082">
        <ele>535</ele>
        <time>2016-12-14T10:35:09Z</time>
      </trkpt>
      <trkpt lat="46.09525" lon="1.84076">
        <ele>536</ele>
        <time>2016-12-14T10:37:09Z</time>
      </trkpt>
      <trkpt lat="46.09521" lon="1.84073">
        <ele>537</ele>
        <time>2016-12-14T10:39:09Z</time>
      </trkpt>
      <trkpt lat="46.09518" lon="1.8407">
        <ele>537</ele>
        <time>2016-12-14T10:41:09Z</time>
      </trkpt>
      <trkpt lat="46.09514" lon="1.84065">
        <ele>538</ele>
        <time>2016-12-14T10:43:09Z</time>
      </trkpt>
      <trkpt lat="46.09514" lon="1.84064">
        <ele>538</ele>
        <time>2016-12-14T10:45:09Z</time>
      </trkpt>
      <trkpt lat="46.09514" lon="1.84063">
        <ele>538</ele>
        <time>2016-12-14T10:47:09Z</time>
      </trkpt>
      <trkpt lat="46.09512" lon="1.8406">
        <ele>538</ele>
        <time>2016-12-14T10:49:09Z</time>
      </trkpt>
      <trkpt lat="46.09509" lon="1.84052">
        <ele>539</ele>
        <time>2016-12-14T10:51:09Z</time>
      </trkpt>
      <trkpt lat="46.09507" lon="1.84048">
        <ele>539</ele>
        <time>2016-12-14T10:53:09Z</time>
      </trkpt>
      <trkpt lat="46.09502" lon="1.84042">
        <ele>540</ele>
        <time>2016-12-14T10:55:09Z</time>
      </trkpt>
      <trkpt lat="46.095" lon="1.8404">
        <ele>540</ele>
        <time>2016-12-14T10:57:09Z</time>
      </trkpt>
      <trkpt lat="46.09495" lon="1.84037">
        <ele>540</ele>
        <time>2016-12-14T10:59:09Z</time>
      </trkpt>
      <trkpt lat="46.09489" lon="1.84032">
        <ele>540</ele>
        <time>2016-12-14T11:01:09Z</time>
      </trkpt>
      <trkpt lat="46.09486" lon="1.84027">
        <ele>541</ele>
        <time>2016-12-14T11:03:09Z</time>
      </trkpt>
      <trkpt lat="46.09484" lon="1.84025">
        <ele>541</ele>
        <time>2016-12-14T11:05:09Z</time>
      </trkpt>
      <trkpt lat="46.09478" lon="1.8402">
        <ele>541</ele>
        <time>2016-12-14T11:07:09Z</time>
      </trkpt>
      <trkpt lat="46.09474" lon="1.84016">
        <ele>542</ele>
        <time>2016-12-14T11:09:09Z</time>
      </trkpt>
      <trkpt lat="46.09467" lon="1.84012">
        <ele>542</ele>
        <time>2016-12-14T11:11:09Z</time>
      </trkpt>
      <trkpt lat="46.09463" lon="1.84011">
        <ele>542</ele>
        <time>2016-12-14T11:13:09Z</time>
      </trkpt>
      <trkpt lat="46.09459" lon="1.8401">
        <ele>543</ele>
        <time>2016-12-14T11:15:09Z</time>
      </trkpt>
      <trkpt lat="46.09453" lon="1.84011">
        <ele>543</ele>
        <time>2016-12-14T11:17:09Z</time>
      </trkpt>
      <trkpt lat="46.09449" lon="1.8401">
        <ele>543</ele>
        <time>2016-12-14T11:19:09Z</time>
      </trkpt>
      <trkpt lat="46.09447" lon="1.84009">
        <ele>543</ele>
        <time>2016-12-14T11:21:09Z</time>
      </trkpt>
      <trkpt lat="46.09443" lon="1.84008">
        <ele>544</ele>
        <time>2016-12-14T11:23:09Z</time>
      </trkpt>
      <trkpt lat="46.09441" lon="1.84007">
        <ele>544</ele>
        <time>2016-12-14T11:25:09Z</time>
      </trkpt>
      <trkpt lat="46.0944" lon="1.84006">
        <ele>544</ele>
        <time>2016-12-14T11:27:09Z</time>
      </trkpt>
      <trkpt lat="46.09439" lon="1.84003">
        <ele>544</ele>
        <time>2016-12-14T11:29:09Z</time>
      </trkpt>
      <trkpt lat="46.09435" lon="1.83997">
        <ele>545</ele>
        <time>2016-12-14T11:31:09Z</time>
      </trkpt>
      <trkpt lat="46.09434" lon="1.83995">
        <ele>545</ele>
        <time>2016-12-14T11:33:09Z</time>
      </trkpt>
      <trkpt lat="46.0943" lon="1.8399">
        <ele>546</ele>
        <time>2016-12-14T11:35:09Z</time>
      </trkpt>
      <trkpt lat="46.09428" lon="1.83988">
        <ele>546</ele>
        <time>2016-12-14T11:37:09Z</time>
      </trkpt>
      <trkpt lat="46.09424" lon="1.83986">
        <ele>547</ele>
        <time>2016-12-14T11:39:09Z</time>
      </trkpt>
      <trkpt lat="46.09415" lon="1.83981">
        <ele>548</ele>
        <time>2016-12-14T11:41:09Z</time>
      </trkpt>
      <trkpt lat="46.09412" lon="1.8398">
        <ele>549</ele>
        <time>2016-12-14T11:43:09Z</time>
      </trkpt>
      <trkpt lat="46.09407" lon="1.83977">
        <ele>550</ele>
        <time>2016-12-14T11:45:09Z</time>
      </trkpt>
      <trkpt lat="46.09404" lon="1.83975">
        <ele>550</ele>
        <time>2016-12-14T11:47:09Z</time>
      </trkpt>
      <trkpt lat="46.09394" lon="1.8397">
        <ele>552</ele>
        <time>2016-12-14T11:49:09Z</time>
      </trkpt>
      <trkpt lat="46.0939" lon="1.83968">
        <ele>553</ele>
        <time>2016-12-14T11:51:09Z</time>
      </trkpt>
      <trkpt lat="46.09388" lon="1.83967">
        <ele>553</ele>
        <time>2016-12-14T11:53:09Z</time>
      </trkpt>
      <trkpt lat="46.09387" lon="1.83966">
        <ele>553</ele>
        <time>2016-12-14T11:55:09Z</time>
      </trkpt>
      <trkpt lat="46.09384" lon="1.8396">
        <ele>554</ele>
        <time>2016-12-14T11:57:09Z</time>
      </trkpt>
      <trkpt lat="46.09382" lon="1.83956">
        <ele>555</ele>
        <time>2016-12-14T11:59:09Z</time>
      </trkpt>
      <trkpt lat="46.09381" lon="1.83955">
        <ele>555</ele>
        <time>2016-12-14T12:01:09Z</time>
      </trkpt>
      <trkpt lat="46.09379" lon="1.83953">
        <ele>556</ele>
        <time>2016-12-14T12:03:09Z</time>
      </trkpt>
      <trkpt lat="46.09374" lon="1.83952">
        <ele>556</ele>
        <time>2016-12-14T12:05:09Z</time>
      </trkpt>
      <trkpt lat="46.09375" lon="1.83952">
        <ele>556</ele>
        <time>2016-12-14T12:07:09Z</time>
      </trkpt>
      <trkpt lat="46.09374" lon="1.83951">
        <ele>557</ele>
        <time>2016-12-14T12:09:09Z</time>
      </trkpt>
      <trkpt lat="46.09373" lon="1.83951">
        <ele>557</ele>
        <time>2016-12-14T12:11:09Z</time>
      </trkpt>
      <trkpt lat="46.09372" lon="1.83951">
        <ele>557</ele>
        <time>2016-12-14T12:13:09Z</time>
      </trkpt>
      <trkpt lat="46.0937" lon="1.83951">
        <ele>557</ele>
        <time>2016-12-14T12:15:09Z</time>
      </trkpt>
      <trkpt lat="46.09369" lon="1.83951">
        <ele>557</ele>
        <time>2016-12-14T12:17:09Z</time>
      </trkpt>
      <trkpt lat="46.09364" lon="1.83955">
        <ele>558</ele>
        <time>2016-12-14T12:19:09Z</time>
      </trkpt>
      <trkpt lat="46.09362" lon="1.83955">
        <ele>558</ele>
        <time>2016-12-14T12:21:09Z</time>
      </trkpt>
      <trkpt lat="46.09358" lon="1.83954">
        <ele>558</ele>
        <time>2016-12-14T12:23:09Z</time>
      </trkpt>
      <trkpt lat="46.09356" lon="1.83954">
        <ele>559</ele>
        <time>2016-12-14T12:25:09Z</time>
      </trkpt>
      <trkpt lat="46.09352" lon="1.83951">
        <ele>560</ele>
        <time>2016-12-14T12:27:09Z</time>
      </trkpt>
      <trkpt lat="46.09349" lon="1.8395">
        <ele>560</ele>
        <time>2016-12-14T12:29:09Z</time>
      </trkpt>
      <trkpt lat="46.09347" lon="1.83949">
        <ele>560</ele>
        <time>2016-12-14T12:31:09Z</time>
      </trkpt>
      <trkpt lat="46.09341" lon="1.8395">
        <ele>561</ele>
        <time>2016-12-14T12:33:09Z</time>
      </trkpt>
      <trkpt lat="46.09338" lon="1.83948">
        <ele>562</ele>
        <time>2016-12-14T12:35:09Z</time>
      </trkpt>
      <trkpt lat="46.09337" lon="1.83947">
        <ele>562</ele>
        <time>2016-12-14T12:37:09Z</time>
      </trkpt>
      <trkpt lat="46.09333" lon="1.83945">
        <ele>563</ele>
        <time>2016-12-14T12:39:09Z</time>
      </trkpt>
      <trkpt lat="46.09329" lon="1.83945">
        <ele>563</ele>
        <time>2016-12-14T12:41:09Z</time>
      </trkpt>
      <trkpt lat="46.09327" lon="1.83946">
        <ele>563</ele>
        <time>2016-12-14T12:43:09Z</time>
      </trkpt>
      <trkpt lat="46.09322" lon="1.8395">
        <ele>562</ele>
        <time>2016-12-14T12:45:09Z</time>
      </trkpt>
      <trkpt lat="46.09321" lon="1.83951">
        <ele>562</ele>
        <time>2016-12-14T12:47:09Z</time>
      </trkpt>
      <trkpt lat="46.09317" lon="1.83959">
        <ele>562</ele>
        <time>2016-12-14T12:49:09Z</time>
      </trkpt>
      <trkpt lat="46.09316" lon="1.83962">
        <ele>562</ele>
        <time>2016-12-14T12:51:09Z</time>
      </trkpt>
      <trkpt lat="46.09313" lon="1.83967">
        <ele>562</ele>
        <time>2016-12-14T12:53:09Z</time>
      </trkpt>
      <trkpt lat="46.0931" lon="1.83972">
        <ele>561</ele>
        <time>2016-12-14T12:55:09Z</time>
      </trkpt>
      <trkpt lat="46.09307" lon="1.83976">
        <ele>561</ele>
        <time>2016-12-14T12:57:09Z</time>
      </trkpt>
      <trkpt lat="46.09304" lon="1.8398">
        <ele>561</ele>
        <time>2016-12-14T12:59:09Z</time>
      </trkpt>
      <trkpt lat="46.093" lon="1.83982">
        <ele>562</ele>
        <time>2016-12-14T13:01:09Z</time>
      </trkpt>
      <trkpt lat="46.09297" lon="1.83985">
        <ele>562</ele>
        <time>2016-12-14T13:03:09Z</time>
      </trkpt>
      <trkpt lat="46.09294" lon="1.83989">
        <ele>562</ele>
        <time>2016-12-14T13:05:09Z</time>
      </trkpt>
      <trkpt lat="46.09293" lon="1.8399">
        <ele>562</ele>
        <time>2016-12-14T13:07:09Z</time>
      </trkpt>
      <trkpt lat="46.09292" lon="1.83991">
        <ele>562</ele>
        <time>2016-12-14T13:09:09Z</time>
      </trkpt>
      <trkpt lat="46.0929" lon="1.83994">
        <ele>562</ele>
        <time>2016-12-14T13:11:09Z</time>
      </trkpt>
      <trkpt lat="46.09287" lon="1.83997">
        <ele>562</ele>
        <time>2016-12-14T13:13:09Z</time>
      </trkpt>
      <trkpt lat="46.09284" lon="1.83998">
        <ele>563</ele>
        <time>2016-12-14T13:15:09Z</time>
      </trkpt>
      <trkpt lat="46.09279" lon="1.84">
        <ele>563</ele>
        <time>2016-12-14T13:17:09Z</time>
      </trkpt>
      <trkpt lat="46.09272" lon="1.84">
        <ele>564</ele>
        <time>2016-12-14T13:19:09Z</time>
      </trkpt>
      <trkpt lat="46.0927" lon="1.84001">
        <ele>564</ele>
        <time>2016-12-14T13:21:09Z</time>
      </trkpt>
      <trkpt lat="46.09268" lon="1.84004">
        <ele>564</ele>
        <time>2016-12-14T13:23:09Z</time>
      </trkpt>
      <trkpt lat="46.09264" lon="1.8401">
        <ele>564</ele>
        <time>2016-12-14T13:25:09Z</time>
      </trkpt>
      <trkpt lat="46.09261" lon="1.84015">
        <ele>564</ele>
        <time>2016-12-14T13:27:09Z</time>
      </trkpt>
      <trkpt lat="46.09255" lon="1.84017">
        <ele>565</ele>
        <time>2016-12-14T13:29:09Z</time>
      </trkpt>
      <trkpt lat="46.09247" lon="1.84019">
        <ele>565</ele>
        <time>2016-12-14T13:31:09Z</time>
      </trkpt>
      <trkpt lat="46.09244" lon="1.84019">
        <ele>565</ele>
        <time>2016-12-14T13:33:09Z</time>
      </trkpt>
      <trkpt lat="46.09241" lon="1.84019">
        <ele>565</ele>
        <time>2016-12-14T13:35:09Z</time>
      </trkpt>
      <trkpt lat="46.09236" lon="1.84016">
        <ele>565</ele>
        <time>2016-12-14T13:37:09Z</time>
      </trkpt>
      <trkpt lat="46.09234" lon="1.84016">
        <ele>565</ele>
        <time>2016-12-14T13:39:09Z</time>
      </trkpt>
      <trkpt lat="46.09229" lon="1.84014">
        <ele>565</ele>
        <time>2016-12-14T13:41:09Z</time>
      </trkpt>
      <trkpt lat="46.09224" lon="1.84013">
        <ele>565</ele>
        <time>2016-12-14T13:43:09Z</time>
      </trkpt>
      <trkpt lat="46.09221" lon="1.84013">
        <ele>565</ele>
        <time>2016-12-14T13:45:09Z</time>
      </trkpt>
      <trkpt lat="46.09219" lon="1.84014">
        <ele>565</ele>
        <time>2016-12-14T13:47:09Z</time>
      </trkpt>
      <trkpt lat="46.09211" lon="1.84017">
        <ele>564</ele>
        <time>2016-12-14T13:49:09Z</time>
      </trkpt>
      <trkpt lat="46.09207" lon="1.84018">
        <ele>564</ele>
        <time>2016-12-14T13:51:09Z</time>
      </trkpt>
      <trkpt lat="46.092" lon="1.84019">
        <ele>564</ele>
        <time>2016-12-14T13:53:09Z</time>
      </trkpt>
      <trkpt lat="46.09198" lon="1.8402">
        <ele>564</ele>
        <time>2016-12-14T13:55:09Z</time>
      </trkpt>
      <trkpt lat="46.09196" lon="1.84021">
        <ele>564</ele>
        <time>2016-12-14T13:57:09Z</time>
      </trkpt>
      <trkpt lat="46.09192" lon="1.84023">
        <ele>564</ele>
        <time>2016-12-14T13:59:09Z</time>
      </trkpt>
      <trkpt lat="46.09187" lon="1.84025">
        <ele>564</ele>
        <time>2016-12-14T14:01:09Z</time>
      </trkpt>
      <trkpt lat="46.09184" lon="1.84026">
        <ele>564</ele>
        <time>2016-12-14T14:03:09Z</time>
      </trkpt>
      <trkpt lat="46.09181" lon="1.84025">
        <ele>564</ele>
        <time>2016-12-14T14:05:09Z</time>
      </trkpt>
      <trkpt lat="46.09178" lon="1.84023">
        <ele>564</ele>
        <time>2016-12-14T14:07:09Z</time>
      </trkpt>
      <trkpt lat="46.09175" lon="1.84023">
        <ele>563</ele>
        <time>2016-12-14T14:09:09Z</time>
      </trkpt>
      <trkpt lat="46.09172" lon="1.84023">
        <ele>563</ele>
        <time>2016-12-14T14:11:09Z</time>
      </trkpt>
      <trkpt lat="46.09169" lon="1.84024">
        <ele>563</ele>
        <time>2016-12-14T14:13:09Z</time>
      </trkpt>
      <trkpt lat="46.09167" lon="1.84026">
        <ele>563</ele>
        <time>2016-12-14T14:15:09Z</time>
      </trkpt>
      <trkpt lat="46.09165" lon="1.84027">
        <ele>563</ele>
        <time>2016-12-14T14:17:09Z</time>
      </trkpt>
      <trkpt lat="46.09163" lon="1.8403">
        <ele>563</ele>
        <time>2016-12-14T14:19:09Z</time>
      </trkpt>
      <trkpt lat="46.0916" lon="1.84031">
        <ele>563</ele>
        <time>2016-12-14T14:21:09Z</time>
      </trkpt>
      <trkpt lat="46.09158" lon="1.84032">
        <ele>563</ele>
        <time>2016-12-14T14:23:09Z</time>
      </trkpt>
      <trkpt lat="46.09159" lon="1.84031">
        <ele>563</ele>
        <time>2016-12-14T14:25:09Z</time>
      </trkpt>
      <trkpt lat="46.09156" lon="1.84032">
        <ele>563</ele>
        <time>2016-12-14T14:27:09Z</time>
      </trkpt>
      <trkpt lat="46.09154" lon="1.84033">
        <ele>563</ele>
        <time>2016-12-14T14:29:09Z</time>
      </trkpt>
      <trkpt lat="46.09144" lon="1.84027">
        <ele>563</ele>
        <time>2016-12-14T14:31:09Z</time>
      </trkpt>
      <trkpt lat="46.09141" lon="1.84026">
        <ele>563</ele>
        <time>2016-12-14T14:33:09Z</time>
      </trkpt>
      <trkpt lat="46.09138" lon="1.84024">
        <ele>564</ele>
        <time>2016-12-14T14:35:09Z</time>
      </trkpt>
      <trkpt lat="46.09134" lon="1.84022">
        <ele>564</ele>
        <time>2016-12-14T14:37:09Z</time>
      </trkpt>
      <trkpt lat="46.09129" lon="1.84019">
        <ele>564</ele>
        <time>2016-12-14T14:39:09Z</time>
      </trkpt>
      <trkpt lat="46.09124" lon="1.84016">
        <ele>564</ele>
        <time>2016-12-14T14:41:09Z</time>
      </trkpt>
      <trkpt lat="46.09118" lon="1.84012">
        <ele>565</ele>
        <time>2016-12-14T14:43:09Z</time>
      </trkpt>
      <trkpt lat="46.09109" lon="1.84007">
        <ele>566</ele>
        <time>2016-12-14T14:45:09Z</time>
      </trkpt>
      <trkpt lat="46.091" lon="1.83999">
        <ele>567</ele>
        <time>2016-12-14T14:47:09Z</time>
      </trkpt>
      <trkpt lat="46.09097" lon="1.83996">
        <ele>567</ele>
        <time>2016-12-14T14:49:09Z</time>
      </trkpt>
      <trkpt lat="46.09096" lon="1.83994">
        <ele>567</ele>
        <time>2016-12-14T14:51:09Z</time>
      </trkpt>
      <trkpt lat="46.09095" lon="1.83992">
        <ele>567</ele>
        <time>2016-12-14T14:53:09Z</time>
      </trkpt>
      <trkpt lat="46.09094" lon="1.83989">
        <ele>567</ele>
        <time>2016-12-14T14:55:09Z</time>
      </trkpt>
      <trkpt lat="46.09092" lon="1.83986">
        <ele>567</ele>
        <time>2016-12-14T14:57:09Z</time>
      </trkpt>
      <trkpt lat="46.09088" lon="1.83983">
        <ele>567</ele>
        <time>2016-12-14T14:59:09Z</time>
      </trkpt>
      <trkpt lat="46.09086" lon="1.83982">
        <ele>568</ele>
        <time>2016-12-14T15:01:09Z</time>
      </trkpt>
      <trkpt lat="46.09084" lon="1.83983">
        <ele>568</ele>
        <time>2016-12-14T15:03:09Z</time>
      </trkpt>
      <trkpt lat="46.09079" lon="1.83986">
        <ele>568</ele>
        <time>2016-12-14T15:05:09Z</time>
      </trkpt>
      <trkpt lat="46.09074" lon="1.83993">
        <ele>568</ele>
        <time>2016-12-14T15:07:09Z</time>
      </trkpt>
      <trkpt lat="46.09071" lon="1.83995">
        <ele>568</ele>
        <time>2016-12-14T15:09:09Z</time>
      </trkpt>
      <trkpt lat="46.09069" lon="1.83997">
        <ele>568</ele>
        <time>2016-12-14T15:11:09Z</time>
      </trkpt>
      <trkpt lat="46.09065" lon="1.84002">
        <ele>567</ele>
        <time>2016-12-14T15:13:09Z</time>
      </trkpt>
      <trkpt lat="46.09059" lon="1.84007">
        <ele>566</ele>
        <time>2016-12-14T15:15:09Z</time>
      </trkpt>
      <trkpt lat="46.09057" lon="1.84008">
        <ele>566</ele>
        <time>2016-12-14T15:17:09Z</time>
      </trkpt>
      <trkpt lat="46.09055" lon="1.84008">
        <ele>566</ele>
        <time>2016-12-14T15:19:09Z</time>
      </trkpt>
      <trkpt lat="46.09054" lon="1.84007">
        <ele>566</ele>
        <time>2016-12-14T15:21:09Z</time>
      </trkpt>
      <trkpt lat="46.09051" lon="1.84006">
        <ele>566</ele>
        <time>2016-12-14T15:23:09Z</time>
      </trkpt>
      <trkpt lat="46.09042" lon="1.84009">
        <ele>565</ele>
        <time>2016-12-14T15:25:09Z</time>
      </trkpt>
      <trkpt lat="46.0904" lon="1.84008">
        <ele>565</ele>
        <time>2016-12-14T15:27:09Z</time>
      </trkpt>
      <trkpt lat="46.09031" lon="1.84008">
        <ele>565</ele>
        <time>2016-12-14T15:29:09Z</time>
      </trkpt>
      <trkpt lat="46.09025" lon="1.84006">
        <ele>565</ele>
        <time>2016-12-14T15:31:09Z</time>
      </trkpt>
      <trkpt lat="46.0902" lon="1.84003">
        <ele>566</ele>
        <time>2016-12-14T15:33:09Z</time>
      </trkpt>
      <trkpt lat="46.09016" lon="1.84">
        <ele>566</ele>
        <time>2016-12-14T15:35:09Z</time>
      </trkpt>
      <trkpt lat="46.09015" lon="1.83999">
        <ele>566</ele>
        <time>2016-12-14T15:37:09Z</time>
      </trkpt>
      <trkpt lat="46.09011" lon="1.83997">
        <ele>566</ele>
        <time>2016-12-14T15:39:09Z</time>
      </trkpt>
      <trkpt lat="46.09009" lon="1.83996">
        <ele>566</ele>
        <time>2016-12-14T15:41:09Z</time>
      </trkpt>
      <trkpt lat="46.09003" lon="1.83989">
        <ele>567</ele>
        <time>2016-12-14T15:43:09Z</time>
      </trkpt>
      <trkpt lat="46.09001" lon="1.83987">
        <ele>567</ele>
        <time>2016-12-14T15:45:09Z</time>
      </trkpt>
      <trkpt lat="46.08999" lon="1.83985">
        <ele>567</ele>
        <time>2016-12-14T15:47:09Z</time>
      </trkpt>
      <trkpt lat="46.08992" lon="1.83975">
        <ele>567</ele>
        <time>2016-12-14T15:49:09Z</time>
      </trkpt>
      <trkpt lat="46.08991" lon="1.83973">
        <ele>567</ele>
        <time>2016-12-14T15:51:09Z</time>
      </trkpt>
      <trkpt lat="46.08987" lon="1.83968">
        <ele>567</ele>
        <time>2016-12-14T15:53:09Z</time>
      </trkpt>
      <trkpt lat="46.08984" lon="1.83964">
        <ele>567</ele>
        <time>2016-12-14T15:55:09Z</time>
      </trkpt>
      <trkpt lat="46.08978" lon="1.83958">
        <ele>568</ele>
        <time>2016-12-14T15:57:09Z</time>
      </trkpt>
      <trkpt lat="46.08974" lon="1.8395">
        <ele>568</ele>
        <time>2016-12-14T15:59:09Z</time>
      </trkpt>
      <trkpt lat="46.08972" lon="1.83947">
        <ele>568</ele>
        <time>2016-12-14T16:01:09Z</time>
      </trkpt>
      <trkpt lat="46.0897" lon="1.83945">
        <ele>568</ele>
        <time>2016-12-14T16:03:09Z</time>
      </trkpt>
      <trkpt lat="46.08968" lon="1.83942">
        <ele>569</ele>
        <time>2016-12-14T16:05:09Z</time>
      </trkpt>
      <trkpt lat="46.08966" lon="1.83936">
        <ele>569</ele>
        <time>2016-12-14T16:07:09Z</time>
      </trkpt>
      <trkpt lat="46.08964" lon="1.83934">
        <ele>569</ele>
        <time>2016-12-14T16:09:09Z</time>
      </trkpt>
      <trkpt lat="46.08962" lon="1.8393">
        <ele>570</ele>
        <time>2016-12-14T16:11:09Z</time>
      </trkpt>
      <trkpt lat="46.08957" lon="1.83923">
        <ele>570</ele>
        <time>2016-12-14T16:13:09Z</time>
      </trkpt>
      <trkpt lat="46.08956" lon="1.8392">
        <ele>571</ele>
        <time>2016-12-14T16:15:09Z</time>
      </trkpt>
      <trkpt lat="46.08955" lon="1.83918">
        <ele>571</ele>
        <time>2016-12-14T16:17:09Z</time>
      </trkpt>
      <trkpt lat="46.08947" lon="1.8391">
        <ele>571</ele>
        <time>2016-12-14T16:19:09Z</time>
      </trkpt>
      <trkpt lat="46.08941" lon="1.83899">
        <ele>571</ele>
        <time>2016-12-14T16:21:09Z</time>
      </trkpt>
      <trkpt lat="46.08941" lon="1.83893">
        <ele>571</ele>
        <time>2016-12-14T16:23:09Z</time>
      </trkpt>
      <trkpt lat="46.0894" lon="1.8389">
        <ele>571</ele>
        <time>2016-12-14T16:25:09Z</time>
      </trkpt>
      <trkpt lat="46.0894" lon="1.83887">
        <ele>571</ele>
        <time>2016-12-14T16:27:09Z</time>
      </trkpt>
      <trkpt lat="46.0894" lon="1.83884">
        <ele>572</ele>
        <time>2016-12-14T16:29:09Z</time>
      </trkpt>
      <trkpt lat="46.0894" lon="1.83882">
        <ele>572</ele>
        <time>2016-12-14T16:31:09Z</time>
      </trkpt>
      <trkpt lat="46.0894" lon="1.83877">
        <ele>572</ele>
        <time>2016-12-14T16:33:09Z</time>
      </trkpt>
      <trkpt lat="46.0894" lon="1.83874">
        <ele>572</ele>
        <time>2016-12-14T16:35:09Z</time>
      </trkpt>
      <trkpt lat="46.08939" lon="1.83866">
        <ele>572</ele>
        <time>2016-12-14T16:37:09Z</time>
      </trkpt>
      <trkpt lat="46.08937" lon="1.83862">
        <ele>572</ele>
        <time>2016-12-14T16:39:09Z</time>
      </trkpt>
      <trkpt lat="46.08936" lon="1.83856">
        <ele>572</ele>
        <time>2016-12-14T16:41:09Z</time>
      </trkpt>
      <trkpt lat="46.08935" lon="1.83853">
        <ele>572</ele>
        <time>2016-12-14T16:43:09Z</time>
      </trkpt>
      <trkpt lat="46.08935" lon="1.83851">
        <ele>572</ele>
        <time>2016-12-14T16:45:09Z</time>
      </trkpt>
      <trkpt lat="46.08935" lon="1.83848">
        <ele>572</ele>
        <time>2016-12-14T16:47:09Z</time>
      </trkpt>
      <trkpt lat="46.08934" lon="1.83846">
        <ele>572</ele>
        <time>2016-12-14T16:49:09Z</time>
      </trkpt>
      <trkpt lat="46.0893" lon="1.83841">
        <ele>573</ele>
        <time>2016-12-14T16:51:09Z</time>
      </trkpt>
      <trkpt lat="46.08929" lon="1.83838">
        <ele>573</ele>
        <time>2016-12-14T16:53:09Z</time>
      </trkpt>
      <trkpt lat="46.08926" lon="1.83835">
        <ele>573</ele>
        <time>2016-12-14T16:55:09Z</time>
      </trkpt>
      <trkpt lat="46.08925" lon="1.83832">
        <ele>573</ele>
        <time>2016-12-14T16:57:09Z</time>
      </trkpt>
      <trkpt lat="46.08923" lon="1.8383">
        <ele>573</ele>
        <time>2016-12-14T16:59:09Z</time>
      </trkpt>
      <trkpt lat="46.08921" lon="1.83829">
        <ele>574</ele>
        <time>2016-12-14T17:01:09Z</time>
      </trkpt>
      <trkpt lat="46.08918" lon="1.83827">
        <ele>574</ele>
        <time>2016-12-14T17:03:09Z</time>
      </trkpt>
      <trkpt lat="46.08916" lon="1.83824">
        <ele>574</ele>
        <time>2016-12-14T17:05:09Z</time>
      </trkpt>
      <trkpt lat="46.08907" lon="1.83807">
        <ele>572</ele>
        <time>2016-12-14T17:07:09Z</time>
      </trkpt>
      <trkpt lat="46.08903" lon="1.838">
        <ele>571</ele>
        <time>2016-12-14T17:09:09Z</time>
      </trkpt>
      <trkpt lat="46.089" lon="1.83797">
        <ele>571</ele>
        <time>2016-12-14T17:11:09Z</time>
      </trkpt>
      <trkpt lat="46.08896" lon="1.83792">
        <ele>570</ele>
        <time>2016-12-14T17:13:09Z</time>
      </trkpt>
      <trkpt lat="46.08892" lon="1.83785">
        <ele>569</ele>
        <time>2016-12-14T17:15:09Z</time>
      </trkpt>
      <trkpt lat="46.08891" lon="1.83781">
        <ele>569</ele>
        <time>2016-12-14T17:17:09Z</time>
      </trkpt>
      <trkpt lat="46.08891" lon="1.83777">
        <ele>569</ele>
        <time>2016-12-14T17:19:09Z</time>
      </trkpt>
      <trkpt lat="46.08891" lon="1.83774">
        <ele>569</ele>
        <time>2016-12-14T17:21:09Z</time>
      </trkpt>
      <trkpt lat="46.08893" lon="1.83766">
        <ele>569</ele>
        <time>2016-12-14T17:23:09Z</time>
      </trkpt>
      <trkpt lat="46.08894" lon="1.83762">
        <ele>569</ele>
        <time>2016-12-14T17:25:09Z</time>
      </trkpt>
      <trkpt lat="46.08895" lon="1.83758">
        <ele>569</ele>
        <time>2016-12-14T17:27:09Z</time>
      </trkpt>
      <trkpt lat="46.08895" lon="1.83754">
        <ele>569</ele>
        <time>2016-12-14T17:29:09Z</time>
      </trkpt>
      <trkpt lat="46.08896" lon="1.83749">
        <ele>569</ele>
        <time>2016-12-14T17:31:09Z</time>
      </trkpt>
      <trkpt lat="46.08897" lon="1.8374">
        <ele>568</ele>
        <time>2016-12-14T17:33:09Z</time>
      </trkpt>
      <trkpt lat="46.08897" lon="1.83736">
        <ele>567</ele>
        <time>2016-12-14T17:35:09Z</time>
      </trkpt>
      <trkpt lat="46.08898" lon="1.83732">
        <ele>567</ele>
        <time>2016-12-14T17:37:09Z</time>
      </trkpt>
      <trkpt lat="46.08899" lon="1.83727">
        <ele>567</ele>
        <time>2016-12-14T17:39:09Z</time>
      </trkpt>
      <trkpt lat="46.08899" lon="1.83716">
        <ele>565</ele>
        <time>2016-12-14T17:41:09Z</time>
      </trkpt>
      <trkpt lat="46.08899" lon="1.83712">
        <ele>565</ele>
        <time>2016-12-14T17:43:09Z</time>
      </trkpt>
      <trkpt lat="46.08899" lon="1.83708">
        <ele>565</ele>
        <time>2016-12-14T17:45:09Z</time>
      </trkpt>
      <trkpt lat="46.089" lon="1.837">
        <ele>564</ele>
        <time>2016-12-14T17:47:09Z</time>
      </trkpt>
      <trkpt lat="46.08899" lon="1.83696">
        <ele>563</ele>
        <time>2016-12-14T17:49:09Z</time>
      </trkpt>
      <trkpt lat="46.08899" lon="1.83692">
        <ele>563</ele>
        <time>2016-12-14T17:51:09Z</time>
      </trkpt>
      <trkpt lat="46.08895" lon="1.83679">
        <ele>561</ele>
        <time>2016-12-14T17:53:09Z</time>
      </trkpt>
      <trkpt lat="46.08892" lon="1.83672">
        <ele>561</ele>
        <time>2016-12-14T17:55:09Z</time>
      </trkpt>
      <trkpt lat="46.08889" lon="1.83671">
        <ele>560</ele>
        <time>2016-12-14T17:57:09Z</time>
      </trkpt>
      <trkpt lat="46.08887" lon="1.83669">
        <ele>560</ele>
        <time>2016-12-14T17:59:09Z</time>
      </trkpt>
      <trkpt lat="46.08882" lon="1.83666">
        <ele>560</ele>
        <time>2016-12-14T18:01:09Z</time>
      </trkpt>
      <trkpt lat="46.08871" lon="1.83662">
        <ele>560</ele>
        <time>2016-12-14T18:03:09Z</time>
      </trkpt>
      <trkpt lat="46.08868" lon="1.8366">
        <ele>560</ele>
        <time>2016-12-14T18:05:09Z</time>
      </trkpt>
      <trkpt lat="46.08864" lon="1.83658">
        <ele>560</ele>
        <time>2016-12-14T18:07:09Z</time>
      </trkpt>
      <trkpt lat="46.08861" lon="1.83657">
        <ele>561</ele>
        <time>2016-12-14T18:09:09Z</time>
      </trkpt>
      <trkpt lat="46.08859" lon="1.83657">
        <ele>561</ele>
        <time>2016-12-14T18:11:09Z</time>
      </trkpt>
      <trkpt lat="46.08856" lon="1.83655">
        <ele>561</ele>
        <time>2016-12-14T18:13:09Z</time>
      </trkpt>
      <trkpt lat="46.08851" lon="1.83654">
        <ele>561</ele>
        <time>2016-12-14T18:15:09Z</time>
      </trkpt>
      <trkpt lat="46.08843" lon="1.8365">
        <ele>561</ele>
        <time>2016-12-14T18:17:09Z</time>
      </trkpt>
      <trkpt lat="46.08838" lon="1.83649">
        <ele>561</ele>
        <time>2016-12-14T18:19:09Z</time>
      </trkpt>
      <trkpt lat="46.08836" lon="1.83647">
        <ele>562</ele>
        <time>2016-12-14T18:21:09Z</time>
      </trkpt>
      <trkpt lat="46.08831" lon="1.83646">
        <ele>562</ele>
        <time>2016-12-14T18:23:09Z</time>
      </trkpt>
      <trkpt lat="46.08826" lon="1.83645">
        <ele>561</ele>
        <time>2016-12-14T18:25:09Z</time>
      </trkpt>
      <trkpt lat="46.08819" lon="1.83641">
        <ele>561</ele>
        <time>2016-12-14T18:27:09Z</time>
      </trkpt>
      <trkpt lat="46.08816" lon="1.83639">
        <ele>561</ele>
        <time>2016-12-14T18:29:09Z</time>
      </trkpt>
      <trkpt lat="46.08807" lon="1.83635">
        <ele>561</ele>
        <time>2016-12-14T18:31:09Z</time>
      </trkpt>
      <trkpt lat="46.08804" lon="1.83633">
        <ele>561</ele>
        <time>2016-12-14T18:33:09Z</time>
      </trkpt>
      <trkpt lat="46.08802" lon="1.83632">
        <ele>561</ele>
        <time>2016-12-14T18:35:09Z</time>
      </trkpt>
      <trkpt lat="46.08796" lon="1.8363">
        <ele>561</ele>
        <time>2016-12-14T18:37:09Z</time>
      </trkpt>
      <trkpt lat="46.08781" lon="1.83625">
        <ele>561</ele>
        <time>2016-12-14T18:39:09Z</time>
      </trkpt>
      <trkpt lat="46.08776" lon="1.83622">
        <ele>561</ele>
        <time>2016-12-14T18:41:09Z</time>
      </trkpt>
      <trkpt lat="46.0877" lon="1.83619">
        <ele>561</ele>
        <time>2016-12-14T18:43:09Z</time>
      </trkpt>
      <trkpt lat="46.08762" lon="1.83617">
        <ele>561</ele>
        <time>2016-12-14T18:45:09Z</time>
      </trkpt>
      <trkpt lat="46.0875" lon="1.83612">
        <ele>561</ele>
        <time>2016-12-14T18:47:09Z</time>
      </trkpt>
      <trkpt lat="46.08741" lon="1.83608">
        <ele>560</ele>
        <time>2016-12-14T18:49:09Z</time>
      </trkpt>
      <trkpt lat="46.0873" lon="1.83604">
        <ele>560</ele>
        <time>2016-12-14T18:51:09Z</time>
      </trkpt>
      <trkpt lat="46.08727" lon="1.83603">
        <ele>560</ele>
        <time>2016-12-14T18:53:09Z</time>
      </trkpt>
      <trkpt lat="46.08718" lon="1.836">
        <ele>559</ele>
        <time>2016-12-14T18:55:09Z</time>
      </trkpt>
      <trkpt lat="46.08715" lon="1.83599">
        <ele>559</ele>
        <time>2016-12-14T18:57:09Z</time>
      </trkpt>
      <trkpt lat="46.08711" lon="1.83597">
        <ele>559</ele>
        <time>2016-12-14T18:59:09Z</time>
      </trkpt>
      <trkpt lat="46.08701" lon="1.83593">
        <ele>558</ele>
        <time>2016-12-14T19:01:09Z</time>
      </trkpt>
      <trkpt lat="46.08696" lon="1.83591">
        <ele>558</ele>
        <time>2016-12-14T19:03:09Z</time>
      </trkpt>
      <trkpt lat="46.08693" lon="1.8359">
        <ele>558</ele>
        <time>2016-12-14T19:05:09Z</time>
      </trkpt>
      <trkpt lat="46.0869" lon="1.83588">
        <ele>558</ele>
        <time>2016-12-14T19:07:09Z</time>
      </trkpt>
      <trkpt lat="46.08682" lon="1.83586">
        <ele>557</ele>
        <time>2016-12-14T19:09:09Z</time>
      </trkpt>
      <trkpt lat="46.08679" lon="1.83585">
        <ele>557</ele>
        <time>2016-12-14T19:11:09Z</time>
      </trkpt>
      <trkpt lat="46.08673" lon="1.83583">
        <ele>557</ele>
        <time>2016-12-14T19:13:09Z</time>
      </trkpt>
      <trkpt lat="46.0867" lon="1.83583">
        <ele>556</ele>
        <time>2016-12-14T19:15:09Z</time>
      </trkpt>
      <trkpt lat="46.08665" lon="1.83581">
        <ele>556</ele>
        <time>2016-12-14T19:17:09Z</time>
      </trkpt>
      <trkpt lat="46.08659" lon="1.83578">
        <ele>556</ele>
        <time>2016-12-14T19:19:09Z</time>
      </trkpt>
      <trkpt lat="46.08646" lon="1.83573">
        <ele>555</ele>
        <time>2016-12-14T19:21:09Z</time>
      </trkpt>
      <trkpt lat="46.08643" lon="1.83572">
        <ele>554</ele>
        <time>2016-12-14T19:23:09Z</time>
      </trkpt>
      <trkpt lat="46.0864" lon="1.8357">
        <ele>554</ele>
        <time>2016-12-14T19:25:09Z</time>
      </trkpt>
      <trkpt lat="46.08635" lon="1.83569">
        <ele>554</ele>
        <time>2016-12-14T19:27:09Z</time>
      </trkpt>
      <trkpt lat="46.08632" lon="1.83567">
        <ele>554</ele>
        <time>2016-12-14T19:29:09Z</time>
      </trkpt>
      <trkpt lat="46.08629" lon="1.83566">
        <ele>553</ele>
        <time>2016-12-14T19:31:09Z</time>
      </trkpt>
      <trkpt lat="46.08627" lon="1.83565">
        <ele>553</ele>
        <time>2016-12-14T19:33:09Z</time>
      </trkpt>
      <trkpt lat="46.08622" lon="1.83563">
        <ele>553</ele>
        <time>2016-12-14T19:35:09Z</time>
      </trkpt>
      <trkpt lat="46.08619" lon="1.83561">
        <ele>553</ele>
        <time>2016-12-14T19:37:09Z</time>
      </trkpt>
      <trkpt lat="46.08614" lon="1.83558">
        <ele>552</ele>
        <time>2016-12-14T19:39:09Z</time>
      </trkpt>
      <trkpt lat="46.08612" lon="1.83558">
        <ele>552</ele>
        <time>2016-12-14T19:41:09Z</time>
      </trkpt>
      <trkpt lat="46.08606" lon="1.83555">
        <ele>552</ele>
        <time>2016-12-14T19:43:09Z</time>
      </trkpt>
      <trkpt lat="46.08601" lon="1.83553">
        <ele>551</ele>
        <time>2016-12-14T19:45:09Z</time>
      </trkpt>
      <trkpt lat="46.08591" lon="1.83548">
        <ele>551</ele>
        <time>2016-12-14T19:47:09Z</time>
      </trkpt>
      <trkpt lat="46.08585" lon="1.83546">
        <ele>550</ele>
        <time>2016-12-14T19:49:09Z</time>
      </trkpt>
      <trkpt lat="46.08581" lon="1.83544">
        <ele>550</ele>
        <time>2016-12-14T19:51:09Z</time>
      </trkpt>
      <trkpt lat="46.0857" lon="1.83539">
        <ele>549</ele>
        <time>2016-12-14T19:53:09Z</time>
      </trkpt>
      <trkpt lat="46.08562" lon="1.83536">
        <ele>549</ele>
        <time>2016-12-14T19:55:09Z</time>
      </trkpt>
      <trkpt lat="46.08557" lon="1.83533">
        <ele>549</ele>
        <time>2016-12-14T19:57:09Z</time>
      </trkpt>
      <trkpt lat="46.08554" lon="1.83533">
        <ele>549</ele>
        <time>2016-12-14T19:59:09Z</time>
      </trkpt>
      <trkpt lat="46.0854" lon="1.83527">
        <ele>548</ele>
        <time>2016-12-14T20:01:09Z</time>
      </trkpt>
      <trkpt lat="46.08534" lon="1.83524">
        <ele>548</ele>
        <time>2016-12-14T20:03:09Z</time>
      </trkpt>
      <trkpt lat="46.08532" lon="1.83523">
        <ele>548</ele>
        <time>2016-12-14T20:05:09Z</time>
      </trkpt>
      <trkpt lat="46.08526" lon="1.8352">
        <ele>548</ele>
        <time>2016-12-14T20:07:09Z</time>
      </trkpt>
      <trkpt lat="46.0852" lon="1.83517">
        <ele>548</ele>
        <time>2016-12-14T20:09:09Z</time>
      </trkpt>
      <trkpt lat="46.08518" lon="1.83516">
        <ele>548</ele>
        <time>2016-12-14T20:11:09Z</time>
      </trkpt>
      <trkpt lat="46.08515" lon="1.83515">
        <ele>548</ele>
        <time>2016-12-14T20:13:09Z</time>
      </trkpt>
      <trkpt lat="46.08502" lon="1.83509">
        <ele>547</ele>
        <time>2016-12-14T20:15:09Z</time>
      </trkpt>
      <trkpt lat="46.08499" lon="1.83508">
        <ele>547</ele>
        <time>2016-12-14T20:17:09Z</time>
      </trkpt>
      <trkpt lat="46.08497" lon="1.83507">
        <ele>547</ele>
        <time>2016-12-14T20:19:09Z</time>
      </trkpt>
      <trkpt lat="46.08486" lon="1.83503">
        <ele>547</ele>
        <time>2016-12-14T20:21:09Z</time>
      </trkpt>
      <trkpt lat="46.08484" lon="1.83502">
        <ele>547</ele>
        <time>2016-12-14T20:23:09Z</time>
      </trkpt>
      <trkpt lat="46.08482" lon="1.83501">
        <ele>547</ele>
        <time>2016-12-14T20:25:09Z</time>
      </trkpt>
      <trkpt lat="46.08477" lon="1.83497">
        <ele>546</ele>
        <time>2016-12-14T20:27:09Z</time>
      </trkpt>
      <trkpt lat="46.08469" lon="1.83494">
        <ele>546</ele>
        <time>2016-12-14T20:29:09Z</time>
      </trkpt>
      <trkpt lat="46.08466" lon="1.83492">
        <ele>545</ele>
        <time>2016-12-14T20:31:09Z</time>
      </trkpt>
      <trkpt lat="46.08462" lon="1.83489">
        <ele>545</ele>
        <time>2016-12-14T20:33:09Z</time>
      </trkpt>
      <trkpt lat="46.08457" lon="1.83485">
        <ele>545</ele>
        <time>2016-12-14T20:35:09Z</time>
      </trkpt>
      <trkpt lat="46.08455" lon="1.83483">
        <ele>545</ele>
        <time>2016-12-14T20:37:09Z</time>
      </trkpt>
      <trkpt lat="46.08449" lon="1.83474">
        <ele>544</ele>
        <time>2016-12-14T20:39:09Z</time>
      </trkpt>
      <trkpt lat="46.08438" lon="1.83462">
        <ele>543</ele>
        <time>2016-12-14T20:41:09Z</time>
      </trkpt>
      <trkpt lat="46.08429" lon="1.83446">
        <ele>543</ele>
        <time>2016-12-14T20:43:09Z</time>
      </trkpt>
      <trkpt lat="46.08425" lon="1.83422">
        <ele>543</ele>
        <time>2016-12-14T20:45:09Z</time>
      </trkpt>
      <trkpt lat="46.08423" lon="1.83391">
        <ele>541</ele>
        <time>2016-12-14T20:47:09Z</time>
      </trkpt>
      <trkpt lat="46.08423" lon="1.83358">
        <ele>539</ele>
        <time>2016-12-14T20:49:09Z</time>
      </trkpt>
      <trkpt lat="46.08421" lon="1.83341">
        <ele>538</ele>
        <time>2016-12-14T20:51:09Z</time>
      </trkpt>
      <trkpt lat="46.08413" lon="1.83316">
        <ele>538</ele>
        <time>2016-12-14T20:53:09Z</time>
      </trkpt>
      <trkpt lat="46.08416" lon="1.83283">
        <ele>539</ele>
        <time>2016-12-14T20:55:09Z</time>
      </trkpt>
      <trkpt lat="46.0842" lon="1.83259">
        <ele>540</ele>
        <time>2016-12-14T20:57:09Z</time>
      </trkpt>
      <trkpt lat="46.08433" lon="1.83253">
        <ele>540</ele>
        <time>2016-12-14T20:59:09Z</time>
      </trkpt>
      <trkpt lat="46.08453" lon="1.83225">
        <ele>544</ele>
        <time>2016-12-14T21:01:09Z</time>
      </trkpt>
      <trkpt lat="46.08467" lon="1.83213">
        <ele>546</ele>
        <time>2016-12-14T21:03:09Z</time>
      </trkpt>
      <trkpt lat="46.08479" lon="1.83198">
        <ele>549</ele>
        <time>2016-12-14T21:05:09Z</time>
      </trkpt>
      <trkpt lat="46.08487" lon="1.83172">
        <ele>553</ele>
        <time>2016-12-14T21:07:09Z</time>
      </trkpt>
      <trkpt lat="46.085" lon="1.83149">
        <ele>556</ele>
        <time>2016-12-14T21:09:09Z</time>
      </trkpt>
      <trkpt lat="46.08507" lon="1.83132">
        <ele>557</ele>
        <time>2016-12-14T21:11:09Z</time>
      </trkpt>
      <trkpt lat="46.08516" lon="1.8312">
        <ele>557</ele>
        <time>2016-12-14T21:13:09Z</time>
      </trkpt>
      <trkpt lat="46.08527" lon="1.83108">
        <ele>558</ele>
        <time>2016-12-14T21:15:09Z</time>
      </trkpt>
      <trkpt lat="46.0853" lon="1.83083">
        <ele>560</ele>
        <time>2016-12-14T21:17:09Z</time>
      </trkpt>
      <trkpt lat="46.08516" lon="1.8305">
        <ele>565</ele>
        <time>2016-12-14T21:19:09Z</time>
      </trkpt>
      <trkpt lat="46.08486" lon="1.82991">
        <ele>573</ele>
        <time>2016-12-14T21:21:09Z</time>
      </trkpt>
      <trkpt lat="46.08462" lon="1.82975">
        <ele>573</ele>
        <time>2016-12-14T21:23:09Z</time>
      </trkpt>
      <trkpt lat="46.08427" lon="1.82963">
        <ele>572</ele>
        <time>2016-12-14T21:25:09Z</time>
      </trkpt>
      <trkpt lat="46.08399" lon="1.82959">
        <ele>571</ele>
        <time>2016-12-14T21:27:09Z</time>
      </trkpt>
      <trkpt lat="46.08357" lon="1.82935">
        <ele>574</ele>
        <time>2016-12-14T21:29:09Z</time>
      </trkpt>
      <trkpt lat="46.08329" lon="1.82935">
        <ele>573</ele>
        <time>2016-12-14T21:31:09Z</time>
      </trkpt>
      <trkpt lat="46.08292" lon="1.82931">
        <ele>576</ele>
        <time>2016-12-14T21:33:09Z</time>
      </trkpt>
      <trkpt lat="46.08257" lon="1.82924">
        <ele>580</ele>
        <time>2016-12-14T21:35:09Z</time>
      </trkpt>
      <trkpt lat="46.08209" lon="1.82917">
        <ele>585</ele>
        <time>2016-12-14T21:37:09Z</time>
      </trkpt>
      <trkpt lat="46.08179" lon="1.82931">
        <ele>586</ele>
        <time>2016-12-14T21:39:09Z</time>
      </trkpt>
      <trkpt lat="46.08152" lon="1.8295">
        <ele>587</ele>
        <time>2016-12-14T21:41:09Z</time>
      </trkpt>
      <trkpt lat="46.08108" lon="1.82985">
        <ele>592</ele>
        <time>2016-12-14T21:43:09Z</time>
      </trkpt>
      <trkpt lat="46.08059" lon="1.83036">
        <ele>590</ele>
        <time>2016-12-14T21:45:09Z</time>
      </trkpt>
      <trkpt lat="46.08026" lon="1.83077">
        <ele>588</ele>
        <time>2016-12-14T21:47:09Z</time>
      </trkpt>
      <trkpt lat="46.08017" lon="1.8312">
        <ele>586</ele>
        <time>2016-12-14T21:49:09Z</time>
      </trkpt>
      <trkpt lat="46.08019" lon="1.8318">
        <ele>580</ele>
        <time>2016-12-14T21:51:09Z</time>
      </trkpt>
      <trkpt lat="46.08007" lon="1.83215">
        <ele>580</ele>
        <time>2016-12-14T21:53:09Z</time>
      </trkpt>
      <trkpt lat="46.07988" lon="1.83248">
        <ele>582</ele>
        <time>2016-12-14T21:55:09Z</time>
      </trkpt>
      <trkpt lat="46.07979" lon="1.83262">
        <ele>583</ele>
        <time>2016-12-14T21:57:09Z</time>
      </trkpt>
      <trkpt lat="46.07966" lon="1.83285">
        <ele>583</ele>
        <time>2016-12-14T21:59:09Z</time>
      </trkpt>
      <trkpt lat="46.07943" lon="1.83301">
        <ele>585</ele>
        <time>2016-12-14T22:01:09Z</time>
      </trkpt>
      <trkpt lat="46.07923" lon="1.83317">
        <ele>585</ele>
        <time>2016-12-14T22:03:09Z</time>
      </trkpt>
      <trkpt lat="46.079" lon="1.83318">
        <ele>584</ele>
        <time>2016-12-14T22:05:09Z</time>
      </trkpt>
      <trkpt lat="46.07875" lon="1.83317">
        <ele>580</ele>
        <time>2016-12-14T22:07:09Z</time>
      </trkpt>
      <trkpt lat="46.07849" lon="1.83325">
        <ele>575</ele>
        <time>2016-12-14T22:09:09Z</time>
      </trkpt>
      <trkpt lat="46.07829" lon="1.8332">
        <ele>573</ele>
        <time>2016-12-14T22:11:09Z</time>
      </trkpt>
      <trkpt lat="46.07813" lon="1.83305">
        <ele>573</ele>
        <time>2016-12-14T22:13:09Z</time>
      </trkpt>
      <trkpt lat="46.07797" lon="1.8328">
        <ele>574</ele>
        <time>2016-12-14T22:15:09Z</time>
      </trkpt>
      <trkpt lat="46.07773" lon="1.83244">
        <ele>572</ele>
        <time>2016-12-14T22:17:09Z</time>
      </trkpt>
      <trkpt lat="46.07768" lon="1.83214">
        <ele>571</ele>
        <time>2016-12-14T22:19:09Z</time>
      </trkpt>
      <trkpt lat="46.07766" lon="1.83175">
        <ele>573</ele>
        <time>2016-12-14T22:21:09Z</time>
      </trkpt>
      <trkpt lat="46.07772" lon="1.83114">
        <ele>575</ele>
        <time>2016-12-14T22:23:09Z</time>
      </trkpt>
      <trkpt lat="46.07775" lon="1.83051">
        <ele>576</ele>
        <time>2016-12-14T22:25:09Z</time>
      </trkpt>
      <trkpt lat="46.07775" lon="1.8299">
        <ele>575</ele>
        <time>2016-12-14T22:27:09Z</time>
      </trkpt>
      <trkpt lat="46.07772" lon="1.82936">
        <ele>572</ele>
        <time>2016-12-14T22:29:09Z</time>
      </trkpt>
      <trkpt lat="46.07769" lon="1.82865">
        <ele>569</ele>
        <time>2016-12-14T22:31:09Z</time>
      </trkpt>
      <trkpt lat="46.0776" lon="1.82809">
        <ele>569</ele>
        <time>2016-12-14T22:33:09Z</time>
      </trkpt>
      <trkpt lat="46.07746" lon="1.8276">
        <ele>571</ele>
        <time>2016-12-14T22:35:09Z</time>
      </trkpt>
      <trkpt lat="46.07743" lon="1.82733">
        <ele>576</ele>
        <time>2016-12-14T22:37:09Z</time>
      </trkpt>
      <trkpt lat="46.07741" lon="1.82733">
        <ele>576</ele>
        <time>2016-12-14T22:39:09Z</time>
      </trkpt>
      <trkpt lat="46.07755" lon="1.82716">
        <ele>583</ele>
        <time>2016-12-14T22:41:09Z</time>
      </trkpt>
      <trkpt lat="46.07764" lon="1.82706">
        <ele>586</ele>
        <time>2016-12-14T22:43:09Z</time>
      </trkpt>
      <trkpt lat="46.0777" lon="1.82696">
        <ele>590</ele>
        <time>2016-12-14T22:45:09Z</time>
      </trkpt>
      <trkpt lat="46.07782" lon="1.82691">
        <ele>592</ele>
        <time>2016-12-14T22:47:09Z</time>
      </trkpt>
      <trkpt lat="46.07801" lon="1.82697">
        <ele>592</ele>
        <time>2016-12-14T22:49:09Z</time>
      </trkpt>
      <trkpt lat="46.07814" lon="1.82699">
        <ele>592</ele>
        <time>2016-12-14T22:51:09Z</time>
      </trkpt>
      <trkpt lat="46.07828" lon="1.82687">
        <ele>597</ele>
        <time>2016-12-14T22:53:09Z</time>
      </trkpt>
      <trkpt lat="46.07847" lon="1.82665">
        <ele>602</ele>
        <time>2016-12-14T22:55:09Z</time>
      </trkpt>
      <trkpt lat="46.07861" lon="1.82656">
        <ele>603</ele>
        <time>2016-12-14T22:57:09Z</time>
      </trkpt>
      <trkpt lat="46.07875" lon="1.82643">
        <ele>603</ele>
        <time>2016-12-14T22:59:09Z</time>
      </trkpt>
      <trkpt lat="46.07884" lon="1.82615">
        <ele>606</ele>
        <time>2016-12-14T23:01:09Z</time>
      </trkpt>
      <trkpt lat="46.07868" lon="1.82606">
        <ele>610</ele>
        <time>2016-12-14T23:03:09Z</time>
      </trkpt>
      <trkpt lat="46.07853" lon="1.82592">
        <ele>616</ele>
        <time>2016-12-14T23:05:09Z</time>
      </trkpt>
      <trkpt lat="46.07811" lon="1.82577">
        <ele>621</ele>
        <time>2016-12-14T23:07:09Z</time>
      </trkpt>
      <trkpt lat="46.07797" lon="1.82571">
        <ele>621</ele>
        <time>2016-12-14T23:09:09Z</time>
      </trkpt>
      <trkpt lat="46.07782" lon="1.8258">
        <ele>618</ele>
        <time>2016-12-14T23:11:09Z</time>
      </trkpt>
      <trkpt lat="46.07773" lon="1.82576">
        <ele>618</ele>
        <time>2016-12-14T23:13:09Z</time>
      </trkpt>
      <trkpt lat="46.07767" lon="1.82552">
        <ele>622</ele>
        <time>2016-12-14T23:15:09Z</time>
      </trkpt>
      <trkpt lat="46.07774" lon="1.82532">
        <ele>625</ele>
        <time>2016-12-14T23:17:09Z</time>
      </trkpt>
      <trkpt lat="46.0779" lon="1.82463">
        <ele>633</ele>
        <time>2016-12-14T23:19:09Z</time>
      </trkpt>
      <trkpt lat="46.07796" lon="1.82414">
        <ele>636</ele>
        <time>2016-12-14T23:21:09Z</time>
      </trkpt>
      <trkpt lat="46.07806" lon="1.82394">
        <ele>639</ele>
        <time>2016-12-14T23:23:09Z</time>
      </trkpt>
      <trkpt lat="46.07806" lon="1.82364">
        <ele>639</ele>
        <time>2016-12-14T23:25:09Z</time>
      </trkpt>
      <trkpt lat="46.078" lon="1.82331">
        <ele>637</ele>
        <time>2016-12-14T23:27:09Z</time>
      </trkpt>
      <trkpt lat="46.07803" lon="1.823">
        <ele>635</ele>
        <time>2016-12-14T23:29:09Z</time>
      </trkpt>
      <trkpt lat="46.07805" lon="1.82251">
        <ele>633</ele>
        <time>2016-12-14T23:31:09Z</time>
      </trkpt>
      <trkpt lat="46.07798" lon="1.82218">
        <ele>626</ele>
        <time>2016-12-14T23:33:09Z</time>
      </trkpt>
      <trkpt lat="46.07791" lon="1.8221">
        <ele>623</ele>
        <time>2016-12-14T23:35:09Z</time>
      </trkpt>
      <trkpt lat="46.07773" lon="1.8222">
        <ele>619</ele>
        <time>2016-12-14T23:37:09Z</time>
      </trkpt>
      <trkpt lat="46.07742" lon="1.82245">
        <ele>612</ele>
        <time>2016-12-14T23:39:09Z</time>
      </trkpt>
      <trkpt lat="46.07712" lon="1.82281">
        <ele>608</ele>
        <time>2016-12-14T23:41:09Z</time>
      </trkpt>
      <trkpt lat="46.07681" lon="1.82326">
        <ele>603</ele>
        <time>2016-12-14T23:43:09Z</time>
      </trkpt>
      <trkpt lat="46.0765" lon="1.82435">
        <ele>595</ele>
        <time>2016-12-14T23:45:09Z</time>
      </trkpt>
      <trkpt lat="46.07646" lon="1.82486">
        <ele>595</ele>
        <time>2016-12-14T23:47:09Z</time>
      </trkpt>
      <trkpt lat="46.07645" lon="1.82535">
        <ele>592</ele>
        <time>2016-12-14T23:49:09Z</time>
      </trkpt>
      <trkpt lat="46.07649" lon="1.82579">
        <ele>589</ele>
        <time>2016-12-14T23:51:09Z</time>
      </trkpt>
      <trkpt lat="46.07671" lon="1.82627">
        <ele>586</ele>
        <time>2016-12-14T23:53:09Z</time>
      </trkpt>
      <trkpt lat="46.07683" lon="1.8264">
        <ele>586</ele>
        <time>2016-12-14T23:55:09Z</time>
      </trkpt>
      <trkpt lat="46.07694" lon="1.82649">
        <ele>587</ele>
        <time>2016-12-14T23:57:09Z</time>
      </trkpt>
      <trkpt lat="46.07704" lon="1.82663">
        <ele>587</ele>
        <time>2016-12-14T23:59:09Z</time>
      </trkpt>
      <trkpt lat="46.07701" lon="1.8267">
        <ele>585</ele>
        <time>2016-12-15T00:01:09Z</time>
      </trkpt>
      <trkpt lat="46.07702" lon="1.82666">
        <ele>586</ele>
        <time>2016-12-15T00:03:09Z</time>
      </trkpt>
      <trkpt lat="46.07697" lon="1.82673">
        <ele>584</ele>
        <time>2016-12-15T00:05:09Z</time>
      </trkpt>
      <trkpt lat="46.07687" lon="1.82662">
        <ele>583</ele>
        <time>2016-12-15T00:07:09Z</time>
      </trkpt>
      <trkpt lat="46.07682" lon="1.82658">
        <ele>583</ele>
        <time>2016-12-15T00:09:09Z</time>
      </trkpt>
      <trkpt lat="46.0768" lon="1.82656">
        <ele>583</ele>
        <time>2016-12-15T00:11:09Z</time>
      </trkpt>
      <trkpt lat="46.07678" lon="1.82654">
        <ele>583</ele>
        <time>2016-12-15T00:13:09Z</time>
      </trkpt>
      <trkpt lat="46.07675" lon="1.82653">
        <ele>582</ele>
        <time>2016-12-15T00:15:09Z</time>
      </trkpt>
      <trkpt lat="46.07673" lon="1.82651">
        <ele>582</ele>
        <time>2016-12-15T00:17:09Z</time>
      </trkpt>
      <trkpt lat="46.07666" lon="1.82646">
        <ele>581</ele>
        <time>2016-12-15T00:19:09Z</time>
      </trkpt>
      <trkpt lat="46.07657" lon="1.82644">
        <ele>580</ele>
        <time>2016-12-15T00:21:09Z</time>
      </trkpt>
      <trkpt lat="46.07652" lon="1.82644">
        <ele>579</ele>
        <time>2016-12-15T00:23:09Z</time>
      </trkpt>
      <trkpt lat="46.07647" lon="1.82645">
        <ele>579</ele>
        <time>2016-12-15T00:25:09Z</time>
      </trkpt>
      <trkpt lat="46.07645" lon="1.82644">
        <ele>578</ele>
        <time>2016-12-15T00:27:09Z</time>
      </trkpt>
      <trkpt lat="46.07641" lon="1.82645">
        <ele>578</ele>
        <time>2016-12-15T00:29:09Z</time>
      </trkpt>
      <trkpt lat="46.07638" lon="1.82645">
        <ele>577</ele>
        <time>2016-12-15T00:31:09Z</time>
      </trkpt>
      <trkpt lat="46.07636" lon="1.82643">
        <ele>577</ele>
        <time>2016-12-15T00:33:09Z</time>
      </trkpt>
      <trkpt lat="46.07635" lon="1.82641">
        <ele>577</ele>
        <time>2016-12-15T00:35:09Z</time>
      </trkpt>
      <trkpt lat="46.0763" lon="1.82638">
        <ele>577</ele>
        <time>2016-12-15T00:37:09Z</time>
      </trkpt>
      <trkpt lat="46.07628" lon="1.82637">
        <ele>577</ele>
        <time>2016-12-15T00:39:09Z</time>
      </trkpt>
      <trkpt lat="46.07628" lon="1.82635">
        <ele>577</ele>
        <time>2016-12-15T00:41:09Z</time>
      </trkpt>
      <trkpt lat="46.07628" lon="1.82632">
        <ele>577</ele>
        <time>2016-12-15T00:43:09Z</time>
      </trkpt>
      <trkpt lat="46.07626" lon="1.82629">
        <ele>577</ele>
        <time>2016-12-15T00:45:09Z</time>
      </trkpt>
      <trkpt lat="46.07625" lon="1.82626">
        <ele>578</ele>
        <time>2016-12-15T00:47:09Z</time>
      </trkpt>
      <trkpt lat="46.07624" lon="1.82623">
        <ele>578</ele>
        <time>2016-12-15T00:49:09Z</time>
      </trkpt>
      <trkpt lat="46.07619" lon="1.82619">
        <ele>578</ele>
        <time>2016-12-15T00:51:09Z</time>
      </trkpt>
      <trkpt lat="46.07614" lon="1.82613">
        <ele>577</ele>
        <time>2016-12-15T00:53:09Z</time>
      </trkpt>
      <trkpt lat="46.07612" lon="1.8261">
        <ele>577</ele>
        <time>2016-12-15T00:55:09Z</time>
      </trkpt>
      <trkpt lat="46.0761" lon="1.82608">
        <ele>577</ele>
        <time>2016-12-15T00:57:09Z</time>
      </trkpt>
      <trkpt lat="46.07603" lon="1.826">
        <ele>577</ele>
        <time>2016-12-15T00:59:09Z</time>
      </trkpt>
      <trkpt lat="46.07601" lon="1.82599">
        <ele>577</ele>
        <time>2016-12-15T01:01:09Z</time>
      </trkpt>
      <trkpt lat="46.07598" lon="1.82597">
        <ele>576</ele>
        <time>2016-12-15T01:03:09Z</time>
      </trkpt>
      <trkpt lat="46.07593" lon="1.82596">
        <ele>576</ele>
        <time>2016-12-15T01:05:09Z</time>
      </trkpt>
      <trkpt lat="46.07589" lon="1.82594">
        <ele>575</ele>
        <time>2016-12-15T01:07:09Z</time>
      </trkpt>
      <trkpt lat="46.07584" lon="1.82592">
        <ele>574</ele>
        <time>2016-12-15T01:09:09Z</time>
      </trkpt>
      <trkpt lat="46.07578" lon="1.82591">
        <ele>575</ele>
        <time>2016-12-15T01:11:09Z</time>
      </trkpt>
      <trkpt lat="46.07575" lon="1.82591">
        <ele>575</ele>
        <time>2016-12-15T01:13:09Z</time>
      </trkpt>
      <trkpt lat="46.07571" lon="1.82592">
        <ele>575</ele>
        <time>2016-12-15T01:15:09Z</time>
      </trkpt>
      <trkpt lat="46.0757" lon="1.82594">
        <ele>575</ele>
        <time>2016-12-15T01:17:09Z</time>
      </trkpt>
      <trkpt lat="46.07568" lon="1.82598">
        <ele>574</ele>
        <time>2016-12-15T01:19:09Z</time>
      </trkpt>
      <trkpt lat="46.07565" lon="1.82605">
        <ele>574</ele>
        <time>2016-12-15T01:21:09Z</time>
      </trkpt>
      <trkpt lat="46.07563" lon="1.8261">
        <ele>573</ele>
        <time>2016-12-15T01:23:09Z</time>
      </trkpt>
      <trkpt lat="46.07563" lon="1.82613">
        <ele>573</ele>
        <time>2016-12-15T01:25:09Z</time>
      </trkpt>
      <trkpt lat="46.07562" lon="1.82615">
        <ele>573</ele>
        <time>2016-12-15T01:27:09Z</time>
      </trkpt>
      <trkpt lat="46.07563" lon="1.82622">
        <ele>572</ele>
        <time>2016-12-15T01:29:09Z</time>
      </trkpt>
      <trkpt lat="46.07561" lon="1.82627">
        <ele>571</ele>
        <time>2016-12-15T01:31:09Z</time>
      </trkpt>
      <trkpt lat="46.0756" lon="1.82629">
        <ele>571</ele>
        <time>2016-12-15T01:33:09Z</time>
      </trkpt>
      <trkpt lat="46.0756" lon="1.82632">
        <ele>571</ele>
        <time>2016-12-15T01:35:09Z</time>
      </trkpt>
      <trkpt lat="46.07558" lon="1.82635">
        <ele>570</ele>
        <time>2016-12-15T01:37:09Z</time>
      </trkpt>
      <trkpt lat="46.07557" lon="1.82638">
        <ele>570</ele>
        <time>2016-12-15T01:39:09Z</time>
      </trkpt>
      <trkpt lat="46.07555" lon="1.82644">
        <ele>569</ele>
        <time>2016-12-15T01:41:09Z</time>
      </trkpt>
      <trkpt lat="46.07553" lon="1.82648">
        <ele>569</ele>
        <time>2016-12-15T01:43:09Z</time>
      </trkpt>
      <trkpt lat="46.07552" lon="1.8265">
        <ele>569</ele>
        <time>2016-12-15T01:45:09Z</time>
      </trkpt>
      <trkpt lat="46.07549" lon="1.82657">
        <ele>568</ele>
        <time>2016-12-15T01:47:09Z</time>
      </trkpt>
      <trkpt lat="46.07546" lon="1.82665">
        <ele>567</ele>
        <time>2016-12-15T01:49:09Z</time>
      </trkpt>
      <trkpt lat="46.07545" lon="1.82669">
        <ele>566</ele>
        <time>2016-12-15T01:51:09Z</time>
      </trkpt>
      <trkpt lat="46.07543" lon="1.82674">
        <ele>566</ele>
        <time>2016-12-15T01:53:09Z</time>
      </trkpt>
      <trkpt lat="46.07542" lon="1.82677">
        <ele>566</ele>
        <time>2016-12-15T01:55:09Z</time>
      </trkpt>
      <trkpt lat="46.07539" lon="1.82681">
        <ele>565</ele>
        <time>2016-12-15T01:57:09Z</time>
      </trkpt>
      <trkpt lat="46.07538" lon="1.82683">
        <ele>565</ele>
        <time>2016-12-15T01:59:09Z</time>
      </trkpt>
      <trkpt lat="46.07532" lon="1.82695">
        <ele>564</ele>
        <time>2016-12-15T02:01:09Z</time>
      </trkpt>
      <trkpt lat="46.07531" lon="1.82699">
        <ele>564</ele>
        <time>2016-12-15T02:03:09Z</time>
      </trkpt>
      <trkpt lat="46.07529" lon="1.82703">
        <ele>563</ele>
        <time>2016-12-15T02:05:09Z</time>
      </trkpt>
      <trkpt lat="46.07523" lon="1.82711">
        <ele>562</ele>
        <time>2016-12-15T02:07:09Z</time>
      </trkpt>
      <trkpt lat="46.0752" lon="1.82714">
        <ele>562</ele>
        <time>2016-12-15T02:09:09Z</time>
      </trkpt>
      <trkpt lat="46.07517" lon="1.82717">
        <ele>561</ele>
        <time>2016-12-15T02:11:09Z</time>
      </trkpt>
      <trkpt lat="46.07512" lon="1.82722">
        <ele>561</ele>
        <time>2016-12-15T02:13:09Z</time>
      </trkpt>
      <trkpt lat="46.07507" lon="1.82725">
        <ele>560</ele>
        <time>2016-12-15T02:15:09Z</time>
      </trkpt>
      <trkpt lat="46.07504" lon="1.82727">
        <ele>560</ele>
        <time>2016-12-15T02:17:09Z</time>
      </trkpt>
      <trkpt lat="46.07503" lon="1.82729">
        <ele>560</ele>
        <time>2016-12-15T02:19:09Z</time>
      </trkpt>
      <trkpt lat="46.07499" lon="1.82731">
        <ele>559</ele>
        <time>2016-12-15T02:21:09Z</time>
      </trkpt>
      <trkpt lat="46.07497" lon="1.82733">
        <ele>559</ele>
        <time>2016-12-15T02:23:09Z</time>
      </trkpt>
      <trkpt lat="46.07493" lon="1.82733">
        <ele>559</ele>
        <time>2016-12-15T02:25:09Z</time>
      </trkpt>
      <trkpt lat="46.0749" lon="1.82733">
        <ele>558</ele>
        <time>2016-12-15T02:27:09Z</time>
      </trkpt>
      <trkpt lat="46.07488" lon="1.82734">
        <ele>558</ele>
        <time>2016-12-15T02:29:09Z</time>
      </trkpt>
      <trkpt lat="46.07482" lon="1.82736">
        <ele>557</ele>
        <time>2016-12-15T02:31:09Z</time>
      </trkpt>
      <trkpt lat="46.07479" lon="1.82736">
        <ele>557</ele>
        <time>2016-12-15T02:33:09Z</time>
      </trkpt>
      <trkpt lat="46.07473" lon="1.82735">
        <ele>557</ele>
        <time>2016-12-15T02:35:09Z</time>
      </trkpt>
      <trkpt lat="46.07468" lon="1.82735">
        <ele>556</ele>
        <time>2016-12-15T02:37:09Z</time>
      </trkpt>
      <trkpt lat="46.07464" lon="1.82733">
        <ele>556</ele>
        <time>2016-12-15T02:39:09Z</time>
      </trkpt>
      <trkpt lat="46.07458" lon="1.8273">
        <ele>556</ele>
        <time>2016-12-15T02:41:09Z</time>
      </trkpt>
      <trkpt lat="46.07458" lon="1.82729">
        <ele>556</ele>
        <time>2016-12-15T02:43:09Z</time>
      </trkpt>
      <trkpt lat="46.07455" lon="1.82728">
        <ele>556</ele>
        <time>2016-12-15T02:45:09Z</time>
      </trkpt>
      <trkpt lat="46.0745" lon="1.8273">
        <ele>556</ele>
        <time>2016-12-15T02:47:09Z</time>
      </trkpt>
      <trkpt lat="46.07447" lon="1.82733">
        <ele>555</ele>
        <time>2016-12-15T02:49:09Z</time>
      </trkpt>
      <trkpt lat="46.07447" lon="1.82733">
        <ele>555</ele>
        <time>2016-12-15T02:51:09Z</time>
      </trkpt>
      <trkpt lat="46.07448" lon="1.82733">
        <ele>555</ele>
        <time>2016-12-15T02:53:09Z</time>
      </trkpt>
      <trkpt lat="46.07448" lon="1.82734">
        <ele>555</ele>
        <time>2016-12-15T02:55:09Z</time>
      </trkpt>
      <trkpt lat="46.07447" lon="1.82733">
        <ele>555</ele>
        <time>2016-12-15T02:57:09Z</time>
      </trkpt>
      <trkpt lat="46.07447" lon="1.82734">
        <ele>555</ele>
        <time>2016-12-15T02:59:09Z</time>
      </trkpt>
      <trkpt lat="46.07447" lon="1.82734">
        <ele>555</ele>
        <time>2016-12-15T03:01:09Z</time>
      </trkpt>
      <trkpt lat="46.07446" lon="1.82735">
        <ele>555</ele>
        <time>2016-12-15T03:03:09Z</time>
      </trkpt>
      <trkpt lat="46.07445" lon="1.82735">
        <ele>555</ele>
        <time>2016-12-15T03:05:09Z</time>
      </trkpt>
      <trkpt lat="46.07444" lon="1.82734">
        <ele>555</ele>
        <time>2016-12-15T03:07:09Z</time>
      </trkpt>
      <trkpt lat="46.07445" lon="1.82734">
        <ele>555</ele>
        <time>2016-12-15T03:09:09Z</time>
      </trkpt>
      <trkpt lat="46.07445" lon="1.82734">
        <ele>555</ele>
        <time>2016-12-15T03:11:09Z</time>
      </trkpt>
      <trkpt lat="46.07445" lon="1.82734">
        <ele>555</ele>
        <time>2016-12-15T03:13:09Z</time>
      </trkpt>
      <trkpt lat="46.07444" lon="1.82734">
        <ele>555</ele>
        <time>2016-12-15T03:15:09Z</time>
      </trkpt>
      <trkpt lat="46.07444" lon="1.82732">
        <ele>555</ele>
        <time>2016-12-15T03:17:09Z</time>
      </trkpt>
      <trkpt lat="46.07443" lon="1.82731">
        <ele>555</ele>
        <time>2016-12-15T03:19:09Z</time>
      </trkpt>
      <trkpt lat="46.0744" lon="1.82727">
        <ele>555</ele>
        <time>2016-12-15T03:21:09Z</time>
      </trkpt>
      <trkpt lat="46.07438" lon="1.82721">
        <ele>556</ele>
        <time>2016-12-15T03:23:09Z</time>
      </trkpt>
      <trkpt lat="46.07437" lon="1.82719">
        <ele>556</ele>
        <time>2016-12-15T03:25:09Z</time>
      </trkpt>
      <trkpt lat="46.07431" lon="1.82713">
        <ele>556</ele>
        <time>2016-12-15T03:27:09Z</time>
      </trkpt>
      <trkpt lat="46.0743" lon="1.8271">
        <ele>557</ele>
        <time>2016-12-15T03:29:09Z</time>
      </trkpt>
      <trkpt lat="46.0743" lon="1.82708">
        <ele>557</ele>
        <time>2016-12-15T03:31:09Z</time>
      </trkpt>
      <trkpt lat="46.07428" lon="1.82707">
        <ele>557</ele>
        <time>2016-12-15T03:33:09Z</time>
      </trkpt>
      <trkpt lat="46.07427" lon="1.82705">
        <ele>557</ele>
        <time>2016-12-15T03:35:09Z</time>
      </trkpt>
      <trkpt lat="46.07423" lon="1.82701">
        <ele>557</ele>
        <time>2016-12-15T03:37:09Z</time>
      </trkpt>
      <trkpt lat="46.07421" lon="1.827">
        <ele>557</ele>
        <time>2016-12-15T03:39:09Z</time>
      </trkpt>
      <trkpt lat="46.07419" lon="1.82698">
        <ele>557</ele>
        <time>2016-12-15T03:41:09Z</time>
      </trkpt>
      <trkpt lat="46.07418" lon="1.82698">
        <ele>557</ele>
        <time>2016-12-15T03:43:09Z</time>
      </trkpt>
      <trkpt lat="46.07414" lon="1.82696">
        <ele>557</ele>
        <time>2016-12-15T03:45:09Z</time>
      </trkpt>
      <trkpt lat="46.07407" lon="1.82692">
        <ele>558</ele>
        <time>2016-12-15T03:47:09Z</time>
      </trkpt>
      <trkpt lat="46.07404" lon="1.8269">
        <ele>558</ele>
        <time>2016-12-15T03:49:09Z</time>
      </trkpt>
      <trkpt lat="46.07394" lon="1.82683">
        <ele>559</ele>
        <time>2016-12-15T03:51:09Z</time>
      </trkpt>
      <trkpt lat="46.07392" lon="1.82683">
        <ele>559</ele>
        <time>2016-12-15T03:53:09Z</time>
      </trkpt>
      <trkpt lat="46.07391" lon="1.82682">
        <ele>559</ele>
        <time>2016-12-15T03:55:09Z</time>
      </trkpt>
      <trkpt lat="46.07387" lon="1.82679">
        <ele>559</ele>
        <time>2016-12-15T03:57:09Z</time>
      </trkpt>
      <trkpt lat="46.07382" lon="1.82677">
        <ele>560</ele>
        <time>2016-12-15T03:59:09Z</time>
      </trkpt>
      <trkpt lat="46.07378" lon="1.82675">
        <ele>560</ele>
        <time>2016-12-15T04:01:09Z</time>
      </trkpt>
      <trkpt lat="46.07376" lon="1.82675">
        <ele>560</ele>
        <time>2016-12-15T04:03:09Z</time>
      </trkpt>
      <trkpt lat="46.07374" lon="1.82674">
        <ele>560</ele>
        <time>2016-12-15T04:05:09Z</time>
      </trkpt>
      <trkpt lat="46.07371" lon="1.82674">
        <ele>560</ele>
        <time>2016-12-15T04:07:09Z</time>
      </trkpt>
      <trkpt lat="46.07368" lon="1.82674">
        <ele>560</ele>
        <time>2016-12-15T04:09:09Z</time>
      </trkpt>
      <trkpt lat="46.07366" lon="1.82674">
        <ele>560</ele>
        <time>2016-12-15T04:11:09Z</time>
      </trkpt>
      <trkpt lat="46.07361" lon="1.82675">
        <ele>560</ele>
        <time>2016-12-15T04:13:09Z</time>
      </trkpt>
      <trkpt lat="46.07356" lon="1.82677">
        <ele>560</ele>
        <time>2016-12-15T04:15:09Z</time>
      </trkpt>
      <trkpt lat="46.07348" lon="1.82679">
        <ele>559</ele>
        <time>2016-12-15T04:17:09Z</time>
      </trkpt>
      <trkpt lat="46.07346" lon="1.82681">
        <ele>559</ele>
        <time>2016-12-15T04:19:09Z</time>
      </trkpt>
      <trkpt lat="46.07341" lon="1.82682">
        <ele>559</ele>
        <time>2016-12-15T04:21:09Z</time>
      </trkpt>
      <trkpt lat="46.07338" lon="1.82684">
        <ele>559</ele>
        <time>2016-12-15T04:23:09Z</time>
      </trkpt>
      <trkpt lat="46.07336" lon="1.82686">
        <ele>558</ele>
        <time>2016-12-15T04:25:09Z</time>
      </trkpt>
      <trkpt lat="46.07334" lon="1.82688">
        <ele>558</ele>
        <time>2016-12-15T04:27:09Z</time>
      </trkpt>
      <trkpt lat="46.07332" lon="1.82692">
        <ele>558</ele>
        <time>2016-12-15T04:29:09Z</time>
      </trkpt>
      <trkpt lat="46.07331" lon="1.82694">
        <ele>558</ele>
        <time>2016-12-15T04:31:09Z</time>
      </trkpt>
      <trkpt lat="46.07327" lon="1.827">
        <ele>558</ele>
        <time>2016-12-15T04:33:09Z</time>
      </trkpt>
      <trkpt lat="46.07326" lon="1.82704">
        <ele>557</ele>
        <time>2016-12-15T04:35:09Z</time>
      </trkpt>
      <trkpt lat="46.07325" lon="1.82706">
        <ele>557</ele>
        <time>2016-12-15T04:37:09Z</time>
      </trkpt>
      <trkpt lat="46.07324" lon="1.82709">
        <ele>557</ele>
        <time>2016-12-15T04:39:09Z</time>
      </trkpt>
      <trkpt lat="46.0732" lon="1.82717">
        <ele>556</ele>
        <time>2016-12-15T04:41:09Z</time>
      </trkpt>
      <trkpt lat="46.07316" lon="1.82723">
        <ele>556</ele>
        <time>2016-12-15T04:43:09Z</time>
      </trkpt>
      <trkpt lat="46.07312" lon="1.82724">
        <ele>557</ele>
        <time>2016-12-15T04:45:09Z</time>
      </trkpt>
      <trkpt lat="46.07308" lon="1.82725">
        <ele>557</ele>
        <time>2016-12-15T04:47:09Z</time>
      </trkpt>
      <trkpt lat="46.07305" lon="1.82725">
        <ele>558</ele>
        <time>2016-12-15T04:49:09Z</time>
      </trkpt>
      <trkpt lat="46.07303" lon="1.82723">
        <ele>558</ele>
        <time>2016-12-15T04:51:09Z</time>
      </trkpt>
      <trkpt lat="46.073" lon="1.82723">
        <ele>559</ele>
        <time>2016-12-15T04:53:09Z</time>
      </trkpt>
      <trkpt lat="46.07299" lon="1.8272">
        <ele>559</ele>
        <time>2016-12-15T04:55:09Z</time>
      </trkpt>
      <trkpt lat="46.07297" lon="1.8272">
        <ele>560</ele>
        <time>2016-12-15T04:57:09Z</time>
      </trkpt>
      <trkpt lat="46.07295" lon="1.82719">
        <ele>560</ele>
        <time>2016-12-15T04:59:09Z</time>
      </trkpt>
      <trkpt lat="46.07293" lon="1.8272">
        <ele>560</ele>
        <time>2016-12-15T05:01:09Z</time>
      </trkpt>
      <trkpt lat="46.07291" lon="1.82721">
        <ele>560</ele>
        <time>2016-12-15T05:03:09Z</time>
      </trkpt>
      <trkpt lat="46.07289" lon="1.8272">
        <ele>561</ele>
        <time>2016-12-15T05:05:09Z</time>
      </trkpt>
      <trkpt lat="46.07285" lon="1.82723">
        <ele>561</ele>
        <time>2016-12-15T05:07:09Z</time>
      </trkpt>
      <trkpt lat="46.07284" lon="1.82724">
        <ele>561</ele>
        <time>2016-12-15T05:09:09Z</time>
      </trkpt>
      <trkpt lat="46.07281" lon="1.82723">
        <ele>562</ele>
        <time>2016-12-15T05:11:09Z</time>
      </trkpt>
      <trkpt lat="46.0728" lon="1.82724">
        <ele>562</ele>
        <time>2016-12-15T05:13:09Z</time>
      </trkpt>
      <trkpt lat="46.07277" lon="1.82726">
        <ele>562</ele>
        <time>2016-12-15T05:15:09Z</time>
      </trkpt>
      <trkpt lat="46.07275" lon="1.82727">
        <ele>562</ele>
        <time>2016-12-15T05:17:09Z</time>
      </trkpt>
      <trkpt lat="46.07273" lon="1.8273">
        <ele>562</ele>
        <time>2016-12-15T05:19:09Z</time>
      </trkpt>
      <trkpt lat="46.07271" lon="1.82732">
        <ele>562</ele>
        <time>2016-12-15T05:21:09Z</time>
      </trkpt>
      <trkpt lat="46.07267" lon="1.8274">
        <ele>561</ele>
        <time>2016-12-15T05:23:09Z</time>
      </trkpt>
      <trkpt lat="46.07266" lon="1.82744">
        <ele>561</ele>
        <time>2016-12-15T05:25:09Z</time>
      </trkpt>
      <trkpt lat="46.07267" lon="1.82758">
        <ele>559</ele>
        <time>2016-12-15T05:27:09Z</time>
      </trkpt>
      <trkpt lat="46.07266" lon="1.82762">
        <ele>559</ele>
        <time>2016-12-15T05:29:09Z</time>
      </trkpt>
      <trkpt lat="46.07267" lon="1.82765">
        <ele>558</ele>
        <time>2016-12-15T05:31:09Z</time>
      </trkpt>
      <trkpt lat="46.07267" lon="1.82768">
        <ele>558</ele>
        <time>2016-12-15T05:33:09Z</time>
      </trkpt>
      <trkpt lat="46.07266" lon="1.8277">
        <ele>558</ele>
        <time>2016-12-15T05:35:09Z</time>
      </trkpt>
      <trkpt lat="46.07263" lon="1.82774">
        <ele>558</ele>
        <time>2016-12-15T05:37:09Z</time>
      </trkpt>
      <trkpt lat="46.0726" lon="1.82779">
        <ele>558</ele>
        <time>2016-12-15T05:39:09Z</time>
      </trkpt>
      <trkpt lat="46.07258" lon="1.82783">
        <ele>558</ele>
        <time>2016-12-15T05:41:09Z</time>
      </trkpt>
      <trkpt lat="46.07257" lon="1.82784">
        <ele>558</ele>
        <time>2016-12-15T05:43:09Z</time>
      </trkpt>
      <trkpt lat="46.07256" lon="1.82789">
        <ele>558</ele>
        <time>2016-12-15T05:45:09Z</time>
      </trkpt>
      <trkpt lat="46.07254" lon="1.82791">
        <ele>558</ele>
        <time>2016-12-15T05:47:09Z</time>
      </trkpt>
      <trkpt lat="46.07252" lon="1.82797">
        <ele>558</ele>
        <time>2016-12-15T05:49:09Z</time>
      </trkpt>
      <trkpt lat="46.07251" lon="1.82799">
        <ele>558</ele>
        <time>2016-12-15T05:51:09Z</time>
      </trkpt>
      <trkpt lat="46.07251" lon="1.82801">
        <ele>558</ele>
        <time>2016-12-15T05:53:09Z</time>
      </trkpt>
      <trkpt lat="46.0725" lon="1.82804">
        <ele>557</ele>
        <time>2016-12-15T05:55:09Z</time>
      </trkpt>
      <trkpt lat="46.07252" lon="1.8281">
        <ele>557</ele>
        <time>2016-12-15T05:57:09Z</time>
      </trkpt>
      <trkpt lat="46.07252" lon="1.82813">
        <ele>556</ele>
        <time>2016-12-15T05:59:09Z</time>
      </trkpt>
      <trkpt lat="46.07252" lon="1.82817">
        <ele>556</ele>
        <time>2016-12-15T06:01:09Z</time>
      </trkpt>
      <trkpt lat="46.07253" lon="1.82825">
        <ele>555</ele>
        <time>2016-12-15T06:03:09Z</time>
      </trkpt>
      <trkpt lat="46.07252" lon="1.82828">
        <ele>555</ele>
        <time>2016-12-15T06:05:09Z</time>
      </trkpt>
      <trkpt lat="46.07252" lon="1.82832">
        <ele>555</ele>
        <time>2016-12-15T06:07:09Z</time>
      </trkpt>
      <trkpt lat="46.07251" lon="1.82833">
        <ele>555</ele>
        <time>2016-12-15T06:09:09Z</time>
      </trkpt>
      <trkpt lat="46.07251" lon="1.82836">
        <ele>555</ele>
        <time>2016-12-15T06:11:09Z</time>
      </trkpt>
      <trkpt lat="46.07252" lon="1.82839">
        <ele>554</ele>
        <time>2016-12-15T06:13:09Z</time>
      </trkpt>
      <trkpt lat="46.07253" lon="1.82841">
        <ele>554</ele>
        <time>2016-12-15T06:15:09Z</time>
      </trkpt>
      <trkpt lat="46.07253" lon="1.82844">
        <ele>554</ele>
        <time>2016-12-15T06:17:09Z</time>
      </trkpt>
      <trkpt lat="46.07252" lon="1.82846">
        <ele>554</ele>
        <time>2016-12-15T06:19:09Z</time>
      </trkpt>
      <trkpt lat="46.07248" lon="1.82851">
        <ele>554</ele>
        <time>2016-12-15T06:21:09Z</time>
      </trkpt>
      <trkpt lat="46.07243" lon="1.82851">
        <ele>554</ele>
        <time>2016-12-15T06:23:09Z</time>
      </trkpt>
      <trkpt lat="46.0724" lon="1.82855">
        <ele>554</ele>
        <time>2016-12-15T06:25:09Z</time>
      </trkpt>
      <trkpt lat="46.07238" lon="1.82854">
        <ele>554</ele>
        <time>2016-12-15T06:27:09Z</time>
      </trkpt>
      <trkpt lat="46.07235" lon="1.82856">
        <ele>554</ele>
        <time>2016-12-15T06:29:09Z</time>
      </trkpt>
      <trkpt lat="46.07233" lon="1.82856">
        <ele>555</ele>
        <time>2016-12-15T06:31:09Z</time>
      </trkpt>
      <trkpt lat="46.07232" lon="1.82856">
        <ele>555</ele>
        <time>2016-12-15T06:33:09Z</time>
      </trkpt>
      <trkpt lat="46.0723" lon="1.82856">
        <ele>555</ele>
        <time>2016-12-15T06:35:09Z</time>
      </trkpt>
      <trkpt lat="46.07226" lon="1.82858">
        <ele>555</ele>
        <time>2016-12-15T06:37:09Z</time>
      </trkpt>
      <trkpt lat="46.07224" lon="1.82859">
        <ele>555</ele>
        <time>2016-12-15T06:39:09Z</time>
      </trkpt>
      <trkpt lat="46.07221" lon="1.82859">
        <ele>556</ele>
        <time>2016-12-15T06:41:09Z</time>
      </trkpt>
      <trkpt lat="46.07218" lon="1.82858">
        <ele>556</ele>
        <time>2016-12-15T06:43:09Z</time>
      </trkpt>
      <trkpt lat="46.07215" lon="1.82857">
        <ele>556</ele>
        <time>2016-12-15T06:45:09Z</time>
      </trkpt>
      <trkpt lat="46.07214" lon="1.82856">
        <ele>557</ele>
        <time>2016-12-15T06:47:09Z</time>
      </trkpt>
      <trkpt lat="46.07212" lon="1.82856">
        <ele>557</ele>
        <time>2016-12-15T06:49:09Z</time>
      </trkpt>
      <trkpt lat="46.07213" lon="1.82855">
        <ele>557</ele>
        <time>2016-12-15T06:51:09Z</time>
      </trkpt>
      <trkpt lat="46.07212" lon="1.82855">
        <ele>557</ele>
        <time>2016-12-15T06:53:09Z</time>
      </trkpt>
      <trkpt lat="46.0721" lon="1.82854">
        <ele>557</ele>
        <time>2016-12-15T06:55:09Z</time>
      </trkpt>
      <trkpt lat="46.07209" lon="1.82853">
        <ele>558</ele>
        <time>2016-12-15T06:57:09Z</time>
      </trkpt>
      <trkpt lat="46.07209" lon="1.82852">
        <ele>558</ele>
        <time>2016-12-15T06:59:09Z</time>
      </trkpt>
      <trkpt lat="46.07207" lon="1.82849">
        <ele>558</ele>
        <time>2016-12-15T07:01:09Z</time>
      </trkpt>
      <trkpt lat="46.07205" lon="1.82847">
        <ele>559</ele>
        <time>2016-12-15T07:03:09Z</time>
      </trkpt>
      <trkpt lat="46.07205" lon="1.82846">
        <ele>559</ele>
        <time>2016-12-15T07:05:09Z</time>
      </trkpt>
      <trkpt lat="46.07203" lon="1.82845">
        <ele>559</ele>
        <time>2016-12-15T07:07:09Z</time>
      </trkpt>
      <trkpt lat="46.07201" lon="1.82845">
        <ele>560</ele>
        <time>2016-12-15T07:09:09Z</time>
      </trkpt>
      <trkpt lat="46.07199" lon="1.82844">
        <ele>560</ele>
        <time>2016-12-15T07:11:09Z</time>
      </trkpt>
      <trkpt lat="46.07198" lon="1.82844">
        <ele>560</ele>
        <time>2016-12-15T07:13:09Z</time>
      </trkpt>
      <trkpt lat="46.07197" lon="1.82842">
        <ele>561</ele>
        <time>2016-12-15T07:15:09Z</time>
      </trkpt>
      <trkpt lat="46.07194" lon="1.82841">
        <ele>561</ele>
        <time>2016-12-15T07:17:09Z</time>
      </trkpt>
      <trkpt lat="46.07194" lon="1.82841">
        <ele>561</ele>
        <time>2016-12-15T07:19:09Z</time>
      </trkpt>
      <trkpt lat="46.07193" lon="1.82839">
        <ele>562</ele>
        <time>2016-12-15T07:21:09Z</time>
      </trkpt>
      <trkpt lat="46.07189" lon="1.82838">
        <ele>562</ele>
        <time>2016-12-15T07:23:09Z</time>
      </trkpt>
      <trkpt lat="46.07188" lon="1.82836">
        <ele>563</ele>
        <time>2016-12-15T07:25:09Z</time>
      </trkpt>
      <trkpt lat="46.07186" lon="1.82836">
        <ele>563</ele>
        <time>2016-12-15T07:27:09Z</time>
      </trkpt>
      <trkpt lat="46.07186" lon="1.82833">
        <ele>563</ele>
        <time>2016-12-15T07:29:09Z</time>
      </trkpt>
      <trkpt lat="46.07185" lon="1.82834">
        <ele>563</ele>
        <time>2016-12-15T07:31:09Z</time>
      </trkpt>
      <trkpt lat="46.07183" lon="1.82832">
        <ele>564</ele>
        <time>2016-12-15T07:33:09Z</time>
      </trkpt>
      <trkpt lat="46.07179" lon="1.8283">
        <ele>565</ele>
        <time>2016-12-15T07:35:09Z</time>
      </trkpt>
      <trkpt lat="46.07177" lon="1.82829">
        <ele>565</ele>
        <time>2016-12-15T07:37:09Z</time>
      </trkpt>
      <trkpt lat="46.07175" lon="1.8283">
        <ele>565</ele>
        <time>2016-12-15T07:39:09Z</time>
      </trkpt>
      <trkpt lat="46.07174" lon="1.8283">
        <ele>566</ele>
        <time>2016-12-15T07:41:09Z</time>
      </trkpt>
      <trkpt lat="46.07172" lon="1.8283">
        <ele>566</ele>
        <time>2016-12-15T07:43:09Z</time>
      </trkpt>
      <trkpt lat="46.07169" lon="1.82828">
        <ele>567</ele>
        <time>2016-12-15T07:45:09Z</time>
      </trkpt>
      <trkpt lat="46.07167" lon="1.82828">
        <ele>567</ele>
        <time>2016-12-15T07:47:09Z</time>
      </trkpt>
      <trkpt lat="46.07166" lon="1.82826">
        <ele>567</ele>
        <time>2016-12-15T07:49:09Z</time>
      </trkpt>
      <trkpt lat="46.07164" lon="1.82825">
        <ele>567</ele>
        <time>2016-12-15T07:51:09Z</time>
      </trkpt>
      <trkpt lat="46.07159" lon="1.82822">
        <ele>567</ele>
        <time>2016-12-15T07:53:09Z</time>
      </trkpt>
      <trkpt lat="46.07156" lon="1.82821">
        <ele>567</ele>
        <time>2016-12-15T07:55:09Z</time>
      </trkpt>
      <trkpt lat="46.07153" lon="1.82819">
        <ele>567</ele>
        <time>2016-12-15T07:57:09Z</time>
      </trkpt>
      <trkpt lat="46.07151" lon="1.82817">
        <ele>567</ele>
        <time>2016-12-15T07:59:09Z</time>
      </trkpt>
      <trkpt lat="46.07149" lon="1.82816">
        <ele>567</ele>
        <time>2016-12-15T08:01:09Z</time>
      </trkpt>
      <trkpt lat="46.07142" lon="1.82812">
        <ele>567</ele>
        <time>2016-12-15T08:03:09Z</time>
      </trkpt>
      <trkpt lat="46.07138" lon="1.82811">
        <ele>567</ele>
        <time>2016-12-15T08:05:09Z</time>
      </trkpt>
      <trkpt lat="46.07131" lon="1.82808">
        <ele>566</ele>
        <time>2016-12-15T08:07:09Z</time>
      </trkpt>
      <trkpt lat="46.07128" lon="1.82807">
        <ele>566</ele>
        <time>2016-12-15T08:09:09Z</time>
      </trkpt>
      <trkpt lat="46.07126" lon="1.82805">
        <ele>566</ele>
        <time>2016-12-15T08:11:09Z</time>
      </trkpt>
      <trkpt lat="46.07124" lon="1.82803">
        <ele>566</ele>
        <time>2016-12-15T08:13:09Z</time>
      </trkpt>
      <trkpt lat="46.07121" lon="1.82799">
        <ele>567</ele>
        <time>2016-12-15T08:15:09Z</time>
      </trkpt>
      <trkpt lat="46.07119" lon="1.82797">
        <ele>567</ele>
        <time>2016-12-15T08:17:09Z</time>
      </trkpt>
      <trkpt lat="46.07117" lon="1.82795">
        <ele>567</ele>
        <time>2016-12-15T08:19:09Z</time>
      </trkpt>
      <trkpt lat="46.07115" lon="1.82793">
        <ele>567</ele>
        <time>2016-12-15T08:21:09Z</time>
      </trkpt>
      <trkpt lat="46.07112" lon="1.82792">
        <ele>567</ele>
        <time>2016-12-15T08:23:09Z</time>
      </trkpt>
      <trkpt lat="46.0711" lon="1.82788">
        <ele>567</ele>
        <time>2016-12-15T08:25:09Z</time>
      </trkpt>
      <trkpt lat="46.07106" lon="1.82783">
        <ele>567</ele>
        <time>2016-12-15T08:27:09Z</time>
      </trkpt>
      <trkpt lat="46.07104" lon="1.8278">
        <ele>568</ele>
        <time>2016-12-15T08:29:09Z</time>
      </trkpt>
      <trkpt lat="46.07103" lon="1.82777">
        <ele>568</ele>
        <time>2016-12-15T08:31:09Z</time>
      </trkpt>
      <trkpt lat="46.07101" lon="1.82776">
        <ele>568</ele>
        <time>2016-12-15T08:33:09Z</time>
      </trkpt>
      <trkpt lat="46.07099" lon="1.82774">
        <ele>568</ele>
        <time>2016-12-15T08:35:09Z</time>
      </trkpt>
      <trkpt lat="46.07097" lon="1.82772">
        <ele>568</ele>
        <time>2016-12-15T08:37:09Z</time>
      </trkpt>
      <trkpt lat="46.07095" lon="1.8277">
        <ele>568</ele>
        <time>2016-12-15T08:39:09Z</time>
      </trkpt>
      <trkpt lat="46.07093" lon="1.82767">
        <ele>568</ele>
        <time>2016-12-15T08:41:09Z</time>
      </trkpt>
      <trkpt lat="46.07088" lon="1.82763">
        <ele>568</ele>
        <time>2016-12-15T08:43:09Z</time>
      </trkpt>
      <trkpt lat="46.07082" lon="1.82757">
        <ele>568</ele>
        <time>2016-12-15T08:45:09Z</time>
      </trkpt>
      <trkpt lat="46.07082" lon="1.82754">
        <ele>568</ele>
        <time>2016-12-15T08:47:09Z</time>
      </trkpt>
      <trkpt lat="46.07075" lon="1.82751">
        <ele>569</ele>
        <time>2016-12-15T08:49:09Z</time>
      </trkpt>
      <trkpt lat="46.07074" lon="1.82748">
        <ele>569</ele>
        <time>2016-12-15T08:51:09Z</time>
      </trkpt>
      <trkpt lat="46.0707" lon="1.82748">
        <ele>569</ele>
        <time>2016-12-15T08:53:09Z</time>
      </trkpt>
      <trkpt lat="46.07068" lon="1.82745">
        <ele>569</ele>
        <time>2016-12-15T08:55:09Z</time>
      </trkpt>
      <trkpt lat="46.07065" lon="1.82742">
        <ele>570</ele>
        <time>2016-12-15T08:57:09Z</time>
      </trkpt>
      <trkpt lat="46.07062" lon="1.8274">
        <ele>570</ele>
        <time>2016-12-15T08:59:09Z</time>
      </trkpt>
      <trkpt lat="46.07059" lon="1.82738">
        <ele>570</ele>
        <time>2016-12-15T09:01:09Z</time>
      </trkpt>
      <trkpt lat="46.07058" lon="1.82737">
        <ele>571</ele>
        <time>2016-12-15T09:03:09Z</time>
      </trkpt>
      <trkpt lat="46.07055" lon="1.82736">
        <ele>571</ele>
        <time>2016-12-15T09:05:09Z</time>
      </trkpt>
      <trkpt lat="46.07051" lon="1.82736">
        <ele>570</ele>
        <time>2016-12-15T09:07:09Z</time>
      </trkpt>
      <trkpt lat="46.07045" lon="1.82736">
        <ele>570</ele>
        <time>2016-12-15T09:09:09Z</time>
      </trkpt>
      <trkpt lat="46.07039" lon="1.82737">
        <ele>570</ele>
        <time>2016-12-15T09:11:09Z</time>
      </trkpt>
      <trkpt lat="46.07037" lon="1.82738">
        <ele>569</ele>
        <time>2016-12-15T09:13:09Z</time>
      </trkpt>
      <trkpt lat="46.07036" lon="1.8274">
        <ele>569</ele>
        <time>2016-12-15T09:15:09Z</time>
      </trkpt>
      <trkpt lat="46.07034" lon="1.82745">
        <ele>568</ele>
        <time>2016-12-15T09:17:09Z</time>
      </trkpt>
      <trkpt lat="46.07033" lon="1.8275">
        <ele>567</ele>
        <time>2016-12-15T09:19:09Z</time>
      </trkpt>
      <trkpt lat="46.0703" lon="1.82753">
        <ele>567</ele>
        <time>2016-12-15T09:21:09Z</time>
      </trkpt>
      <trkpt lat="46.07029" lon="1.82755">
        <ele>567</ele>
        <time>2016-12-15T09:23:09Z</time>
      </trkpt>
      <trkpt lat="46.07029" lon="1.82757">
        <ele>566</ele>
        <time>2016-12-15T09:25:09Z</time>
      </trkpt>
      <trkpt lat="46.07029" lon="1.82758">
        <ele>566</ele>
        <time>2016-12-15T09:27:09Z</time>
      </trkpt>
      <trkpt lat="46.07028" lon="1.82761">
        <ele>566</ele>
        <time>2016-12-15T09:29:09Z</time>
      </trkpt>
      <trkpt lat="46.07028" lon="1.82763">
        <ele>566</ele>
        <time>2016-12-15T09:31:09Z</time>
      </trkpt>
      <trkpt lat="46.07028" lon="1.82764">
        <ele>566</ele>
        <time>2016-12-15T09:33:09Z</time>
      </trkpt>
      <trkpt lat="46.07028" lon="1.82765">
        <ele>566</ele>
        <time>2016-12-15T09:35:09Z</time>
      </trkpt>
      <trkpt lat="46.07028" lon="1.82766">
        <ele>565</ele>
        <time>2016-12-15T09:37:09Z</time>
      </trkpt>
      <trkpt lat="46.07025" lon="1.8277">
        <ele>565</ele>
        <time>2016-12-15T09:39:09Z</time>
      </trkpt>
      <trkpt lat="46.07022" lon="1.82773">
        <ele>565</ele>
        <time>2016-12-15T09:41:09Z</time>
      </trkpt>
      <trkpt lat="46.07015" lon="1.8278">
        <ele>564</ele>
        <time>2016-12-15T09:43:09Z</time>
      </trkpt>
      <trkpt lat="46.07012" lon="1.82781">
        <ele>564</ele>
        <time>2016-12-15T09:45:09Z</time>
      </trkpt>
      <trkpt lat="46.07011" lon="1.82784">
        <ele>563</ele>
        <time>2016-12-15T09:47:09Z</time>
      </trkpt>
      <trkpt lat="46.07008" lon="1.82786">
        <ele>563</ele>
        <time>2016-12-15T09:49:09Z</time>
      </trkpt>
      <trkpt lat="46.07008" lon="1.82787">
        <ele>563</ele>
        <time>2016-12-15T09:51:09Z</time>
      </trkpt>
      <trkpt lat="46.07001" lon="1.82795">
        <ele>562</ele>
        <time>2016-12-15T09:53:09Z</time>
      </trkpt>
      <trkpt lat="46.06998" lon="1.82797">
        <ele>562</ele>
        <time>2016-12-15T09:55:09Z</time>
      </trkpt>
      <trkpt lat="46.06992" lon="1.82797">
        <ele>562</ele>
        <time>2016-12-15T09:57:09Z</time>
      </trkpt>
      <trkpt lat="46.0699" lon="1.82798">
        <ele>562</ele>
        <time>2016-12-15T09:59:09Z</time>
      </trkpt>
      <trkpt lat="46.06987" lon="1.82801">
        <ele>562</ele>
        <time>2016-12-15T10:01:09Z</time>
      </trkpt>
      <trkpt lat="46.06984" lon="1.82802">
        <ele>562</ele>
        <time>2016-12-15T10:03:09Z</time>
      </trkpt>
      <trkpt lat="46.06982" lon="1.82805">
        <ele>562</ele>
        <time>2016-12-15T10:05:09Z</time>
      </trkpt>
      <trkpt lat="46.06978" lon="1.82806">
        <ele>561</ele>
        <time>2016-12-15T10:07:09Z</time>
      </trkpt>
      <trkpt lat="46.06975" lon="1.82807">
        <ele>561</ele>
        <time>2016-12-15T10:09:09Z</time>
      </trkpt>
      <trkpt lat="46.06973" lon="1.82808">
        <ele>561</ele>
        <time>2016-12-15T10:11:09Z</time>
      </trkpt>
      <trkpt lat="46.06966" lon="1.82811">
        <ele>561</ele>
        <time>2016-12-15T10:13:09Z</time>
      </trkpt>
      <trkpt lat="46.06964" lon="1.82812">
        <ele>561</ele>
        <time>2016-12-15T10:15:09Z</time>
      </trkpt>
      <trkpt lat="46.06962" lon="1.82814">
        <ele>561</ele>
        <time>2016-12-15T10:17:09Z</time>
      </trkpt>
      <trkpt lat="46.06957" lon="1.82818">
        <ele>560</ele>
        <time>2016-12-15T10:19:09Z</time>
      </trkpt>
      <trkpt lat="46.06952" lon="1.8282">
        <ele>560</ele>
        <time>2016-12-15T10:21:09Z</time>
      </trkpt>
      <trkpt lat="46.06947" lon="1.82826">
        <ele>559</ele>
        <time>2016-12-15T10:23:09Z</time>
      </trkpt>
      <trkpt lat="46.0694" lon="1.82829">
        <ele>559</ele>
        <time>2016-12-15T10:25:09Z</time>
      </trkpt>
      <trkpt lat="46.06938" lon="1.82829">
        <ele>559</ele>
        <time>2016-12-15T10:27:09Z</time>
      </trkpt>
      <trkpt lat="46.06935" lon="1.82827">
        <ele>559</ele>
        <time>2016-12-15T10:29:09Z</time>
      </trkpt>
      <trkpt lat="46.06933" lon="1.82827">
        <ele>559</ele>
        <time>2016-12-15T10:31:09Z</time>
      </trkpt>
      <trkpt lat="46.0693" lon="1.82828">
        <ele>559</ele>
        <time>2016-12-15T10:33:09Z</time>
      </trkpt>
      <trkpt lat="46.06925" lon="1.82828">
        <ele>559</ele>
        <time>2016-12-15T10:35:09Z</time>
      </trkpt>
      <trkpt lat="46.06914" lon="1.82831">
        <ele>558</ele>
        <time>2016-12-15T10:37:09Z</time>
      </trkpt>
      <trkpt lat="46.06912" lon="1.82832">
        <ele>558</ele>
        <time>2016-12-15T10:39:09Z</time>
      </trkpt>
      <trkpt lat="46.06911" lon="1.82834">
        <ele>558</ele>
        <time>2016-12-15T10:41:09Z</time>
      </trkpt>
      <trkpt lat="46.06909" lon="1.82835">
        <ele>558</ele>
        <time>2016-12-15T10:43:09Z</time>
      </trkpt>
      <trkpt lat="46.06904" lon="1.82841">
        <ele>558</ele>
        <time>2016-12-15T10:45:09Z</time>
      </trkpt>
      <trkpt lat="46.06904" lon="1.82844">
        <ele>558</ele>
        <time>2016-12-15T10:47:09Z</time>
      </trkpt>
      <trkpt lat="46.069" lon="1.82849">
        <ele>557</ele>
        <time>2016-12-15T10:49:09Z</time>
      </trkpt>
      <trkpt lat="46.069" lon="1.8285">
        <ele>557</ele>
        <time>2016-12-15T10:51:09Z</time>
      </trkpt>
      <trkpt lat="46.06895" lon="1.82853">
        <ele>557</ele>
        <time>2016-12-15T10:53:09Z</time>
      </trkpt>
      <trkpt lat="46.06892" lon="1.82858">
        <ele>557</ele>
        <time>2016-12-15T10:55:09Z</time>
      </trkpt>
      <trkpt lat="46.06891" lon="1.82858">
        <ele>557</ele>
        <time>2016-12-15T10:57:09Z</time>
      </trkpt>
      <trkpt lat="46.06887" lon="1.82865">
        <ele>557</ele>
        <time>2016-12-15T10:59:09Z</time>
      </trkpt>
      <trkpt lat="46.06885" lon="1.82871">
        <ele>556</ele>
        <time>2016-12-15T11:01:09Z</time>
      </trkpt>
      <trkpt lat="46.06879" lon="1.82884">
        <ele>556</ele>
        <time>2016-12-15T11:03:09Z</time>
      </trkpt>
      <trkpt lat="46.06877" lon="1.82888">
        <ele>556</ele>
        <time>2016-12-15T11:05:09Z</time>
      </trkpt>
      <trkpt lat="46.06875" lon="1.82892">
        <ele>556</ele>
        <time>2016-12-15T11:07:09Z</time>
      </trkpt>
      <trkpt lat="46.06874" lon="1.82895">
        <ele>556</ele>
        <time>2016-12-15T11:09:09Z</time>
      </trkpt>
      <trkpt lat="46.06873" lon="1.82899">
        <ele>555</ele>
        <time>2016-12-15T11:11:09Z</time>
      </trkpt>
      <trkpt lat="46.06871" lon="1.82907">
        <ele>555</ele>
        <time>2016-12-15T11:13:09Z</time>
      </trkpt>
      <trkpt lat="46.0687" lon="1.82912">
        <ele>555</ele>
        <time>2016-12-15T11:15:09Z</time>
      </trkpt>
      <trkpt lat="46.06867" lon="1.82923">
        <ele>554</ele>
        <time>2016-12-15T11:17:09Z</time>
      </trkpt>
      <trkpt lat="46.06866" lon="1.82927">
        <ele>554</ele>
        <time>2016-12-15T11:19:09Z</time>
      </trkpt>
      <trkpt lat="46.06862" lon="1.82936">
        <ele>553</ele>
        <time>2016-12-15T11:21:09Z</time>
      </trkpt>
      <trkpt lat="46.06859" lon="1.82939">
        <ele>553</ele>
        <time>2016-12-15T11:23:09Z</time>
      </trkpt>
      <trkpt lat="46.06842" lon="1.82952">
        <ele>553</ele>
        <time>2016-12-15T11:25:09Z</time>
      </trkpt>
      <trkpt lat="46.06837" lon="1.82958">
        <ele>553</ele>
        <time>2016-12-15T11:27:09Z</time>
      </trkpt>
      <trkpt lat="46.06835" lon="1.8296">
        <ele>553</ele>
        <time>2016-12-15T11:29:09Z</time>
      </trkpt>
      <trkpt lat="46.0683" lon="1.82964">
        <ele>553</ele>
        <time>2016-12-15T11:31:09Z</time>
      </trkpt>
      <trkpt lat="46.06826" lon="1.82969">
        <ele>553</ele>
        <time>2016-12-15T11:33:09Z</time>
      </trkpt>
      <trkpt lat="46.06821" lon="1.82974">
        <ele>554</ele>
        <time>2016-12-15T11:35:09Z</time>
      </trkpt>
      <trkpt lat="46.06819" lon="1.82978">
        <ele>554</ele>
        <time>2016-12-15T11:37:09Z</time>
      </trkpt>
      <trkpt lat="46.06818" lon="1.82981">
        <ele>554</ele>
        <time>2016-12-15T11:39:09Z</time>
      </trkpt>
      <trkpt lat="46.06805" lon="1.82999">
        <ele>554</ele>
        <time>2016-12-15T11:41:09Z</time>
      </trkpt>
      <trkpt lat="46.06804" lon="1.83001">
        <ele>554</ele>
        <time>2016-12-15T11:43:09Z</time>
      </trkpt>
      <trkpt lat="46.06799" lon="1.83006">
        <ele>555</ele>
        <time>2016-12-15T11:45:09Z</time>
      </trkpt>
      <trkpt lat="46.06791" lon="1.83013">
        <ele>556</ele>
        <time>2016-12-15T11:47:09Z</time>
      </trkpt>
      <trkpt lat="46.06789" lon="1.83016">
        <ele>556</ele>
        <time>2016-12-15T11:49:09Z</time>
      </trkpt>
      <trkpt lat="46.06788" lon="1.83018">
        <ele>556</ele>
        <time>2016-12-15T11:51:09Z</time>
      </trkpt>
      <trkpt lat="46.06788" lon="1.83022">
        <ele>556</ele>
        <time>2016-12-15T11:53:09Z</time>
      </trkpt>
      <trkpt lat="46.06787" lon="1.83027">
        <ele>556</ele>
        <time>2016-12-15T11:55:09Z</time>
      </trkpt>
      <trkpt lat="46.06787" lon="1.83031">
        <ele>556</ele>
        <time>2016-12-15T11:57:09Z</time>
      </trkpt>
      <trkpt lat="46.06786" lon="1.83034">
        <ele>556</ele>
        <time>2016-12-15T11:59:09Z</time>
      </trkpt>
      <trkpt lat="46.06785" lon="1.83042">
        <ele>556</ele>
        <time>2016-12-15T12:01:09Z</time>
      </trkpt>
      <trkpt lat="46.06785" lon="1.83046">
        <ele>556</ele>
        <time>2016-12-15T12:03:09Z</time>
      </trkpt>
      <trkpt lat="46.06785" lon="1.83049">
        <ele>556</ele>
        <time>2016-12-15T12:05:09Z</time>
      </trkpt>
      <trkpt lat="46.06784" lon="1.83052">
        <ele>556</ele>
        <time>2016-12-15T12:07:09Z</time>
      </trkpt>
      <trkpt lat="46.06783" lon="1.83054">
        <ele>557</ele>
        <time>2016-12-15T12:09:09Z</time>
      </trkpt>
      <trkpt lat="46.06782" lon="1.83055">
        <ele>557</ele>
        <time>2016-12-15T12:11:09Z</time>
      </trkpt>
      <trkpt lat="46.06781" lon="1.83057">
        <ele>557</ele>
        <time>2016-12-15T12:13:09Z</time>
      </trkpt>
      <trkpt lat="46.0678" lon="1.83058">
        <ele>557</ele>
        <time>2016-12-15T12:15:09Z</time>
      </trkpt>
      <trkpt lat="46.0678" lon="1.83058">
        <ele>557</ele>
        <time>2016-12-15T12:17:09Z</time>
      </trkpt>
      <trkpt lat="46.0678" lon="1.83057">
        <ele>557</ele>
        <time>2016-12-15T12:19:09Z</time>
      </trkpt>
      <trkpt lat="46.0678" lon="1.83058">
        <ele>557</ele>
        <time>2016-12-15T12:21:09Z</time>
      </trkpt>
      <trkpt lat="46.06782" lon="1.83057">
        <ele>557</ele>
        <time>2016-12-15T12:23:09Z</time>
      </trkpt>
      <trkpt lat="46.06783" lon="1.83057">
        <ele>557</ele>
        <time>2016-12-15T12:25:09Z</time>
      </trkpt>
      <trkpt lat="46.06781" lon="1.83059">
        <ele>557</ele>
        <time>2016-12-15T12:27:09Z</time>
      </trkpt>
      <trkpt lat="46.06778" lon="1.8306">
        <ele>558</ele>
        <time>2016-12-15T12:29:09Z</time>
      </trkpt>
      <trkpt lat="46.0678" lon="1.83058">
        <ele>557</ele>
        <time>2016-12-15T12:31:09Z</time>
      </trkpt>
      <trkpt lat="46.06779" lon="1.83059">
        <ele>558</ele>
        <time>2016-12-15T12:33:09Z</time>
      </trkpt>
      <trkpt lat="46.06776" lon="1.83053">
        <ele>558</ele>
        <time>2016-12-15T12:35:09Z</time>
      </trkpt>
      <trkpt lat="46.06775" lon="1.83052">
        <ele>559</ele>
        <time>2016-12-15T12:37:09Z</time>
      </trkpt>
      <trkpt lat="46.06774" lon="1.83053">
        <ele>559</ele>
        <time>2016-12-15T12:39:09Z</time>
      </trkpt>
      <trkpt lat="46.06775" lon="1.83052">
        <ele>559</ele>
        <time>2016-12-15T12:41:09Z</time>
      </trkpt>
      <trkpt lat="46.06775" lon="1.83053">
        <ele>559</ele>
        <time>2016-12-15T12:43:09Z</time>
      </trkpt>
      <trkpt lat="46.06775" lon="1.83052">
        <ele>559</ele>
        <time>2016-12-15T12:45:09Z</time>
      </trkpt>
      <trkpt lat="46.06774" lon="1.83052">
        <ele>559</ele>
        <time>2016-12-15T12:47:09Z</time>
      </trkpt>
      <trkpt lat="46.06775" lon="1.83054">
        <ele>559</ele>
        <time>2016-12-15T12:49:09Z</time>
      </trkpt>
      <trkpt lat="46.06774" lon="1.83055">
        <ele>559</ele>
        <time>2016-12-15T12:51:09Z</time>
      </trkpt>
      <trkpt lat="46.06774" lon="1.83055">
        <ele>559</ele>
        <time>2016-12-15T12:53:09Z</time>
      </trkpt>
      <trkpt lat="46.06772" lon="1.83056">
        <ele>559</ele>
        <time>2016-12-15T12:55:09Z</time>
      </trkpt>
      <trkpt lat="46.06773" lon="1.83056">
        <ele>559</ele>
        <time>2016-12-15T12:57:09Z</time>
      </trkpt>
      <trkpt lat="46.06771" lon="1.83057">
        <ele>560</ele>
        <time>2016-12-15T12:59:09Z</time>
      </trkpt>
      <trkpt lat="46.06771" lon="1.83057">
        <ele>560</ele>
        <time>2016-12-15T13:01:09Z</time>
      </trkpt>
      <trkpt lat="46.06772" lon="1.83057">
        <ele>559</ele>
        <time>2016-12-15T13:03:09Z</time>
      </trkpt>
      <trkpt lat="46.06772" lon="1.83057">
        <ele>559</ele>
        <time>2016-12-15T13:05:09Z</time>
      </trkpt>
      <trkpt lat="46.06771" lon="1.83058">
        <ele>560</ele>
        <time>2016-12-15T13:07:09Z</time>
      </trkpt>
      <trkpt lat="46.06771" lon="1.83058">
        <ele>560</ele>
        <time>2016-12-15T13:09:09Z</time>
      </trkpt>
      <trkpt lat="46.06771" lon="1.83058">
        <ele>560</ele>
        <time>2016-12-15T13:11:09Z</time>
      </trkpt>
      <trkpt lat="46.06771" lon="1.83058">
        <ele>560</ele>
        <time>2016-12-15T13:13:09Z</time>
      </trkpt>
      <trkpt lat="46.0677" lon="1.83058">
        <ele>560</ele>
        <time>2016-12-15T13:15:09Z</time>
      </trkpt>
      <trkpt lat="46.06771" lon="1.83058">
        <ele>560</ele>
        <time>2016-12-15T13:17:09Z</time>
      </trkpt>
      <trkpt lat="46.06771" lon="1.83059">
        <ele>560</ele>
        <time>2016-12-15T13:19:09Z</time>
      </trkpt>
      <trkpt lat="46.06771" lon="1.83059">
        <ele>560</ele>
        <time>2016-12-15T13:21:09Z</time>
      </trkpt>
      <trkpt lat="46.06769" lon="1.8306">
        <ele>560</ele>
        <time>2016-12-15T13:23:09Z</time>
      </trkpt>
      <trkpt lat="46.06768" lon="1.8306">
        <ele>560</ele>
        <time>2016-12-15T13:25:09Z</time>
      </trkpt>
      <trkpt lat="46.06767" lon="1.83061">
        <ele>561</ele>
        <time>2016-12-15T13:27:09Z</time>
      </trkpt>
      <trkpt lat="46.06765" lon="1.8306">
        <ele>561</ele>
        <time>2016-12-15T13:29:09Z</time>
      </trkpt>
      <trkpt lat="46.06763" lon="1.83061">
        <ele>562</ele>
        <time>2016-12-15T13:31:09Z</time>
      </trkpt>
      <trkpt lat="46.06761" lon="1.83061">
        <ele>562</ele>
        <time>2016-12-15T13:33:09Z</time>
      </trkpt>
      <trkpt lat="46.06756" lon="1.83063">
        <ele>564</ele>
        <time>2016-12-15T13:35:09Z</time>
      </trkpt>
      <trkpt lat="46.06747" lon="1.83069">
        <ele>566</ele>
        <time>2016-12-15T13:37:09Z</time>
      </trkpt>
      <trkpt lat="46.06743" lon="1.83072">
        <ele>568</ele>
        <time>2016-12-15T13:39:09Z</time>
      </trkpt>
      <trkpt lat="46.0674" lon="1.83073">
        <ele>569</ele>
        <time>2016-12-15T13:41:09Z</time>
      </trkpt>
      <trkpt lat="46.06731" lon="1.83078">
        <ele>572</ele>
        <time>2016-12-15T13:43:09Z</time>
      </trkpt>
      <trkpt lat="46.06723" lon="1.83082">
        <ele>574</ele>
        <time>2016-12-15T13:45:09Z</time>
      </trkpt>
      <trkpt lat="46.06721" lon="1.83084">
        <ele>575</ele>
        <time>2016-12-15T13:47:09Z</time>
      </trkpt>
      <trkpt lat="46.06717" lon="1.83086">
        <ele>576</ele>
        <time>2016-12-15T13:49:09Z</time>
      </trkpt>
      <trkpt lat="46.06712" lon="1.8309">
        <ele>577</ele>
        <time>2016-12-15T13:51:09Z</time>
      </trkpt>
      <trkpt lat="46.0671" lon="1.8309">
        <ele>577</ele>
        <time>2016-12-15T13:53:09Z</time>
      </trkpt>
      <trkpt lat="46.06708" lon="1.83092">
        <ele>578</ele>
        <time>2016-12-15T13:55:09Z</time>
      </trkpt>
      <trkpt lat="46.067" lon="1.83097">
        <ele>579</ele>
        <time>2016-12-15T13:57:09Z</time>
      </trkpt>
      <trkpt lat="46.06698" lon="1.83098">
        <ele>579</ele>
        <time>2016-12-15T13:59:09Z</time>
      </trkpt>
      <trkpt lat="46.06695" lon="1.83101">
        <ele>580</ele>
        <time>2016-12-15T14:01:09Z</time>
      </trkpt>
      <trkpt lat="46.06694" lon="1.83102">
        <ele>580</ele>
        <time>2016-12-15T14:03:09Z</time>
      </trkpt>
      <trkpt lat="46.06691" lon="1.83103">
        <ele>580</ele>
        <time>2016-12-15T14:05:09Z</time>
      </trkpt>
      <trkpt lat="46.06676" lon="1.83111">
        <ele>583</ele>
        <time>2016-12-15T14:07:09Z</time>
      </trkpt>
      <trkpt lat="46.0667" lon="1.83114">
        <ele>583</ele>
        <time>2016-12-15T14:09:09Z</time>
      </trkpt>
      <trkpt lat="46.06669" lon="1.83114">
        <ele>584</ele>
        <time>2016-12-15T14:11:09Z</time>
      </trkpt>
      <trkpt lat="46.06663" lon="1.83116">
        <ele>585</ele>
        <time>2016-12-15T14:13:09Z</time>
      </trkpt>
      <trkpt lat="46.06661" lon="1.83116">
        <ele>585</ele>
        <time>2016-12-15T14:15:09Z</time>
      </trkpt>
      <trkpt lat="46.06653" lon="1.83117">
        <ele>586</ele>
        <time>2016-12-15T14:17:09Z</time>
      </trkpt>
      <trkpt lat="46.06652" lon="1.83117">
        <ele>587</ele>
        <time>2016-12-15T14:19:09Z</time>
      </trkpt>
      <trkpt lat="46.06649" lon="1.83118">
        <ele>587</ele>
        <time>2016-12-15T14:21:09Z</time>
      </trkpt>
      <trkpt lat="46.06646" lon="1.83118">
        <ele>588</ele>
        <time>2016-12-15T14:23:09Z</time>
      </trkpt>
      <trkpt lat="46.06644" lon="1.83118">
        <ele>588</ele>
        <time>2016-12-15T14:25:09Z</time>
      </trkpt>
      <trkpt lat="46.0664" lon="1.83118">
        <ele>589</ele>
        <time>2016-12-15T14:27:09Z</time>
      </trkpt>
      <trkpt lat="46.06639" lon="1.83117">
        <ele>589</ele>
        <time>2016-12-15T14:29:09Z</time>
      </trkpt>
      <trkpt lat="46.06638" lon="1.83117">
        <ele>590</ele>
        <time>2016-12-15T14:31:09Z</time>
      </trkpt>
      <trkpt lat="46.06637" lon="1.83118">
        <ele>590</ele>
        <time>2016-12-15T14:33:09Z</time>
      </trkpt>
      <trkpt lat="46.06637" lon="1.83117">
        <ele>590</ele>
        <time>2016-12-15T14:35:09Z</time>
      </trkpt>
      <trkpt lat="46.06636" lon="1.83116">
        <ele>590</ele>
        <time>2016-12-15T14:37:09Z</time>
      </trkpt>
      <trkpt lat="46.06637" lon="1.83115">
        <ele>590</ele>
        <time>2016-12-15T14:39:09Z</time>
      </trkpt>
      <trkpt lat="46.06638" lon="1.83114">
        <ele>590</ele>
        <time>2016-12-15T14:41:09Z</time>
      </trkpt>
      <trkpt lat="46.0664" lon="1.83112">
        <ele>590</ele>
        <time>2016-12-15T14:43:09Z</time>
      </trkpt>
      <trkpt lat="46.06641" lon="1.8311">
        <ele>591</ele>
        <time>2016-12-15T14:45:09Z</time>
      </trkpt>
      <trkpt lat="46.06642" lon="1.83107">
        <ele>591</ele>
        <time>2016-12-15T14:47:09Z</time>
      </trkpt>
      <trkpt lat="46.06642" lon="1.83106">
        <ele>591</ele>
        <time>2016-12-15T14:49:09Z</time>
      </trkpt>
      <trkpt lat="46.06645" lon="1.83103">
        <ele>591</ele>
        <time>2016-12-15T14:51:09Z</time>
      </trkpt>
      <trkpt lat="46.06645" lon="1.83102">
        <ele>592</ele>
        <time>2016-12-15T14:53:09Z</time>
      </trkpt>
      <trkpt lat="46.06647" lon="1.83099">
        <ele>592</ele>
        <time>2016-12-15T14:55:09Z</time>
      </trkpt>
      <trkpt lat="46.06648" lon="1.83098">
        <ele>592</ele>
        <time>2016-12-15T14:57:09Z</time>
      </trkpt>
      <trkpt lat="46.06648" lon="1.83097">
        <ele>592</ele>
        <time>2016-12-15T14:59:09Z</time>
      </trkpt>
      <trkpt lat="46.0665" lon="1.83094">
        <ele>592</ele>
        <time>2016-12-15T15:01:09Z</time>
      </trkpt>
      <trkpt lat="46.06652" lon="1.83091">
        <ele>593</ele>
        <time>2016-12-15T15:03:09Z</time>
      </trkpt>
      <trkpt lat="46.06653" lon="1.83089">
        <ele>593</ele>
        <time>2016-12-15T15:05:09Z</time>
      </trkpt>
      <trkpt lat="46.06655" lon="1.83087">
        <ele>593</ele>
        <time>2016-12-15T15:07:09Z</time>
      </trkpt>
      <trkpt lat="46.06656" lon="1.83084">
        <ele>594</ele>
        <time>2016-12-15T15:09:09Z</time>
      </trkpt>
      <trkpt lat="46.06657" lon="1.83083">
        <ele>594</ele>
        <time>2016-12-15T15:11:09Z</time>
      </trkpt>
      <trkpt lat="46.06661" lon="1.83079">
        <ele>593</ele>
        <time>2016-12-15T15:13:09Z</time>
      </trkpt>
      <trkpt lat="46.06666" lon="1.83075">
        <ele>592</ele>
        <time>2016-12-15T15:15:09Z</time>
      </trkpt>
      <trkpt lat="46.06667" lon="1.83071">
        <ele>592</ele>
        <time>2016-12-15T15:17:09Z</time>
      </trkpt>
      <trkpt lat="46.06669" lon="1.83069">
        <ele>592</ele>
        <time>2016-12-15T15:19:09Z</time>
      </trkpt>
      <trkpt lat="46.06673" lon="1.83061">
        <ele>591</ele>
        <time>2016-12-15T15:21:09Z</time>
      </trkpt>
      <trkpt lat="46.06674" lon="1.83053">
        <ele>591</ele>
        <time>2016-12-15T15:23:09Z</time>
      </trkpt>
      <trkpt lat="46.06674" lon="1.83049">
        <ele>591</ele>
        <time>2016-12-15T15:25:09Z</time>
      </trkpt>
      <trkpt lat="46.06672" lon="1.83047">
        <ele>591</ele>
        <time>2016-12-15T15:27:09Z</time>
      </trkpt>
      <trkpt lat="46.0667" lon="1.83045">
        <ele>592</ele>
        <time>2016-12-15T15:29:09Z</time>
      </trkpt>
      <trkpt lat="46.06669" lon="1.83043">
        <ele>593</ele>
        <time>2016-12-15T15:31:09Z</time>
      </trkpt>
      <trkpt lat="46.06668" lon="1.83042">
        <ele>593</ele>
        <time>2016-12-15T15:33:09Z</time>
      </trkpt>
      <trkpt lat="46.06665" lon="1.83041">
        <ele>594</ele>
        <time>2016-12-15T15:35:09Z</time>
      </trkpt>
      <trkpt lat="46.06662" lon="1.83039">
        <ele>594</ele>
        <time>2016-12-15T15:37:09Z</time>
      </trkpt>
      <trkpt lat="46.06659" lon="1.83036">
        <ele>595</ele>
        <time>2016-12-15T15:39:09Z</time>
      </trkpt>
      <trkpt lat="46.06656" lon="1.83035">
        <ele>595</ele>
        <time>2016-12-15T15:41:09Z</time>
      </trkpt>
      <trkpt lat="46.06653" lon="1.83033">
        <ele>596</ele>
        <time>2016-12-15T15:43:09Z</time>
      </trkpt>
      <trkpt lat="46.06651" lon="1.83031">
        <ele>596</ele>
        <time>2016-12-15T15:45:09Z</time>
      </trkpt>
      <trkpt lat="46.0665" lon="1.83028">
        <ele>596</ele>
        <time>2016-12-15T15:47:09Z</time>
      </trkpt>
      <trkpt lat="46.06645" lon="1.83022">
        <ele>597</ele>
        <time>2016-12-15T15:49:09Z</time>
      </trkpt>
      <trkpt lat="46.06638" lon="1.83015">
        <ele>598</ele>
        <time>2016-12-15T15:51:09Z</time>
      </trkpt>
      <trkpt lat="46.06635" lon="1.83013">
        <ele>598</ele>
        <time>2016-12-15T15:53:09Z</time>
      </trkpt>
      <trkpt lat="46.06631" lon="1.83012">
        <ele>598</ele>
        <time>2016-12-15T15:55:09Z</time>
      </trkpt>
      <trkpt lat="46.06628" lon="1.83012">
        <ele>599</ele>
        <time>2016-12-15T15:57:09Z</time>
      </trkpt>
      <trkpt lat="46.06628" lon="1.83012">
        <ele>599</ele>
        <time>2016-12-15T15:59:09Z</time>
      </trkpt>
      <trkpt lat="46.06627" lon="1.83012">
        <ele>599</ele>
        <time>2016-12-15T16:01:09Z</time>
      </trkpt>
      <trkpt lat="46.06627" lon="1.83011">
        <ele>599</ele>
        <time>2016-12-15T16:03:09Z</time>
      </trkpt>
      <trkpt lat="46.06623" lon="1.83013">
        <ele>599</ele>
        <time>2016-12-15T16:05:09Z</time>
      </trkpt>
      <trkpt lat="46.06621" lon="1.83015">
        <ele>600</ele>
        <time>2016-12-15T16:07:09Z</time>
      </trkpt>
      <trkpt lat="46.06621" lon="1.83015">
        <ele>600</ele>
        <time>2016-12-15T16:09:09Z</time>
      </trkpt>
      <trkpt lat="46.06614" lon="1.83022">
        <ele>600</ele>
        <time>2016-12-15T16:11:09Z</time>
      </trkpt>
      <trkpt lat="46.06613" lon="1.83024">
        <ele>601</ele>
        <time>2016-12-15T16:13:09Z</time>
      </trkpt>
      <trkpt lat="46.06611" lon="1.83028">
        <ele>601</ele>
        <time>2016-12-15T16:15:09Z</time>
      </trkpt>
      <trkpt lat="46.0661" lon="1.83029">
        <ele>601</ele>
        <time>2016-12-15T16:17:09Z</time>
      </trkpt>
      <trkpt lat="46.06609" lon="1.83031">
        <ele>601</ele>
        <time>2016-12-15T16:19:09Z</time>
      </trkpt>
      <trkpt lat="46.06608" lon="1.83033">
        <ele>601</ele>
        <time>2016-12-15T16:21:09Z</time>
      </trkpt>
      <trkpt lat="46.06606" lon="1.83035">
        <ele>602</ele>
        <time>2016-12-15T16:23:09Z</time>
      </trkpt>
      <trkpt lat="46.06604" lon="1.83037">
        <ele>602</ele>
        <time>2016-12-15T16:25:09Z</time>
      </trkpt>
      <trkpt lat="46.06602" lon="1.83038">
        <ele>602</ele>
        <time>2016-12-15T16:27:09Z</time>
      </trkpt>
      <trkpt lat="46.06598" lon="1.83043">
        <ele>603</ele>
        <time>2016-12-15T16:29:09Z</time>
      </trkpt>
      <trkpt lat="46.06593" lon="1.83048">
        <ele>604</ele>
        <time>2016-12-15T16:31:09Z</time>
      </trkpt>
      <trkpt lat="46.06591" lon="1.8305">
        <ele>604</ele>
        <time>2016-12-15T16:33:09Z</time>
      </trkpt>
      <trkpt lat="46.06582" lon="1.83062">
        <ele>606</ele>
        <time>2016-12-15T16:35:09Z</time>
      </trkpt>
      <trkpt lat="46.06582" lon="1.83062">
        <ele>606</ele>
        <time>2016-12-15T16:37:09Z</time>
      </trkpt>
      <trkpt lat="46.06574" lon="1.83072">
        <ele>608</ele>
        <time>2016-12-15T16:39:09Z</time>
      </trkpt>
      <trkpt lat="46.06572" lon="1.83075">
        <ele>608</ele>
        <time>2016-12-15T16:41:09Z</time>
      </trkpt>
      <trkpt lat="46.06568" lon="1.83082">
        <ele>609</ele>
        <time>2016-12-15T16:43:09Z</time>
      </trkpt>
      <trkpt lat="46.06565" lon="1.83084">
        <ele>609</ele>
        <time>2016-12-15T16:45:09Z</time>
      </trkpt>
      <trkpt lat="46.06561" lon="1.83091">
        <ele>609</ele>
        <time>2016-12-15T16:47:09Z</time>
      </trkpt>
      <trkpt lat="46.06559" lon="1.83092">
        <ele>609</ele>
        <time>2016-12-15T16:49:09Z</time>
      </trkpt>
      <trkpt lat="46.06556" lon="1.83097">
        <ele>609</ele>
        <time>2016-12-15T16:51:09Z</time>
      </trkpt>
      <trkpt lat="46.06553" lon="1.83101">
        <ele>609</ele>
        <time>2016-12-15T16:53:09Z</time>
      </trkpt>
      <trkpt lat="46.06552" lon="1.83106">
        <ele>608</ele>
        <time>2016-12-15T16:55:09Z</time>
      </trkpt>
      <trkpt lat="46.06548" lon="1.83115">
        <ele>608</ele>
        <time>2016-12-15T16:57:09Z</time>
      </trkpt>
      <trkpt lat="46.06544" lon="1.8312">
        <ele>608</ele>
        <time>2016-12-15T16:59:09Z</time>
      </trkpt>
      <trkpt lat="46.06541" lon="1.83127">
        <ele>608</ele>
        <time>2016-12-15T17:01:09Z</time>
      </trkpt>
      <trkpt lat="46.06537" lon="1.83132">
        <ele>608</ele>
        <time>2016-12-15T17:03:09Z</time>
      </trkpt>
      <trkpt lat="46.06536" lon="1.83134">
        <ele>608</ele>
        <time>2016-12-15T17:05:09Z</time>
      </trkpt>
      <trkpt lat="46.06534" lon="1.83136">
        <ele>609</ele>
        <time>2016-12-15T17:07:09Z</time>
      </trkpt>
      <trkpt lat="46.06531" lon="1.83139">
        <ele>609</ele>
        <time>2016-12-15T17:09:09Z</time>
      </trkpt>
      <trkpt lat="46.0653" lon="1.83141">
        <ele>609</ele>
        <time>2016-12-15T17:11:09Z</time>
      </trkpt>
      <trkpt lat="46.06523" lon="1.83149">
        <ele>610</ele>
        <time>2016-12-15T17:13:09Z</time>
      </trkpt>
      <trkpt lat="46.0652" lon="1.83153">
        <ele>611</ele>
        <time>2016-12-15T17:15:09Z</time>
      </trkpt>
      <trkpt lat="46.06517" lon="1.83155">
        <ele>611</ele>
        <time>2016-12-15T17:17:09Z</time>
      </trkpt>
      <trkpt lat="46.06516" lon="1.83155">
        <ele>611</ele>
        <time>2016-12-15T17:19:09Z</time>
      </trkpt>
      <trkpt lat="46.06517" lon="1.83155">
        <ele>611</ele>
        <time>2016-12-15T17:21:09Z</time>
      </trkpt>
      <trkpt lat="46.06508" lon="1.83163">
        <ele>613</ele>
        <time>2016-12-15T17:23:09Z</time>
      </trkpt>
      <trkpt lat="46.06504" lon="1.83168">
        <ele>614</ele>
        <time>2016-12-15T17:25:09Z</time>
      </trkpt>
      <trkpt lat="46.06502" lon="1.8317">
        <ele>614</ele>
        <time>2016-12-15T17:27:09Z</time>
      </trkpt>
      <trkpt lat="46.06494" lon="1.8318">
        <ele>615</ele>
        <time>2016-12-15T17:29:09Z</time>
      </trkpt>
      <trkpt lat="46.06491" lon="1.83184">
        <ele>615</ele>
        <time>2016-12-15T17:31:09Z</time>
      </trkpt>
      <trkpt lat="46.06489" lon="1.83187">
        <ele>616</ele>
        <time>2016-12-15T17:33:09Z</time>
      </trkpt>
      <trkpt lat="46.06488" lon="1.83189">
        <ele>616</ele>
        <time>2016-12-15T17:35:09Z</time>
      </trkpt>
      <trkpt lat="46.06487" lon="1.8319">
        <ele>616</ele>
        <time>2016-12-15T17:37:09Z</time>
      </trkpt>
      <trkpt lat="46.06485" lon="1.83191">
        <ele>616</ele>
        <time>2016-12-15T17:39:09Z</time>
      </trkpt>
      <trkpt lat="46.06483" lon="1.83191">
        <ele>616</ele>
        <time>2016-12-15T17:41:09Z</time>
      </trkpt>
      <trkpt lat="46.06479" lon="1.83189">
        <ele>617</ele>
        <time>2016-12-15T17:43:09Z</time>
      </trkpt>
      <trkpt lat="46.06474" lon="1.8319">
        <ele>618</ele>
        <time>2016-12-15T17:45:09Z</time>
      </trkpt>
      <trkpt lat="46.06472" lon="1.83189">
        <ele>619</ele>
        <time>2016-12-15T17:47:09Z</time>
      </trkpt>
      <trkpt lat="46.0647" lon="1.83185">
        <ele>620</ele>
        <time>2016-12-15T17:49:09Z</time>
      </trkpt>
      <trkpt lat="46.0647" lon="1.83183">
        <ele>620</ele>
        <time>2016-12-15T17:51:09Z</time>
      </trkpt>
      <trkpt lat="46.06469" lon="1.83178">
        <ele>621</ele>
        <time>2016-12-15T17:53:09Z</time>
      </trkpt>
      <trkpt lat="46.06469" lon="1.83174">
        <ele>621</ele>
        <time>2016-12-15T17:55:09Z</time>
      </trkpt>
      <trkpt lat="46.0647" lon="1.83168">
        <ele>622</ele>
        <time>2016-12-15T17:57:09Z</time>
      </trkpt>
      <trkpt lat="46.0647" lon="1.83166">
        <ele>622</ele>
        <time>2016-12-15T17:59:09Z</time>
      </trkpt>
      <trkpt lat="46.06471" lon="1.83161">
        <ele>622</ele>
        <time>2016-12-15T18:01:09Z</time>
      </trkpt>
      <trkpt lat="46.06471" lon="1.83157">
        <ele>622</ele>
        <time>2016-12-15T18:03:09Z</time>
      </trkpt>
      <trkpt lat="46.0647" lon="1.83155">
        <ele>622</ele>
        <time>2016-12-15T18:05:09Z</time>
      </trkpt>
      <trkpt lat="46.0647" lon="1.83151">
        <ele>622</ele>
        <time>2016-12-15T18:07:09Z</time>
      </trkpt>
      <trkpt lat="46.06469" lon="1.83142">
        <ele>623</ele>
        <time>2016-12-15T18:09:09Z</time>
      </trkpt>
      <trkpt lat="46.06469" lon="1.83131">
        <ele>623</ele>
        <time>2016-12-15T18:11:09Z</time>
      </trkpt>
      <trkpt lat="46.06468" lon="1.83126">
        <ele>624</ele>
        <time>2016-12-15T18:13:09Z</time>
      </trkpt>
      <trkpt lat="46.06467" lon="1.83121">
        <ele>624</ele>
        <time>2016-12-15T18:15:09Z</time>
      </trkpt>
      <trkpt lat="46.06468" lon="1.83116">
        <ele>624</ele>
        <time>2016-12-15T18:17:09Z</time>
      </trkpt>
      <trkpt lat="46.06468" lon="1.83113">
        <ele>624</ele>
        <time>2016-12-15T18:19:09Z</time>
      </trkpt>
      <trkpt lat="46.06468" lon="1.8311">
        <ele>624</ele>
        <time>2016-12-15T18:21:09Z</time>
      </trkpt>
      <trkpt lat="46.06468" lon="1.83108">
        <ele>624</ele>
        <time>2016-12-15T18:23:09Z</time>
      </trkpt>
      <trkpt lat="46.06469" lon="1.83106">
        <ele>624</ele>
        <time>2016-12-15T18:25:09Z</time>
      </trkpt>
      <trkpt lat="46.06468" lon="1.83101">
        <ele>624</ele>
        <time>2016-12-15T18:27:09Z</time>
      </trkpt>
      <trkpt lat="46.06468" lon="1.83099">
        <ele>625</ele>
        <time>2016-12-15T18:29:09Z</time>
      </trkpt>
      <trkpt lat="46.06468" lon="1.83097">
        <ele>625</ele>
        <time>2016-12-15T18:31:09Z</time>
      </trkpt>
      <trkpt lat="46.06467" lon="1.83093">
        <ele>625</ele>
        <time>2016-12-15T18:33:09Z</time>
      </trkpt>
      <trkpt lat="46.06463" lon="1.83086">
        <ele>626</ele>
        <time>2016-12-15T18:35:09Z</time>
      </trkpt>
      <trkpt lat="46.06462" lon="1.83084">
        <ele>627</ele>
        <time>2016-12-15T18:37:09Z</time>
      </trkpt>
      <trkpt lat="46.06461" lon="1.83082">
        <ele>627</ele>
        <time>2016-12-15T18:39:09Z</time>
      </trkpt>
      <trkpt lat="46.06461" lon="1.83083">
        <ele>627</ele>
        <time>2016-12-15T18:41:09Z</time>
      </trkpt>
      <trkpt lat="46.0646" lon="1.8308">
        <ele>627</ele>
        <time>2016-12-15T18:43:09Z</time>
      </trkpt>
      <trkpt lat="46.06458" lon="1.83077">
        <ele>627</ele>
        <time>2016-12-15T18:45:09Z</time>
      </trkpt>
      <trkpt lat="46.06457" lon="1.83074">
        <ele>627</ele>
        <time>2016-12-15T18:47:09Z</time>
      </trkpt>
      <trkpt lat="46.06455" lon="1.83072">
        <ele>627</ele>
        <time>2016-12-15T18:49:09Z</time>
      </trkpt>
      <trkpt lat="46.06454" lon="1.83071">
        <ele>628</ele>
        <time>2016-12-15T18:51:09Z</time>
      </trkpt>
      <trkpt lat="46.06453" lon="1.83069">
        <ele>628</ele>
        <time>2016-12-15T18:53:09Z</time>
      </trkpt>
      <trkpt lat="46.06451" lon="1.83066">
        <ele>628</ele>
        <time>2016-12-15T18:55:09Z</time>
      </trkpt>
      <trkpt lat="46.0645" lon="1.83064">
        <ele>628</ele>
        <time>2016-12-15T18:57:09Z</time>
      </trkpt>
      <trkpt lat="46.06447" lon="1.83062">
        <ele>629</ele>
        <time>2016-12-15T18:59:09Z</time>
      </trkpt>
      <trkpt lat="46.06446" lon="1.83061">
        <ele>629</ele>
        <time>2016-12-15T19:01:09Z</time>
      </trkpt>
      <trkpt lat="46.06445" lon="1.8306">
        <ele>629</ele>
        <time>2016-12-15T19:03:09Z</time>
      </trkpt>
      <trkpt lat="46.06443" lon="1.83059">
        <ele>629</ele>
        <time>2016-12-15T19:05:09Z</time>
      </trkpt>
      <trkpt lat="46.06442" lon="1.83058">
        <ele>630</ele>
        <time>2016-12-15T19:07:09Z</time>
      </trkpt>
      <trkpt lat="46.06441" lon="1.83058">
        <ele>630</ele>
        <time>2016-12-15T19:09:09Z</time>
      </trkpt>
      <trkpt lat="46.06438" lon="1.83056">
        <ele>630</ele>
        <time>2016-12-15T19:11:09Z</time>
      </trkpt>
      <trkpt lat="46.06436" lon="1.83054">
        <ele>631</ele>
        <time>2016-12-15T19:13:09Z</time>
      </trkpt>
      <trkpt lat="46.06434" lon="1.83052">
        <ele>631</ele>
        <time>2016-12-15T19:15:09Z</time>
      </trkpt>
      <trkpt lat="46.06433" lon="1.8305">
        <ele>631</ele>
        <time>2016-12-15T19:17:09Z</time>
      </trkpt>
      <trkpt lat="46.06432" lon="1.83049">
        <ele>631</ele>
        <time>2016-12-15T19:19:09Z</time>
      </trkpt>
      <trkpt lat="46.06431" lon="1.83048">
        <ele>631</ele>
        <time>2016-12-15T19:21:09Z</time>
      </trkpt>
      <trkpt lat="46.0643" lon="1.83046">
        <ele>632</ele>
        <time>2016-12-15T19:23:09Z</time>
      </trkpt>
      <trkpt lat="46.06425" lon="1.83041">
        <ele>632</ele>
        <time>2016-12-15T19:25:09Z</time>
      </trkpt>
      <trkpt lat="46.06424" lon="1.83039">
        <ele>632</ele>
        <time>2016-12-15T19:27:09Z</time>
      </trkpt>
      <trkpt lat="46.06422" lon="1.83038">
        <ele>633</ele>
        <time>2016-12-15T19:29:09Z</time>
      </trkpt>
      <trkpt lat="46.06418" lon="1.83035">
        <ele>634</ele>
        <time>2016-12-15T19:31:09Z</time>
      </trkpt>
      <trkpt lat="46.06417" lon="1.83035">
        <ele>634</ele>
        <time>2016-12-15T19:33:09Z</time>
      </trkpt>
      <trkpt lat="46.06414" lon="1.83032">
        <ele>634</ele>
        <time>2016-12-15T19:35:09Z</time>
      </trkpt>
      <trkpt lat="46.06413" lon="1.83031">
        <ele>634</ele>
        <time>2016-12-15T19:37:09Z</time>
      </trkpt>
      <trkpt lat="46.06409" lon="1.83025">
        <ele>635</ele>
        <time>2016-12-15T19:39:09Z</time>
      </trkpt>
      <trkpt lat="46.06408" lon="1.83024">
        <ele>635</ele>
        <time>2016-12-15T19:41:09Z</time>
      </trkpt>
      <trkpt lat="46.06404" lon="1.83018">
        <ele>635</ele>
        <time>2016-12-15T19:43:09Z</time>
      </trkpt>
      <trkpt lat="46.06401" lon="1.83015">
        <ele>636</ele>
        <time>2016-12-15T19:45:09Z</time>
      </trkpt>
      <trkpt lat="46.06399" lon="1.83011">
        <ele>636</ele>
        <time>2016-12-15T19:47:09Z</time>
      </trkpt>
      <trkpt lat="46.06397" lon="1.83006">
        <ele>636</ele>
        <time>2016-12-15T19:49:09Z</time>
      </trkpt>
      <trkpt lat="46.06396" lon="1.83004">
        <ele>636</ele>
        <time>2016-12-15T19:51:09Z</time>
      </trkpt>
      <trkpt lat="46.06391" lon="1.83001">
        <ele>637</ele>
        <time>2016-12-15T19:53:09Z</time>
      </trkpt>
      <trkpt lat="46.0639" lon="1.83">
        <ele>637</ele>
        <time>2016-12-15T19:55:09Z</time>
      </trkpt>
      <trkpt lat="46.06387" lon="1.82997">
        <ele>637</ele>
        <time>2016-12-15T19:57:09Z</time>
      </trkpt>
      <trkpt lat="46.06384" lon="1.82996">
        <ele>638</ele>
        <time>2016-12-15T19:59:09Z</time>
      </trkpt>
      <trkpt lat="46.06382" lon="1.82995">
        <ele>638</ele>
        <time>2016-12-15T20:01:09Z</time>
      </trkpt>
      <trkpt lat="46.06379" lon="1.82993">
        <ele>639</ele>
        <time>2016-12-15T20:03:09Z</time>
      </trkpt>
      <trkpt lat="46.06378" lon="1.82993">
        <ele>639</ele>
        <time>2016-12-15T20:05:09Z</time>
      </trkpt>
      <trkpt lat="46.06377" lon="1.82992">
        <ele>639</ele>
        <time>2016-12-15T20:07:09Z</time>
      </trkpt>
      <trkpt lat="46.06374" lon="1.8299">
        <ele>639</ele>
        <time>2016-12-15T20:09:09Z</time>
      </trkpt>
      <trkpt lat="46.06373" lon="1.8299">
        <ele>640</ele>
        <time>2016-12-15T20:11:09Z</time>
      </trkpt>
      <trkpt lat="46.06372" lon="1.82989">
        <ele>640</ele>
        <time>2016-12-15T20:13:09Z</time>
      </trkpt>
      <trkpt lat="46.06371" lon="1.82987">
        <ele>640</ele>
        <time>2016-12-15T20:15:09Z</time>
      </trkpt>
      <trkpt lat="46.06368" lon="1.82985">
        <ele>640</ele>
        <time>2016-12-15T20:17:09Z</time>
      </trkpt>
      <trkpt lat="46.06365" lon="1.82984">
        <ele>641</ele>
        <time>2016-12-15T20:19:09Z</time>
      </trkpt>
      <trkpt lat="46.06362" lon="1.82981">
        <ele>641</ele>
        <time>2016-12-15T20:21:09Z</time>
      </trkpt>
      <trkpt lat="46.06361" lon="1.82981">
        <ele>641</ele>
        <time>2016-12-15T20:23:09Z</time>
      </trkpt>
      <trkpt lat="46.06359" lon="1.82979">
        <ele>642</ele>
        <time>2016-12-15T20:25:09Z</time>
      </trkpt>
      <trkpt lat="46.06358" lon="1.82979">
        <ele>642</ele>
        <time>2016-12-15T20:27:09Z</time>
      </trkpt>
      <trkpt lat="46.06355" lon="1.82977">
        <ele>642</ele>
        <time>2016-12-15T20:29:09Z</time>
      </trkpt>
      <trkpt lat="46.06354" lon="1.82976">
        <ele>643</ele>
        <time>2016-12-15T20:31:09Z</time>
      </trkpt>
      <trkpt lat="46.06349" lon="1.82978">
        <ele>644</ele>
        <time>2016-12-15T20:33:09Z</time>
      </trkpt>
      <trkpt lat="46.06346" lon="1.82977">
        <ele>644</ele>
        <time>2016-12-15T20:35:09Z</time>
      </trkpt>
      <trkpt lat="46.06345" lon="1.82977">
        <ele>645</ele>
        <time>2016-12-15T20:37:09Z</time>
      </trkpt>
      <trkpt lat="46.06342" lon="1.82974">
        <ele>645</ele>
        <time>2016-12-15T20:39:09Z</time>
      </trkpt>
      <trkpt lat="46.06341" lon="1.82971">
        <ele>645</ele>
        <time>2016-12-15T20:41:09Z</time>
      </trkpt>
      <trkpt lat="46.0634" lon="1.82969">
        <ele>645</ele>
        <time>2016-12-15T20:43:09Z</time>
      </trkpt>
      <trkpt lat="46.06339" lon="1.82967">
        <ele>645</ele>
        <time>2016-12-15T20:45:09Z</time>
      </trkpt>
      <trkpt lat="46.06336" lon="1.82964">
        <ele>645</ele>
        <time>2016-12-15T20:47:09Z</time>
      </trkpt>
      <trkpt lat="46.06335" lon="1.82964">
        <ele>646</ele>
        <time>2016-12-15T20:49:09Z</time>
      </trkpt>
      <trkpt lat="46.06335" lon="1.82963">
        <ele>646</ele>
        <time>2016-12-15T20:51:09Z</time>
      </trkpt>
      <trkpt lat="46.06331" lon="1.82964">
        <ele>646</ele>
        <time>2016-12-15T20:53:09Z</time>
      </trkpt>
      <trkpt lat="46.06326" lon="1.82966">
        <ele>647</ele>
        <time>2016-12-15T20:55:09Z</time>
      </trkpt>
      <trkpt lat="46.06325" lon="1.82966">
        <ele>647</ele>
        <time>2016-12-15T20:57:09Z</time>
      </trkpt>
      <trkpt lat="46.06322" lon="1.82969">
        <ele>648</ele>
        <time>2016-12-15T20:59:09Z</time>
      </trkpt>
      <trkpt lat="46.06317" lon="1.8297">
        <ele>649</ele>
        <time>2016-12-15T21:01:09Z</time>
      </trkpt>
      <trkpt lat="46.06316" lon="1.82971">
        <ele>649</ele>
        <time>2016-12-15T21:03:09Z</time>
      </trkpt>
      <trkpt lat="46.06306" lon="1.8297">
        <ele>650</ele>
        <time>2016-12-15T21:05:09Z</time>
      </trkpt>
      <trkpt lat="46.06301" lon="1.82968">
        <ele>651</ele>
        <time>2016-12-15T21:07:09Z</time>
      </trkpt>
      <trkpt lat="46.06295" lon="1.82969">
        <ele>652</ele>
        <time>2016-12-15T21:09:09Z</time>
      </trkpt>
      <trkpt lat="46.06292" lon="1.82969">
        <ele>652</ele>
        <time>2016-12-15T21:11:09Z</time>
      </trkpt>
      <trkpt lat="46.06292" lon="1.82969">
        <ele>652</ele>
        <time>2016-12-15T21:13:09Z</time>
      </trkpt>
      <trkpt lat="46.06291" lon="1.82968">
        <ele>652</ele>
        <time>2016-12-15T21:15:09Z</time>
      </trkpt>
      <trkpt lat="46.06285" lon="1.8297">
        <ele>653</ele>
        <time>2016-12-15T21:17:09Z</time>
      </trkpt>
      <trkpt lat="46.06285" lon="1.8297">
        <ele>653</ele>
        <time>2016-12-15T21:19:09Z</time>
      </trkpt>
      <trkpt lat="46.06282" lon="1.82971">
        <ele>654</ele>
        <time>2016-12-15T21:21:09Z</time>
      </trkpt>
      <trkpt lat="46.06281" lon="1.82971">
        <ele>654</ele>
        <time>2016-12-15T21:23:09Z</time>
      </trkpt>
      <trkpt lat="46.06274" lon="1.82973">
        <ele>655</ele>
        <time>2016-12-15T21:25:09Z</time>
      </trkpt>
      <trkpt lat="46.06269" lon="1.82973">
        <ele>656</ele>
        <time>2016-12-15T21:27:09Z</time>
      </trkpt>
      <trkpt lat="46.06267" lon="1.82974">
        <ele>656</ele>
        <time>2016-12-15T21:29:09Z</time>
      </trkpt>
      <trkpt lat="46.06265" lon="1.82974">
        <ele>656</ele>
        <time>2016-12-15T21:31:09Z</time>
      </trkpt>
      <trkpt lat="46.06258" lon="1.82975">
        <ele>657</ele>
        <time>2016-12-15T21:33:09Z</time>
      </trkpt>
      <trkpt lat="46.06256" lon="1.82975">
        <ele>658</ele>
        <time>2016-12-15T21:35:09Z</time>
      </trkpt>
      <trkpt lat="46.06251" lon="1.82978">
        <ele>659</ele>
        <time>2016-12-15T21:37:09Z</time>
      </trkpt>
      <trkpt lat="46.06246" lon="1.82982">
        <ele>659</ele>
        <time>2016-12-15T21:39:09Z</time>
      </trkpt>
      <trkpt lat="46.06246" lon="1.82983">
        <ele>660</ele>
        <time>2016-12-15T21:41:09Z</time>
      </trkpt>
      <trkpt lat="46.06245" lon="1.82984">
        <ele>660</ele>
        <time>2016-12-15T21:43:09Z</time>
      </trkpt>
      <trkpt lat="46.06243" lon="1.82988">
        <ele>660</ele>
        <time>2016-12-15T21:45:09Z</time>
      </trkpt>
      <trkpt lat="46.06242" lon="1.82988">
        <ele>660</ele>
        <time>2016-12-15T21:47:09Z</time>
      </trkpt>
      <trkpt lat="46.06238" lon="1.82993">
        <ele>661</ele>
        <time>2016-12-15T21:49:09Z</time>
      </trkpt>
      <trkpt lat="46.06235" lon="1.82996">
        <ele>661</ele>
        <time>2016-12-15T21:51:09Z</time>
      </trkpt>
      <trkpt lat="46.06234" lon="1.82996">
        <ele>661</ele>
        <time>2016-12-15T21:53:09Z</time>
      </trkpt>
      <trkpt lat="46.06229" lon="1.83001">
        <ele>662</ele>
        <time>2016-12-15T21:55:09Z</time>
      </trkpt>
      <trkpt lat="46.06226" lon="1.83003">
        <ele>662</ele>
        <time>2016-12-15T21:57:09Z</time>
      </trkpt>
      <trkpt lat="46.06224" lon="1.83005">
        <ele>662</ele>
        <time>2016-12-15T21:59:09Z</time>
      </trkpt>
      <trkpt lat="46.06217" lon="1.83011">
        <ele>663</ele>
        <time>2016-12-15T22:01:09Z</time>
      </trkpt>
      <trkpt lat="46.06214" lon="1.83015">
        <ele>663</ele>
        <time>2016-12-15T22:03:09Z</time>
      </trkpt>
      <trkpt lat="46.0621" lon="1.83019">
        <ele>664</ele>
        <time>2016-12-15T22:05:09Z</time>
      </trkpt>
      <trkpt lat="46.06207" lon="1.83022">
        <ele>664</ele>
        <time>2016-12-15T22:07:09Z</time>
      </trkpt>
      <trkpt lat="46.06203" lon="1.83026">
        <ele>665</ele>
        <time>2016-12-15T22:09:09Z</time>
      </trkpt>
      <trkpt lat="46.06202" lon="1.83027">
        <ele>665</ele>
        <time>2016-12-15T22:11:09Z</time>
      </trkpt>
      <trkpt lat="46.062" lon="1.83029">
        <ele>665</ele>
        <time>2016-12-15T22:13:09Z</time>
      </trkpt>
      <trkpt lat="46.06196" lon="1.83032">
        <ele>665</ele>
        <time>2016-12-15T22:15:09Z</time>
      </trkpt>
      <trkpt lat="46.06192" lon="1.83033">
        <ele>666</ele>
        <time>2016-12-15T22:17:09Z</time>
      </trkpt>
      <trkpt lat="46.06191" lon="1.83032">
        <ele>666</ele>
        <time>2016-12-15T22:19:09Z</time>
      </trkpt>
      <trkpt lat="46.0619" lon="1.83032">
        <ele>666</ele>
        <time>2016-12-15T22:21:09Z</time>
      </trkpt>
      <trkpt lat="46.06189" lon="1.83032">
        <ele>666</ele>
        <time>2016-12-15T22:23:09Z</time>
      </trkpt>
      <trkpt lat="46.06186" lon="1.83032">
        <ele>666</ele>
        <time>2016-12-15T22:25:09Z</time>
      </trkpt>
      <trkpt lat="46.06183" lon="1.83031">
        <ele>666</ele>
        <time>2016-12-15T22:27:09Z</time>
      </trkpt>
      <trkpt lat="46.06179" lon="1.83033">
        <ele>666</ele>
        <time>2016-12-15T22:29:09Z</time>
      </trkpt>
      <trkpt lat="46.06176" lon="1.83032">
        <ele>667</ele>
        <time>2016-12-15T22:31:09Z</time>
      </trkpt>
      <trkpt lat="46.06175" lon="1.83031">
        <ele>667</ele>
        <time>2016-12-15T22:33:09Z</time>
      </trkpt>
      <trkpt lat="46.06175" lon="1.83029">
        <ele>666</ele>
        <time>2016-12-15T22:35:09Z</time>
      </trkpt>
      <trkpt lat="46.06171" lon="1.83027">
        <ele>666</ele>
        <time>2016-12-15T22:37:09Z</time>
      </trkpt>
      <trkpt lat="46.06168" lon="1.83027">
        <ele>667</ele>
        <time>2016-12-15T22:39:09Z</time>
      </trkpt>
      <trkpt lat="46.06165" lon="1.83027">
        <ele>667</ele>
        <time>2016-12-15T22:41:09Z</time>
      </trkpt>
      <trkpt lat="46.06162" lon="1.83026">
        <ele>667</ele>
        <time>2016-12-15T22:43:09Z</time>
      </trkpt>
      <trkpt lat="46.06161" lon="1.83026">
        <ele>667</ele>
        <time>2016-12-15T22:45:09Z</time>
      </trkpt>
      <trkpt lat="46.0616" lon="1.83025">
        <ele>667</ele>
        <time>2016-12-15T22:47:09Z</time>
      </trkpt>
      <trkpt lat="46.06159" lon="1.83024">
        <ele>667</ele>
        <time>2016-12-15T22:49:09Z</time>
      </trkpt>
      <trkpt lat="46.06156" lon="1.83022">
        <ele>666</ele>
        <time>2016-12-15T22:51:09Z</time>
      </trkpt>
      <trkpt lat="46.06151" lon="1.8302">
        <ele>666</ele>
        <time>2016-12-15T22:53:09Z</time>
      </trkpt>
      <trkpt lat="46.06149" lon="1.83019">
        <ele>666</ele>
        <time>2016-12-15T22:55:09Z</time>
      </trkpt>
      <trkpt lat="46.06145" lon="1.8302">
        <ele>666</ele>
        <time>2016-12-15T22:57:09Z</time>
      </trkpt>
      <trkpt lat="46.06142" lon="1.83019">
        <ele>666</ele>
        <time>2016-12-15T22:59:09Z</time>
      </trkpt>
      <trkpt lat="46.0614" lon="1.83018">
        <ele>666</ele>
        <time>2016-12-15T23:01:09Z</time>
      </trkpt>
      <trkpt lat="46.06136" lon="1.83015">
        <ele>666</ele>
        <time>2016-12-15T23:03:09Z</time>
      </trkpt>
      <trkpt lat="46.06131" lon="1.8301">
        <ele>666</ele>
        <time>2016-12-15T23:05:09Z</time>
      </trkpt>
      <trkpt lat="46.06125" lon="1.83006">
        <ele>665</ele>
        <time>2016-12-15T23:07:09Z</time>
      </trkpt>
      <trkpt lat="46.06121" lon="1.83006">
        <ele>665</ele>
        <time>2016-12-15T23:09:09Z</time>
      </trkpt>
      <trkpt lat="46.06118" lon="1.83007">
        <ele>666</ele>
        <time>2016-12-15T23:11:09Z</time>
      </trkpt>
      <trkpt lat="46.06115" lon="1.83006">
        <ele>665</ele>
        <time>2016-12-15T23:13:09Z</time>
      </trkpt>
      <trkpt lat="46.06107" lon="1.83007">
        <ele>666</ele>
        <time>2016-12-15T23:15:09Z</time>
      </trkpt>
      <trkpt lat="46.06105" lon="1.83007">
        <ele>666</ele>
        <time>2016-12-15T23:17:09Z</time>
      </trkpt>
      <trkpt lat="46.06099" lon="1.83008">
        <ele>666</ele>
        <time>2016-12-15T23:19:09Z</time>
      </trkpt>
      <trkpt lat="46.06092" lon="1.83009">
        <ele>666</ele>
        <time>2016-12-15T23:21:09Z</time>
      </trkpt>
      <trkpt lat="46.06088" lon="1.83007">
        <ele>666</ele>
        <time>2016-12-15T23:23:09Z</time>
      </trkpt>
      <trkpt lat="46.06085" lon="1.83007">
        <ele>666</ele>
        <time>2016-12-15T23:25:09Z</time>
      </trkpt>
      <trkpt lat="46.06083" lon="1.83009">
        <ele>666</ele>
        <time>2016-12-15T23:27:09Z</time>
      </trkpt>
      <trkpt lat="46.0608" lon="1.8301">
        <ele>666</ele>
        <time>2016-12-15T23:29:09Z</time>
      </trkpt>
      <trkpt lat="46.06077" lon="1.83013">
        <ele>667</ele>
        <time>2016-12-15T23:31:09Z</time>
      </trkpt>
      <trkpt lat="46.06075" lon="1.83013">
        <ele>666</ele>
        <time>2016-12-15T23:33:09Z</time>
      </trkpt>
      <trkpt lat="46.0607" lon="1.83014">
        <ele>666</ele>
        <time>2016-12-15T23:35:09Z</time>
      </trkpt>
      <trkpt lat="46.06065" lon="1.83015">
        <ele>666</ele>
        <time>2016-12-15T23:37:09Z</time>
      </trkpt>
      <trkpt lat="46.06063" lon="1.83015">
        <ele>666</ele>
        <time>2016-12-15T23:39:09Z</time>
      </trkpt>
      <trkpt lat="46.06056" lon="1.83017">
        <ele>666</ele>
        <time>2016-12-15T23:41:09Z</time>
      </trkpt>
      <trkpt lat="46.06053" lon="1.83017">
        <ele>666</ele>
        <time>2016-12-15T23:43:09Z</time>
      </trkpt>
      <trkpt lat="46.06052" lon="1.83018">
        <ele>666</ele>
        <time>2016-12-15T23:45:09Z</time>
      </trkpt>
      <trkpt lat="46.0605" lon="1.83018">
        <ele>666</ele>
        <time>2016-12-15T23:47:09Z</time>
      </trkpt>
      <trkpt lat="46.06044" lon="1.83021">
        <ele>666</ele>
        <time>2016-12-15T23:49:09Z</time>
      </trkpt>
      <trkpt lat="46.06044" lon="1.8302">
        <ele>666</ele>
        <time>2016-12-15T23:51:09Z</time>
      </trkpt>
      <trkpt lat="46.06039" lon="1.83023">
        <ele>666</ele>
        <time>2016-12-15T23:53:09Z</time>
      </trkpt>
      <trkpt lat="46.06033" lon="1.83027">
        <ele>666</ele>
        <time>2016-12-15T23:55:09Z</time>
      </trkpt>
      <trkpt lat="46.06031" lon="1.83027">
        <ele>666</ele>
        <time>2016-12-15T23:57:09Z</time>
      </trkpt>
      <trkpt lat="46.06028" lon="1.8303">
        <ele>666</ele>
        <time>2016-12-15T23:59:09Z</time>
      </trkpt>
      <trkpt lat="46.0602" lon="1.83033">
        <ele>666</ele>
        <time>2016-12-16T00:01:09Z</time>
      </trkpt>
      <trkpt lat="46.06017" lon="1.83035">
        <ele>666</ele>
        <time>2016-12-16T00:03:09Z</time>
      </trkpt>
      <trkpt lat="46.06007" lon="1.83037">
        <ele>665</ele>
        <time>2016-12-16T00:05:09Z</time>
      </trkpt>
      <trkpt lat="46.06004" lon="1.83038">
        <ele>665</ele>
        <time>2016-12-16T00:07:09Z</time>
      </trkpt>
      <trkpt lat="46.06" lon="1.8304">
        <ele>665</ele>
        <time>2016-12-16T00:09:09Z</time>
      </trkpt>
      <trkpt lat="46.05995" lon="1.83044">
        <ele>666</ele>
        <time>2016-12-16T00:11:09Z</time>
      </trkpt>
      <trkpt lat="46.05993" lon="1.83045">
        <ele>666</ele>
        <time>2016-12-16T00:13:09Z</time>
      </trkpt>
      <trkpt lat="46.0599" lon="1.83046">
        <ele>666</ele>
        <time>2016-12-16T00:15:09Z</time>
      </trkpt>
      <trkpt lat="46.05988" lon="1.83048">
        <ele>666</ele>
        <time>2016-12-16T00:17:09Z</time>
      </trkpt>
      <trkpt lat="46.05986" lon="1.83049">
        <ele>666</ele>
        <time>2016-12-16T00:19:09Z</time>
      </trkpt>
      <trkpt lat="46.05984" lon="1.83051">
        <ele>667</ele>
        <time>2016-12-16T00:21:09Z</time>
      </trkpt>
      <trkpt lat="46.05979" lon="1.83056">
        <ele>667</ele>
        <time>2016-12-16T00:23:09Z</time>
      </trkpt>
      <trkpt lat="46.05975" lon="1.83059">
        <ele>667</ele>
        <time>2016-12-16T00:25:09Z</time>
      </trkpt>
      <trkpt lat="46.05973" lon="1.83061">
        <ele>667</ele>
        <time>2016-12-16T00:27:09Z</time>
      </trkpt>
      <trkpt lat="46.05972" lon="1.83063">
        <ele>668</ele>
        <time>2016-12-16T00:29:09Z</time>
      </trkpt>
      <trkpt lat="46.0597" lon="1.83066">
        <ele>668</ele>
        <time>2016-12-16T00:31:09Z</time>
      </trkpt>
      <trkpt lat="46.05969" lon="1.83068">
        <ele>668</ele>
        <time>2016-12-16T00:33:09Z</time>
      </trkpt>
      <trkpt lat="46.05969" lon="1.8307">
        <ele>668</ele>
        <time>2016-12-16T00:35:09Z</time>
      </trkpt>
      <trkpt lat="46.05967" lon="1.83072">
        <ele>668</ele>
        <time>2016-12-16T00:37:09Z</time>
      </trkpt>
      <trkpt lat="46.05966" lon="1.83073">
        <ele>668</ele>
        <time>2016-12-16T00:39:09Z</time>
      </trkpt>
      <trkpt lat="46.05966" lon="1.83075">
        <ele>668</ele>
        <time>2016-12-16T00:41:09Z</time>
      </trkpt>
      <trkpt lat="46.05964" lon="1.83077">
        <ele>668</ele>
        <time>2016-12-16T00:43:09Z</time>
      </trkpt>
      <trkpt lat="46.05958" lon="1.83087">
        <ele>669</ele>
        <time>2016-12-16T00:45:09Z</time>
      </trkpt>
      <trkpt lat="46.05958" lon="1.83088">
        <ele>669</ele>
        <time>2016-12-16T00:47:09Z</time>
      </trkpt>
      <trkpt lat="46.05956" lon="1.83092">
        <ele>669</ele>
        <time>2016-12-16T00:49:09Z</time>
      </trkpt>
      <trkpt lat="46.05954" lon="1.83095">
        <ele>669</ele>
        <time>2016-12-16T00:51:09Z</time>
      </trkpt>
      <trkpt lat="46.0595" lon="1.831">
        <ele>669</ele>
        <time>2016-12-16T00:53:09Z</time>
      </trkpt>
      <trkpt lat="46.05949" lon="1.83102">
        <ele>669</ele>
        <time>2016-12-16T00:55:09Z</time>
      </trkpt>
      <trkpt lat="46.05948" lon="1.83104">
        <ele>669</ele>
        <time>2016-12-16T00:57:09Z</time>
      </trkpt>
      <trkpt lat="46.05945" lon="1.83107">
        <ele>669</ele>
        <time>2016-12-16T00:59:09Z</time>
      </trkpt>
      <trkpt lat="46.0594" lon="1.83112">
        <ele>669</ele>
        <time>2016-12-16T01:01:09Z</time>
      </trkpt>
      <trkpt lat="46.05934" lon="1.83123">
        <ele>668</ele>
        <time>2016-12-16T01:03:09Z</time>
      </trkpt>
      <trkpt lat="46.0593" lon="1.83132">
        <ele>668</ele>
        <time>2016-12-16T01:05:09Z</time>
      </trkpt>
      <trkpt lat="46.05929" lon="1.83136">
        <ele>668</ele>
        <time>2016-12-16T01:07:09Z</time>
      </trkpt>
      <trkpt lat="46.05926" lon="1.83141">
        <ele>668</ele>
        <time>2016-12-16T01:09:09Z</time>
      </trkpt>
      <trkpt lat="46.05924" lon="1.83143">
        <ele>668</ele>
        <time>2016-12-16T01:11:09Z</time>
      </trkpt>
      <trkpt lat="46.0592" lon="1.83151">
        <ele>668</ele>
        <time>2016-12-16T01:13:09Z</time>
      </trkpt>
      <trkpt lat="46.05914" lon="1.83157">
        <ele>667</ele>
        <time>2016-12-16T01:15:09Z</time>
      </trkpt>
      <trkpt lat="46.05911" lon="1.83159">
        <ele>667</ele>
        <time>2016-12-16T01:17:09Z</time>
      </trkpt>
      <trkpt lat="46.05909" lon="1.83162">
        <ele>667</ele>
        <time>2016-12-16T01:19:09Z</time>
      </trkpt>
      <trkpt lat="46.05906" lon="1.83168">
        <ele>666</ele>
        <time>2016-12-16T01:21:09Z</time>
      </trkpt>
      <trkpt lat="46.05903" lon="1.83172">
        <ele>666</ele>
        <time>2016-12-16T01:23:09Z</time>
      </trkpt>
      <trkpt lat="46.05902" lon="1.83174">
        <ele>666</ele>
        <time>2016-12-16T01:25:09Z</time>
      </trkpt>
      <trkpt lat="46.059" lon="1.83178">
        <ele>665</ele>
        <time>2016-12-16T01:27:09Z</time>
      </trkpt>
      <trkpt lat="46.059" lon="1.83182">
        <ele>666</ele>
        <time>2016-12-16T01:29:09Z</time>
      </trkpt>
      <trkpt lat="46.05898" lon="1.83187">
        <ele>665</ele>
        <time>2016-12-16T01:31:09Z</time>
      </trkpt>
      <trkpt lat="46.05896" lon="1.83191">
        <ele>665</ele>
        <time>2016-12-16T01:33:09Z</time>
      </trkpt>
      <trkpt lat="46.05894" lon="1.83195">
        <ele>665</ele>
        <time>2016-12-16T01:35:09Z</time>
      </trkpt>
      <trkpt lat="46.05892" lon="1.83199">
        <ele>664</ele>
        <time>2016-12-16T01:37:09Z</time>
      </trkpt>
      <trkpt lat="46.05891" lon="1.83204">
        <ele>664</ele>
        <time>2016-12-16T01:39:09Z</time>
      </trkpt>
      <trkpt lat="46.0589" lon="1.83209">
        <ele>664</ele>
        <time>2016-12-16T01:41:09Z</time>
      </trkpt>
      <trkpt lat="46.0589" lon="1.83212">
        <ele>664</ele>
        <time>2016-12-16T01:43:09Z</time>
      </trkpt>
      <trkpt lat="46.05889" lon="1.83216">
        <ele>664</ele>
        <time>2016-12-16T01:45:09Z</time>
      </trkpt>
      <trkpt lat="46.05888" lon="1.83225">
        <ele>664</ele>
        <time>2016-12-16T01:47:09Z</time>
      </trkpt>
      <trkpt lat="46.05885" lon="1.83233">
        <ele>663</ele>
        <time>2016-12-16T01:49:09Z</time>
      </trkpt>
      <trkpt lat="46.05884" lon="1.83237">
        <ele>663</ele>
        <time>2016-12-16T01:51:09Z</time>
      </trkpt>
      <trkpt lat="46.05882" lon="1.83244">
        <ele>663</ele>
        <time>2016-12-16T01:53:09Z</time>
      </trkpt>
      <trkpt lat="46.05882" lon="1.83248">
        <ele>663</ele>
        <time>2016-12-16T01:55:09Z</time>
      </trkpt>
      <trkpt lat="46.0588" lon="1.83256">
        <ele>662</ele>
        <time>2016-12-16T01:57:09Z</time>
      </trkpt>
      <trkpt lat="46.05879" lon="1.8326">
        <ele>662</ele>
        <time>2016-12-16T01:59:09Z</time>
      </trkpt>
      <trkpt lat="46.05878" lon="1.83264">
        <ele>662</ele>
        <time>2016-12-16T02:01:09Z</time>
      </trkpt>
      <trkpt lat="46.05878" lon="1.83268">
        <ele>662</ele>
        <time>2016-12-16T02:03:09Z</time>
      </trkpt>
      <trkpt lat="46.05878" lon="1.83272">
        <ele>662</ele>
        <time>2016-12-16T02:05:09Z</time>
      </trkpt>
      <trkpt lat="46.05878" lon="1.83276">
        <ele>662</ele>
        <time>2016-12-16T02:07:09Z</time>
      </trkpt>
      <trkpt lat="46.05878" lon="1.8328">
        <ele>662</ele>
        <time>2016-12-16T02:09:09Z</time>
      </trkpt>
      <trkpt lat="46.05878" lon="1.83284">
        <ele>662</ele>
        <time>2016-12-16T02:11:09Z</time>
      </trkpt>
      <trkpt lat="46.05878" lon="1.83289">
        <ele>661</ele>
        <time>2016-12-16T02:13:09Z</time>
      </trkpt>
      <trkpt lat="46.05877" lon="1.83293">
        <ele>661</ele>
        <time>2016-12-16T02:15:09Z</time>
      </trkpt>
      <trkpt lat="46.05876" lon="1.83297">
        <ele>661</ele>
        <time>2016-12-16T02:17:09Z</time>
      </trkpt>
      <trkpt lat="46.05876" lon="1.83304">
        <ele>661</ele>
        <time>2016-12-16T02:19:09Z</time>
      </trkpt>
      <trkpt lat="46.05875" lon="1.83308">
        <ele>661</ele>
        <time>2016-12-16T02:21:09Z</time>
      </trkpt>
      <trkpt lat="46.05872" lon="1.83316">
        <ele>660</ele>
        <time>2016-12-16T02:23:09Z</time>
      </trkpt>
      <trkpt lat="46.0587" lon="1.83324">
        <ele>660</ele>
        <time>2016-12-16T02:25:09Z</time>
      </trkpt>
      <trkpt lat="46.05869" lon="1.83328">
        <ele>660</ele>
        <time>2016-12-16T02:27:09Z</time>
      </trkpt>
      <trkpt lat="46.05865" lon="1.83337">
        <ele>659</ele>
        <time>2016-12-16T02:29:09Z</time>
      </trkpt>
      <trkpt lat="46.05863" lon="1.83343">
        <ele>659</ele>
        <time>2016-12-16T02:31:09Z</time>
      </trkpt>
      <trkpt lat="46.05863" lon="1.83348">
        <ele>659</ele>
        <time>2016-12-16T02:33:09Z</time>
      </trkpt>
      <trkpt lat="46.05863" lon="1.83359">
        <ele>659</ele>
        <time>2016-12-16T02:35:09Z</time>
      </trkpt>
      <trkpt lat="46.05862" lon="1.83365">
        <ele>659</ele>
        <time>2016-12-16T02:37:09Z</time>
      </trkpt>
      <trkpt lat="46.0586" lon="1.83369">
        <ele>659</ele>
        <time>2016-12-16T02:39:09Z</time>
      </trkpt>
      <trkpt lat="46.0586" lon="1.83374">
        <ele>659</ele>
        <time>2016-12-16T02:41:09Z</time>
      </trkpt>
      <trkpt lat="46.05858" lon="1.83391">
        <ele>660</ele>
        <time>2016-12-16T02:43:09Z</time>
      </trkpt>
      <trkpt lat="46.05858" lon="1.83398">
        <ele>660</ele>
        <time>2016-12-16T02:45:09Z</time>
      </trkpt>
      <trkpt lat="46.05857" lon="1.83404">
        <ele>660</ele>
        <time>2016-12-16T02:47:09Z</time>
      </trkpt>
      <trkpt lat="46.05858" lon="1.83407">
        <ele>660</ele>
        <time>2016-12-16T02:49:09Z</time>
      </trkpt>
      <trkpt lat="46.05859" lon="1.83416">
        <ele>660</ele>
        <time>2016-12-16T02:51:09Z</time>
      </trkpt>
      <trkpt lat="46.05859" lon="1.8342">
        <ele>660</ele>
        <time>2016-12-16T02:53:09Z</time>
      </trkpt>
      <trkpt lat="46.05861" lon="1.83423">
        <ele>660</ele>
        <time>2016-12-16T02:55:09Z</time>
      </trkpt>
      <trkpt lat="46.05863" lon="1.83427">
        <ele>659</ele>
        <time>2016-12-16T02:57:09Z</time>
      </trkpt>
      <trkpt lat="46.05864" lon="1.83431">
        <ele>659</ele>
        <time>2016-12-16T02:59:09Z</time>
      </trkpt>
      <trkpt lat="46.05865" lon="1.83436">
        <ele>659</ele>
        <time>2016-12-16T03:01:09Z</time>
      </trkpt>
      <trkpt lat="46.05866" lon="1.8344">
        <ele>659</ele>
        <time>2016-12-16T03:03:09Z</time>
      </trkpt>
      <trkpt lat="46.05867" lon="1.83445">
        <ele>658</ele>
        <time>2016-12-16T03:05:09Z</time>
      </trkpt>
      <trkpt lat="46.05868" lon="1.83448">
        <ele>658</ele>
        <time>2016-12-16T03:07:09Z</time>
      </trkpt>
      <trkpt lat="46.0587" lon="1.83453">
        <ele>658</ele>
        <time>2016-12-16T03:09:09Z</time>
      </trkpt>
      <trkpt lat="46.05871" lon="1.83457">
        <ele>657</ele>
        <time>2016-12-16T03:11:09Z</time>
      </trkpt>
      <trkpt lat="46.05873" lon="1.83465">
        <ele>657</ele>
        <time>2016-12-16T03:13:09Z</time>
      </trkpt>
      <trkpt lat="46.05873" lon="1.8347">
        <ele>656</ele>
        <time>2016-12-16T03:15:09Z</time>
      </trkpt>
      <trkpt lat="46.05874" lon="1.83474">
        <ele>656</ele>
        <time>2016-12-16T03:17:09Z</time>
      </trkpt>
      <trkpt lat="46.05874" lon="1.83483">
        <ele>655</ele>
        <time>2016-12-16T03:19:09Z</time>
      </trkpt>
      <trkpt lat="46.05875" lon="1.83491">
        <ele>655</ele>
        <time>2016-12-16T03:21:09Z</time>
      </trkpt>
      <trkpt lat="46.05876" lon="1.83499">
        <ele>654</ele>
        <time>2016-12-16T03:23:09Z</time>
      </trkpt>
      <trkpt lat="46.05876" lon="1.83503">
        <ele>654</ele>
        <time>2016-12-16T03:25:09Z</time>
      </trkpt>
      <trkpt lat="46.05875" lon="1.83515">
        <ele>653</ele>
        <time>2016-12-16T03:27:09Z</time>
      </trkpt>
      <trkpt lat="46.05875" lon="1.8353">
        <ele>652</ele>
        <time>2016-12-16T03:29:09Z</time>
      </trkpt>
      <trkpt lat="46.05875" lon="1.83534">
        <ele>652</ele>
        <time>2016-12-16T03:31:09Z</time>
      </trkpt>
      <trkpt lat="46.05874" lon="1.83547">
        <ele>652</ele>
        <time>2016-12-16T03:33:09Z</time>
      </trkpt>
      <trkpt lat="46.05874" lon="1.83551">
        <ele>651</ele>
        <time>2016-12-16T03:35:09Z</time>
      </trkpt>
      <trkpt lat="46.05874" lon="1.83555">
        <ele>651</ele>
        <time>2016-12-16T03:37:09Z</time>
      </trkpt>
      <trkpt lat="46.05874" lon="1.83559">
        <ele>651</ele>
        <time>2016-12-16T03:39:09Z</time>
      </trkpt>
      <trkpt lat="46.05873" lon="1.83562">
        <ele>651</ele>
        <time>2016-12-16T03:41:09Z</time>
      </trkpt>
      <trkpt lat="46.05873" lon="1.83566">
        <ele>651</ele>
        <time>2016-12-16T03:43:09Z</time>
      </trkpt>
      <trkpt lat="46.05873" lon="1.8357">
        <ele>650</ele>
        <time>2016-12-16T03:45:09Z</time>
      </trkpt>
      <trkpt lat="46.05872" lon="1.83574">
        <ele>650</ele>
        <time>2016-12-16T03:47:09Z</time>
      </trkpt>
      <trkpt lat="46.05872" lon="1.83577">
        <ele>650</ele>
        <time>2016-12-16T03:49:09Z</time>
      </trkpt>
      <trkpt lat="46.05872" lon="1.83588">
        <ele>650</ele>
        <time>2016-12-16T03:51:09Z</time>
      </trkpt>
      <trkpt lat="46.05874" lon="1.83592">
        <ele>649</ele>
        <time>2016-12-16T03:53:09Z</time>
      </trkpt>
      <trkpt lat="46.05874" lon="1.83598">
        <ele>649</ele>
        <time>2016-12-16T03:55:09Z</time>
      </trkpt>
      <trkpt lat="46.05874" lon="1.83602">
        <ele>649</ele>
        <time>2016-12-16T03:57:09Z</time>
      </trkpt>
      <trkpt lat="46.05872" lon="1.83613">
        <ele>649</ele>
        <time>2016-12-16T03:59:09Z</time>
      </trkpt>
      <trkpt lat="46.05873" lon="1.8362">
        <ele>649</ele>
        <time>2016-12-16T04:01:09Z</time>
      </trkpt>
      <trkpt lat="46.05873" lon="1.83624">
        <ele>649</ele>
        <time>2016-12-16T04:03:09Z</time>
      </trkpt>
      <trkpt lat="46.05873" lon="1.83628">
        <ele>649</ele>
        <time>2016-12-16T04:05:09Z</time>
      </trkpt>
      <trkpt lat="46.05873" lon="1.83631">
        <ele>648</ele>
        <time>2016-12-16T04:07:09Z</time>
      </trkpt>
      <trkpt lat="46.05874" lon="1.83634">
        <ele>648</ele>
        <time>2016-12-16T04:09:09Z</time>
      </trkpt>
      <trkpt lat="46.05875" lon="1.83638">
        <ele>648</ele>
        <time>2016-12-16T04:11:09Z</time>
      </trkpt>
      <trkpt lat="46.05875" lon="1.83642">
        <ele>648</ele>
        <time>2016-12-16T04:13:09Z</time>
      </trkpt>
      <trkpt lat="46.05876" lon="1.8365">
        <ele>648</ele>
        <time>2016-12-16T04:15:09Z</time>
      </trkpt>
      <trkpt lat="46.05877" lon="1.83652">
        <ele>648</ele>
        <time>2016-12-16T04:17:09Z</time>
      </trkpt>
      <trkpt lat="46.05877" lon="1.83656">
        <ele>648</ele>
        <time>2016-12-16T04:19:09Z</time>
      </trkpt>
      <trkpt lat="46.05877" lon="1.8366">
        <ele>648</ele>
        <time>2016-12-16T04:21:09Z</time>
      </trkpt>
      <trkpt lat="46.05879" lon="1.83667">
        <ele>647</ele>
        <time>2016-12-16T04:23:09Z</time>
      </trkpt>
      <trkpt lat="46.05879" lon="1.8367">
        <ele>647</ele>
        <time>2016-12-16T04:25:09Z</time>
      </trkpt>
      <trkpt lat="46.05879" lon="1.83676">
        <ele>647</ele>
        <time>2016-12-16T04:27:09Z</time>
      </trkpt>
      <trkpt lat="46.0588" lon="1.83679">
        <ele>647</ele>
        <time>2016-12-16T04:29:09Z</time>
      </trkpt>
      <trkpt lat="46.0588" lon="1.83683">
        <ele>647</ele>
        <time>2016-12-16T04:31:09Z</time>
      </trkpt>
      <trkpt lat="46.05882" lon="1.8369">
        <ele>647</ele>
        <time>2016-12-16T04:33:09Z</time>
      </trkpt>
      <trkpt lat="46.05881" lon="1.83694">
        <ele>647</ele>
        <time>2016-12-16T04:35:09Z</time>
      </trkpt>
      <trkpt lat="46.05883" lon="1.83701">
        <ele>647</ele>
        <time>2016-12-16T04:37:09Z</time>
      </trkpt>
      <trkpt lat="46.05884" lon="1.83705">
        <ele>647</ele>
        <time>2016-12-16T04:39:09Z</time>
      </trkpt>
      <trkpt lat="46.05884" lon="1.83708">
        <ele>647</ele>
        <time>2016-12-16T04:41:09Z</time>
      </trkpt>
      <trkpt lat="46.05886" lon="1.83715">
        <ele>647</ele>
        <time>2016-12-16T04:43:09Z</time>
      </trkpt>
      <trkpt lat="46.05887" lon="1.83722">
        <ele>647</ele>
        <time>2016-12-16T04:45:09Z</time>
      </trkpt>
      <trkpt lat="46.0589" lon="1.83732">
        <ele>647</ele>
        <time>2016-12-16T04:47:09Z</time>
      </trkpt>
      <trkpt lat="46.05892" lon="1.83737">
        <ele>646</ele>
        <time>2016-12-16T04:49:09Z</time>
      </trkpt>
      <trkpt lat="46.05895" lon="1.83744">
        <ele>646</ele>
        <time>2016-12-16T04:51:09Z</time>
      </trkpt>
      <trkpt lat="46.05899" lon="1.8375">
        <ele>646</ele>
        <time>2016-12-16T04:53:09Z</time>
      </trkpt>
      <trkpt lat="46.05903" lon="1.83755">
        <ele>645</ele>
        <time>2016-12-16T04:55:09Z</time>
      </trkpt>
      <trkpt lat="46.05908" lon="1.8376">
        <ele>645</ele>
        <time>2016-12-16T04:57:09Z</time>
      </trkpt>
      <trkpt lat="46.05913" lon="1.83764">
        <ele>645</ele>
        <time>2016-12-16T04:59:09Z</time>
      </trkpt>
      <trkpt lat="46.05917" lon="1.83769">
        <ele>644</ele>
        <time>2016-12-16T05:01:09Z</time>
      </trkpt>
      <trkpt lat="46.0592" lon="1.83771">
        <ele>644</ele>
        <time>2016-12-16T05:03:09Z</time>
      </trkpt>
      <trkpt lat="46.05922" lon="1.83774">
        <ele>644</ele>
        <time>2016-12-16T05:05:09Z</time>
      </trkpt>
      <trkpt lat="46.05925" lon="1.83775">
        <ele>644</ele>
        <time>2016-12-16T05:07:09Z</time>
      </trkpt>
      <trkpt lat="46.05927" lon="1.83778">
        <ele>644</ele>
        <time>2016-12-16T05:09:09Z</time>
      </trkpt>
      <trkpt lat="46.0593" lon="1.8378">
        <ele>643</ele>
        <time>2016-12-16T05:11:09Z</time>
      </trkpt>
      <trkpt lat="46.05939" lon="1.83789">
        <ele>642</ele>
        <time>2016-12-16T05:13:09Z</time>
      </trkpt>
      <trkpt lat="46.05941" lon="1.83792">
        <ele>642</ele>
        <time>2016-12-16T05:15:09Z</time>
      </trkpt>
      <trkpt lat="46.05943" lon="1.83795">
        <ele>642</ele>
        <time>2016-12-16T05:17:09Z</time>
      </trkpt>
      <trkpt lat="46.05948" lon="1.83801">
        <ele>642</ele>
        <time>2016-12-16T05:19:09Z</time>
      </trkpt>
      <trkpt lat="46.0595" lon="1.83805">
        <ele>641</ele>
        <time>2016-12-16T05:21:09Z</time>
      </trkpt>
      <trkpt lat="46.05953" lon="1.83812">
        <ele>641</ele>
        <time>2016-12-16T05:23:09Z</time>
      </trkpt>
      <trkpt lat="46.05954" lon="1.83816">
        <ele>641</ele>
        <time>2016-12-16T05:25:09Z</time>
      </trkpt>
      <trkpt lat="46.05955" lon="1.83821">
        <ele>641</ele>
        <time>2016-12-16T05:27:09Z</time>
      </trkpt>
      <trkpt lat="46.05956" lon="1.83825">
        <ele>641</ele>
        <time>2016-12-16T05:29:09Z</time>
      </trkpt>
      <trkpt lat="46.05957" lon="1.83837">
        <ele>641</ele>
        <time>2016-12-16T05:31:09Z</time>
      </trkpt>
      <trkpt lat="46.05957" lon="1.83842">
        <ele>641</ele>
        <time>2016-12-16T05:33:09Z</time>
      </trkpt>
      <trkpt lat="46.05956" lon="1.83847">
        <ele>641</ele>
        <time>2016-12-16T05:35:09Z</time>
      </trkpt>
      <trkpt lat="46.05955" lon="1.83851">
        <ele>641</ele>
        <time>2016-12-16T05:37:09Z</time>
      </trkpt>
      <trkpt lat="46.05955" lon="1.83859">
        <ele>641</ele>
        <time>2016-12-16T05:39:09Z</time>
      </trkpt>
      <trkpt lat="46.05954" lon="1.83863">
        <ele>641</ele>
        <time>2016-12-16T05:41:09Z</time>
      </trkpt>
      <trkpt lat="46.05954" lon="1.83872">
        <ele>642</ele>
        <time>2016-12-16T05:43:09Z</time>
      </trkpt>
      <trkpt lat="46.05953" lon="1.83876">
        <ele>642</ele>
        <time>2016-12-16T05:45:09Z</time>
      </trkpt>
      <trkpt lat="46.05953" lon="1.8388">
        <ele>642</ele>
        <time>2016-12-16T05:47:09Z</time>
      </trkpt>
      <trkpt lat="46.05952" lon="1.83885">
        <ele>642</ele>
        <time>2016-12-16T05:49:09Z</time>
      </trkpt>
      <trkpt lat="46.05952" lon="1.83893">
        <ele>642</ele>
        <time>2016-12-16T05:51:09Z</time>
      </trkpt>
      <trkpt lat="46.05952" lon="1.83897">
        <ele>642</ele>
        <time>2016-12-16T05:53:09Z</time>
      </trkpt>
      <trkpt lat="46.05953" lon="1.83901">
        <ele>642</ele>
        <time>2016-12-16T05:55:09Z</time>
      </trkpt>
      <trkpt lat="46.05952" lon="1.83905">
        <ele>642</ele>
        <time>2016-12-16T05:57:09Z</time>
      </trkpt>
      <trkpt lat="46.05953" lon="1.8391">
        <ele>642</ele>
        <time>2016-12-16T05:59:09Z</time>
      </trkpt>
      <trkpt lat="46.05954" lon="1.83914">
        <ele>642</ele>
        <time>2016-12-16T06:01:09Z</time>
      </trkpt>
      <trkpt lat="46.05955" lon="1.83921">
        <ele>642</ele>
        <time>2016-12-16T06:03:09Z</time>
      </trkpt>
      <trkpt lat="46.05957" lon="1.83926">
        <ele>641</ele>
        <time>2016-12-16T06:05:09Z</time>
      </trkpt>
      <trkpt lat="46.05957" lon="1.8393">
        <ele>641</ele>
        <time>2016-12-16T06:07:09Z</time>
      </trkpt>
      <trkpt lat="46.05959" lon="1.83934">
        <ele>641</ele>
        <time>2016-12-16T06:09:09Z</time>
      </trkpt>
      <trkpt lat="46.05961" lon="1.83943">
        <ele>640</ele>
        <time>2016-12-16T06:11:09Z</time>
      </trkpt>
      <trkpt lat="46.05962" lon="1.83947">
        <ele>640</ele>
        <time>2016-12-16T06:13:09Z</time>
      </trkpt>
      <trkpt lat="46.05964" lon="1.83952">
        <ele>639</ele>
        <time>2016-12-16T06:15:09Z</time>
      </trkpt>
      <trkpt lat="46.05965" lon="1.8396">
        <ele>639</ele>
        <time>2016-12-16T06:17:09Z</time>
      </trkpt>
      <trkpt lat="46.05965" lon="1.83973">
        <ele>638</ele>
        <time>2016-12-16T06:19:09Z</time>
      </trkpt>
      <trkpt lat="46.05966" lon="1.83976">
        <ele>638</ele>
        <time>2016-12-16T06:21:09Z</time>
      </trkpt>
      <trkpt lat="46.05965" lon="1.8398">
        <ele>638</ele>
        <time>2016-12-16T06:23:09Z</time>
      </trkpt>
      <trkpt lat="46.05964" lon="1.83985">
        <ele>638</ele>
        <time>2016-12-16T06:25:09Z</time>
      </trkpt>
      <trkpt lat="46.05964" lon="1.83989">
        <ele>638</ele>
        <time>2016-12-16T06:27:09Z</time>
      </trkpt>
      <trkpt lat="46.05963" lon="1.83993">
        <ele>638</ele>
        <time>2016-12-16T06:29:09Z</time>
      </trkpt>
      <trkpt lat="46.05963" lon="1.83997">
        <ele>638</ele>
        <time>2016-12-16T06:31:09Z</time>
      </trkpt>
      <trkpt lat="46.05962" lon="1.84001">
        <ele>638</ele>
        <time>2016-12-16T06:33:09Z</time>
      </trkpt>
      <trkpt lat="46.05961" lon="1.84005">
        <ele>638</ele>
        <time>2016-12-16T06:35:09Z</time>
      </trkpt>
      <trkpt lat="46.0596" lon="1.8401">
        <ele>637</ele>
        <time>2016-12-16T06:37:09Z</time>
      </trkpt>
      <trkpt lat="46.05959" lon="1.84013">
        <ele>637</ele>
        <time>2016-12-16T06:39:09Z</time>
      </trkpt>
      <trkpt lat="46.05955" lon="1.84022">
        <ele>636</ele>
        <time>2016-12-16T06:41:09Z</time>
      </trkpt>
      <trkpt lat="46.05953" lon="1.84024">
        <ele>637</ele>
        <time>2016-12-16T06:43:09Z</time>
      </trkpt>
      <trkpt lat="46.05948" lon="1.84033">
        <ele>637</ele>
        <time>2016-12-16T06:45:09Z</time>
      </trkpt>
      <trkpt lat="46.05946" lon="1.84035">
        <ele>637</ele>
        <time>2016-12-16T06:47:09Z</time>
      </trkpt>
      <trkpt lat="46.05944" lon="1.84038">
        <ele>637</ele>
        <time>2016-12-16T06:49:09Z</time>
      </trkpt>
      <trkpt lat="46.05942" lon="1.84042">
        <ele>637</ele>
        <time>2016-12-16T06:51:09Z</time>
      </trkpt>
      <trkpt lat="46.05935" lon="1.84055">
        <ele>637</ele>
        <time>2016-12-16T06:53:09Z</time>
      </trkpt>
      <trkpt lat="46.05933" lon="1.84059">
        <ele>637</ele>
        <time>2016-12-16T06:55:09Z</time>
      </trkpt>
      <trkpt lat="46.05933" lon="1.84062">
        <ele>636</ele>
        <time>2016-12-16T06:57:09Z</time>
      </trkpt>
      <trkpt lat="46.05932" lon="1.84065">
        <ele>636</ele>
        <time>2016-12-16T06:59:09Z</time>
      </trkpt>
      <trkpt lat="46.05929" lon="1.8407">
        <ele>636</ele>
        <time>2016-12-16T07:01:09Z</time>
      </trkpt>
      <trkpt lat="46.05926" lon="1.84074">
        <ele>637</ele>
        <time>2016-12-16T07:03:09Z</time>
      </trkpt>
      <trkpt lat="46.05926" lon="1.84074">
        <ele>637</ele>
        <time>2016-12-16T07:05:09Z</time>
      </trkpt>
      <trkpt lat="46.05926" lon="1.84073">
        <ele>637</ele>
        <time>2016-12-16T07:07:09Z</time>
      </trkpt>
      <trkpt lat="46.05927" lon="1.84072">
        <ele>637</ele>
        <time>2016-12-16T07:09:09Z</time>
      </trkpt>
      <trkpt lat="46.05928" lon="1.84073">
        <ele>636</ele>
        <time>2016-12-16T07:11:09Z</time>
      </trkpt>
      <trkpt lat="46.05927" lon="1.84074">
        <ele>636</ele>
        <time>2016-12-16T07:13:09Z</time>
      </trkpt>
      <trkpt lat="46.05926" lon="1.84073">
        <ele>637</ele>
        <time>2016-12-16T07:15:09Z</time>
      </trkpt>
      <trkpt lat="46.05924" lon="1.84075">
        <ele>637</ele>
        <time>2016-12-16T07:17:09Z</time>
      </trkpt>
      <trkpt lat="46.05924" lon="1.84075">
        <ele>637</ele>
        <time>2016-12-16T07:19:09Z</time>
      </trkpt>
      <trkpt lat="46.05925" lon="1.84076">
        <ele>637</ele>
        <time>2016-12-16T07:21:09Z</time>
      </trkpt>
      <trkpt lat="46.05924" lon="1.84075">
        <ele>637</ele>
        <time>2016-12-16T07:23:09Z</time>
      </trkpt>
      <trkpt lat="46.05924" lon="1.84076">
        <ele>637</ele>
        <time>2016-12-16T07:25:09Z</time>
      </trkpt>
      <trkpt lat="46.05924" lon="1.84076">
        <ele>637</ele>
        <time>2016-12-16T07:27:09Z</time>
      </trkpt>
      <trkpt lat="46.05921" lon="1.84081">
        <ele>637</ele>
        <time>2016-12-16T07:29:09Z</time>
      </trkpt>
      <trkpt lat="46.0592" lon="1.84082">
        <ele>637</ele>
        <time>2016-12-16T07:31:09Z</time>
      </trkpt>
      <trkpt lat="46.05919" lon="1.84084">
        <ele>637</ele>
        <time>2016-12-16T07:33:09Z</time>
      </trkpt>
      <trkpt lat="46.05917" lon="1.84085">
        <ele>638</ele>
        <time>2016-12-16T07:35:09Z</time>
      </trkpt>
      <trkpt lat="46.05915" lon="1.84088">
        <ele>637</ele>
        <time>2016-12-16T07:37:09Z</time>
      </trkpt>
      <trkpt lat="46.05909" lon="1.84091">
        <ele>637</ele>
        <time>2016-12-16T07:39:09Z</time>
      </trkpt>
      <trkpt lat="46.05906" lon="1.84093">
        <ele>637</ele>
        <time>2016-12-16T07:41:09Z</time>
      </trkpt>
      <trkpt lat="46.05904" lon="1.84095">
        <ele>636</ele>
        <time>2016-12-16T07:43:09Z</time>
      </trkpt>
      <trkpt lat="46.05897" lon="1.84102">
        <ele>636</ele>
        <time>2016-12-16T07:45:09Z</time>
      </trkpt>
      <trkpt lat="46.05894" lon="1.84106">
        <ele>635</ele>
        <time>2016-12-16T07:47:09Z</time>
      </trkpt>
      <trkpt lat="46.05889" lon="1.84109">
        <ele>635</ele>
        <time>2016-12-16T07:49:09Z</time>
      </trkpt>
      <trkpt lat="46.05886" lon="1.84112">
        <ele>634</ele>
        <time>2016-12-16T07:51:09Z</time>
      </trkpt>
      <trkpt lat="46.05884" lon="1.84114">
        <ele>634</ele>
        <time>2016-12-16T07:53:09Z</time>
      </trkpt>
      <trkpt lat="46.05881" lon="1.84116">
        <ele>634</ele>
        <time>2016-12-16T07:55:09Z</time>
      </trkpt>
      <trkpt lat="46.05879" lon="1.84119">
        <ele>633</ele>
        <time>2016-12-16T07:57:09Z</time>
      </trkpt>
      <trkpt lat="46.05874" lon="1.84123">
        <ele>633</ele>
        <time>2016-12-16T07:59:09Z</time>
      </trkpt>
      <trkpt lat="46.05872" lon="1.84125">
        <ele>633</ele>
        <time>2016-12-16T08:01:09Z</time>
      </trkpt>
      <trkpt lat="46.05869" lon="1.84127">
        <ele>633</ele>
        <time>2016-12-16T08:03:09Z</time>
      </trkpt>
      <trkpt lat="46.05867" lon="1.84129">
        <ele>632</ele>
        <time>2016-12-16T08:05:09Z</time>
      </trkpt>
      <trkpt lat="46.0586" lon="1.84134">
        <ele>632</ele>
        <time>2016-12-16T08:07:09Z</time>
      </trkpt>
      <trkpt lat="46.05855" lon="1.84138">
        <ele>632</ele>
        <time>2016-12-16T08:09:09Z</time>
      </trkpt>
      <trkpt lat="46.0585" lon="1.84142">
        <ele>631</ele>
        <time>2016-12-16T08:11:09Z</time>
      </trkpt>
      <trkpt lat="46.05845" lon="1.84146">
        <ele>631</ele>
        <time>2016-12-16T08:13:09Z</time>
      </trkpt>
      <trkpt lat="46.05843" lon="1.84147">
        <ele>631</ele>
        <time>2016-12-16T08:15:09Z</time>
      </trkpt>
      <trkpt lat="46.05838" lon="1.8415">
        <ele>631</ele>
        <time>2016-12-16T08:17:09Z</time>
      </trkpt>
      <trkpt lat="46.05837" lon="1.84151">
        <ele>631</ele>
        <time>2016-12-16T08:19:09Z</time>
      </trkpt>
      <trkpt lat="46.05829" lon="1.84154">
        <ele>631</ele>
        <time>2016-12-16T08:21:09Z</time>
      </trkpt>
      <trkpt lat="46.05825" lon="1.84155">
        <ele>630</ele>
        <time>2016-12-16T08:23:09Z</time>
      </trkpt>
      <trkpt lat="46.05822" lon="1.84155">
        <ele>630</ele>
        <time>2016-12-16T08:25:09Z</time>
      </trkpt>
      <trkpt lat="46.05818" lon="1.84156">
        <ele>630</ele>
        <time>2016-12-16T08:27:09Z</time>
      </trkpt>
      <trkpt lat="46.05816" lon="1.84155">
        <ele>630</ele>
        <time>2016-12-16T08:29:09Z</time>
      </trkpt>
      <trkpt lat="46.05809" lon="1.84156">
        <ele>629</ele>
        <time>2016-12-16T08:31:09Z</time>
      </trkpt>
      <trkpt lat="46.05803" lon="1.84155">
        <ele>629</ele>
        <time>2016-12-16T08:33:09Z</time>
      </trkpt>
      <trkpt lat="46.05793" lon="1.84158">
        <ele>628</ele>
        <time>2016-12-16T08:35:09Z</time>
      </trkpt>
      <trkpt lat="46.05783" lon="1.84162">
        <ele>627</ele>
        <time>2016-12-16T08:37:09Z</time>
      </trkpt>
      <trkpt lat="46.05777" lon="1.84166">
        <ele>626</ele>
        <time>2016-12-16T08:39:09Z</time>
      </trkpt>
      <trkpt lat="46.05771" lon="1.84171">
        <ele>625</ele>
        <time>2016-12-16T08:41:09Z</time>
      </trkpt>
      <trkpt lat="46.05766" lon="1.84176">
        <ele>625</ele>
        <time>2016-12-16T08:43:09Z</time>
      </trkpt>
      <trkpt lat="46.05764" lon="1.8418">
        <ele>624</ele>
        <time>2016-12-16T08:45:09Z</time>
      </trkpt>
      <trkpt lat="46.05762" lon="1.84183">
        <ele>624</ele>
        <time>2016-12-16T08:47:09Z</time>
      </trkpt>
      <trkpt lat="46.05758" lon="1.8419">
        <ele>623</ele>
        <time>2016-12-16T08:49:09Z</time>
      </trkpt>
      <trkpt lat="46.05753" lon="1.84202">
        <ele>622</ele>
        <time>2016-12-16T08:51:09Z</time>
      </trkpt>
      <trkpt lat="46.05752" lon="1.84206">
        <ele>622</ele>
        <time>2016-12-16T08:53:09Z</time>
      </trkpt>
      <trkpt lat="46.05751" lon="1.84209">
        <ele>622</ele>
        <time>2016-12-16T08:55:09Z</time>
      </trkpt>
      <trkpt lat="46.05748" lon="1.84217">
        <ele>621</ele>
        <time>2016-12-16T08:57:09Z</time>
      </trkpt>
      <trkpt lat="46.05748" lon="1.84221">
        <ele>621</ele>
        <time>2016-12-16T08:59:09Z</time>
      </trkpt>
      <trkpt lat="46.05747" lon="1.84225">
        <ele>621</ele>
        <time>2016-12-16T09:01:09Z</time>
      </trkpt>
      <trkpt lat="46.05747" lon="1.84232">
        <ele>620</ele>
        <time>2016-12-16T09:03:09Z</time>
      </trkpt>
      <trkpt lat="46.05745" lon="1.84241">
        <ele>620</ele>
        <time>2016-12-16T09:05:09Z</time>
      </trkpt>
      <trkpt lat="46.05744" lon="1.84251">
        <ele>619</ele>
        <time>2016-12-16T09:07:09Z</time>
      </trkpt>
      <trkpt lat="46.05743" lon="1.84254">
        <ele>619</ele>
        <time>2016-12-16T09:09:09Z</time>
      </trkpt>
      <trkpt lat="46.05742" lon="1.84262">
        <ele>620</ele>
        <time>2016-12-16T09:11:09Z</time>
      </trkpt>
      <trkpt lat="46.05742" lon="1.84266">
        <ele>620</ele>
        <time>2016-12-16T09:13:09Z</time>
      </trkpt>
      <trkpt lat="46.05742" lon="1.84269">
        <ele>620</ele>
        <time>2016-12-16T09:15:09Z</time>
      </trkpt>
      <trkpt lat="46.0574" lon="1.84273">
        <ele>620</ele>
        <time>2016-12-16T09:17:09Z</time>
      </trkpt>
      <trkpt lat="46.05739" lon="1.8428">
        <ele>620</ele>
        <time>2016-12-16T09:19:09Z</time>
      </trkpt>
      <trkpt lat="46.05738" lon="1.84283">
        <ele>620</ele>
        <time>2016-12-16T09:21:09Z</time>
      </trkpt>
      <trkpt lat="46.05736" lon="1.84291">
        <ele>620</ele>
        <time>2016-12-16T09:23:09Z</time>
      </trkpt>
      <trkpt lat="46.05735" lon="1.84298">
        <ele>621</ele>
        <time>2016-12-16T09:25:09Z</time>
      </trkpt>
      <trkpt lat="46.05734" lon="1.84301">
        <ele>621</ele>
        <time>2016-12-16T09:27:09Z</time>
      </trkpt>
      <trkpt lat="46.05734" lon="1.84309">
        <ele>621</ele>
        <time>2016-12-16T09:29:09Z</time>
      </trkpt>
      <trkpt lat="46.05733" lon="1.84312">
        <ele>621</ele>
        <time>2016-12-16T09:31:09Z</time>
      </trkpt>
      <trkpt lat="46.05731" lon="1.84323">
        <ele>622</ele>
        <time>2016-12-16T09:33:09Z</time>
      </trkpt>
      <trkpt lat="46.0573" lon="1.84331">
        <ele>622</ele>
        <time>2016-12-16T09:35:09Z</time>
      </trkpt>
      <trkpt lat="46.05728" lon="1.84335">
        <ele>622</ele>
        <time>2016-12-16T09:37:09Z</time>
      </trkpt>
      <trkpt lat="46.05727" lon="1.84345">
        <ele>622</ele>
        <time>2016-12-16T09:39:09Z</time>
      </trkpt>
      <trkpt lat="46.05725" lon="1.84349">
        <ele>622</ele>
        <time>2016-12-16T09:41:09Z</time>
      </trkpt>
      <trkpt lat="46.05722" lon="1.84356">
        <ele>622</ele>
        <time>2016-12-16T09:43:09Z</time>
      </trkpt>
      <trkpt lat="46.05721" lon="1.8436">
        <ele>622</ele>
        <time>2016-12-16T09:45:09Z</time>
      </trkpt>
      <trkpt lat="46.0572" lon="1.84365">
        <ele>622</ele>
        <time>2016-12-16T09:47:09Z</time>
      </trkpt>
      <trkpt lat="46.05719" lon="1.84366">
        <ele>622</ele>
        <time>2016-12-16T09:49:09Z</time>
      </trkpt>
      <trkpt lat="46.05718" lon="1.84371">
        <ele>622</ele>
        <time>2016-12-16T09:51:09Z</time>
      </trkpt>
      <trkpt lat="46.05718" lon="1.84375">
        <ele>622</ele>
        <time>2016-12-16T09:53:09Z</time>
      </trkpt>
      <trkpt lat="46.05717" lon="1.84379">
        <ele>622</ele>
        <time>2016-12-16T09:55:09Z</time>
      </trkpt>
      <trkpt lat="46.05716" lon="1.84382">
        <ele>622</ele>
        <time>2016-12-16T09:57:09Z</time>
      </trkpt>
      <trkpt lat="46.05715" lon="1.84385">
        <ele>622</ele>
        <time>2016-12-16T09:59:09Z</time>
      </trkpt>
      <trkpt lat="46.05714" lon="1.84387">
        <ele>622</ele>
        <time>2016-12-16T10:01:09Z</time>
      </trkpt>
      <trkpt lat="46.05714" lon="1.84391">
        <ele>622</ele>
        <time>2016-12-16T10:03:09Z</time>
      </trkpt>
      <trkpt lat="46.05714" lon="1.84393">
        <ele>622</ele>
        <time>2016-12-16T10:05:09Z</time>
      </trkpt>
      <trkpt lat="46.05713" lon="1.84395">
        <ele>622</ele>
        <time>2016-12-16T10:07:09Z</time>
      </trkpt>
      <trkpt lat="46.05714" lon="1.84395">
        <ele>622</ele>
        <time>2016-12-16T10:09:09Z</time>
      </trkpt>
      <trkpt lat="46.05714" lon="1.844">
        <ele>621</ele>
        <time>2016-12-16T10:11:09Z</time>
      </trkpt>
      <trkpt lat="46.05714" lon="1.8441">
        <ele>621</ele>
        <time>2016-12-16T10:13:09Z</time>
      </trkpt>
      <trkpt lat="46.05714" lon="1.84417">
        <ele>621</ele>
        <time>2016-12-16T10:15:09Z</time>
      </trkpt>
      <trkpt lat="46.05716" lon="1.84434">
        <ele>620</ele>
        <time>2016-12-16T10:17:09Z</time>
      </trkpt>
      <trkpt lat="46.05717" lon="1.84438">
        <ele>620</ele>
        <time>2016-12-16T10:19:09Z</time>
      </trkpt>
      <trkpt lat="46.05716" lon="1.84442">
        <ele>620</ele>
        <time>2016-12-16T10:21:09Z</time>
      </trkpt>
      <trkpt lat="46.05716" lon="1.84446">
        <ele>620</ele>
        <time>2016-12-16T10:23:09Z</time>
      </trkpt>
      <trkpt lat="46.05716" lon="1.84452">
        <ele>620</ele>
        <time>2016-12-16T10:25:09Z</time>
      </trkpt>
      <trkpt lat="46.05716" lon="1.8446">
        <ele>619</ele>
        <time>2016-12-16T10:27:09Z</time>
      </trkpt>
      <trkpt lat="46.05715" lon="1.84466">
        <ele>619</ele>
        <time>2016-12-16T10:29:09Z</time>
      </trkpt>
      <trkpt lat="46.05715" lon="1.84476">
        <ele>619</ele>
        <time>2016-12-16T10:31:09Z</time>
      </trkpt>
      <trkpt lat="46.05715" lon="1.8448">
        <ele>619</ele>
        <time>2016-12-16T10:33:09Z</time>
      </trkpt>
      <trkpt lat="46.05715" lon="1.84483">
        <ele>619</ele>
        <time>2016-12-16T10:35:09Z</time>
      </trkpt>
      <trkpt lat="46.05714" lon="1.84489">
        <ele>618</ele>
        <time>2016-12-16T10:37:09Z</time>
      </trkpt>
      <trkpt lat="46.05714" lon="1.84491">
        <ele>618</ele>
        <time>2016-12-16T10:39:09Z</time>
      </trkpt>
      <trkpt lat="46.05713" lon="1.84496">
        <ele>618</ele>
        <time>2016-12-16T10:41:09Z</time>
      </trkpt>
      <trkpt lat="46.05711" lon="1.84505">
        <ele>618</ele>
        <time>2016-12-16T10:43:09Z</time>
      </trkpt>
      <trkpt lat="46.0571" lon="1.84511">
        <ele>618</ele>
        <time>2016-12-16T10:45:09Z</time>
      </trkpt>
      <trkpt lat="46.05708" lon="1.84515">
        <ele>618</ele>
        <time>2016-12-16T10:47:09Z</time>
      </trkpt>
      <trkpt lat="46.05707" lon="1.84521">
        <ele>619</ele>
        <time>2016-12-16T10:49:09Z</time>
      </trkpt>
      <trkpt lat="46.05705" lon="1.84528">
        <ele>619</ele>
        <time>2016-12-16T10:51:09Z</time>
      </trkpt>
      <trkpt lat="46.05704" lon="1.84538">
        <ele>619</ele>
        <time>2016-12-16T10:53:09Z</time>
      </trkpt>
      <trkpt lat="46.05704" lon="1.84558">
        <ele>619</ele>
        <time>2016-12-16T10:55:09Z</time>
      </trkpt>
      <trkpt lat="46.05703" lon="1.84562">
        <ele>619</ele>
        <time>2016-12-16T10:57:09Z</time>
      </trkpt>
      <trkpt lat="46.05703" lon="1.84566">
        <ele>619</ele>
        <time>2016-12-16T10:59:09Z</time>
      </trkpt>
      <trkpt lat="46.05703" lon="1.84569">
        <ele>619</ele>
        <time>2016-12-16T11:01:09Z</time>
      </trkpt>
      <trkpt lat="46.05703" lon="1.84576">
        <ele>620</ele>
        <time>2016-12-16T11:03:09Z</time>
      </trkpt>
      <trkpt lat="46.05703" lon="1.84579">
        <ele>620</ele>
        <time>2016-12-16T11:05:09Z</time>
      </trkpt>
      <trkpt lat="46.05703" lon="1.84581">
        <ele>620</ele>
        <time>2016-12-16T11:07:09Z</time>
      </trkpt>
      <trkpt lat="46.05703" lon="1.84587">
        <ele>620</ele>
        <time>2016-12-16T11:09:09Z</time>
      </trkpt>
      <trkpt lat="46.05704" lon="1.84597">
        <ele>619</ele>
        <time>2016-12-16T11:11:09Z</time>
      </trkpt>
      <trkpt lat="46.05704" lon="1.84604">
        <ele>619</ele>
        <time>2016-12-16T11:13:09Z</time>
      </trkpt>
      <trkpt lat="46.05704" lon="1.84608">
        <ele>619</ele>
        <time>2016-12-16T11:15:09Z</time>
      </trkpt>
      <trkpt lat="46.05704" lon="1.84617">
        <ele>618</ele>
        <time>2016-12-16T11:17:09Z</time>
      </trkpt>
      <trkpt lat="46.05704" lon="1.84619">
        <ele>618</ele>
        <time>2016-12-16T11:19:09Z</time>
      </trkpt>
      <trkpt lat="46.05704" lon="1.84624">
        <ele>618</ele>
        <time>2016-12-16T11:21:09Z</time>
      </trkpt>
      <trkpt lat="46.05704" lon="1.8463">
        <ele>617</ele>
        <time>2016-12-16T11:23:09Z</time>
      </trkpt>
      <trkpt lat="46.05704" lon="1.84637">
        <ele>617</ele>
        <time>2016-12-16T11:25:09Z</time>
      </trkpt>
      <trkpt lat="46.05704" lon="1.84642">
        <ele>617</ele>
        <time>2016-12-16T11:27:09Z</time>
      </trkpt>
      <trkpt lat="46.05703" lon="1.84643">
        <ele>617</ele>
        <time>2016-12-16T11:29:09Z</time>
      </trkpt>
      <trkpt lat="46.05703" lon="1.84645">
        <ele>617</ele>
        <time>2016-12-16T11:31:09Z</time>
      </trkpt>
      <trkpt lat="46.05702" lon="1.84653">
        <ele>616</ele>
        <time>2016-12-16T11:33:09Z</time>
      </trkpt>
      <trkpt lat="46.05701" lon="1.84658">
        <ele>616</ele>
        <time>2016-12-16T11:35:09Z</time>
      </trkpt>
      <trkpt lat="46.057" lon="1.8466">
        <ele>616</ele>
        <time>2016-12-16T11:37:09Z</time>
      </trkpt>
      <trkpt lat="46.05699" lon="1.84662">
        <ele>616</ele>
        <time>2016-12-16T11:39:09Z</time>
      </trkpt>
      <trkpt lat="46.05698" lon="1.84663">
        <ele>616</ele>
        <time>2016-12-16T11:41:09Z</time>
      </trkpt>
      <trkpt lat="46.05698" lon="1.84666">
        <ele>616</ele>
        <time>2016-12-16T11:43:09Z</time>
      </trkpt>
      <trkpt lat="46.05696" lon="1.84671">
        <ele>616</ele>
        <time>2016-12-16T11:45:09Z</time>
      </trkpt>
      <trkpt lat="46.05695" lon="1.84674">
        <ele>615</ele>
        <time>2016-12-16T11:47:09Z</time>
      </trkpt>
      <trkpt lat="46.05694" lon="1.84675">
        <ele>615</ele>
        <time>2016-12-16T11:49:09Z</time>
      </trkpt>
      <trkpt lat="46.05693" lon="1.84677">
        <ele>615</ele>
        <time>2016-12-16T11:51:09Z</time>
      </trkpt>
      <trkpt lat="46.05694" lon="1.84679">
        <ele>615</ele>
        <time>2016-12-16T11:53:09Z</time>
      </trkpt>
      <trkpt lat="46.05692" lon="1.84686">
        <ele>615</ele>
        <time>2016-12-16T11:55:09Z</time>
      </trkpt>
      <trkpt lat="46.05688" lon="1.84695">
        <ele>614</ele>
        <time>2016-12-16T11:57:09Z</time>
      </trkpt>
      <trkpt lat="46.05687" lon="1.84698">
        <ele>614</ele>
        <time>2016-12-16T11:59:09Z</time>
      </trkpt>
      <trkpt lat="46.05682" lon="1.84717">
        <ele>613</ele>
        <time>2016-12-16T12:01:09Z</time>
      </trkpt>
      <trkpt lat="46.0568" lon="1.84726">
        <ele>612</ele>
        <time>2016-12-16T12:03:09Z</time>
      </trkpt>
      <trkpt lat="46.0568" lon="1.8473">
        <ele>612</ele>
        <time>2016-12-16T12:05:09Z</time>
      </trkpt>
      <trkpt lat="46.05679" lon="1.84733">
        <ele>612</ele>
        <time>2016-12-16T12:07:09Z</time>
      </trkpt>
      <trkpt lat="46.05677" lon="1.84742">
        <ele>612</ele>
        <time>2016-12-16T12:09:09Z</time>
      </trkpt>
      <trkpt lat="46.05676" lon="1.84745">
        <ele>611</ele>
        <time>2016-12-16T12:11:09Z</time>
      </trkpt>
      <trkpt lat="46.05675" lon="1.84749">
        <ele>611</ele>
        <time>2016-12-16T12:13:09Z</time>
      </trkpt>
      <trkpt lat="46.05673" lon="1.84753">
        <ele>611</ele>
        <time>2016-12-16T12:15:09Z</time>
      </trkpt>
      <trkpt lat="46.05671" lon="1.84761">
        <ele>611</ele>
        <time>2016-12-16T12:17:09Z</time>
      </trkpt>
      <trkpt lat="46.0567" lon="1.84771">
        <ele>611</ele>
        <time>2016-12-16T12:19:09Z</time>
      </trkpt>
      <trkpt lat="46.05669" lon="1.84775">
        <ele>611</ele>
        <time>2016-12-16T12:21:09Z</time>
      </trkpt>
      <trkpt lat="46.05668" lon="1.84779">
        <ele>611</ele>
        <time>2016-12-16T12:23:09Z</time>
      </trkpt>
      <trkpt lat="46.05666" lon="1.84784">
        <ele>611</ele>
        <time>2016-12-16T12:25:09Z</time>
      </trkpt>
      <trkpt lat="46.05665" lon="1.84788">
        <ele>611</ele>
        <time>2016-12-16T12:27:09Z</time>
      </trkpt>
      <trkpt lat="46.05664" lon="1.84792">
        <ele>610</ele>
        <time>2016-12-16T12:29:09Z</time>
      </trkpt>
      <trkpt lat="46.05663" lon="1.848">
        <ele>610</ele>
        <time>2016-12-16T12:31:09Z</time>
      </trkpt>
      <trkpt lat="46.05662" lon="1.84804">
        <ele>610</ele>
        <time>2016-12-16T12:33:09Z</time>
      </trkpt>
      <trkpt lat="46.0566" lon="1.84808">
        <ele>610</ele>
        <time>2016-12-16T12:35:09Z</time>
      </trkpt>
      <trkpt lat="46.0566" lon="1.84812">
        <ele>610</ele>
        <time>2016-12-16T12:37:09Z</time>
      </trkpt>
      <trkpt lat="46.05657" lon="1.8482">
        <ele>609</ele>
        <time>2016-12-16T12:39:09Z</time>
      </trkpt>
      <trkpt lat="46.05656" lon="1.84829">
        <ele>609</ele>
        <time>2016-12-16T12:41:09Z</time>
      </trkpt>
      <trkpt lat="46.05654" lon="1.84838">
        <ele>609</ele>
        <time>2016-12-16T12:43:09Z</time>
      </trkpt>
      <trkpt lat="46.05653" lon="1.84847">
        <ele>609</ele>
        <time>2016-12-16T12:45:09Z</time>
      </trkpt>
      <trkpt lat="46.0565" lon="1.84852">
        <ele>608</ele>
        <time>2016-12-16T12:47:09Z</time>
      </trkpt>
      <trkpt lat="46.05649" lon="1.84856">
        <ele>608</ele>
        <time>2016-12-16T12:49:09Z</time>
      </trkpt>
      <trkpt lat="46.05647" lon="1.8486">
        <ele>608</ele>
        <time>2016-12-16T12:51:09Z</time>
      </trkpt>
      <trkpt lat="46.05647" lon="1.84863">
        <ele>608</ele>
        <time>2016-12-16T12:53:09Z</time>
      </trkpt>
      <trkpt lat="46.05645" lon="1.8487">
        <ele>608</ele>
        <time>2016-12-16T12:55:09Z</time>
      </trkpt>
      <trkpt lat="46.05644" lon="1.84874">
        <ele>608</ele>
        <time>2016-12-16T12:57:09Z</time>
      </trkpt>
      <trkpt lat="46.05643" lon="1.84877">
        <ele>608</ele>
        <time>2016-12-16T12:59:09Z</time>
      </trkpt>
      <trkpt lat="46.05642" lon="1.84886">
        <ele>608</ele>
        <time>2016-12-16T13:01:09Z</time>
      </trkpt>
      <trkpt lat="46.05641" lon="1.84894">
        <ele>607</ele>
        <time>2016-12-16T13:03:09Z</time>
      </trkpt>
      <trkpt lat="46.05639" lon="1.84898">
        <ele>607</ele>
        <time>2016-12-16T13:05:09Z</time>
      </trkpt>
      <trkpt lat="46.05639" lon="1.84902">
        <ele>607</ele>
        <time>2016-12-16T13:07:09Z</time>
      </trkpt>
      <trkpt lat="46.05636" lon="1.84909">
        <ele>607</ele>
        <time>2016-12-16T13:09:09Z</time>
      </trkpt>
      <trkpt lat="46.05635" lon="1.84912">
        <ele>607</ele>
        <time>2016-12-16T13:11:09Z</time>
      </trkpt>
      <trkpt lat="46.05632" lon="1.84916">
        <ele>607</ele>
        <time>2016-12-16T13:13:09Z</time>
      </trkpt>
      <trkpt lat="46.0563" lon="1.84925">
        <ele>607</ele>
        <time>2016-12-16T13:15:09Z</time>
      </trkpt>
      <trkpt lat="46.05629" lon="1.84931">
        <ele>606</ele>
        <time>2016-12-16T13:17:09Z</time>
      </trkpt>
      <trkpt lat="46.05627" lon="1.84935">
        <ele>606</ele>
        <time>2016-12-16T13:19:09Z</time>
      </trkpt>
      <trkpt lat="46.05625" lon="1.84943">
        <ele>606</ele>
        <time>2016-12-16T13:21:09Z</time>
      </trkpt>
      <trkpt lat="46.05624" lon="1.84946">
        <ele>606</ele>
        <time>2016-12-16T13:23:09Z</time>
      </trkpt>
      <trkpt lat="46.05623" lon="1.84955">
        <ele>605</ele>
        <time>2016-12-16T13:25:09Z</time>
      </trkpt>
      <trkpt lat="46.05622" lon="1.84959">
        <ele>605</ele>
        <time>2016-12-16T13:27:09Z</time>
      </trkpt>
      <trkpt lat="46.0562" lon="1.84964">
        <ele>605</ele>
        <time>2016-12-16T13:29:09Z</time>
      </trkpt>
      <trkpt lat="46.05619" lon="1.84969">
        <ele>605</ele>
        <time>2016-12-16T13:31:09Z</time>
      </trkpt>
      <trkpt lat="46.05617" lon="1.84973">
        <ele>605</ele>
        <time>2016-12-16T13:33:09Z</time>
      </trkpt>
      <trkpt lat="46.05615" lon="1.84978">
        <ele>605</ele>
        <time>2016-12-16T13:35:09Z</time>
      </trkpt>
      <trkpt lat="46.05613" lon="1.84986">
        <ele>604</ele>
        <time>2016-12-16T13:37:09Z</time>
      </trkpt>
      <trkpt lat="46.05612" lon="1.84991">
        <ele>604</ele>
        <time>2016-12-16T13:39:09Z</time>
      </trkpt>
      <trkpt lat="46.0561" lon="1.84995">
        <ele>604</ele>
        <time>2016-12-16T13:41:09Z</time>
      </trkpt>
      <trkpt lat="46.0561" lon="1.84999">
        <ele>604</ele>
        <time>2016-12-16T13:43:09Z</time>
      </trkpt>
      <trkpt lat="46.05609" lon="1.85003">
        <ele>604</ele>
        <time>2016-12-16T13:45:09Z</time>
      </trkpt>
      <trkpt lat="46.05608" lon="1.85007">
        <ele>604</ele>
        <time>2016-12-16T13:47:09Z</time>
      </trkpt>
      <trkpt lat="46.05608" lon="1.85011">
        <ele>604</ele>
        <time>2016-12-16T13:49:09Z</time>
      </trkpt>
      <trkpt lat="46.05606" lon="1.85016">
        <ele>604</ele>
        <time>2016-12-16T13:51:09Z</time>
      </trkpt>
      <trkpt lat="46.05605" lon="1.8502">
        <ele>604</ele>
        <time>2016-12-16T13:53:09Z</time>
      </trkpt>
      <trkpt lat="46.05604" lon="1.85024">
        <ele>604</ele>
        <time>2016-12-16T13:55:09Z</time>
      </trkpt>
      <trkpt lat="46.05604" lon="1.85028">
        <ele>604</ele>
        <time>2016-12-16T13:57:09Z</time>
      </trkpt>
      <trkpt lat="46.05604" lon="1.85031">
        <ele>604</ele>
        <time>2016-12-16T13:59:09Z</time>
      </trkpt>
      <trkpt lat="46.05604" lon="1.85035">
        <ele>604</ele>
        <time>2016-12-16T14:01:09Z</time>
      </trkpt>
      <trkpt lat="46.05604" lon="1.85039">
        <ele>604</ele>
        <time>2016-12-16T14:03:09Z</time>
      </trkpt>
      <trkpt lat="46.05603" lon="1.85043">
        <ele>604</ele>
        <time>2016-12-16T14:05:09Z</time>
      </trkpt>
      <trkpt lat="46.05603" lon="1.85047">
        <ele>604</ele>
        <time>2016-12-16T14:07:09Z</time>
      </trkpt>
      <trkpt lat="46.05605" lon="1.85055">
        <ele>603</ele>
        <time>2016-12-16T14:09:09Z</time>
      </trkpt>
      <trkpt lat="46.05605" lon="1.85059">
        <ele>603</ele>
        <time>2016-12-16T14:11:09Z</time>
      </trkpt>
      <trkpt lat="46.05603" lon="1.85064">
        <ele>603</ele>
        <time>2016-12-16T14:13:09Z</time>
      </trkpt>
      <trkpt lat="46.05605" lon="1.85067">
        <ele>603</ele>
        <time>2016-12-16T14:15:09Z</time>
      </trkpt>
      <trkpt lat="46.05607" lon="1.85071">
        <ele>603</ele>
        <time>2016-12-16T14:17:09Z</time>
      </trkpt>
      <trkpt lat="46.0561" lon="1.85079">
        <ele>603</ele>
        <time>2016-12-16T14:19:09Z</time>
      </trkpt>
      <trkpt lat="46.05612" lon="1.85082">
        <ele>603</ele>
        <time>2016-12-16T14:21:09Z</time>
      </trkpt>
      <trkpt lat="46.05614" lon="1.85086">
        <ele>603</ele>
        <time>2016-12-16T14:23:09Z</time>
      </trkpt>
      <trkpt lat="46.05617" lon="1.85088">
        <ele>602</ele>
        <time>2016-12-16T14:25:09Z</time>
      </trkpt>
      <trkpt lat="46.05622" lon="1.85093">
        <ele>602</ele>
        <time>2016-12-16T14:27:09Z</time>
      </trkpt>
      <trkpt lat="46.05631" lon="1.85101">
        <ele>602</ele>
        <time>2016-12-16T14:29:09Z</time>
      </trkpt>
      <trkpt lat="46.05638" lon="1.85106">
        <ele>601</ele>
        <time>2016-12-16T14:31:09Z</time>
      </trkpt>
      <trkpt lat="46.0564" lon="1.85109">
        <ele>601</ele>
        <time>2016-12-16T14:33:09Z</time>
      </trkpt>
      <trkpt lat="46.05644" lon="1.85115">
        <ele>601</ele>
        <time>2016-12-16T14:35:09Z</time>
      </trkpt>
      <trkpt lat="46.0565" lon="1.85122">
        <ele>601</ele>
        <time>2016-12-16T14:37:09Z</time>
      </trkpt>
      <trkpt lat="46.05654" lon="1.85128">
        <ele>601</ele>
        <time>2016-12-16T14:39:09Z</time>
      </trkpt>
      <trkpt lat="46.05656" lon="1.85132">
        <ele>601</ele>
        <time>2016-12-16T14:41:09Z</time>
      </trkpt>
      <trkpt lat="46.05649" lon="1.85138">
        <ele>601</ele>
        <time>2016-12-16T14:43:09Z</time>
      </trkpt>
      <trkpt lat="46.05634" lon="1.8514">
        <ele>602</ele>
        <time>2016-12-16T14:45:09Z</time>
      </trkpt>
      <trkpt lat="46.05618" lon="1.85147">
        <ele>602</ele>
        <time>2016-12-16T14:47:09Z</time>
      </trkpt>
      <trkpt lat="46.05599" lon="1.85155">
        <ele>603</ele>
        <time>2016-12-16T14:49:09Z</time>
      </trkpt>
      <trkpt lat="46.05569" lon="1.85163">
        <ele>601</ele>
        <time>2016-12-16T14:51:09Z</time>
      </trkpt>
      <trkpt lat="46.05507" lon="1.85182">
        <ele>588</ele>
        <time>2016-12-16T14:53:09Z</time>
      </trkpt>
      <trkpt lat="46.05484" lon="1.85195">
        <ele>584</ele>
        <time>2016-12-16T14:55:09Z</time>
      </trkpt>
      <trkpt lat="46.05455" lon="1.85216">
        <ele>579</ele>
        <time>2016-12-16T14:57:09Z</time>
      </trkpt>
      <trkpt lat="46.05422" lon="1.85242">
        <ele>572</ele>
        <time>2016-12-16T14:59:09Z</time>
      </trkpt>
      <trkpt lat="46.05399" lon="1.85259">
        <ele>568</ele>
        <time>2016-12-16T15:01:09Z</time>
      </trkpt>
      <trkpt lat="46.05383" lon="1.85269">
        <ele>566</ele>
        <time>2016-12-16T15:03:09Z</time>
      </trkpt>
      <trkpt lat="46.05364" lon="1.85286">
        <ele>563</ele>
        <time>2016-12-16T15:05:09Z</time>
      </trkpt>
      <trkpt lat="46.05349" lon="1.85305">
        <ele>560</ele>
        <time>2016-12-16T15:07:09Z</time>
      </trkpt>
      <trkpt lat="46.05337" lon="1.85302">
        <ele>559</ele>
        <time>2016-12-16T15:09:09Z</time>
      </trkpt>
      <trkpt lat="46.05336" lon="1.8529">
        <ele>558</ele>
        <time>2016-12-16T15:11:09Z</time>
      </trkpt>
      <trkpt lat="46.05329" lon="1.85288">
        <ele>557</ele>
        <time>2016-12-16T15:13:09Z</time>
      </trkpt>
      <trkpt lat="46.05323" lon="1.853">
        <ele>556</ele>
        <time>2016-12-16T15:15:09Z</time>
      </trkpt>
      <trkpt lat="46.05316" lon="1.85319">
        <ele>555</ele>
        <time>2016-12-16T15:17:09Z</time>
      </trkpt>
      <trkpt lat="46.05307" lon="1.85338">
        <ele>553</ele>
        <time>2016-12-16T15:19:09Z</time>
      </trkpt>
      <trkpt lat="46.05305" lon="1.85363">
        <ele>551</ele>
        <time>2016-12-16T15:21:09Z</time>
      </trkpt>
      <trkpt lat="46.05301" lon="1.85388">
        <ele>548</ele>
        <time>2016-12-16T15:23:09Z</time>
      </trkpt>
      <trkpt lat="46.05293" lon="1.85418">
        <ele>545</ele>
        <time>2016-12-16T15:25:09Z</time>
      </trkpt>
      <trkpt lat="46.05289" lon="1.85437">
        <ele>542</ele>
        <time>2016-12-16T15:27:09Z</time>
      </trkpt>
      <trkpt lat="46.05286" lon="1.85436">
        <ele>542</ele>
        <time>2016-12-16T15:29:09Z</time>
      </trkpt>
      <trkpt lat="46.05285" lon="1.85435">
        <ele>542</ele>
        <time>2016-12-16T15:31:09Z</time>
      </trkpt>
      <trkpt lat="46.05283" lon="1.85434">
        <ele>542</ele>
        <time>2016-12-16T15:33:09Z</time>
      </trkpt>
      <trkpt lat="46.05278" lon="1.85433">
        <ele>542</ele>
        <time>2016-12-16T15:35:09Z</time>
      </trkpt>
      <trkpt lat="46.0527" lon="1.85434">
        <ele>541</ele>
        <time>2016-12-16T15:37:09Z</time>
      </trkpt>
      <trkpt lat="46.05265" lon="1.85436">
        <ele>541</ele>
        <time>2016-12-16T15:39:09Z</time>
      </trkpt>
      <trkpt lat="46.05262" lon="1.85436">
        <ele>540</ele>
        <time>2016-12-16T15:41:09Z</time>
      </trkpt>
      <trkpt lat="46.05259" lon="1.85437">
        <ele>540</ele>
        <time>2016-12-16T15:43:09Z</time>
      </trkpt>
      <trkpt lat="46.05255" lon="1.85438">
        <ele>540</ele>
        <time>2016-12-16T15:45:09Z</time>
      </trkpt>
      <trkpt lat="46.05252" lon="1.85439">
        <ele>540</ele>
        <time>2016-12-16T15:47:09Z</time>
      </trkpt>
      <trkpt lat="46.05244" lon="1.85441">
        <ele>539</ele>
        <time>2016-12-16T15:49:09Z</time>
      </trkpt>
      <trkpt lat="46.05232" lon="1.85443">
        <ele>540</ele>
        <time>2016-12-16T15:51:09Z</time>
      </trkpt>
      <trkpt lat="46.05221" lon="1.85448">
        <ele>540</ele>
        <time>2016-12-16T15:53:09Z</time>
      </trkpt>
      <trkpt lat="46.0521" lon="1.85454">
        <ele>540</ele>
        <time>2016-12-16T15:55:09Z</time>
      </trkpt>
      <trkpt lat="46.05202" lon="1.85458">
        <ele>540</ele>
        <time>2016-12-16T15:57:09Z</time>
      </trkpt>
      <trkpt lat="46.05195" lon="1.85462">
        <ele>540</ele>
        <time>2016-12-16T15:59:09Z</time>
      </trkpt>
      <trkpt lat="46.0519" lon="1.85466">
        <ele>540</ele>
        <time>2016-12-16T16:01:09Z</time>
      </trkpt>
      <trkpt lat="46.05188" lon="1.85468">
        <ele>540</ele>
        <time>2016-12-16T16:03:09Z</time>
      </trkpt>
      <trkpt lat="46.05186" lon="1.85469">
        <ele>540</ele>
        <time>2016-12-16T16:05:09Z</time>
      </trkpt>
      <trkpt lat="46.05184" lon="1.85472">
        <ele>540</ele>
        <time>2016-12-16T16:07:09Z</time>
      </trkpt>
      <trkpt lat="46.05179" lon="1.8548">
        <ele>540</ele>
        <time>2016-12-16T16:09:09Z</time>
      </trkpt>
      <trkpt lat="46.05172" lon="1.8549">
        <ele>540</ele>
        <time>2016-12-16T16:11:09Z</time>
      </trkpt>
      <trkpt lat="46.0517" lon="1.85493">
        <ele>540</ele>
        <time>2016-12-16T16:13:09Z</time>
      </trkpt>
      <trkpt lat="46.05166" lon="1.85503">
        <ele>540</ele>
        <time>2016-12-16T16:15:09Z</time>
      </trkpt>
      <trkpt lat="46.05164" lon="1.85506">
        <ele>540</ele>
        <time>2016-12-16T16:17:09Z</time>
      </trkpt>
      <trkpt lat="46.05162" lon="1.8551">
        <ele>540</ele>
        <time>2016-12-16T16:19:09Z</time>
      </trkpt>
      <trkpt lat="46.05162" lon="1.85513">
        <ele>540</ele>
        <time>2016-12-16T16:21:09Z</time>
      </trkpt>
      <trkpt lat="46.05159" lon="1.85519">
        <ele>540</ele>
        <time>2016-12-16T16:23:09Z</time>
      </trkpt>
      <trkpt lat="46.05157" lon="1.85522">
        <ele>540</ele>
        <time>2016-12-16T16:25:09Z</time>
      </trkpt>
      <trkpt lat="46.05156" lon="1.85526">
        <ele>540</ele>
        <time>2016-12-16T16:27:09Z</time>
      </trkpt>
      <trkpt lat="46.05155" lon="1.85529">
        <ele>540</ele>
        <time>2016-12-16T16:29:09Z</time>
      </trkpt>
      <trkpt lat="46.05153" lon="1.85532">
        <ele>540</ele>
        <time>2016-12-16T16:31:09Z</time>
      </trkpt>
      <trkpt lat="46.05151" lon="1.85539">
        <ele>540</ele>
        <time>2016-12-16T16:33:09Z</time>
      </trkpt>
      <trkpt lat="46.0515" lon="1.85542">
        <ele>540</ele>
        <time>2016-12-16T16:35:09Z</time>
      </trkpt>
      <trkpt lat="46.05146" lon="1.85548">
        <ele>540</ele>
        <time>2016-12-16T16:37:09Z</time>
      </trkpt>
      <trkpt lat="46.05143" lon="1.85558">
        <ele>540</ele>
        <time>2016-12-16T16:39:09Z</time>
      </trkpt>
      <trkpt lat="46.05142" lon="1.85561">
        <ele>540</ele>
        <time>2016-12-16T16:41:09Z</time>
      </trkpt>
      <trkpt lat="46.05136" lon="1.8557">
        <ele>540</ele>
        <time>2016-12-16T16:43:09Z</time>
      </trkpt>
      <trkpt lat="46.05135" lon="1.85573">
        <ele>540</ele>
        <time>2016-12-16T16:45:09Z</time>
      </trkpt>
      <trkpt lat="46.05133" lon="1.85576">
        <ele>540</ele>
        <time>2016-12-16T16:47:09Z</time>
      </trkpt>
      <trkpt lat="46.05132" lon="1.85579">
        <ele>540</ele>
        <time>2016-12-16T16:49:09Z</time>
      </trkpt>
      <trkpt lat="46.05129" lon="1.85585">
        <ele>540</ele>
        <time>2016-12-16T16:51:09Z</time>
      </trkpt>
      <trkpt lat="46.05127" lon="1.85587">
        <ele>540</ele>
        <time>2016-12-16T16:53:09Z</time>
      </trkpt>
      <trkpt lat="46.05124" lon="1.85592">
        <ele>540</ele>
        <time>2016-12-16T16:55:09Z</time>
      </trkpt>
      <trkpt lat="46.05121" lon="1.85594">
        <ele>540</ele>
        <time>2016-12-16T16:57:09Z</time>
      </trkpt>
      <trkpt lat="46.05118" lon="1.856">
        <ele>540</ele>
        <time>2016-12-16T16:59:09Z</time>
      </trkpt>
      <trkpt lat="46.05116" lon="1.85603">
        <ele>540</ele>
        <time>2016-12-16T17:01:09Z</time>
      </trkpt>
      <trkpt lat="46.05114" lon="1.85605">
        <ele>540</ele>
        <time>2016-12-16T17:03:09Z</time>
      </trkpt>
      <trkpt lat="46.05112" lon="1.85607">
        <ele>540</ele>
        <time>2016-12-16T17:05:09Z</time>
      </trkpt>
      <trkpt lat="46.0511" lon="1.85609">
        <ele>540</ele>
        <time>2016-12-16T17:07:09Z</time>
      </trkpt>
      <trkpt lat="46.05107" lon="1.85611">
        <ele>540</ele>
        <time>2016-12-16T17:09:09Z</time>
      </trkpt>
      <trkpt lat="46.05103" lon="1.85614">
        <ele>540</ele>
        <time>2016-12-16T17:11:09Z</time>
      </trkpt>
      <trkpt lat="46.051" lon="1.85614">
        <ele>540</ele>
        <time>2016-12-16T17:13:09Z</time>
      </trkpt>
      <trkpt lat="46.05096" lon="1.85616">
        <ele>540</ele>
        <time>2016-12-16T17:15:09Z</time>
      </trkpt>
      <trkpt lat="46.05094" lon="1.85616">
        <ele>540</ele>
        <time>2016-12-16T17:17:09Z</time>
      </trkpt>
      <trkpt lat="46.0509" lon="1.85617">
        <ele>540</ele>
        <time>2016-12-16T17:19:09Z</time>
      </trkpt>
      <trkpt lat="46.05085" lon="1.85617">
        <ele>540</ele>
        <time>2016-12-16T17:21:09Z</time>
      </trkpt>
      <trkpt lat="46.05082" lon="1.85617">
        <ele>540</ele>
        <time>2016-12-16T17:23:09Z</time>
      </trkpt>
      <trkpt lat="46.0507" lon="1.85616">
        <ele>541</ele>
        <time>2016-12-16T17:25:09Z</time>
      </trkpt>
      <trkpt lat="46.05068" lon="1.85615">
        <ele>541</ele>
        <time>2016-12-16T17:27:09Z</time>
      </trkpt>
      <trkpt lat="46.05066" lon="1.85613">
        <ele>541</ele>
        <time>2016-12-16T17:29:09Z</time>
      </trkpt>
      <trkpt lat="46.05065" lon="1.85613">
        <ele>541</ele>
        <time>2016-12-16T17:31:09Z</time>
      </trkpt>
      <trkpt lat="46.0506" lon="1.85613">
        <ele>541</ele>
        <time>2016-12-16T17:33:09Z</time>
      </trkpt>
      <trkpt lat="46.05052" lon="1.85614">
        <ele>542</ele>
        <time>2016-12-16T17:35:09Z</time>
      </trkpt>
      <trkpt lat="46.05049" lon="1.85616">
        <ele>542</ele>
        <time>2016-12-16T17:37:09Z</time>
      </trkpt>
      <trkpt lat="46.05047" lon="1.85617">
        <ele>542</ele>
        <time>2016-12-16T17:39:09Z</time>
      </trkpt>
      <trkpt lat="46.05041" lon="1.8562">
        <ele>542</ele>
        <time>2016-12-16T17:41:09Z</time>
      </trkpt>
      <trkpt lat="46.05038" lon="1.85622">
        <ele>542</ele>
        <time>2016-12-16T17:43:09Z</time>
      </trkpt>
      <trkpt lat="46.05035" lon="1.85625">
        <ele>542</ele>
        <time>2016-12-16T17:45:09Z</time>
      </trkpt>
      <trkpt lat="46.05033" lon="1.85629">
        <ele>542</ele>
        <time>2016-12-16T17:47:09Z</time>
      </trkpt>
      <trkpt lat="46.05029" lon="1.85631">
        <ele>542</ele>
        <time>2016-12-16T17:49:09Z</time>
      </trkpt>
      <trkpt lat="46.05024" lon="1.85635">
        <ele>542</ele>
        <time>2016-12-16T17:51:09Z</time>
      </trkpt>
      <trkpt lat="46.05022" lon="1.85636">
        <ele>542</ele>
        <time>2016-12-16T17:53:09Z</time>
      </trkpt>
      <trkpt lat="46.05019" lon="1.8564">
        <ele>541</ele>
        <time>2016-12-16T17:55:09Z</time>
      </trkpt>
      <trkpt lat="46.05014" lon="1.85643">
        <ele>541</ele>
        <time>2016-12-16T17:57:09Z</time>
      </trkpt>
      <trkpt lat="46.05012" lon="1.85646">
        <ele>541</ele>
        <time>2016-12-16T17:59:09Z</time>
      </trkpt>
      <trkpt lat="46.05004" lon="1.8565">
        <ele>541</ele>
        <time>2016-12-16T18:01:09Z</time>
      </trkpt>
      <trkpt lat="46.05" lon="1.85651">
        <ele>541</ele>
        <time>2016-12-16T18:03:09Z</time>
      </trkpt>
      <trkpt lat="46.04991" lon="1.85653">
        <ele>540</ele>
        <time>2016-12-16T18:05:09Z</time>
      </trkpt>
      <trkpt lat="46.04989" lon="1.85654">
        <ele>540</ele>
        <time>2016-12-16T18:07:09Z</time>
      </trkpt>
      <trkpt lat="46.04985" lon="1.85654">
        <ele>540</ele>
        <time>2016-12-16T18:09:09Z</time>
      </trkpt>
      <trkpt lat="46.04982" lon="1.85654">
        <ele>540</ele>
        <time>2016-12-16T18:11:09Z</time>
      </trkpt>
      <trkpt lat="46.04976" lon="1.85656">
        <ele>539</ele>
        <time>2016-12-16T18:13:09Z</time>
      </trkpt>
      <trkpt lat="46.04971" lon="1.85655">
        <ele>539</ele>
        <time>2016-12-16T18:15:09Z</time>
      </trkpt>
      <trkpt lat="46.04965" lon="1.85656">
        <ele>538</ele>
        <time>2016-12-16T18:17:09Z</time>
      </trkpt>
      <trkpt lat="46.04962" lon="1.85656">
        <ele>538</ele>
        <time>2016-12-16T18:19:09Z</time>
      </trkpt>
      <trkpt lat="46.04949" lon="1.85662">
        <ele>537</ele>
        <time>2016-12-16T18:21:09Z</time>
      </trkpt>
      <trkpt lat="46.04944" lon="1.85665">
        <ele>536</ele>
        <time>2016-12-16T18:23:09Z</time>
      </trkpt>
      <trkpt lat="46.0494" lon="1.85669">
        <ele>536</ele>
        <time>2016-12-16T18:25:09Z</time>
      </trkpt>
      <trkpt lat="46.04937" lon="1.85672">
        <ele>535</ele>
        <time>2016-12-16T18:27:09Z</time>
      </trkpt>
      <trkpt lat="46.04935" lon="1.85675">
        <ele>535</ele>
        <time>2016-12-16T18:29:09Z</time>
      </trkpt>
      <trkpt lat="46.04934" lon="1.85678">
        <ele>535</ele>
        <time>2016-12-16T18:31:09Z</time>
      </trkpt>
      <trkpt lat="46.04933" lon="1.8568">
        <ele>534</ele>
        <time>2016-12-16T18:33:09Z</time>
      </trkpt>
      <trkpt lat="46.04933" lon="1.85682">
        <ele>534</ele>
        <time>2016-12-16T18:35:09Z</time>
      </trkpt>
      <trkpt lat="46.04932" lon="1.85684">
        <ele>534</ele>
        <time>2016-12-16T18:37:09Z</time>
      </trkpt>
      <trkpt lat="46.0493" lon="1.85687">
        <ele>534</ele>
        <time>2016-12-16T18:39:09Z</time>
      </trkpt>
      <trkpt lat="46.04928" lon="1.8569">
        <ele>534</ele>
        <time>2016-12-16T18:41:09Z</time>
      </trkpt>
      <trkpt lat="46.04928" lon="1.85691">
        <ele>534</ele>
        <time>2016-12-16T18:43:09Z</time>
      </trkpt>
      <trkpt lat="46.04928" lon="1.85692">
        <ele>534</ele>
        <time>2016-12-16T18:45:09Z</time>
      </trkpt>
      <trkpt lat="46.04928" lon="1.85693">
        <ele>533</ele>
        <time>2016-12-16T18:47:09Z</time>
      </trkpt>
      <trkpt lat="46.04924" lon="1.85699">
        <ele>533</ele>
        <time>2016-12-16T18:49:09Z</time>
      </trkpt>
      <trkpt lat="46.04921" lon="1.85706">
        <ele>532</ele>
        <time>2016-12-16T18:51:09Z</time>
      </trkpt>
      <trkpt lat="46.0492" lon="1.85707">
        <ele>532</ele>
        <time>2016-12-16T18:53:09Z</time>
      </trkpt>
      <trkpt lat="46.0492" lon="1.8571">
        <ele>532</ele>
        <time>2016-12-16T18:55:09Z</time>
      </trkpt>
      <trkpt lat="46.04921" lon="1.85711">
        <ele>532</ele>
        <time>2016-12-16T18:57:09Z</time>
      </trkpt>
      <trkpt lat="46.04921" lon="1.85717">
        <ele>532</ele>
        <time>2016-12-16T18:59:09Z</time>
      </trkpt>
      <trkpt lat="46.0492" lon="1.85722">
        <ele>532</ele>
        <time>2016-12-16T19:01:09Z</time>
      </trkpt>
      <trkpt lat="46.04919" lon="1.85728">
        <ele>531</ele>
        <time>2016-12-16T19:03:09Z</time>
      </trkpt>
      <trkpt lat="46.04918" lon="1.85732">
        <ele>531</ele>
        <time>2016-12-16T19:05:09Z</time>
      </trkpt>
      <trkpt lat="46.04918" lon="1.85735">
        <ele>531</ele>
        <time>2016-12-16T19:07:09Z</time>
      </trkpt>
      <trkpt lat="46.04919" lon="1.85737">
        <ele>531</ele>
        <time>2016-12-16T19:09:09Z</time>
      </trkpt>
      <trkpt lat="46.04917" lon="1.85745">
        <ele>530</ele>
        <time>2016-12-16T19:11:09Z</time>
      </trkpt>
      <trkpt lat="46.04916" lon="1.85747">
        <ele>530</ele>
        <time>2016-12-16T19:13:09Z</time>
      </trkpt>
      <trkpt lat="46.04915" lon="1.85753">
        <ele>530</ele>
        <time>2016-12-16T19:15:09Z</time>
      </trkpt>
      <trkpt lat="46.04864" lon="1.85804">
        <ele>530</ele>
        <time>2016-12-16T19:17:09Z</time>
      </trkpt>
      <trkpt lat="46.04866" lon="1.85809">
        <ele>530</ele>
        <time>2016-12-16T19:19:09Z</time>
      </trkpt>
      <trkpt lat="46.04855" lon="1.85827">
        <ele>530</ele>
        <time>2016-12-16T19:21:09Z</time>
      </trkpt>
      <trkpt lat="46.04844" lon="1.85847">
        <ele>530</ele>
        <time>2016-12-16T19:23:09Z</time>
      </trkpt>
      <trkpt lat="46.04835" lon="1.85858">
        <ele>530</ele>
        <time>2016-12-16T19:25:09Z</time>
      </trkpt>
      <trkpt lat="46.04825" lon="1.85868">
        <ele>531</ele>
        <time>2016-12-16T19:27:09Z</time>
      </trkpt>
      <trkpt lat="46.04816" lon="1.85881">
        <ele>531</ele>
        <time>2016-12-16T19:29:09Z</time>
      </trkpt>
      <trkpt lat="46.04803" lon="1.85889">
        <ele>531</ele>
        <time>2016-12-16T19:31:09Z</time>
      </trkpt>
      <trkpt lat="46.04792" lon="1.85894">
        <ele>531</ele>
        <time>2016-12-16T19:33:09Z</time>
      </trkpt>
      <trkpt lat="46.04784" lon="1.85902">
        <ele>532</ele>
        <time>2016-12-16T19:35:09Z</time>
      </trkpt>
      <trkpt lat="46.04773" lon="1.85916">
        <ele>532</ele>
        <time>2016-12-16T19:37:09Z</time>
      </trkpt>
      <trkpt lat="46.0476" lon="1.85926">
        <ele>531</ele>
        <time>2016-12-16T19:39:09Z</time>
      </trkpt>
      <trkpt lat="46.04753" lon="1.85932">
        <ele>531</ele>
        <time>2016-12-16T19:41:09Z</time>
      </trkpt>
      <trkpt lat="46.04752" lon="1.85933">
        <ele>531</ele>
        <time>2016-12-16T19:43:09Z</time>
      </trkpt>
      <trkpt lat="46.04748" lon="1.85936">
        <ele>531</ele>
        <time>2016-12-16T19:45:09Z</time>
      </trkpt>
      <trkpt lat="46.04741" lon="1.85943">
        <ele>531</ele>
        <time>2016-12-16T19:47:09Z</time>
      </trkpt>
      <trkpt lat="46.04725" lon="1.8596">
        <ele>530</ele>
        <time>2016-12-16T19:49:09Z</time>
      </trkpt>
      <trkpt lat="46.04723" lon="1.85962">
        <ele>530</ele>
        <time>2016-12-16T19:51:09Z</time>
      </trkpt>
      <trkpt lat="46.04721" lon="1.85967">
        <ele>529</ele>
        <time>2016-12-16T19:53:09Z</time>
      </trkpt>
      <trkpt lat="46.04719" lon="1.8597">
        <ele>529</ele>
        <time>2016-12-16T19:55:09Z</time>
      </trkpt>
      <trkpt lat="46.04717" lon="1.85972">
        <ele>529</ele>
        <time>2016-12-16T19:57:09Z</time>
      </trkpt>
      <trkpt lat="46.04714" lon="1.85979">
        <ele>529</ele>
        <time>2016-12-16T19:59:09Z</time>
      </trkpt>
      <trkpt lat="46.04711" lon="1.85984">
        <ele>528</ele>
        <time>2016-12-16T20:01:09Z</time>
      </trkpt>
      <trkpt lat="46.04707" lon="1.85998">
        <ele>528</ele>
        <time>2016-12-16T20:03:09Z</time>
      </trkpt>
      <trkpt lat="46.04698" lon="1.86025">
        <ele>527</ele>
        <time>2016-12-16T20:05:09Z</time>
      </trkpt>
      <trkpt lat="46.04691" lon="1.86042">
        <ele>526</ele>
        <time>2016-12-16T20:07:09Z</time>
      </trkpt>
      <trkpt lat="46.04687" lon="1.86057">
        <ele>526</ele>
        <time>2016-12-16T20:09:09Z</time>
      </trkpt>
      <trkpt lat="46.04683" lon="1.86062">
        <ele>525</ele>
        <time>2016-12-16T20:11:09Z</time>
      </trkpt>
      <trkpt lat="46.0468" lon="1.86073">
        <ele>525</ele>
        <time>2016-12-16T20:13:09Z</time>
      </trkpt>
      <trkpt lat="46.04677" lon="1.8608">
        <ele>525</ele>
        <time>2016-12-16T20:15:09Z</time>
      </trkpt>
      <trkpt lat="46.04676" lon="1.86082">
        <ele>525</ele>
        <time>2016-12-16T20:17:09Z</time>
      </trkpt>
      <trkpt lat="46.04675" lon="1.86086">
        <ele>525</ele>
        <time>2016-12-16T20:19:09Z</time>
      </trkpt>
      <trkpt lat="46.04668" lon="1.86102">
        <ele>526</ele>
        <time>2016-12-16T20:21:09Z</time>
      </trkpt>
      <trkpt lat="46.04664" lon="1.86121">
        <ele>528</ele>
        <time>2016-12-16T20:23:09Z</time>
      </trkpt>
      <trkpt lat="46.04657" lon="1.8614">
        <ele>529</ele>
        <time>2016-12-16T20:25:09Z</time>
      </trkpt>
      <trkpt lat="46.04651" lon="1.86159">
        <ele>529</ele>
        <time>2016-12-16T20:27:09Z</time>
      </trkpt>
      <trkpt lat="46.04649" lon="1.86168">
        <ele>529</ele>
        <time>2016-12-16T20:29:09Z</time>
      </trkpt>
      <trkpt lat="46.04647" lon="1.86174">
        <ele>529</ele>
        <time>2016-12-16T20:31:09Z</time>
      </trkpt>
      <trkpt lat="46.04646" lon="1.86176">
        <ele>529</ele>
        <time>2016-12-16T20:33:09Z</time>
      </trkpt>
      <trkpt lat="46.04643" lon="1.8619">
        <ele>529</ele>
        <time>2016-12-16T20:35:09Z</time>
      </trkpt>
      <trkpt lat="46.04637" lon="1.86208">
        <ele>528</ele>
        <time>2016-12-16T20:37:09Z</time>
      </trkpt>
      <trkpt lat="46.0463" lon="1.86225">
        <ele>527</ele>
        <time>2016-12-16T20:39:09Z</time>
      </trkpt>
      <trkpt lat="46.04621" lon="1.86242">
        <ele>526</ele>
        <time>2016-12-16T20:41:09Z</time>
      </trkpt>
      <trkpt lat="46.04595" lon="1.86279">
        <ele>525</ele>
        <time>2016-12-16T20:43:09Z</time>
      </trkpt>
      <trkpt lat="46.04587" lon="1.8629">
        <ele>524</ele>
        <time>2016-12-16T20:45:09Z</time>
      </trkpt>
      <trkpt lat="46.04578" lon="1.86308">
        <ele>524</ele>
        <time>2016-12-16T20:47:09Z</time>
      </trkpt>
      <trkpt lat="46.04569" lon="1.86322">
        <ele>524</ele>
        <time>2016-12-16T20:49:09Z</time>
      </trkpt>
      <trkpt lat="46.04568" lon="1.86324">
        <ele>524</ele>
        <time>2016-12-16T20:51:09Z</time>
      </trkpt>
      <trkpt lat="46.04563" lon="1.86334">
        <ele>524</ele>
        <time>2016-12-16T20:53:09Z</time>
      </trkpt>
      <trkpt lat="46.04558" lon="1.86351">
        <ele>526</ele>
        <time>2016-12-16T20:55:09Z</time>
      </trkpt>
      <trkpt lat="46.04554" lon="1.86371">
        <ele>527</ele>
        <time>2016-12-16T20:57:09Z</time>
      </trkpt>
      <trkpt lat="46.04549" lon="1.86386">
        <ele>528</ele>
        <time>2016-12-16T20:59:09Z</time>
      </trkpt>
      <trkpt lat="46.04547" lon="1.86393">
        <ele>528</ele>
        <time>2016-12-16T21:01:09Z</time>
      </trkpt>
      <trkpt lat="46.04547" lon="1.86396">
        <ele>529</ele>
        <time>2016-12-16T21:03:09Z</time>
      </trkpt>
      <trkpt lat="46.0454" lon="1.86418">
        <ele>530</ele>
        <time>2016-12-16T21:05:09Z</time>
      </trkpt>
      <trkpt lat="46.04524" lon="1.86447">
        <ele>532</ele>
        <time>2016-12-16T21:07:09Z</time>
      </trkpt>
      <trkpt lat="46.04523" lon="1.86451">
        <ele>532</ele>
        <time>2016-12-16T21:09:09Z</time>
      </trkpt>
      <trkpt lat="46.04522" lon="1.86455">
        <ele>533</ele>
        <time>2016-12-16T21:11:09Z</time>
      </trkpt>
      <trkpt lat="46.04511" lon="1.86475">
        <ele>534</ele>
        <time>2016-12-16T21:13:09Z</time>
      </trkpt>
      <trkpt lat="46.04504" lon="1.86485">
        <ele>534</ele>
        <time>2016-12-16T21:15:09Z</time>
      </trkpt>
      <trkpt lat="46.04496" lon="1.86487">
        <ele>533</ele>
        <time>2016-12-16T21:17:09Z</time>
      </trkpt>
      <trkpt lat="46.04494" lon="1.86487">
        <ele>533</ele>
        <time>2016-12-16T21:19:09Z</time>
      </trkpt>
      <trkpt lat="46.0449" lon="1.86488">
        <ele>533</ele>
        <time>2016-12-16T21:21:09Z</time>
      </trkpt>
      <trkpt lat="46.04488" lon="1.86487">
        <ele>533</ele>
        <time>2016-12-16T21:23:09Z</time>
      </trkpt>
      <trkpt lat="46.04481" lon="1.86484">
        <ele>532</ele>
        <time>2016-12-16T21:25:09Z</time>
      </trkpt>
      <trkpt lat="46.04471" lon="1.86483">
        <ele>532</ele>
        <time>2016-12-16T21:27:09Z</time>
      </trkpt>
      <trkpt lat="46.04461" lon="1.86483">
        <ele>531</ele>
        <time>2016-12-16T21:29:09Z</time>
      </trkpt>
      <trkpt lat="46.04455" lon="1.86482">
        <ele>530</ele>
        <time>2016-12-16T21:31:09Z</time>
      </trkpt>
      <trkpt lat="46.04452" lon="1.86483">
        <ele>530</ele>
        <time>2016-12-16T21:33:09Z</time>
      </trkpt>
      <trkpt lat="46.04447" lon="1.86482">
        <ele>530</ele>
        <time>2016-12-16T21:35:09Z</time>
      </trkpt>
      <trkpt lat="46.04435" lon="1.86481">
        <ele>529</ele>
        <time>2016-12-16T21:37:09Z</time>
      </trkpt>
      <trkpt lat="46.04423" lon="1.86483">
        <ele>529</ele>
        <time>2016-12-16T21:39:09Z</time>
      </trkpt>
      <trkpt lat="46.044" lon="1.86491">
        <ele>528</ele>
        <time>2016-12-16T21:41:09Z</time>
      </trkpt>
      <trkpt lat="46.04386" lon="1.86497">
        <ele>528</ele>
        <time>2016-12-16T21:43:09Z</time>
      </trkpt>
      <trkpt lat="46.04372" lon="1.86495">
        <ele>528</ele>
        <time>2016-12-16T21:45:09Z</time>
      </trkpt>
      <trkpt lat="46.04364" lon="1.8649">
        <ele>527</ele>
        <time>2016-12-16T21:47:09Z</time>
      </trkpt>
      <trkpt lat="46.04361" lon="1.86487">
        <ele>527</ele>
        <time>2016-12-16T21:49:09Z</time>
      </trkpt>
      <trkpt lat="46.04351" lon="1.86482">
        <ele>526</ele>
        <time>2016-12-16T21:51:09Z</time>
      </trkpt>
      <trkpt lat="46.04348" lon="1.86483">
        <ele>526</ele>
        <time>2016-12-16T21:53:09Z</time>
      </trkpt>
      <trkpt lat="46.04345" lon="1.86482">
        <ele>526</ele>
        <time>2016-12-16T21:55:09Z</time>
      </trkpt>
      <trkpt lat="46.0434" lon="1.86482">
        <ele>526</ele>
        <time>2016-12-16T21:57:09Z</time>
      </trkpt>
      <trkpt lat="46.04327" lon="1.86478">
        <ele>525</ele>
        <time>2016-12-16T21:59:09Z</time>
      </trkpt>
      <trkpt lat="46.04313" lon="1.86486">
        <ele>525</ele>
        <time>2016-12-16T22:01:09Z</time>
      </trkpt>
      <trkpt lat="46.04308" lon="1.86485">
        <ele>525</ele>
        <time>2016-12-16T22:03:09Z</time>
      </trkpt>
      <trkpt lat="46.04294" lon="1.86492">
        <ele>524</ele>
        <time>2016-12-16T22:05:09Z</time>
      </trkpt>
      <trkpt lat="46.04291" lon="1.86495">
        <ele>524</ele>
        <time>2016-12-16T22:07:09Z</time>
      </trkpt>
      <trkpt lat="46.04282" lon="1.865">
        <ele>524</ele>
        <time>2016-12-16T22:09:09Z</time>
      </trkpt>
      <trkpt lat="46.04267" lon="1.865">
        <ele>523</ele>
        <time>2016-12-16T22:11:09Z</time>
      </trkpt>
      <trkpt lat="46.04255" lon="1.86502">
        <ele>522</ele>
        <time>2016-12-16T22:13:09Z</time>
      </trkpt>
      <trkpt lat="46.04244" lon="1.86496">
        <ele>522</ele>
        <time>2016-12-16T22:15:09Z</time>
      </trkpt>
      <trkpt lat="46.04232" lon="1.86488">
        <ele>523</ele>
        <time>2016-12-16T22:17:09Z</time>
      </trkpt>
      <trkpt lat="46.04223" lon="1.86483">
        <ele>524</ele>
        <time>2016-12-16T22:19:09Z</time>
      </trkpt>
      <trkpt lat="46.04214" lon="1.86475">
        <ele>525</ele>
        <time>2016-12-16T22:21:09Z</time>
      </trkpt>
      <trkpt lat="46.04208" lon="1.86469">
        <ele>526</ele>
        <time>2016-12-16T22:23:09Z</time>
      </trkpt>
      <trkpt lat="46.04207" lon="1.86467">
        <ele>526</ele>
        <time>2016-12-16T22:25:09Z</time>
      </trkpt>
      <trkpt lat="46.04207" lon="1.8647">
        <ele>526</ele>
        <time>2016-12-16T22:27:09Z</time>
      </trkpt>
      <trkpt lat="46.04206" lon="1.86469">
        <ele>526</ele>
        <time>2016-12-16T22:29:09Z</time>
      </trkpt>
      <trkpt lat="46.04204" lon="1.86468">
        <ele>526</ele>
        <time>2016-12-16T22:31:09Z</time>
      </trkpt>
      <trkpt lat="46.04202" lon="1.86468">
        <ele>526</ele>
        <time>2016-12-16T22:33:09Z</time>
      </trkpt>
      <trkpt lat="46.04198" lon="1.86467">
        <ele>527</ele>
        <time>2016-12-16T22:35:09Z</time>
      </trkpt>
      <trkpt lat="46.04193" lon="1.86464">
        <ele>527</ele>
        <time>2016-12-16T22:37:09Z</time>
      </trkpt>
      <trkpt lat="46.04168" lon="1.86442">
        <ele>533</ele>
        <time>2016-12-16T22:39:09Z</time>
      </trkpt>
      <trkpt lat="46.04156" lon="1.86428">
        <ele>538</ele>
        <time>2016-12-16T22:41:09Z</time>
      </trkpt>
      <trkpt lat="46.04158" lon="1.86465">
        <ele>532</ele>
        <time>2016-12-16T22:43:09Z</time>
      </trkpt>
      <trkpt lat="46.04158" lon="1.86465">
        <ele>532</ele>
        <time>2016-12-16T22:45:09Z</time>
      </trkpt>
      <trkpt lat="46.04157" lon="1.86465">
        <ele>532</ele>
        <time>2016-12-16T22:47:09Z</time>
      </trkpt>
      <trkpt lat="46.04154" lon="1.86465">
        <ele>533</ele>
        <time>2016-12-16T22:49:09Z</time>
      </trkpt>
      <trkpt lat="46.04137" lon="1.86479">
        <ele>535</ele>
        <time>2016-12-16T22:51:09Z</time>
      </trkpt>
      <trkpt lat="46.04115" lon="1.86492">
        <ele>539</ele>
        <time>2016-12-16T22:53:09Z</time>
      </trkpt>
      <trkpt lat="46.04106" lon="1.86497">
        <ele>540</ele>
        <time>2016-12-16T22:55:09Z</time>
      </trkpt>
      <trkpt lat="46.04102" lon="1.865">
        <ele>541</ele>
        <time>2016-12-16T22:57:09Z</time>
      </trkpt>
      <trkpt lat="46.04093" lon="1.86508">
        <ele>542</ele>
        <time>2016-12-16T22:59:09Z</time>
      </trkpt>
      <trkpt lat="46.04079" lon="1.8652">
        <ele>544</ele>
        <time>2016-12-16T23:01:09Z</time>
      </trkpt>
      <trkpt lat="46.0407" lon="1.86521">
        <ele>546</ele>
        <time>2016-12-16T23:03:09Z</time>
      </trkpt>
      <trkpt lat="46.04066" lon="1.86523">
        <ele>546</ele>
        <time>2016-12-16T23:05:09Z</time>
      </trkpt>
      <trkpt lat="46.04063" lon="1.86524">
        <ele>547</ele>
        <time>2016-12-16T23:07:09Z</time>
      </trkpt>
      <trkpt lat="46.04059" lon="1.86526">
        <ele>547</ele>
        <time>2016-12-16T23:09:09Z</time>
      </trkpt>
      <trkpt lat="46.04056" lon="1.86526">
        <ele>548</ele>
        <time>2016-12-16T23:11:09Z</time>
      </trkpt>
      <trkpt lat="46.04053" lon="1.86527">
        <ele>548</ele>
        <time>2016-12-16T23:13:09Z</time>
      </trkpt>
      <trkpt lat="46.0405" lon="1.86529">
        <ele>548</ele>
        <time>2016-12-16T23:15:09Z</time>
      </trkpt>
      <trkpt lat="46.04044" lon="1.86533">
        <ele>549</ele>
        <time>2016-12-16T23:17:09Z</time>
      </trkpt>
      <trkpt lat="46.0403" lon="1.8654">
        <ele>551</ele>
        <time>2016-12-16T23:19:09Z</time>
      </trkpt>
      <trkpt lat="46.04024" lon="1.86542">
        <ele>552</ele>
        <time>2016-12-16T23:21:09Z</time>
      </trkpt>
      <trkpt lat="46.04023" lon="1.86542">
        <ele>552</ele>
        <time>2016-12-16T23:23:09Z</time>
      </trkpt>
      <trkpt lat="46.04021" lon="1.86542">
        <ele>553</ele>
        <time>2016-12-16T23:25:09Z</time>
      </trkpt>
      <trkpt lat="46.04015" lon="1.86547">
        <ele>554</ele>
        <time>2016-12-16T23:27:09Z</time>
      </trkpt>
      <trkpt lat="46.04044" lon="1.86564">
        <ele>546</ele>
        <time>2016-12-16T23:29:09Z</time>
      </trkpt>
      <trkpt lat="46.04045" lon="1.86565">
        <ele>546</ele>
        <time>2016-12-16T23:31:09Z</time>
      </trkpt>
      <trkpt lat="46.04044" lon="1.86566">
        <ele>546</ele>
        <time>2016-12-16T23:33:09Z</time>
      </trkpt>
      <trkpt lat="46.04044" lon="1.86566">
        <ele>546</ele>
        <time>2016-12-16T23:35:09Z</time>
      </trkpt>
      <trkpt lat="46.04042" lon="1.86567">
        <ele>546</ele>
        <time>2016-12-16T23:37:09Z</time>
      </trkpt>
      <trkpt lat="46.04028" lon="1.86578">
        <ele>548</ele>
        <time>2016-12-16T23:39:09Z</time>
      </trkpt>
      <trkpt lat="46.04009" lon="1.86604">
        <ele>551</ele>
        <time>2016-12-16T23:41:09Z</time>
      </trkpt>
      <trkpt lat="46.04006" lon="1.86608">
        <ele>552</ele>
        <time>2016-12-16T23:43:09Z</time>
      </trkpt>
      <trkpt lat="46.04" lon="1.86616">
        <ele>553</ele>
        <time>2016-12-16T23:45:09Z</time>
      </trkpt>
      <trkpt lat="46.03989" lon="1.86633">
        <ele>555</ele>
        <time>2016-12-16T23:47:09Z</time>
      </trkpt>
      <trkpt lat="46.03988" lon="1.8664">
        <ele>555</ele>
        <time>2016-12-16T23:49:09Z</time>
      </trkpt>
      <trkpt lat="46.03985" lon="1.86655">
        <ele>556</ele>
        <time>2016-12-16T23:51:09Z</time>
      </trkpt>
      <trkpt lat="46.03984" lon="1.86675">
        <ele>556</ele>
        <time>2016-12-16T23:53:09Z</time>
      </trkpt>
      <trkpt lat="46.03983" lon="1.86692">
        <ele>557</ele>
        <time>2016-12-16T23:55:09Z</time>
      </trkpt>
      <trkpt lat="46.03984" lon="1.86696">
        <ele>557</ele>
        <time>2016-12-16T23:57:09Z</time>
      </trkpt>
      <trkpt lat="46.03991" lon="1.86705">
        <ele>555</ele>
        <time>2016-12-16T23:59:09Z</time>
      </trkpt>
      <trkpt lat="46.03992" lon="1.86709">
        <ele>555</ele>
        <time>2016-12-17T00:01:09Z</time>
      </trkpt>
      <trkpt lat="46.03993" lon="1.86713">
        <ele>555</ele>
        <time>2016-12-17T00:03:09Z</time>
      </trkpt>
      <trkpt lat="46.03993" lon="1.8673">
        <ele>556</ele>
        <time>2016-12-17T00:05:09Z</time>
      </trkpt>
      <trkpt lat="46.03993" lon="1.86733">
        <ele>556</ele>
        <time>2016-12-17T00:07:09Z</time>
      </trkpt>
      <trkpt lat="46.04051" lon="1.86736">
        <ele>543</ele>
        <time>2016-12-17T00:09:09Z</time>
      </trkpt>
      <trkpt lat="46.04055" lon="1.86738">
        <ele>542</ele>
        <time>2016-12-17T00:11:09Z</time>
      </trkpt>
      <trkpt lat="46.04062" lon="1.86741">
        <ele>541</ele>
        <time>2016-12-17T00:13:09Z</time>
      </trkpt>
      <trkpt lat="46.04064" lon="1.86741">
        <ele>540</ele>
        <time>2016-12-17T00:15:09Z</time>
      </trkpt>
      <trkpt lat="46.04069" lon="1.86741">
        <ele>539</ele>
        <time>2016-12-17T00:17:09Z</time>
      </trkpt>
      <trkpt lat="46.04071" lon="1.86742">
        <ele>539</ele>
        <time>2016-12-17T00:19:09Z</time>
      </trkpt>
      <trkpt lat="46.04078" lon="1.86748">
        <ele>537</ele>
        <time>2016-12-17T00:21:09Z</time>
      </trkpt>
      <trkpt lat="46.04079" lon="1.8675">
        <ele>537</ele>
        <time>2016-12-17T00:23:09Z</time>
      </trkpt>
      <trkpt lat="46.04084" lon="1.86758">
        <ele>536</ele>
        <time>2016-12-17T00:25:09Z</time>
      </trkpt>
      <trkpt lat="46.04091" lon="1.86773">
        <ele>535</ele>
        <time>2016-12-17T00:27:09Z</time>
      </trkpt>
      <trkpt lat="46.04098" lon="1.86786">
        <ele>534</ele>
        <time>2016-12-17T00:29:09Z</time>
      </trkpt>
      <trkpt lat="46.04101" lon="1.86799">
        <ele>533</ele>
        <time>2016-12-17T00:31:09Z</time>
      </trkpt>
      <trkpt lat="46.04102" lon="1.86806">
        <ele>533</ele>
        <time>2016-12-17T00:33:09Z</time>
      </trkpt>
      <trkpt lat="46.04102" lon="1.8681">
        <ele>533</ele>
        <time>2016-12-17T00:35:09Z</time>
      </trkpt>
      <trkpt lat="46.04101" lon="1.86817">
        <ele>533</ele>
        <time>2016-12-17T00:37:09Z</time>
      </trkpt>
      <trkpt lat="46.04101" lon="1.86819">
        <ele>533</ele>
        <time>2016-12-17T00:39:09Z</time>
      </trkpt>
      <trkpt lat="46.04099" lon="1.86826">
        <ele>533</ele>
        <time>2016-12-17T00:41:09Z</time>
      </trkpt>
      <trkpt lat="46.04098" lon="1.86843">
        <ele>534</ele>
        <time>2016-12-17T00:43:09Z</time>
      </trkpt>
      <trkpt lat="46.04095" lon="1.86851">
        <ele>534</ele>
        <time>2016-12-17T00:45:09Z</time>
      </trkpt>
      <trkpt lat="46.04092" lon="1.86861">
        <ele>535</ele>
        <time>2016-12-17T00:47:09Z</time>
      </trkpt>
      <trkpt lat="46.04093" lon="1.86864">
        <ele>535</ele>
        <time>2016-12-17T00:49:09Z</time>
      </trkpt>
      <trkpt lat="46.04093" lon="1.86867">
        <ele>535</ele>
        <time>2016-12-17T00:51:09Z</time>
      </trkpt>
      <trkpt lat="46.0409" lon="1.86878">
        <ele>536</ele>
        <time>2016-12-17T00:53:09Z</time>
      </trkpt>
      <trkpt lat="46.0409" lon="1.86885">
        <ele>536</ele>
        <time>2016-12-17T00:55:09Z</time>
      </trkpt>
      <trkpt lat="46.0409" lon="1.86889">
        <ele>536</ele>
        <time>2016-12-17T00:57:09Z</time>
      </trkpt>
      <trkpt lat="46.0409" lon="1.869">
        <ele>537</ele>
        <time>2016-12-17T00:59:09Z</time>
      </trkpt>
      <trkpt lat="46.0409" lon="1.86903">
        <ele>537</ele>
        <time>2016-12-17T01:01:09Z</time>
      </trkpt>
      <trkpt lat="46.04092" lon="1.8691">
        <ele>537</ele>
        <time>2016-12-17T01:03:09Z</time>
      </trkpt>
      <trkpt lat="46.04074" lon="1.86949">
        <ele>540</ele>
        <time>2016-12-17T01:05:09Z</time>
      </trkpt>
      <trkpt lat="46.04061" lon="1.86976">
        <ele>542</ele>
        <time>2016-12-17T01:07:09Z</time>
      </trkpt>
      <trkpt lat="46.04058" lon="1.8698">
        <ele>543</ele>
        <time>2016-12-17T01:09:09Z</time>
      </trkpt>
      <trkpt lat="46.04056" lon="1.86982">
        <ele>543</ele>
        <time>2016-12-17T01:11:09Z</time>
      </trkpt>
      <trkpt lat="46.04046" lon="1.86991">
        <ele>544</ele>
        <time>2016-12-17T01:13:09Z</time>
      </trkpt>
      <trkpt lat="46.04045" lon="1.86992">
        <ele>544</ele>
        <time>2016-12-17T01:15:09Z</time>
      </trkpt>
      <trkpt lat="46.04043" lon="1.86992">
        <ele>545</ele>
        <time>2016-12-17T01:17:09Z</time>
      </trkpt>
      <trkpt lat="46.04041" lon="1.86993">
        <ele>545</ele>
        <time>2016-12-17T01:19:09Z</time>
      </trkpt>
      <trkpt lat="46.04027" lon="1.87003">
        <ele>547</ele>
        <time>2016-12-17T01:21:09Z</time>
      </trkpt>
      <trkpt lat="46.04006" lon="1.87015">
        <ele>549</ele>
        <time>2016-12-17T01:23:09Z</time>
      </trkpt>
      <trkpt lat="46.04004" lon="1.87017">
        <ele>550</ele>
        <time>2016-12-17T01:25:09Z</time>
      </trkpt>
      <trkpt lat="46.03992" lon="1.8703">
        <ele>551</ele>
        <time>2016-12-17T01:27:09Z</time>
      </trkpt>
      <trkpt lat="46.03987" lon="1.87032">
        <ele>552</ele>
        <time>2016-12-17T01:29:09Z</time>
      </trkpt>
      <trkpt lat="46.03977" lon="1.87034">
        <ele>554</ele>
        <time>2016-12-17T01:31:09Z</time>
      </trkpt>
      <trkpt lat="46.03972" lon="1.87037">
        <ele>555</ele>
        <time>2016-12-17T01:33:09Z</time>
      </trkpt>
      <trkpt lat="46.03966" lon="1.87038">
        <ele>555</ele>
        <time>2016-12-17T01:35:09Z</time>
      </trkpt>
      <trkpt lat="46.03964" lon="1.8704">
        <ele>556</ele>
        <time>2016-12-17T01:37:09Z</time>
      </trkpt>
      <trkpt lat="46.03961" lon="1.87042">
        <ele>556</ele>
        <time>2016-12-17T01:39:09Z</time>
      </trkpt>
      <trkpt lat="46.03959" lon="1.87043">
        <ele>557</ele>
        <time>2016-12-17T01:41:09Z</time>
      </trkpt>
      <trkpt lat="46.03956" lon="1.87046">
        <ele>557</ele>
        <time>2016-12-17T01:43:09Z</time>
      </trkpt>
      <trkpt lat="46.0395" lon="1.87053">
        <ele>558</ele>
        <time>2016-12-17T01:45:09Z</time>
      </trkpt>
      <trkpt lat="46.03946" lon="1.87059">
        <ele>559</ele>
        <time>2016-12-17T01:47:09Z</time>
      </trkpt>
      <trkpt lat="46.03945" lon="1.87061">
        <ele>559</ele>
        <time>2016-12-17T01:49:09Z</time>
      </trkpt>
      <trkpt lat="46.03944" lon="1.87064">
        <ele>559</ele>
        <time>2016-12-17T01:51:09Z</time>
      </trkpt>
      <trkpt lat="46.0394" lon="1.87069">
        <ele>560</ele>
        <time>2016-12-17T01:53:09Z</time>
      </trkpt>
      <trkpt lat="46.03938" lon="1.87072">
        <ele>560</ele>
        <time>2016-12-17T01:55:09Z</time>
      </trkpt>
      <trkpt lat="46.03937" lon="1.87075">
        <ele>561</ele>
        <time>2016-12-17T01:57:09Z</time>
      </trkpt>
      <trkpt lat="46.03935" lon="1.87079">
        <ele>561</ele>
        <time>2016-12-17T01:59:09Z</time>
      </trkpt>
      <trkpt lat="46.03933" lon="1.87083">
        <ele>561</ele>
        <time>2016-12-17T02:01:09Z</time>
      </trkpt>
      <trkpt lat="46.03932" lon="1.87088">
        <ele>562</ele>
        <time>2016-12-17T02:03:09Z</time>
      </trkpt>
      <trkpt lat="46.03929" lon="1.87095">
        <ele>563</ele>
        <time>2016-12-17T02:05:09Z</time>
      </trkpt>
      <trkpt lat="46.03928" lon="1.871">
        <ele>563</ele>
        <time>2016-12-17T02:07:09Z</time>
      </trkpt>
      <trkpt lat="46.03927" lon="1.87102">
        <ele>564</ele>
        <time>2016-12-17T02:09:09Z</time>
      </trkpt>
      <trkpt lat="46.03926" lon="1.87109">
        <ele>564</ele>
        <time>2016-12-17T02:11:09Z</time>
      </trkpt>
      <trkpt lat="46.03926" lon="1.8711">
        <ele>564</ele>
        <time>2016-12-17T02:13:09Z</time>
      </trkpt>
      <trkpt lat="46.03924" lon="1.87113">
        <ele>565</ele>
        <time>2016-12-17T02:15:09Z</time>
      </trkpt>
      <trkpt lat="46.03924" lon="1.87115">
        <ele>565</ele>
        <time>2016-12-17T02:17:09Z</time>
      </trkpt>
      <trkpt lat="46.03923" lon="1.87119">
        <ele>566</ele>
        <time>2016-12-17T02:19:09Z</time>
      </trkpt>
      <trkpt lat="46.03918" lon="1.87131">
        <ele>567</ele>
        <time>2016-12-17T02:21:09Z</time>
      </trkpt>
      <trkpt lat="46.03915" lon="1.87137">
        <ele>568</ele>
        <time>2016-12-17T02:23:09Z</time>
      </trkpt>
      <trkpt lat="46.03913" lon="1.87141">
        <ele>569</ele>
        <time>2016-12-17T02:25:09Z</time>
      </trkpt>
      <trkpt lat="46.03912" lon="1.87145">
        <ele>569</ele>
        <time>2016-12-17T02:27:09Z</time>
      </trkpt>
      <trkpt lat="46.03912" lon="1.87151">
        <ele>570</ele>
        <time>2016-12-17T02:29:09Z</time>
      </trkpt>
      <trkpt lat="46.03911" lon="1.87156">
        <ele>570</ele>
        <time>2016-12-17T02:31:09Z</time>
      </trkpt>
      <trkpt lat="46.03907" lon="1.87166">
        <ele>571</ele>
        <time>2016-12-17T02:33:09Z</time>
      </trkpt>
      <trkpt lat="46.03907" lon="1.87169">
        <ele>572</ele>
        <time>2016-12-17T02:35:09Z</time>
      </trkpt>
      <trkpt lat="46.03906" lon="1.87174">
        <ele>573</ele>
        <time>2016-12-17T02:37:09Z</time>
      </trkpt>
      <trkpt lat="46.03906" lon="1.8718">
        <ele>573</ele>
        <time>2016-12-17T02:39:09Z</time>
      </trkpt>
      <trkpt lat="46.03906" lon="1.87183">
        <ele>574</ele>
        <time>2016-12-17T02:41:09Z</time>
      </trkpt>
      <trkpt lat="46.03908" lon="1.87187">
        <ele>574</ele>
        <time>2016-12-17T02:43:09Z</time>
      </trkpt>
      <trkpt lat="46.03909" lon="1.8719">
        <ele>574</ele>
        <time>2016-12-17T02:45:09Z</time>
      </trkpt>
      <trkpt lat="46.0391" lon="1.87198">
        <ele>575</ele>
        <time>2016-12-17T02:47:09Z</time>
      </trkpt>
      <trkpt lat="46.03911" lon="1.87209">
        <ele>577</ele>
        <time>2016-12-17T02:49:09Z</time>
      </trkpt>
      <trkpt lat="46.0391" lon="1.87213">
        <ele>578</ele>
        <time>2016-12-17T02:51:09Z</time>
      </trkpt>
      <trkpt lat="46.03907" lon="1.87223">
        <ele>579</ele>
        <time>2016-12-17T02:53:09Z</time>
      </trkpt>
      <trkpt lat="46.03906" lon="1.87228">
        <ele>580</ele>
        <time>2016-12-17T02:55:09Z</time>
      </trkpt>
      <trkpt lat="46.03904" lon="1.87236">
        <ele>582</ele>
        <time>2016-12-17T02:57:09Z</time>
      </trkpt>
      <trkpt lat="46.03903" lon="1.87241">
        <ele>583</ele>
        <time>2016-12-17T02:59:09Z</time>
      </trkpt>
      <trkpt lat="46.03899" lon="1.8725">
        <ele>584</ele>
        <time>2016-12-17T03:01:09Z</time>
      </trkpt>
      <trkpt lat="46.03896" lon="1.87256">
        <ele>585</ele>
        <time>2016-12-17T03:03:09Z</time>
      </trkpt>
      <trkpt lat="46.03892" lon="1.87262">
        <ele>586</ele>
        <time>2016-12-17T03:05:09Z</time>
      </trkpt>
      <trkpt lat="46.03872" lon="1.87279">
        <ele>589</ele>
        <time>2016-12-17T03:07:09Z</time>
      </trkpt>
      <trkpt lat="46.03867" lon="1.87286">
        <ele>590</ele>
        <time>2016-12-17T03:09:09Z</time>
      </trkpt>
      <trkpt lat="46.03857" lon="1.87294">
        <ele>592</ele>
        <time>2016-12-17T03:11:09Z</time>
      </trkpt>
      <trkpt lat="46.03854" lon="1.87295">
        <ele>593</ele>
        <time>2016-12-17T03:13:09Z</time>
      </trkpt>
      <trkpt lat="46.03852" lon="1.87295">
        <ele>593</ele>
        <time>2016-12-17T03:15:09Z</time>
      </trkpt>
      <trkpt lat="46.03845" lon="1.87297">
        <ele>594</ele>
        <time>2016-12-17T03:17:09Z</time>
      </trkpt>
      <trkpt lat="46.03836" lon="1.87297">
        <ele>595</ele>
        <time>2016-12-17T03:19:09Z</time>
      </trkpt>
      <trkpt lat="46.03829" lon="1.87295">
        <ele>596</ele>
        <time>2016-12-17T03:21:09Z</time>
      </trkpt>
      <trkpt lat="46.03821" lon="1.87294">
        <ele>597</ele>
        <time>2016-12-17T03:23:09Z</time>
      </trkpt>
      <trkpt lat="46.03819" lon="1.87294">
        <ele>597</ele>
        <time>2016-12-17T03:25:09Z</time>
      </trkpt>
      <trkpt lat="46.03796" lon="1.87308">
        <ele>600</ele>
        <time>2016-12-17T03:27:09Z</time>
      </trkpt>
      <trkpt lat="46.03794" lon="1.8731">
        <ele>600</ele>
        <time>2016-12-17T03:29:09Z</time>
      </trkpt>
      <trkpt lat="46.03791" lon="1.8731">
        <ele>600</ele>
        <time>2016-12-17T03:31:09Z</time>
      </trkpt>
      <trkpt lat="46.03769" lon="1.87324">
        <ele>603</ele>
        <time>2016-12-17T03:33:09Z</time>
      </trkpt>
      <trkpt lat="46.03765" lon="1.87327">
        <ele>603</ele>
        <time>2016-12-17T03:35:09Z</time>
      </trkpt>
      <trkpt lat="46.03756" lon="1.87336">
        <ele>605</ele>
        <time>2016-12-17T03:37:09Z</time>
      </trkpt>
      <trkpt lat="46.03753" lon="1.87337">
        <ele>605</ele>
        <time>2016-12-17T03:39:09Z</time>
      </trkpt>
      <trkpt lat="46.03751" lon="1.87338">
        <ele>605</ele>
        <time>2016-12-17T03:41:09Z</time>
      </trkpt>
      <trkpt lat="46.03741" lon="1.87336">
        <ele>605</ele>
        <time>2016-12-17T03:43:09Z</time>
      </trkpt>
      <trkpt lat="46.03737" lon="1.87335">
        <ele>605</ele>
        <time>2016-12-17T03:45:09Z</time>
      </trkpt>
      <trkpt lat="46.03627" lon="1.87329">
        <ele>601</ele>
        <time>2016-12-17T03:47:09Z</time>
      </trkpt>
      <trkpt lat="46.03621" lon="1.87315">
        <ele>602</ele>
        <time>2016-12-17T03:49:09Z</time>
      </trkpt>
      <trkpt lat="46.03606" lon="1.87287">
        <ele>602</ele>
        <time>2016-12-17T03:51:09Z</time>
      </trkpt>
      <trkpt lat="46.03603" lon="1.87282">
        <ele>603</ele>
        <time>2016-12-17T03:53:09Z</time>
      </trkpt>
      <trkpt lat="46.03599" lon="1.87277">
        <ele>603</ele>
        <time>2016-12-17T03:55:09Z</time>
      </trkpt>
      <trkpt lat="46.03594" lon="1.87274">
        <ele>603</ele>
        <time>2016-12-17T03:57:09Z</time>
      </trkpt>
      <trkpt lat="46.0358" lon="1.87265">
        <ele>603</ele>
        <time>2016-12-17T03:59:09Z</time>
      </trkpt>
      <trkpt lat="46.03566" lon="1.87254">
        <ele>604</ele>
        <time>2016-12-17T04:01:09Z</time>
      </trkpt>
      <trkpt lat="46.0356" lon="1.87247">
        <ele>604</ele>
        <time>2016-12-17T04:03:09Z</time>
      </trkpt>
      <trkpt lat="46.03557" lon="1.87246">
        <ele>604</ele>
        <time>2016-12-17T04:05:09Z</time>
      </trkpt>
      <trkpt lat="46.03548" lon="1.87245">
        <ele>604</ele>
        <time>2016-12-17T04:07:09Z</time>
      </trkpt>
      <trkpt lat="46.03531" lon="1.87238">
        <ele>605</ele>
        <time>2016-12-17T04:09:09Z</time>
      </trkpt>
      <trkpt lat="46.03524" lon="1.87233">
        <ele>605</ele>
        <time>2016-12-17T04:11:09Z</time>
      </trkpt>
      <trkpt lat="46.0352" lon="1.87228">
        <ele>605</ele>
        <time>2016-12-17T04:13:09Z</time>
      </trkpt>
      <trkpt lat="46.03512" lon="1.87218">
        <ele>606</ele>
        <time>2016-12-17T04:15:09Z</time>
      </trkpt>
      <trkpt lat="46.03495" lon="1.872">
        <ele>608</ele>
        <time>2016-12-17T04:17:09Z</time>
      </trkpt>
      <trkpt lat="46.03469" lon="1.87172">
        <ele>614</ele>
        <time>2016-12-17T04:19:09Z</time>
      </trkpt>
      <trkpt lat="46.03462" lon="1.87167">
        <ele>615</ele>
        <time>2016-12-17T04:21:09Z</time>
      </trkpt>
      <trkpt lat="46.03458" lon="1.87164">
        <ele>616</ele>
        <time>2016-12-17T04:23:09Z</time>
      </trkpt>
      <trkpt lat="46.0345" lon="1.87156">
        <ele>618</ele>
        <time>2016-12-17T04:25:09Z</time>
      </trkpt>
      <trkpt lat="46.03448" lon="1.87154">
        <ele>618</ele>
        <time>2016-12-17T04:27:09Z</time>
      </trkpt>
      <trkpt lat="46.03447" lon="1.87151">
        <ele>619</ele>
        <time>2016-12-17T04:29:09Z</time>
      </trkpt>
      <trkpt lat="46.03437" lon="1.87135">
        <ele>622</ele>
        <time>2016-12-17T04:31:09Z</time>
      </trkpt>
      <trkpt lat="46.03431" lon="1.87128">
        <ele>623</ele>
        <time>2016-12-17T04:33:09Z</time>
      </trkpt>
      <trkpt lat="46.03426" lon="1.87123">
        <ele>624</ele>
        <time>2016-12-17T04:35:09Z</time>
      </trkpt>
      <trkpt lat="46.03419" lon="1.87117">
        <ele>626</ele>
        <time>2016-12-17T04:37:09Z</time>
      </trkpt>
      <trkpt lat="46.0341" lon="1.87108">
        <ele>627</ele>
        <time>2016-12-17T04:39:09Z</time>
      </trkpt>
      <trkpt lat="46.03407" lon="1.87104">
        <ele>627</ele>
        <time>2016-12-17T04:41:09Z</time>
      </trkpt>
      <trkpt lat="46.03405" lon="1.87102">
        <ele>627</ele>
        <time>2016-12-17T04:43:09Z</time>
      </trkpt>
      <trkpt lat="46.03399" lon="1.87096">
        <ele>628</ele>
        <time>2016-12-17T04:45:09Z</time>
      </trkpt>
      <trkpt lat="46.03386" lon="1.87091">
        <ele>629</ele>
        <time>2016-12-17T04:47:09Z</time>
      </trkpt>
      <trkpt lat="46.03383" lon="1.87091">
        <ele>629</ele>
        <time>2016-12-17T04:49:09Z</time>
      </trkpt>
      <trkpt lat="46.03382" lon="1.87091">
        <ele>629</ele>
        <time>2016-12-17T04:51:09Z</time>
      </trkpt>
      <trkpt lat="46.03366" lon="1.87079">
        <ele>630</ele>
        <time>2016-12-17T04:53:09Z</time>
      </trkpt>
      <trkpt lat="46.03361" lon="1.87074">
        <ele>630</ele>
        <time>2016-12-17T04:55:09Z</time>
      </trkpt>
      <trkpt lat="46.03359" lon="1.87073">
        <ele>631</ele>
        <time>2016-12-17T04:57:09Z</time>
      </trkpt>
      <trkpt lat="46.03355" lon="1.87069">
        <ele>631</ele>
        <time>2016-12-17T04:59:09Z</time>
      </trkpt>
      <trkpt lat="46.03352" lon="1.87066">
        <ele>631</ele>
        <time>2016-12-17T05:01:09Z</time>
      </trkpt>
      <trkpt lat="46.03346" lon="1.87066">
        <ele>631</ele>
        <time>2016-12-17T05:03:09Z</time>
      </trkpt>
      <trkpt lat="46.03343" lon="1.87062">
        <ele>632</ele>
        <time>2016-12-17T05:05:09Z</time>
      </trkpt>
      <trkpt lat="46.03337" lon="1.87043">
        <ele>633</ele>
        <time>2016-12-17T05:07:09Z</time>
      </trkpt>
      <trkpt lat="46.03335" lon="1.87032">
        <ele>634</ele>
        <time>2016-12-17T05:09:09Z</time>
      </trkpt>
      <trkpt lat="46.03334" lon="1.87025">
        <ele>635</ele>
        <time>2016-12-17T05:11:09Z</time>
      </trkpt>
      <trkpt lat="46.03332" lon="1.87021">
        <ele>635</ele>
        <time>2016-12-17T05:13:09Z</time>
      </trkpt>
      <trkpt lat="46.03332" lon="1.87005">
        <ele>637</ele>
        <time>2016-12-17T05:15:09Z</time>
      </trkpt>
      <trkpt lat="46.03332" lon="1.86995">
        <ele>638</ele>
        <time>2016-12-17T05:17:09Z</time>
      </trkpt>
      <trkpt lat="46.0334" lon="1.86955">
        <ele>640</ele>
        <time>2016-12-17T05:19:09Z</time>
      </trkpt>
      <trkpt lat="46.03342" lon="1.86949">
        <ele>641</ele>
        <time>2016-12-17T05:21:09Z</time>
      </trkpt>
      <trkpt lat="46.03343" lon="1.86943">
        <ele>641</ele>
        <time>2016-12-17T05:23:09Z</time>
      </trkpt>
      <trkpt lat="46.03344" lon="1.86929">
        <ele>642</ele>
        <time>2016-12-17T05:25:09Z</time>
      </trkpt>
      <trkpt lat="46.03345" lon="1.86926">
        <ele>642</ele>
        <time>2016-12-17T05:27:09Z</time>
      </trkpt>
      <trkpt lat="46.03346" lon="1.86923">
        <ele>643</ele>
        <time>2016-12-17T05:29:09Z</time>
      </trkpt>
      <trkpt lat="46.03347" lon="1.86921">
        <ele>643</ele>
        <time>2016-12-17T05:31:09Z</time>
      </trkpt>
      <trkpt lat="46.03346" lon="1.8692">
        <ele>643</ele>
        <time>2016-12-17T05:33:09Z</time>
      </trkpt>
      <trkpt lat="46.03342" lon="1.8692">
        <ele>643</ele>
        <time>2016-12-17T05:35:09Z</time>
      </trkpt>
      <trkpt lat="46.03337" lon="1.86915">
        <ele>643</ele>
        <time>2016-12-17T05:37:09Z</time>
      </trkpt>
      <trkpt lat="46.03289" lon="1.86943">
        <ele>645</ele>
        <time>2016-12-17T05:39:09Z</time>
      </trkpt>
      <trkpt lat="46.0329" lon="1.86945">
        <ele>645</ele>
        <time>2016-12-17T05:41:09Z</time>
      </trkpt>
      <trkpt lat="46.0329" lon="1.86947">
        <ele>645</ele>
        <time>2016-12-17T05:43:09Z</time>
      </trkpt>
      <trkpt lat="46.03288" lon="1.86948">
        <ele>645</ele>
        <time>2016-12-17T05:45:09Z</time>
      </trkpt>
      <trkpt lat="46.03285" lon="1.8695">
        <ele>645</ele>
        <time>2016-12-17T05:47:09Z</time>
      </trkpt>
      <trkpt lat="46.03177" lon="1.86914">
        <ele>650</ele>
        <time>2016-12-17T05:49:09Z</time>
      </trkpt>
      <trkpt lat="46.03174" lon="1.86911">
        <ele>650</ele>
        <time>2016-12-17T05:51:09Z</time>
      </trkpt>
      <trkpt lat="46.03173" lon="1.8691">
        <ele>650</ele>
        <time>2016-12-17T05:53:09Z</time>
      </trkpt>
      <trkpt lat="46.03174" lon="1.8691">
        <ele>650</ele>
        <time>2016-12-17T05:55:09Z</time>
      </trkpt>
      <trkpt lat="46.03125" lon="1.86929">
        <ele>648</ele>
        <time>2016-12-17T05:57:09Z</time>
      </trkpt>
      <trkpt lat="46.03122" lon="1.86931">
        <ele>648</ele>
        <time>2016-12-17T05:59:09Z</time>
      </trkpt>
      <trkpt lat="46.0311" lon="1.86941">
        <ele>647</ele>
        <time>2016-12-17T06:01:09Z</time>
      </trkpt>
      <trkpt lat="46.03091" lon="1.86947">
        <ele>646</ele>
        <time>2016-12-17T06:03:09Z</time>
      </trkpt>
      <trkpt lat="46.03091" lon="1.86948">
        <ele>646</ele>
        <time>2016-12-17T06:05:09Z</time>
      </trkpt>
      <trkpt lat="46.03053" lon="1.8698">
        <ele>641</ele>
        <time>2016-12-17T06:07:09Z</time>
      </trkpt>
      <trkpt lat="46.03053" lon="1.86984">
        <ele>642</ele>
        <time>2016-12-17T06:09:09Z</time>
      </trkpt>
      <trkpt lat="46.03044" lon="1.87001">
        <ele>641</ele>
        <time>2016-12-17T06:11:09Z</time>
      </trkpt>
      <trkpt lat="46.03038" lon="1.87014">
        <ele>640</ele>
        <time>2016-12-17T06:13:09Z</time>
      </trkpt>
      <trkpt lat="46.02882" lon="1.87281">
        <ele>585</ele>
        <time>2016-12-17T06:15:09Z</time>
      </trkpt>
      <trkpt lat="46.02878" lon="1.87274">
        <ele>586</ele>
        <time>2016-12-17T06:17:09Z</time>
      </trkpt>
      <trkpt lat="46.02876" lon="1.8727">
        <ele>586</ele>
        <time>2016-12-17T06:19:09Z</time>
      </trkpt>
      <trkpt lat="46.0287" lon="1.8726">
        <ele>587</ele>
        <time>2016-12-17T06:21:09Z</time>
      </trkpt>
      <trkpt lat="46.02868" lon="1.87253">
        <ele>587</ele>
        <time>2016-12-17T06:23:09Z</time>
      </trkpt>
      <trkpt lat="46.02861" lon="1.87229">
        <ele>589</ele>
        <time>2016-12-17T06:25:09Z</time>
      </trkpt>
      <trkpt lat="46.02858" lon="1.87218">
        <ele>589</ele>
        <time>2016-12-17T06:27:09Z</time>
      </trkpt>
      <trkpt lat="46.02857" lon="1.8721">
        <ele>590</ele>
        <time>2016-12-17T06:29:09Z</time>
      </trkpt>
      <trkpt lat="46.02848" lon="1.87193">
        <ele>590</ele>
        <time>2016-12-17T06:31:09Z</time>
      </trkpt>
      <trkpt lat="46.02843" lon="1.87178">
        <ele>590</ele>
        <time>2016-12-17T06:33:09Z</time>
      </trkpt>
      <trkpt lat="46.02839" lon="1.8716">
        <ele>590</ele>
        <time>2016-12-17T06:35:09Z</time>
      </trkpt>
      <trkpt lat="46.02839" lon="1.87138">
        <ele>591</ele>
        <time>2016-12-17T06:37:09Z</time>
      </trkpt>
      <trkpt lat="46.02839" lon="1.87129">
        <ele>592</ele>
        <time>2016-12-17T06:39:09Z</time>
      </trkpt>
      <trkpt lat="46.02841" lon="1.87113">
        <ele>593</ele>
        <time>2016-12-17T06:41:09Z</time>
      </trkpt>
      <trkpt lat="46.02844" lon="1.87089">
        <ele>594</ele>
        <time>2016-12-17T06:43:09Z</time>
      </trkpt>
      <trkpt lat="46.02845" lon="1.87085">
        <ele>595</ele>
        <time>2016-12-17T06:45:09Z</time>
      </trkpt>
      <trkpt lat="46.02846" lon="1.87077">
        <ele>595</ele>
        <time>2016-12-17T06:47:09Z</time>
      </trkpt>
      <trkpt lat="46.02849" lon="1.87064">
        <ele>595</ele>
        <time>2016-12-17T06:49:09Z</time>
      </trkpt>
      <trkpt lat="46.02851" lon="1.87057">
        <ele>596</ele>
        <time>2016-12-17T06:51:09Z</time>
      </trkpt>
      <trkpt lat="46.02852" lon="1.87053">
        <ele>596</ele>
        <time>2016-12-17T06:53:09Z</time>
      </trkpt>
      <trkpt lat="46.02856" lon="1.87039">
        <ele>596</ele>
        <time>2016-12-17T06:55:09Z</time>
      </trkpt>
      <trkpt lat="46.02858" lon="1.87031">
        <ele>597</ele>
        <time>2016-12-17T06:57:09Z</time>
      </trkpt>
      <trkpt lat="46.02859" lon="1.87018">
        <ele>596</ele>
        <time>2016-12-17T06:59:09Z</time>
      </trkpt>
      <trkpt lat="46.02859" lon="1.86996">
        <ele>596</ele>
        <time>2016-12-17T07:01:09Z</time>
      </trkpt>
      <trkpt lat="46.0286" lon="1.86973">
        <ele>594</ele>
        <time>2016-12-17T07:03:09Z</time>
      </trkpt>
      <trkpt lat="46.02864" lon="1.86951">
        <ele>594</ele>
        <time>2016-12-17T07:05:09Z</time>
      </trkpt>
      <trkpt lat="46.02867" lon="1.86929">
        <ele>593</ele>
        <time>2016-12-17T07:07:09Z</time>
      </trkpt>
      <trkpt lat="46.02869" lon="1.86922">
        <ele>593</ele>
        <time>2016-12-17T07:09:09Z</time>
      </trkpt>
      <trkpt lat="46.0287" lon="1.86919">
        <ele>594</ele>
        <time>2016-12-17T07:11:09Z</time>
      </trkpt>
      <trkpt lat="46.02872" lon="1.86913">
        <ele>593</ele>
        <time>2016-12-17T07:13:09Z</time>
      </trkpt>
      <trkpt lat="46.02875" lon="1.86908">
        <ele>594</ele>
        <time>2016-12-17T07:15:09Z</time>
      </trkpt>
      <trkpt lat="46.0288" lon="1.86895">
        <ele>593</ele>
        <time>2016-12-17T07:17:09Z</time>
      </trkpt>
      <trkpt lat="46.02888" lon="1.8686">
        <ele>592</ele>
        <time>2016-12-17T07:19:09Z</time>
      </trkpt>
      <trkpt lat="46.02894" lon="1.86844">
        <ele>591</ele>
        <time>2016-12-17T07:21:09Z</time>
      </trkpt>
      <trkpt lat="46.02895" lon="1.86843">
        <ele>591</ele>
        <time>2016-12-17T07:23:09Z</time>
      </trkpt>
      <trkpt lat="46.02896" lon="1.8684">
        <ele>591</ele>
        <time>2016-12-17T07:25:09Z</time>
      </trkpt>
      <trkpt lat="46.02897" lon="1.86838">
        <ele>591</ele>
        <time>2016-12-17T07:27:09Z</time>
      </trkpt>
      <trkpt lat="46.02898" lon="1.86836">
        <ele>591</ele>
        <time>2016-12-17T07:29:09Z</time>
      </trkpt>
      <trkpt lat="46.02904" lon="1.86829">
        <ele>591</ele>
        <time>2016-12-17T07:31:09Z</time>
      </trkpt>
      <trkpt lat="46.02907" lon="1.86827">
        <ele>592</ele>
        <time>2016-12-17T07:33:09Z</time>
      </trkpt>
      <trkpt lat="46.02909" lon="1.86826">
        <ele>592</ele>
        <time>2016-12-17T07:35:09Z</time>
      </trkpt>
      <trkpt lat="46.02912" lon="1.86825">
        <ele>592</ele>
        <time>2016-12-17T07:37:09Z</time>
      </trkpt>
      <trkpt lat="46.02925" lon="1.86818">
        <ele>595</ele>
        <time>2016-12-17T07:39:09Z</time>
      </trkpt>
      <trkpt lat="46.02926" lon="1.86816">
        <ele>595</ele>
        <time>2016-12-17T07:41:09Z</time>
      </trkpt>
      <trkpt lat="46.02928" lon="1.86815">
        <ele>596</ele>
        <time>2016-12-17T07:43:09Z</time>
      </trkpt>
      <trkpt lat="46.02932" lon="1.86811">
        <ele>596</ele>
        <time>2016-12-17T07:45:09Z</time>
      </trkpt>
      <trkpt lat="46.02936" lon="1.86808">
        <ele>597</ele>
        <time>2016-12-17T07:47:09Z</time>
      </trkpt>
      <trkpt lat="46.02941" lon="1.86804">
        <ele>598</ele>
        <time>2016-12-17T07:49:09Z</time>
      </trkpt>
      <trkpt lat="46.02946" lon="1.86799">
        <ele>599</ele>
        <time>2016-12-17T07:51:09Z</time>
      </trkpt>
      <trkpt lat="46.02949" lon="1.86795">
        <ele>600</ele>
        <time>2016-12-17T07:53:09Z</time>
      </trkpt>
      <trkpt lat="46.02955" lon="1.86793">
        <ele>601</ele>
        <time>2016-12-17T07:55:09Z</time>
      </trkpt>
      <trkpt lat="46.02958" lon="1.86791">
        <ele>602</ele>
        <time>2016-12-17T07:57:09Z</time>
      </trkpt>
      <trkpt lat="46.02965" lon="1.86782">
        <ele>602</ele>
        <time>2016-12-17T07:59:09Z</time>
      </trkpt>
      <trkpt lat="46.02829" lon="1.86515">
        <ele>566</ele>
        <time>2016-12-17T08:01:09Z</time>
      </trkpt>
      <trkpt lat="46.02828" lon="1.86509">
        <ele>566</ele>
        <time>2016-12-17T08:03:09Z</time>
      </trkpt>
      <trkpt lat="46.02827" lon="1.86503">
        <ele>566</ele>
        <time>2016-12-17T08:05:09Z</time>
      </trkpt>
      <trkpt lat="46.02824" lon="1.86474">
        <ele>567</ele>
        <time>2016-12-17T08:07:09Z</time>
      </trkpt>
      <trkpt lat="46.02824" lon="1.86446">
        <ele>568</ele>
        <time>2016-12-17T08:09:09Z</time>
      </trkpt>
      <trkpt lat="46.02823" lon="1.86436">
        <ele>569</ele>
        <time>2016-12-17T08:11:09Z</time>
      </trkpt>
      <trkpt lat="46.02826" lon="1.86417">
        <ele>571</ele>
        <time>2016-12-17T08:13:09Z</time>
      </trkpt>
      <trkpt lat="46.02824" lon="1.86406">
        <ele>571</ele>
        <time>2016-12-17T08:15:09Z</time>
      </trkpt>
      <trkpt lat="46.02818" lon="1.8639">
        <ele>569</ele>
        <time>2016-12-17T08:17:09Z</time>
      </trkpt>
      <trkpt lat="46.02813" lon="1.86369">
        <ele>569</ele>
        <time>2016-12-17T08:19:09Z</time>
      </trkpt>
      <trkpt lat="46.02811" lon="1.86363">
        <ele>569</ele>
        <time>2016-12-17T08:21:09Z</time>
      </trkpt>
      <trkpt lat="46.02809" lon="1.86347">
        <ele>569</ele>
        <time>2016-12-17T08:23:09Z</time>
      </trkpt>
      <trkpt lat="46.02808" lon="1.86344">
        <ele>569</ele>
        <time>2016-12-17T08:25:09Z</time>
      </trkpt>
      <trkpt lat="46.02808" lon="1.8634">
        <ele>569</ele>
        <time>2016-12-17T08:27:09Z</time>
      </trkpt>
      <trkpt lat="46.02807" lon="1.86337">
        <ele>569</ele>
        <time>2016-12-17T08:29:09Z</time>
      </trkpt>
      <trkpt lat="46.02806" lon="1.86332">
        <ele>568</ele>
        <time>2016-12-17T08:31:09Z</time>
      </trkpt>
      <trkpt lat="46.02807" lon="1.86312">
        <ele>568</ele>
        <time>2016-12-17T08:33:09Z</time>
      </trkpt>
      <trkpt lat="46.02807" lon="1.86307">
        <ele>568</ele>
        <time>2016-12-17T08:35:09Z</time>
      </trkpt>
      <trkpt lat="46.02814" lon="1.86279">
        <ele>569</ele>
        <time>2016-12-17T08:37:09Z</time>
      </trkpt>
      <trkpt lat="46.02817" lon="1.86271">
        <ele>570</ele>
        <time>2016-12-17T08:39:09Z</time>
      </trkpt>
      <trkpt lat="46.02821" lon="1.86261">
        <ele>571</ele>
        <time>2016-12-17T08:41:09Z</time>
      </trkpt>
      <trkpt lat="46.02823" lon="1.86249">
        <ele>571</ele>
        <time>2016-12-17T08:43:09Z</time>
      </trkpt>
      <trkpt lat="46.02824" lon="1.86245">
        <ele>570</ele>
        <time>2016-12-17T08:45:09Z</time>
      </trkpt>
      <trkpt lat="46.02827" lon="1.86239">
        <ele>571</ele>
        <time>2016-12-17T08:47:09Z</time>
      </trkpt>
      <trkpt lat="46.02836" lon="1.86226">
        <ele>571</ele>
        <time>2016-12-17T08:49:09Z</time>
      </trkpt>
      <trkpt lat="46.02843" lon="1.8622">
        <ele>572</ele>
        <time>2016-12-17T08:51:09Z</time>
      </trkpt>
      <trkpt lat="46.02849" lon="1.86215">
        <ele>572</ele>
        <time>2016-12-17T08:53:09Z</time>
      </trkpt>
      <trkpt lat="46.02864" lon="1.86208">
        <ele>574</ele>
        <time>2016-12-17T08:55:09Z</time>
      </trkpt>
      <trkpt lat="46.02871" lon="1.86205">
        <ele>575</ele>
        <time>2016-12-17T08:57:09Z</time>
      </trkpt>
      <trkpt lat="46.02874" lon="1.86205">
        <ele>575</ele>
        <time>2016-12-17T08:59:09Z</time>
      </trkpt>
      <trkpt lat="46.02876" lon="1.86204">
        <ele>575</ele>
        <time>2016-12-17T09:01:09Z</time>
      </trkpt>
      <trkpt lat="46.02881" lon="1.86204">
        <ele>576</ele>
        <time>2016-12-17T09:03:09Z</time>
      </trkpt>
      <trkpt lat="46.02885" lon="1.86205">
        <ele>577</ele>
        <time>2016-12-17T09:05:09Z</time>
      </trkpt>
      <trkpt lat="46.02889" lon="1.86206">
        <ele>577</ele>
        <time>2016-12-17T09:07:09Z</time>
      </trkpt>
      <trkpt lat="46.02896" lon="1.86206">
        <ele>579</ele>
        <time>2016-12-17T09:09:09Z</time>
      </trkpt>
      <trkpt lat="46.02899" lon="1.86207">
        <ele>579</ele>
        <time>2016-12-17T09:11:09Z</time>
      </trkpt>
      <trkpt lat="46.02901" lon="1.86209">
        <ele>580</ele>
        <time>2016-12-17T09:13:09Z</time>
      </trkpt>
      <trkpt lat="46.02902" lon="1.8621">
        <ele>580</ele>
        <time>2016-12-17T09:15:09Z</time>
      </trkpt>
      <trkpt lat="46.02907" lon="1.86214">
        <ele>581</ele>
        <time>2016-12-17T09:17:09Z</time>
      </trkpt>
      <trkpt lat="46.02916" lon="1.86221">
        <ele>583</ele>
        <time>2016-12-17T09:19:09Z</time>
      </trkpt>
      <trkpt lat="46.02922" lon="1.86225">
        <ele>584</ele>
        <time>2016-12-17T09:21:09Z</time>
      </trkpt>
      <trkpt lat="46.02934" lon="1.86234">
        <ele>587</ele>
        <time>2016-12-17T09:23:09Z</time>
      </trkpt>
      <trkpt lat="46.02936" lon="1.86237">
        <ele>588</ele>
        <time>2016-12-17T09:25:09Z</time>
      </trkpt>
      <trkpt lat="46.02939" lon="1.86238">
        <ele>589</ele>
        <time>2016-12-17T09:27:09Z</time>
      </trkpt>
      <trkpt lat="46.02954" lon="1.8625">
        <ele>592</ele>
        <time>2016-12-17T09:29:09Z</time>
      </trkpt>
      <trkpt lat="46.02957" lon="1.86252">
        <ele>593</ele>
        <time>2016-12-17T09:31:09Z</time>
      </trkpt>
      <trkpt lat="46.02959" lon="1.86255">
        <ele>593</ele>
        <time>2016-12-17T09:33:09Z</time>
      </trkpt>
      <trkpt lat="46.0296" lon="1.86258">
        <ele>593</ele>
        <time>2016-12-17T09:35:09Z</time>
      </trkpt>
      <trkpt lat="46.0296" lon="1.86265">
        <ele>593</ele>
        <time>2016-12-17T09:37:09Z</time>
      </trkpt>
      <trkpt lat="46.02959" lon="1.86269">
        <ele>593</ele>
        <time>2016-12-17T09:39:09Z</time>
      </trkpt>
      <trkpt lat="46.02959" lon="1.86276">
        <ele>593</ele>
        <time>2016-12-17T09:41:09Z</time>
      </trkpt>
      <trkpt lat="46.02962" lon="1.86288">
        <ele>593</ele>
        <time>2016-12-17T09:43:09Z</time>
      </trkpt>
      <trkpt lat="46.02963" lon="1.86291">
        <ele>594</ele>
        <time>2016-12-17T09:45:09Z</time>
      </trkpt>
      <trkpt lat="46.02964" lon="1.86293">
        <ele>594</ele>
        <time>2016-12-17T09:47:09Z</time>
      </trkpt>
      <trkpt lat="46.02965" lon="1.86295">
        <ele>594</ele>
        <time>2016-12-17T09:49:09Z</time>
      </trkpt>
      <trkpt lat="46.02967" lon="1.86298">
        <ele>594</ele>
        <time>2016-12-17T09:51:09Z</time>
      </trkpt>
      <trkpt lat="46.02977" lon="1.86309">
        <ele>596</ele>
        <time>2016-12-17T09:53:09Z</time>
      </trkpt>
      <trkpt lat="46.02978" lon="1.86312">
        <ele>596</ele>
        <time>2016-12-17T09:55:09Z</time>
      </trkpt>
      <trkpt lat="46.0298" lon="1.86314">
        <ele>596</ele>
        <time>2016-12-17T09:57:09Z</time>
      </trkpt>
      <trkpt lat="46.02993" lon="1.86339">
        <ele>598</ele>
        <time>2016-12-17T09:59:09Z</time>
      </trkpt>
      <trkpt lat="46.03019" lon="1.86367">
        <ele>601</ele>
        <time>2016-12-17T10:01:09Z</time>
      </trkpt>
      <trkpt lat="46.03046" lon="1.86388">
        <ele>606</ele>
        <time>2016-12-17T10:03:09Z</time>
      </trkpt>
      <trkpt lat="46.03048" lon="1.86388">
        <ele>607</ele>
        <time>2016-12-17T10:05:09Z</time>
      </trkpt>
      <trkpt lat="46.0305" lon="1.86389">
        <ele>607</ele>
        <time>2016-12-17T10:07:09Z</time>
      </trkpt>
      <trkpt lat="46.03054" lon="1.8639">
        <ele>608</ele>
        <time>2016-12-17T10:09:09Z</time>
      </trkpt>
      <trkpt lat="46.03056" lon="1.86391">
        <ele>608</ele>
        <time>2016-12-17T10:11:09Z</time>
      </trkpt>
      <trkpt lat="46.03061" lon="1.86392">
        <ele>609</ele>
        <time>2016-12-17T10:13:09Z</time>
      </trkpt>
      <trkpt lat="46.03065" lon="1.86394">
        <ele>610</ele>
        <time>2016-12-17T10:15:09Z</time>
      </trkpt>
      <trkpt lat="46.03068" lon="1.86394">
        <ele>611</ele>
        <time>2016-12-17T10:17:09Z</time>
      </trkpt>
      <trkpt lat="46.03073" lon="1.86394">
        <ele>612</ele>
        <time>2016-12-17T10:19:09Z</time>
      </trkpt>
      <trkpt lat="46.03076" lon="1.86395">
        <ele>613</ele>
        <time>2016-12-17T10:21:09Z</time>
      </trkpt>
      <trkpt lat="46.03082" lon="1.86398">
        <ele>614</ele>
        <time>2016-12-17T10:23:09Z</time>
      </trkpt>
      <trkpt lat="46.03085" lon="1.864">
        <ele>614</ele>
        <time>2016-12-17T10:25:09Z</time>
      </trkpt>
      <trkpt lat="46.03095" lon="1.86406">
        <ele>615</ele>
        <time>2016-12-17T10:27:09Z</time>
      </trkpt>
      <trkpt lat="46.03098" lon="1.86408">
        <ele>615</ele>
        <time>2016-12-17T10:29:09Z</time>
      </trkpt>
      <trkpt lat="46.03104" lon="1.86411">
        <ele>615</ele>
        <time>2016-12-17T10:31:09Z</time>
      </trkpt>
      <trkpt lat="46.03111" lon="1.86416">
        <ele>616</ele>
        <time>2016-12-17T10:33:09Z</time>
      </trkpt>
      <trkpt lat="46.03114" lon="1.86419">
        <ele>616</ele>
        <time>2016-12-17T10:35:09Z</time>
      </trkpt>
      <trkpt lat="46.03121" lon="1.86424">
        <ele>617</ele>
        <time>2016-12-17T10:37:09Z</time>
      </trkpt>
      <trkpt lat="46.03124" lon="1.86426">
        <ele>617</ele>
        <time>2016-12-17T10:39:09Z</time>
      </trkpt>
      <trkpt lat="46.03131" lon="1.86433">
        <ele>618</ele>
        <time>2016-12-17T10:41:09Z</time>
      </trkpt>
      <trkpt lat="46.03135" lon="1.86436">
        <ele>618</ele>
        <time>2016-12-17T10:43:09Z</time>
      </trkpt>
      <trkpt lat="46.03146" lon="1.86446">
        <ele>620</ele>
        <time>2016-12-17T10:45:09Z</time>
      </trkpt>
      <trkpt lat="46.03148" lon="1.86449">
        <ele>620</ele>
        <time>2016-12-17T10:47:09Z</time>
      </trkpt>
      <trkpt lat="46.03152" lon="1.86473">
        <ele>620</ele>
        <time>2016-12-17T10:49:09Z</time>
      </trkpt>
      <trkpt lat="46.03152" lon="1.86486">
        <ele>620</ele>
        <time>2016-12-17T10:51:09Z</time>
      </trkpt>
      <trkpt lat="46.03153" lon="1.8649">
        <ele>620</ele>
        <time>2016-12-17T10:53:09Z</time>
      </trkpt>
      <trkpt lat="46.03152" lon="1.86497">
        <ele>620</ele>
        <time>2016-12-17T10:55:09Z</time>
      </trkpt>
      <trkpt lat="46.03152" lon="1.86502">
        <ele>620</ele>
        <time>2016-12-17T10:57:09Z</time>
      </trkpt>
      <trkpt lat="46.03153" lon="1.86505">
        <ele>620</ele>
        <time>2016-12-17T10:59:09Z</time>
      </trkpt>
      <trkpt lat="46.03153" lon="1.86518">
        <ele>620</ele>
        <time>2016-12-17T11:01:09Z</time>
      </trkpt>
      <trkpt lat="46.03155" lon="1.86526">
        <ele>621</ele>
        <time>2016-12-17T11:03:09Z</time>
      </trkpt>
      <trkpt lat="46.03156" lon="1.86533">
        <ele>621</ele>
        <time>2016-12-17T11:05:09Z</time>
      </trkpt>
      <trkpt lat="46.03156" lon="1.86546">
        <ele>621</ele>
        <time>2016-12-17T11:07:09Z</time>
      </trkpt>
      <trkpt lat="46.03156" lon="1.8655">
        <ele>621</ele>
        <time>2016-12-17T11:09:09Z</time>
      </trkpt>
      <trkpt lat="46.03153" lon="1.86562">
        <ele>621</ele>
        <time>2016-12-17T11:11:09Z</time>
      </trkpt>
      <trkpt lat="46.03154" lon="1.86569">
        <ele>622</ele>
        <time>2016-12-17T11:13:09Z</time>
      </trkpt>
      <trkpt lat="46.03155" lon="1.86588">
        <ele>622</ele>
        <time>2016-12-17T11:15:09Z</time>
      </trkpt>
      <trkpt lat="46.03156" lon="1.86589">
        <ele>623</ele>
        <time>2016-12-17T11:17:09Z</time>
      </trkpt>
      <trkpt lat="46.03156" lon="1.86588">
        <ele>623</ele>
        <time>2016-12-17T11:19:09Z</time>
      </trkpt>
      <trkpt lat="46.03166" lon="1.86584">
        <ele>623</ele>
        <time>2016-12-17T11:21:09Z</time>
      </trkpt>
      <trkpt lat="46.03172" lon="1.86584">
        <ele>623</ele>
        <time>2016-12-17T11:23:09Z</time>
      </trkpt>
      <trkpt lat="46.03186" lon="1.86585">
        <ele>623</ele>
        <time>2016-12-17T11:25:09Z</time>
      </trkpt>
      <trkpt lat="46.0321" lon="1.86582">
        <ele>622</ele>
        <time>2016-12-17T11:27:09Z</time>
      </trkpt>
      <trkpt lat="46.03224" lon="1.86581">
        <ele>622</ele>
        <time>2016-12-17T11:29:09Z</time>
      </trkpt>
      <trkpt lat="46.03241" lon="1.86577">
        <ele>622</ele>
        <time>2016-12-17T11:31:09Z</time>
      </trkpt>
      <trkpt lat="46.03253" lon="1.86575">
        <ele>621</ele>
        <time>2016-12-17T11:33:09Z</time>
      </trkpt>
      <trkpt lat="46.03256" lon="1.86573">
        <ele>621</ele>
        <time>2016-12-17T11:35:09Z</time>
      </trkpt>
      <trkpt lat="46.0326" lon="1.86572">
        <ele>621</ele>
        <time>2016-12-17T11:37:09Z</time>
      </trkpt>
      <trkpt lat="46.03269" lon="1.86567">
        <ele>621</ele>
        <time>2016-12-17T11:39:09Z</time>
      </trkpt>
      <trkpt lat="46.03281" lon="1.86562">
        <ele>620</ele>
        <time>2016-12-17T11:41:09Z</time>
      </trkpt>
      <trkpt lat="46.03283" lon="1.86562">
        <ele>620</ele>
        <time>2016-12-17T11:43:09Z</time>
      </trkpt>
      <trkpt lat="46.03286" lon="1.8656">
        <ele>620</ele>
        <time>2016-12-17T11:45:09Z</time>
      </trkpt>
      <trkpt lat="46.03288" lon="1.86557">
        <ele>620</ele>
        <time>2016-12-17T11:47:09Z</time>
      </trkpt>
      <trkpt lat="46.03292" lon="1.86553">
        <ele>619</ele>
        <time>2016-12-17T11:49:09Z</time>
      </trkpt>
      <trkpt lat="46.03295" lon="1.86546">
        <ele>619</ele>
        <time>2016-12-17T11:51:09Z</time>
      </trkpt>
      <trkpt lat="46.03295" lon="1.86511">
        <ele>617</ele>
        <time>2016-12-17T11:53:09Z</time>
      </trkpt>
      <trkpt lat="46.03294" lon="1.86496">
        <ele>617</ele>
        <time>2016-12-17T11:55:09Z</time>
      </trkpt>
      <trkpt lat="46.03286" lon="1.86441">
        <ele>614</ele>
        <time>2016-12-17T11:57:09Z</time>
      </trkpt>
      <trkpt lat="46.03285" lon="1.86431">
        <ele>614</ele>
        <time>2016-12-17T11:59:09Z</time>
      </trkpt>
      <trkpt lat="46.03285" lon="1.86421">
        <ele>613</ele>
        <time>2016-12-17T12:01:09Z</time>
      </trkpt>
      <trkpt lat="46.03289" lon="1.86402">
        <ele>613</ele>
        <time>2016-12-17T12:03:09Z</time>
      </trkpt>
      <trkpt lat="46.03291" lon="1.86373">
        <ele>613</ele>
        <time>2016-12-17T12:05:09Z</time>
      </trkpt>
      <trkpt lat="46.03293" lon="1.86363">
        <ele>613</ele>
        <time>2016-12-17T12:07:09Z</time>
      </trkpt>
      <trkpt lat="46.03295" lon="1.86357">
        <ele>613</ele>
        <time>2016-12-17T12:09:09Z</time>
      </trkpt>
      <trkpt lat="46.03295" lon="1.86355">
        <ele>613</ele>
        <time>2016-12-17T12:11:09Z</time>
      </trkpt>
      <trkpt lat="46.03296" lon="1.86353">
        <ele>613</ele>
        <time>2016-12-17T12:13:09Z</time>
      </trkpt>
      <trkpt lat="46.03296" lon="1.86328">
        <ele>613</ele>
        <time>2016-12-17T12:15:09Z</time>
      </trkpt>
      <trkpt lat="46.03295" lon="1.86307">
        <ele>613</ele>
        <time>2016-12-17T12:17:09Z</time>
      </trkpt>
      <trkpt lat="46.03293" lon="1.86285">
        <ele>614</ele>
        <time>2016-12-17T12:19:09Z</time>
      </trkpt>
      <trkpt lat="46.03293" lon="1.86275">
        <ele>614</ele>
        <time>2016-12-17T12:21:09Z</time>
      </trkpt>
      <trkpt lat="46.03292" lon="1.86267">
        <ele>615</ele>
        <time>2016-12-17T12:23:09Z</time>
      </trkpt>
      <trkpt lat="46.03293" lon="1.86244">
        <ele>615</ele>
        <time>2016-12-17T12:25:09Z</time>
      </trkpt>
      <trkpt lat="46.03211" lon="1.85771">
        <ele>588</ele>
        <time>2016-12-17T12:27:09Z</time>
      </trkpt>
      <trkpt lat="46.03207" lon="1.85762">
        <ele>588</ele>
        <time>2016-12-17T12:29:09Z</time>
      </trkpt>
      <trkpt lat="46.03204" lon="1.85748">
        <ele>588</ele>
        <time>2016-12-17T12:31:09Z</time>
      </trkpt>
      <trkpt lat="46.03203" lon="1.85728">
        <ele>587</ele>
        <time>2016-12-17T12:33:09Z</time>
      </trkpt>
      <trkpt lat="46.03202" lon="1.85722">
        <ele>587</ele>
        <time>2016-12-17T12:35:09Z</time>
      </trkpt>
      <trkpt lat="46.03195" lon="1.85715">
        <ele>587</ele>
        <time>2016-12-17T12:37:09Z</time>
      </trkpt>
      <trkpt lat="46.0301" lon="1.85805">
        <ele>557</ele>
        <time>2016-12-17T12:39:09Z</time>
      </trkpt>
      <trkpt lat="46.03011" lon="1.85791">
        <ele>557</ele>
        <time>2016-12-17T12:41:09Z</time>
      </trkpt>
      <trkpt lat="46.03012" lon="1.85789">
        <ele>557</ele>
        <time>2016-12-17T12:43:09Z</time>
      </trkpt>
      <trkpt lat="46.03015" lon="1.85778">
        <ele>557</ele>
        <time>2016-12-17T12:45:09Z</time>
      </trkpt>
      <trkpt lat="46.03016" lon="1.85776">
        <ele>557</ele>
        <time>2016-12-17T12:47:09Z</time>
      </trkpt>
      <trkpt lat="46.03016" lon="1.85761">
        <ele>557</ele>
        <time>2016-12-17T12:49:09Z</time>
      </trkpt>
      <trkpt lat="46.03016" lon="1.85753">
        <ele>556</ele>
        <time>2016-12-17T12:51:09Z</time>
      </trkpt>
      <trkpt lat="46.03012" lon="1.85735">
        <ele>556</ele>
        <time>2016-12-17T12:53:09Z</time>
      </trkpt>
      <trkpt lat="46.03013" lon="1.85731">
        <ele>556</ele>
        <time>2016-12-17T12:55:09Z</time>
      </trkpt>
      <trkpt lat="46.03012" lon="1.85724">
        <ele>556</ele>
        <time>2016-12-17T12:57:09Z</time>
      </trkpt>
      <trkpt lat="46.03012" lon="1.85714">
        <ele>557</ele>
        <time>2016-12-17T12:59:09Z</time>
      </trkpt>
      <trkpt lat="46.0301" lon="1.85709">
        <ele>556</ele>
        <time>2016-12-17T13:01:09Z</time>
      </trkpt>
      <trkpt lat="46.03011" lon="1.85693">
        <ele>557</ele>
        <time>2016-12-17T13:03:09Z</time>
      </trkpt>
      <trkpt lat="46.03009" lon="1.85682">
        <ele>557</ele>
        <time>2016-12-17T13:05:09Z</time>
      </trkpt>
      <trkpt lat="46.03004" lon="1.85672">
        <ele>556</ele>
        <time>2016-12-17T13:07:09Z</time>
      </trkpt>
      <trkpt lat="46.03009" lon="1.85663">
        <ele>558</ele>
        <time>2016-12-17T13:09:09Z</time>
      </trkpt>
      <trkpt lat="46.0301" lon="1.85658">
        <ele>559</ele>
        <time>2016-12-17T13:11:09Z</time>
      </trkpt>
      <trkpt lat="46.03005" lon="1.85648">
        <ele>559</ele>
        <time>2016-12-17T13:13:09Z</time>
      </trkpt>
      <trkpt lat="46.03003" lon="1.85645">
        <ele>559</ele>
        <time>2016-12-17T13:15:09Z</time>
      </trkpt>
      <trkpt lat="46.02998" lon="1.85638">
        <ele>559</ele>
        <time>2016-12-17T13:17:09Z</time>
      </trkpt>
      <trkpt lat="46.02996" lon="1.85627">
        <ele>560</ele>
        <time>2016-12-17T13:19:09Z</time>
      </trkpt>
      <trkpt lat="46.02993" lon="1.85615">
        <ele>561</ele>
        <time>2016-12-17T13:21:09Z</time>
      </trkpt>
      <trkpt lat="46.02989" lon="1.85607">
        <ele>561</ele>
        <time>2016-12-17T13:23:09Z</time>
      </trkpt>
      <trkpt lat="46.02986" lon="1.85601">
        <ele>561</ele>
        <time>2016-12-17T13:25:09Z</time>
      </trkpt>
      <trkpt lat="46.02983" lon="1.85596">
        <ele>561</ele>
        <time>2016-12-17T13:27:09Z</time>
      </trkpt>
      <trkpt lat="46.02977" lon="1.8558">
        <ele>561</ele>
        <time>2016-12-17T13:29:09Z</time>
      </trkpt>
      <trkpt lat="46.02972" lon="1.85559">
        <ele>559</ele>
        <time>2016-12-17T13:31:09Z</time>
      </trkpt>
      <trkpt lat="46.02972" lon="1.85542">
        <ele>559</ele>
        <time>2016-12-17T13:33:09Z</time>
      </trkpt>
      <trkpt lat="46.02971" lon="1.85528">
        <ele>559</ele>
        <time>2016-12-17T13:35:09Z</time>
      </trkpt>
      <trkpt lat="46.02973" lon="1.85509">
        <ele>559</ele>
        <time>2016-12-17T13:37:09Z</time>
      </trkpt>
      <trkpt lat="46.0298" lon="1.85479">
        <ele>561</ele>
        <time>2016-12-17T13:39:09Z</time>
      </trkpt>
      <trkpt lat="46.02982" lon="1.85475">
        <ele>561</ele>
        <time>2016-12-17T13:41:09Z</time>
      </trkpt>
      <trkpt lat="46.02983" lon="1.85472">
        <ele>561</ele>
        <time>2016-12-17T13:43:09Z</time>
      </trkpt>
      <trkpt lat="46.02989" lon="1.85458">
        <ele>563</ele>
        <time>2016-12-17T13:45:09Z</time>
      </trkpt>
      <trkpt lat="46.02993" lon="1.85444">
        <ele>563</ele>
        <time>2016-12-17T13:47:09Z</time>
      </trkpt>
      <trkpt lat="46.02995" lon="1.85434">
        <ele>563</ele>
        <time>2016-12-17T13:49:09Z</time>
      </trkpt>
      <trkpt lat="46.02995" lon="1.85432">
        <ele>563</ele>
        <time>2016-12-17T13:51:09Z</time>
      </trkpt>
      <trkpt lat="46.02999" lon="1.85415">
        <ele>564</ele>
        <time>2016-12-17T13:53:09Z</time>
      </trkpt>
      <trkpt lat="46.03011" lon="1.85391">
        <ele>566</ele>
        <time>2016-12-17T13:55:09Z</time>
      </trkpt>
      <trkpt lat="46.03021" lon="1.85373">
        <ele>567</ele>
        <time>2016-12-17T13:57:09Z</time>
      </trkpt>
      <trkpt lat="46.03035" lon="1.85362">
        <ele>569</ele>
        <time>2016-12-17T13:59:09Z</time>
      </trkpt>
      <trkpt lat="46.03039" lon="1.8536">
        <ele>570</ele>
        <time>2016-12-17T14:01:09Z</time>
      </trkpt>
      <trkpt lat="46.03042" lon="1.85358">
        <ele>570</ele>
        <time>2016-12-17T14:03:09Z</time>
      </trkpt>
      <trkpt lat="46.03054" lon="1.85346">
        <ele>571</ele>
        <time>2016-12-17T14:05:09Z</time>
      </trkpt>
      <trkpt lat="46.03061" lon="1.85342">
        <ele>571</ele>
        <time>2016-12-17T14:07:09Z</time>
      </trkpt>
      <trkpt lat="46.03108" lon="1.85227">
        <ele>562</ele>
        <time>2016-12-17T14:09:09Z</time>
      </trkpt>
      <trkpt lat="46.03112" lon="1.85224">
        <ele>561</ele>
        <time>2016-12-17T14:11:09Z</time>
      </trkpt>
      <trkpt lat="46.03114" lon="1.85222">
        <ele>560</ele>
        <time>2016-12-17T14:13:09Z</time>
      </trkpt>
      <trkpt lat="46.03118" lon="1.85218">
        <ele>560</ele>
        <time>2016-12-17T14:15:09Z</time>
      </trkpt>
      <trkpt lat="46.03126" lon="1.85215">
        <ele>558</ele>
        <time>2016-12-17T14:17:09Z</time>
      </trkpt>
      <trkpt lat="46.0313" lon="1.85212">
        <ele>558</ele>
        <time>2016-12-17T14:19:09Z</time>
      </trkpt>
      <trkpt lat="46.03152" lon="1.85205">
        <ele>554</ele>
        <time>2016-12-17T14:21:09Z</time>
      </trkpt>
      <trkpt lat="46.03156" lon="1.85206">
        <ele>554</ele>
        <time>2016-12-17T14:23:09Z</time>
      </trkpt>
      <trkpt lat="46.03173" lon="1.85214">
        <ele>552</ele>
        <time>2016-12-17T14:25:09Z</time>
      </trkpt>
      <trkpt lat="46.03176" lon="1.85217">
        <ele>552</ele>
        <time>2016-12-17T14:27:09Z</time>
      </trkpt>
      <trkpt lat="46.03178" lon="1.8522">
        <ele>552</ele>
        <time>2016-12-17T14:29:09Z</time>
      </trkpt>
      <trkpt lat="46.0318" lon="1.85228">
        <ele>552</ele>
        <time>2016-12-17T14:31:09Z</time>
      </trkpt>
      <trkpt lat="46.03188" lon="1.85237">
        <ele>552</ele>
        <time>2016-12-17T14:33:09Z</time>
      </trkpt>
      <trkpt lat="46.03191" lon="1.8524">
        <ele>552</ele>
        <time>2016-12-17T14:35:09Z</time>
      </trkpt>
      <trkpt lat="46.032" lon="1.85247">
        <ele>552</ele>
        <time>2016-12-17T14:37:09Z</time>
      </trkpt>
      <trkpt lat="46.03219" lon="1.85263">
        <ele>552</ele>
        <time>2016-12-17T14:39:09Z</time>
      </trkpt>
      <trkpt lat="46.03228" lon="1.85273">
        <ele>553</ele>
        <time>2016-12-17T14:41:09Z</time>
      </trkpt>
      <trkpt lat="46.03243" lon="1.85282">
        <ele>554</ele>
        <time>2016-12-17T14:43:09Z</time>
      </trkpt>
      <trkpt lat="46.0325" lon="1.85291">
        <ele>555</ele>
        <time>2016-12-17T14:45:09Z</time>
      </trkpt>
      <trkpt lat="46.0326" lon="1.853">
        <ele>556</ele>
        <time>2016-12-17T14:47:09Z</time>
      </trkpt>
      <trkpt lat="46.03264" lon="1.85306">
        <ele>557</ele>
        <time>2016-12-17T14:49:09Z</time>
      </trkpt>
      <trkpt lat="46.03265" lon="1.85308">
        <ele>557</ele>
        <time>2016-12-17T14:51:09Z</time>
      </trkpt>
      <trkpt lat="46.03266" lon="1.85313">
        <ele>558</ele>
        <time>2016-12-17T14:53:09Z</time>
      </trkpt>
      <trkpt lat="46.03265" lon="1.85321">
        <ele>560</ele>
        <time>2016-12-17T14:55:09Z</time>
      </trkpt>
      <trkpt lat="46.03264" lon="1.85323">
        <ele>560</ele>
        <time>2016-12-17T14:57:09Z</time>
      </trkpt>
      <trkpt lat="46.03264" lon="1.85325">
        <ele>560</ele>
        <time>2016-12-17T14:59:09Z</time>
      </trkpt>
      <trkpt lat="46.03263" lon="1.85326">
        <ele>561</ele>
        <time>2016-12-17T15:01:09Z</time>
      </trkpt>
      <trkpt lat="46.03262" lon="1.85331">
        <ele>562</ele>
        <time>2016-12-17T15:03:09Z</time>
      </trkpt>
      <trkpt lat="46.03261" lon="1.85334">
        <ele>562</ele>
        <time>2016-12-17T15:05:09Z</time>
      </trkpt>
      <trkpt lat="46.0326" lon="1.85345">
        <ele>564</ele>
        <time>2016-12-17T15:07:09Z</time>
      </trkpt>
      <trkpt lat="46.03261" lon="1.85348">
        <ele>564</ele>
        <time>2016-12-17T15:09:09Z</time>
      </trkpt>
      <trkpt lat="46.03266" lon="1.85356">
        <ele>565</ele>
        <time>2016-12-17T15:11:09Z</time>
      </trkpt>
      <trkpt lat="46.03267" lon="1.8536">
        <ele>565</ele>
        <time>2016-12-17T15:13:09Z</time>
      </trkpt>
      <trkpt lat="46.03268" lon="1.85364">
        <ele>566</ele>
        <time>2016-12-17T15:15:09Z</time>
      </trkpt>
      <trkpt lat="46.03269" lon="1.85375">
        <ele>567</ele>
        <time>2016-12-17T15:17:09Z</time>
      </trkpt>
      <trkpt lat="46.03269" lon="1.85379">
        <ele>568</ele>
        <time>2016-12-17T15:19:09Z</time>
      </trkpt>
      <trkpt lat="46.03274" lon="1.85395">
        <ele>569</ele>
        <time>2016-12-17T15:21:09Z</time>
      </trkpt>
      <trkpt lat="46.0328" lon="1.85409">
        <ele>570</ele>
        <time>2016-12-17T15:23:09Z</time>
      </trkpt>
      <trkpt lat="46.03283" lon="1.85416">
        <ele>571</ele>
        <time>2016-12-17T15:25:09Z</time>
      </trkpt>
      <trkpt lat="46.03353" lon="1.85522">
        <ele>563</ele>
        <time>2016-12-17T15:27:09Z</time>
      </trkpt>
      <trkpt lat="46.03356" lon="1.85525">
        <ele>562</ele>
        <time>2016-12-17T15:29:09Z</time>
      </trkpt>
      <trkpt lat="46.0336" lon="1.85536">
        <ele>562</ele>
        <time>2016-12-17T15:31:09Z</time>
      </trkpt>
      <trkpt lat="46.03377" lon="1.85552">
        <ele>559</ele>
        <time>2016-12-17T15:33:09Z</time>
      </trkpt>
      <trkpt lat="46.03388" lon="1.8556">
        <ele>558</ele>
        <time>2016-12-17T15:35:09Z</time>
      </trkpt>
      <trkpt lat="46.03393" lon="1.85562">
        <ele>557</ele>
        <time>2016-12-17T15:37:09Z</time>
      </trkpt>
      <trkpt lat="46.03402" lon="1.85575">
        <ele>556</ele>
        <time>2016-12-17T15:39:09Z</time>
      </trkpt>
      <trkpt lat="46.03402" lon="1.85578">
        <ele>556</ele>
        <time>2016-12-17T15:41:09Z</time>
      </trkpt>
      <trkpt lat="46.03402" lon="1.85587">
        <ele>556</ele>
        <time>2016-12-17T15:43:09Z</time>
      </trkpt>
      <trkpt lat="46.03402" lon="1.85591">
        <ele>557</ele>
        <time>2016-12-17T15:45:09Z</time>
      </trkpt>
      <trkpt lat="46.03403" lon="1.85595">
        <ele>557</ele>
        <time>2016-12-17T15:47:09Z</time>
      </trkpt>
      <trkpt lat="46.03401" lon="1.85613">
        <ele>559</ele>
        <time>2016-12-17T15:49:09Z</time>
      </trkpt>
      <trkpt lat="46.034" lon="1.85624">
        <ele>560</ele>
        <time>2016-12-17T15:51:09Z</time>
      </trkpt>
      <trkpt lat="46.03395" lon="1.85637">
        <ele>562</ele>
        <time>2016-12-17T15:53:09Z</time>
      </trkpt>
      <trkpt lat="46.03394" lon="1.85642">
        <ele>562</ele>
        <time>2016-12-17T15:55:09Z</time>
      </trkpt>
      <trkpt lat="46.03391" lon="1.85672">
        <ele>565</ele>
        <time>2016-12-17T15:57:09Z</time>
      </trkpt>
      <trkpt lat="46.0339" lon="1.85678">
        <ele>566</ele>
        <time>2016-12-17T15:59:09Z</time>
      </trkpt>
      <trkpt lat="46.03432" lon="1.85684">
        <ele>557</ele>
        <time>2016-12-17T16:01:09Z</time>
      </trkpt>
      <trkpt lat="46.03433" lon="1.85684">
        <ele>557</ele>
        <time>2016-12-17T16:03:09Z</time>
      </trkpt>
      <trkpt lat="46.03439" lon="1.85693">
        <ele>557</ele>
        <time>2016-12-17T16:05:09Z</time>
      </trkpt>
      <trkpt lat="46.03442" lon="1.85697">
        <ele>557</ele>
        <time>2016-12-17T16:07:09Z</time>
      </trkpt>
      <trkpt lat="46.03445" lon="1.85701">
        <ele>556</ele>
        <time>2016-12-17T16:09:09Z</time>
      </trkpt>
      <trkpt lat="46.03446" lon="1.85705">
        <ele>556</ele>
        <time>2016-12-17T16:11:09Z</time>
      </trkpt>
      <trkpt lat="46.03446" lon="1.85708">
        <ele>557</ele>
        <time>2016-12-17T16:13:09Z</time>
      </trkpt>
      <trkpt lat="46.03445" lon="1.85712">
        <ele>557</ele>
        <time>2016-12-17T16:15:09Z</time>
      </trkpt>
      <trkpt lat="46.03444" lon="1.85723">
        <ele>558</ele>
        <time>2016-12-17T16:17:09Z</time>
      </trkpt>
      <trkpt lat="46.03443" lon="1.85715">
        <ele>557</ele>
        <time>2016-12-17T16:19:09Z</time>
      </trkpt>
      <trkpt lat="46.03443" lon="1.85714">
        <ele>557</ele>
        <time>2016-12-17T16:21:09Z</time>
      </trkpt>
      <trkpt lat="46.03445" lon="1.85712">
        <ele>557</ele>
        <time>2016-12-17T16:23:09Z</time>
      </trkpt>
      <trkpt lat="46.03454" lon="1.85704">
        <ele>555</ele>
        <time>2016-12-17T16:25:09Z</time>
      </trkpt>
      <trkpt lat="46.03459" lon="1.85701">
        <ele>554</ele>
        <time>2016-12-17T16:27:09Z</time>
      </trkpt>
      <trkpt lat="46.03466" lon="1.8569">
        <ele>552</ele>
        <time>2016-12-17T16:29:09Z</time>
      </trkpt>
      <trkpt lat="46.0347" lon="1.85684">
        <ele>551</ele>
        <time>2016-12-17T16:31:09Z</time>
      </trkpt>
      <trkpt lat="46.03472" lon="1.8568">
        <ele>551</ele>
        <time>2016-12-17T16:33:09Z</time>
      </trkpt>
      <trkpt lat="46.03473" lon="1.85679">
        <ele>550</ele>
        <time>2016-12-17T16:35:09Z</time>
      </trkpt>
      <trkpt lat="46.03484" lon="1.85666">
        <ele>548</ele>
        <time>2016-12-17T16:37:09Z</time>
      </trkpt>
      <trkpt lat="46.03488" lon="1.85659">
        <ele>546</ele>
        <time>2016-12-17T16:39:09Z</time>
      </trkpt>
      <trkpt lat="46.03491" lon="1.85655">
        <ele>545</ele>
        <time>2016-12-17T16:41:09Z</time>
      </trkpt>
      <trkpt lat="46.03496" lon="1.8565">
        <ele>544</ele>
        <time>2016-12-17T16:43:09Z</time>
      </trkpt>
      <trkpt lat="46.03498" lon="1.8565">
        <ele>543</ele>
        <time>2016-12-17T16:45:09Z</time>
      </trkpt>
      <trkpt lat="46.03501" lon="1.85647">
        <ele>543</ele>
        <time>2016-12-17T16:47:09Z</time>
      </trkpt>
      <trkpt lat="46.03508" lon="1.85641">
        <ele>542</ele>
        <time>2016-12-17T16:49:09Z</time>
      </trkpt>
      <trkpt lat="46.03512" lon="1.8564">
        <ele>541</ele>
        <time>2016-12-17T16:51:09Z</time>
      </trkpt>
      <trkpt lat="46.03515" lon="1.85638">
        <ele>541</ele>
        <time>2016-12-17T16:53:09Z</time>
      </trkpt>
      <trkpt lat="46.03526" lon="1.85632">
        <ele>540</ele>
        <time>2016-12-17T16:55:09Z</time>
      </trkpt>
      <trkpt lat="46.03532" lon="1.85626">
        <ele>539</ele>
        <time>2016-12-17T16:57:09Z</time>
      </trkpt>
      <trkpt lat="46.03533" lon="1.85624">
        <ele>539</ele>
        <time>2016-12-17T16:59:09Z</time>
      </trkpt>
      <trkpt lat="46.03542" lon="1.85613">
        <ele>538</ele>
        <time>2016-12-17T17:01:09Z</time>
      </trkpt>
      <trkpt lat="46.0355" lon="1.85609">
        <ele>537</ele>
        <time>2016-12-17T17:03:09Z</time>
      </trkpt>
      <trkpt lat="46.03564" lon="1.85608">
        <ele>537</ele>
        <time>2016-12-17T17:05:09Z</time>
      </trkpt>
      <trkpt lat="46.03568" lon="1.85609">
        <ele>537</ele>
        <time>2016-12-17T17:07:09Z</time>
      </trkpt>
      <trkpt lat="46.03577" lon="1.85611">
        <ele>537</ele>
        <time>2016-12-17T17:09:09Z</time>
      </trkpt>
      <trkpt lat="46.03581" lon="1.85615">
        <ele>537</ele>
        <time>2016-12-17T17:11:09Z</time>
      </trkpt>
      <trkpt lat="46.03588" lon="1.85625">
        <ele>537</ele>
        <time>2016-12-17T17:13:09Z</time>
      </trkpt>
      <trkpt lat="46.03591" lon="1.8563">
        <ele>537</ele>
        <time>2016-12-17T17:15:09Z</time>
      </trkpt>
      <trkpt lat="46.03592" lon="1.85633">
        <ele>537</ele>
        <time>2016-12-17T17:17:09Z</time>
      </trkpt>
      <trkpt lat="46.03593" lon="1.85655">
        <ele>538</ele>
        <time>2016-12-17T17:19:09Z</time>
      </trkpt>
      <trkpt lat="46.03594" lon="1.85665">
        <ele>539</ele>
        <time>2016-12-17T17:21:09Z</time>
      </trkpt>
      <trkpt lat="46.03659" lon="1.85699">
        <ele>531</ele>
        <time>2016-12-17T17:23:09Z</time>
      </trkpt>
      <trkpt lat="46.03658" lon="1.85696">
        <ele>531</ele>
        <time>2016-12-17T17:25:09Z</time>
      </trkpt>
      <trkpt lat="46.03657" lon="1.85694">
        <ele>531</ele>
        <time>2016-12-17T17:27:09Z</time>
      </trkpt>
      <trkpt lat="46.03658" lon="1.85692">
        <ele>531</ele>
        <time>2016-12-17T17:29:09Z</time>
      </trkpt>
      <trkpt lat="46.0366" lon="1.85684">
        <ele>531</ele>
        <time>2016-12-17T17:31:09Z</time>
      </trkpt>
      <trkpt lat="46.03662" lon="1.85673">
        <ele>531</ele>
        <time>2016-12-17T17:33:09Z</time>
      </trkpt>
      <trkpt lat="46.03666" lon="1.85657">
        <ele>530</ele>
        <time>2016-12-17T17:35:09Z</time>
      </trkpt>
      <trkpt lat="46.03673" lon="1.85634">
        <ele>530</ele>
        <time>2016-12-17T17:37:09Z</time>
      </trkpt>
      <trkpt lat="46.03684" lon="1.85612">
        <ele>530</ele>
        <time>2016-12-17T17:39:09Z</time>
      </trkpt>
      <trkpt lat="46.03694" lon="1.85595">
        <ele>529</ele>
        <time>2016-12-17T17:41:09Z</time>
      </trkpt>
      <trkpt lat="46.03702" lon="1.85584">
        <ele>528</ele>
        <time>2016-12-17T17:43:09Z</time>
      </trkpt>
      <trkpt lat="46.03705" lon="1.85584">
        <ele>528</ele>
        <time>2016-12-17T17:45:09Z</time>
      </trkpt>
      <trkpt lat="46.03716" lon="1.85577">
        <ele>526</ele>
        <time>2016-12-17T17:47:09Z</time>
      </trkpt>
      <trkpt lat="46.03717" lon="1.85575">
        <ele>526</ele>
        <time>2016-12-17T17:49:09Z</time>
      </trkpt>
      <trkpt lat="46.03719" lon="1.85574">
        <ele>526</ele>
        <time>2016-12-17T17:51:09Z</time>
      </trkpt>
      <trkpt lat="46.03723" lon="1.85572">
        <ele>525</ele>
        <time>2016-12-17T17:53:09Z</time>
      </trkpt>
      <trkpt lat="46.03726" lon="1.85571">
        <ele>525</ele>
        <time>2016-12-17T17:55:09Z</time>
      </trkpt>
      <trkpt lat="46.03738" lon="1.85567">
        <ele>523</ele>
        <time>2016-12-17T17:57:09Z</time>
      </trkpt>
      <trkpt lat="46.03743" lon="1.85565">
        <ele>523</ele>
        <time>2016-12-17T17:59:09Z</time>
      </trkpt>
      <trkpt lat="46.0375" lon="1.85559">
        <ele>522</ele>
        <time>2016-12-17T18:01:09Z</time>
      </trkpt>
      <trkpt lat="46.03762" lon="1.85544">
        <ele>520</ele>
        <time>2016-12-17T18:03:09Z</time>
      </trkpt>
      <trkpt lat="46.03766" lon="1.85539">
        <ele>520</ele>
        <time>2016-12-17T18:05:09Z</time>
      </trkpt>
      <trkpt lat="46.03771" lon="1.85533">
        <ele>519</ele>
        <time>2016-12-17T18:07:09Z</time>
      </trkpt>
      <trkpt lat="46.03774" lon="1.85529">
        <ele>519</ele>
        <time>2016-12-17T18:09:09Z</time>
      </trkpt>
      <trkpt lat="46.03784" lon="1.85514">
        <ele>518</ele>
        <time>2016-12-17T18:11:09Z</time>
      </trkpt>
      <trkpt lat="46.03791" lon="1.85497">
        <ele>517</ele>
        <time>2016-12-17T18:13:09Z</time>
      </trkpt>
      <trkpt lat="46.03805" lon="1.85485">
        <ele>515</ele>
        <time>2016-12-17T18:15:09Z</time>
      </trkpt>
      <trkpt lat="46.03811" lon="1.85467">
        <ele>514</ele>
        <time>2016-12-17T18:17:09Z</time>
      </trkpt>
      <trkpt lat="46.03818" lon="1.85457">
        <ele>513</ele>
        <time>2016-12-17T18:19:09Z</time>
      </trkpt>
      <trkpt lat="46.03821" lon="1.85454">
        <ele>512</ele>
        <time>2016-12-17T18:21:09Z</time>
      </trkpt>
      <trkpt lat="46.03822" lon="1.85453">
        <ele>512</ele>
        <time>2016-12-17T18:23:09Z</time>
      </trkpt>
      <trkpt lat="46.03824" lon="1.85451">
        <ele>512</ele>
        <time>2016-12-17T18:25:09Z</time>
      </trkpt>
      <trkpt lat="46.03824" lon="1.85447">
        <ele>512</ele>
        <time>2016-12-17T18:27:09Z</time>
      </trkpt>
      <trkpt lat="46.03823" lon="1.85444">
        <ele>512</ele>
        <time>2016-12-17T18:29:09Z</time>
      </trkpt>
      <trkpt lat="46.03821" lon="1.85441">
        <ele>512</ele>
        <time>2016-12-17T18:31:09Z</time>
      </trkpt>
      <trkpt lat="46.03819" lon="1.85439">
        <ele>512</ele>
        <time>2016-12-17T18:33:09Z</time>
      </trkpt>
      <trkpt lat="46.03806" lon="1.85433">
        <ele>514</ele>
        <time>2016-12-17T18:35:09Z</time>
      </trkpt>
      <trkpt lat="46.03799" lon="1.8543">
        <ele>515</ele>
        <time>2016-12-17T18:37:09Z</time>
      </trkpt>
      <trkpt lat="46.03795" lon="1.85429">
        <ele>516</ele>
        <time>2016-12-17T18:39:09Z</time>
      </trkpt>
      <trkpt lat="46.03792" lon="1.85427">
        <ele>516</ele>
        <time>2016-12-17T18:41:09Z</time>
      </trkpt>
      <trkpt lat="46.03779" lon="1.85419">
        <ele>518</ele>
        <time>2016-12-17T18:43:09Z</time>
      </trkpt>
      <trkpt lat="46.03762" lon="1.85413">
        <ele>520</ele>
        <time>2016-12-17T18:45:09Z</time>
      </trkpt>
      <trkpt lat="46.03753" lon="1.85411">
        <ele>521</ele>
        <time>2016-12-17T18:47:09Z</time>
      </trkpt>
      <trkpt lat="46.0374" lon="1.85401">
        <ele>521</ele>
        <time>2016-12-17T18:49:09Z</time>
      </trkpt>
      <trkpt lat="46.03729" lon="1.85389">
        <ele>521</ele>
        <time>2016-12-17T18:51:09Z</time>
      </trkpt>
      <trkpt lat="46.03721" lon="1.85378">
        <ele>521</ele>
        <time>2016-12-17T18:53:09Z</time>
      </trkpt>
      <trkpt lat="46.0371" lon="1.85369">
        <ele>521</ele>
        <time>2016-12-17T18:55:09Z</time>
      </trkpt>
      <trkpt lat="46.03699" lon="1.85357">
        <ele>522</ele>
        <time>2016-12-17T18:57:09Z</time>
      </trkpt>
      <trkpt lat="46.03697" lon="1.85354">
        <ele>522</ele>
        <time>2016-12-17T18:59:09Z</time>
      </trkpt>
      <trkpt lat="46.03694" lon="1.85342">
        <ele>521</ele>
        <time>2016-12-17T19:01:09Z</time>
      </trkpt>
      <trkpt lat="46.03694" lon="1.85333">
        <ele>521</ele>
        <time>2016-12-17T19:03:09Z</time>
      </trkpt>
      <trkpt lat="46.03692" lon="1.85323">
        <ele>522</ele>
        <time>2016-12-17T19:05:09Z</time>
      </trkpt>
      <trkpt lat="46.03692" lon="1.85318">
        <ele>522</ele>
        <time>2016-12-17T19:07:09Z</time>
      </trkpt>
      <trkpt lat="46.03693" lon="1.85301">
        <ele>522</ele>
        <time>2016-12-17T19:09:09Z</time>
      </trkpt>
      <trkpt lat="46.03692" lon="1.85296">
        <ele>522</ele>
        <time>2016-12-17T19:11:09Z</time>
      </trkpt>
      <trkpt lat="46.03693" lon="1.85292">
        <ele>522</ele>
        <time>2016-12-17T19:13:09Z</time>
      </trkpt>
      <trkpt lat="46.03693" lon="1.85287">
        <ele>522</ele>
        <time>2016-12-17T19:15:09Z</time>
      </trkpt>
      <trkpt lat="46.03692" lon="1.85266">
        <ele>523</ele>
        <time>2016-12-17T19:17:09Z</time>
      </trkpt>
      <trkpt lat="46.03676" lon="1.85237">
        <ele>526</ele>
        <time>2016-12-17T19:19:09Z</time>
      </trkpt>
      <trkpt lat="46.03671" lon="1.85229">
        <ele>526</ele>
        <time>2016-12-17T19:21:09Z</time>
      </trkpt>
      <trkpt lat="46.03659" lon="1.8521">
        <ele>527</ele>
        <time>2016-12-17T19:23:09Z</time>
      </trkpt>
      <trkpt lat="46.03655" lon="1.85201">
        <ele>527</ele>
        <time>2016-12-17T19:25:09Z</time>
      </trkpt>
      <trkpt lat="46.03652" lon="1.8518">
        <ele>526</ele>
        <time>2016-12-17T19:27:09Z</time>
      </trkpt>
      <trkpt lat="46.03652" lon="1.85154">
        <ele>526</ele>
        <time>2016-12-17T19:29:09Z</time>
      </trkpt>
      <trkpt lat="46.03652" lon="1.85136">
        <ele>525</ele>
        <time>2016-12-17T19:31:09Z</time>
      </trkpt>
      <trkpt lat="46.03653" lon="1.85129">
        <ele>525</ele>
        <time>2016-12-17T19:33:09Z</time>
      </trkpt>
      <trkpt lat="46.03653" lon="1.85123">
        <ele>525</ele>
        <time>2016-12-17T19:35:09Z</time>
      </trkpt>
      <trkpt lat="46.03651" lon="1.85103">
        <ele>525</ele>
        <time>2016-12-17T19:37:09Z</time>
      </trkpt>
      <trkpt lat="46.03653" lon="1.85086">
        <ele>524</ele>
        <time>2016-12-17T19:39:09Z</time>
      </trkpt>
      <trkpt lat="46.03653" lon="1.85075">
        <ele>524</ele>
        <time>2016-12-17T19:41:09Z</time>
      </trkpt>
      <trkpt lat="46.03655" lon="1.85063">
        <ele>523</ele>
        <time>2016-12-17T19:43:09Z</time>
      </trkpt>
      <trkpt lat="46.03495" lon="1.84905">
        <ele>522</ele>
        <time>2016-12-17T19:45:09Z</time>
      </trkpt>
      <trkpt lat="46.03493" lon="1.84904">
        <ele>521</ele>
        <time>2016-12-17T19:47:09Z</time>
      </trkpt>
      <trkpt lat="46.03489" lon="1.84902">
        <ele>521</ele>
        <time>2016-12-17T19:49:09Z</time>
      </trkpt>
      <trkpt lat="46.03487" lon="1.84902">
        <ele>521</ele>
        <time>2016-12-17T19:51:09Z</time>
      </trkpt>
      <trkpt lat="46.03485" lon="1.84903">
        <ele>521</ele>
        <time>2016-12-17T19:53:09Z</time>
      </trkpt>
      <trkpt lat="46.03479" lon="1.849">
        <ele>520</ele>
        <time>2016-12-17T19:55:09Z</time>
      </trkpt>
      <trkpt lat="46.03471" lon="1.84887">
        <ele>519</ele>
        <time>2016-12-17T19:57:09Z</time>
      </trkpt>
      <trkpt lat="46.03462" lon="1.84868">
        <ele>517</ele>
        <time>2016-12-17T19:59:09Z</time>
      </trkpt>
      <trkpt lat="46.03458" lon="1.84863">
        <ele>516</ele>
        <time>2016-12-17T20:01:09Z</time>
      </trkpt>
      <trkpt lat="46.03457" lon="1.8486">
        <ele>516</ele>
        <time>2016-12-17T20:03:09Z</time>
      </trkpt>
      <trkpt lat="46.0346" lon="1.84853">
        <ele>515</ele>
        <time>2016-12-17T20:05:09Z</time>
      </trkpt>
      <trkpt lat="46.03461" lon="1.84852">
        <ele>515</ele>
        <time>2016-12-17T20:07:09Z</time>
      </trkpt>
      <trkpt lat="46.03467" lon="1.84845">
        <ele>515</ele>
        <time>2016-12-17T20:09:09Z</time>
      </trkpt>
      <trkpt lat="46.03469" lon="1.84844">
        <ele>515</ele>
        <time>2016-12-17T20:11:09Z</time>
      </trkpt>
      <trkpt lat="46.03482" lon="1.84823">
        <ele>514</ele>
        <time>2016-12-17T20:13:09Z</time>
      </trkpt>
      <trkpt lat="46.03485" lon="1.84817">
        <ele>513</ele>
        <time>2016-12-17T20:15:09Z</time>
      </trkpt>
      <trkpt lat="46.03486" lon="1.84812">
        <ele>513</ele>
        <time>2016-12-17T20:17:09Z</time>
      </trkpt>
      <trkpt lat="46.03487" lon="1.84805">
        <ele>512</ele>
        <time>2016-12-17T20:19:09Z</time>
      </trkpt>
      <trkpt lat="46.03483" lon="1.84787">
        <ele>510</ele>
        <time>2016-12-17T20:21:09Z</time>
      </trkpt>
      <trkpt lat="46.03482" lon="1.84784">
        <ele>510</ele>
        <time>2016-12-17T20:23:09Z</time>
      </trkpt>
      <trkpt lat="46.03482" lon="1.84773">
        <ele>509</ele>
        <time>2016-12-17T20:25:09Z</time>
      </trkpt>
      <trkpt lat="46.0348" lon="1.84766">
        <ele>508</ele>
        <time>2016-12-17T20:27:09Z</time>
      </trkpt>
      <trkpt lat="46.03482" lon="1.84755">
        <ele>507</ele>
        <time>2016-12-17T20:29:09Z</time>
      </trkpt>
      <trkpt lat="46.03481" lon="1.84744">
        <ele>506</ele>
        <time>2016-12-17T20:31:09Z</time>
      </trkpt>
      <trkpt lat="46.03479" lon="1.84728">
        <ele>505</ele>
        <time>2016-12-17T20:33:09Z</time>
      </trkpt>
      <trkpt lat="46.0348" lon="1.84718">
        <ele>505</ele>
        <time>2016-12-17T20:35:09Z</time>
      </trkpt>
      <trkpt lat="46.03482" lon="1.8471">
        <ele>504</ele>
        <time>2016-12-17T20:37:09Z</time>
      </trkpt>
      <trkpt lat="46.03482" lon="1.84694">
        <ele>503</ele>
        <time>2016-12-17T20:39:09Z</time>
      </trkpt>
      <trkpt lat="46.03481" lon="1.84681">
        <ele>503</ele>
        <time>2016-12-17T20:41:09Z</time>
      </trkpt>
      <trkpt lat="46.03481" lon="1.84678">
        <ele>503</ele>
        <time>2016-12-17T20:43:09Z</time>
      </trkpt>
      <trkpt lat="46.03482" lon="1.84675">
        <ele>502</ele>
        <time>2016-12-17T20:45:09Z</time>
      </trkpt>
      <trkpt lat="46.03482" lon="1.84671">
        <ele>502</ele>
        <time>2016-12-17T20:47:09Z</time>
      </trkpt>
      <trkpt lat="46.0348" lon="1.84657">
        <ele>502</ele>
        <time>2016-12-17T20:49:09Z</time>
      </trkpt>
      <trkpt lat="46.03479" lon="1.84645">
        <ele>502</ele>
        <time>2016-12-17T20:51:09Z</time>
      </trkpt>
      <trkpt lat="46.03482" lon="1.84622">
        <ele>503</ele>
        <time>2016-12-17T20:53:09Z</time>
      </trkpt>
      <trkpt lat="46.03482" lon="1.84606">
        <ele>503</ele>
        <time>2016-12-17T20:55:09Z</time>
      </trkpt>
      <trkpt lat="46.03485" lon="1.84595">
        <ele>503</ele>
        <time>2016-12-17T20:57:09Z</time>
      </trkpt>
      <trkpt lat="46.03487" lon="1.8459">
        <ele>503</ele>
        <time>2016-12-17T20:59:09Z</time>
      </trkpt>
      <trkpt lat="46.03497" lon="1.84631">
        <ele>502</ele>
        <time>2016-12-17T21:01:09Z</time>
      </trkpt>
      <trkpt lat="46.03497" lon="1.84631">
        <ele>502</ele>
        <time>2016-12-17T21:03:09Z</time>
      </trkpt>
      <trkpt lat="46.03496" lon="1.84631">
        <ele>502</ele>
        <time>2016-12-17T21:05:09Z</time>
      </trkpt>
      <trkpt lat="46.03501" lon="1.84625">
        <ele>503</ele>
        <time>2016-12-17T21:07:09Z</time>
      </trkpt>
      <trkpt lat="46.03502" lon="1.84623">
        <ele>503</ele>
        <time>2016-12-17T21:09:09Z</time>
      </trkpt>
      <trkpt lat="46.03516" lon="1.84581">
        <ele>504</ele>
        <time>2016-12-17T21:11:09Z</time>
      </trkpt>
      <trkpt lat="46.03514" lon="1.84578">
        <ele>504</ele>
        <time>2016-12-17T21:13:09Z</time>
      </trkpt>
      <trkpt lat="46.03515" lon="1.84572">
        <ele>504</ele>
        <time>2016-12-17T21:15:09Z</time>
      </trkpt>
      <trkpt lat="46.0352" lon="1.84564">
        <ele>505</ele>
        <time>2016-12-17T21:17:09Z</time>
      </trkpt>
      <trkpt lat="46.03524" lon="1.8456">
        <ele>505</ele>
        <time>2016-12-17T21:19:09Z</time>
      </trkpt>
      <trkpt lat="46.03531" lon="1.8455">
        <ele>506</ele>
        <time>2016-12-17T21:21:09Z</time>
      </trkpt>
      <trkpt lat="46.03558" lon="1.84516">
        <ele>507</ele>
        <time>2016-12-17T21:23:09Z</time>
      </trkpt>
      <trkpt lat="46.03568" lon="1.84511">
        <ele>508</ele>
        <time>2016-12-17T21:25:09Z</time>
      </trkpt>
      <trkpt lat="46.03577" lon="1.84516">
        <ele>508</ele>
        <time>2016-12-17T21:27:09Z</time>
      </trkpt>
      <trkpt lat="46.03583" lon="1.8452">
        <ele>508</ele>
        <time>2016-12-17T21:29:09Z</time>
      </trkpt>
      <trkpt lat="46.03597" lon="1.84526">
        <ele>509</ele>
        <time>2016-12-17T21:31:09Z</time>
      </trkpt>
      <trkpt lat="46.03602" lon="1.84528">
        <ele>509</ele>
        <time>2016-12-17T21:33:09Z</time>
      </trkpt>
      <trkpt lat="46.03617" lon="1.84537">
        <ele>510</ele>
        <time>2016-12-17T21:35:09Z</time>
      </trkpt>
      <trkpt lat="46.03631" lon="1.84557">
        <ele>512</ele>
        <time>2016-12-17T21:37:09Z</time>
      </trkpt>
      <trkpt lat="46.0365" lon="1.84572">
        <ele>513</ele>
        <time>2016-12-17T21:39:09Z</time>
      </trkpt>
      <trkpt lat="46.03659" lon="1.84592">
        <ele>513</ele>
        <time>2016-12-17T21:41:09Z</time>
      </trkpt>
      <trkpt lat="46.03665" lon="1.84605">
        <ele>514</ele>
        <time>2016-12-17T21:43:09Z</time>
      </trkpt>
      <trkpt lat="46.03667" lon="1.84605">
        <ele>512</ele>
        <time>2016-12-17T21:45:09Z</time>
      </trkpt>
      <trkpt lat="46.03671" lon="1.84603">
        <ele>512</ele>
        <time>2016-12-17T21:47:09Z</time>
      </trkpt>
      <trkpt lat="46.03674" lon="1.84596">
        <ele>512</ele>
        <time>2016-12-17T21:49:09Z</time>
      </trkpt>
      <trkpt lat="46.03674" lon="1.84594">
        <ele>512</ele>
        <time>2016-12-17T21:51:09Z</time>
      </trkpt>
      <trkpt lat="46.03675" lon="1.84588">
        <ele>512</ele>
        <time>2016-12-17T21:53:09Z</time>
      </trkpt>
      <trkpt lat="46.03677" lon="1.84577">
        <ele>513</ele>
        <time>2016-12-17T21:55:09Z</time>
      </trkpt>
      <trkpt lat="46.0368" lon="1.8457">
        <ele>513</ele>
        <time>2016-12-17T21:57:09Z</time>
      </trkpt>
      <trkpt lat="46.03691" lon="1.84549">
        <ele>512</ele>
        <time>2016-12-17T21:59:09Z</time>
      </trkpt>
      <trkpt lat="46.03692" lon="1.84546">
        <ele>512</ele>
        <time>2016-12-17T22:01:09Z</time>
      </trkpt>
      <trkpt lat="46.03694" lon="1.84544">
        <ele>511</ele>
        <time>2016-12-17T22:03:09Z</time>
      </trkpt>
      <trkpt lat="46.03696" lon="1.84534">
        <ele>511</ele>
        <time>2016-12-17T22:05:09Z</time>
      </trkpt>
      <trkpt lat="46.03694" lon="1.84515">
        <ele>511</ele>
        <time>2016-12-17T22:07:09Z</time>
      </trkpt>
      <trkpt lat="46.03693" lon="1.84497">
        <ele>510</ele>
        <time>2016-12-17T22:09:09Z</time>
      </trkpt>
      <trkpt lat="46.03689" lon="1.84483">
        <ele>509</ele>
        <time>2016-12-17T22:11:09Z</time>
      </trkpt>
      <trkpt lat="46.03673" lon="1.84463">
        <ele>508</ele>
        <time>2016-12-17T22:13:09Z</time>
      </trkpt>
      <trkpt lat="46.03672" lon="1.8446">
        <ele>508</ele>
        <time>2016-12-17T22:15:09Z</time>
      </trkpt>
      <trkpt lat="46.03683" lon="1.84456">
        <ele>507</ele>
        <time>2016-12-17T22:17:09Z</time>
      </trkpt>
      <trkpt lat="46.03709" lon="1.84439">
        <ele>504</ele>
        <time>2016-12-17T22:19:09Z</time>
      </trkpt>
      <trkpt lat="46.03743" lon="1.8442">
        <ele>502</ele>
        <time>2016-12-17T22:21:09Z</time>
      </trkpt>
      <trkpt lat="46.03749" lon="1.84418">
        <ele>502</ele>
        <time>2016-12-17T22:23:09Z</time>
      </trkpt>
      <trkpt lat="46.03771" lon="1.84413">
        <ele>505</ele>
        <time>2016-12-17T22:25:09Z</time>
      </trkpt>
      <trkpt lat="46.03781" lon="1.84412">
        <ele>506</ele>
        <time>2016-12-17T22:27:09Z</time>
      </trkpt>
      <trkpt lat="46.03786" lon="1.8441">
        <ele>507</ele>
        <time>2016-12-17T22:29:09Z</time>
      </trkpt>
      <trkpt lat="46.0379" lon="1.8441">
        <ele>507</ele>
        <time>2016-12-17T22:31:09Z</time>
      </trkpt>
      <trkpt lat="46.03805" lon="1.84406">
        <ele>510</ele>
        <time>2016-12-17T22:33:09Z</time>
      </trkpt>
      <trkpt lat="46.03808" lon="1.84405">
        <ele>510</ele>
        <time>2016-12-17T22:35:09Z</time>
      </trkpt>
      <trkpt lat="46.03814" lon="1.84403">
        <ele>511</ele>
        <time>2016-12-17T22:37:09Z</time>
      </trkpt>
      <trkpt lat="46.03819" lon="1.84404">
        <ele>511</ele>
        <time>2016-12-17T22:39:09Z</time>
      </trkpt>
      <trkpt lat="46.03821" lon="1.84404">
        <ele>512</ele>
        <time>2016-12-17T22:41:09Z</time>
      </trkpt>
      <trkpt lat="46.03823" lon="1.84403">
        <ele>512</ele>
        <time>2016-12-17T22:43:09Z</time>
      </trkpt>
      <trkpt lat="46.03826" lon="1.84403">
        <ele>512</ele>
        <time>2016-12-17T22:45:09Z</time>
      </trkpt>
      <trkpt lat="46.03829" lon="1.84402">
        <ele>513</ele>
        <time>2016-12-17T22:47:09Z</time>
      </trkpt>
      <trkpt lat="46.03839" lon="1.84399">
        <ele>514</ele>
        <time>2016-12-17T22:49:09Z</time>
      </trkpt>
      <trkpt lat="46.03848" lon="1.84394">
        <ele>514</ele>
        <time>2016-12-17T22:51:09Z</time>
      </trkpt>
      <trkpt lat="46.0387" lon="1.84379">
        <ele>516</ele>
        <time>2016-12-17T22:53:09Z</time>
      </trkpt>
      <trkpt lat="46.03875" lon="1.84374">
        <ele>517</ele>
        <time>2016-12-17T22:55:09Z</time>
      </trkpt>
      <trkpt lat="46.03889" lon="1.84361">
        <ele>519</ele>
        <time>2016-12-17T22:57:09Z</time>
      </trkpt>
      <trkpt lat="46.039" lon="1.84342">
        <ele>521</ele>
        <time>2016-12-17T22:59:09Z</time>
      </trkpt>
      <trkpt lat="46.03902" lon="1.84334">
        <ele>522</ele>
        <time>2016-12-17T23:01:09Z</time>
      </trkpt>
      <trkpt lat="46.03907" lon="1.84326">
        <ele>522</ele>
        <time>2016-12-17T23:03:09Z</time>
      </trkpt>
      <trkpt lat="46.0391" lon="1.84321">
        <ele>523</ele>
        <time>2016-12-17T23:05:09Z</time>
      </trkpt>
      <trkpt lat="46.0392" lon="1.84299">
        <ele>524</ele>
        <time>2016-12-17T23:07:09Z</time>
      </trkpt>
      <trkpt lat="46.03922" lon="1.84296">
        <ele>524</ele>
        <time>2016-12-17T23:09:09Z</time>
      </trkpt>
      <trkpt lat="46.03926" lon="1.84291">
        <ele>525</ele>
        <time>2016-12-17T23:11:09Z</time>
      </trkpt>
      <trkpt lat="46.03934" lon="1.84277">
        <ele>526</ele>
        <time>2016-12-17T23:13:09Z</time>
      </trkpt>
      <trkpt lat="46.0394" lon="1.84269">
        <ele>526</ele>
        <time>2016-12-17T23:15:09Z</time>
      </trkpt>
      <trkpt lat="46.03942" lon="1.84266">
        <ele>526</ele>
        <time>2016-12-17T23:17:09Z</time>
      </trkpt>
      <trkpt lat="46.03953" lon="1.84255">
        <ele>528</ele>
        <time>2016-12-17T23:19:09Z</time>
      </trkpt>
      <trkpt lat="46.03956" lon="1.84253">
        <ele>528</ele>
        <time>2016-12-17T23:21:09Z</time>
      </trkpt>
      <trkpt lat="46.03971" lon="1.84238">
        <ele>531</ele>
        <time>2016-12-17T23:23:09Z</time>
      </trkpt>
      <trkpt lat="46.03976" lon="1.84235">
        <ele>532</ele>
        <time>2016-12-17T23:25:09Z</time>
      </trkpt>
      <trkpt lat="46.03992" lon="1.84226">
        <ele>534</ele>
        <time>2016-12-17T23:27:09Z</time>
      </trkpt>
      <trkpt lat="46.04015" lon="1.84211">
        <ele>537</ele>
        <time>2016-12-17T23:29:09Z</time>
      </trkpt>
      <trkpt lat="46.04035" lon="1.84197">
        <ele>539</ele>
        <time>2016-12-17T23:31:09Z</time>
      </trkpt>
      <trkpt lat="46.04037" lon="1.84196">
        <ele>539</ele>
        <time>2016-12-17T23:33:09Z</time>
      </trkpt>
      <trkpt lat="46.0404" lon="1.84196">
        <ele>539</ele>
        <time>2016-12-17T23:35:09Z</time>
      </trkpt>
      <trkpt lat="46.04042" lon="1.84196">
        <ele>539</ele>
        <time>2016-12-17T23:37:09Z</time>
      </trkpt>
      <trkpt lat="46.04045" lon="1.84197">
        <ele>539</ele>
        <time>2016-12-17T23:39:09Z</time>
      </trkpt>
      <trkpt lat="46.04049" lon="1.84198">
        <ele>539</ele>
        <time>2016-12-17T23:41:09Z</time>
      </trkpt>
      <trkpt lat="46.04066" lon="1.84196">
        <ele>539</ele>
        <time>2016-12-17T23:43:09Z</time>
      </trkpt>
      <trkpt lat="46.04082" lon="1.84191">
        <ele>540</ele>
        <time>2016-12-17T23:45:09Z</time>
      </trkpt>
      <trkpt lat="46.04097" lon="1.84194">
        <ele>539</ele>
        <time>2016-12-17T23:47:09Z</time>
      </trkpt>
      <trkpt lat="46.04111" lon="1.842">
        <ele>538</ele>
        <time>2016-12-17T23:49:09Z</time>
      </trkpt>
      <trkpt lat="46.04122" lon="1.84198">
        <ele>538</ele>
        <time>2016-12-17T23:51:09Z</time>
      </trkpt>
      <trkpt lat="46.04131" lon="1.84196">
        <ele>539</ele>
        <time>2016-12-17T23:53:09Z</time>
      </trkpt>
      <trkpt lat="46.04147" lon="1.84189">
        <ele>541</ele>
        <time>2016-12-17T23:55:09Z</time>
      </trkpt>
      <trkpt lat="46.04157" lon="1.84187">
        <ele>541</ele>
        <time>2016-12-17T23:57:09Z</time>
      </trkpt>
      <trkpt lat="46.04183" lon="1.84179">
        <ele>543</ele>
        <time>2016-12-17T23:59:09Z</time>
      </trkpt>
      <trkpt lat="46.04212" lon="1.8418">
        <ele>543</ele>
        <time>2016-12-18T00:01:09Z</time>
      </trkpt>
      <trkpt lat="46.0422" lon="1.84192">
        <ele>542</ele>
        <time>2016-12-18T00:03:09Z</time>
      </trkpt>
      <trkpt lat="46.04224" lon="1.84201">
        <ele>541</ele>
        <time>2016-12-18T00:05:09Z</time>
      </trkpt>
      <trkpt lat="46.04226" lon="1.84206">
        <ele>540</ele>
        <time>2016-12-18T00:07:09Z</time>
      </trkpt>
      <trkpt lat="46.04229" lon="1.84211">
        <ele>540</ele>
        <time>2016-12-18T00:09:09Z</time>
      </trkpt>
      <trkpt lat="46.04241" lon="1.84243">
        <ele>537</ele>
        <time>2016-12-18T00:11:09Z</time>
      </trkpt>
      <trkpt lat="46.04243" lon="1.84263">
        <ele>537</ele>
        <time>2016-12-18T00:13:09Z</time>
      </trkpt>
      <trkpt lat="46.04239" lon="1.84279">
        <ele>537</ele>
        <time>2016-12-18T00:15:09Z</time>
      </trkpt>
      <trkpt lat="46.04236" lon="1.84289">
        <ele>537</ele>
        <time>2016-12-18T00:17:09Z</time>
      </trkpt>
      <trkpt lat="46.04228" lon="1.84315">
        <ele>536</ele>
        <time>2016-12-18T00:19:09Z</time>
      </trkpt>
      <trkpt lat="46.04216" lon="1.84342">
        <ele>534</ele>
        <time>2016-12-18T00:21:09Z</time>
      </trkpt>
      <trkpt lat="46.04197" lon="1.84395">
        <ele>533</ele>
        <time>2016-12-18T00:23:09Z</time>
      </trkpt>
      <trkpt lat="46.04195" lon="1.84407">
        <ele>533</ele>
        <time>2016-12-18T00:25:09Z</time>
      </trkpt>
      <trkpt lat="46.04195" lon="1.84412">
        <ele>534</ele>
        <time>2016-12-18T00:27:09Z</time>
      </trkpt>
      <trkpt lat="46.04195" lon="1.84413">
        <ele>534</ele>
        <time>2016-12-18T00:29:09Z</time>
      </trkpt>
      <trkpt lat="46.04195" lon="1.84414">
        <ele>534</ele>
        <time>2016-12-18T00:31:09Z</time>
      </trkpt>
      <trkpt lat="46.04199" lon="1.84412">
        <ele>534</ele>
        <time>2016-12-18T00:33:09Z</time>
      </trkpt>
      <trkpt lat="46.04201" lon="1.8441">
        <ele>535</ele>
        <time>2016-12-18T00:35:09Z</time>
      </trkpt>
      <trkpt lat="46.04203" lon="1.84405">
        <ele>535</ele>
        <time>2016-12-18T00:37:09Z</time>
      </trkpt>
      <trkpt lat="46.04204" lon="1.84401">
        <ele>535</ele>
        <time>2016-12-18T00:39:09Z</time>
      </trkpt>
      <trkpt lat="46.04206" lon="1.84392">
        <ele>535</ele>
        <time>2016-12-18T00:41:09Z</time>
      </trkpt>
      <trkpt lat="46.0421" lon="1.84381">
        <ele>535</ele>
        <time>2016-12-18T00:43:09Z</time>
      </trkpt>
      <trkpt lat="46.04217" lon="1.84371">
        <ele>536</ele>
        <time>2016-12-18T00:45:09Z</time>
      </trkpt>
      <trkpt lat="46.04222" lon="1.84362">
        <ele>536</ele>
        <time>2016-12-18T00:47:09Z</time>
      </trkpt>
      <trkpt lat="46.04227" lon="1.8436">
        <ele>537</ele>
        <time>2016-12-18T00:49:09Z</time>
      </trkpt>
      <trkpt lat="46.04229" lon="1.84359">
        <ele>537</ele>
        <time>2016-12-18T00:51:09Z</time>
      </trkpt>
      <trkpt lat="46.04237" lon="1.84354">
        <ele>539</ele>
        <time>2016-12-18T00:53:09Z</time>
      </trkpt>
      <trkpt lat="46.04242" lon="1.84348">
        <ele>539</ele>
        <time>2016-12-18T00:55:09Z</time>
      </trkpt>
      <trkpt lat="46.04247" lon="1.84338">
        <ele>540</ele>
        <time>2016-12-18T00:57:09Z</time>
      </trkpt>
      <trkpt lat="46.04248" lon="1.84335">
        <ele>540</ele>
        <time>2016-12-18T00:59:09Z</time>
      </trkpt>
      <trkpt lat="46.0425" lon="1.84332">
        <ele>540</ele>
        <time>2016-12-18T01:01:09Z</time>
      </trkpt>
      <trkpt lat="46.04252" lon="1.84329">
        <ele>540</ele>
        <time>2016-12-18T01:03:09Z</time>
      </trkpt>
      <trkpt lat="46.04254" lon="1.8433">
        <ele>541</ele>
        <time>2016-12-18T01:05:09Z</time>
      </trkpt>
      <trkpt lat="46.04268" lon="1.84332">
        <ele>544</ele>
        <time>2016-12-18T01:07:09Z</time>
      </trkpt>
      <trkpt lat="46.04271" lon="1.8433">
        <ele>544</ele>
        <time>2016-12-18T01:09:09Z</time>
      </trkpt>
      <trkpt lat="46.04282" lon="1.84323">
        <ele>547</ele>
        <time>2016-12-18T01:11:09Z</time>
      </trkpt>
      <trkpt lat="46.04285" lon="1.84321">
        <ele>547</ele>
        <time>2016-12-18T01:13:09Z</time>
      </trkpt>
      <trkpt lat="46.04301" lon="1.8431">
        <ele>550</ele>
        <time>2016-12-18T01:15:09Z</time>
      </trkpt>
      <trkpt lat="46.04316" lon="1.84294">
        <ele>552</ele>
        <time>2016-12-18T01:17:09Z</time>
      </trkpt>
      <trkpt lat="46.04318" lon="1.84291">
        <ele>552</ele>
        <time>2016-12-18T01:19:09Z</time>
      </trkpt>
      <trkpt lat="46.04323" lon="1.84287">
        <ele>553</ele>
        <time>2016-12-18T01:21:09Z</time>
      </trkpt>
      <trkpt lat="46.04326" lon="1.84286">
        <ele>554</ele>
        <time>2016-12-18T01:23:09Z</time>
      </trkpt>
      <trkpt lat="46.04329" lon="1.84286">
        <ele>554</ele>
        <time>2016-12-18T01:25:09Z</time>
      </trkpt>
      <trkpt lat="46.04332" lon="1.84286">
        <ele>555</ele>
        <time>2016-12-18T01:27:09Z</time>
      </trkpt>
      <trkpt lat="46.04334" lon="1.84286">
        <ele>555</ele>
        <time>2016-12-18T01:29:09Z</time>
      </trkpt>
      <trkpt lat="46.04337" lon="1.84286">
        <ele>556</ele>
        <time>2016-12-18T01:31:09Z</time>
      </trkpt>
      <trkpt lat="46.04345" lon="1.84286">
        <ele>557</ele>
        <time>2016-12-18T01:33:09Z</time>
      </trkpt>
      <trkpt lat="46.04351" lon="1.84285">
        <ele>558</ele>
        <time>2016-12-18T01:35:09Z</time>
      </trkpt>
      <trkpt lat="46.04353" lon="1.84284">
        <ele>558</ele>
        <time>2016-12-18T01:37:09Z</time>
      </trkpt>
      <trkpt lat="46.04373" lon="1.84282">
        <ele>561</ele>
        <time>2016-12-18T01:39:09Z</time>
      </trkpt>
      <trkpt lat="46.04379" lon="1.84281">
        <ele>562</ele>
        <time>2016-12-18T01:41:09Z</time>
      </trkpt>
      <trkpt lat="46.04384" lon="1.84279">
        <ele>562</ele>
        <time>2016-12-18T01:43:09Z</time>
      </trkpt>
      <trkpt lat="46.04386" lon="1.84278">
        <ele>563</ele>
        <time>2016-12-18T01:45:09Z</time>
      </trkpt>
      <trkpt lat="46.0439" lon="1.84276">
        <ele>563</ele>
        <time>2016-12-18T01:47:09Z</time>
      </trkpt>
      <trkpt lat="46.04392" lon="1.84275">
        <ele>563</ele>
        <time>2016-12-18T01:49:09Z</time>
      </trkpt>
      <trkpt lat="46.04403" lon="1.84273">
        <ele>565</ele>
        <time>2016-12-18T01:51:09Z</time>
      </trkpt>
      <trkpt lat="46.04407" lon="1.8427">
        <ele>565</ele>
        <time>2016-12-18T01:53:09Z</time>
      </trkpt>
      <trkpt lat="46.04414" lon="1.84266">
        <ele>566</ele>
        <time>2016-12-18T01:55:09Z</time>
      </trkpt>
      <trkpt lat="46.04421" lon="1.84262">
        <ele>566</ele>
        <time>2016-12-18T01:57:09Z</time>
      </trkpt>
      <trkpt lat="46.04427" lon="1.84256">
        <ele>566</ele>
        <time>2016-12-18T01:59:09Z</time>
      </trkpt>
      <trkpt lat="46.04432" lon="1.84253">
        <ele>567</ele>
        <time>2016-12-18T02:01:09Z</time>
      </trkpt>
      <trkpt lat="46.04435" lon="1.84251">
        <ele>567</ele>
        <time>2016-12-18T02:03:09Z</time>
      </trkpt>
      <trkpt lat="46.04447" lon="1.84243">
        <ele>569</ele>
        <time>2016-12-18T02:05:09Z</time>
      </trkpt>
      <trkpt lat="46.04452" lon="1.84243">
        <ele>569</ele>
        <time>2016-12-18T02:07:09Z</time>
      </trkpt>
      <trkpt lat="46.04454" lon="1.84244">
        <ele>570</ele>
        <time>2016-12-18T02:09:09Z</time>
      </trkpt>
      <trkpt lat="46.04458" lon="1.84244">
        <ele>571</ele>
        <time>2016-12-18T02:11:09Z</time>
      </trkpt>
      <trkpt lat="46.04469" lon="1.84251">
        <ele>573</ele>
        <time>2016-12-18T02:13:09Z</time>
      </trkpt>
      <trkpt lat="46.04473" lon="1.84255">
        <ele>574</ele>
        <time>2016-12-18T02:15:09Z</time>
      </trkpt>
      <trkpt lat="46.04475" lon="1.84255">
        <ele>574</ele>
        <time>2016-12-18T02:17:09Z</time>
      </trkpt>
      <trkpt lat="46.0448" lon="1.84259">
        <ele>575</ele>
        <time>2016-12-18T02:19:09Z</time>
      </trkpt>
      <trkpt lat="46.04484" lon="1.84264">
        <ele>576</ele>
        <time>2016-12-18T02:21:09Z</time>
      </trkpt>
      <trkpt lat="46.04485" lon="1.84266">
        <ele>577</ele>
        <time>2016-12-18T02:23:09Z</time>
      </trkpt>
      <trkpt lat="46.04487" lon="1.84268">
        <ele>577</ele>
        <time>2016-12-18T02:25:09Z</time>
      </trkpt>
      <trkpt lat="46.0449" lon="1.84271">
        <ele>578</ele>
        <time>2016-12-18T02:27:09Z</time>
      </trkpt>
      <trkpt lat="46.04496" lon="1.84273">
        <ele>579</ele>
        <time>2016-12-18T02:29:09Z</time>
      </trkpt>
      <trkpt lat="46.04498" lon="1.84272">
        <ele>579</ele>
        <time>2016-12-18T02:31:09Z</time>
      </trkpt>
      <trkpt lat="46.04501" lon="1.84272">
        <ele>579</ele>
        <time>2016-12-18T02:33:09Z</time>
      </trkpt>
      <trkpt lat="46.0451" lon="1.84269">
        <ele>580</ele>
        <time>2016-12-18T02:35:09Z</time>
      </trkpt>
      <trkpt lat="46.04537" lon="1.84256">
        <ele>582</ele>
        <time>2016-12-18T02:37:09Z</time>
      </trkpt>
      <trkpt lat="46.0455" lon="1.84246">
        <ele>583</ele>
        <time>2016-12-18T02:39:09Z</time>
      </trkpt>
      <trkpt lat="46.04554" lon="1.84245">
        <ele>583</ele>
        <time>2016-12-18T02:41:09Z</time>
      </trkpt>
      <trkpt lat="46.04556" lon="1.84244">
        <ele>583</ele>
        <time>2016-12-18T02:43:09Z</time>
      </trkpt>
      <trkpt lat="46.04558" lon="1.84242">
        <ele>584</ele>
        <time>2016-12-18T02:45:09Z</time>
      </trkpt>
      <trkpt lat="46.04572" lon="1.84219">
        <ele>586</ele>
        <time>2016-12-18T02:47:09Z</time>
      </trkpt>
      <trkpt lat="46.04576" lon="1.84211">
        <ele>586</ele>
        <time>2016-12-18T02:49:09Z</time>
      </trkpt>
      <trkpt lat="46.0458" lon="1.84205">
        <ele>587</ele>
        <time>2016-12-18T02:51:09Z</time>
      </trkpt>
      <trkpt lat="46.04598" lon="1.8419">
        <ele>588</ele>
        <time>2016-12-18T02:53:09Z</time>
      </trkpt>
      <trkpt lat="46.04604" lon="1.84183">
        <ele>588</ele>
        <time>2016-12-18T02:55:09Z</time>
      </trkpt>
      <trkpt lat="46.04614" lon="1.84171">
        <ele>589</ele>
        <time>2016-12-18T02:57:09Z</time>
      </trkpt>
      <trkpt lat="46.04617" lon="1.8417">
        <ele>589</ele>
        <time>2016-12-18T02:59:09Z</time>
      </trkpt>
      <trkpt lat="46.04636" lon="1.84172">
        <ele>588</ele>
        <time>2016-12-18T03:01:09Z</time>
      </trkpt>
      <trkpt lat="46.04662" lon="1.84176">
        <ele>588</ele>
        <time>2016-12-18T03:03:09Z</time>
      </trkpt>
      <trkpt lat="46.04667" lon="1.84179">
        <ele>588</ele>
        <time>2016-12-18T03:05:09Z</time>
      </trkpt>
      <trkpt lat="46.04677" lon="1.84177">
        <ele>588</ele>
        <time>2016-12-18T03:07:09Z</time>
      </trkpt>
      <trkpt lat="46.04682" lon="1.84175">
        <ele>588</ele>
        <time>2016-12-18T03:09:09Z</time>
      </trkpt>
      <trkpt lat="46.0469" lon="1.84169">
        <ele>589</ele>
        <time>2016-12-18T03:11:09Z</time>
      </trkpt>
      <trkpt lat="46.04693" lon="1.84168">
        <ele>589</ele>
        <time>2016-12-18T03:13:09Z</time>
      </trkpt>
      <trkpt lat="46.04698" lon="1.84167">
        <ele>589</ele>
        <time>2016-12-18T03:15:09Z</time>
      </trkpt>
      <trkpt lat="46.047" lon="1.84168">
        <ele>589</ele>
        <time>2016-12-18T03:17:09Z</time>
      </trkpt>
      <trkpt lat="46.04711" lon="1.84165">
        <ele>589</ele>
        <time>2016-12-18T03:19:09Z</time>
      </trkpt>
      <trkpt lat="46.04725" lon="1.84157">
        <ele>589</ele>
        <time>2016-12-18T03:21:09Z</time>
      </trkpt>
      <trkpt lat="46.04725" lon="1.84156">
        <ele>589</ele>
        <time>2016-12-18T03:23:09Z</time>
      </trkpt>
      <trkpt lat="46.04726" lon="1.84154">
        <ele>589</ele>
        <time>2016-12-18T03:25:09Z</time>
      </trkpt>
      <trkpt lat="46.04735" lon="1.8415">
        <ele>589</ele>
        <time>2016-12-18T03:27:09Z</time>
      </trkpt>
      <trkpt lat="46.04754" lon="1.84146">
        <ele>590</ele>
        <time>2016-12-18T03:29:09Z</time>
      </trkpt>
      <trkpt lat="46.04757" lon="1.84147">
        <ele>590</ele>
        <time>2016-12-18T03:31:09Z</time>
      </trkpt>
      <trkpt lat="46.04764" lon="1.84146">
        <ele>591</ele>
        <time>2016-12-18T03:33:09Z</time>
      </trkpt>
      <trkpt lat="46.04778" lon="1.84146">
        <ele>592</ele>
        <time>2016-12-18T03:35:09Z</time>
      </trkpt>
      <trkpt lat="46.04928" lon="1.8412">
        <ele>585</ele>
        <time>2016-12-18T03:37:09Z</time>
      </trkpt>
      <trkpt lat="46.04932" lon="1.8412">
        <ele>584</ele>
        <time>2016-12-18T03:39:09Z</time>
      </trkpt>
      <trkpt lat="46.04938" lon="1.84122">
        <ele>584</ele>
        <time>2016-12-18T03:41:09Z</time>
      </trkpt>
      <trkpt lat="46.04943" lon="1.84123">
        <ele>583</ele>
        <time>2016-12-18T03:43:09Z</time>
      </trkpt>
      <trkpt lat="46.04951" lon="1.84122">
        <ele>582</ele>
        <time>2016-12-18T03:45:09Z</time>
      </trkpt>
      <trkpt lat="46.05057" lon="1.84106">
        <ele>573</ele>
        <time>2016-12-18T03:47:09Z</time>
      </trkpt>
      <trkpt lat="46.05058" lon="1.84104">
        <ele>573</ele>
        <time>2016-12-18T03:49:09Z</time>
      </trkpt>
      <trkpt lat="46.05063" lon="1.84097">
        <ele>573</ele>
        <time>2016-12-18T03:51:09Z</time>
      </trkpt>
      <trkpt lat="46.05063" lon="1.84087">
        <ele>573</ele>
        <time>2016-12-18T03:53:09Z</time>
      </trkpt>
      <trkpt lat="46.05062" lon="1.84076">
        <ele>573</ele>
        <time>2016-12-18T03:55:09Z</time>
      </trkpt>
      <trkpt lat="46.05064" lon="1.84062">
        <ele>573</ele>
        <time>2016-12-18T03:57:09Z</time>
      </trkpt>
      <trkpt lat="46.05064" lon="1.84054">
        <ele>573</ele>
        <time>2016-12-18T03:59:09Z</time>
      </trkpt>
      <trkpt lat="46.05064" lon="1.8405">
        <ele>573</ele>
        <time>2016-12-18T04:01:09Z</time>
      </trkpt>
      <trkpt lat="46.05065" lon="1.84046">
        <ele>573</ele>
        <time>2016-12-18T04:03:09Z</time>
      </trkpt>
      <trkpt lat="46.05068" lon="1.84037">
        <ele>573</ele>
        <time>2016-12-18T04:05:09Z</time>
      </trkpt>
      <trkpt lat="46.05073" lon="1.84022">
        <ele>572</ele>
        <time>2016-12-18T04:07:09Z</time>
      </trkpt>
      <trkpt lat="46.05074" lon="1.84015">
        <ele>572</ele>
        <time>2016-12-18T04:09:09Z</time>
      </trkpt>
      <trkpt lat="46.05074" lon="1.84012">
        <ele>572</ele>
        <time>2016-12-18T04:11:09Z</time>
      </trkpt>
      <trkpt lat="46.05078" lon="1.83988">
        <ele>571</ele>
        <time>2016-12-18T04:13:09Z</time>
      </trkpt>
      <trkpt lat="46.05082" lon="1.83977">
        <ele>570</ele>
        <time>2016-12-18T04:15:09Z</time>
      </trkpt>
      <trkpt lat="46.05082" lon="1.83969">
        <ele>569</ele>
        <time>2016-12-18T04:17:09Z</time>
      </trkpt>
      <trkpt lat="46.05083" lon="1.83964">
        <ele>569</ele>
        <time>2016-12-18T04:19:09Z</time>
      </trkpt>
      <trkpt lat="46.05086" lon="1.83958">
        <ele>568</ele>
        <time>2016-12-18T04:21:09Z</time>
      </trkpt>
      <trkpt lat="46.05087" lon="1.83952">
        <ele>567</ele>
        <time>2016-12-18T04:23:09Z</time>
      </trkpt>
      <trkpt lat="46.05087" lon="1.83948">
        <ele>567</ele>
        <time>2016-12-18T04:25:09Z</time>
      </trkpt>
      <trkpt lat="46.05086" lon="1.83939">
        <ele>566</ele>
        <time>2016-12-18T04:27:09Z</time>
      </trkpt>
      <trkpt lat="46.05086" lon="1.83927">
        <ele>565</ele>
        <time>2016-12-18T04:29:09Z</time>
      </trkpt>
      <trkpt lat="46.05085" lon="1.83911">
        <ele>564</ele>
        <time>2016-12-18T04:31:09Z</time>
      </trkpt>
      <trkpt lat="46.05083" lon="1.83891">
        <ele>562</ele>
        <time>2016-12-18T04:33:09Z</time>
      </trkpt>
      <trkpt lat="46.05082" lon="1.83887">
        <ele>562</ele>
        <time>2016-12-18T04:35:09Z</time>
      </trkpt>
      <trkpt lat="46.05083" lon="1.83879">
        <ele>562</ele>
        <time>2016-12-18T04:37:09Z</time>
      </trkpt>
      <trkpt lat="46.05085" lon="1.83868">
        <ele>561</ele>
        <time>2016-12-18T04:39:09Z</time>
      </trkpt>
      <trkpt lat="46.0509" lon="1.83863">
        <ele>561</ele>
        <time>2016-12-18T04:41:09Z</time>
      </trkpt>
      <trkpt lat="46.05092" lon="1.83859">
        <ele>561</ele>
        <time>2016-12-18T04:43:09Z</time>
      </trkpt>
      <trkpt lat="46.0512" lon="1.83831">
        <ele>561</ele>
        <time>2016-12-18T04:45:09Z</time>
      </trkpt>
      <trkpt lat="46.05144" lon="1.83819">
        <ele>562</ele>
        <time>2016-12-18T04:47:09Z</time>
      </trkpt>
      <trkpt lat="46.05164" lon="1.83806">
        <ele>564</ele>
        <time>2016-12-18T04:49:09Z</time>
      </trkpt>
      <trkpt lat="46.05168" lon="1.83805">
        <ele>564</ele>
        <time>2016-12-18T04:51:09Z</time>
      </trkpt>
      <trkpt lat="46.05182" lon="1.83799">
        <ele>565</ele>
        <time>2016-12-18T04:53:09Z</time>
      </trkpt>
      <trkpt lat="46.05188" lon="1.83796">
        <ele>566</ele>
        <time>2016-12-18T04:55:09Z</time>
      </trkpt>
      <trkpt lat="46.05191" lon="1.83795">
        <ele>566</ele>
        <time>2016-12-18T04:57:09Z</time>
      </trkpt>
      <trkpt lat="46.05195" lon="1.83795">
        <ele>567</ele>
        <time>2016-12-18T04:59:09Z</time>
      </trkpt>
      <trkpt lat="46.05197" lon="1.83796">
        <ele>567</ele>
        <time>2016-12-18T05:01:09Z</time>
      </trkpt>
      <trkpt lat="46.05205" lon="1.83804">
        <ele>568</ele>
        <time>2016-12-18T05:03:09Z</time>
      </trkpt>
      <trkpt lat="46.05207" lon="1.83805">
        <ele>568</ele>
        <time>2016-12-18T05:05:09Z</time>
      </trkpt>
      <trkpt lat="46.0521" lon="1.83806">
        <ele>568</ele>
        <time>2016-12-18T05:07:09Z</time>
      </trkpt>
      <trkpt lat="46.05212" lon="1.83806">
        <ele>568</ele>
        <time>2016-12-18T05:09:09Z</time>
      </trkpt>
      <trkpt lat="46.05223" lon="1.83805">
        <ele>569</ele>
        <time>2016-12-18T05:11:09Z</time>
      </trkpt>
      <trkpt lat="46.05234" lon="1.83807">
        <ele>570</ele>
        <time>2016-12-18T05:13:09Z</time>
      </trkpt>
      <trkpt lat="46.05234" lon="1.83803">
        <ele>570</ele>
        <time>2016-12-18T05:15:09Z</time>
      </trkpt>
      <trkpt lat="46.05235" lon="1.83794">
        <ele>571</ele>
        <time>2016-12-18T05:17:09Z</time>
      </trkpt>
      <trkpt lat="46.05246" lon="1.83765">
        <ele>574</ele>
        <time>2016-12-18T05:19:09Z</time>
      </trkpt>
      <trkpt lat="46.05249" lon="1.8376">
        <ele>574</ele>
        <time>2016-12-18T05:21:09Z</time>
      </trkpt>
      <trkpt lat="46.0525" lon="1.83758">
        <ele>575</ele>
        <time>2016-12-18T05:23:09Z</time>
      </trkpt>
      <trkpt lat="46.05256" lon="1.83753">
        <ele>576</ele>
        <time>2016-12-18T05:25:09Z</time>
      </trkpt>
      <trkpt lat="46.05267" lon="1.83752">
        <ele>577</ele>
        <time>2016-12-18T05:27:09Z</time>
      </trkpt>
      <trkpt lat="46.05283" lon="1.83744">
        <ele>580</ele>
        <time>2016-12-18T05:29:09Z</time>
      </trkpt>
      <trkpt lat="46.05285" lon="1.83723">
        <ele>584</ele>
        <time>2016-12-18T05:31:09Z</time>
      </trkpt>
      <trkpt lat="46.05285" lon="1.8372">
        <ele>585</ele>
        <time>2016-12-18T05:33:09Z</time>
      </trkpt>
      <trkpt lat="46.05279" lon="1.83711">
        <ele>585</ele>
        <time>2016-12-18T05:35:09Z</time>
      </trkpt>
      <trkpt lat="46.05255" lon="1.83673">
        <ele>585</ele>
        <time>2016-12-18T05:37:09Z</time>
      </trkpt>
      <trkpt lat="46.05237" lon="1.83644">
        <ele>582</ele>
        <time>2016-12-18T05:39:09Z</time>
      </trkpt>
      <trkpt lat="46.05229" lon="1.83632">
        <ele>581</ele>
        <time>2016-12-18T05:41:09Z</time>
      </trkpt>
      <trkpt lat="46.05229" lon="1.83617">
        <ele>581</ele>
        <time>2016-12-18T05:43:09Z</time>
      </trkpt>
      <trkpt lat="46.05231" lon="1.83604">
        <ele>582</ele>
        <time>2016-12-18T05:45:09Z</time>
      </trkpt>
      <trkpt lat="46.05232" lon="1.83599">
        <ele>582</ele>
        <time>2016-12-18T05:47:09Z</time>
      </trkpt>
      <trkpt lat="46.05232" lon="1.83594">
        <ele>583</ele>
        <time>2016-12-18T05:49:09Z</time>
      </trkpt>
      <trkpt lat="46.0523" lon="1.83588">
        <ele>582</ele>
        <time>2016-12-18T05:51:09Z</time>
      </trkpt>
      <trkpt lat="46.05226" lon="1.83574">
        <ele>581</ele>
        <time>2016-12-18T05:53:09Z</time>
      </trkpt>
      <trkpt lat="46.05217" lon="1.83542">
        <ele>577</ele>
        <time>2016-12-18T05:55:09Z</time>
      </trkpt>
      <trkpt lat="46.05217" lon="1.8354">
        <ele>577</ele>
        <time>2016-12-18T05:57:09Z</time>
      </trkpt>
      <trkpt lat="46.05215" lon="1.83532">
        <ele>576</ele>
        <time>2016-12-18T05:59:09Z</time>
      </trkpt>
      <trkpt lat="46.05213" lon="1.83528">
        <ele>575</ele>
        <time>2016-12-18T06:01:09Z</time>
      </trkpt>
      <trkpt lat="46.05211" lon="1.83506">
        <ele>573</ele>
        <time>2016-12-18T06:03:09Z</time>
      </trkpt>
      <trkpt lat="46.05214" lon="1.835">
        <ele>573</ele>
        <time>2016-12-18T06:05:09Z</time>
      </trkpt>
      <trkpt lat="46.05222" lon="1.83488">
        <ele>574</ele>
        <time>2016-12-18T06:07:09Z</time>
      </trkpt>
      <trkpt lat="46.05225" lon="1.8348">
        <ele>574</ele>
        <time>2016-12-18T06:09:09Z</time>
      </trkpt>
      <trkpt lat="46.05228" lon="1.83463">
        <ele>573</ele>
        <time>2016-12-18T06:11:09Z</time>
      </trkpt>
      <trkpt lat="46.05227" lon="1.83459">
        <ele>572</ele>
        <time>2016-12-18T06:13:09Z</time>
      </trkpt>
      <trkpt lat="46.0523" lon="1.83448">
        <ele>572</ele>
        <time>2016-12-18T06:15:09Z</time>
      </trkpt>
      <trkpt lat="46.0523" lon="1.83446">
        <ele>571</ele>
        <time>2016-12-18T06:17:09Z</time>
      </trkpt>
      <trkpt lat="46.05232" lon="1.83434">
        <ele>570</ele>
        <time>2016-12-18T06:19:09Z</time>
      </trkpt>
      <trkpt lat="46.05236" lon="1.83429">
        <ele>571</ele>
        <time>2016-12-18T06:21:09Z</time>
      </trkpt>
      <trkpt lat="46.05239" lon="1.83427">
        <ele>571</ele>
        <time>2016-12-18T06:23:09Z</time>
      </trkpt>
      <trkpt lat="46.0524" lon="1.83425">
        <ele>571</ele>
        <time>2016-12-18T06:25:09Z</time>
      </trkpt>
      <trkpt lat="46.0524" lon="1.83423">
        <ele>571</ele>
        <time>2016-12-18T06:27:09Z</time>
      </trkpt>
      <trkpt lat="46.05241" lon="1.83419">
        <ele>571</ele>
        <time>2016-12-18T06:29:09Z</time>
      </trkpt>
      <trkpt lat="46.05249" lon="1.83396">
        <ele>569</ele>
        <time>2016-12-18T06:31:09Z</time>
      </trkpt>
      <trkpt lat="46.05251" lon="1.83386">
        <ele>568</ele>
        <time>2016-12-18T06:33:09Z</time>
      </trkpt>
      <trkpt lat="46.05255" lon="1.8337">
        <ele>567</ele>
        <time>2016-12-18T06:35:09Z</time>
      </trkpt>
      <trkpt lat="46.05257" lon="1.8336">
        <ele>566</ele>
        <time>2016-12-18T06:37:09Z</time>
      </trkpt>
      <trkpt lat="46.05257" lon="1.8336">
        <ele>566</ele>
        <time>2016-12-18T06:39:09Z</time>
      </trkpt>
      <trkpt lat="46.05259" lon="1.83356">
        <ele>566</ele>
        <time>2016-12-18T06:41:09Z</time>
      </trkpt>
      <trkpt lat="46.05261" lon="1.83342">
        <ele>565</ele>
        <time>2016-12-18T06:43:09Z</time>
      </trkpt>
      <trkpt lat="46.05261" lon="1.8334">
        <ele>564</ele>
        <time>2016-12-18T06:45:09Z</time>
      </trkpt>
      <trkpt lat="46.05262" lon="1.83335">
        <ele>564</ele>
        <time>2016-12-18T06:47:09Z</time>
      </trkpt>
      <trkpt lat="46.05261" lon="1.83319">
        <ele>562</ele>
        <time>2016-12-18T06:49:09Z</time>
      </trkpt>
      <trkpt lat="46.05261" lon="1.83318">
        <ele>562</ele>
        <time>2016-12-18T06:51:09Z</time>
      </trkpt>
      <trkpt lat="46.05262" lon="1.83312">
        <ele>561</ele>
        <time>2016-12-18T06:53:09Z</time>
      </trkpt>
      <trkpt lat="46.05264" lon="1.83305">
        <ele>561</ele>
        <time>2016-12-18T06:55:09Z</time>
      </trkpt>
      <trkpt lat="46.05266" lon="1.83286">
        <ele>559</ele>
        <time>2016-12-18T06:57:09Z</time>
      </trkpt>
      <trkpt lat="46.05269" lon="1.83272">
        <ele>558</ele>
        <time>2016-12-18T06:59:09Z</time>
      </trkpt>
      <trkpt lat="46.0527" lon="1.83269">
        <ele>558</ele>
        <time>2016-12-18T07:01:09Z</time>
      </trkpt>
      <trkpt lat="46.0527" lon="1.83267">
        <ele>558</ele>
        <time>2016-12-18T07:03:09Z</time>
      </trkpt>
      <trkpt lat="46.0527" lon="1.83263">
        <ele>557</ele>
        <time>2016-12-18T07:05:09Z</time>
      </trkpt>
      <trkpt lat="46.05271" lon="1.83262">
        <ele>558</ele>
        <time>2016-12-18T07:07:09Z</time>
      </trkpt>
      <trkpt lat="46.05276" lon="1.83243">
        <ele>557</ele>
        <time>2016-12-18T07:09:09Z</time>
      </trkpt>
      <trkpt lat="46.05278" lon="1.83236">
        <ele>556</ele>
        <time>2016-12-18T07:11:09Z</time>
      </trkpt>
      <trkpt lat="46.05279" lon="1.83235">
        <ele>557</ele>
        <time>2016-12-18T07:13:09Z</time>
      </trkpt>
      <trkpt lat="46.0528" lon="1.83232">
        <ele>556</ele>
        <time>2016-12-18T07:15:09Z</time>
      </trkpt>
      <trkpt lat="46.05292" lon="1.83213">
        <ele>557</ele>
        <time>2016-12-18T07:17:09Z</time>
      </trkpt>
      <trkpt lat="46.05309" lon="1.8319">
        <ele>557</ele>
        <time>2016-12-18T07:19:09Z</time>
      </trkpt>
      <trkpt lat="46.05321" lon="1.83183">
        <ele>559</ele>
        <time>2016-12-18T07:21:09Z</time>
      </trkpt>
      <trkpt lat="46.05326" lon="1.8318">
        <ele>559</ele>
        <time>2016-12-18T07:23:09Z</time>
      </trkpt>
      <trkpt lat="46.05359" lon="1.83001">
        <ele>565</ele>
        <time>2016-12-18T07:25:09Z</time>
      </trkpt>
      <trkpt lat="46.05358" lon="1.82999">
        <ele>565</ele>
        <time>2016-12-18T07:27:09Z</time>
      </trkpt>
      <trkpt lat="46.05348" lon="1.82987">
        <ele>565</ele>
        <time>2016-12-18T07:29:09Z</time>
      </trkpt>
      <trkpt lat="46.05338" lon="1.82957">
        <ele>566</ele>
        <time>2016-12-18T07:31:09Z</time>
      </trkpt>
      <trkpt lat="46.05338" lon="1.82954">
        <ele>567</ele>
        <time>2016-12-18T07:33:09Z</time>
      </trkpt>
      <trkpt lat="46.05337" lon="1.82951">
        <ele>567</ele>
        <time>2016-12-18T07:35:09Z</time>
      </trkpt>
      <trkpt lat="46.05336" lon="1.82947">
        <ele>567</ele>
        <time>2016-12-18T07:37:09Z</time>
      </trkpt>
      <trkpt lat="46.05335" lon="1.82943">
        <ele>567</ele>
        <time>2016-12-18T07:39:09Z</time>
      </trkpt>
      <trkpt lat="46.05334" lon="1.82936">
        <ele>568</ele>
        <time>2016-12-18T07:41:09Z</time>
      </trkpt>
      <trkpt lat="46.05333" lon="1.82934">
        <ele>568</ele>
        <time>2016-12-18T07:43:09Z</time>
      </trkpt>
      <trkpt lat="46.05332" lon="1.82932">
        <ele>568</ele>
        <time>2016-12-18T07:45:09Z</time>
      </trkpt>
      <trkpt lat="46.05331" lon="1.82928">
        <ele>568</ele>
        <time>2016-12-18T07:47:09Z</time>
      </trkpt>
      <trkpt lat="46.05334" lon="1.82924">
        <ele>569</ele>
        <time>2016-12-18T07:49:09Z</time>
      </trkpt>
      <trkpt lat="46.05336" lon="1.82923">
        <ele>570</ele>
        <time>2016-12-18T07:51:09Z</time>
      </trkpt>
      <trkpt lat="46.05336" lon="1.8292">
        <ele>570</ele>
        <time>2016-12-18T07:53:09Z</time>
      </trkpt>
      <trkpt lat="46.05337" lon="1.82919">
        <ele>570</ele>
        <time>2016-12-18T07:55:09Z</time>
      </trkpt>
      <trkpt lat="46.05337" lon="1.82918">
        <ele>570</ele>
        <time>2016-12-18T07:57:09Z</time>
      </trkpt>
      <trkpt lat="46.05336" lon="1.82917">
        <ele>570</ele>
        <time>2016-12-18T07:59:09Z</time>
      </trkpt>
      <trkpt lat="46.05331" lon="1.82919">
        <ele>569</ele>
        <time>2016-12-18T08:01:09Z</time>
      </trkpt>
      <trkpt lat="46.05314" lon="1.82912">
        <ele>567</ele>
        <time>2016-12-18T08:03:09Z</time>
      </trkpt>
      <trkpt lat="46.05303" lon="1.82909">
        <ele>566</ele>
        <time>2016-12-18T08:05:09Z</time>
      </trkpt>
      <trkpt lat="46.05293" lon="1.82903">
        <ele>565</ele>
        <time>2016-12-18T08:07:09Z</time>
      </trkpt>
      <trkpt lat="46.05252" lon="1.82916">
        <ele>556</ele>
        <time>2016-12-18T08:09:09Z</time>
      </trkpt>
      <trkpt lat="46.05251" lon="1.82916">
        <ele>556</ele>
        <time>2016-12-18T08:11:09Z</time>
      </trkpt>
      <trkpt lat="46.05249" lon="1.82915">
        <ele>556</ele>
        <time>2016-12-18T08:13:09Z</time>
      </trkpt>
      <trkpt lat="46.0524" lon="1.82909">
        <ele>556</ele>
        <time>2016-12-18T08:15:09Z</time>
      </trkpt>
      <trkpt lat="46.05239" lon="1.82908">
        <ele>556</ele>
        <time>2016-12-18T08:17:09Z</time>
      </trkpt>
      <trkpt lat="46.05238" lon="1.82907">
        <ele>556</ele>
        <time>2016-12-18T08:19:09Z</time>
      </trkpt>
      <trkpt lat="46.05236" lon="1.82906">
        <ele>556</ele>
        <time>2016-12-18T08:21:09Z</time>
      </trkpt>
      <trkpt lat="46.05231" lon="1.82905">
        <ele>555</ele>
        <time>2016-12-18T08:23:09Z</time>
      </trkpt>
      <trkpt lat="46.05225" lon="1.82906">
        <ele>555</ele>
        <time>2016-12-18T08:25:09Z</time>
      </trkpt>
      <trkpt lat="46.05219" lon="1.82905">
        <ele>554</ele>
        <time>2016-12-18T08:27:09Z</time>
      </trkpt>
      <trkpt lat="46.05212" lon="1.82905">
        <ele>553</ele>
        <time>2016-12-18T08:29:09Z</time>
      </trkpt>
      <trkpt lat="46.05206" lon="1.82904">
        <ele>553</ele>
        <time>2016-12-18T08:31:09Z</time>
      </trkpt>
      <trkpt lat="46.05199" lon="1.82905">
        <ele>552</ele>
        <time>2016-12-18T08:33:09Z</time>
      </trkpt>
      <trkpt lat="46.05189" lon="1.82918">
        <ele>550</ele>
        <time>2016-12-18T08:35:09Z</time>
      </trkpt>
      <trkpt lat="46.05184" lon="1.82921">
        <ele>550</ele>
        <time>2016-12-18T08:37:09Z</time>
      </trkpt>
      <trkpt lat="46.05181" lon="1.82921">
        <ele>549</ele>
        <time>2016-12-18T08:39:09Z</time>
      </trkpt>
      <trkpt lat="46.05172" lon="1.82921">
        <ele>548</ele>
        <time>2016-12-18T08:41:09Z</time>
      </trkpt>
      <trkpt lat="46.05163" lon="1.82923">
        <ele>548</ele>
        <time>2016-12-18T08:43:09Z</time>
      </trkpt>
      <trkpt lat="46.0516" lon="1.82924">
        <ele>548</ele>
        <time>2016-12-18T08:45:09Z</time>
      </trkpt>
      <trkpt lat="46.05155" lon="1.82923">
        <ele>548</ele>
        <time>2016-12-18T08:47:09Z</time>
      </trkpt>
      <trkpt lat="46.05148" lon="1.82919">
        <ele>548</ele>
        <time>2016-12-18T08:49:09Z</time>
      </trkpt>
      <trkpt lat="46.05134" lon="1.8291">
        <ele>548</ele>
        <time>2016-12-18T08:51:09Z</time>
      </trkpt>
      <trkpt lat="46.05132" lon="1.82907">
        <ele>548</ele>
        <time>2016-12-18T08:53:09Z</time>
      </trkpt>
      <trkpt lat="46.05126" lon="1.82898">
        <ele>549</ele>
        <time>2016-12-18T08:55:09Z</time>
      </trkpt>
      <trkpt lat="46.05122" lon="1.82893">
        <ele>549</ele>
        <time>2016-12-18T08:57:09Z</time>
      </trkpt>
      <trkpt lat="46.05109" lon="1.82871">
        <ele>549</ele>
        <time>2016-12-18T08:59:09Z</time>
      </trkpt>
      <trkpt lat="46.05085" lon="1.82831">
        <ele>550</ele>
        <time>2016-12-18T09:01:09Z</time>
      </trkpt>
      <trkpt lat="46.05072" lon="1.82817">
        <ele>550</ele>
        <time>2016-12-18T09:03:09Z</time>
      </trkpt>
      <trkpt lat="46.05068" lon="1.82812">
        <ele>550</ele>
        <time>2016-12-18T09:05:09Z</time>
      </trkpt>
      <trkpt lat="46.05066" lon="1.82808">
        <ele>550</ele>
        <time>2016-12-18T09:07:09Z</time>
      </trkpt>
      <trkpt lat="46.05064" lon="1.82805">
        <ele>550</ele>
        <time>2016-12-18T09:09:09Z</time>
      </trkpt>
      <trkpt lat="46.05062" lon="1.828">
        <ele>551</ele>
        <time>2016-12-18T09:11:09Z</time>
      </trkpt>
      <trkpt lat="46.05057" lon="1.82786">
        <ele>551</ele>
        <time>2016-12-18T09:13:09Z</time>
      </trkpt>
      <trkpt lat="46.05053" lon="1.82775">
        <ele>551</ele>
        <time>2016-12-18T09:15:09Z</time>
      </trkpt>
      <trkpt lat="46.05041" lon="1.82763">
        <ele>550</ele>
        <time>2016-12-18T09:17:09Z</time>
      </trkpt>
      <trkpt lat="46.05023" lon="1.82737">
        <ele>551</ele>
        <time>2016-12-18T09:19:09Z</time>
      </trkpt>
      <trkpt lat="46.05016" lon="1.82718">
        <ele>553</ele>
        <time>2016-12-18T09:21:09Z</time>
      </trkpt>
      <trkpt lat="46.05003" lon="1.82702">
        <ele>553</ele>
        <time>2016-12-18T09:23:09Z</time>
      </trkpt>
      <trkpt lat="46.04988" lon="1.82686">
        <ele>553</ele>
        <time>2016-12-18T09:25:09Z</time>
      </trkpt>
      <trkpt lat="46.04984" lon="1.82681">
        <ele>553</ele>
        <time>2016-12-18T09:27:09Z</time>
      </trkpt>
      <trkpt lat="46.04982" lon="1.82679">
        <ele>553</ele>
        <time>2016-12-18T09:29:09Z</time>
      </trkpt>
      <trkpt lat="46.04979" lon="1.82675">
        <ele>552</ele>
        <time>2016-12-18T09:31:09Z</time>
      </trkpt>
      <trkpt lat="46.04959" lon="1.82661">
        <ele>550</ele>
        <time>2016-12-18T09:33:09Z</time>
      </trkpt>
      <trkpt lat="46.04953" lon="1.82652">
        <ele>550</ele>
        <time>2016-12-18T09:35:09Z</time>
      </trkpt>
      <trkpt lat="46.04947" lon="1.82645">
        <ele>549</ele>
        <time>2016-12-18T09:37:09Z</time>
      </trkpt>
      <trkpt lat="46.04943" lon="1.82641">
        <ele>549</ele>
        <time>2016-12-18T09:39:09Z</time>
      </trkpt>
      <trkpt lat="46.04941" lon="1.82639">
        <ele>548</ele>
        <time>2016-12-18T09:41:09Z</time>
      </trkpt>
      <trkpt lat="46.04932" lon="1.82623">
        <ele>547</ele>
        <time>2016-12-18T09:43:09Z</time>
      </trkpt>
      <trkpt lat="46.04929" lon="1.82617">
        <ele>547</ele>
        <time>2016-12-18T09:45:09Z</time>
      </trkpt>
      <trkpt lat="46.04928" lon="1.82616">
        <ele>547</ele>
        <time>2016-12-18T09:47:09Z</time>
      </trkpt>
      <trkpt lat="46.04923" lon="1.82618">
        <ele>545</ele>
        <time>2016-12-18T09:49:09Z</time>
      </trkpt>
      <trkpt lat="46.04919" lon="1.82616">
        <ele>544</ele>
        <time>2016-12-18T09:51:09Z</time>
      </trkpt>
      <trkpt lat="46.04918" lon="1.82615">
        <ele>544</ele>
        <time>2016-12-18T09:53:09Z</time>
      </trkpt>
      <trkpt lat="46.04911" lon="1.82605">
        <ele>543</ele>
        <time>2016-12-18T09:55:09Z</time>
      </trkpt>
      <trkpt lat="46.04903" lon="1.82598">
        <ele>542</ele>
        <time>2016-12-18T09:57:09Z</time>
      </trkpt>
      <trkpt lat="46.04901" lon="1.82597">
        <ele>542</ele>
        <time>2016-12-18T09:59:09Z</time>
      </trkpt>
      <trkpt lat="46.04898" lon="1.82594">
        <ele>542</ele>
        <time>2016-12-18T10:01:09Z</time>
      </trkpt>
      <trkpt lat="46.04897" lon="1.8259">
        <ele>541</ele>
        <time>2016-12-18T10:03:09Z</time>
      </trkpt>
      <trkpt lat="46.04893" lon="1.82583">
        <ele>541</ele>
        <time>2016-12-18T10:05:09Z</time>
      </trkpt>
      <trkpt lat="46.04885" lon="1.82572">
        <ele>540</ele>
        <time>2016-12-18T10:07:09Z</time>
      </trkpt>
      <trkpt lat="46.04882" lon="1.8257">
        <ele>540</ele>
        <time>2016-12-18T10:09:09Z</time>
      </trkpt>
      <trkpt lat="46.04881" lon="1.82569">
        <ele>540</ele>
        <time>2016-12-18T10:11:09Z</time>
      </trkpt>
      <trkpt lat="46.04878" lon="1.82566">
        <ele>540</ele>
        <time>2016-12-18T10:13:09Z</time>
      </trkpt>
      <trkpt lat="46.04874" lon="1.82559">
        <ele>539</ele>
        <time>2016-12-18T10:15:09Z</time>
      </trkpt>
      <trkpt lat="46.04858" lon="1.82537">
        <ele>538</ele>
        <time>2016-12-18T10:17:09Z</time>
      </trkpt>
      <trkpt lat="46.04856" lon="1.82536">
        <ele>537</ele>
        <time>2016-12-18T10:19:09Z</time>
      </trkpt>
      <trkpt lat="46.04853" lon="1.82532">
        <ele>537</ele>
        <time>2016-12-18T10:21:09Z</time>
      </trkpt>
      <trkpt lat="46.04849" lon="1.82525">
        <ele>537</ele>
        <time>2016-12-18T10:23:09Z</time>
      </trkpt>
      <trkpt lat="46.04847" lon="1.82514">
        <ele>537</ele>
        <time>2016-12-18T10:25:09Z</time>
      </trkpt>
      <trkpt lat="46.04846" lon="1.82512">
        <ele>537</ele>
        <time>2016-12-18T10:27:09Z</time>
      </trkpt>
      <trkpt lat="46.04844" lon="1.82507">
        <ele>537</ele>
        <time>2016-12-18T10:29:09Z</time>
      </trkpt>
      <trkpt lat="46.04833" lon="1.82493">
        <ele>536</ele>
        <time>2016-12-18T10:31:09Z</time>
      </trkpt>
      <trkpt lat="46.04828" lon="1.82488">
        <ele>536</ele>
        <time>2016-12-18T10:33:09Z</time>
      </trkpt>
      <trkpt lat="46.04825" lon="1.82484">
        <ele>536</ele>
        <time>2016-12-18T10:35:09Z</time>
      </trkpt>
      <trkpt lat="46.04823" lon="1.82483">
        <ele>536</ele>
        <time>2016-12-18T10:37:09Z</time>
      </trkpt>
      <trkpt lat="46.04821" lon="1.8248">
        <ele>536</ele>
        <time>2016-12-18T10:39:09Z</time>
      </trkpt>
      <trkpt lat="46.04801" lon="1.82456">
        <ele>537</ele>
        <time>2016-12-18T10:41:09Z</time>
      </trkpt>
      <trkpt lat="46.04786" lon="1.82436">
        <ele>538</ele>
        <time>2016-12-18T10:43:09Z</time>
      </trkpt>
      <trkpt lat="46.04771" lon="1.82407">
        <ele>538</ele>
        <time>2016-12-18T10:45:09Z</time>
      </trkpt>
      <trkpt lat="46.04769" lon="1.82404">
        <ele>538</ele>
        <time>2016-12-18T10:47:09Z</time>
      </trkpt>
      <trkpt lat="46.04767" lon="1.824">
        <ele>538</ele>
        <time>2016-12-18T10:49:09Z</time>
      </trkpt>
      <trkpt lat="46.04761" lon="1.82386">
        <ele>538</ele>
        <time>2016-12-18T10:51:09Z</time>
      </trkpt>
      <trkpt lat="46.04755" lon="1.82374">
        <ele>537</ele>
        <time>2016-12-18T10:53:09Z</time>
      </trkpt>
      <trkpt lat="46.04752" lon="1.82371">
        <ele>537</ele>
        <time>2016-12-18T10:55:09Z</time>
      </trkpt>
      <trkpt lat="46.04741" lon="1.82359">
        <ele>536</ele>
        <time>2016-12-18T10:57:09Z</time>
      </trkpt>
      <trkpt lat="46.04737" lon="1.82353">
        <ele>536</ele>
        <time>2016-12-18T10:59:09Z</time>
      </trkpt>
      <trkpt lat="46.04734" lon="1.82336">
        <ele>536</ele>
        <time>2016-12-18T11:01:09Z</time>
      </trkpt>
      <trkpt lat="46.04717" lon="1.82301">
        <ele>537</ele>
        <time>2016-12-18T11:03:09Z</time>
      </trkpt>
      <trkpt lat="46.04706" lon="1.82287">
        <ele>537</ele>
        <time>2016-12-18T11:05:09Z</time>
      </trkpt>
      <trkpt lat="46.04704" lon="1.82285">
        <ele>537</ele>
        <time>2016-12-18T11:07:09Z</time>
      </trkpt>
      <trkpt lat="46.047" lon="1.8228">
        <ele>537</ele>
        <time>2016-12-18T11:09:09Z</time>
      </trkpt>
      <trkpt lat="46.04693" lon="1.82271">
        <ele>537</ele>
        <time>2016-12-18T11:11:09Z</time>
      </trkpt>
      <trkpt lat="46.0468" lon="1.82247">
        <ele>538</ele>
        <time>2016-12-18T11:13:09Z</time>
      </trkpt>
      <trkpt lat="46.04672" lon="1.82231">
        <ele>541</ele>
        <time>2016-12-18T11:15:09Z</time>
      </trkpt>
      <trkpt lat="46.04668" lon="1.82227">
        <ele>541</ele>
        <time>2016-12-18T11:17:09Z</time>
      </trkpt>
      <trkpt lat="46.04666" lon="1.82223">
        <ele>541</ele>
        <time>2016-12-18T11:19:09Z</time>
      </trkpt>
      <trkpt lat="46.04664" lon="1.82219">
        <ele>542</ele>
        <time>2016-12-18T11:21:09Z</time>
      </trkpt>
      <trkpt lat="46.04655" lon="1.82202">
        <ele>544</ele>
        <time>2016-12-18T11:23:09Z</time>
      </trkpt>
      <trkpt lat="46.04651" lon="1.82195">
        <ele>545</ele>
        <time>2016-12-18T11:25:09Z</time>
      </trkpt>
      <trkpt lat="46.04641" lon="1.82181">
        <ele>546</ele>
        <time>2016-12-18T11:27:09Z</time>
      </trkpt>
      <trkpt lat="46.04622" lon="1.82157">
        <ele>547</ele>
        <time>2016-12-18T11:29:09Z</time>
      </trkpt>
      <trkpt lat="46.04616" lon="1.82149">
        <ele>546</ele>
        <time>2016-12-18T11:31:09Z</time>
      </trkpt>
      <trkpt lat="46.04608" lon="1.82134">
        <ele>545</ele>
        <time>2016-12-18T11:33:09Z</time>
      </trkpt>
      <trkpt lat="46.04607" lon="1.8213">
        <ele>545</ele>
        <time>2016-12-18T11:35:09Z</time>
      </trkpt>
      <trkpt lat="46.04607" lon="1.82128">
        <ele>545</ele>
        <time>2016-12-18T11:37:09Z</time>
      </trkpt>
      <trkpt lat="46.04608" lon="1.82126">
        <ele>545</ele>
        <time>2016-12-18T11:39:09Z</time>
      </trkpt>
      <trkpt lat="46.0461" lon="1.82123">
        <ele>546</ele>
        <time>2016-12-18T11:41:09Z</time>
      </trkpt>
      <trkpt lat="46.0461" lon="1.82121">
        <ele>546</ele>
        <time>2016-12-18T11:43:09Z</time>
      </trkpt>
      <trkpt lat="46.04613" lon="1.82113">
        <ele>547</ele>
        <time>2016-12-18T11:45:09Z</time>
      </trkpt>
      <trkpt lat="46.04619" lon="1.82104">
        <ele>549</ele>
        <time>2016-12-18T11:47:09Z</time>
      </trkpt>
      <trkpt lat="46.04628" lon="1.82093">
        <ele>551</ele>
        <time>2016-12-18T11:49:09Z</time>
      </trkpt>
      <trkpt lat="46.04632" lon="1.82089">
        <ele>552</ele>
        <time>2016-12-18T11:51:09Z</time>
      </trkpt>
      <trkpt lat="46.04636" lon="1.82083">
        <ele>554</ele>
        <time>2016-12-18T11:53:09Z</time>
      </trkpt>
      <trkpt lat="46.0464" lon="1.82077">
        <ele>555</ele>
        <time>2016-12-18T11:55:09Z</time>
      </trkpt>
      <trkpt lat="46.04644" lon="1.82071">
        <ele>557</ele>
        <time>2016-12-18T11:57:09Z</time>
      </trkpt>
      <trkpt lat="46.04648" lon="1.82065">
        <ele>559</ele>
        <time>2016-12-18T11:59:09Z</time>
      </trkpt>
      <trkpt lat="46.04649" lon="1.82054">
        <ele>561</ele>
        <time>2016-12-18T12:01:09Z</time>
      </trkpt>
      <trkpt lat="46.04648" lon="1.82047">
        <ele>561</ele>
        <time>2016-12-18T12:03:09Z</time>
      </trkpt>
      <trkpt lat="46.04648" lon="1.8204">
        <ele>562</ele>
        <time>2016-12-18T12:05:09Z</time>
      </trkpt>
      <trkpt lat="46.04647" lon="1.82016">
        <ele>565</ele>
        <time>2016-12-18T12:07:09Z</time>
      </trkpt>
      <trkpt lat="46.04647" lon="1.82013">
        <ele>565</ele>
        <time>2016-12-18T12:09:09Z</time>
      </trkpt>
      <trkpt lat="46.04648" lon="1.82006">
        <ele>566</ele>
        <time>2016-12-18T12:11:09Z</time>
      </trkpt>
      <trkpt lat="46.04648" lon="1.81993">
        <ele>567</ele>
        <time>2016-12-18T12:13:09Z</time>
      </trkpt>
      <trkpt lat="46.04646" lon="1.81982">
        <ele>567</ele>
        <time>2016-12-18T12:15:09Z</time>
      </trkpt>
      <trkpt lat="46.04643" lon="1.8197">
        <ele>567</ele>
        <time>2016-12-18T12:17:09Z</time>
      </trkpt>
      <trkpt lat="46.0464" lon="1.81962">
        <ele>566</ele>
        <time>2016-12-18T12:19:09Z</time>
      </trkpt>
      <trkpt lat="46.04639" lon="1.81951">
        <ele>567</ele>
        <time>2016-12-18T12:21:09Z</time>
      </trkpt>
      <trkpt lat="46.0464" lon="1.81942">
        <ele>567</ele>
        <time>2016-12-18T12:23:09Z</time>
      </trkpt>
      <trkpt lat="46.04645" lon="1.81926">
        <ele>570</ele>
        <time>2016-12-18T12:25:09Z</time>
      </trkpt>
      <trkpt lat="46.04648" lon="1.81901">
        <ele>570</ele>
        <time>2016-12-18T12:27:09Z</time>
      </trkpt>
      <trkpt lat="46.04648" lon="1.81896">
        <ele>569</ele>
        <time>2016-12-18T12:29:09Z</time>
      </trkpt>
      <trkpt lat="46.0465" lon="1.81892">
        <ele>570</ele>
        <time>2016-12-18T12:31:09Z</time>
      </trkpt>
      <trkpt lat="46.04651" lon="1.81889">
        <ele>570</ele>
        <time>2016-12-18T12:33:09Z</time>
      </trkpt>
      <trkpt lat="46.0466" lon="1.81871">
        <ele>570</ele>
        <time>2016-12-18T12:35:09Z</time>
      </trkpt>
      <trkpt lat="46.04666" lon="1.81866">
        <ele>571</ele>
        <time>2016-12-18T12:37:09Z</time>
      </trkpt>
      <trkpt lat="46.0467" lon="1.81858">
        <ele>571</ele>
        <time>2016-12-18T12:39:09Z</time>
      </trkpt>
      <trkpt lat="46.04682" lon="1.81859">
        <ele>574</ele>
        <time>2016-12-18T12:41:09Z</time>
      </trkpt>
      <trkpt lat="46.04688" lon="1.81861">
        <ele>575</ele>
        <time>2016-12-18T12:43:09Z</time>
      </trkpt>
      <trkpt lat="46.0469" lon="1.81863">
        <ele>576</ele>
        <time>2016-12-18T12:45:09Z</time>
      </trkpt>
      <trkpt lat="46.04694" lon="1.81866">
        <ele>577</ele>
        <time>2016-12-18T12:47:09Z</time>
      </trkpt>
      <trkpt lat="46.047" lon="1.81869">
        <ele>579</ele>
        <time>2016-12-18T12:49:09Z</time>
      </trkpt>
      <trkpt lat="46.04701" lon="1.81871">
        <ele>579</ele>
        <time>2016-12-18T12:51:09Z</time>
      </trkpt>
      <trkpt lat="46.04709" lon="1.81874">
        <ele>581</ele>
        <time>2016-12-18T12:53:09Z</time>
      </trkpt>
      <trkpt lat="46.04712" lon="1.81875">
        <ele>582</ele>
        <time>2016-12-18T12:55:09Z</time>
      </trkpt>
      <trkpt lat="46.04714" lon="1.81872">
        <ele>582</ele>
        <time>2016-12-18T12:57:09Z</time>
      </trkpt>
      <trkpt lat="46.04715" lon="1.81865">
        <ele>582</ele>
        <time>2016-12-18T12:59:09Z</time>
      </trkpt>
      <trkpt lat="46.04719" lon="1.81861">
        <ele>582</ele>
        <time>2016-12-18T13:01:09Z</time>
      </trkpt>
      <trkpt lat="46.04721" lon="1.8186">
        <ele>583</ele>
        <time>2016-12-18T13:03:09Z</time>
      </trkpt>
      <trkpt lat="46.04724" lon="1.8186">
        <ele>583</ele>
        <time>2016-12-18T13:05:09Z</time>
      </trkpt>
      <trkpt lat="46.04729" lon="1.8186">
        <ele>585</ele>
        <time>2016-12-18T13:07:09Z</time>
      </trkpt>
      <trkpt lat="46.0474" lon="1.81865">
        <ele>587</ele>
        <time>2016-12-18T13:09:09Z</time>
      </trkpt>
      <trkpt lat="46.04741" lon="1.81864">
        <ele>587</ele>
        <time>2016-12-18T13:11:09Z</time>
      </trkpt>
      <trkpt lat="46.04749" lon="1.81869">
        <ele>589</ele>
        <time>2016-12-18T13:13:09Z</time>
      </trkpt>
      <trkpt lat="46.04759" lon="1.81879">
        <ele>591</ele>
        <time>2016-12-18T13:15:09Z</time>
      </trkpt>
      <trkpt lat="46.04759" lon="1.81883">
        <ele>591</ele>
        <time>2016-12-18T13:17:09Z</time>
      </trkpt>
      <trkpt lat="46.04762" lon="1.81888">
        <ele>591</ele>
        <time>2016-12-18T13:19:09Z</time>
      </trkpt>
      <trkpt lat="46.0476" lon="1.81906">
        <ele>592</ele>
        <time>2016-12-18T13:21:09Z</time>
      </trkpt>
      <trkpt lat="46.04761" lon="1.81912">
        <ele>592</ele>
        <time>2016-12-18T13:23:09Z</time>
      </trkpt>
      <trkpt lat="46.04764" lon="1.81917">
        <ele>592</ele>
        <time>2016-12-18T13:25:09Z</time>
      </trkpt>
      <trkpt lat="46.04764" lon="1.81925">
        <ele>592</ele>
        <time>2016-12-18T13:27:09Z</time>
      </trkpt>
      <trkpt lat="46.04764" lon="1.8194">
        <ele>592</ele>
        <time>2016-12-18T13:29:09Z</time>
      </trkpt>
      <trkpt lat="46.04764" lon="1.81944">
        <ele>592</ele>
        <time>2016-12-18T13:31:09Z</time>
      </trkpt>
      <trkpt lat="46.04767" lon="1.81955">
        <ele>592</ele>
        <time>2016-12-18T13:33:09Z</time>
      </trkpt>
      <trkpt lat="46.04771" lon="1.8197">
        <ele>592</ele>
        <time>2016-12-18T13:35:09Z</time>
      </trkpt>
      <trkpt lat="46.04772" lon="1.81972">
        <ele>592</ele>
        <time>2016-12-18T13:37:09Z</time>
      </trkpt>
      <trkpt lat="46.04774" lon="1.81975">
        <ele>592</ele>
        <time>2016-12-18T13:39:09Z</time>
      </trkpt>
      <trkpt lat="46.04779" lon="1.81993">
        <ele>593</ele>
        <time>2016-12-18T13:41:09Z</time>
      </trkpt>
      <trkpt lat="46.04785" lon="1.8201">
        <ele>592</ele>
        <time>2016-12-18T13:43:09Z</time>
      </trkpt>
      <trkpt lat="46.04789" lon="1.82013">
        <ele>592</ele>
        <time>2016-12-18T13:45:09Z</time>
      </trkpt>
      <trkpt lat="46.04792" lon="1.82018">
        <ele>592</ele>
        <time>2016-12-18T13:47:09Z</time>
      </trkpt>
      <trkpt lat="46.0482" lon="1.82031">
        <ele>594</ele>
        <time>2016-12-18T13:49:09Z</time>
      </trkpt>
      <trkpt lat="46.04821" lon="1.82029">
        <ele>595</ele>
        <time>2016-12-18T13:51:09Z</time>
      </trkpt>
      <trkpt lat="46.04821" lon="1.82027">
        <ele>595</ele>
        <time>2016-12-18T13:53:09Z</time>
      </trkpt>
      <trkpt lat="46.04824" lon="1.82022">
        <ele>596</ele>
        <time>2016-12-18T13:55:09Z</time>
      </trkpt>
      <trkpt lat="46.04829" lon="1.82015">
        <ele>597</ele>
        <time>2016-12-18T13:57:09Z</time>
      </trkpt>
      <trkpt lat="46.04845" lon="1.81997">
        <ele>599</ele>
        <time>2016-12-18T13:59:09Z</time>
      </trkpt>
      <trkpt lat="46.04854" lon="1.81991">
        <ele>600</ele>
        <time>2016-12-18T14:01:09Z</time>
      </trkpt>
      <trkpt lat="46.04857" lon="1.8199">
        <ele>601</ele>
        <time>2016-12-18T14:03:09Z</time>
      </trkpt>
      <trkpt lat="46.04861" lon="1.81988">
        <ele>601</ele>
        <time>2016-12-18T14:05:09Z</time>
      </trkpt>
      <trkpt lat="46.04874" lon="1.81985">
        <ele>603</ele>
        <time>2016-12-18T14:07:09Z</time>
      </trkpt>
      <trkpt lat="46.04888" lon="1.81985">
        <ele>604</ele>
        <time>2016-12-18T14:09:09Z</time>
      </trkpt>
      <trkpt lat="46.04891" lon="1.81986">
        <ele>605</ele>
        <time>2016-12-18T14:11:09Z</time>
      </trkpt>
      <trkpt lat="46.04894" lon="1.81987">
        <ele>605</ele>
        <time>2016-12-18T14:13:09Z</time>
      </trkpt>
      <trkpt lat="46.049" lon="1.81988">
        <ele>606</ele>
        <time>2016-12-18T14:15:09Z</time>
      </trkpt>
      <trkpt lat="46.04908" lon="1.81986">
        <ele>607</ele>
        <time>2016-12-18T14:17:09Z</time>
      </trkpt>
      <trkpt lat="46.04911" lon="1.81984">
        <ele>607</ele>
        <time>2016-12-18T14:19:09Z</time>
      </trkpt>
      <trkpt lat="46.04914" lon="1.81981">
        <ele>608</ele>
        <time>2016-12-18T14:21:09Z</time>
      </trkpt>
      <trkpt lat="46.04921" lon="1.81968">
        <ele>607</ele>
        <time>2016-12-18T14:23:09Z</time>
      </trkpt>
      <trkpt lat="46.04926" lon="1.81962">
        <ele>607</ele>
        <time>2016-12-18T14:25:09Z</time>
      </trkpt>
      <trkpt lat="46.04929" lon="1.81958">
        <ele>607</ele>
        <time>2016-12-18T14:27:09Z</time>
      </trkpt>
      <trkpt lat="46.04933" lon="1.81955">
        <ele>607</ele>
        <time>2016-12-18T14:29:09Z</time>
      </trkpt>
      <trkpt lat="46.04935" lon="1.81954">
        <ele>608</ele>
        <time>2016-12-18T14:31:09Z</time>
      </trkpt>
      <trkpt lat="46.04938" lon="1.81954">
        <ele>608</ele>
        <time>2016-12-18T14:33:09Z</time>
      </trkpt>
      <trkpt lat="46.04945" lon="1.81954">
        <ele>608</ele>
        <time>2016-12-18T14:35:09Z</time>
      </trkpt>
      <trkpt lat="46.04957" lon="1.81956">
        <ele>609</ele>
        <time>2016-12-18T14:37:09Z</time>
      </trkpt>
      <trkpt lat="46.05018" lon="1.81972">
        <ele>616</ele>
        <time>2016-12-18T14:39:09Z</time>
      </trkpt>
      <trkpt lat="46.05027" lon="1.81977">
        <ele>618</ele>
        <time>2016-12-18T14:41:09Z</time>
      </trkpt>
      <trkpt lat="46.05029" lon="1.8198">
        <ele>619</ele>
        <time>2016-12-18T14:43:09Z</time>
      </trkpt>
      <trkpt lat="46.0503" lon="1.81982">
        <ele>619</ele>
        <time>2016-12-18T14:45:09Z</time>
      </trkpt>
      <trkpt lat="46.05031" lon="1.81986">
        <ele>619</ele>
        <time>2016-12-18T14:47:09Z</time>
      </trkpt>
      <trkpt lat="46.05032" lon="1.81997">
        <ele>621</ele>
        <time>2016-12-18T14:49:09Z</time>
      </trkpt>
      <trkpt lat="46.0503" lon="1.82007">
        <ele>621</ele>
        <time>2016-12-18T14:51:09Z</time>
      </trkpt>
      <trkpt lat="46.05033" lon="1.82019">
        <ele>622</ele>
        <time>2016-12-18T14:53:09Z</time>
      </trkpt>
      <trkpt lat="46.05036" lon="1.82028">
        <ele>623</ele>
        <time>2016-12-18T14:55:09Z</time>
      </trkpt>
      <trkpt lat="46.05035" lon="1.82037">
        <ele>623</ele>
        <time>2016-12-18T14:57:09Z</time>
      </trkpt>
      <trkpt lat="46.0504" lon="1.8204">
        <ele>624</ele>
        <time>2016-12-18T14:59:09Z</time>
      </trkpt>
      <trkpt lat="46.05041" lon="1.82042">
        <ele>624</ele>
        <time>2016-12-18T15:01:09Z</time>
      </trkpt>
      <trkpt lat="46.05041" lon="1.82043">
        <ele>624</ele>
        <time>2016-12-18T15:03:09Z</time>
      </trkpt>
      <trkpt lat="46.05049" lon="1.82045">
        <ele>625</ele>
        <time>2016-12-18T15:05:09Z</time>
      </trkpt>
      <trkpt lat="46.05052" lon="1.8205">
        <ele>626</ele>
        <time>2016-12-18T15:07:09Z</time>
      </trkpt>
      <trkpt lat="46.05053" lon="1.82051">
        <ele>626</ele>
        <time>2016-12-18T15:09:09Z</time>
      </trkpt>
      <trkpt lat="46.05054" lon="1.82053">
        <ele>627</ele>
        <time>2016-12-18T15:11:09Z</time>
      </trkpt>
      <trkpt lat="46.05059" lon="1.82062">
        <ele>628</ele>
        <time>2016-12-18T15:13:09Z</time>
      </trkpt>
      <trkpt lat="46.0506" lon="1.82063">
        <ele>628</ele>
        <time>2016-12-18T15:15:09Z</time>
      </trkpt>
      <trkpt lat="46.05062" lon="1.82063">
        <ele>629</ele>
        <time>2016-12-18T15:17:09Z</time>
      </trkpt>
      <trkpt lat="46.0507" lon="1.82067">
        <ele>630</ele>
        <time>2016-12-18T15:19:09Z</time>
      </trkpt>
      <trkpt lat="46.05071" lon="1.82069">
        <ele>631</ele>
        <time>2016-12-18T15:21:09Z</time>
      </trkpt>
      <trkpt lat="46.05073" lon="1.8207">
        <ele>631</ele>
        <time>2016-12-18T15:23:09Z</time>
      </trkpt>
      <trkpt lat="46.0508" lon="1.82059">
        <ele>632</ele>
        <time>2016-12-18T15:25:09Z</time>
      </trkpt>
      <trkpt lat="46.05088" lon="1.8205">
        <ele>632</ele>
        <time>2016-12-18T15:27:09Z</time>
      </trkpt>
      <trkpt lat="46.05091" lon="1.82049">
        <ele>632</ele>
        <time>2016-12-18T15:29:09Z</time>
      </trkpt>
      <trkpt lat="46.05099" lon="1.82049">
        <ele>633</ele>
        <time>2016-12-18T15:31:09Z</time>
      </trkpt>
      <trkpt lat="46.05108" lon="1.82047">
        <ele>634</ele>
        <time>2016-12-18T15:33:09Z</time>
      </trkpt>
      <trkpt lat="46.05111" lon="1.82046">
        <ele>635</ele>
        <time>2016-12-18T15:35:09Z</time>
      </trkpt>
      <trkpt lat="46.05114" lon="1.82047">
        <ele>635</ele>
        <time>2016-12-18T15:37:09Z</time>
      </trkpt>
      <trkpt lat="46.05116" lon="1.82048">
        <ele>635</ele>
        <time>2016-12-18T15:39:09Z</time>
      </trkpt>
      <trkpt lat="46.05118" lon="1.8205">
        <ele>636</ele>
        <time>2016-12-18T15:41:09Z</time>
      </trkpt>
      <trkpt lat="46.05132" lon="1.82052">
        <ele>638</ele>
        <time>2016-12-18T15:43:09Z</time>
      </trkpt>
      <trkpt lat="46.05149" lon="1.82048">
        <ele>640</ele>
        <time>2016-12-18T15:45:09Z</time>
      </trkpt>
      <trkpt lat="46.05153" lon="1.82048">
        <ele>640</ele>
        <time>2016-12-18T15:47:09Z</time>
      </trkpt>
      <trkpt lat="46.05156" lon="1.8205">
        <ele>641</ele>
        <time>2016-12-18T15:49:09Z</time>
      </trkpt>
      <trkpt lat="46.05159" lon="1.82053">
        <ele>641</ele>
        <time>2016-12-18T15:51:09Z</time>
      </trkpt>
      <trkpt lat="46.05164" lon="1.82064">
        <ele>643</ele>
        <time>2016-12-18T15:53:09Z</time>
      </trkpt>
      <trkpt lat="46.05165" lon="1.82067">
        <ele>644</ele>
        <time>2016-12-18T15:55:09Z</time>
      </trkpt>
      <trkpt lat="46.05167" lon="1.82075">
        <ele>645</ele>
        <time>2016-12-18T15:57:09Z</time>
      </trkpt>
      <trkpt lat="46.05169" lon="1.82087">
        <ele>646</ele>
        <time>2016-12-18T15:59:09Z</time>
      </trkpt>
      <trkpt lat="46.05173" lon="1.821">
        <ele>647</ele>
        <time>2016-12-18T16:01:09Z</time>
      </trkpt>
      <trkpt lat="46.05173" lon="1.82104">
        <ele>647</ele>
        <time>2016-12-18T16:03:09Z</time>
      </trkpt>
      <trkpt lat="46.05175" lon="1.82108">
        <ele>647</ele>
        <time>2016-12-18T16:05:09Z</time>
      </trkpt>
      <trkpt lat="46.05179" lon="1.82115">
        <ele>647</ele>
        <time>2016-12-18T16:07:09Z</time>
      </trkpt>
      <trkpt lat="46.05181" lon="1.82118">
        <ele>648</ele>
        <time>2016-12-18T16:09:09Z</time>
      </trkpt>
      <trkpt lat="46.05188" lon="1.82127">
        <ele>648</ele>
        <time>2016-12-18T16:11:09Z</time>
      </trkpt>
      <trkpt lat="46.05195" lon="1.82136">
        <ele>649</ele>
        <time>2016-12-18T16:13:09Z</time>
      </trkpt>
      <trkpt lat="46.05198" lon="1.82139">
        <ele>649</ele>
        <time>2016-12-18T16:15:09Z</time>
      </trkpt>
      <trkpt lat="46.05203" lon="1.82142">
        <ele>649</ele>
        <time>2016-12-18T16:17:09Z</time>
      </trkpt>
      <trkpt lat="46.05208" lon="1.82145">
        <ele>650</ele>
        <time>2016-12-18T16:19:09Z</time>
      </trkpt>
      <trkpt lat="46.0521" lon="1.82145">
        <ele>650</ele>
        <time>2016-12-18T16:21:09Z</time>
      </trkpt>
      <trkpt lat="46.0525" lon="1.82146">
        <ele>651</ele>
        <time>2016-12-18T16:23:09Z</time>
      </trkpt>
      <trkpt lat="46.05252" lon="1.82145">
        <ele>651</ele>
        <time>2016-12-18T16:25:09Z</time>
      </trkpt>
      <trkpt lat="46.05253" lon="1.82141">
        <ele>651</ele>
        <time>2016-12-18T16:27:09Z</time>
      </trkpt>
      <trkpt lat="46.05355" lon="1.82173">
        <ele>659</ele>
        <time>2016-12-18T16:29:09Z</time>
      </trkpt>
      <trkpt lat="46.05373" lon="1.82178">
        <ele>661</ele>
        <time>2016-12-18T16:31:09Z</time>
      </trkpt>
      <trkpt lat="46.05377" lon="1.82181">
        <ele>662</ele>
        <time>2016-12-18T16:33:09Z</time>
      </trkpt>
      <trkpt lat="46.0538" lon="1.82185">
        <ele>662</ele>
        <time>2016-12-18T16:35:09Z</time>
      </trkpt>
      <trkpt lat="46.05381" lon="1.82187">
        <ele>663</ele>
        <time>2016-12-18T16:37:09Z</time>
      </trkpt>
      <trkpt lat="46.05383" lon="1.82194">
        <ele>664</ele>
        <time>2016-12-18T16:39:09Z</time>
      </trkpt>
      <trkpt lat="46.05386" lon="1.82197">
        <ele>664</ele>
        <time>2016-12-18T16:41:09Z</time>
      </trkpt>
      <trkpt lat="46.05386" lon="1.82199">
        <ele>665</ele>
        <time>2016-12-18T16:43:09Z</time>
      </trkpt>
      <trkpt lat="46.0539" lon="1.82207">
        <ele>666</ele>
        <time>2016-12-18T16:45:09Z</time>
      </trkpt>
      <trkpt lat="46.0539" lon="1.82209">
        <ele>666</ele>
        <time>2016-12-18T16:47:09Z</time>
      </trkpt>
      <trkpt lat="46.0539" lon="1.82213">
        <ele>667</ele>
        <time>2016-12-18T16:49:09Z</time>
      </trkpt>
      <trkpt lat="46.05389" lon="1.82223">
        <ele>668</ele>
        <time>2016-12-18T16:51:09Z</time>
      </trkpt>
      <trkpt lat="46.0539" lon="1.82228">
        <ele>669</ele>
        <time>2016-12-18T16:53:09Z</time>
      </trkpt>
      <trkpt lat="46.0539" lon="1.82233">
        <ele>669</ele>
        <time>2016-12-18T16:55:09Z</time>
      </trkpt>
      <trkpt lat="46.05395" lon="1.82239">
        <ele>671</ele>
        <time>2016-12-18T16:57:09Z</time>
      </trkpt>
      <trkpt lat="46.05397" lon="1.82248">
        <ele>672</ele>
        <time>2016-12-18T16:59:09Z</time>
      </trkpt>
      <trkpt lat="46.05398" lon="1.82252">
        <ele>673</ele>
        <time>2016-12-18T17:01:09Z</time>
      </trkpt>
      <trkpt lat="46.05401" lon="1.82256">
        <ele>673</ele>
        <time>2016-12-18T17:03:09Z</time>
      </trkpt>
      <trkpt lat="46.05401" lon="1.82261">
        <ele>673</ele>
        <time>2016-12-18T17:05:09Z</time>
      </trkpt>
      <trkpt lat="46.05402" lon="1.82265">
        <ele>673</ele>
        <time>2016-12-18T17:07:09Z</time>
      </trkpt>
      <trkpt lat="46.05403" lon="1.82269">
        <ele>674</ele>
        <time>2016-12-18T17:09:09Z</time>
      </trkpt>
      <trkpt lat="46.05407" lon="1.82273">
        <ele>674</ele>
        <time>2016-12-18T17:11:09Z</time>
      </trkpt>
      <trkpt lat="46.0541" lon="1.82282">
        <ele>675</ele>
        <time>2016-12-18T17:13:09Z</time>
      </trkpt>
      <trkpt lat="46.05413" lon="1.82286">
        <ele>675</ele>
        <time>2016-12-18T17:15:09Z</time>
      </trkpt>
      <trkpt lat="46.05416" lon="1.82289">
        <ele>675</ele>
        <time>2016-12-18T17:17:09Z</time>
      </trkpt>
      <trkpt lat="46.05426" lon="1.8231">
        <ele>676</ele>
        <time>2016-12-18T17:19:09Z</time>
      </trkpt>
      <trkpt lat="46.05439" lon="1.82328">
        <ele>678</ele>
        <time>2016-12-18T17:21:09Z</time>
      </trkpt>
      <trkpt lat="46.05469" lon="1.82356">
        <ele>677</ele>
        <time>2016-12-18T17:23:09Z</time>
      </trkpt>
      <trkpt lat="46.05472" lon="1.82367">
        <ele>675</ele>
        <time>2016-12-18T17:25:09Z</time>
      </trkpt>
      <trkpt lat="46.05472" lon="1.82376">
        <ele>674</ele>
        <time>2016-12-18T17:27:09Z</time>
      </trkpt>
      <trkpt lat="46.05473" lon="1.82378">
        <ele>674</ele>
        <time>2016-12-18T17:29:09Z</time>
      </trkpt>
      <trkpt lat="46.05473" lon="1.82379">
        <ele>674</ele>
        <time>2016-12-18T17:31:09Z</time>
      </trkpt>
      <trkpt lat="46.05473" lon="1.8238">
        <ele>674</ele>
        <time>2016-12-18T17:33:09Z</time>
      </trkpt>
      <trkpt lat="46.05474" lon="1.82384">
        <ele>673</ele>
        <time>2016-12-18T17:35:09Z</time>
      </trkpt>
      <trkpt lat="46.05475" lon="1.82386">
        <ele>673</ele>
        <time>2016-12-18T17:37:09Z</time>
      </trkpt>
      <trkpt lat="46.05478" lon="1.82393">
        <ele>672</ele>
        <time>2016-12-18T17:39:09Z</time>
      </trkpt>
      <trkpt lat="46.05481" lon="1.82395">
        <ele>672</ele>
        <time>2016-12-18T17:41:09Z</time>
      </trkpt>
      <trkpt lat="46.05482" lon="1.82397">
        <ele>672</ele>
        <time>2016-12-18T17:43:09Z</time>
      </trkpt>
      <trkpt lat="46.05505" lon="1.8241">
        <ele>671</ele>
        <time>2016-12-18T17:45:09Z</time>
      </trkpt>
      <trkpt lat="46.05507" lon="1.8241">
        <ele>671</ele>
        <time>2016-12-18T17:47:09Z</time>
      </trkpt>
      <trkpt lat="46.05512" lon="1.82412">
        <ele>671</ele>
        <time>2016-12-18T17:49:09Z</time>
      </trkpt>
      <trkpt lat="46.05526" lon="1.82422">
        <ele>670</ele>
        <time>2016-12-18T17:51:09Z</time>
      </trkpt>
      <trkpt lat="46.05533" lon="1.82427">
        <ele>669</ele>
        <time>2016-12-18T17:53:09Z</time>
      </trkpt>
      <trkpt lat="46.05538" lon="1.82429">
        <ele>669</ele>
        <time>2016-12-18T17:55:09Z</time>
      </trkpt>
      <trkpt lat="46.05548" lon="1.82434">
        <ele>668</ele>
        <time>2016-12-18T17:57:09Z</time>
      </trkpt>
      <trkpt lat="46.0555" lon="1.82436">
        <ele>668</ele>
        <time>2016-12-18T17:59:09Z</time>
      </trkpt>
      <trkpt lat="46.05551" lon="1.82438">
        <ele>667</ele>
        <time>2016-12-18T18:01:09Z</time>
      </trkpt>
      <trkpt lat="46.05553" lon="1.8244">
        <ele>667</ele>
        <time>2016-12-18T18:03:09Z</time>
      </trkpt>
      <trkpt lat="46.05556" lon="1.82443">
        <ele>666</ele>
        <time>2016-12-18T18:05:09Z</time>
      </trkpt>
      <trkpt lat="46.05568" lon="1.82451">
        <ele>665</ele>
        <time>2016-12-18T18:07:09Z</time>
      </trkpt>
      <trkpt lat="46.05572" lon="1.82455">
        <ele>665</ele>
        <time>2016-12-18T18:09:09Z</time>
      </trkpt>
      <trkpt lat="46.05586" lon="1.82465">
        <ele>664</ele>
        <time>2016-12-18T18:11:09Z</time>
      </trkpt>
      <trkpt lat="46.05604" lon="1.82482">
        <ele>661</ele>
        <time>2016-12-18T18:13:09Z</time>
      </trkpt>
      <trkpt lat="46.05617" lon="1.82499">
        <ele>659</ele>
        <time>2016-12-18T18:15:09Z</time>
      </trkpt>
      <trkpt lat="46.05623" lon="1.82517">
        <ele>660</ele>
        <time>2016-12-18T18:17:09Z</time>
      </trkpt>
      <trkpt lat="46.05626" lon="1.82537">
        <ele>661</ele>
        <time>2016-12-18T18:19:09Z</time>
      </trkpt>
      <trkpt lat="46.05627" lon="1.8254">
        <ele>661</ele>
        <time>2016-12-18T18:21:09Z</time>
      </trkpt>
      <trkpt lat="46.05636" lon="1.82556">
        <ele>663</ele>
        <time>2016-12-18T18:23:09Z</time>
      </trkpt>
      <trkpt lat="46.05643" lon="1.82565">
        <ele>665</ele>
        <time>2016-12-18T18:25:09Z</time>
      </trkpt>
      <trkpt lat="46.05649" lon="1.82573">
        <ele>667</ele>
        <time>2016-12-18T18:27:09Z</time>
      </trkpt>
      <trkpt lat="46.05651" lon="1.82576">
        <ele>667</ele>
        <time>2016-12-18T18:29:09Z</time>
      </trkpt>
      <trkpt lat="46.05656" lon="1.82581">
        <ele>669</ele>
        <time>2016-12-18T18:31:09Z</time>
      </trkpt>
      <trkpt lat="46.0566" lon="1.82584">
        <ele>670</ele>
        <time>2016-12-18T18:33:09Z</time>
      </trkpt>
      <trkpt lat="46.05667" lon="1.82587">
        <ele>671</ele>
        <time>2016-12-18T18:35:09Z</time>
      </trkpt>
      <trkpt lat="46.0567" lon="1.82589">
        <ele>671</ele>
        <time>2016-12-18T18:37:09Z</time>
      </trkpt>
      <trkpt lat="46.0568" lon="1.82598">
        <ele>671</ele>
        <time>2016-12-18T18:39:09Z</time>
      </trkpt>
      <trkpt lat="46.05688" lon="1.82611">
        <ele>670</ele>
        <time>2016-12-18T18:41:09Z</time>
      </trkpt>
      <trkpt lat="46.0569" lon="1.82625">
        <ele>670</ele>
        <time>2016-12-18T18:43:09Z</time>
      </trkpt>
      <trkpt lat="46.05692" lon="1.82631">
        <ele>670</ele>
        <time>2016-12-18T18:45:09Z</time>
      </trkpt>
      <trkpt lat="46.05693" lon="1.82633">
        <ele>669</ele>
        <time>2016-12-18T18:47:09Z</time>
      </trkpt>
      <trkpt lat="46.05714" lon="1.82657">
        <ele>669</ele>
        <time>2016-12-18T18:49:09Z</time>
      </trkpt>
      <trkpt lat="46.05715" lon="1.82659">
        <ele>669</ele>
        <time>2016-12-18T18:51:09Z</time>
      </trkpt>
      <trkpt lat="46.05718" lon="1.82667">
        <ele>669</ele>
        <time>2016-12-18T18:53:09Z</time>
      </trkpt>
      <trkpt lat="46.05741" lon="1.82682">
        <ele>668</ele>
        <time>2016-12-18T18:55:09Z</time>
      </trkpt>
      <trkpt lat="46.05744" lon="1.82684">
        <ele>668</ele>
        <time>2016-12-18T18:57:09Z</time>
      </trkpt>
      <trkpt lat="46.05746" lon="1.82684">
        <ele>669</ele>
        <time>2016-12-18T18:59:09Z</time>
      </trkpt>
      <trkpt lat="46.05748" lon="1.82684">
        <ele>669</ele>
        <time>2016-12-18T19:01:09Z</time>
      </trkpt>
      <trkpt lat="46.05756" lon="1.82686">
        <ele>668</ele>
        <time>2016-12-18T19:03:09Z</time>
      </trkpt>
      <trkpt lat="46.0579" lon="1.82759">
        <ele>656</ele>
        <time>2016-12-18T19:05:09Z</time>
      </trkpt>
      <trkpt lat="46.05795" lon="1.82779">
        <ele>655</ele>
        <time>2016-12-18T19:07:09Z</time>
      </trkpt>
      <trkpt lat="46.05794" lon="1.82802">
        <ele>654</ele>
        <time>2016-12-18T19:09:09Z</time>
      </trkpt>
      <trkpt lat="46.05794" lon="1.82804">
        <ele>654</ele>
        <time>2016-12-18T19:11:09Z</time>
      </trkpt>
      <trkpt lat="46.05794" lon="1.82813">
        <ele>654</ele>
        <time>2016-12-18T19:13:09Z</time>
      </trkpt>
      <trkpt lat="46.05795" lon="1.82821">
        <ele>654</ele>
        <time>2016-12-18T19:15:09Z</time>
      </trkpt>
      <trkpt lat="46.05796" lon="1.82843">
        <ele>654</ele>
        <time>2016-12-18T19:17:09Z</time>
      </trkpt>
      <trkpt lat="46.05794" lon="1.82846">
        <ele>654</ele>
        <time>2016-12-18T19:19:09Z</time>
      </trkpt>
      <trkpt lat="46.05792" lon="1.82847">
        <ele>654</ele>
        <time>2016-12-18T19:21:09Z</time>
      </trkpt>
      <trkpt lat="46.0579" lon="1.82847">
        <ele>655</ele>
        <time>2016-12-18T19:23:09Z</time>
      </trkpt>
      <trkpt lat="46.05788" lon="1.82849">
        <ele>655</ele>
        <time>2016-12-18T19:25:09Z</time>
      </trkpt>
      <trkpt lat="46.05784" lon="1.82853">
        <ele>655</ele>
        <time>2016-12-18T19:27:09Z</time>
      </trkpt>
      <trkpt lat="46.05776" lon="1.82859">
        <ele>655</ele>
        <time>2016-12-18T19:29:09Z</time>
      </trkpt>
      <trkpt lat="46.05767" lon="1.82862">
        <ele>655</ele>
        <time>2016-12-18T19:31:09Z</time>
      </trkpt>
      <trkpt lat="46.0575" lon="1.82866">
        <ele>655</ele>
        <time>2016-12-18T19:33:09Z</time>
      </trkpt>
      <trkpt lat="46.05748" lon="1.82867">
        <ele>654</ele>
        <time>2016-12-18T19:35:09Z</time>
      </trkpt>
      <trkpt lat="46.05749" lon="1.8287">
        <ele>654</ele>
        <time>2016-12-18T19:37:09Z</time>
      </trkpt>
      <trkpt lat="46.0575" lon="1.82873">
        <ele>655</ele>
        <time>2016-12-18T19:39:09Z</time>
      </trkpt>
      <trkpt lat="46.05748" lon="1.8288">
        <ele>654</ele>
        <time>2016-12-18T19:41:09Z</time>
      </trkpt>
      <trkpt lat="46.05746" lon="1.82894">
        <ele>653</ele>
        <time>2016-12-18T19:43:09Z</time>
      </trkpt>
      <trkpt lat="46.05746" lon="1.82903">
        <ele>652</ele>
        <time>2016-12-18T19:45:09Z</time>
      </trkpt>
      <trkpt lat="46.05745" lon="1.82905">
        <ele>652</ele>
        <time>2016-12-18T19:47:09Z</time>
      </trkpt>
      <trkpt lat="46.05744" lon="1.82908">
        <ele>651</ele>
        <time>2016-12-18T19:49:09Z</time>
      </trkpt>
      <trkpt lat="46.05742" lon="1.82915">
        <ele>650</ele>
        <time>2016-12-18T19:51:09Z</time>
      </trkpt>
      <trkpt lat="46.05742" lon="1.82921">
        <ele>650</ele>
        <time>2016-12-18T19:53:09Z</time>
      </trkpt>
      <trkpt lat="46.05739" lon="1.82933">
        <ele>649</ele>
        <time>2016-12-18T19:55:09Z</time>
      </trkpt>
      <trkpt lat="46.05738" lon="1.8294">
        <ele>648</ele>
        <time>2016-12-18T19:57:09Z</time>
      </trkpt>
      <trkpt lat="46.05738" lon="1.82945">
        <ele>648</ele>
        <time>2016-12-18T19:59:09Z</time>
      </trkpt>
      <trkpt lat="46.05736" lon="1.82959">
        <ele>647</ele>
        <time>2016-12-18T20:01:09Z</time>
      </trkpt>
      <trkpt lat="46.05732" lon="1.82967">
        <ele>645</ele>
        <time>2016-12-18T20:03:09Z</time>
      </trkpt>
      <trkpt lat="46.05731" lon="1.82973">
        <ele>645</ele>
        <time>2016-12-18T20:05:09Z</time>
      </trkpt>
      <trkpt lat="46.05731" lon="1.82974">
        <ele>645</ele>
        <time>2016-12-18T20:07:09Z</time>
      </trkpt>
      <trkpt lat="46.05729" lon="1.82981">
        <ele>644</ele>
        <time>2016-12-18T20:09:09Z</time>
      </trkpt>
      <trkpt lat="46.05727" lon="1.82988">
        <ele>643</ele>
        <time>2016-12-18T20:11:09Z</time>
      </trkpt>
      <trkpt lat="46.05726" lon="1.82991">
        <ele>643</ele>
        <time>2016-12-18T20:13:09Z</time>
      </trkpt>
      <trkpt lat="46.05725" lon="1.82993">
        <ele>642</ele>
        <time>2016-12-18T20:15:09Z</time>
      </trkpt>
      <trkpt lat="46.05723" lon="1.82998">
        <ele>641</ele>
        <time>2016-12-18T20:17:09Z</time>
      </trkpt>
      <trkpt lat="46.0572" lon="1.83019">
        <ele>639</ele>
        <time>2016-12-18T20:19:09Z</time>
      </trkpt>
      <trkpt lat="46.05721" lon="1.83038">
        <ele>639</ele>
        <time>2016-12-18T20:21:09Z</time>
      </trkpt>
      <trkpt lat="46.05722" lon="1.83057">
        <ele>638</ele>
        <time>2016-12-18T20:23:09Z</time>
      </trkpt>
      <trkpt lat="46.05723" lon="1.83059">
        <ele>639</ele>
        <time>2016-12-18T20:25:09Z</time>
      </trkpt>
      <trkpt lat="46.05724" lon="1.83069">
        <ele>639</ele>
        <time>2016-12-18T20:27:09Z</time>
      </trkpt>
      <trkpt lat="46.05724" lon="1.83073">
        <ele>638</ele>
        <time>2016-12-18T20:29:09Z</time>
      </trkpt>
      <trkpt lat="46.05725" lon="1.83083">
        <ele>638</ele>
        <time>2016-12-18T20:31:09Z</time>
      </trkpt>
      <trkpt lat="46.05723" lon="1.83109">
        <ele>636</ele>
        <time>2016-12-18T20:33:09Z</time>
      </trkpt>
      <trkpt lat="46.05725" lon="1.83122">
        <ele>635</ele>
        <time>2016-12-18T20:35:09Z</time>
      </trkpt>
      <trkpt lat="46.05725" lon="1.83125">
        <ele>635</ele>
        <time>2016-12-18T20:37:09Z</time>
      </trkpt>
      <trkpt lat="46.05724" lon="1.83127">
        <ele>635</ele>
        <time>2016-12-18T20:39:09Z</time>
      </trkpt>
      <trkpt lat="46.05719" lon="1.83136">
        <ele>633</ele>
        <time>2016-12-18T20:41:09Z</time>
      </trkpt>
      <trkpt lat="46.05716" lon="1.83146">
        <ele>631</ele>
        <time>2016-12-18T20:43:09Z</time>
      </trkpt>
      <trkpt lat="46.05715" lon="1.83148">
        <ele>631</ele>
        <time>2016-12-18T20:45:09Z</time>
      </trkpt>
      <trkpt lat="46.05715" lon="1.8315">
        <ele>630</ele>
        <time>2016-12-18T20:47:09Z</time>
      </trkpt>
      <trkpt lat="46.05712" lon="1.8316">
        <ele>629</ele>
        <time>2016-12-18T20:49:09Z</time>
      </trkpt>
      <trkpt lat="46.05712" lon="1.83164">
        <ele>629</ele>
        <time>2016-12-18T20:51:09Z</time>
      </trkpt>
      <trkpt lat="46.05713" lon="1.83166">
        <ele>629</ele>
        <time>2016-12-18T20:53:09Z</time>
      </trkpt>
      <trkpt lat="46.05713" lon="1.83168">
        <ele>629</ele>
        <time>2016-12-18T20:55:09Z</time>
      </trkpt>
      <trkpt lat="46.05712" lon="1.83171">
        <ele>629</ele>
        <time>2016-12-18T20:57:09Z</time>
      </trkpt>
      <trkpt lat="46.05705" lon="1.83176">
        <ele>627</ele>
        <time>2016-12-18T20:59:09Z</time>
      </trkpt>
      <trkpt lat="46.05702" lon="1.83177">
        <ele>626</ele>
        <time>2016-12-18T21:01:09Z</time>
      </trkpt>
      <trkpt lat="46.057" lon="1.83179">
        <ele>626</ele>
        <time>2016-12-18T21:03:09Z</time>
      </trkpt>
      <trkpt lat="46.05693" lon="1.83189">
        <ele>624</ele>
        <time>2016-12-18T21:05:09Z</time>
      </trkpt>
      <trkpt lat="46.05692" lon="1.83193">
        <ele>624</ele>
        <time>2016-12-18T21:07:09Z</time>
      </trkpt>
      <trkpt lat="46.05692" lon="1.83198">
        <ele>624</ele>
        <time>2016-12-18T21:09:09Z</time>
      </trkpt>
      <trkpt lat="46.05691" lon="1.83199">
        <ele>624</ele>
        <time>2016-12-18T21:11:09Z</time>
      </trkpt>
      <trkpt lat="46.05691" lon="1.83201">
        <ele>624</ele>
        <time>2016-12-18T21:13:09Z</time>
      </trkpt>
      <trkpt lat="46.05692" lon="1.83205">
        <ele>625</ele>
        <time>2016-12-18T21:15:09Z</time>
      </trkpt>
      <trkpt lat="46.0569" lon="1.83206">
        <ele>624</ele>
        <time>2016-12-18T21:17:09Z</time>
      </trkpt>
      <trkpt lat="46.05689" lon="1.83208">
        <ele>624</ele>
        <time>2016-12-18T21:19:09Z</time>
      </trkpt>
      <trkpt lat="46.05687" lon="1.83211">
        <ele>624</ele>
        <time>2016-12-18T21:21:09Z</time>
      </trkpt>
      <trkpt lat="46.05684" lon="1.83215">
        <ele>623</ele>
        <time>2016-12-18T21:23:09Z</time>
      </trkpt>
      <trkpt lat="46.0568" lon="1.83225">
        <ele>623</ele>
        <time>2016-12-18T21:25:09Z</time>
      </trkpt>
      <trkpt lat="46.0568" lon="1.83233">
        <ele>624</ele>
        <time>2016-12-18T21:27:09Z</time>
      </trkpt>
      <trkpt lat="46.05681" lon="1.8324">
        <ele>624</ele>
        <time>2016-12-18T21:29:09Z</time>
      </trkpt>
      <trkpt lat="46.05681" lon="1.83244">
        <ele>624</ele>
        <time>2016-12-18T21:31:09Z</time>
      </trkpt>
      <trkpt lat="46.0568" lon="1.83248">
        <ele>624</ele>
        <time>2016-12-18T21:33:09Z</time>
      </trkpt>
      <trkpt lat="46.0568" lon="1.83265">
        <ele>625</ele>
        <time>2016-12-18T21:35:09Z</time>
      </trkpt>
      <trkpt lat="46.05679" lon="1.8328">
        <ele>625</ele>
        <time>2016-12-18T21:37:09Z</time>
      </trkpt>
      <trkpt lat="46.05678" lon="1.83284">
        <ele>625</ele>
        <time>2016-12-18T21:39:09Z</time>
      </trkpt>
      <trkpt lat="46.05676" lon="1.83286">
        <ele>625</ele>
        <time>2016-12-18T21:41:09Z</time>
      </trkpt>
      <trkpt lat="46.05671" lon="1.8329">
        <ele>624</ele>
        <time>2016-12-18T21:43:09Z</time>
      </trkpt>
      <trkpt lat="46.05662" lon="1.83297">
        <ele>623</ele>
        <time>2016-12-18T21:45:09Z</time>
      </trkpt>
      <trkpt lat="46.05661" lon="1.83299">
        <ele>623</ele>
        <time>2016-12-18T21:47:09Z</time>
      </trkpt>
      <trkpt lat="46.05657" lon="1.833">
        <ele>622</ele>
        <time>2016-12-18T21:49:09Z</time>
      </trkpt>
      <trkpt lat="46.05652" lon="1.83301">
        <ele>622</ele>
        <time>2016-12-18T21:51:09Z</time>
      </trkpt>
      <trkpt lat="46.05647" lon="1.83303">
        <ele>621</ele>
        <time>2016-12-18T21:53:09Z</time>
      </trkpt>
      <trkpt lat="46.05643" lon="1.83303">
        <ele>620</ele>
        <time>2016-12-18T21:55:09Z</time>
      </trkpt>
      <trkpt lat="46.0562" lon="1.83317">
        <ele>617</ele>
        <time>2016-12-18T21:57:09Z</time>
      </trkpt>
      <trkpt lat="46.05617" lon="1.83319">
        <ele>617</ele>
        <time>2016-12-18T21:59:09Z</time>
      </trkpt>
      <trkpt lat="46.05609" lon="1.83336">
        <ele>616</ele>
        <time>2016-12-18T22:01:09Z</time>
      </trkpt>
      <trkpt lat="46.05607" lon="1.83344">
        <ele>616</ele>
        <time>2016-12-18T22:03:09Z</time>
      </trkpt>
      <trkpt lat="46.05606" lon="1.83346">
        <ele>616</ele>
        <time>2016-12-18T22:05:09Z</time>
      </trkpt>
      <trkpt lat="46.05605" lon="1.83349">
        <ele>616</ele>
        <time>2016-12-18T22:07:09Z</time>
      </trkpt>
      <trkpt lat="46.05603" lon="1.83353">
        <ele>616</ele>
        <time>2016-12-18T22:09:09Z</time>
      </trkpt>
      <trkpt lat="46.05598" lon="1.83362">
        <ele>615</ele>
        <time>2016-12-18T22:11:09Z</time>
      </trkpt>
      <trkpt lat="46.05595" lon="1.83366">
        <ele>615</ele>
        <time>2016-12-18T22:13:09Z</time>
      </trkpt>
      <trkpt lat="46.05576" lon="1.83379">
        <ele>614</ele>
        <time>2016-12-18T22:15:09Z</time>
      </trkpt>
      <trkpt lat="46.05575" lon="1.83376">
        <ele>614</ele>
        <time>2016-12-18T22:17:09Z</time>
      </trkpt>
      <trkpt lat="46.05572" lon="1.83375">
        <ele>614</ele>
        <time>2016-12-18T22:19:09Z</time>
      </trkpt>
      <trkpt lat="46.05572" lon="1.83376">
        <ele>614</ele>
        <time>2016-12-18T22:21:09Z</time>
      </trkpt>
      <trkpt lat="46.0557" lon="1.83376">
        <ele>614</ele>
        <time>2016-12-18T22:23:09Z</time>
      </trkpt>
      <trkpt lat="46.05566" lon="1.83374">
        <ele>614</ele>
        <time>2016-12-18T22:25:09Z</time>
      </trkpt>
      <trkpt lat="46.05565" lon="1.83375">
        <ele>614</ele>
        <time>2016-12-18T22:27:09Z</time>
      </trkpt>
      <trkpt lat="46.05565" lon="1.83376">
        <ele>614</ele>
        <time>2016-12-18T22:29:09Z</time>
      </trkpt>
      <trkpt lat="46.05566" lon="1.83378">
        <ele>615</ele>
        <time>2016-12-18T22:31:09Z</time>
      </trkpt>
      <trkpt lat="46.05566" lon="1.83385">
        <ele>615</ele>
        <time>2016-12-18T22:33:09Z</time>
      </trkpt>
      <trkpt lat="46.05567" lon="1.83394">
        <ele>616</ele>
        <time>2016-12-18T22:35:09Z</time>
      </trkpt>
      <trkpt lat="46.05566" lon="1.83402">
        <ele>616</ele>
        <time>2016-12-18T22:37:09Z</time>
      </trkpt>
      <trkpt lat="46.05565" lon="1.83406">
        <ele>617</ele>
        <time>2016-12-18T22:39:09Z</time>
      </trkpt>
      <trkpt lat="46.05565" lon="1.8341">
        <ele>617</ele>
        <time>2016-12-18T22:41:09Z</time>
      </trkpt>
      <trkpt lat="46.05566" lon="1.83418">
        <ele>618</ele>
        <time>2016-12-18T22:43:09Z</time>
      </trkpt>
      <trkpt lat="46.05567" lon="1.83426">
        <ele>619</ele>
        <time>2016-12-18T22:45:09Z</time>
      </trkpt>
      <trkpt lat="46.05567" lon="1.83432">
        <ele>619</ele>
        <time>2016-12-18T22:47:09Z</time>
      </trkpt>
      <trkpt lat="46.05565" lon="1.83448">
        <ele>621</ele>
        <time>2016-12-18T22:49:09Z</time>
      </trkpt>
      <trkpt lat="46.05562" lon="1.83469">
        <ele>624</ele>
        <time>2016-12-18T22:51:09Z</time>
      </trkpt>
      <trkpt lat="46.05561" lon="1.83475">
        <ele>624</ele>
        <time>2016-12-18T22:53:09Z</time>
      </trkpt>
      <trkpt lat="46.05562" lon="1.83481">
        <ele>625</ele>
        <time>2016-12-18T22:55:09Z</time>
      </trkpt>
      <trkpt lat="46.05561" lon="1.83487">
        <ele>626</ele>
        <time>2016-12-18T22:57:09Z</time>
      </trkpt>
      <trkpt lat="46.0556" lon="1.83503">
        <ele>627</ele>
        <time>2016-12-18T22:59:09Z</time>
      </trkpt>
      <trkpt lat="46.05561" lon="1.83509">
        <ele>627</ele>
        <time>2016-12-18T23:01:09Z</time>
      </trkpt>
      <trkpt lat="46.05563" lon="1.8353">
        <ele>628</ele>
        <time>2016-12-18T23:03:09Z</time>
      </trkpt>
      <trkpt lat="46.0557" lon="1.83548">
        <ele>627</ele>
        <time>2016-12-18T23:05:09Z</time>
      </trkpt>
      <trkpt lat="46.0557" lon="1.8355">
        <ele>627</ele>
        <time>2016-12-18T23:07:09Z</time>
      </trkpt>
      <trkpt lat="46.05571" lon="1.83555">
        <ele>627</ele>
        <time>2016-12-18T23:09:09Z</time>
      </trkpt>
      <trkpt lat="46.05569" lon="1.83559">
        <ele>628</ele>
        <time>2016-12-18T23:11:09Z</time>
      </trkpt>
      <trkpt lat="46.05566" lon="1.83558">
        <ele>628</ele>
        <time>2016-12-18T23:13:09Z</time>
      </trkpt>
      <trkpt lat="46.05565" lon="1.83554">
        <ele>628</ele>
        <time>2016-12-18T23:15:09Z</time>
      </trkpt>
      <trkpt lat="46.05565" lon="1.8355">
        <ele>628</ele>
        <time>2016-12-18T23:17:09Z</time>
      </trkpt>
      <trkpt lat="46.05568" lon="1.83543">
        <ele>627</ele>
        <time>2016-12-18T23:19:09Z</time>
      </trkpt>
      <trkpt lat="46.0557" lon="1.83544">
        <ele>627</ele>
        <time>2016-12-18T23:21:09Z</time>
      </trkpt>
      <trkpt lat="46.05572" lon="1.83549">
        <ele>627</ele>
        <time>2016-12-18T23:23:09Z</time>
      </trkpt>
      <trkpt lat="46.05574" lon="1.83553">
        <ele>627</ele>
        <time>2016-12-18T23:25:09Z</time>
      </trkpt>
      <trkpt lat="46.05574" lon="1.83556">
        <ele>627</ele>
        <time>2016-12-18T23:27:09Z</time>
      </trkpt>
      <trkpt lat="46.05586" lon="1.8357">
        <ele>627</ele>
        <time>2016-12-18T23:29:09Z</time>
      </trkpt>
      <trkpt lat="46.05592" lon="1.83598">
        <ele>628</ele>
        <time>2016-12-18T23:31:09Z</time>
      </trkpt>
      <trkpt lat="46.05594" lon="1.83627">
        <ele>628</ele>
        <time>2016-12-18T23:33:09Z</time>
      </trkpt>
      <trkpt lat="46.0559" lon="1.83649">
        <ele>628</ele>
        <time>2016-12-18T23:35:09Z</time>
      </trkpt>
      <trkpt lat="46.05588" lon="1.83659">
        <ele>628</ele>
        <time>2016-12-18T23:37:09Z</time>
      </trkpt>
      <trkpt lat="46.05583" lon="1.83704">
        <ele>629</ele>
        <time>2016-12-18T23:39:09Z</time>
      </trkpt>
      <trkpt lat="46.05584" lon="1.8373">
        <ele>630</ele>
        <time>2016-12-18T23:41:09Z</time>
      </trkpt>
      <trkpt lat="46.05589" lon="1.83752">
        <ele>632</ele>
        <time>2016-12-18T23:43:09Z</time>
      </trkpt>
      <trkpt lat="46.05589" lon="1.83775">
        <ele>634</ele>
        <time>2016-12-18T23:45:09Z</time>
      </trkpt>
      <trkpt lat="46.0559" lon="1.83797">
        <ele>635</ele>
        <time>2016-12-18T23:47:09Z</time>
      </trkpt>
      <trkpt lat="46.0559" lon="1.83816">
        <ele>636</ele>
        <time>2016-12-18T23:49:09Z</time>
      </trkpt>
      <trkpt lat="46.05586" lon="1.83836">
        <ele>636</ele>
        <time>2016-12-18T23:51:09Z</time>
      </trkpt>
      <trkpt lat="46.05585" lon="1.83861">
        <ele>636</ele>
        <time>2016-12-18T23:53:09Z</time>
      </trkpt>
      <trkpt lat="46.05587" lon="1.8388">
        <ele>636</ele>
        <time>2016-12-18T23:55:09Z</time>
      </trkpt>
      <trkpt lat="46.05593" lon="1.83891">
        <ele>637</ele>
        <time>2016-12-18T23:57:09Z</time>
      </trkpt>
      <trkpt lat="46.05594" lon="1.83895">
        <ele>637</ele>
        <time>2016-12-18T23:59:09Z</time>
      </trkpt>
      <trkpt lat="46.05595" lon="1.83897">
        <ele>637</ele>
        <time>2016-12-19T00:01:09Z</time>
      </trkpt>
      <trkpt lat="46.05597" lon="1.83902">
        <ele>638</ele>
        <time>2016-12-19T00:03:09Z</time>
      </trkpt>
      <trkpt lat="46.05602" lon="1.83916">
        <ele>639</ele>
        <time>2016-12-19T00:05:09Z</time>
      </trkpt>
      <trkpt lat="46.05609" lon="1.83934">
        <ele>638</ele>
        <time>2016-12-19T00:07:09Z</time>
      </trkpt>
      <trkpt lat="46.05611" lon="1.8394">
        <ele>638</ele>
        <time>2016-12-19T00:09:09Z</time>
      </trkpt>
      <trkpt lat="46.05613" lon="1.83945">
        <ele>638</ele>
        <time>2016-12-19T00:11:09Z</time>
      </trkpt>
      <trkpt lat="46.05614" lon="1.83947">
        <ele>638</ele>
        <time>2016-12-19T00:13:09Z</time>
      </trkpt>
      <trkpt lat="46.05618" lon="1.83956">
        <ele>637</ele>
        <time>2016-12-19T00:15:09Z</time>
      </trkpt>
      <trkpt lat="46.05628" lon="1.83978">
        <ele>637</ele>
        <time>2016-12-19T00:17:09Z</time>
      </trkpt>
      <trkpt lat="46.05637" lon="1.83998">
        <ele>637</ele>
        <time>2016-12-19T00:19:09Z</time>
      </trkpt>
      <trkpt lat="46.05644" lon="1.84012">
        <ele>636</ele>
        <time>2016-12-19T00:21:09Z</time>
      </trkpt>
      <trkpt lat="46.05645" lon="1.84016">
        <ele>636</ele>
        <time>2016-12-19T00:23:09Z</time>
      </trkpt>
      <trkpt lat="46.05644" lon="1.8402">
        <ele>635</ele>
        <time>2016-12-19T00:25:09Z</time>
      </trkpt>
      <trkpt lat="46.05647" lon="1.8403">
        <ele>634</ele>
        <time>2016-12-19T00:27:09Z</time>
      </trkpt>
      <trkpt lat="46.05648" lon="1.84045">
        <ele>632</ele>
        <time>2016-12-19T00:29:09Z</time>
      </trkpt>
      <trkpt lat="46.05647" lon="1.84049">
        <ele>632</ele>
        <time>2016-12-19T00:31:09Z</time>
      </trkpt>
      <trkpt lat="46.05646" lon="1.84054">
        <ele>631</ele>
        <time>2016-12-19T00:33:09Z</time>
      </trkpt>
      <trkpt lat="46.05646" lon="1.84057">
        <ele>631</ele>
        <time>2016-12-19T00:35:09Z</time>
      </trkpt>
      <trkpt lat="46.05647" lon="1.84065">
        <ele>630</ele>
        <time>2016-12-19T00:37:09Z</time>
      </trkpt>
      <trkpt lat="46.05655" lon="1.84083">
        <ele>628</ele>
        <time>2016-12-19T00:39:09Z</time>
      </trkpt>
      <trkpt lat="46.05655" lon="1.84104">
        <ele>627</ele>
        <time>2016-12-19T00:41:09Z</time>
      </trkpt>
      <trkpt lat="46.05655" lon="1.84126">
        <ele>625</ele>
        <time>2016-12-19T00:43:09Z</time>
      </trkpt>
      <trkpt lat="46.05657" lon="1.84146">
        <ele>623</ele>
        <time>2016-12-19T00:45:09Z</time>
      </trkpt>
      <trkpt lat="46.05656" lon="1.84171">
        <ele>622</ele>
        <time>2016-12-19T00:47:09Z</time>
      </trkpt>
      <trkpt lat="46.05649" lon="1.84199">
        <ele>621</ele>
        <time>2016-12-19T00:49:09Z</time>
      </trkpt>
      <trkpt lat="46.05641" lon="1.84229">
        <ele>621</ele>
        <time>2016-12-19T00:51:09Z</time>
      </trkpt>
      <trkpt lat="46.05632" lon="1.84256">
        <ele>621</ele>
        <time>2016-12-19T00:53:09Z</time>
      </trkpt>
      <trkpt lat="46.05624" lon="1.8428">
        <ele>621</ele>
        <time>2016-12-19T00:55:09Z</time>
      </trkpt>
      <trkpt lat="46.05615" lon="1.84305">
        <ele>621</ele>
        <time>2016-12-19T00:57:09Z</time>
      </trkpt>
      <trkpt lat="46.05609" lon="1.84318">
        <ele>620</ele>
        <time>2016-12-19T00:59:09Z</time>
      </trkpt>
      <trkpt lat="46.05604" lon="1.84325">
        <ele>620</ele>
        <time>2016-12-19T01:01:09Z</time>
      </trkpt>
      <trkpt lat="46.056" lon="1.84331">
        <ele>619</ele>
        <time>2016-12-19T01:03:09Z</time>
      </trkpt>
      <trkpt lat="46.05599" lon="1.84345">
        <ele>619</ele>
        <time>2016-12-19T01:05:09Z</time>
      </trkpt>
      <trkpt lat="46.05602" lon="1.84353">
        <ele>619</ele>
        <time>2016-12-19T01:07:09Z</time>
      </trkpt>
      <trkpt lat="46.05614" lon="1.84362">
        <ele>619</ele>
        <time>2016-12-19T01:09:09Z</time>
      </trkpt>
      <trkpt lat="46.05618" lon="1.84364">
        <ele>620</ele>
        <time>2016-12-19T01:11:09Z</time>
      </trkpt>
      <trkpt lat="46.05627" lon="1.8438">
        <ele>620</ele>
        <time>2016-12-19T01:13:09Z</time>
      </trkpt>
      <trkpt lat="46.05634" lon="1.84399">
        <ele>620</ele>
        <time>2016-12-19T01:15:09Z</time>
      </trkpt>
      <trkpt lat="46.05639" lon="1.84416">
        <ele>620</ele>
        <time>2016-12-19T01:17:09Z</time>
      </trkpt>
      <trkpt lat="46.05643" lon="1.84423">
        <ele>621</ele>
        <time>2016-12-19T01:19:09Z</time>
      </trkpt>
      <trkpt lat="46.05646" lon="1.84426">
        <ele>621</ele>
        <time>2016-12-19T01:21:09Z</time>
      </trkpt>
      <trkpt lat="46.05649" lon="1.84438">
        <ele>621</ele>
        <time>2016-12-19T01:23:09Z</time>
      </trkpt>
      <trkpt lat="46.05648" lon="1.84445">
        <ele>620</ele>
        <time>2016-12-19T01:25:09Z</time>
      </trkpt>
      <trkpt lat="46.05648" lon="1.84448">
        <ele>620</ele>
        <time>2016-12-19T01:27:09Z</time>
      </trkpt>
      <trkpt lat="46.05645" lon="1.84464">
        <ele>619</ele>
        <time>2016-12-19T01:29:09Z</time>
      </trkpt>
      <trkpt lat="46.05647" lon="1.84471">
        <ele>619</ele>
        <time>2016-12-19T01:31:09Z</time>
      </trkpt>
      <trkpt lat="46.05647" lon="1.84474">
        <ele>618</ele>
        <time>2016-12-19T01:33:09Z</time>
      </trkpt>
      <trkpt lat="46.05648" lon="1.84477">
        <ele>618</ele>
        <time>2016-12-19T01:35:09Z</time>
      </trkpt>
      <trkpt lat="46.05651" lon="1.84489">
        <ele>618</ele>
        <time>2016-12-19T01:37:09Z</time>
      </trkpt>
      <trkpt lat="46.05652" lon="1.84494">
        <ele>618</ele>
        <time>2016-12-19T01:39:09Z</time>
      </trkpt>
      <trkpt lat="46.05651" lon="1.84499">
        <ele>618</ele>
        <time>2016-12-19T01:41:09Z</time>
      </trkpt>
      <trkpt lat="46.0565" lon="1.84501">
        <ele>617</ele>
        <time>2016-12-19T01:43:09Z</time>
      </trkpt>
      <trkpt lat="46.05649" lon="1.84502">
        <ele>617</ele>
        <time>2016-12-19T01:45:09Z</time>
      </trkpt>
      <trkpt lat="46.05646" lon="1.84503">
        <ele>617</ele>
        <time>2016-12-19T01:47:09Z</time>
      </trkpt>
      <trkpt lat="46.0564" lon="1.84499">
        <ele>616</ele>
        <time>2016-12-19T01:49:09Z</time>
      </trkpt>
      <trkpt lat="46.05631" lon="1.84492">
        <ele>616</ele>
        <time>2016-12-19T01:51:09Z</time>
      </trkpt>
      <trkpt lat="46.05628" lon="1.84491">
        <ele>616</ele>
        <time>2016-12-19T01:53:09Z</time>
      </trkpt>
      <trkpt lat="46.05627" lon="1.8449">
        <ele>616</ele>
        <time>2016-12-19T01:55:09Z</time>
      </trkpt>
      <trkpt lat="46.05622" lon="1.84488">
        <ele>615</ele>
        <time>2016-12-19T01:57:09Z</time>
      </trkpt>
      <trkpt lat="46.05615" lon="1.84489">
        <ele>614</ele>
        <time>2016-12-19T01:59:09Z</time>
      </trkpt>
      <trkpt lat="46.05612" lon="1.84491">
        <ele>614</ele>
        <time>2016-12-19T02:01:09Z</time>
      </trkpt>
      <trkpt lat="46.05607" lon="1.84495">
        <ele>613</ele>
        <time>2016-12-19T02:03:09Z</time>
      </trkpt>
      <trkpt lat="46.05599" lon="1.84507">
        <ele>612</ele>
        <time>2016-12-19T02:05:09Z</time>
      </trkpt>
      <trkpt lat="46.05594" lon="1.84524">
        <ele>611</ele>
        <time>2016-12-19T02:07:09Z</time>
      </trkpt>
      <trkpt lat="46.05588" lon="1.84537">
        <ele>611</ele>
        <time>2016-12-19T02:09:09Z</time>
      </trkpt>
      <trkpt lat="46.0558" lon="1.84549">
        <ele>609</ele>
        <time>2016-12-19T02:11:09Z</time>
      </trkpt>
      <trkpt lat="46.05569" lon="1.84564">
        <ele>608</ele>
        <time>2016-12-19T02:13:09Z</time>
      </trkpt>
      <trkpt lat="46.05568" lon="1.84565">
        <ele>608</ele>
        <time>2016-12-19T02:15:09Z</time>
      </trkpt>
      <trkpt lat="46.05563" lon="1.84571">
        <ele>607</ele>
        <time>2016-12-19T02:17:09Z</time>
      </trkpt>
      <trkpt lat="46.05556" lon="1.84583">
        <ele>606</ele>
        <time>2016-12-19T02:19:09Z</time>
      </trkpt>
      <trkpt lat="46.05548" lon="1.84594">
        <ele>605</ele>
        <time>2016-12-19T02:21:09Z</time>
      </trkpt>
      <trkpt lat="46.05538" lon="1.84609">
        <ele>604</ele>
        <time>2016-12-19T02:23:09Z</time>
      </trkpt>
      <trkpt lat="46.05529" lon="1.84627">
        <ele>603</ele>
        <time>2016-12-19T02:25:09Z</time>
      </trkpt>
      <trkpt lat="46.05527" lon="1.8463">
        <ele>603</ele>
        <time>2016-12-19T02:27:09Z</time>
      </trkpt>
      <trkpt lat="46.05524" lon="1.84634">
        <ele>603</ele>
        <time>2016-12-19T02:29:09Z</time>
      </trkpt>
      <trkpt lat="46.0551" lon="1.84656">
        <ele>602</ele>
        <time>2016-12-19T02:31:09Z</time>
      </trkpt>
      <trkpt lat="46.05503" lon="1.84668">
        <ele>601</ele>
        <time>2016-12-19T02:33:09Z</time>
      </trkpt>
      <trkpt lat="46.05495" lon="1.84687">
        <ele>601</ele>
        <time>2016-12-19T02:35:09Z</time>
      </trkpt>
      <trkpt lat="46.05494" lon="1.84705">
        <ele>600</ele>
        <time>2016-12-19T02:37:09Z</time>
      </trkpt>
      <trkpt lat="46.05494" lon="1.84725">
        <ele>600</ele>
        <time>2016-12-19T02:39:09Z</time>
      </trkpt>
      <trkpt lat="46.05494" lon="1.84727">
        <ele>600</ele>
        <time>2016-12-19T02:41:09Z</time>
      </trkpt>
      <trkpt lat="46.05494" lon="1.84734">
        <ele>600</ele>
        <time>2016-12-19T02:43:09Z</time>
      </trkpt>
      <trkpt lat="46.05492" lon="1.84749">
        <ele>599</ele>
        <time>2016-12-19T02:45:09Z</time>
      </trkpt>
      <trkpt lat="46.05492" lon="1.84752">
        <ele>599</ele>
        <time>2016-12-19T02:47:09Z</time>
      </trkpt>
      <trkpt lat="46.05491" lon="1.84757">
        <ele>599</ele>
        <time>2016-12-19T02:49:09Z</time>
      </trkpt>
      <trkpt lat="46.05488" lon="1.84767">
        <ele>599</ele>
        <time>2016-12-19T02:51:09Z</time>
      </trkpt>
      <trkpt lat="46.05482" lon="1.84788">
        <ele>599</ele>
        <time>2016-12-19T02:53:09Z</time>
      </trkpt>
      <trkpt lat="46.0548" lon="1.84794">
        <ele>599</ele>
        <time>2016-12-19T02:55:09Z</time>
      </trkpt>
      <trkpt lat="46.05477" lon="1.84802">
        <ele>599</ele>
        <time>2016-12-19T02:57:09Z</time>
      </trkpt>
      <trkpt lat="46.05466" lon="1.84823">
        <ele>597</ele>
        <time>2016-12-19T02:59:09Z</time>
      </trkpt>
      <trkpt lat="46.05464" lon="1.84827">
        <ele>597</ele>
        <time>2016-12-19T03:01:09Z</time>
      </trkpt>
      <trkpt lat="46.05463" lon="1.84828">
        <ele>597</ele>
        <time>2016-12-19T03:03:09Z</time>
      </trkpt>
      <trkpt lat="46.05462" lon="1.8483">
        <ele>597</ele>
        <time>2016-12-19T03:05:09Z</time>
      </trkpt>
      <trkpt lat="46.05463" lon="1.84832">
        <ele>597</ele>
        <time>2016-12-19T03:07:09Z</time>
      </trkpt>
      <trkpt lat="46.05462" lon="1.84836">
        <ele>597</ele>
        <time>2016-12-19T03:09:09Z</time>
      </trkpt>
      <trkpt lat="46.05457" lon="1.84856">
        <ele>596</ele>
        <time>2016-12-19T03:11:09Z</time>
      </trkpt>
      <trkpt lat="46.05452" lon="1.84874">
        <ele>596</ele>
        <time>2016-12-19T03:13:09Z</time>
      </trkpt>
      <trkpt lat="46.05451" lon="1.84876">
        <ele>596</ele>
        <time>2016-12-19T03:15:09Z</time>
      </trkpt>
      <trkpt lat="46.0545" lon="1.84882">
        <ele>596</ele>
        <time>2016-12-19T03:17:09Z</time>
      </trkpt>
      <trkpt lat="46.05445" lon="1.84894">
        <ele>596</ele>
        <time>2016-12-19T03:19:09Z</time>
      </trkpt>
      <trkpt lat="46.05443" lon="1.84898">
        <ele>596</ele>
        <time>2016-12-19T03:21:09Z</time>
      </trkpt>
      <trkpt lat="46.0544" lon="1.84904">
        <ele>595</ele>
        <time>2016-12-19T03:23:09Z</time>
      </trkpt>
      <trkpt lat="46.05435" lon="1.84911">
        <ele>595</ele>
        <time>2016-12-19T03:25:09Z</time>
      </trkpt>
      <trkpt lat="46.05428" lon="1.84924">
        <ele>594</ele>
        <time>2016-12-19T03:27:09Z</time>
      </trkpt>
      <trkpt lat="46.05428" lon="1.84927">
        <ele>594</ele>
        <time>2016-12-19T03:29:09Z</time>
      </trkpt>
      <trkpt lat="46.05426" lon="1.84931">
        <ele>593</ele>
        <time>2016-12-19T03:31:09Z</time>
      </trkpt>
      <trkpt lat="46.0542" lon="1.8494">
        <ele>592</ele>
        <time>2016-12-19T03:33:09Z</time>
      </trkpt>
      <trkpt lat="46.05415" lon="1.84946">
        <ele>591</ele>
        <time>2016-12-19T03:35:09Z</time>
      </trkpt>
      <trkpt lat="46.0541" lon="1.8495">
        <ele>590</ele>
        <time>2016-12-19T03:37:09Z</time>
      </trkpt>
      <trkpt lat="46.05392" lon="1.84965">
        <ele>587</ele>
        <time>2016-12-19T03:39:09Z</time>
      </trkpt>
      <trkpt lat="46.05387" lon="1.84972">
        <ele>586</ele>
        <time>2016-12-19T03:41:09Z</time>
      </trkpt>
      <trkpt lat="46.05372" lon="1.85104">
        <ele>578</ele>
        <time>2016-12-19T03:43:09Z</time>
      </trkpt>
      <trkpt lat="46.05368" lon="1.85114">
        <ele>576</ele>
        <time>2016-12-19T03:45:09Z</time>
      </trkpt>
      <trkpt lat="46.05365" lon="1.85123">
        <ele>575</ele>
        <time>2016-12-19T03:47:09Z</time>
      </trkpt>
      <trkpt lat="46.05365" lon="1.85129">
        <ele>574</ele>
        <time>2016-12-19T03:49:09Z</time>
      </trkpt>
      <trkpt lat="46.05365" lon="1.85131">
        <ele>574</ele>
        <time>2016-12-19T03:51:09Z</time>
      </trkpt>
      <trkpt lat="46.05364" lon="1.85137">
        <ele>573</ele>
        <time>2016-12-19T03:53:09Z</time>
      </trkpt>
      <trkpt lat="46.05365" lon="1.85146">
        <ele>572</ele>
        <time>2016-12-19T03:55:09Z</time>
      </trkpt>
      <trkpt lat="46.05363" lon="1.85157">
        <ele>571</ele>
        <time>2016-12-19T03:57:09Z</time>
      </trkpt>
      <trkpt lat="46.05362" lon="1.85165">
        <ele>570</ele>
        <time>2016-12-19T03:59:09Z</time>
      </trkpt>
      <trkpt lat="46.05363" lon="1.85168">
        <ele>570</ele>
        <time>2016-12-19T04:01:09Z</time>
      </trkpt>
      <trkpt lat="46.05363" lon="1.85171">
        <ele>570</ele>
        <time>2016-12-19T04:03:09Z</time>
      </trkpt>
      <trkpt lat="46.05362" lon="1.85177">
        <ele>569</ele>
        <time>2016-12-19T04:05:09Z</time>
      </trkpt>
      <trkpt lat="46.05362" lon="1.8518">
        <ele>569</ele>
        <time>2016-12-19T04:07:09Z</time>
      </trkpt>
      <trkpt lat="46.0536" lon="1.85192">
        <ele>568</ele>
        <time>2016-12-19T04:09:09Z</time>
      </trkpt>
      <trkpt lat="46.05358" lon="1.85196">
        <ele>567</ele>
        <time>2016-12-19T04:11:09Z</time>
      </trkpt>
      <trkpt lat="46.05357" lon="1.85203">
        <ele>566</ele>
        <time>2016-12-19T04:13:09Z</time>
      </trkpt>
      <trkpt lat="46.05354" lon="1.85211">
        <ele>565</ele>
        <time>2016-12-19T04:15:09Z</time>
      </trkpt>
      <trkpt lat="46.05351" lon="1.85218">
        <ele>564</ele>
        <time>2016-12-19T04:17:09Z</time>
      </trkpt>
      <trkpt lat="46.05342" lon="1.85235">
        <ele>561</ele>
        <time>2016-12-19T04:19:09Z</time>
      </trkpt>
      <trkpt lat="46.05341" lon="1.85238">
        <ele>560</ele>
        <time>2016-12-19T04:21:09Z</time>
      </trkpt>
      <trkpt lat="46.05341" lon="1.85247">
        <ele>559</ele>
        <time>2016-12-19T04:23:09Z</time>
      </trkpt>
      <trkpt lat="46.05336" lon="1.85293">
        <ele>558</ele>
        <time>2016-12-19T04:25:09Z</time>
      </trkpt>
      <trkpt lat="46.05335" lon="1.85294">
        <ele>558</ele>
        <time>2016-12-19T04:27:09Z</time>
      </trkpt>
      <trkpt lat="46.05335" lon="1.85294">
        <ele>558</ele>
        <time>2016-12-19T04:29:09Z</time>
      </trkpt>
      <trkpt lat="46.05335" lon="1.85295">
        <ele>558</ele>
        <time>2016-12-19T04:31:09Z</time>
      </trkpt>
      <trkpt lat="46.05333" lon="1.85297">
        <ele>558</ele>
        <time>2016-12-19T04:33:09Z</time>
      </trkpt>
      <trkpt lat="46.05329" lon="1.85308">
        <ele>557</ele>
        <time>2016-12-19T04:35:09Z</time>
      </trkpt>
      <trkpt lat="46.05328" lon="1.85314">
        <ele>557</ele>
        <time>2016-12-19T04:37:09Z</time>
      </trkpt>
      <trkpt lat="46.05327" lon="1.85316">
        <ele>557</ele>
        <time>2016-12-19T04:39:09Z</time>
      </trkpt>
      <trkpt lat="46.05326" lon="1.85318">
        <ele>557</ele>
        <time>2016-12-19T04:41:09Z</time>
      </trkpt>
      <trkpt lat="46.05316" lon="1.85328">
        <ele>555</ele>
        <time>2016-12-19T04:43:09Z</time>
      </trkpt>
      <trkpt lat="46.05314" lon="1.85333">
        <ele>555</ele>
        <time>2016-12-19T04:45:09Z</time>
      </trkpt>
      <trkpt lat="46.05311" lon="1.85337">
        <ele>554</ele>
        <time>2016-12-19T04:47:09Z</time>
      </trkpt>
      <trkpt lat="46.0531" lon="1.85339">
        <ele>553</ele>
        <time>2016-12-19T04:49:09Z</time>
      </trkpt>
      <trkpt lat="46.05306" lon="1.85346">
        <ele>552</ele>
        <time>2016-12-19T04:51:09Z</time>
      </trkpt>
      <trkpt lat="46.05306" lon="1.85349">
        <ele>552</ele>
        <time>2016-12-19T04:53:09Z</time>
      </trkpt>
      <trkpt lat="46.05301" lon="1.85356">
        <ele>550</ele>
        <time>2016-12-19T04:55:09Z</time>
      </trkpt>
      <trkpt lat="46.05301" lon="1.85358">
        <ele>550</ele>
        <time>2016-12-19T04:57:09Z</time>
      </trkpt>
      <trkpt lat="46.05298" lon="1.85379">
        <ele>548</ele>
        <time>2016-12-19T04:59:09Z</time>
      </trkpt>
      <trkpt lat="46.05298" lon="1.85382">
        <ele>548</ele>
        <time>2016-12-19T05:01:09Z</time>
      </trkpt>
      <trkpt lat="46.05297" lon="1.85387">
        <ele>548</ele>
        <time>2016-12-19T05:03:09Z</time>
      </trkpt>
      <trkpt lat="46.05295" lon="1.85402">
        <ele>546</ele>
        <time>2016-12-19T05:05:09Z</time>
      </trkpt>
      <trkpt lat="46.05294" lon="1.85407">
        <ele>546</ele>
        <time>2016-12-19T05:07:09Z</time>
      </trkpt>
      <trkpt lat="46.0529" lon="1.85419">
        <ele>545</ele>
        <time>2016-12-19T05:09:09Z</time>
      </trkpt>
      <trkpt lat="46.05288" lon="1.85425">
        <ele>544</ele>
        <time>2016-12-19T05:11:09Z</time>
      </trkpt>
      <trkpt lat="46.05286" lon="1.85427">
        <ele>543</ele>
        <time>2016-12-19T05:13:09Z</time>
      </trkpt>
      <trkpt lat="46.05245" lon="1.85434">
        <ele>540</ele>
        <time>2016-12-19T05:15:09Z</time>
      </trkpt>
      <trkpt lat="46.0523" lon="1.85437">
        <ele>540</ele>
        <time>2016-12-19T05:17:09Z</time>
      </trkpt>
      <trkpt lat="46.05227" lon="1.85437">
        <ele>540</ele>
        <time>2016-12-19T05:19:09Z</time>
      </trkpt>
      <trkpt lat="46.05219" lon="1.85439">
        <ele>540</ele>
        <time>2016-12-19T05:21:09Z</time>
      </trkpt>
      <trkpt lat="46.05218" lon="1.85449">
        <ele>540</ele>
        <time>2016-12-19T05:23:09Z</time>
      </trkpt>
      <trkpt lat="46.05219" lon="1.8545">
        <ele>540</ele>
        <time>2016-12-19T05:25:09Z</time>
      </trkpt>
      <trkpt lat="46.05206" lon="1.85459">
        <ele>540</ele>
        <time>2016-12-19T05:27:09Z</time>
      </trkpt>
      <trkpt lat="46.05191" lon="1.85472">
        <ele>540</ele>
        <time>2016-12-19T05:29:09Z</time>
      </trkpt>
      <trkpt lat="46.05182" lon="1.85484">
        <ele>540</ele>
        <time>2016-12-19T05:31:09Z</time>
      </trkpt>
      <trkpt lat="46.05178" lon="1.8549">
        <ele>540</ele>
        <time>2016-12-19T05:33:09Z</time>
      </trkpt>
      <trkpt lat="46.05176" lon="1.85493">
        <ele>540</ele>
        <time>2016-12-19T05:35:09Z</time>
      </trkpt>
      <trkpt lat="46.05171" lon="1.85505">
        <ele>540</ele>
        <time>2016-12-19T05:37:09Z</time>
      </trkpt>
      <trkpt lat="46.05149" lon="1.85549">
        <ele>540</ele>
        <time>2016-12-19T05:39:09Z</time>
      </trkpt>
      <trkpt lat="46.0514" lon="1.85568">
        <ele>540</ele>
        <time>2016-12-19T05:41:09Z</time>
      </trkpt>
      <trkpt lat="46.05134" lon="1.85582">
        <ele>540</ele>
        <time>2016-12-19T05:43:09Z</time>
      </trkpt>
      <trkpt lat="46.05132" lon="1.85585">
        <ele>540</ele>
        <time>2016-12-19T05:45:09Z</time>
      </trkpt>
      <trkpt lat="46.05119" lon="1.85603">
        <ele>540</ele>
        <time>2016-12-19T05:47:09Z</time>
      </trkpt>
      <trkpt lat="46.051" lon="1.85617">
        <ele>540</ele>
        <time>2016-12-19T05:49:09Z</time>
      </trkpt>
      <trkpt lat="46.05091" lon="1.85621">
        <ele>540</ele>
        <time>2016-12-19T05:51:09Z</time>
      </trkpt>
      <trkpt lat="46.05073" lon="1.8562">
        <ele>541</ele>
        <time>2016-12-19T05:53:09Z</time>
      </trkpt>
      <trkpt lat="46.05052" lon="1.85617">
        <ele>541</ele>
        <time>2016-12-19T05:55:09Z</time>
      </trkpt>
      <trkpt lat="46.05038" lon="1.85621">
        <ele>542</ele>
        <time>2016-12-19T05:57:09Z</time>
      </trkpt>
      <trkpt lat="46.05024" lon="1.85638">
        <ele>541</ele>
        <time>2016-12-19T05:59:09Z</time>
      </trkpt>
      <trkpt lat="46.05012" lon="1.85647">
        <ele>541</ele>
        <time>2016-12-19T06:01:09Z</time>
      </trkpt>
      <trkpt lat="46.0501" lon="1.85648">
        <ele>541</ele>
        <time>2016-12-19T06:03:09Z</time>
      </trkpt>
      <trkpt lat="46.05001" lon="1.85652">
        <ele>541</ele>
        <time>2016-12-19T06:05:09Z</time>
      </trkpt>
      <trkpt lat="46.04987" lon="1.85654">
        <ele>540</ele>
        <time>2016-12-19T06:07:09Z</time>
      </trkpt>
      <trkpt lat="46.04974" lon="1.85653">
        <ele>539</ele>
        <time>2016-12-19T06:09:09Z</time>
      </trkpt>
      <trkpt lat="46.0497" lon="1.85654">
        <ele>539</ele>
        <time>2016-12-19T06:11:09Z</time>
      </trkpt>
      <trkpt lat="46.04963" lon="1.85655">
        <ele>538</ele>
        <time>2016-12-19T06:13:09Z</time>
      </trkpt>
      <trkpt lat="46.04947" lon="1.85661">
        <ele>537</ele>
        <time>2016-12-19T06:15:09Z</time>
      </trkpt>
      <trkpt lat="46.04938" lon="1.8567">
        <ele>535</ele>
        <time>2016-12-19T06:17:09Z</time>
      </trkpt>
      <trkpt lat="46.04927" lon="1.85687">
        <ele>534</ele>
        <time>2016-12-19T06:19:09Z</time>
      </trkpt>
      <trkpt lat="46.04923" lon="1.85696">
        <ele>533</ele>
        <time>2016-12-19T06:21:09Z</time>
      </trkpt>
      <trkpt lat="46.0492" lon="1.85702">
        <ele>533</ele>
        <time>2016-12-19T06:23:09Z</time>
      </trkpt>
      <trkpt lat="46.04914" lon="1.85708">
        <ele>532</ele>
        <time>2016-12-19T06:25:09Z</time>
      </trkpt>
      <trkpt lat="46.04898" lon="1.85739">
        <ele>530</ele>
        <time>2016-12-19T06:27:09Z</time>
      </trkpt>
      <trkpt lat="46.04887" lon="1.85759">
        <ele>530</ele>
        <time>2016-12-19T06:29:09Z</time>
      </trkpt>
      <trkpt lat="46.04866" lon="1.85797">
        <ele>530</ele>
        <time>2016-12-19T06:31:09Z</time>
      </trkpt>
      <trkpt lat="46.04861" lon="1.85808">
        <ele>530</ele>
        <time>2016-12-19T06:33:09Z</time>
      </trkpt>
      <trkpt lat="46.04852" lon="1.85826">
        <ele>530</ele>
        <time>2016-12-19T06:35:09Z</time>
      </trkpt>
      <trkpt lat="46.04846" lon="1.85835">
        <ele>530</ele>
        <time>2016-12-19T06:37:09Z</time>
      </trkpt>
      <trkpt lat="46.04825" lon="1.85866">
        <ele>531</ele>
        <time>2016-12-19T06:39:09Z</time>
      </trkpt>
      <trkpt lat="46.04797" lon="1.85889">
        <ele>531</ele>
        <time>2016-12-19T06:41:09Z</time>
      </trkpt>
      <trkpt lat="46.04771" lon="1.85906">
        <ele>532</ele>
        <time>2016-12-19T06:43:09Z</time>
      </trkpt>
      <trkpt lat="46.0476" lon="1.85914">
        <ele>532</ele>
        <time>2016-12-19T06:45:09Z</time>
      </trkpt>
      <trkpt lat="46.04744" lon="1.85928">
        <ele>531</ele>
        <time>2016-12-19T06:47:09Z</time>
      </trkpt>
      <trkpt lat="46.04717" lon="1.85964">
        <ele>530</ele>
        <time>2016-12-19T06:49:09Z</time>
      </trkpt>
      <trkpt lat="46.04714" lon="1.85971">
        <ele>529</ele>
        <time>2016-12-19T06:51:09Z</time>
      </trkpt>
      <trkpt lat="46.04704" lon="1.85995">
        <ele>528</ele>
        <time>2016-12-19T06:53:09Z</time>
      </trkpt>
      <trkpt lat="46.04698" lon="1.86008">
        <ele>527</ele>
        <time>2016-12-19T06:55:09Z</time>
      </trkpt>
      <trkpt lat="46.04695" lon="1.86014">
        <ele>527</ele>
        <time>2016-12-19T06:57:09Z</time>
      </trkpt>
      <trkpt lat="46.04691" lon="1.86024">
        <ele>527</ele>
        <time>2016-12-19T06:59:09Z</time>
      </trkpt>
      <trkpt lat="46.04687" lon="1.86036">
        <ele>526</ele>
        <time>2016-12-19T07:01:09Z</time>
      </trkpt>
      <trkpt lat="46.04679" lon="1.86062">
        <ele>526</ele>
        <time>2016-12-19T07:03:09Z</time>
      </trkpt>
      <trkpt lat="46.04678" lon="1.86069">
        <ele>525</ele>
        <time>2016-12-19T07:05:09Z</time>
      </trkpt>
      <trkpt lat="46.04673" lon="1.86085">
        <ele>525</ele>
        <time>2016-12-19T07:07:09Z</time>
      </trkpt>
      <trkpt lat="46.04668" lon="1.861">
        <ele>526</ele>
        <time>2016-12-19T07:09:09Z</time>
      </trkpt>
      <trkpt lat="46.04656" lon="1.86138">
        <ele>528</ele>
        <time>2016-12-19T07:11:09Z</time>
      </trkpt>
      <trkpt lat="46.04644" lon="1.86179">
        <ele>529</ele>
        <time>2016-12-19T07:13:09Z</time>
      </trkpt>
      <trkpt lat="46.04638" lon="1.86192">
        <ele>528</ele>
        <time>2016-12-19T07:15:09Z</time>
      </trkpt>
      <trkpt lat="46.04615" lon="1.86238">
        <ele>525</ele>
        <time>2016-12-19T07:17:09Z</time>
      </trkpt>
      <trkpt lat="46.04604" lon="1.86254">
        <ele>525</ele>
        <time>2016-12-19T07:19:09Z</time>
      </trkpt>
      <trkpt lat="46.04594" lon="1.86271">
        <ele>524</ele>
        <time>2016-12-19T07:21:09Z</time>
      </trkpt>
      <trkpt lat="46.04561" lon="1.8633">
        <ele>524</ele>
        <time>2016-12-19T07:23:09Z</time>
      </trkpt>
      <trkpt lat="46.04557" lon="1.86342">
        <ele>525</ele>
        <time>2016-12-19T07:25:09Z</time>
      </trkpt>
      <trkpt lat="46.04554" lon="1.86354">
        <ele>526</ele>
        <time>2016-12-19T07:27:09Z</time>
      </trkpt>
      <trkpt lat="46.04551" lon="1.86367">
        <ele>527</ele>
        <time>2016-12-19T07:29:09Z</time>
      </trkpt>
      <trkpt lat="46.04538" lon="1.86424">
        <ele>531</ele>
        <time>2016-12-19T07:31:09Z</time>
      </trkpt>
      <trkpt lat="46.04536" lon="1.8643">
        <ele>531</ele>
        <time>2016-12-19T07:33:09Z</time>
      </trkpt>
      <trkpt lat="46.04533" lon="1.86435">
        <ele>531</ele>
        <time>2016-12-19T07:35:09Z</time>
      </trkpt>
      <trkpt lat="46.04529" lon="1.86442">
        <ele>532</ele>
        <time>2016-12-19T07:37:09Z</time>
      </trkpt>
      <trkpt lat="46.04509" lon="1.86477">
        <ele>534</ele>
        <time>2016-12-19T07:39:09Z</time>
      </trkpt>
      <trkpt lat="46.04508" lon="1.86483">
        <ele>534</ele>
        <time>2016-12-19T07:41:09Z</time>
      </trkpt>
      <trkpt lat="46.04508" lon="1.86485">
        <ele>534</ele>
        <time>2016-12-19T07:43:09Z</time>
      </trkpt>
      <trkpt lat="46.04511" lon="1.86489">
        <ele>535</ele>
        <time>2016-12-19T07:45:09Z</time>
      </trkpt>
      <trkpt lat="46.04513" lon="1.86488">
        <ele>535</ele>
        <time>2016-12-19T07:47:09Z</time>
      </trkpt>
      <trkpt lat="46.04514" lon="1.86488">
        <ele>535</ele>
        <time>2016-12-19T07:49:09Z</time>
      </trkpt>
      <trkpt lat="46.04516" lon="1.86487">
        <ele>536</ele>
        <time>2016-12-19T07:51:09Z</time>
      </trkpt>
      <trkpt lat="46.04524" lon="1.86487">
        <ele>536</ele>
        <time>2016-12-19T07:53:09Z</time>
      </trkpt>
      <trkpt lat="46.04528" lon="1.86488">
        <ele>537</ele>
        <time>2016-12-19T07:55:09Z</time>
      </trkpt>
      <trkpt lat="46.04534" lon="1.86491">
        <ele>538</ele>
        <time>2016-12-19T07:57:09Z</time>
      </trkpt>
      <trkpt lat="46.04539" lon="1.86497">
        <ele>539</ele>
        <time>2016-12-19T07:59:09Z</time>
      </trkpt>
      <trkpt lat="46.04546" lon="1.86502">
        <ele>541</ele>
        <time>2016-12-19T08:01:09Z</time>
      </trkpt>
      <trkpt lat="46.04548" lon="1.86503">
        <ele>541</ele>
        <time>2016-12-19T08:03:09Z</time>
      </trkpt>
      <trkpt lat="46.04552" lon="1.86506">
        <ele>542</ele>
        <time>2016-12-19T08:05:09Z</time>
      </trkpt>
      <trkpt lat="46.04556" lon="1.86519">
        <ele>545</ele>
        <time>2016-12-19T08:07:09Z</time>
      </trkpt>
      <trkpt lat="46.04557" lon="1.86521">
        <ele>546</ele>
        <time>2016-12-19T08:09:09Z</time>
      </trkpt>
      <trkpt lat="46.04561" lon="1.86526">
        <ele>547</ele>
        <time>2016-12-19T08:11:09Z</time>
      </trkpt>
      <trkpt lat="46.04569" lon="1.86538">
        <ele>550</ele>
        <time>2016-12-19T08:13:09Z</time>
      </trkpt>
      <trkpt lat="46.04571" lon="1.86539">
        <ele>550</ele>
        <time>2016-12-19T08:15:09Z</time>
      </trkpt>
      <trkpt lat="46.04578" lon="1.86543">
        <ele>552</ele>
        <time>2016-12-19T08:17:09Z</time>
      </trkpt>
      <trkpt lat="46.04593" lon="1.86553">
        <ele>554</ele>
        <time>2016-12-19T08:19:09Z</time>
      </trkpt>
      <trkpt lat="46.04594" lon="1.86553">
        <ele>554</ele>
        <time>2016-12-19T08:21:09Z</time>
      </trkpt>
      <trkpt lat="46.04596" lon="1.86555">
        <ele>555</ele>
        <time>2016-12-19T08:23:09Z</time>
      </trkpt>
      <trkpt lat="46.04604" lon="1.86559">
        <ele>556</ele>
        <time>2016-12-19T08:25:09Z</time>
      </trkpt>
      <trkpt lat="46.04605" lon="1.86561">
        <ele>556</ele>
        <time>2016-12-19T08:27:09Z</time>
      </trkpt>
      <trkpt lat="46.04649" lon="1.86607">
        <ele>564</ele>
        <time>2016-12-19T08:29:09Z</time>
      </trkpt>
      <trkpt lat="46.04649" lon="1.8661">
        <ele>564</ele>
        <time>2016-12-19T08:31:09Z</time>
      </trkpt>
      <trkpt lat="46.04649" lon="1.86612">
        <ele>564</ele>
        <time>2016-12-19T08:33:09Z</time>
      </trkpt>
      <trkpt lat="46.04649" lon="1.8662">
        <ele>565</ele>
        <time>2016-12-19T08:35:09Z</time>
      </trkpt>
      <trkpt lat="46.04647" lon="1.86626">
        <ele>565</ele>
        <time>2016-12-19T08:37:09Z</time>
      </trkpt>
      <trkpt lat="46.04646" lon="1.86628">
        <ele>565</ele>
        <time>2016-12-19T08:39:09Z</time>
      </trkpt>
      <trkpt lat="46.04645" lon="1.86634">
        <ele>565</ele>
        <time>2016-12-19T08:41:09Z</time>
      </trkpt>
      <trkpt lat="46.04645" lon="1.86642">
        <ele>566</ele>
        <time>2016-12-19T08:43:09Z</time>
      </trkpt>
      <trkpt lat="46.04648" lon="1.86655">
        <ele>567</ele>
        <time>2016-12-19T08:45:09Z</time>
      </trkpt>
      <trkpt lat="46.04648" lon="1.86658">
        <ele>567</ele>
        <time>2016-12-19T08:47:09Z</time>
      </trkpt>
      <trkpt lat="46.04646" lon="1.86667">
        <ele>568</ele>
        <time>2016-12-19T08:49:09Z</time>
      </trkpt>
      <trkpt lat="46.04645" lon="1.86671">
        <ele>568</ele>
        <time>2016-12-19T08:51:09Z</time>
      </trkpt>
      <trkpt lat="46.04644" lon="1.86685">
        <ele>568</ele>
        <time>2016-12-19T08:53:09Z</time>
      </trkpt>
      <trkpt lat="46.04645" lon="1.86705">
        <ele>569</ele>
        <time>2016-12-19T08:55:09Z</time>
      </trkpt>
      <trkpt lat="46.04647" lon="1.86722">
        <ele>570</ele>
        <time>2016-12-19T08:57:09Z</time>
      </trkpt>
      <trkpt lat="46.04646" lon="1.8673">
        <ele>570</ele>
        <time>2016-12-19T08:59:09Z</time>
      </trkpt>
      <trkpt lat="46.04643" lon="1.86761">
        <ele>570</ele>
        <time>2016-12-19T09:01:09Z</time>
      </trkpt>
      <trkpt lat="46.04644" lon="1.86769">
        <ele>570</ele>
        <time>2016-12-19T09:03:09Z</time>
      </trkpt>
      <trkpt lat="46.04642" lon="1.86782">
        <ele>570</ele>
        <time>2016-12-19T09:05:09Z</time>
      </trkpt>
      <trkpt lat="46.0464" lon="1.86805">
        <ele>569</ele>
        <time>2016-12-19T09:07:09Z</time>
      </trkpt>
      <trkpt lat="46.04641" lon="1.8681">
        <ele>569</ele>
        <time>2016-12-19T09:09:09Z</time>
      </trkpt>
      <trkpt lat="46.0464" lon="1.86817">
        <ele>569</ele>
        <time>2016-12-19T09:11:09Z</time>
      </trkpt>
      <trkpt lat="46.04639" lon="1.86823">
        <ele>569</ele>
        <time>2016-12-19T09:13:09Z</time>
      </trkpt>
      <trkpt lat="46.04635" lon="1.86835">
        <ele>569</ele>
        <time>2016-12-19T09:15:09Z</time>
      </trkpt>
      <trkpt lat="46.04633" lon="1.86843">
        <ele>568</ele>
        <time>2016-12-19T09:17:09Z</time>
      </trkpt>
      <trkpt lat="46.04631" lon="1.8685">
        <ele>568</ele>
        <time>2016-12-19T09:19:09Z</time>
      </trkpt>
      <trkpt lat="46.04625" lon="1.86864">
        <ele>567</ele>
        <time>2016-12-19T09:21:09Z</time>
      </trkpt>
      <trkpt lat="46.0462" lon="1.8687">
        <ele>567</ele>
        <time>2016-12-19T09:23:09Z</time>
      </trkpt>
      <trkpt lat="46.04616" lon="1.86882">
        <ele>566</ele>
        <time>2016-12-19T09:25:09Z</time>
      </trkpt>
      <trkpt lat="46.04614" lon="1.86913">
        <ele>564</ele>
        <time>2016-12-19T09:27:09Z</time>
      </trkpt>
      <trkpt lat="46.04618" lon="1.86936">
        <ele>562</ele>
        <time>2016-12-19T09:29:09Z</time>
      </trkpt>
      <trkpt lat="46.0462" lon="1.86946">
        <ele>562</ele>
        <time>2016-12-19T09:31:09Z</time>
      </trkpt>
      <trkpt lat="46.04623" lon="1.86969">
        <ele>561</ele>
        <time>2016-12-19T09:33:09Z</time>
      </trkpt>
      <trkpt lat="46.04623" lon="1.86999">
        <ele>560</ele>
        <time>2016-12-19T09:35:09Z</time>
      </trkpt>
      <trkpt lat="46.04621" lon="1.87006">
        <ele>560</ele>
        <time>2016-12-19T09:37:09Z</time>
      </trkpt>
      <trkpt lat="46.04619" lon="1.87026">
        <ele>560</ele>
        <time>2016-12-19T09:39:09Z</time>
      </trkpt>
      <trkpt lat="46.04618" lon="1.87031">
        <ele>560</ele>
        <time>2016-12-19T09:41:09Z</time>
      </trkpt>
      <trkpt lat="46.04614" lon="1.87045">
        <ele>560</ele>
        <time>2016-12-19T09:43:09Z</time>
      </trkpt>
      <trkpt lat="46.04613" lon="1.87052">
        <ele>561</ele>
        <time>2016-12-19T09:45:09Z</time>
      </trkpt>
      <trkpt lat="46.04612" lon="1.87057">
        <ele>561</ele>
        <time>2016-12-19T09:47:09Z</time>
      </trkpt>
      <trkpt lat="46.04612" lon="1.87062">
        <ele>561</ele>
        <time>2016-12-19T09:49:09Z</time>
      </trkpt>
      <trkpt lat="46.04612" lon="1.87067">
        <ele>561</ele>
        <time>2016-12-19T09:51:09Z</time>
      </trkpt>
      <trkpt lat="46.04613" lon="1.87081">
        <ele>561</ele>
        <time>2016-12-19T09:53:09Z</time>
      </trkpt>
      <trkpt lat="46.04616" lon="1.87095">
        <ele>561</ele>
        <time>2016-12-19T09:55:09Z</time>
      </trkpt>
      <trkpt lat="46.04616" lon="1.87116">
        <ele>561</ele>
        <time>2016-12-19T09:57:09Z</time>
      </trkpt>
      <trkpt lat="46.04615" lon="1.87118">
        <ele>561</ele>
        <time>2016-12-19T09:59:09Z</time>
      </trkpt>
      <trkpt lat="46.04616" lon="1.8712">
        <ele>561</ele>
        <time>2016-12-19T10:01:09Z</time>
      </trkpt>
      <trkpt lat="46.04617" lon="1.87123">
        <ele>561</ele>
        <time>2016-12-19T10:03:09Z</time>
      </trkpt>
      <trkpt lat="46.04618" lon="1.87126">
        <ele>561</ele>
        <time>2016-12-19T10:05:09Z</time>
      </trkpt>
      <trkpt lat="46.04627" lon="1.87136">
        <ele>561</ele>
        <time>2016-12-19T10:07:09Z</time>
      </trkpt>
      <trkpt lat="46.04632" lon="1.8715">
        <ele>561</ele>
        <time>2016-12-19T10:09:09Z</time>
      </trkpt>
      <trkpt lat="46.04635" lon="1.87157">
        <ele>561</ele>
        <time>2016-12-19T10:11:09Z</time>
      </trkpt>
      <trkpt lat="46.04636" lon="1.87163">
        <ele>561</ele>
        <time>2016-12-19T10:13:09Z</time>
      </trkpt>
      <trkpt lat="46.04636" lon="1.87169">
        <ele>561</ele>
        <time>2016-12-19T10:15:09Z</time>
      </trkpt>
      <trkpt lat="46.04634" lon="1.87178">
        <ele>561</ele>
        <time>2016-12-19T10:17:09Z</time>
      </trkpt>
      <trkpt lat="46.04632" lon="1.87192">
        <ele>561</ele>
        <time>2016-12-19T10:19:09Z</time>
      </trkpt>
      <trkpt lat="46.04632" lon="1.872">
        <ele>561</ele>
        <time>2016-12-19T10:21:09Z</time>
      </trkpt>
      <trkpt lat="46.04632" lon="1.87209">
        <ele>561</ele>
        <time>2016-12-19T10:23:09Z</time>
      </trkpt>
      <trkpt lat="46.04633" lon="1.87217">
        <ele>561</ele>
        <time>2016-12-19T10:25:09Z</time>
      </trkpt>
      <trkpt lat="46.04627" lon="1.87237">
        <ele>561</ele>
        <time>2016-12-19T10:27:09Z</time>
      </trkpt>
      <trkpt lat="46.04626" lon="1.87241">
        <ele>561</ele>
        <time>2016-12-19T10:29:09Z</time>
      </trkpt>
      <trkpt lat="46.04623" lon="1.87256">
        <ele>562</ele>
        <time>2016-12-19T10:31:09Z</time>
      </trkpt>
      <trkpt lat="46.04625" lon="1.87276">
        <ele>564</ele>
        <time>2016-12-19T10:33:09Z</time>
      </trkpt>
      <trkpt lat="46.04626" lon="1.87279">
        <ele>564</ele>
        <time>2016-12-19T10:35:09Z</time>
      </trkpt>
      <trkpt lat="46.04623" lon="1.87287">
        <ele>565</ele>
        <time>2016-12-19T10:37:09Z</time>
      </trkpt>
      <trkpt lat="46.04613" lon="1.87311">
        <ele>568</ele>
        <time>2016-12-19T10:39:09Z</time>
      </trkpt>
      <trkpt lat="46.0461" lon="1.87322">
        <ele>569</ele>
        <time>2016-12-19T10:41:09Z</time>
      </trkpt>
      <trkpt lat="46.04607" lon="1.8733">
        <ele>570</ele>
        <time>2016-12-19T10:43:09Z</time>
      </trkpt>
      <trkpt lat="46.04606" lon="1.87343">
        <ele>572</ele>
        <time>2016-12-19T10:45:09Z</time>
      </trkpt>
      <trkpt lat="46.04608" lon="1.87359">
        <ele>576</ele>
        <time>2016-12-19T10:47:09Z</time>
      </trkpt>
      <trkpt lat="46.04608" lon="1.87364">
        <ele>577</ele>
        <time>2016-12-19T10:49:09Z</time>
      </trkpt>
      <trkpt lat="46.0461" lon="1.87368">
        <ele>577</ele>
        <time>2016-12-19T10:51:09Z</time>
      </trkpt>
      <trkpt lat="46.04611" lon="1.87374">
        <ele>578</ele>
        <time>2016-12-19T10:53:09Z</time>
      </trkpt>
      <trkpt lat="46.04618" lon="1.8739">
        <ele>581</ele>
        <time>2016-12-19T10:55:09Z</time>
      </trkpt>
      <trkpt lat="46.04617" lon="1.87393">
        <ele>582</ele>
        <time>2016-12-19T10:57:09Z</time>
      </trkpt>
      <trkpt lat="46.04618" lon="1.87409">
        <ele>585</ele>
        <time>2016-12-19T10:59:09Z</time>
      </trkpt>
      <trkpt lat="46.04624" lon="1.87427">
        <ele>587</ele>
        <time>2016-12-19T11:01:09Z</time>
      </trkpt>
      <trkpt lat="46.04631" lon="1.87451">
        <ele>590</ele>
        <time>2016-12-19T11:03:09Z</time>
      </trkpt>
      <trkpt lat="46.04633" lon="1.87472">
        <ele>592</ele>
        <time>2016-12-19T11:05:09Z</time>
      </trkpt>
      <trkpt lat="46.04634" lon="1.87495">
        <ele>595</ele>
        <time>2016-12-19T11:07:09Z</time>
      </trkpt>
      <trkpt lat="46.04634" lon="1.8753">
        <ele>597</ele>
        <time>2016-12-19T11:09:09Z</time>
      </trkpt>
      <trkpt lat="46.04635" lon="1.87542">
        <ele>597</ele>
        <time>2016-12-19T11:11:09Z</time>
      </trkpt>
      <trkpt lat="46.04635" lon="1.87545">
        <ele>597</ele>
        <time>2016-12-19T11:13:09Z</time>
      </trkpt>
      <trkpt lat="46.04637" lon="1.87552">
        <ele>596</ele>
        <time>2016-12-19T11:15:09Z</time>
      </trkpt>
      <trkpt lat="46.04638" lon="1.87553">
        <ele>596</ele>
        <time>2016-12-19T11:17:09Z</time>
      </trkpt>
      <trkpt lat="46.04645" lon="1.87559">
        <ele>594</ele>
        <time>2016-12-19T11:19:09Z</time>
      </trkpt>
      <trkpt lat="46.04654" lon="1.87568">
        <ele>591</ele>
        <time>2016-12-19T11:21:09Z</time>
      </trkpt>
      <trkpt lat="46.04658" lon="1.87571">
        <ele>590</ele>
        <time>2016-12-19T11:23:09Z</time>
      </trkpt>
      <trkpt lat="46.04662" lon="1.87573">
        <ele>589</ele>
        <time>2016-12-19T11:25:09Z</time>
      </trkpt>
      <trkpt lat="46.04672" lon="1.87576">
        <ele>586</ele>
        <time>2016-12-19T11:27:09Z</time>
      </trkpt>
      <trkpt lat="46.04676" lon="1.87579">
        <ele>585</ele>
        <time>2016-12-19T11:29:09Z</time>
      </trkpt>
      <trkpt lat="46.04678" lon="1.87581">
        <ele>584</ele>
        <time>2016-12-19T11:31:09Z</time>
      </trkpt>
      <trkpt lat="46.04679" lon="1.87583">
        <ele>584</ele>
        <time>2016-12-19T11:33:09Z</time>
      </trkpt>
      <trkpt lat="46.04681" lon="1.87587">
        <ele>583</ele>
        <time>2016-12-19T11:35:09Z</time>
      </trkpt>
      <trkpt lat="46.04685" lon="1.87592">
        <ele>582</ele>
        <time>2016-12-19T11:37:09Z</time>
      </trkpt>
      <trkpt lat="46.04688" lon="1.87595">
        <ele>582</ele>
        <time>2016-12-19T11:39:09Z</time>
      </trkpt>
      <trkpt lat="46.04701" lon="1.87598">
        <ele>579</ele>
        <time>2016-12-19T11:41:09Z</time>
      </trkpt>
      <trkpt lat="46.04707" lon="1.87602">
        <ele>578</ele>
        <time>2016-12-19T11:43:09Z</time>
      </trkpt>
      <trkpt lat="46.04731" lon="1.87595">
        <ele>572</ele>
        <time>2016-12-19T11:45:09Z</time>
      </trkpt>
      <trkpt lat="46.04736" lon="1.87592">
        <ele>570</ele>
        <time>2016-12-19T11:47:09Z</time>
      </trkpt>
      <trkpt lat="46.04741" lon="1.8759">
        <ele>569</ele>
        <time>2016-12-19T11:49:09Z</time>
      </trkpt>
      <trkpt lat="46.04744" lon="1.8759">
        <ele>568</ele>
        <time>2016-12-19T11:51:09Z</time>
      </trkpt>
      <trkpt lat="46.04756" lon="1.87583">
        <ele>565</ele>
        <time>2016-12-19T11:53:09Z</time>
      </trkpt>
      <trkpt lat="46.04758" lon="1.8758">
        <ele>565</ele>
        <time>2016-12-19T11:55:09Z</time>
      </trkpt>
      <trkpt lat="46.0476" lon="1.87577">
        <ele>565</ele>
        <time>2016-12-19T11:57:09Z</time>
      </trkpt>
      <trkpt lat="46.04764" lon="1.87574">
        <ele>565</ele>
        <time>2016-12-19T11:59:09Z</time>
      </trkpt>
      <trkpt lat="46.04768" lon="1.87572">
        <ele>564</ele>
        <time>2016-12-19T12:01:09Z</time>
      </trkpt>
      <trkpt lat="46.04771" lon="1.87571">
        <ele>564</ele>
        <time>2016-12-19T12:03:09Z</time>
      </trkpt>
      <trkpt lat="46.04776" lon="1.87574">
        <ele>563</ele>
        <time>2016-12-19T12:05:09Z</time>
      </trkpt>
      <trkpt lat="46.04778" lon="1.87576">
        <ele>563</ele>
        <time>2016-12-19T12:07:09Z</time>
      </trkpt>
      <trkpt lat="46.04781" lon="1.87578">
        <ele>563</ele>
        <time>2016-12-19T12:09:09Z</time>
      </trkpt>
      <trkpt lat="46.04783" lon="1.87581">
        <ele>563</ele>
        <time>2016-12-19T12:11:09Z</time>
      </trkpt>
      <trkpt lat="46.04782" lon="1.87583">
        <ele>563</ele>
        <time>2016-12-19T12:13:09Z</time>
      </trkpt>
      <trkpt lat="46.04781" lon="1.87585">
        <ele>563</ele>
        <time>2016-12-19T12:15:09Z</time>
      </trkpt>
      <trkpt lat="46.04782" lon="1.87596">
        <ele>564</ele>
        <time>2016-12-19T12:17:09Z</time>
      </trkpt>
      <trkpt lat="46.04784" lon="1.87598">
        <ele>564</ele>
        <time>2016-12-19T12:19:09Z</time>
      </trkpt>
      <trkpt lat="46.04786" lon="1.87599">
        <ele>564</ele>
        <time>2016-12-19T12:21:09Z</time>
      </trkpt>
      <trkpt lat="46.04794" lon="1.87599">
        <ele>563</ele>
        <time>2016-12-19T12:23:09Z</time>
      </trkpt>
      <trkpt lat="46.04812" lon="1.876">
        <ele>561</ele>
        <time>2016-12-19T12:25:09Z</time>
      </trkpt>
      <trkpt lat="46.04819" lon="1.87599">
        <ele>561</ele>
        <time>2016-12-19T12:27:09Z</time>
      </trkpt>
      <trkpt lat="46.04823" lon="1.87597">
        <ele>560</ele>
        <time>2016-12-19T12:29:09Z</time>
      </trkpt>
      <trkpt lat="46.04829" lon="1.87596">
        <ele>559</ele>
        <time>2016-12-19T12:31:09Z</time>
      </trkpt>
      <trkpt lat="46.04829" lon="1.87596">
        <ele>559</ele>
        <time>2016-12-19T12:33:09Z</time>
      </trkpt>
      <trkpt lat="46.04885" lon="1.87606">
        <ele>560</ele>
        <time>2016-12-19T12:35:09Z</time>
      </trkpt>
      <trkpt lat="46.0489" lon="1.87605">
        <ele>560</ele>
        <time>2016-12-19T12:37:09Z</time>
      </trkpt>
      <trkpt lat="46.049" lon="1.876">
        <ele>560</ele>
        <time>2016-12-19T12:39:09Z</time>
      </trkpt>
      <trkpt lat="46.04911" lon="1.87597">
        <ele>560</ele>
        <time>2016-12-19T12:41:09Z</time>
      </trkpt>
      <trkpt lat="46.04914" lon="1.87599">
        <ele>560</ele>
        <time>2016-12-19T12:43:09Z</time>
      </trkpt>
      <trkpt lat="46.04917" lon="1.876">
        <ele>560</ele>
        <time>2016-12-19T12:45:09Z</time>
      </trkpt>
      <trkpt lat="46.04918" lon="1.876">
        <ele>560</ele>
        <time>2016-12-19T12:47:09Z</time>
      </trkpt>
      <trkpt lat="46.0492" lon="1.87599">
        <ele>560</ele>
        <time>2016-12-19T12:49:09Z</time>
      </trkpt>
      <trkpt lat="46.04922" lon="1.87599">
        <ele>561</ele>
        <time>2016-12-19T12:51:09Z</time>
      </trkpt>
      <trkpt lat="46.04926" lon="1.87601">
        <ele>561</ele>
        <time>2016-12-19T12:53:09Z</time>
      </trkpt>
      <trkpt lat="46.04928" lon="1.87601">
        <ele>561</ele>
        <time>2016-12-19T12:55:09Z</time>
      </trkpt>
      <trkpt lat="46.0494" lon="1.87606">
        <ele>563</ele>
        <time>2016-12-19T12:57:09Z</time>
      </trkpt>
      <trkpt lat="46.04941" lon="1.87606">
        <ele>563</ele>
        <time>2016-12-19T12:59:09Z</time>
      </trkpt>
      <trkpt lat="46.04945" lon="1.87608">
        <ele>564</ele>
        <time>2016-12-19T13:01:09Z</time>
      </trkpt>
      <trkpt lat="46.04949" lon="1.87611">
        <ele>564</ele>
        <time>2016-12-19T13:03:09Z</time>
      </trkpt>
      <trkpt lat="46.04951" lon="1.87613">
        <ele>565</ele>
        <time>2016-12-19T13:05:09Z</time>
      </trkpt>
      <trkpt lat="46.04951" lon="1.87615">
        <ele>565</ele>
        <time>2016-12-19T13:07:09Z</time>
      </trkpt>
      <trkpt lat="46.04952" lon="1.87616">
        <ele>565</ele>
        <time>2016-12-19T13:09:09Z</time>
      </trkpt>
      <trkpt lat="46.04955" lon="1.87624">
        <ele>565</ele>
        <time>2016-12-19T13:11:09Z</time>
      </trkpt>
      <trkpt lat="46.04957" lon="1.87626">
        <ele>565</ele>
        <time>2016-12-19T13:13:09Z</time>
      </trkpt>
      <trkpt lat="46.04959" lon="1.87629">
        <ele>566</ele>
        <time>2016-12-19T13:15:09Z</time>
      </trkpt>
      <trkpt lat="46.04972" lon="1.87641">
        <ele>567</ele>
        <time>2016-12-19T13:17:09Z</time>
      </trkpt>
      <trkpt lat="46.04974" lon="1.87643">
        <ele>568</ele>
        <time>2016-12-19T13:19:09Z</time>
      </trkpt>
      <trkpt lat="46.04978" lon="1.87647">
        <ele>568</ele>
        <time>2016-12-19T13:21:09Z</time>
      </trkpt>
      <trkpt lat="46.0498" lon="1.87648">
        <ele>568</ele>
        <time>2016-12-19T13:23:09Z</time>
      </trkpt>
      <trkpt lat="46.04986" lon="1.87653">
        <ele>569</ele>
        <time>2016-12-19T13:25:09Z</time>
      </trkpt>
      <trkpt lat="46.05002" lon="1.87665">
        <ele>571</ele>
        <time>2016-12-19T13:27:09Z</time>
      </trkpt>
      <trkpt lat="46.05005" lon="1.87668">
        <ele>572</ele>
        <time>2016-12-19T13:29:09Z</time>
      </trkpt>
      <trkpt lat="46.05006" lon="1.87672">
        <ele>572</ele>
        <time>2016-12-19T13:31:09Z</time>
      </trkpt>
      <trkpt lat="46.05008" lon="1.87677">
        <ele>572</ele>
        <time>2016-12-19T13:33:09Z</time>
      </trkpt>
      <trkpt lat="46.05011" lon="1.87687">
        <ele>573</ele>
        <time>2016-12-19T13:35:09Z</time>
      </trkpt>
      <trkpt lat="46.05011" lon="1.87688">
        <ele>573</ele>
        <time>2016-12-19T13:37:09Z</time>
      </trkpt>
      <trkpt lat="46.05011" lon="1.87689">
        <ele>573</ele>
        <time>2016-12-19T13:39:09Z</time>
      </trkpt>
      <trkpt lat="46.05011" lon="1.8769">
        <ele>573</ele>
        <time>2016-12-19T13:41:09Z</time>
      </trkpt>
      <trkpt lat="46.05014" lon="1.87699">
        <ele>574</ele>
        <time>2016-12-19T13:43:09Z</time>
      </trkpt>
      <trkpt lat="46.05016" lon="1.87715">
        <ele>575</ele>
        <time>2016-12-19T13:45:09Z</time>
      </trkpt>
      <trkpt lat="46.05016" lon="1.8773">
        <ele>576</ele>
        <time>2016-12-19T13:47:09Z</time>
      </trkpt>
      <trkpt lat="46.05018" lon="1.8774">
        <ele>577</ele>
        <time>2016-12-19T13:49:09Z</time>
      </trkpt>
      <trkpt lat="46.05021" lon="1.87749">
        <ele>577</ele>
        <time>2016-12-19T13:51:09Z</time>
      </trkpt>
      <trkpt lat="46.05025" lon="1.87758">
        <ele>578</ele>
        <time>2016-12-19T13:53:09Z</time>
      </trkpt>
      <trkpt lat="46.05028" lon="1.87762">
        <ele>579</ele>
        <time>2016-12-19T13:55:09Z</time>
      </trkpt>
      <trkpt lat="46.05028" lon="1.87769">
        <ele>579</ele>
        <time>2016-12-19T13:57:09Z</time>
      </trkpt>
      <trkpt lat="46.05027" lon="1.87777">
        <ele>579</ele>
        <time>2016-12-19T13:59:09Z</time>
      </trkpt>
      <trkpt lat="46.05027" lon="1.87779">
        <ele>580</ele>
        <time>2016-12-19T14:01:09Z</time>
      </trkpt>
      <trkpt lat="46.05028" lon="1.87791">
        <ele>580</ele>
        <time>2016-12-19T14:03:09Z</time>
      </trkpt>
      <trkpt lat="46.05028" lon="1.87793">
        <ele>580</ele>
        <time>2016-12-19T14:05:09Z</time>
      </trkpt>
      <trkpt lat="46.05028" lon="1.87795">
        <ele>580</ele>
        <time>2016-12-19T14:07:09Z</time>
      </trkpt>
      <trkpt lat="46.05028" lon="1.87806">
        <ele>581</ele>
        <time>2016-12-19T14:09:09Z</time>
      </trkpt>
      <trkpt lat="46.05027" lon="1.87819">
        <ele>581</ele>
        <time>2016-12-19T14:11:09Z</time>
      </trkpt>
      <trkpt lat="46.05023" lon="1.87831">
        <ele>581</ele>
        <time>2016-12-19T14:13:09Z</time>
      </trkpt>
      <trkpt lat="46.05021" lon="1.87833">
        <ele>581</ele>
        <time>2016-12-19T14:15:09Z</time>
      </trkpt>
      <trkpt lat="46.0502" lon="1.87842">
        <ele>580</ele>
        <time>2016-12-19T14:17:09Z</time>
      </trkpt>
      <trkpt lat="46.05019" lon="1.87847">
        <ele>580</ele>
        <time>2016-12-19T14:19:09Z</time>
      </trkpt>
      <trkpt lat="46.0502" lon="1.87865">
        <ele>579</ele>
        <time>2016-12-19T14:21:09Z</time>
      </trkpt>
      <trkpt lat="46.0502" lon="1.87871">
        <ele>579</ele>
        <time>2016-12-19T14:23:09Z</time>
      </trkpt>
      <trkpt lat="46.0502" lon="1.87882">
        <ele>578</ele>
        <time>2016-12-19T14:25:09Z</time>
      </trkpt>
      <trkpt lat="46.0502" lon="1.87891">
        <ele>578</ele>
        <time>2016-12-19T14:27:09Z</time>
      </trkpt>
      <trkpt lat="46.0502" lon="1.87898">
        <ele>577</ele>
        <time>2016-12-19T14:29:09Z</time>
      </trkpt>
      <trkpt lat="46.0502" lon="1.87902">
        <ele>577</ele>
        <time>2016-12-19T14:31:09Z</time>
      </trkpt>
      <trkpt lat="46.0502" lon="1.87905">
        <ele>577</ele>
        <time>2016-12-19T14:33:09Z</time>
      </trkpt>
      <trkpt lat="46.05021" lon="1.87915">
        <ele>576</ele>
        <time>2016-12-19T14:35:09Z</time>
      </trkpt>
      <trkpt lat="46.05023" lon="1.87948">
        <ele>576</ele>
        <time>2016-12-19T14:37:09Z</time>
      </trkpt>
      <trkpt lat="46.05022" lon="1.87959">
        <ele>575</ele>
        <time>2016-12-19T14:39:09Z</time>
      </trkpt>
      <trkpt lat="46.05025" lon="1.87966">
        <ele>575</ele>
        <time>2016-12-19T14:41:09Z</time>
      </trkpt>
      <trkpt lat="46.05026" lon="1.87969">
        <ele>575</ele>
        <time>2016-12-19T14:43:09Z</time>
      </trkpt>
      <trkpt lat="46.05024" lon="1.88005">
        <ele>575</ele>
        <time>2016-12-19T14:45:09Z</time>
      </trkpt>
      <trkpt lat="46.05024" lon="1.88012">
        <ele>576</ele>
        <time>2016-12-19T14:47:09Z</time>
      </trkpt>
      <trkpt lat="46.05021" lon="1.88031">
        <ele>578</ele>
        <time>2016-12-19T14:49:09Z</time>
      </trkpt>
      <trkpt lat="46.0502" lon="1.88035">
        <ele>578</ele>
        <time>2016-12-19T14:51:09Z</time>
      </trkpt>
      <trkpt lat="46.05021" lon="1.8804">
        <ele>579</ele>
        <time>2016-12-19T14:53:09Z</time>
      </trkpt>
      <trkpt lat="46.05019" lon="1.88053">
        <ele>580</ele>
        <time>2016-12-19T14:55:09Z</time>
      </trkpt>
      <trkpt lat="46.05018" lon="1.88058">
        <ele>580</ele>
        <time>2016-12-19T14:57:09Z</time>
      </trkpt>
      <trkpt lat="46.05017" lon="1.88064">
        <ele>581</ele>
        <time>2016-12-19T14:59:09Z</time>
      </trkpt>
      <trkpt lat="46.05016" lon="1.88075">
        <ele>582</ele>
        <time>2016-12-19T15:01:09Z</time>
      </trkpt>
      <trkpt lat="46.05013" lon="1.88079">
        <ele>583</ele>
        <time>2016-12-19T15:03:09Z</time>
      </trkpt>
      <trkpt lat="46.05011" lon="1.88083">
        <ele>583</ele>
        <time>2016-12-19T15:05:09Z</time>
      </trkpt>
      <trkpt lat="46.0501" lon="1.88087">
        <ele>584</ele>
        <time>2016-12-19T15:07:09Z</time>
      </trkpt>
      <trkpt lat="46.0501" lon="1.88092">
        <ele>585</ele>
        <time>2016-12-19T15:09:09Z</time>
      </trkpt>
      <trkpt lat="46.05012" lon="1.88097">
        <ele>586</ele>
        <time>2016-12-19T15:11:09Z</time>
      </trkpt>
      <trkpt lat="46.05012" lon="1.881">
        <ele>586</ele>
        <time>2016-12-19T15:13:09Z</time>
      </trkpt>
      <trkpt lat="46.05013" lon="1.88102">
        <ele>586</ele>
        <time>2016-12-19T15:15:09Z</time>
      </trkpt>
      <trkpt lat="46.05012" lon="1.88105">
        <ele>587</ele>
        <time>2016-12-19T15:17:09Z</time>
      </trkpt>
      <trkpt lat="46.0501" lon="1.8811">
        <ele>588</ele>
        <time>2016-12-19T15:19:09Z</time>
      </trkpt>
      <trkpt lat="46.05009" lon="1.88113">
        <ele>588</ele>
        <time>2016-12-19T15:21:09Z</time>
      </trkpt>
      <trkpt lat="46.05007" lon="1.88118">
        <ele>589</ele>
        <time>2016-12-19T15:23:09Z</time>
      </trkpt>
      <trkpt lat="46.05007" lon="1.88122">
        <ele>590</ele>
        <time>2016-12-19T15:25:09Z</time>
      </trkpt>
      <trkpt lat="46.05007" lon="1.88125">
        <ele>590</ele>
        <time>2016-12-19T15:27:09Z</time>
      </trkpt>
      <trkpt lat="46.05006" lon="1.88127">
        <ele>591</ele>
        <time>2016-12-19T15:29:09Z</time>
      </trkpt>
      <trkpt lat="46.05006" lon="1.88129">
        <ele>591</ele>
        <time>2016-12-19T15:31:09Z</time>
      </trkpt>
      <trkpt lat="46.05005" lon="1.88131">
        <ele>591</ele>
        <time>2016-12-19T15:33:09Z</time>
      </trkpt>
      <trkpt lat="46.05" lon="1.88139">
        <ele>592</ele>
        <time>2016-12-19T15:35:09Z</time>
      </trkpt>
      <trkpt lat="46.04997" lon="1.88145">
        <ele>593</ele>
        <time>2016-12-19T15:37:09Z</time>
      </trkpt>
      <trkpt lat="46.04997" lon="1.88148">
        <ele>593</ele>
        <time>2016-12-19T15:39:09Z</time>
      </trkpt>
      <trkpt lat="46.04997" lon="1.88152">
        <ele>594</ele>
        <time>2016-12-19T15:41:09Z</time>
      </trkpt>
      <trkpt lat="46.04997" lon="1.88159">
        <ele>595</ele>
        <time>2016-12-19T15:43:09Z</time>
      </trkpt>
      <trkpt lat="46.04997" lon="1.88163">
        <ele>596</ele>
        <time>2016-12-19T15:45:09Z</time>
      </trkpt>
      <trkpt lat="46.04997" lon="1.88172">
        <ele>597</ele>
        <time>2016-12-19T15:47:09Z</time>
      </trkpt>
      <trkpt lat="46.04996" lon="1.88183">
        <ele>598</ele>
        <time>2016-12-19T15:49:09Z</time>
      </trkpt>
      <trkpt lat="46.04987" lon="1.88211">
        <ele>598</ele>
        <time>2016-12-19T15:51:09Z</time>
      </trkpt>
      <trkpt lat="46.04981" lon="1.88221">
        <ele>597</ele>
        <time>2016-12-19T15:53:09Z</time>
      </trkpt>
      <trkpt lat="46.04976" lon="1.88243">
        <ele>598</ele>
        <time>2016-12-19T15:55:09Z</time>
      </trkpt>
      <trkpt lat="46.04976" lon="1.88252">
        <ele>599</ele>
        <time>2016-12-19T15:57:09Z</time>
      </trkpt>
      <trkpt lat="46.04974" lon="1.88256">
        <ele>598</ele>
        <time>2016-12-19T15:59:09Z</time>
      </trkpt>
      <trkpt lat="46.04973" lon="1.88261">
        <ele>598</ele>
        <time>2016-12-19T16:01:09Z</time>
      </trkpt>
      <trkpt lat="46.04971" lon="1.88285">
        <ele>597</ele>
        <time>2016-12-19T16:03:09Z</time>
      </trkpt>
      <trkpt lat="46.04966" lon="1.88305">
        <ele>596</ele>
        <time>2016-12-19T16:05:09Z</time>
      </trkpt>
      <trkpt lat="46.04964" lon="1.88308">
        <ele>596</ele>
        <time>2016-12-19T16:07:09Z</time>
      </trkpt>
      <trkpt lat="46.04963" lon="1.88311">
        <ele>595</ele>
        <time>2016-12-19T16:09:09Z</time>
      </trkpt>
      <trkpt lat="46.0496" lon="1.8832">
        <ele>595</ele>
        <time>2016-12-19T16:11:09Z</time>
      </trkpt>
      <trkpt lat="46.04959" lon="1.88325">
        <ele>595</ele>
        <time>2016-12-19T16:13:09Z</time>
      </trkpt>
      <trkpt lat="46.04954" lon="1.88332">
        <ele>594</ele>
        <time>2016-12-19T16:15:09Z</time>
      </trkpt>
      <trkpt lat="46.0495" lon="1.88335">
        <ele>593</ele>
        <time>2016-12-19T16:17:09Z</time>
      </trkpt>
      <trkpt lat="46.04947" lon="1.88342">
        <ele>592</ele>
        <time>2016-12-19T16:19:09Z</time>
      </trkpt>
      <trkpt lat="46.04939" lon="1.88356">
        <ele>590</ele>
        <time>2016-12-19T16:21:09Z</time>
      </trkpt>
      <trkpt lat="46.04923" lon="1.88371">
        <ele>586</ele>
        <time>2016-12-19T16:23:09Z</time>
      </trkpt>
      <trkpt lat="46.04898" lon="1.88391">
        <ele>584</ele>
        <time>2016-12-19T16:25:09Z</time>
      </trkpt>
      <trkpt lat="46.04889" lon="1.88399">
        <ele>584</ele>
        <time>2016-12-19T16:27:09Z</time>
      </trkpt>
      <trkpt lat="46.0488" lon="1.88411">
        <ele>584</ele>
        <time>2016-12-19T16:29:09Z</time>
      </trkpt>
      <trkpt lat="46.04877" lon="1.88415">
        <ele>584</ele>
        <time>2016-12-19T16:31:09Z</time>
      </trkpt>
      <trkpt lat="46.04875" lon="1.88419">
        <ele>584</ele>
        <time>2016-12-19T16:33:09Z</time>
      </trkpt>
      <trkpt lat="46.04868" lon="1.88442">
        <ele>584</ele>
        <time>2016-12-19T16:35:09Z</time>
      </trkpt>
      <trkpt lat="46.04859" lon="1.88467">
        <ele>585</ele>
        <time>2016-12-19T16:37:09Z</time>
      </trkpt>
      <trkpt lat="46.04858" lon="1.88473">
        <ele>585</ele>
        <time>2016-12-19T16:39:09Z</time>
      </trkpt>
      <trkpt lat="46.04855" lon="1.88492">
        <ele>585</ele>
        <time>2016-12-19T16:41:09Z</time>
      </trkpt>
      <trkpt lat="46.04853" lon="1.88501">
        <ele>585</ele>
        <time>2016-12-19T16:43:09Z</time>
      </trkpt>
      <trkpt lat="46.04848" lon="1.88522">
        <ele>585</ele>
        <time>2016-12-19T16:45:09Z</time>
      </trkpt>
      <trkpt lat="46.04838" lon="1.88545">
        <ele>585</ele>
        <time>2016-12-19T16:47:09Z</time>
      </trkpt>
      <trkpt lat="46.04828" lon="1.88556">
        <ele>585</ele>
        <time>2016-12-19T16:49:09Z</time>
      </trkpt>
      <trkpt lat="46.04823" lon="1.8856">
        <ele>584</ele>
        <time>2016-12-19T16:51:09Z</time>
      </trkpt>
      <trkpt lat="46.04816" lon="1.88571">
        <ele>584</ele>
        <time>2016-12-19T16:53:09Z</time>
      </trkpt>
      <trkpt lat="46.0481" lon="1.88582">
        <ele>583</ele>
        <time>2016-12-19T16:55:09Z</time>
      </trkpt>
      <trkpt lat="46.04807" lon="1.88592">
        <ele>583</ele>
        <time>2016-12-19T16:57:09Z</time>
      </trkpt>
      <trkpt lat="46.04807" lon="1.88595">
        <ele>583</ele>
        <time>2016-12-19T16:59:09Z</time>
      </trkpt>
      <trkpt lat="46.04807" lon="1.886">
        <ele>583</ele>
        <time>2016-12-19T17:01:09Z</time>
      </trkpt>
      <trkpt lat="46.04808" lon="1.88606">
        <ele>583</ele>
        <time>2016-12-19T17:03:09Z</time>
      </trkpt>
      <trkpt lat="46.0481" lon="1.8861">
        <ele>583</ele>
        <time>2016-12-19T17:05:09Z</time>
      </trkpt>
      <trkpt lat="46.0481" lon="1.88615">
        <ele>583</ele>
        <time>2016-12-19T17:07:09Z</time>
      </trkpt>
      <trkpt lat="46.04808" lon="1.88622">
        <ele>582</ele>
        <time>2016-12-19T17:09:09Z</time>
      </trkpt>
      <trkpt lat="46.04805" lon="1.8863">
        <ele>582</ele>
        <time>2016-12-19T17:11:09Z</time>
      </trkpt>
      <trkpt lat="46.04802" lon="1.88652">
        <ele>581</ele>
        <time>2016-12-19T17:13:09Z</time>
      </trkpt>
      <trkpt lat="46.04806" lon="1.88674">
        <ele>580</ele>
        <time>2016-12-19T17:15:09Z</time>
      </trkpt>
      <trkpt lat="46.04807" lon="1.8868">
        <ele>580</ele>
        <time>2016-12-19T17:17:09Z</time>
      </trkpt>
      <trkpt lat="46.04808" lon="1.88687">
        <ele>580</ele>
        <time>2016-12-19T17:19:09Z</time>
      </trkpt>
      <trkpt lat="46.0481" lon="1.88703">
        <ele>579</ele>
        <time>2016-12-19T17:21:09Z</time>
      </trkpt>
      <trkpt lat="46.04811" lon="1.88713">
        <ele>578</ele>
        <time>2016-12-19T17:23:09Z</time>
      </trkpt>
      <trkpt lat="46.04814" lon="1.88731">
        <ele>577</ele>
        <time>2016-12-19T17:25:09Z</time>
      </trkpt>
      <trkpt lat="46.04817" lon="1.88747">
        <ele>576</ele>
        <time>2016-12-19T17:27:09Z</time>
      </trkpt>
      <trkpt lat="46.04818" lon="1.88755">
        <ele>575</ele>
        <time>2016-12-19T17:29:09Z</time>
      </trkpt>
      <trkpt lat="46.04821" lon="1.88772">
        <ele>575</ele>
        <time>2016-12-19T17:31:09Z</time>
      </trkpt>
      <trkpt lat="46.04823" lon="1.88782">
        <ele>575</ele>
        <time>2016-12-19T17:33:09Z</time>
      </trkpt>
      <trkpt lat="46.04828" lon="1.88796">
        <ele>575</ele>
        <time>2016-12-19T17:35:09Z</time>
      </trkpt>
      <trkpt lat="46.0483" lon="1.88799">
        <ele>575</ele>
        <time>2016-12-19T17:37:09Z</time>
      </trkpt>
      <trkpt lat="46.04836" lon="1.88812">
        <ele>576</ele>
        <time>2016-12-19T17:39:09Z</time>
      </trkpt>
      <trkpt lat="46.0484" lon="1.88817">
        <ele>576</ele>
        <time>2016-12-19T17:41:09Z</time>
      </trkpt>
      <trkpt lat="46.04845" lon="1.88819">
        <ele>576</ele>
        <time>2016-12-19T17:43:09Z</time>
      </trkpt>
      <trkpt lat="46.04847" lon="1.88824">
        <ele>575</ele>
        <time>2016-12-19T17:45:09Z</time>
      </trkpt>
      <trkpt lat="46.0485" lon="1.88832">
        <ele>575</ele>
        <time>2016-12-19T17:47:09Z</time>
      </trkpt>
      <trkpt lat="46.04852" lon="1.88837">
        <ele>575</ele>
        <time>2016-12-19T17:49:09Z</time>
      </trkpt>
      <trkpt lat="46.04854" lon="1.88842">
        <ele>575</ele>
        <time>2016-12-19T17:51:09Z</time>
      </trkpt>
      <trkpt lat="46.04857" lon="1.8885">
        <ele>574</ele>
        <time>2016-12-19T17:53:09Z</time>
      </trkpt>
      <trkpt lat="46.04858" lon="1.88858">
        <ele>574</ele>
        <time>2016-12-19T17:55:09Z</time>
      </trkpt>
      <trkpt lat="46.04858" lon="1.88868">
        <ele>573</ele>
        <time>2016-12-19T17:57:09Z</time>
      </trkpt>
      <trkpt lat="46.04861" lon="1.88887">
        <ele>572</ele>
        <time>2016-12-19T17:59:09Z</time>
      </trkpt>
      <trkpt lat="46.04862" lon="1.88894">
        <ele>571</ele>
        <time>2016-12-19T18:01:09Z</time>
      </trkpt>
      <trkpt lat="46.04862" lon="1.8891">
        <ele>570</ele>
        <time>2016-12-19T18:03:09Z</time>
      </trkpt>
      <trkpt lat="46.04862" lon="1.88918">
        <ele>570</ele>
        <time>2016-12-19T18:05:09Z</time>
      </trkpt>
      <trkpt lat="46.0486" lon="1.88934">
        <ele>568</ele>
        <time>2016-12-19T18:07:09Z</time>
      </trkpt>
      <trkpt lat="46.04859" lon="1.88944">
        <ele>567</ele>
        <time>2016-12-19T18:09:09Z</time>
      </trkpt>
      <trkpt lat="46.04857" lon="1.88952">
        <ele>566</ele>
        <time>2016-12-19T18:11:09Z</time>
      </trkpt>
      <trkpt lat="46.04855" lon="1.88959">
        <ele>565</ele>
        <time>2016-12-19T18:13:09Z</time>
      </trkpt>
      <trkpt lat="46.04851" lon="1.88973">
        <ele>564</ele>
        <time>2016-12-19T18:15:09Z</time>
      </trkpt>
      <trkpt lat="46.04851" lon="1.8898">
        <ele>563</ele>
        <time>2016-12-19T18:17:09Z</time>
      </trkpt>
      <trkpt lat="46.04853" lon="1.88987">
        <ele>562</ele>
        <time>2016-12-19T18:19:09Z</time>
      </trkpt>
      <trkpt lat="46.04852" lon="1.88994">
        <ele>561</ele>
        <time>2016-12-19T18:21:09Z</time>
      </trkpt>
      <trkpt lat="46.04852" lon="1.89003">
        <ele>561</ele>
        <time>2016-12-19T18:23:09Z</time>
      </trkpt>
      <trkpt lat="46.04853" lon="1.89013">
        <ele>560</ele>
        <time>2016-12-19T18:25:09Z</time>
      </trkpt>
      <trkpt lat="46.04859" lon="1.89024">
        <ele>560</ele>
        <time>2016-12-19T18:27:09Z</time>
      </trkpt>
      <trkpt lat="46.04861" lon="1.8903">
        <ele>560</ele>
        <time>2016-12-19T18:29:09Z</time>
      </trkpt>
      <trkpt lat="46.04869" lon="1.89052">
        <ele>560</ele>
        <time>2016-12-19T18:31:09Z</time>
      </trkpt>
      <trkpt lat="46.0487" lon="1.89058">
        <ele>560</ele>
        <time>2016-12-19T18:33:09Z</time>
      </trkpt>
      <trkpt lat="46.04871" lon="1.89069">
        <ele>560</ele>
        <time>2016-12-19T18:35:09Z</time>
      </trkpt>
      <trkpt lat="46.0487" lon="1.89088">
        <ele>560</ele>
        <time>2016-12-19T18:37:09Z</time>
      </trkpt>
      <trkpt lat="46.0487" lon="1.89098">
        <ele>561</ele>
        <time>2016-12-19T18:39:09Z</time>
      </trkpt>
      <trkpt lat="46.04871" lon="1.89101">
        <ele>562</ele>
        <time>2016-12-19T18:41:09Z</time>
      </trkpt>
      <trkpt lat="46.04873" lon="1.89103">
        <ele>562</ele>
        <time>2016-12-19T18:43:09Z</time>
      </trkpt>
      <trkpt lat="46.04874" lon="1.89107">
        <ele>562</ele>
        <time>2016-12-19T18:45:09Z</time>
      </trkpt>
      <trkpt lat="46.04876" lon="1.89114">
        <ele>563</ele>
        <time>2016-12-19T18:47:09Z</time>
      </trkpt>
      <trkpt lat="46.04879" lon="1.89117">
        <ele>564</ele>
        <time>2016-12-19T18:49:09Z</time>
      </trkpt>
      <trkpt lat="46.04881" lon="1.89117">
        <ele>564</ele>
        <time>2016-12-19T18:51:09Z</time>
      </trkpt>
      <trkpt lat="46.04881" lon="1.89118">
        <ele>564</ele>
        <time>2016-12-19T18:53:09Z</time>
      </trkpt>
      <trkpt lat="46.04888" lon="1.8912">
        <ele>564</ele>
        <time>2016-12-19T18:55:09Z</time>
      </trkpt>
      <trkpt lat="46.04893" lon="1.89128">
        <ele>565</ele>
        <time>2016-12-19T18:57:09Z</time>
      </trkpt>
      <trkpt lat="46.04894" lon="1.89132">
        <ele>565</ele>
        <time>2016-12-19T18:59:09Z</time>
      </trkpt>
      <trkpt lat="46.04895" lon="1.89136">
        <ele>566</ele>
        <time>2016-12-19T19:01:09Z</time>
      </trkpt>
      <trkpt lat="46.04894" lon="1.89138">
        <ele>566</ele>
        <time>2016-12-19T19:03:09Z</time>
      </trkpt>
      <trkpt lat="46.04894" lon="1.89143">
        <ele>567</ele>
        <time>2016-12-19T19:05:09Z</time>
      </trkpt>
      <trkpt lat="46.04896" lon="1.89144">
        <ele>567</ele>
        <time>2016-12-19T19:07:09Z</time>
      </trkpt>
      <trkpt lat="46.04896" lon="1.89146">
        <ele>567</ele>
        <time>2016-12-19T19:09:09Z</time>
      </trkpt>
      <trkpt lat="46.04899" lon="1.89147">
        <ele>567</ele>
        <time>2016-12-19T19:11:09Z</time>
      </trkpt>
      <trkpt lat="46.04901" lon="1.89148">
        <ele>567</ele>
        <time>2016-12-19T19:13:09Z</time>
      </trkpt>
      <trkpt lat="46.04908" lon="1.89153">
        <ele>568</ele>
        <time>2016-12-19T19:15:09Z</time>
      </trkpt>
      <trkpt lat="46.04925" lon="1.89157">
        <ele>569</ele>
        <time>2016-12-19T19:17:09Z</time>
      </trkpt>
      <trkpt lat="46.04927" lon="1.89157">
        <ele>569</ele>
        <time>2016-12-19T19:19:09Z</time>
      </trkpt>
      <trkpt lat="46.04938" lon="1.89163">
        <ele>571</ele>
        <time>2016-12-19T19:21:09Z</time>
      </trkpt>
      <trkpt lat="46.04943" lon="1.89165">
        <ele>572</ele>
        <time>2016-12-19T19:23:09Z</time>
      </trkpt>
      <trkpt lat="46.04946" lon="1.89168">
        <ele>573</ele>
        <time>2016-12-19T19:25:09Z</time>
      </trkpt>
      <trkpt lat="46.0495" lon="1.89172">
        <ele>574</ele>
        <time>2016-12-19T19:27:09Z</time>
      </trkpt>
      <trkpt lat="46.0495" lon="1.89172">
        <ele>574</ele>
        <time>2016-12-19T19:29:09Z</time>
      </trkpt>
      <trkpt lat="46.04949" lon="1.89171">
        <ele>574</ele>
        <time>2016-12-19T19:31:09Z</time>
      </trkpt>
      <trkpt lat="46.04951" lon="1.89172">
        <ele>574</ele>
        <time>2016-12-19T19:33:09Z</time>
      </trkpt>
      <trkpt lat="46.0496" lon="1.89172">
        <ele>575</ele>
        <time>2016-12-19T19:35:09Z</time>
      </trkpt>
      <trkpt lat="46.04968" lon="1.89174">
        <ele>577</ele>
        <time>2016-12-19T19:37:09Z</time>
      </trkpt>
      <trkpt lat="46.04971" lon="1.89175">
        <ele>577</ele>
        <time>2016-12-19T19:39:09Z</time>
      </trkpt>
      <trkpt lat="46.04975" lon="1.89177">
        <ele>578</ele>
        <time>2016-12-19T19:41:09Z</time>
      </trkpt>
      <trkpt lat="46.04977" lon="1.89178">
        <ele>578</ele>
        <time>2016-12-19T19:43:09Z</time>
      </trkpt>
      <trkpt lat="46.04983" lon="1.89181">
        <ele>579</ele>
        <time>2016-12-19T19:45:09Z</time>
      </trkpt>
      <trkpt lat="46.0499" lon="1.89185">
        <ele>581</ele>
        <time>2016-12-19T19:47:09Z</time>
      </trkpt>
      <trkpt lat="46.04999" lon="1.89186">
        <ele>582</ele>
        <time>2016-12-19T19:49:09Z</time>
      </trkpt>
      <trkpt lat="46.05007" lon="1.89185">
        <ele>583</ele>
        <time>2016-12-19T19:51:09Z</time>
      </trkpt>
      <trkpt lat="46.05015" lon="1.89184">
        <ele>584</ele>
        <time>2016-12-19T19:53:09Z</time>
      </trkpt>
      <trkpt lat="46.05017" lon="1.89182">
        <ele>584</ele>
        <time>2016-12-19T19:55:09Z</time>
      </trkpt>
      <trkpt lat="46.0502" lon="1.8918">
        <ele>584</ele>
        <time>2016-12-19T19:57:09Z</time>
      </trkpt>
      <trkpt lat="46.05022" lon="1.8918">
        <ele>585</ele>
        <time>2016-12-19T19:59:09Z</time>
      </trkpt>
      <trkpt lat="46.05025" lon="1.8918">
        <ele>585</ele>
        <time>2016-12-19T20:01:09Z</time>
      </trkpt>
      <trkpt lat="46.05032" lon="1.89178">
        <ele>586</ele>
        <time>2016-12-19T20:03:09Z</time>
      </trkpt>
      <trkpt lat="46.0504" lon="1.89172">
        <ele>587</ele>
        <time>2016-12-19T20:05:09Z</time>
      </trkpt>
      <trkpt lat="46.05044" lon="1.89169">
        <ele>587</ele>
        <time>2016-12-19T20:07:09Z</time>
      </trkpt>
      <trkpt lat="46.05053" lon="1.89161">
        <ele>588</ele>
        <time>2016-12-19T20:09:09Z</time>
      </trkpt>
      <trkpt lat="46.05059" lon="1.89157">
        <ele>588</ele>
        <time>2016-12-19T20:11:09Z</time>
      </trkpt>
      <trkpt lat="46.05066" lon="1.89153">
        <ele>589</ele>
        <time>2016-12-19T20:13:09Z</time>
      </trkpt>
      <trkpt lat="46.05078" lon="1.89143">
        <ele>589</ele>
        <time>2016-12-19T20:15:09Z</time>
      </trkpt>
      <trkpt lat="46.0509" lon="1.89132">
        <ele>590</ele>
        <time>2016-12-19T20:17:09Z</time>
      </trkpt>
      <trkpt lat="46.05095" lon="1.89124">
        <ele>589</ele>
        <time>2016-12-19T20:19:09Z</time>
      </trkpt>
      <trkpt lat="46.05096" lon="1.89121">
        <ele>589</ele>
        <time>2016-12-19T20:21:09Z</time>
      </trkpt>
      <trkpt lat="46.05101" lon="1.89114">
        <ele>589</ele>
        <time>2016-12-19T20:23:09Z</time>
      </trkpt>
      <trkpt lat="46.05115" lon="1.89096">
        <ele>588</ele>
        <time>2016-12-19T20:25:09Z</time>
      </trkpt>
      <trkpt lat="46.05123" lon="1.89089">
        <ele>589</ele>
        <time>2016-12-19T20:27:09Z</time>
      </trkpt>
      <trkpt lat="46.05129" lon="1.89082">
        <ele>589</ele>
        <time>2016-12-19T20:29:09Z</time>
      </trkpt>
      <trkpt lat="46.05131" lon="1.8908">
        <ele>589</ele>
        <time>2016-12-19T20:31:09Z</time>
      </trkpt>
      <trkpt lat="46.05136" lon="1.89078">
        <ele>589</ele>
        <time>2016-12-19T20:33:09Z</time>
      </trkpt>
      <trkpt lat="46.05147" lon="1.89069">
        <ele>589</ele>
        <time>2016-12-19T20:35:09Z</time>
      </trkpt>
      <trkpt lat="46.0515" lon="1.89065">
        <ele>589</ele>
        <time>2016-12-19T20:37:09Z</time>
      </trkpt>
      <trkpt lat="46.05153" lon="1.89063">
        <ele>589</ele>
        <time>2016-12-19T20:39:09Z</time>
      </trkpt>
      <trkpt lat="46.05155" lon="1.89062">
        <ele>589</ele>
        <time>2016-12-19T20:41:09Z</time>
      </trkpt>
      <trkpt lat="46.0516" lon="1.89063">
        <ele>589</ele>
        <time>2016-12-19T20:43:09Z</time>
      </trkpt>
      <trkpt lat="46.05164" lon="1.89064">
        <ele>590</ele>
        <time>2016-12-19T20:45:09Z</time>
      </trkpt>
      <trkpt lat="46.05169" lon="1.89067">
        <ele>591</ele>
        <time>2016-12-19T20:47:09Z</time>
      </trkpt>
      <trkpt lat="46.05173" lon="1.8907">
        <ele>592</ele>
        <time>2016-12-19T20:49:09Z</time>
      </trkpt>
      <trkpt lat="46.05175" lon="1.89072">
        <ele>592</ele>
        <time>2016-12-19T20:51:09Z</time>
      </trkpt>
      <trkpt lat="46.05178" lon="1.89074">
        <ele>593</ele>
        <time>2016-12-19T20:53:09Z</time>
      </trkpt>
      <trkpt lat="46.05181" lon="1.89072">
        <ele>593</ele>
        <time>2016-12-19T20:55:09Z</time>
      </trkpt>
      <trkpt lat="46.05184" lon="1.89071">
        <ele>593</ele>
        <time>2016-12-19T20:57:09Z</time>
      </trkpt>
      <trkpt lat="46.05186" lon="1.89069">
        <ele>593</ele>
        <time>2016-12-19T20:59:09Z</time>
      </trkpt>
      <trkpt lat="46.05193" lon="1.89067">
        <ele>593</ele>
        <time>2016-12-19T21:01:09Z</time>
      </trkpt>
      <trkpt lat="46.05201" lon="1.89062">
        <ele>592</ele>
        <time>2016-12-19T21:03:09Z</time>
      </trkpt>
      <trkpt lat="46.05204" lon="1.89062">
        <ele>593</ele>
        <time>2016-12-19T21:05:09Z</time>
      </trkpt>
      <trkpt lat="46.05217" lon="1.89055">
        <ele>592</ele>
        <time>2016-12-19T21:07:09Z</time>
      </trkpt>
      <trkpt lat="46.05224" lon="1.89048">
        <ele>592</ele>
        <time>2016-12-19T21:09:09Z</time>
      </trkpt>
      <trkpt lat="46.05257" lon="1.89026">
        <ele>590</ele>
        <time>2016-12-19T21:11:09Z</time>
      </trkpt>
      <trkpt lat="46.05269" lon="1.89016">
        <ele>587</ele>
        <time>2016-12-19T21:13:09Z</time>
      </trkpt>
      <trkpt lat="46.05282" lon="1.89007">
        <ele>585</ele>
        <time>2016-12-19T21:15:09Z</time>
      </trkpt>
      <trkpt lat="46.05286" lon="1.89005">
        <ele>584</ele>
        <time>2016-12-19T21:17:09Z</time>
      </trkpt>
      <trkpt lat="46.0529" lon="1.89005">
        <ele>584</ele>
        <time>2016-12-19T21:19:09Z</time>
      </trkpt>
      <trkpt lat="46.05292" lon="1.89001">
        <ele>583</ele>
        <time>2016-12-19T21:21:09Z</time>
      </trkpt>
      <trkpt lat="46.05292" lon="1.88997">
        <ele>583</ele>
        <time>2016-12-19T21:23:09Z</time>
      </trkpt>
      <trkpt lat="46.05289" lon="1.8899">
        <ele>582</ele>
        <time>2016-12-19T21:25:09Z</time>
      </trkpt>
      <trkpt lat="46.0529" lon="1.88984">
        <ele>582</ele>
        <time>2016-12-19T21:27:09Z</time>
      </trkpt>
      <trkpt lat="46.05292" lon="1.88981">
        <ele>581</ele>
        <time>2016-12-19T21:29:09Z</time>
      </trkpt>
      <trkpt lat="46.05294" lon="1.88983">
        <ele>581</ele>
        <time>2016-12-19T21:31:09Z</time>
      </trkpt>
      <trkpt lat="46.05298" lon="1.88986">
        <ele>581</ele>
        <time>2016-12-19T21:33:09Z</time>
      </trkpt>
      <trkpt lat="46.05304" lon="1.88988">
        <ele>581</ele>
        <time>2016-12-19T21:35:09Z</time>
      </trkpt>
      <trkpt lat="46.05309" lon="1.88988">
        <ele>581</ele>
        <time>2016-12-19T21:37:09Z</time>
      </trkpt>
      <trkpt lat="46.05313" lon="1.88984">
        <ele>580</ele>
        <time>2016-12-19T21:39:09Z</time>
      </trkpt>
      <trkpt lat="46.05313" lon="1.88979">
        <ele>580</ele>
        <time>2016-12-19T21:41:09Z</time>
      </trkpt>
      <trkpt lat="46.05313" lon="1.88971">
        <ele>579</ele>
        <time>2016-12-19T21:43:09Z</time>
      </trkpt>
      <trkpt lat="46.05315" lon="1.88962">
        <ele>578</ele>
        <time>2016-12-19T21:45:09Z</time>
      </trkpt>
      <trkpt lat="46.05316" lon="1.88951">
        <ele>577</ele>
        <time>2016-12-19T21:47:09Z</time>
      </trkpt>
      <trkpt lat="46.05319" lon="1.88941">
        <ele>576</ele>
        <time>2016-12-19T21:49:09Z</time>
      </trkpt>
      <trkpt lat="46.05324" lon="1.88931">
        <ele>575</ele>
        <time>2016-12-19T21:51:09Z</time>
      </trkpt>
      <trkpt lat="46.05332" lon="1.88915">
        <ele>573</ele>
        <time>2016-12-19T21:53:09Z</time>
      </trkpt>
      <trkpt lat="46.05341" lon="1.889">
        <ele>572</ele>
        <time>2016-12-19T21:55:09Z</time>
      </trkpt>
      <trkpt lat="46.05345" lon="1.88893">
        <ele>572</ele>
        <time>2016-12-19T21:57:09Z</time>
      </trkpt>
      <trkpt lat="46.05349" lon="1.88885">
        <ele>571</ele>
        <time>2016-12-19T21:59:09Z</time>
      </trkpt>
      <trkpt lat="46.05353" lon="1.88876">
        <ele>571</ele>
        <time>2016-12-19T22:01:09Z</time>
      </trkpt>
      <trkpt lat="46.05357" lon="1.88868">
        <ele>571</ele>
        <time>2016-12-19T22:03:09Z</time>
      </trkpt>
      <trkpt lat="46.05361" lon="1.88862">
        <ele>571</ele>
        <time>2016-12-19T22:05:09Z</time>
      </trkpt>
      <trkpt lat="46.05365" lon="1.88858">
        <ele>570</ele>
        <time>2016-12-19T22:07:09Z</time>
      </trkpt>
      <trkpt lat="46.05384" lon="1.88842">
        <ele>569</ele>
        <time>2016-12-19T22:09:09Z</time>
      </trkpt>
      <trkpt lat="46.05389" lon="1.88836">
        <ele>569</ele>
        <time>2016-12-19T22:11:09Z</time>
      </trkpt>
      <trkpt lat="46.05393" lon="1.8883">
        <ele>569</ele>
        <time>2016-12-19T22:13:09Z</time>
      </trkpt>
      <trkpt lat="46.05404" lon="1.88819">
        <ele>570</ele>
        <time>2016-12-19T22:15:09Z</time>
      </trkpt>
      <trkpt lat="46.05417" lon="1.88809">
        <ele>570</ele>
        <time>2016-12-19T22:17:09Z</time>
      </trkpt>
      <trkpt lat="46.0544" lon="1.88795">
        <ele>569</ele>
        <time>2016-12-19T22:19:09Z</time>
      </trkpt>
      <trkpt lat="46.05448" lon="1.88791">
        <ele>569</ele>
        <time>2016-12-19T22:21:09Z</time>
      </trkpt>
      <trkpt lat="46.05455" lon="1.88785">
        <ele>569</ele>
        <time>2016-12-19T22:23:09Z</time>
      </trkpt>
      <trkpt lat="46.05461" lon="1.88779">
        <ele>569</ele>
        <time>2016-12-19T22:25:09Z</time>
      </trkpt>
      <trkpt lat="46.05466" lon="1.88772">
        <ele>570</ele>
        <time>2016-12-19T22:27:09Z</time>
      </trkpt>
      <trkpt lat="46.05478" lon="1.88756">
        <ele>572</ele>
        <time>2016-12-19T22:29:09Z</time>
      </trkpt>
      <trkpt lat="46.05484" lon="1.8875">
        <ele>573</ele>
        <time>2016-12-19T22:31:09Z</time>
      </trkpt>
      <trkpt lat="46.05491" lon="1.88743">
        <ele>573</ele>
        <time>2016-12-19T22:33:09Z</time>
      </trkpt>
      <trkpt lat="46.05496" lon="1.88737">
        <ele>573</ele>
        <time>2016-12-19T22:35:09Z</time>
      </trkpt>
      <trkpt lat="46.05501" lon="1.8873">
        <ele>574</ele>
        <time>2016-12-19T22:37:09Z</time>
      </trkpt>
      <trkpt lat="46.05506" lon="1.88722">
        <ele>573</ele>
        <time>2016-12-19T22:39:09Z</time>
      </trkpt>
      <trkpt lat="46.05512" lon="1.88714">
        <ele>572</ele>
        <time>2016-12-19T22:41:09Z</time>
      </trkpt>
      <trkpt lat="46.05525" lon="1.88698">
        <ele>571</ele>
        <time>2016-12-19T22:43:09Z</time>
      </trkpt>
      <trkpt lat="46.05537" lon="1.8868">
        <ele>570</ele>
        <time>2016-12-19T22:45:09Z</time>
      </trkpt>
      <trkpt lat="46.05543" lon="1.88673">
        <ele>569</ele>
        <time>2016-12-19T22:47:09Z</time>
      </trkpt>
      <trkpt lat="46.05547" lon="1.88668">
        <ele>569</ele>
        <time>2016-12-19T22:49:09Z</time>
      </trkpt>
      <trkpt lat="46.05552" lon="1.88663">
        <ele>568</ele>
        <time>2016-12-19T22:51:09Z</time>
      </trkpt>
      <trkpt lat="46.05558" lon="1.88662">
        <ele>567</ele>
        <time>2016-12-19T22:53:09Z</time>
      </trkpt>
      <trkpt lat="46.05564" lon="1.8866">
        <ele>565</ele>
        <time>2016-12-19T22:55:09Z</time>
      </trkpt>
      <trkpt lat="46.05571" lon="1.88658">
        <ele>564</ele>
        <time>2016-12-19T22:57:09Z</time>
      </trkpt>
      <trkpt lat="46.05578" lon="1.88657">
        <ele>563</ele>
        <time>2016-12-19T22:59:09Z</time>
      </trkpt>
      <trkpt lat="46.05591" lon="1.88652">
        <ele>561</ele>
        <time>2016-12-19T23:01:09Z</time>
      </trkpt>
      <trkpt lat="46.05598" lon="1.88649">
        <ele>560</ele>
        <time>2016-12-19T23:03:09Z</time>
      </trkpt>
      <trkpt lat="46.05603" lon="1.88644">
        <ele>559</ele>
        <time>2016-12-19T23:05:09Z</time>
      </trkpt>
      <trkpt lat="46.05605" lon="1.8864">
        <ele>560</ele>
        <time>2016-12-19T23:07:09Z</time>
      </trkpt>
      <trkpt lat="46.05613" lon="1.88628">
        <ele>560</ele>
        <time>2016-12-19T23:09:09Z</time>
      </trkpt>
      <trkpt lat="46.05616" lon="1.88628">
        <ele>559</ele>
        <time>2016-12-19T23:11:09Z</time>
      </trkpt>
      <trkpt lat="46.05619" lon="1.88627">
        <ele>559</ele>
        <time>2016-12-19T23:13:09Z</time>
      </trkpt>
      <trkpt lat="46.05629" lon="1.88626">
        <ele>557</ele>
        <time>2016-12-19T23:15:09Z</time>
      </trkpt>
      <trkpt lat="46.05642" lon="1.88619">
        <ele>555</ele>
        <time>2016-12-19T23:17:09Z</time>
      </trkpt>
      <trkpt lat="46.05649" lon="1.88617">
        <ele>554</ele>
        <time>2016-12-19T23:19:09Z</time>
      </trkpt>
      <trkpt lat="46.05655" lon="1.88614">
        <ele>554</ele>
        <time>2016-12-19T23:21:09Z</time>
      </trkpt>
      <trkpt lat="46.05662" lon="1.88612">
        <ele>552</ele>
        <time>2016-12-19T23:23:09Z</time>
      </trkpt>
      <trkpt lat="46.05678" lon="1.88602">
        <ele>550</ele>
        <time>2016-12-19T23:25:09Z</time>
      </trkpt>
      <trkpt lat="46.05685" lon="1.88598">
        <ele>549</ele>
        <time>2016-12-19T23:27:09Z</time>
      </trkpt>
      <trkpt lat="46.05691" lon="1.88595">
        <ele>548</ele>
        <time>2016-12-19T23:29:09Z</time>
      </trkpt>
      <trkpt lat="46.05702" lon="1.88592">
        <ele>546</ele>
        <time>2016-12-19T23:31:09Z</time>
      </trkpt>
      <trkpt lat="46.05716" lon="1.88585">
        <ele>543</ele>
        <time>2016-12-19T23:33:09Z</time>
      </trkpt>
      <trkpt lat="46.05724" lon="1.88581">
        <ele>542</ele>
        <time>2016-12-19T23:35:09Z</time>
      </trkpt>
      <trkpt lat="46.05727" lon="1.8858">
        <ele>541</ele>
        <time>2016-12-19T23:37:09Z</time>
      </trkpt>
      <trkpt lat="46.05731" lon="1.88577">
        <ele>540</ele>
        <time>2016-12-19T23:39:09Z</time>
      </trkpt>
      <trkpt lat="46.05742" lon="1.88573">
        <ele>537</ele>
        <time>2016-12-19T23:41:09Z</time>
      </trkpt>
      <trkpt lat="46.05745" lon="1.88574">
        <ele>537</ele>
        <time>2016-12-19T23:43:09Z</time>
      </trkpt>
      <trkpt lat="46.05749" lon="1.88576">
        <ele>536</ele>
        <time>2016-12-19T23:45:09Z</time>
      </trkpt>
      <trkpt lat="46.05752" lon="1.8858">
        <ele>535</ele>
        <time>2016-12-19T23:47:09Z</time>
      </trkpt>
      <trkpt lat="46.05754" lon="1.88583">
        <ele>534</ele>
        <time>2016-12-19T23:49:09Z</time>
      </trkpt>
      <trkpt lat="46.05756" lon="1.88584">
        <ele>534</ele>
        <time>2016-12-19T23:51:09Z</time>
      </trkpt>
      <trkpt lat="46.05759" lon="1.88584">
        <ele>534</ele>
        <time>2016-12-19T23:53:09Z</time>
      </trkpt>
      <trkpt lat="46.05765" lon="1.88585">
        <ele>533</ele>
        <time>2016-12-19T23:55:09Z</time>
      </trkpt>
      <trkpt lat="46.05769" lon="1.88588">
        <ele>532</ele>
        <time>2016-12-19T23:57:09Z</time>
      </trkpt>
      <trkpt lat="46.05781" lon="1.88599">
        <ele>529</ele>
        <time>2016-12-19T23:59:09Z</time>
      </trkpt>
      <trkpt lat="46.05787" lon="1.88606">
        <ele>528</ele>
        <time>2016-12-20T00:01:09Z</time>
      </trkpt>
      <trkpt lat="46.0579" lon="1.8861">
        <ele>528</ele>
        <time>2016-12-20T00:03:09Z</time>
      </trkpt>
      <trkpt lat="46.05792" lon="1.88618">
        <ele>527</ele>
        <time>2016-12-20T00:05:09Z</time>
      </trkpt>
      <trkpt lat="46.05795" lon="1.88623">
        <ele>527</ele>
        <time>2016-12-20T00:07:09Z</time>
      </trkpt>
      <trkpt lat="46.05805" lon="1.88626">
        <ele>526</ele>
        <time>2016-12-20T00:09:09Z</time>
      </trkpt>
      <trkpt lat="46.05811" lon="1.88629">
        <ele>525</ele>
        <time>2016-12-20T00:11:09Z</time>
      </trkpt>
      <trkpt lat="46.05825" lon="1.88636">
        <ele>523</ele>
        <time>2016-12-20T00:13:09Z</time>
      </trkpt>
      <trkpt lat="46.05834" lon="1.88642">
        <ele>523</ele>
        <time>2016-12-20T00:15:09Z</time>
      </trkpt>
      <trkpt lat="46.05839" lon="1.88647">
        <ele>523</ele>
        <time>2016-12-20T00:17:09Z</time>
      </trkpt>
      <trkpt lat="46.05863" lon="1.88667">
        <ele>524</ele>
        <time>2016-12-20T00:19:09Z</time>
      </trkpt>
      <trkpt lat="46.05877" lon="1.88677">
        <ele>525</ele>
        <time>2016-12-20T00:21:09Z</time>
      </trkpt>
      <trkpt lat="46.05883" lon="1.88682">
        <ele>526</ele>
        <time>2016-12-20T00:23:09Z</time>
      </trkpt>
      <trkpt lat="46.05891" lon="1.88691">
        <ele>527</ele>
        <time>2016-12-20T00:25:09Z</time>
      </trkpt>
      <trkpt lat="46.05898" lon="1.88703">
        <ele>528</ele>
        <time>2016-12-20T00:27:09Z</time>
      </trkpt>
      <trkpt lat="46.05902" lon="1.8871">
        <ele>529</ele>
        <time>2016-12-20T00:29:09Z</time>
      </trkpt>
      <trkpt lat="46.05904" lon="1.88712">
        <ele>529</ele>
        <time>2016-12-20T00:31:09Z</time>
      </trkpt>
      <trkpt lat="46.05906" lon="1.88713">
        <ele>529</ele>
        <time>2016-12-20T00:33:09Z</time>
      </trkpt>
      <trkpt lat="46.05912" lon="1.88714">
        <ele>529</ele>
        <time>2016-12-20T00:35:09Z</time>
      </trkpt>
      <trkpt lat="46.05917" lon="1.88716">
        <ele>530</ele>
        <time>2016-12-20T00:37:09Z</time>
      </trkpt>
      <trkpt lat="46.05919" lon="1.88716">
        <ele>530</ele>
        <time>2016-12-20T00:39:09Z</time>
      </trkpt>
      <trkpt lat="46.0592" lon="1.88717">
        <ele>530</ele>
        <time>2016-12-20T00:41:09Z</time>
      </trkpt>
      <trkpt lat="46.05926" lon="1.88719">
        <ele>531</ele>
        <time>2016-12-20T00:43:09Z</time>
      </trkpt>
      <trkpt lat="46.05933" lon="1.88723">
        <ele>532</ele>
        <time>2016-12-20T00:45:09Z</time>
      </trkpt>
      <trkpt lat="46.05941" lon="1.88724">
        <ele>533</ele>
        <time>2016-12-20T00:47:09Z</time>
      </trkpt>
      <trkpt lat="46.05945" lon="1.88726">
        <ele>534</ele>
        <time>2016-12-20T00:49:09Z</time>
      </trkpt>
      <trkpt lat="46.05948" lon="1.8873">
        <ele>534</ele>
        <time>2016-12-20T00:51:09Z</time>
      </trkpt>
      <trkpt lat="46.05949" lon="1.88733">
        <ele>535</ele>
        <time>2016-12-20T00:53:09Z</time>
      </trkpt>
      <trkpt lat="46.0595" lon="1.88734">
        <ele>535</ele>
        <time>2016-12-20T00:55:09Z</time>
      </trkpt>
      <trkpt lat="46.05951" lon="1.88737">
        <ele>535</ele>
        <time>2016-12-20T00:57:09Z</time>
      </trkpt>
      <trkpt lat="46.05961" lon="1.88732">
        <ele>536</ele>
        <time>2016-12-20T00:59:09Z</time>
      </trkpt>
      <trkpt lat="46.05966" lon="1.88731">
        <ele>536</ele>
        <time>2016-12-20T01:01:09Z</time>
      </trkpt>
      <trkpt lat="46.05968" lon="1.88731">
        <ele>537</ele>
        <time>2016-12-20T01:03:09Z</time>
      </trkpt>
      <trkpt lat="46.05973" lon="1.88734">
        <ele>537</ele>
        <time>2016-12-20T01:05:09Z</time>
      </trkpt>
      <trkpt lat="46.0598" lon="1.88733">
        <ele>538</ele>
        <time>2016-12-20T01:07:09Z</time>
      </trkpt>
      <trkpt lat="46.05982" lon="1.88733">
        <ele>538</ele>
        <time>2016-12-20T01:09:09Z</time>
      </trkpt>
      <trkpt lat="46.05982" lon="1.88731">
        <ele>538</ele>
        <time>2016-12-20T01:11:09Z</time>
      </trkpt>
      <trkpt lat="46.05983" lon="1.8873">
        <ele>538</ele>
        <time>2016-12-20T01:13:09Z</time>
      </trkpt>
      <trkpt lat="46.05983" lon="1.8873">
        <ele>538</ele>
        <time>2016-12-20T01:15:09Z</time>
      </trkpt>
      <trkpt lat="46.05985" lon="1.88728">
        <ele>538</ele>
        <time>2016-12-20T01:17:09Z</time>
      </trkpt>
      <trkpt lat="46.05988" lon="1.88717">
        <ele>538</ele>
        <time>2016-12-20T01:19:09Z</time>
      </trkpt>
      <trkpt lat="46.05991" lon="1.8871">
        <ele>537</ele>
        <time>2016-12-20T01:21:09Z</time>
      </trkpt>
      <trkpt lat="46.05994" lon="1.88706">
        <ele>537</ele>
        <time>2016-12-20T01:23:09Z</time>
      </trkpt>
      <trkpt lat="46.05996" lon="1.88705">
        <ele>537</ele>
        <time>2016-12-20T01:25:09Z</time>
      </trkpt>
      <trkpt lat="46.05997" lon="1.88702">
        <ele>537</ele>
        <time>2016-12-20T01:27:09Z</time>
      </trkpt>
      <trkpt lat="46.05999" lon="1.88699">
        <ele>537</ele>
        <time>2016-12-20T01:29:09Z</time>
      </trkpt>
      <trkpt lat="46.06003" lon="1.88683">
        <ele>536</ele>
        <time>2016-12-20T01:31:09Z</time>
      </trkpt>
      <trkpt lat="46.06005" lon="1.88669">
        <ele>535</ele>
        <time>2016-12-20T01:33:09Z</time>
      </trkpt>
      <trkpt lat="46.06008" lon="1.88656">
        <ele>536</ele>
        <time>2016-12-20T01:35:09Z</time>
      </trkpt>
      <trkpt lat="46.06008" lon="1.88649">
        <ele>535</ele>
        <time>2016-12-20T01:37:09Z</time>
      </trkpt>
      <trkpt lat="46.06011" lon="1.88642">
        <ele>536</ele>
        <time>2016-12-20T01:39:09Z</time>
      </trkpt>
      <trkpt lat="46.06013" lon="1.88593">
        <ele>534</ele>
        <time>2016-12-20T01:41:09Z</time>
      </trkpt>
      <trkpt lat="46.0602" lon="1.88569">
        <ele>534</ele>
        <time>2016-12-20T01:43:09Z</time>
      </trkpt>
      <trkpt lat="46.06043" lon="1.88539">
        <ele>537</ele>
        <time>2016-12-20T01:45:09Z</time>
      </trkpt>
      <trkpt lat="46.06059" lon="1.88519">
        <ele>540</ele>
        <time>2016-12-20T01:47:09Z</time>
      </trkpt>
      <trkpt lat="46.06062" lon="1.88513">
        <ele>540</ele>
        <time>2016-12-20T01:49:09Z</time>
      </trkpt>
      <trkpt lat="46.06064" lon="1.88512">
        <ele>540</ele>
        <time>2016-12-20T01:51:09Z</time>
      </trkpt>
      <trkpt lat="46.06067" lon="1.88511">
        <ele>541</ele>
        <time>2016-12-20T01:53:09Z</time>
      </trkpt>
      <trkpt lat="46.0607" lon="1.88509">
        <ele>541</ele>
        <time>2016-12-20T01:55:09Z</time>
      </trkpt>
      <trkpt lat="46.06076" lon="1.88507">
        <ele>542</ele>
        <time>2016-12-20T01:57:09Z</time>
      </trkpt>
      <trkpt lat="46.06078" lon="1.88507">
        <ele>542</ele>
        <time>2016-12-20T01:59:09Z</time>
      </trkpt>
      <trkpt lat="46.06083" lon="1.88505">
        <ele>543</ele>
        <time>2016-12-20T02:01:09Z</time>
      </trkpt>
      <trkpt lat="46.06086" lon="1.88503">
        <ele>543</ele>
        <time>2016-12-20T02:03:09Z</time>
      </trkpt>
      <trkpt lat="46.06094" lon="1.885">
        <ele>545</ele>
        <time>2016-12-20T02:05:09Z</time>
      </trkpt>
      <trkpt lat="46.06101" lon="1.88491">
        <ele>545</ele>
        <time>2016-12-20T02:07:09Z</time>
      </trkpt>
      <trkpt lat="46.06104" lon="1.88487">
        <ele>545</ele>
        <time>2016-12-20T02:09:09Z</time>
      </trkpt>
      <trkpt lat="46.06115" lon="1.88464">
        <ele>545</ele>
        <time>2016-12-20T02:11:09Z</time>
      </trkpt>
      <trkpt lat="46.06121" lon="1.88449">
        <ele>544</ele>
        <time>2016-12-20T02:13:09Z</time>
      </trkpt>
      <trkpt lat="46.06122" lon="1.88443">
        <ele>544</ele>
        <time>2016-12-20T02:15:09Z</time>
      </trkpt>
      <trkpt lat="46.06126" lon="1.88433">
        <ele>543</ele>
        <time>2016-12-20T02:17:09Z</time>
      </trkpt>
      <trkpt lat="46.06127" lon="1.88425">
        <ele>542</ele>
        <time>2016-12-20T02:19:09Z</time>
      </trkpt>
      <trkpt lat="46.06128" lon="1.88416">
        <ele>542</ele>
        <time>2016-12-20T02:21:09Z</time>
      </trkpt>
      <trkpt lat="46.06131" lon="1.88406">
        <ele>540</ele>
        <time>2016-12-20T02:23:09Z</time>
      </trkpt>
      <trkpt lat="46.06135" lon="1.88396">
        <ele>539</ele>
        <time>2016-12-20T02:25:09Z</time>
      </trkpt>
      <trkpt lat="46.0614" lon="1.88387">
        <ele>537</ele>
        <time>2016-12-20T02:27:09Z</time>
      </trkpt>
      <trkpt lat="46.06145" lon="1.88379">
        <ele>536</ele>
        <time>2016-12-20T02:29:09Z</time>
      </trkpt>
      <trkpt lat="46.06151" lon="1.88371">
        <ele>535</ele>
        <time>2016-12-20T02:31:09Z</time>
      </trkpt>
      <trkpt lat="46.06156" lon="1.88364">
        <ele>534</ele>
        <time>2016-12-20T02:33:09Z</time>
      </trkpt>
      <trkpt lat="46.06161" lon="1.88359">
        <ele>534</ele>
        <time>2016-12-20T02:35:09Z</time>
      </trkpt>
      <trkpt lat="46.06166" lon="1.88359">
        <ele>534</ele>
        <time>2016-12-20T02:37:09Z</time>
      </trkpt>
      <trkpt lat="46.06166" lon="1.88359">
        <ele>534</ele>
        <time>2016-12-20T02:39:09Z</time>
      </trkpt>
      <trkpt lat="46.06169" lon="1.88357">
        <ele>533</ele>
        <time>2016-12-20T02:41:09Z</time>
      </trkpt>
      <trkpt lat="46.06201" lon="1.88347">
        <ele>531</ele>
        <time>2016-12-20T02:43:09Z</time>
      </trkpt>
      <trkpt lat="46.06205" lon="1.88348">
        <ele>531</ele>
        <time>2016-12-20T02:45:09Z</time>
      </trkpt>
      <trkpt lat="46.06209" lon="1.88347">
        <ele>530</ele>
        <time>2016-12-20T02:47:09Z</time>
      </trkpt>
      <trkpt lat="46.06213" lon="1.88345">
        <ele>530</ele>
        <time>2016-12-20T02:49:09Z</time>
      </trkpt>
      <trkpt lat="46.06213" lon="1.88341">
        <ele>530</ele>
        <time>2016-12-20T02:51:09Z</time>
      </trkpt>
      <trkpt lat="46.06215" lon="1.88337">
        <ele>529</ele>
        <time>2016-12-20T02:53:09Z</time>
      </trkpt>
      <trkpt lat="46.0622" lon="1.88337">
        <ele>529</ele>
        <time>2016-12-20T02:55:09Z</time>
      </trkpt>
      <trkpt lat="46.06221" lon="1.88338">
        <ele>529</ele>
        <time>2016-12-20T02:57:09Z</time>
      </trkpt>
      <trkpt lat="46.06224" lon="1.88338">
        <ele>529</ele>
        <time>2016-12-20T02:59:09Z</time>
      </trkpt>
      <trkpt lat="46.06226" lon="1.88338">
        <ele>529</ele>
        <time>2016-12-20T03:01:09Z</time>
      </trkpt>
      <trkpt lat="46.06231" lon="1.88338">
        <ele>529</ele>
        <time>2016-12-20T03:03:09Z</time>
      </trkpt>
      <trkpt lat="46.06237" lon="1.88339">
        <ele>529</ele>
        <time>2016-12-20T03:05:09Z</time>
      </trkpt>
      <trkpt lat="46.06242" lon="1.88341">
        <ele>529</ele>
        <time>2016-12-20T03:07:09Z</time>
      </trkpt>
      <trkpt lat="46.06247" lon="1.88342">
        <ele>529</ele>
        <time>2016-12-20T03:09:09Z</time>
      </trkpt>
      <trkpt lat="46.06251" lon="1.88342">
        <ele>529</ele>
        <time>2016-12-20T03:11:09Z</time>
      </trkpt>
      <trkpt lat="46.06256" lon="1.88341">
        <ele>530</ele>
        <time>2016-12-20T03:13:09Z</time>
      </trkpt>
      <trkpt lat="46.06259" lon="1.88339">
        <ele>530</ele>
        <time>2016-12-20T03:15:09Z</time>
      </trkpt>
      <trkpt lat="46.06264" lon="1.88334">
        <ele>530</ele>
        <time>2016-12-20T03:17:09Z</time>
      </trkpt>
      <trkpt lat="46.06266" lon="1.8833">
        <ele>530</ele>
        <time>2016-12-20T03:19:09Z</time>
      </trkpt>
      <trkpt lat="46.06275" lon="1.88304">
        <ele>529</ele>
        <time>2016-12-20T03:21:09Z</time>
      </trkpt>
      <trkpt lat="46.06276" lon="1.88299">
        <ele>529</ele>
        <time>2016-12-20T03:23:09Z</time>
      </trkpt>
      <trkpt lat="46.06277" lon="1.88294">
        <ele>528</ele>
        <time>2016-12-20T03:25:09Z</time>
      </trkpt>
      <trkpt lat="46.06279" lon="1.88284">
        <ele>528</ele>
        <time>2016-12-20T03:27:09Z</time>
      </trkpt>
      <trkpt lat="46.06289" lon="1.88264">
        <ele>528</ele>
        <time>2016-12-20T03:29:09Z</time>
      </trkpt>
      <trkpt lat="46.06297" lon="1.88249">
        <ele>527</ele>
        <time>2016-12-20T03:31:09Z</time>
      </trkpt>
      <trkpt lat="46.06305" lon="1.88231">
        <ele>527</ele>
        <time>2016-12-20T03:33:09Z</time>
      </trkpt>
      <trkpt lat="46.0631" lon="1.88232">
        <ele>527</ele>
        <time>2016-12-20T03:35:09Z</time>
      </trkpt>
      <trkpt lat="46.06313" lon="1.88234">
        <ele>527</ele>
        <time>2016-12-20T03:37:09Z</time>
      </trkpt>
      <trkpt lat="46.06323" lon="1.88237">
        <ele>528</ele>
        <time>2016-12-20T03:39:09Z</time>
      </trkpt>
      <trkpt lat="46.0633" lon="1.88242">
        <ele>529</ele>
        <time>2016-12-20T03:41:09Z</time>
      </trkpt>
      <trkpt lat="46.06333" lon="1.88242">
        <ele>529</ele>
        <time>2016-12-20T03:43:09Z</time>
      </trkpt>
      <trkpt lat="46.06341" lon="1.88242">
        <ele>530</ele>
        <time>2016-12-20T03:45:09Z</time>
      </trkpt>
      <trkpt lat="46.06345" lon="1.88237">
        <ele>530</ele>
        <time>2016-12-20T03:47:09Z</time>
      </trkpt>
      <trkpt lat="46.06349" lon="1.88233">
        <ele>530</ele>
        <time>2016-12-20T03:49:09Z</time>
      </trkpt>
      <trkpt lat="46.06366" lon="1.88216">
        <ele>530</ele>
        <time>2016-12-20T03:51:09Z</time>
      </trkpt>
      <trkpt lat="46.06373" lon="1.88205">
        <ele>530</ele>
        <time>2016-12-20T03:53:09Z</time>
      </trkpt>
      <trkpt lat="46.06373" lon="1.88197">
        <ele>530</ele>
        <time>2016-12-20T03:55:09Z</time>
      </trkpt>
      <trkpt lat="46.06372" lon="1.8819">
        <ele>530</ele>
        <time>2016-12-20T03:57:09Z</time>
      </trkpt>
      <trkpt lat="46.06373" lon="1.8818">
        <ele>529</ele>
        <time>2016-12-20T03:59:09Z</time>
      </trkpt>
      <trkpt lat="46.06374" lon="1.88177">
        <ele>529</ele>
        <time>2016-12-20T04:01:09Z</time>
      </trkpt>
      <trkpt lat="46.06373" lon="1.8817">
        <ele>529</ele>
        <time>2016-12-20T04:03:09Z</time>
      </trkpt>
      <trkpt lat="46.06373" lon="1.88169">
        <ele>529</ele>
        <time>2016-12-20T04:05:09Z</time>
      </trkpt>
      <trkpt lat="46.06375" lon="1.88165">
        <ele>529</ele>
        <time>2016-12-20T04:07:09Z</time>
      </trkpt>
      <trkpt lat="46.06377" lon="1.88162">
        <ele>529</ele>
        <time>2016-12-20T04:09:09Z</time>
      </trkpt>
      <trkpt lat="46.06382" lon="1.88157">
        <ele>529</ele>
        <time>2016-12-20T04:11:09Z</time>
      </trkpt>
      <trkpt lat="46.06386" lon="1.88151">
        <ele>529</ele>
        <time>2016-12-20T04:13:09Z</time>
      </trkpt>
      <trkpt lat="46.06386" lon="1.88149">
        <ele>529</ele>
        <time>2016-12-20T04:15:09Z</time>
      </trkpt>
      <trkpt lat="46.06386" lon="1.88147">
        <ele>529</ele>
        <time>2016-12-20T04:17:09Z</time>
      </trkpt>
      <trkpt lat="46.06387" lon="1.88143">
        <ele>529</ele>
        <time>2016-12-20T04:19:09Z</time>
      </trkpt>
      <trkpt lat="46.06389" lon="1.8814">
        <ele>529</ele>
        <time>2016-12-20T04:21:09Z</time>
      </trkpt>
      <trkpt lat="46.06391" lon="1.88137">
        <ele>529</ele>
        <time>2016-12-20T04:23:09Z</time>
      </trkpt>
      <trkpt lat="46.06394" lon="1.88127">
        <ele>529</ele>
        <time>2016-12-20T04:25:09Z</time>
      </trkpt>
      <trkpt lat="46.06396" lon="1.8811">
        <ele>529</ele>
        <time>2016-12-20T04:27:09Z</time>
      </trkpt>
      <trkpt lat="46.06396" lon="1.88096">
        <ele>528</ele>
        <time>2016-12-20T04:29:09Z</time>
      </trkpt>
      <trkpt lat="46.06402" lon="1.88067">
        <ele>528</ele>
        <time>2016-12-20T04:31:09Z</time>
      </trkpt>
      <trkpt lat="46.0641" lon="1.88051">
        <ele>528</ele>
        <time>2016-12-20T04:33:09Z</time>
      </trkpt>
      <trkpt lat="46.06412" lon="1.88048">
        <ele>529</ele>
        <time>2016-12-20T04:35:09Z</time>
      </trkpt>
      <trkpt lat="46.06425" lon="1.88036">
        <ele>530</ele>
        <time>2016-12-20T04:37:09Z</time>
      </trkpt>
      <trkpt lat="46.06431" lon="1.88024">
        <ele>530</ele>
        <time>2016-12-20T04:39:09Z</time>
      </trkpt>
      <trkpt lat="46.06433" lon="1.88018">
        <ele>530</ele>
        <time>2016-12-20T04:41:09Z</time>
      </trkpt>
      <trkpt lat="46.06435" lon="1.88013">
        <ele>530</ele>
        <time>2016-12-20T04:43:09Z</time>
      </trkpt>
      <trkpt lat="46.06437" lon="1.88009">
        <ele>530</ele>
        <time>2016-12-20T04:45:09Z</time>
      </trkpt>
      <trkpt lat="46.06439" lon="1.88007">
        <ele>530</ele>
        <time>2016-12-20T04:47:09Z</time>
      </trkpt>
      <trkpt lat="46.06442" lon="1.88006">
        <ele>530</ele>
        <time>2016-12-20T04:49:09Z</time>
      </trkpt>
      <trkpt lat="46.0645" lon="1.87998">
        <ele>531</ele>
        <time>2016-12-20T04:51:09Z</time>
      </trkpt>
      <trkpt lat="46.06453" lon="1.87998">
        <ele>531</ele>
        <time>2016-12-20T04:53:09Z</time>
      </trkpt>
      <trkpt lat="46.06456" lon="1.87997">
        <ele>531</ele>
        <time>2016-12-20T04:55:09Z</time>
      </trkpt>
      <trkpt lat="46.06458" lon="1.87997">
        <ele>532</ele>
        <time>2016-12-20T04:57:09Z</time>
      </trkpt>
      <trkpt lat="46.0646" lon="1.87998">
        <ele>532</ele>
        <time>2016-12-20T04:59:09Z</time>
      </trkpt>
      <trkpt lat="46.06463" lon="1.87999">
        <ele>533</ele>
        <time>2016-12-20T05:01:09Z</time>
      </trkpt>
      <trkpt lat="46.06465" lon="1.87998">
        <ele>533</ele>
        <time>2016-12-20T05:03:09Z</time>
      </trkpt>
      <trkpt lat="46.06468" lon="1.87997">
        <ele>533</ele>
        <time>2016-12-20T05:05:09Z</time>
      </trkpt>
      <trkpt lat="46.0647" lon="1.87995">
        <ele>533</ele>
        <time>2016-12-20T05:07:09Z</time>
      </trkpt>
      <trkpt lat="46.06471" lon="1.87992">
        <ele>533</ele>
        <time>2016-12-20T05:09:09Z</time>
      </trkpt>
      <trkpt lat="46.06473" lon="1.87989">
        <ele>533</ele>
        <time>2016-12-20T05:11:09Z</time>
      </trkpt>
      <trkpt lat="46.06478" lon="1.87986">
        <ele>533</ele>
        <time>2016-12-20T05:13:09Z</time>
      </trkpt>
      <trkpt lat="46.0648" lon="1.87985">
        <ele>533</ele>
        <time>2016-12-20T05:15:09Z</time>
      </trkpt>
      <trkpt lat="46.06483" lon="1.87982">
        <ele>534</ele>
        <time>2016-12-20T05:17:09Z</time>
      </trkpt>
      <trkpt lat="46.06485" lon="1.8798">
        <ele>534</ele>
        <time>2016-12-20T05:19:09Z</time>
      </trkpt>
      <trkpt lat="46.06487" lon="1.87978">
        <ele>534</ele>
        <time>2016-12-20T05:21:09Z</time>
      </trkpt>
      <trkpt lat="46.06495" lon="1.87971">
        <ele>534</ele>
        <time>2016-12-20T05:23:09Z</time>
      </trkpt>
      <trkpt lat="46.06509" lon="1.87963">
        <ele>536</ele>
        <time>2016-12-20T05:25:09Z</time>
      </trkpt>
      <trkpt lat="46.06518" lon="1.87956">
        <ele>536</ele>
        <time>2016-12-20T05:27:09Z</time>
      </trkpt>
      <trkpt lat="46.06524" lon="1.87951">
        <ele>537</ele>
        <time>2016-12-20T05:29:09Z</time>
      </trkpt>
      <trkpt lat="46.06527" lon="1.87949">
        <ele>537</ele>
        <time>2016-12-20T05:31:09Z</time>
      </trkpt>
      <trkpt lat="46.06537" lon="1.87942">
        <ele>538</ele>
        <time>2016-12-20T05:33:09Z</time>
      </trkpt>
      <trkpt lat="46.06539" lon="1.87939">
        <ele>538</ele>
        <time>2016-12-20T05:35:09Z</time>
      </trkpt>
      <trkpt lat="46.06543" lon="1.87939">
        <ele>539</ele>
        <time>2016-12-20T05:37:09Z</time>
      </trkpt>
      <trkpt lat="46.06545" lon="1.87937">
        <ele>539</ele>
        <time>2016-12-20T05:39:09Z</time>
      </trkpt>
      <trkpt lat="46.0655" lon="1.87935">
        <ele>540</ele>
        <time>2016-12-20T05:41:09Z</time>
      </trkpt>
      <trkpt lat="46.06558" lon="1.87932">
        <ele>541</ele>
        <time>2016-12-20T05:43:09Z</time>
      </trkpt>
      <trkpt lat="46.06561" lon="1.87932">
        <ele>542</ele>
        <time>2016-12-20T05:45:09Z</time>
      </trkpt>
      <trkpt lat="46.06573" lon="1.87928">
        <ele>543</ele>
        <time>2016-12-20T05:47:09Z</time>
      </trkpt>
      <trkpt lat="46.06582" lon="1.87926">
        <ele>545</ele>
        <time>2016-12-20T05:49:09Z</time>
      </trkpt>
      <trkpt lat="46.06587" lon="1.87924">
        <ele>545</ele>
        <time>2016-12-20T05:51:09Z</time>
      </trkpt>
      <trkpt lat="46.06589" lon="1.87924">
        <ele>546</ele>
        <time>2016-12-20T05:53:09Z</time>
      </trkpt>
      <trkpt lat="46.0659" lon="1.87922">
        <ele>546</ele>
        <time>2016-12-20T05:55:09Z</time>
      </trkpt>
      <trkpt lat="46.06593" lon="1.8792">
        <ele>546</ele>
        <time>2016-12-20T05:57:09Z</time>
      </trkpt>
      <trkpt lat="46.06597" lon="1.8792">
        <ele>546</ele>
        <time>2016-12-20T05:59:09Z</time>
      </trkpt>
      <trkpt lat="46.06599" lon="1.87916">
        <ele>546</ele>
        <time>2016-12-20T06:01:09Z</time>
      </trkpt>
      <trkpt lat="46.06602" lon="1.87913">
        <ele>546</ele>
        <time>2016-12-20T06:03:09Z</time>
      </trkpt>
      <trkpt lat="46.06604" lon="1.87912">
        <ele>547</ele>
        <time>2016-12-20T06:05:09Z</time>
      </trkpt>
      <trkpt lat="46.06608" lon="1.87909">
        <ele>547</ele>
        <time>2016-12-20T06:07:09Z</time>
      </trkpt>
      <trkpt lat="46.06625" lon="1.87902">
        <ele>548</ele>
        <time>2016-12-20T06:09:09Z</time>
      </trkpt>
      <trkpt lat="46.06636" lon="1.87896">
        <ele>549</ele>
        <time>2016-12-20T06:11:09Z</time>
      </trkpt>
      <trkpt lat="46.06637" lon="1.87895">
        <ele>549</ele>
        <time>2016-12-20T06:13:09Z</time>
      </trkpt>
      <trkpt lat="46.06638" lon="1.8789">
        <ele>549</ele>
        <time>2016-12-20T06:15:09Z</time>
      </trkpt>
      <trkpt lat="46.06648" lon="1.87885">
        <ele>549</ele>
        <time>2016-12-20T06:17:09Z</time>
      </trkpt>
      <trkpt lat="46.06665" lon="1.8788">
        <ele>551</ele>
        <time>2016-12-20T06:19:09Z</time>
      </trkpt>
      <trkpt lat="46.06671" lon="1.8788">
        <ele>552</ele>
        <time>2016-12-20T06:21:09Z</time>
      </trkpt>
      <trkpt lat="46.06672" lon="1.8788">
        <ele>552</ele>
        <time>2016-12-20T06:23:09Z</time>
      </trkpt>
      <trkpt lat="46.06677" lon="1.8788">
        <ele>552</ele>
        <time>2016-12-20T06:25:09Z</time>
      </trkpt>
      <trkpt lat="46.06682" lon="1.8788">
        <ele>552</ele>
        <time>2016-12-20T06:27:09Z</time>
      </trkpt>
      <trkpt lat="46.06698" lon="1.87878">
        <ele>553</ele>
        <time>2016-12-20T06:29:09Z</time>
      </trkpt>
      <trkpt lat="46.06702" lon="1.87876">
        <ele>553</ele>
        <time>2016-12-20T06:31:09Z</time>
      </trkpt>
      <trkpt lat="46.06705" lon="1.87876">
        <ele>553</ele>
        <time>2016-12-20T06:33:09Z</time>
      </trkpt>
      <trkpt lat="46.06709" lon="1.87875">
        <ele>553</ele>
        <time>2016-12-20T06:35:09Z</time>
      </trkpt>
      <trkpt lat="46.06714" lon="1.87874">
        <ele>553</ele>
        <time>2016-12-20T06:37:09Z</time>
      </trkpt>
      <trkpt lat="46.06718" lon="1.87873">
        <ele>553</ele>
        <time>2016-12-20T06:39:09Z</time>
      </trkpt>
      <trkpt lat="46.06722" lon="1.87873">
        <ele>553</ele>
        <time>2016-12-20T06:41:09Z</time>
      </trkpt>
      <trkpt lat="46.06726" lon="1.87873">
        <ele>553</ele>
        <time>2016-12-20T06:43:09Z</time>
      </trkpt>
      <trkpt lat="46.06726" lon="1.8787">
        <ele>553</ele>
        <time>2016-12-20T06:45:09Z</time>
      </trkpt>
      <trkpt lat="46.0673" lon="1.87868">
        <ele>553</ele>
        <time>2016-12-20T06:47:09Z</time>
      </trkpt>
      <trkpt lat="46.06743" lon="1.87864">
        <ele>553</ele>
        <time>2016-12-20T06:49:09Z</time>
      </trkpt>
      <trkpt lat="46.06748" lon="1.87864">
        <ele>553</ele>
        <time>2016-12-20T06:51:09Z</time>
      </trkpt>
      <trkpt lat="46.0675" lon="1.87864">
        <ele>553</ele>
        <time>2016-12-20T06:53:09Z</time>
      </trkpt>
      <trkpt lat="46.06757" lon="1.87863">
        <ele>553</ele>
        <time>2016-12-20T06:55:09Z</time>
      </trkpt>
      <trkpt lat="46.0676" lon="1.87862">
        <ele>553</ele>
        <time>2016-12-20T06:57:09Z</time>
      </trkpt>
      <trkpt lat="46.06773" lon="1.87862">
        <ele>554</ele>
        <time>2016-12-20T06:59:09Z</time>
      </trkpt>
      <trkpt lat="46.06775" lon="1.87861">
        <ele>554</ele>
        <time>2016-12-20T07:01:09Z</time>
      </trkpt>
      <trkpt lat="46.06778" lon="1.87862">
        <ele>555</ele>
        <time>2016-12-20T07:03:09Z</time>
      </trkpt>
      <trkpt lat="46.06784" lon="1.87861">
        <ele>555</ele>
        <time>2016-12-20T07:05:09Z</time>
      </trkpt>
      <trkpt lat="46.06795" lon="1.87857">
        <ele>555</ele>
        <time>2016-12-20T07:07:09Z</time>
      </trkpt>
      <trkpt lat="46.06797" lon="1.87857">
        <ele>555</ele>
        <time>2016-12-20T07:09:09Z</time>
      </trkpt>
      <trkpt lat="46.06801" lon="1.87858">
        <ele>556</ele>
        <time>2016-12-20T07:11:09Z</time>
      </trkpt>
      <trkpt lat="46.06804" lon="1.87858">
        <ele>556</ele>
        <time>2016-12-20T07:13:09Z</time>
      </trkpt>
      <trkpt lat="46.06805" lon="1.87857">
        <ele>556</ele>
        <time>2016-12-20T07:15:09Z</time>
      </trkpt>
      <trkpt lat="46.0682" lon="1.87854">
        <ele>557</ele>
        <time>2016-12-20T07:17:09Z</time>
      </trkpt>
      <trkpt lat="46.06831" lon="1.87852">
        <ele>558</ele>
        <time>2016-12-20T07:19:09Z</time>
      </trkpt>
      <trkpt lat="46.06843" lon="1.87847">
        <ele>558</ele>
        <time>2016-12-20T07:21:09Z</time>
      </trkpt>
      <trkpt lat="46.0687" lon="1.87844">
        <ele>558</ele>
        <time>2016-12-20T07:23:09Z</time>
      </trkpt>
      <trkpt lat="46.06877" lon="1.8784">
        <ele>557</ele>
        <time>2016-12-20T07:25:09Z</time>
      </trkpt>
      <trkpt lat="46.06887" lon="1.87839">
        <ele>557</ele>
        <time>2016-12-20T07:27:09Z</time>
      </trkpt>
      <trkpt lat="46.06893" lon="1.87841">
        <ele>558</ele>
        <time>2016-12-20T07:29:09Z</time>
      </trkpt>
      <trkpt lat="46.06904" lon="1.87839">
        <ele>558</ele>
        <time>2016-12-20T07:31:09Z</time>
      </trkpt>
      <trkpt lat="46.06914" lon="1.87838">
        <ele>558</ele>
        <time>2016-12-20T07:33:09Z</time>
      </trkpt>
      <trkpt lat="46.06931" lon="1.87838">
        <ele>556</ele>
        <time>2016-12-20T07:35:09Z</time>
      </trkpt>
      <trkpt lat="46.06943" lon="1.87839">
        <ele>555</ele>
        <time>2016-12-20T07:37:09Z</time>
      </trkpt>
      <trkpt lat="46.06947" lon="1.87841">
        <ele>555</ele>
        <time>2016-12-20T07:39:09Z</time>
      </trkpt>
      <trkpt lat="46.06958" lon="1.87839">
        <ele>554</ele>
        <time>2016-12-20T07:41:09Z</time>
      </trkpt>
      <trkpt lat="46.06964" lon="1.87839">
        <ele>553</ele>
        <time>2016-12-20T07:43:09Z</time>
      </trkpt>
      <trkpt lat="46.06969" lon="1.87842">
        <ele>553</ele>
        <time>2016-12-20T07:45:09Z</time>
      </trkpt>
      <trkpt lat="46.06974" lon="1.87843">
        <ele>552</ele>
        <time>2016-12-20T07:47:09Z</time>
      </trkpt>
      <trkpt lat="46.06979" lon="1.87844">
        <ele>552</ele>
        <time>2016-12-20T07:49:09Z</time>
      </trkpt>
      <trkpt lat="46.06985" lon="1.87845">
        <ele>551</ele>
        <time>2016-12-20T07:51:09Z</time>
      </trkpt>
      <trkpt lat="46.06992" lon="1.87845">
        <ele>551</ele>
        <time>2016-12-20T07:53:09Z</time>
      </trkpt>
      <trkpt lat="46.06994" lon="1.87843">
        <ele>550</ele>
        <time>2016-12-20T07:55:09Z</time>
      </trkpt>
      <trkpt lat="46.06995" lon="1.8784">
        <ele>550</ele>
        <time>2016-12-20T07:57:09Z</time>
      </trkpt>
      <trkpt lat="46.06996" lon="1.87841">
        <ele>550</ele>
        <time>2016-12-20T07:59:09Z</time>
      </trkpt>
      <trkpt lat="46.07" lon="1.87839">
        <ele>549</ele>
        <time>2016-12-20T08:01:09Z</time>
      </trkpt>
      <trkpt lat="46.07004" lon="1.87841">
        <ele>549</ele>
        <time>2016-12-20T08:03:09Z</time>
      </trkpt>
      <trkpt lat="46.07006" lon="1.87842">
        <ele>548</ele>
        <time>2016-12-20T08:05:09Z</time>
      </trkpt>
      <trkpt lat="46.07009" lon="1.87843">
        <ele>548</ele>
        <time>2016-12-20T08:07:09Z</time>
      </trkpt>
      <trkpt lat="46.07012" lon="1.87844">
        <ele>547</ele>
        <time>2016-12-20T08:09:09Z</time>
      </trkpt>
      <trkpt lat="46.07017" lon="1.87842">
        <ele>546</ele>
        <time>2016-12-20T08:11:09Z</time>
      </trkpt>
      <trkpt lat="46.07018" lon="1.87838">
        <ele>546</ele>
        <time>2016-12-20T08:13:09Z</time>
      </trkpt>
      <trkpt lat="46.07018" lon="1.87834">
        <ele>545</ele>
        <time>2016-12-20T08:15:09Z</time>
      </trkpt>
      <trkpt lat="46.07018" lon="1.87831">
        <ele>545</ele>
        <time>2016-12-20T08:17:09Z</time>
      </trkpt>
      <trkpt lat="46.07012" lon="1.87813">
        <ele>544</ele>
        <time>2016-12-20T08:19:09Z</time>
      </trkpt>
      <trkpt lat="46.07011" lon="1.87807">
        <ele>544</ele>
        <time>2016-12-20T08:21:09Z</time>
      </trkpt>
      <trkpt lat="46.07005" lon="1.8779">
        <ele>543</ele>
        <time>2016-12-20T08:23:09Z</time>
      </trkpt>
      <trkpt lat="46.07003" lon="1.87785">
        <ele>543</ele>
        <time>2016-12-20T08:25:09Z</time>
      </trkpt>
      <trkpt lat="46.07002" lon="1.87778">
        <ele>543</ele>
        <time>2016-12-20T08:27:09Z</time>
      </trkpt>
      <trkpt lat="46.07001" lon="1.87774">
        <ele>542</ele>
        <time>2016-12-20T08:29:09Z</time>
      </trkpt>
      <trkpt lat="46.06998" lon="1.87761">
        <ele>541</ele>
        <time>2016-12-20T08:31:09Z</time>
      </trkpt>
      <trkpt lat="46.06995" lon="1.87749">
        <ele>540</ele>
        <time>2016-12-20T08:33:09Z</time>
      </trkpt>
      <trkpt lat="46.06993" lon="1.87742">
        <ele>540</ele>
        <time>2016-12-20T08:35:09Z</time>
      </trkpt>
      <trkpt lat="46.06993" lon="1.87735">
        <ele>540</ele>
        <time>2016-12-20T08:37:09Z</time>
      </trkpt>
      <trkpt lat="46.06995" lon="1.87729">
        <ele>539</ele>
        <time>2016-12-20T08:39:09Z</time>
      </trkpt>
      <trkpt lat="46.06996" lon="1.87722">
        <ele>539</ele>
        <time>2016-12-20T08:41:09Z</time>
      </trkpt>
      <trkpt lat="46.06996" lon="1.87716">
        <ele>538</ele>
        <time>2016-12-20T08:43:09Z</time>
      </trkpt>
      <trkpt lat="46.06999" lon="1.87696">
        <ele>537</ele>
        <time>2016-12-20T08:45:09Z</time>
      </trkpt>
      <trkpt lat="46.06998" lon="1.87698">
        <ele>537</ele>
        <time>2016-12-20T08:47:09Z</time>
      </trkpt>
      <trkpt lat="46.06999" lon="1.87698">
        <ele>537</ele>
        <time>2016-12-20T08:49:09Z</time>
      </trkpt>
      <trkpt lat="46.06999" lon="1.87696">
        <ele>537</ele>
        <time>2016-12-20T08:51:09Z</time>
      </trkpt>
      <trkpt lat="46.07" lon="1.87697">
        <ele>537</ele>
        <time>2016-12-20T08:53:09Z</time>
      </trkpt>
      <trkpt lat="46.07004" lon="1.87696">
        <ele>536</ele>
        <time>2016-12-20T08:55:09Z</time>
      </trkpt>
      <trkpt lat="46.07012" lon="1.87695">
        <ele>535</ele>
        <time>2016-12-20T08:57:09Z</time>
      </trkpt>
      <trkpt lat="46.07017" lon="1.87693">
        <ele>535</ele>
        <time>2016-12-20T08:59:09Z</time>
      </trkpt>
      <trkpt lat="46.07028" lon="1.87688">
        <ele>533</ele>
        <time>2016-12-20T09:01:09Z</time>
      </trkpt>
      <trkpt lat="46.07048" lon="1.87682">
        <ele>530</ele>
        <time>2016-12-20T09:03:09Z</time>
      </trkpt>
      <trkpt lat="46.07059" lon="1.87677">
        <ele>529</ele>
        <time>2016-12-20T09:05:09Z</time>
      </trkpt>
      <trkpt lat="46.07064" lon="1.87672">
        <ele>528</ele>
        <time>2016-12-20T09:07:09Z</time>
      </trkpt>
      <trkpt lat="46.07072" lon="1.87664">
        <ele>527</ele>
        <time>2016-12-20T09:09:09Z</time>
      </trkpt>
      <trkpt lat="46.07081" lon="1.87662">
        <ele>526</ele>
        <time>2016-12-20T09:11:09Z</time>
      </trkpt>
      <trkpt lat="46.07093" lon="1.87653">
        <ele>527</ele>
        <time>2016-12-20T09:13:09Z</time>
      </trkpt>
      <trkpt lat="46.07104" lon="1.87647">
        <ele>528</ele>
        <time>2016-12-20T09:15:09Z</time>
      </trkpt>
      <trkpt lat="46.07106" lon="1.87646">
        <ele>528</ele>
        <time>2016-12-20T09:17:09Z</time>
      </trkpt>
      <trkpt lat="46.0711" lon="1.87643">
        <ele>528</ele>
        <time>2016-12-20T09:19:09Z</time>
      </trkpt>
      <trkpt lat="46.07113" lon="1.87639">
        <ele>528</ele>
        <time>2016-12-20T09:21:09Z</time>
      </trkpt>
      <trkpt lat="46.07117" lon="1.8763">
        <ele>529</ele>
        <time>2016-12-20T09:23:09Z</time>
      </trkpt>
      <trkpt lat="46.07122" lon="1.87623">
        <ele>530</ele>
        <time>2016-12-20T09:25:09Z</time>
      </trkpt>
      <trkpt lat="46.07129" lon="1.87614">
        <ele>531</ele>
        <time>2016-12-20T09:27:09Z</time>
      </trkpt>
      <trkpt lat="46.07144" lon="1.87606">
        <ele>533</ele>
        <time>2016-12-20T09:29:09Z</time>
      </trkpt>
      <trkpt lat="46.07148" lon="1.87607">
        <ele>533</ele>
        <time>2016-12-20T09:31:09Z</time>
      </trkpt>
      <trkpt lat="46.07159" lon="1.87605">
        <ele>534</ele>
        <time>2016-12-20T09:33:09Z</time>
      </trkpt>
      <trkpt lat="46.0717" lon="1.87603">
        <ele>535</ele>
        <time>2016-12-20T09:35:09Z</time>
      </trkpt>
      <trkpt lat="46.07172" lon="1.87603">
        <ele>536</ele>
        <time>2016-12-20T09:37:09Z</time>
      </trkpt>
      <trkpt lat="46.07176" lon="1.87602">
        <ele>536</ele>
        <time>2016-12-20T09:39:09Z</time>
      </trkpt>
      <trkpt lat="46.07178" lon="1.87602">
        <ele>536</ele>
        <time>2016-12-20T09:41:09Z</time>
      </trkpt>
      <trkpt lat="46.07181" lon="1.87601">
        <ele>537</ele>
        <time>2016-12-20T09:43:09Z</time>
      </trkpt>
      <trkpt lat="46.07184" lon="1.876">
        <ele>537</ele>
        <time>2016-12-20T09:45:09Z</time>
      </trkpt>
      <trkpt lat="46.07189" lon="1.87601">
        <ele>538</ele>
        <time>2016-12-20T09:47:09Z</time>
      </trkpt>
      <trkpt lat="46.07193" lon="1.876">
        <ele>538</ele>
        <time>2016-12-20T09:49:09Z</time>
      </trkpt>
      <trkpt lat="46.07198" lon="1.87599">
        <ele>539</ele>
        <time>2016-12-20T09:51:09Z</time>
      </trkpt>
      <trkpt lat="46.072" lon="1.87598">
        <ele>539</ele>
        <time>2016-12-20T09:53:09Z</time>
      </trkpt>
      <trkpt lat="46.07201" lon="1.87597">
        <ele>540</ele>
        <time>2016-12-20T09:55:09Z</time>
      </trkpt>
      <trkpt lat="46.07204" lon="1.87597">
        <ele>540</ele>
        <time>2016-12-20T09:57:09Z</time>
      </trkpt>
      <trkpt lat="46.07207" lon="1.87598">
        <ele>540</ele>
        <time>2016-12-20T09:59:09Z</time>
      </trkpt>
      <trkpt lat="46.07209" lon="1.87596">
        <ele>541</ele>
        <time>2016-12-20T10:01:09Z</time>
      </trkpt>
      <trkpt lat="46.07213" lon="1.87594">
        <ele>542</ele>
        <time>2016-12-20T10:03:09Z</time>
      </trkpt>
      <trkpt lat="46.07215" lon="1.87592">
        <ele>542</ele>
        <time>2016-12-20T10:05:09Z</time>
      </trkpt>
      <trkpt lat="46.07219" lon="1.8759">
        <ele>543</ele>
        <time>2016-12-20T10:07:09Z</time>
      </trkpt>
      <trkpt lat="46.0722" lon="1.87587">
        <ele>544</ele>
        <time>2016-12-20T10:09:09Z</time>
      </trkpt>
      <trkpt lat="46.07222" lon="1.87585">
        <ele>544</ele>
        <time>2016-12-20T10:11:09Z</time>
      </trkpt>
      <trkpt lat="46.07225" lon="1.87582">
        <ele>545</ele>
        <time>2016-12-20T10:13:09Z</time>
      </trkpt>
      <trkpt lat="46.0723" lon="1.8758">
        <ele>546</ele>
        <time>2016-12-20T10:15:09Z</time>
      </trkpt>
      <trkpt lat="46.07232" lon="1.87579">
        <ele>546</ele>
        <time>2016-12-20T10:17:09Z</time>
      </trkpt>
      <trkpt lat="46.07234" lon="1.87579">
        <ele>547</ele>
        <time>2016-12-20T10:19:09Z</time>
      </trkpt>
      <trkpt lat="46.07245" lon="1.87573">
        <ele>549</ele>
        <time>2016-12-20T10:21:09Z</time>
      </trkpt>
      <trkpt lat="46.07256" lon="1.87571">
        <ele>551</ele>
        <time>2016-12-20T10:23:09Z</time>
      </trkpt>
      <trkpt lat="46.0726" lon="1.8757">
        <ele>551</ele>
        <time>2016-12-20T10:25:09Z</time>
      </trkpt>
      <trkpt lat="46.07271" lon="1.87564">
        <ele>553</ele>
        <time>2016-12-20T10:27:09Z</time>
      </trkpt>
      <trkpt lat="46.07274" lon="1.87561">
        <ele>554</ele>
        <time>2016-12-20T10:29:09Z</time>
      </trkpt>
      <trkpt lat="46.07278" lon="1.87556">
        <ele>555</ele>
        <time>2016-12-20T10:31:09Z</time>
      </trkpt>
      <trkpt lat="46.07287" lon="1.87546">
        <ele>557</ele>
        <time>2016-12-20T10:33:09Z</time>
      </trkpt>
      <trkpt lat="46.07289" lon="1.87545">
        <ele>558</ele>
        <time>2016-12-20T10:35:09Z</time>
      </trkpt>
      <trkpt lat="46.07292" lon="1.87542">
        <ele>558</ele>
        <time>2016-12-20T10:37:09Z</time>
      </trkpt>
      <trkpt lat="46.07294" lon="1.87541">
        <ele>559</ele>
        <time>2016-12-20T10:39:09Z</time>
      </trkpt>
      <trkpt lat="46.07298" lon="1.87538">
        <ele>560</ele>
        <time>2016-12-20T10:41:09Z</time>
      </trkpt>
      <trkpt lat="46.07301" lon="1.87534">
        <ele>560</ele>
        <time>2016-12-20T10:43:09Z</time>
      </trkpt>
      <trkpt lat="46.07314" lon="1.87533">
        <ele>562</ele>
        <time>2016-12-20T10:45:09Z</time>
      </trkpt>
      <trkpt lat="46.07326" lon="1.87537">
        <ele>562</ele>
        <time>2016-12-20T10:47:09Z</time>
      </trkpt>
      <trkpt lat="46.07328" lon="1.87539">
        <ele>562</ele>
        <time>2016-12-20T10:49:09Z</time>
      </trkpt>
      <trkpt lat="46.07344" lon="1.87546">
        <ele>562</ele>
        <time>2016-12-20T10:51:09Z</time>
      </trkpt>
      <trkpt lat="46.07347" lon="1.87548">
        <ele>562</ele>
        <time>2016-12-20T10:53:09Z</time>
      </trkpt>
      <trkpt lat="46.07354" lon="1.87552">
        <ele>562</ele>
        <time>2016-12-20T10:55:09Z</time>
      </trkpt>
      <trkpt lat="46.07359" lon="1.87554">
        <ele>561</ele>
        <time>2016-12-20T10:57:09Z</time>
      </trkpt>
      <trkpt lat="46.07361" lon="1.87555">
        <ele>561</ele>
        <time>2016-12-20T10:59:09Z</time>
      </trkpt>
      <trkpt lat="46.07367" lon="1.87561">
        <ele>561</ele>
        <time>2016-12-20T11:01:09Z</time>
      </trkpt>
      <trkpt lat="46.07376" lon="1.8757">
        <ele>560</ele>
        <time>2016-12-20T11:03:09Z</time>
      </trkpt>
      <trkpt lat="46.07385" lon="1.87575">
        <ele>560</ele>
        <time>2016-12-20T11:05:09Z</time>
      </trkpt>
      <trkpt lat="46.07386" lon="1.87576">
        <ele>560</ele>
        <time>2016-12-20T11:07:09Z</time>
      </trkpt>
      <trkpt lat="46.07399" lon="1.87583">
        <ele>560</ele>
        <time>2016-12-20T11:09:09Z</time>
      </trkpt>
      <trkpt lat="46.07421" lon="1.87588">
        <ele>559</ele>
        <time>2016-12-20T11:11:09Z</time>
      </trkpt>
      <trkpt lat="46.07435" lon="1.87593">
        <ele>556</ele>
        <time>2016-12-20T11:13:09Z</time>
      </trkpt>
      <trkpt lat="46.07443" lon="1.87595">
        <ele>555</ele>
        <time>2016-12-20T11:15:09Z</time>
      </trkpt>
      <trkpt lat="46.07445" lon="1.87594">
        <ele>555</ele>
        <time>2016-12-20T11:17:09Z</time>
      </trkpt>
      <trkpt lat="46.07446" lon="1.87592">
        <ele>555</ele>
        <time>2016-12-20T11:19:09Z</time>
      </trkpt>
      <trkpt lat="46.0745" lon="1.87592">
        <ele>555</ele>
        <time>2016-12-20T11:21:09Z</time>
      </trkpt>
      <trkpt lat="46.07451" lon="1.87592">
        <ele>555</ele>
        <time>2016-12-20T11:23:09Z</time>
      </trkpt>
      <trkpt lat="46.07452" lon="1.87592">
        <ele>554</ele>
        <time>2016-12-20T11:25:09Z</time>
      </trkpt>
      <trkpt lat="46.07457" lon="1.87591">
        <ele>554</ele>
        <time>2016-12-20T11:27:09Z</time>
      </trkpt>
      <trkpt lat="46.07468" lon="1.87589">
        <ele>553</ele>
        <time>2016-12-20T11:29:09Z</time>
      </trkpt>
      <trkpt lat="46.07478" lon="1.87585">
        <ele>552</ele>
        <time>2016-12-20T11:31:09Z</time>
      </trkpt>
      <trkpt lat="46.07487" lon="1.8758">
        <ele>552</ele>
        <time>2016-12-20T11:33:09Z</time>
      </trkpt>
      <trkpt lat="46.07494" lon="1.87577">
        <ele>551</ele>
        <time>2016-12-20T11:35:09Z</time>
      </trkpt>
      <trkpt lat="46.07502" lon="1.87577">
        <ele>551</ele>
        <time>2016-12-20T11:37:09Z</time>
      </trkpt>
      <trkpt lat="46.0751" lon="1.87576">
        <ele>550</ele>
        <time>2016-12-20T11:39:09Z</time>
      </trkpt>
      <trkpt lat="46.07518" lon="1.87574">
        <ele>550</ele>
        <time>2016-12-20T11:41:09Z</time>
      </trkpt>
      <trkpt lat="46.07526" lon="1.87568">
        <ele>550</ele>
        <time>2016-12-20T11:43:09Z</time>
      </trkpt>
      <trkpt lat="46.07538" lon="1.87566">
        <ele>549</ele>
        <time>2016-12-20T11:45:09Z</time>
      </trkpt>
      <trkpt lat="46.07545" lon="1.87563">
        <ele>549</ele>
        <time>2016-12-20T11:47:09Z</time>
      </trkpt>
      <trkpt lat="46.0755" lon="1.87563">
        <ele>548</ele>
        <time>2016-12-20T11:49:09Z</time>
      </trkpt>
      <trkpt lat="46.07574" lon="1.8756">
        <ele>546</ele>
        <time>2016-12-20T11:51:09Z</time>
      </trkpt>
      <trkpt lat="46.07591" lon="1.87555">
        <ele>546</ele>
        <time>2016-12-20T11:53:09Z</time>
      </trkpt>
      <trkpt lat="46.07595" lon="1.87552">
        <ele>545</ele>
        <time>2016-12-20T11:55:09Z</time>
      </trkpt>
      <trkpt lat="46.07598" lon="1.87549">
        <ele>545</ele>
        <time>2016-12-20T11:57:09Z</time>
      </trkpt>
      <trkpt lat="46.07601" lon="1.87545">
        <ele>546</ele>
        <time>2016-12-20T11:59:09Z</time>
      </trkpt>
      <trkpt lat="46.07606" lon="1.87538">
        <ele>546</ele>
        <time>2016-12-20T12:01:09Z</time>
      </trkpt>
      <trkpt lat="46.07629" lon="1.87504">
        <ele>546</ele>
        <time>2016-12-20T12:03:09Z</time>
      </trkpt>
      <trkpt lat="46.07641" lon="1.87485">
        <ele>545</ele>
        <time>2016-12-20T12:05:09Z</time>
      </trkpt>
      <trkpt lat="46.07646" lon="1.8748">
        <ele>544</ele>
        <time>2016-12-20T12:07:09Z</time>
      </trkpt>
      <trkpt lat="46.07651" lon="1.87477">
        <ele>544</ele>
        <time>2016-12-20T12:09:09Z</time>
      </trkpt>
      <trkpt lat="46.07655" lon="1.87476">
        <ele>544</ele>
        <time>2016-12-20T12:11:09Z</time>
      </trkpt>
      <trkpt lat="46.0766" lon="1.87477">
        <ele>543</ele>
        <time>2016-12-20T12:13:09Z</time>
      </trkpt>
      <trkpt lat="46.07663" lon="1.87481">
        <ele>543</ele>
        <time>2016-12-20T12:15:09Z</time>
      </trkpt>
      <trkpt lat="46.07666" lon="1.87486">
        <ele>543</ele>
        <time>2016-12-20T12:17:09Z</time>
      </trkpt>
      <trkpt lat="46.07675" lon="1.87506">
        <ele>543</ele>
        <time>2016-12-20T12:19:09Z</time>
      </trkpt>
      <trkpt lat="46.07684" lon="1.87528">
        <ele>543</ele>
        <time>2016-12-20T12:21:09Z</time>
      </trkpt>
      <trkpt lat="46.07695" lon="1.87563">
        <ele>543</ele>
        <time>2016-12-20T12:23:09Z</time>
      </trkpt>
      <trkpt lat="46.077" lon="1.87587">
        <ele>543</ele>
        <time>2016-12-20T12:25:09Z</time>
      </trkpt>
      <trkpt lat="46.07702" lon="1.87599">
        <ele>543</ele>
        <time>2016-12-20T12:27:09Z</time>
      </trkpt>
      <trkpt lat="46.07711" lon="1.87617">
        <ele>545</ele>
        <time>2016-12-20T12:29:09Z</time>
      </trkpt>
      <trkpt lat="46.07728" lon="1.87633">
        <ele>548</ele>
        <time>2016-12-20T12:31:09Z</time>
      </trkpt>
      <trkpt lat="46.07741" lon="1.87658">
        <ele>551</ele>
        <time>2016-12-20T12:33:09Z</time>
      </trkpt>
      <trkpt lat="46.07754" lon="1.87663">
        <ele>554</ele>
        <time>2016-12-20T12:35:09Z</time>
      </trkpt>
      <trkpt lat="46.07776" lon="1.87662">
        <ele>560</ele>
        <time>2016-12-20T12:37:09Z</time>
      </trkpt>
      <trkpt lat="46.07777" lon="1.87662">
        <ele>561</ele>
        <time>2016-12-20T12:39:09Z</time>
      </trkpt>
      <trkpt lat="46.07782" lon="1.87656">
        <ele>561</ele>
        <time>2016-12-20T12:41:09Z</time>
      </trkpt>
      <trkpt lat="46.07783" lon="1.87656">
        <ele>562</ele>
        <time>2016-12-20T12:43:09Z</time>
      </trkpt>
      <trkpt lat="46.07784" lon="1.87656">
        <ele>562</ele>
        <time>2016-12-20T12:45:09Z</time>
      </trkpt>
      <trkpt lat="46.07802" lon="1.8766">
        <ele>568</ele>
        <time>2016-12-20T12:47:09Z</time>
      </trkpt>
      <trkpt lat="46.07803" lon="1.87658">
        <ele>568</ele>
        <time>2016-12-20T12:49:09Z</time>
      </trkpt>
      <trkpt lat="46.07822" lon="1.87638">
        <ele>570</ele>
        <time>2016-12-20T12:51:09Z</time>
      </trkpt>
      <trkpt lat="46.07823" lon="1.87638">
        <ele>570</ele>
        <time>2016-12-20T12:53:09Z</time>
      </trkpt>
      <trkpt lat="46.07827" lon="1.87632">
        <ele>570</ele>
        <time>2016-12-20T12:55:09Z</time>
      </trkpt>
      <trkpt lat="46.07832" lon="1.87626">
        <ele>570</ele>
        <time>2016-12-20T12:57:09Z</time>
      </trkpt>
      <trkpt lat="46.07837" lon="1.87619">
        <ele>569</ele>
        <time>2016-12-20T12:59:09Z</time>
      </trkpt>
      <trkpt lat="46.07839" lon="1.87617">
        <ele>569</ele>
        <time>2016-12-20T13:01:09Z</time>
      </trkpt>
      <trkpt lat="46.07841" lon="1.87618">
        <ele>570</ele>
        <time>2016-12-20T13:03:09Z</time>
      </trkpt>
      <trkpt lat="46.07842" lon="1.87619">
        <ele>570</ele>
        <time>2016-12-20T13:05:09Z</time>
      </trkpt>
      <trkpt lat="46.07842" lon="1.8762">
        <ele>570</ele>
        <time>2016-12-20T13:07:09Z</time>
      </trkpt>
      <trkpt lat="46.07843" lon="1.87622">
        <ele>571</ele>
        <time>2016-12-20T13:09:09Z</time>
      </trkpt>
      <trkpt lat="46.07845" lon="1.87653">
        <ele>577</ele>
        <time>2016-12-20T13:11:09Z</time>
      </trkpt>
      <trkpt lat="46.07846" lon="1.87652">
        <ele>577</ele>
        <time>2016-12-20T13:13:09Z</time>
      </trkpt>
      <trkpt lat="46.0786" lon="1.8766">
        <ele>580</ele>
        <time>2016-12-20T13:15:09Z</time>
      </trkpt>
      <trkpt lat="46.07864" lon="1.87675">
        <ele>583</ele>
        <time>2016-12-20T13:17:09Z</time>
      </trkpt>
      <trkpt lat="46.07866" lon="1.87679">
        <ele>583</ele>
        <time>2016-12-20T13:19:09Z</time>
      </trkpt>
      <trkpt lat="46.07869" lon="1.87683">
        <ele>584</ele>
        <time>2016-12-20T13:21:09Z</time>
      </trkpt>
      <trkpt lat="46.07871" lon="1.87686">
        <ele>585</ele>
        <time>2016-12-20T13:23:09Z</time>
      </trkpt>
      <trkpt lat="46.07873" lon="1.87686">
        <ele>585</ele>
        <time>2016-12-20T13:25:09Z</time>
      </trkpt>
      <trkpt lat="46.07875" lon="1.87697">
        <ele>586</ele>
        <time>2016-12-20T13:27:09Z</time>
      </trkpt>
      <trkpt lat="46.07876" lon="1.87701">
        <ele>587</ele>
        <time>2016-12-20T13:29:09Z</time>
      </trkpt>
      <trkpt lat="46.07877" lon="1.87703">
        <ele>587</ele>
        <time>2016-12-20T13:31:09Z</time>
      </trkpt>
      <trkpt lat="46.07876" lon="1.87705">
        <ele>587</ele>
        <time>2016-12-20T13:33:09Z</time>
      </trkpt>
      <trkpt lat="46.07876" lon="1.87706">
        <ele>587</ele>
        <time>2016-12-20T13:35:09Z</time>
      </trkpt>
      <trkpt lat="46.07876" lon="1.8771">
        <ele>588</ele>
        <time>2016-12-20T13:37:09Z</time>
      </trkpt>
      <trkpt lat="46.07883" lon="1.87717">
        <ele>590</ele>
        <time>2016-12-20T13:39:09Z</time>
      </trkpt>
      <trkpt lat="46.07885" lon="1.87721">
        <ele>590</ele>
        <time>2016-12-20T13:41:09Z</time>
      </trkpt>
      <trkpt lat="46.07885" lon="1.87722">
        <ele>590</ele>
        <time>2016-12-20T13:43:09Z</time>
      </trkpt>
      <trkpt lat="46.07886" lon="1.87724">
        <ele>591</ele>
        <time>2016-12-20T13:45:09Z</time>
      </trkpt>
      <trkpt lat="46.07888" lon="1.87725">
        <ele>591</ele>
        <time>2016-12-20T13:47:09Z</time>
      </trkpt>
      <trkpt lat="46.07891" lon="1.87729">
        <ele>592</ele>
        <time>2016-12-20T13:49:09Z</time>
      </trkpt>
      <trkpt lat="46.07896" lon="1.87739">
        <ele>594</ele>
        <time>2016-12-20T13:51:09Z</time>
      </trkpt>
      <trkpt lat="46.07896" lon="1.87741">
        <ele>594</ele>
        <time>2016-12-20T13:53:09Z</time>
      </trkpt>
      <trkpt lat="46.07898" lon="1.87746">
        <ele>595</ele>
        <time>2016-12-20T13:55:09Z</time>
      </trkpt>
      <trkpt lat="46.07898" lon="1.87748">
        <ele>596</ele>
        <time>2016-12-20T13:57:09Z</time>
      </trkpt>
      <trkpt lat="46.07901" lon="1.87758">
        <ele>597</ele>
        <time>2016-12-20T13:59:09Z</time>
      </trkpt>
      <trkpt lat="46.07903" lon="1.87766">
        <ele>597</ele>
        <time>2016-12-20T14:01:09Z</time>
      </trkpt>
      <trkpt lat="46.07906" lon="1.87778">
        <ele>598</ele>
        <time>2016-12-20T14:03:09Z</time>
      </trkpt>
      <trkpt lat="46.07906" lon="1.87779">
        <ele>598</ele>
        <time>2016-12-20T14:05:09Z</time>
      </trkpt>
      <trkpt lat="46.07906" lon="1.8778">
        <ele>598</ele>
        <time>2016-12-20T14:07:09Z</time>
      </trkpt>
      <trkpt lat="46.07905" lon="1.87782">
        <ele>598</ele>
        <time>2016-12-20T14:09:09Z</time>
      </trkpt>
      <trkpt lat="46.07904" lon="1.87785">
        <ele>598</ele>
        <time>2016-12-20T14:11:09Z</time>
      </trkpt>
      <trkpt lat="46.07905" lon="1.87795">
        <ele>598</ele>
        <time>2016-12-20T14:13:09Z</time>
      </trkpt>
      <trkpt lat="46.0791" lon="1.87805">
        <ele>599</ele>
        <time>2016-12-20T14:15:09Z</time>
      </trkpt>
      <trkpt lat="46.07916" lon="1.87817">
        <ele>600</ele>
        <time>2016-12-20T14:17:09Z</time>
      </trkpt>
      <trkpt lat="46.07919" lon="1.87832">
        <ele>601</ele>
        <time>2016-12-20T14:19:09Z</time>
      </trkpt>
      <trkpt lat="46.07922" lon="1.87844">
        <ele>602</ele>
        <time>2016-12-20T14:21:09Z</time>
      </trkpt>
      <trkpt lat="46.07923" lon="1.87846">
        <ele>602</ele>
        <time>2016-12-20T14:23:09Z</time>
      </trkpt>
      <trkpt lat="46.07923" lon="1.87849">
        <ele>602</ele>
        <time>2016-12-20T14:25:09Z</time>
      </trkpt>
      <trkpt lat="46.07922" lon="1.87852">
        <ele>602</ele>
        <time>2016-12-20T14:27:09Z</time>
      </trkpt>
      <trkpt lat="46.0792" lon="1.8786">
        <ele>602</ele>
        <time>2016-12-20T14:29:09Z</time>
      </trkpt>
      <trkpt lat="46.07918" lon="1.8787">
        <ele>602</ele>
        <time>2016-12-20T14:31:09Z</time>
      </trkpt>
      <trkpt lat="46.07916" lon="1.87889">
        <ele>603</ele>
        <time>2016-12-20T14:33:09Z</time>
      </trkpt>
      <trkpt lat="46.07912" lon="1.87904">
        <ele>602</ele>
        <time>2016-12-20T14:35:09Z</time>
      </trkpt>
      <trkpt lat="46.07911" lon="1.87909">
        <ele>602</ele>
        <time>2016-12-20T14:37:09Z</time>
      </trkpt>
      <trkpt lat="46.07905" lon="1.87925">
        <ele>601</ele>
        <time>2016-12-20T14:39:09Z</time>
      </trkpt>
      <trkpt lat="46.07903" lon="1.8793">
        <ele>601</ele>
        <time>2016-12-20T14:41:09Z</time>
      </trkpt>
      <trkpt lat="46.07903" lon="1.87935">
        <ele>601</ele>
        <time>2016-12-20T14:43:09Z</time>
      </trkpt>
      <trkpt lat="46.07903" lon="1.87946">
        <ele>601</ele>
        <time>2016-12-20T14:45:09Z</time>
      </trkpt>
      <trkpt lat="46.07901" lon="1.87962">
        <ele>600</ele>
        <time>2016-12-20T14:47:09Z</time>
      </trkpt>
      <trkpt lat="46.07902" lon="1.87975">
        <ele>600</ele>
        <time>2016-12-20T14:49:09Z</time>
      </trkpt>
      <trkpt lat="46.07902" lon="1.8799">
        <ele>600</ele>
        <time>2016-12-20T14:51:09Z</time>
      </trkpt>
      <trkpt lat="46.07903" lon="1.88002">
        <ele>601</ele>
        <time>2016-12-20T14:53:09Z</time>
      </trkpt>
      <trkpt lat="46.07905" lon="1.88005">
        <ele>601</ele>
        <time>2016-12-20T14:55:09Z</time>
      </trkpt>
      <trkpt lat="46.07905" lon="1.88006">
        <ele>601</ele>
        <time>2016-12-20T14:57:09Z</time>
      </trkpt>
      <trkpt lat="46.07906" lon="1.88008">
        <ele>601</ele>
        <time>2016-12-20T14:59:09Z</time>
      </trkpt>
      <trkpt lat="46.07913" lon="1.88013">
        <ele>603</ele>
        <time>2016-12-20T15:01:09Z</time>
      </trkpt>
      <trkpt lat="46.07914" lon="1.88014">
        <ele>603</ele>
        <time>2016-12-20T15:03:09Z</time>
      </trkpt>
      <trkpt lat="46.07921" lon="1.88015">
        <ele>604</ele>
        <time>2016-12-20T15:05:09Z</time>
      </trkpt>
      <trkpt lat="46.07929" lon="1.88017">
        <ele>604</ele>
        <time>2016-12-20T15:07:09Z</time>
      </trkpt>
      <trkpt lat="46.07938" lon="1.88013">
        <ele>606</ele>
        <time>2016-12-20T15:09:09Z</time>
      </trkpt>
      <trkpt lat="46.07943" lon="1.88013">
        <ele>606</ele>
        <time>2016-12-20T15:11:09Z</time>
      </trkpt>
      <trkpt lat="46.07948" lon="1.88012">
        <ele>607</ele>
        <time>2016-12-20T15:13:09Z</time>
      </trkpt>
      <trkpt lat="46.0795" lon="1.8801">
        <ele>607</ele>
        <time>2016-12-20T15:15:09Z</time>
      </trkpt>
      <trkpt lat="46.07954" lon="1.88009">
        <ele>607</ele>
        <time>2016-12-20T15:17:09Z</time>
      </trkpt>
      <trkpt lat="46.07957" lon="1.8801">
        <ele>608</ele>
        <time>2016-12-20T15:19:09Z</time>
      </trkpt>
      <trkpt lat="46.07961" lon="1.8801">
        <ele>608</ele>
        <time>2016-12-20T15:21:09Z</time>
      </trkpt>
      <trkpt lat="46.07964" lon="1.8801">
        <ele>608</ele>
        <time>2016-12-20T15:23:09Z</time>
      </trkpt>
      <trkpt lat="46.07965" lon="1.88012">
        <ele>608</ele>
        <time>2016-12-20T15:25:09Z</time>
      </trkpt>
      <trkpt lat="46.07975" lon="1.88016">
        <ele>609</ele>
        <time>2016-12-20T15:27:09Z</time>
      </trkpt>
      <trkpt lat="46.07984" lon="1.8802">
        <ele>610</ele>
        <time>2016-12-20T15:29:09Z</time>
      </trkpt>
      <trkpt lat="46.07994" lon="1.8803">
        <ele>611</ele>
        <time>2016-12-20T15:31:09Z</time>
      </trkpt>
      <trkpt lat="46.08004" lon="1.88033">
        <ele>611</ele>
        <time>2016-12-20T15:33:09Z</time>
      </trkpt>
      <trkpt lat="46.0802" lon="1.88031">
        <ele>611</ele>
        <time>2016-12-20T15:35:09Z</time>
      </trkpt>
      <trkpt lat="46.08034" lon="1.8803">
        <ele>611</ele>
        <time>2016-12-20T15:37:09Z</time>
      </trkpt>
      <trkpt lat="46.08061" lon="1.88036">
        <ele>610</ele>
        <time>2016-12-20T15:39:09Z</time>
      </trkpt>
      <trkpt lat="46.08064" lon="1.88039">
        <ele>610</ele>
        <time>2016-12-20T15:41:09Z</time>
      </trkpt>
      <trkpt lat="46.08066" lon="1.88042">
        <ele>610</ele>
        <time>2016-12-20T15:43:09Z</time>
      </trkpt>
      <trkpt lat="46.0807" lon="1.88044">
        <ele>609</ele>
        <time>2016-12-20T15:45:09Z</time>
      </trkpt>
      <trkpt lat="46.0808" lon="1.88045">
        <ele>609</ele>
        <time>2016-12-20T15:47:09Z</time>
      </trkpt>
      <trkpt lat="46.08086" lon="1.88046">
        <ele>609</ele>
        <time>2016-12-20T15:49:09Z</time>
      </trkpt>
      <trkpt lat="46.08091" lon="1.88049">
        <ele>609</ele>
        <time>2016-12-20T15:51:09Z</time>
      </trkpt>
      <trkpt lat="46.08096" lon="1.8805">
        <ele>608</ele>
        <time>2016-12-20T15:53:09Z</time>
      </trkpt>
      <trkpt lat="46.08101" lon="1.88051">
        <ele>608</ele>
        <time>2016-12-20T15:55:09Z</time>
      </trkpt>
      <trkpt lat="46.08113" lon="1.88055">
        <ele>608</ele>
        <time>2016-12-20T15:57:09Z</time>
      </trkpt>
      <trkpt lat="46.08119" lon="1.88057">
        <ele>608</ele>
        <time>2016-12-20T15:59:09Z</time>
      </trkpt>
      <trkpt lat="46.08125" lon="1.88059">
        <ele>608</ele>
        <time>2016-12-20T16:01:09Z</time>
      </trkpt>
      <trkpt lat="46.08131" lon="1.88061">
        <ele>608</ele>
        <time>2016-12-20T16:03:09Z</time>
      </trkpt>
      <trkpt lat="46.08138" lon="1.88065">
        <ele>608</ele>
        <time>2016-12-20T16:05:09Z</time>
      </trkpt>
      <trkpt lat="46.08144" lon="1.88068">
        <ele>608</ele>
        <time>2016-12-20T16:07:09Z</time>
      </trkpt>
      <trkpt lat="46.0815" lon="1.88071">
        <ele>608</ele>
        <time>2016-12-20T16:09:09Z</time>
      </trkpt>
      <trkpt lat="46.08156" lon="1.88072">
        <ele>608</ele>
        <time>2016-12-20T16:11:09Z</time>
      </trkpt>
      <trkpt lat="46.08161" lon="1.8807">
        <ele>608</ele>
        <time>2016-12-20T16:13:09Z</time>
      </trkpt>
      <trkpt lat="46.08175" lon="1.88065">
        <ele>606</ele>
        <time>2016-12-20T16:15:09Z</time>
      </trkpt>
      <trkpt lat="46.0819" lon="1.88058">
        <ele>603</ele>
        <time>2016-12-20T16:17:09Z</time>
      </trkpt>
      <trkpt lat="46.08203" lon="1.88048">
        <ele>600</ele>
        <time>2016-12-20T16:19:09Z</time>
      </trkpt>
      <trkpt lat="46.08207" lon="1.88043">
        <ele>599</ele>
        <time>2016-12-20T16:21:09Z</time>
      </trkpt>
      <trkpt lat="46.0821" lon="1.88039">
        <ele>599</ele>
        <time>2016-12-20T16:23:09Z</time>
      </trkpt>
      <trkpt lat="46.08213" lon="1.88035">
        <ele>598</ele>
        <time>2016-12-20T16:25:09Z</time>
      </trkpt>
      <trkpt lat="46.08215" lon="1.88028">
        <ele>597</ele>
        <time>2016-12-20T16:27:09Z</time>
      </trkpt>
      <trkpt lat="46.08217" lon="1.88022">
        <ele>597</ele>
        <time>2016-12-20T16:29:09Z</time>
      </trkpt>
      <trkpt lat="46.0822" lon="1.88016">
        <ele>596</ele>
        <time>2016-12-20T16:31:09Z</time>
      </trkpt>
      <trkpt lat="46.08223" lon="1.88009">
        <ele>595</ele>
        <time>2016-12-20T16:33:09Z</time>
      </trkpt>
      <trkpt lat="46.08225" lon="1.88007">
        <ele>595</ele>
        <time>2016-12-20T16:35:09Z</time>
      </trkpt>
      <trkpt lat="46.0823" lon="1.88003">
        <ele>594</ele>
        <time>2016-12-20T16:37:09Z</time>
      </trkpt>
      <trkpt lat="46.08235" lon="1.87996">
        <ele>592</ele>
        <time>2016-12-20T16:39:09Z</time>
      </trkpt>
      <trkpt lat="46.08241" lon="1.87994">
        <ele>591</ele>
        <time>2016-12-20T16:41:09Z</time>
      </trkpt>
      <trkpt lat="46.08242" lon="1.87993">
        <ele>591</ele>
        <time>2016-12-20T16:43:09Z</time>
      </trkpt>
      <trkpt lat="46.08248" lon="1.87995">
        <ele>590</ele>
        <time>2016-12-20T16:45:09Z</time>
      </trkpt>
      <trkpt lat="46.08254" lon="1.88002">
        <ele>590</ele>
        <time>2016-12-20T16:47:09Z</time>
      </trkpt>
      <trkpt lat="46.0826" lon="1.88007">
        <ele>589</ele>
        <time>2016-12-20T16:49:09Z</time>
      </trkpt>
      <trkpt lat="46.08273" lon="1.88023">
        <ele>588</ele>
        <time>2016-12-20T16:51:09Z</time>
      </trkpt>
      <trkpt lat="46.08309" lon="1.88042">
        <ele>586</ele>
        <time>2016-12-20T16:53:09Z</time>
      </trkpt>
      <trkpt lat="46.08323" lon="1.8805">
        <ele>585</ele>
        <time>2016-12-20T16:55:09Z</time>
      </trkpt>
      <trkpt lat="46.08344" lon="1.88065">
        <ele>586</ele>
        <time>2016-12-20T16:57:09Z</time>
      </trkpt>
      <trkpt lat="46.0836" lon="1.88079">
        <ele>588</ele>
        <time>2016-12-20T16:59:09Z</time>
      </trkpt>
      <trkpt lat="46.08369" lon="1.8809">
        <ele>590</ele>
        <time>2016-12-20T17:01:09Z</time>
      </trkpt>
      <trkpt lat="46.08379" lon="1.881">
        <ele>591</ele>
        <time>2016-12-20T17:03:09Z</time>
      </trkpt>
      <trkpt lat="46.08385" lon="1.88109">
        <ele>592</ele>
        <time>2016-12-20T17:05:09Z</time>
      </trkpt>
      <trkpt lat="46.08386" lon="1.88112">
        <ele>593</ele>
        <time>2016-12-20T17:07:09Z</time>
      </trkpt>
      <trkpt lat="46.08387" lon="1.88113">
        <ele>593</ele>
        <time>2016-12-20T17:09:09Z</time>
      </trkpt>
      <trkpt lat="46.08392" lon="1.88117">
        <ele>594</ele>
        <time>2016-12-20T17:11:09Z</time>
      </trkpt>
      <trkpt lat="46.08396" lon="1.88119">
        <ele>594</ele>
        <time>2016-12-20T17:13:09Z</time>
      </trkpt>
      <trkpt lat="46.08401" lon="1.88117">
        <ele>595</ele>
        <time>2016-12-20T17:15:09Z</time>
      </trkpt>
      <trkpt lat="46.08407" lon="1.88123">
        <ele>596</ele>
        <time>2016-12-20T17:17:09Z</time>
      </trkpt>
      <trkpt lat="46.08409" lon="1.88124">
        <ele>596</ele>
        <time>2016-12-20T17:19:09Z</time>
      </trkpt>
      <trkpt lat="46.08412" lon="1.88125">
        <ele>596</ele>
        <time>2016-12-20T17:21:09Z</time>
      </trkpt>
      <trkpt lat="46.08414" lon="1.88125">
        <ele>597</ele>
        <time>2016-12-20T17:23:09Z</time>
      </trkpt>
      <trkpt lat="46.08416" lon="1.88126">
        <ele>597</ele>
        <time>2016-12-20T17:25:09Z</time>
      </trkpt>
      <trkpt lat="46.08422" lon="1.8813">
        <ele>598</ele>
        <time>2016-12-20T17:27:09Z</time>
      </trkpt>
      <trkpt lat="46.08426" lon="1.88132">
        <ele>598</ele>
        <time>2016-12-20T17:29:09Z</time>
      </trkpt>
      <trkpt lat="46.08432" lon="1.88134">
        <ele>599</ele>
        <time>2016-12-20T17:31:09Z</time>
      </trkpt>
      <trkpt lat="46.08442" lon="1.88139">
        <ele>600</ele>
        <time>2016-12-20T17:33:09Z</time>
      </trkpt>
      <trkpt lat="46.08445" lon="1.8814">
        <ele>601</ele>
        <time>2016-12-20T17:35:09Z</time>
      </trkpt>
      <trkpt lat="46.08447" lon="1.88142">
        <ele>601</ele>
        <time>2016-12-20T17:37:09Z</time>
      </trkpt>
      <trkpt lat="46.08451" lon="1.88145">
        <ele>602</ele>
        <time>2016-12-20T17:39:09Z</time>
      </trkpt>
      <trkpt lat="46.08456" lon="1.8815">
        <ele>603</ele>
        <time>2016-12-20T17:41:09Z</time>
      </trkpt>
      <trkpt lat="46.08458" lon="1.88152">
        <ele>603</ele>
        <time>2016-12-20T17:43:09Z</time>
      </trkpt>
      <trkpt lat="46.08471" lon="1.88169">
        <ele>605</ele>
        <time>2016-12-20T17:45:09Z</time>
      </trkpt>
      <trkpt lat="46.08474" lon="1.8817">
        <ele>605</ele>
        <time>2016-12-20T17:47:09Z</time>
      </trkpt>
      <trkpt lat="46.08479" lon="1.88177">
        <ele>606</ele>
        <time>2016-12-20T17:49:09Z</time>
      </trkpt>
      <trkpt lat="46.08484" lon="1.88182">
        <ele>606</ele>
        <time>2016-12-20T17:51:09Z</time>
      </trkpt>
      <trkpt lat="46.08487" lon="1.88185">
        <ele>606</ele>
        <time>2016-12-20T17:53:09Z</time>
      </trkpt>
      <trkpt lat="46.08489" lon="1.8819">
        <ele>606</ele>
        <time>2016-12-20T17:55:09Z</time>
      </trkpt>
      <trkpt lat="46.0849" lon="1.88194">
        <ele>606</ele>
        <time>2016-12-20T17:57:09Z</time>
      </trkpt>
      <trkpt lat="46.08494" lon="1.88201">
        <ele>606</ele>
        <time>2016-12-20T17:59:09Z</time>
      </trkpt>
      <trkpt lat="46.08496" lon="1.88203">
        <ele>606</ele>
        <time>2016-12-20T18:01:09Z</time>
      </trkpt>
      <trkpt lat="46.08499" lon="1.88209">
        <ele>606</ele>
        <time>2016-12-20T18:03:09Z</time>
      </trkpt>
      <trkpt lat="46.08502" lon="1.88211">
        <ele>607</ele>
        <time>2016-12-20T18:05:09Z</time>
      </trkpt>
      <trkpt lat="46.08514" lon="1.88221">
        <ele>609</ele>
        <time>2016-12-20T18:07:09Z</time>
      </trkpt>
      <trkpt lat="46.08515" lon="1.88222">
        <ele>609</ele>
        <time>2016-12-20T18:09:09Z</time>
      </trkpt>
      <trkpt lat="46.08523" lon="1.88226">
        <ele>610</ele>
        <time>2016-12-20T18:11:09Z</time>
      </trkpt>
      <trkpt lat="46.08525" lon="1.88227">
        <ele>610</ele>
        <time>2016-12-20T18:13:09Z</time>
      </trkpt>
      <trkpt lat="46.08528" lon="1.88228">
        <ele>611</ele>
        <time>2016-12-20T18:15:09Z</time>
      </trkpt>
      <trkpt lat="46.08532" lon="1.8823">
        <ele>611</ele>
        <time>2016-12-20T18:17:09Z</time>
      </trkpt>
      <trkpt lat="46.08537" lon="1.88233">
        <ele>612</ele>
        <time>2016-12-20T18:19:09Z</time>
      </trkpt>
      <trkpt lat="46.08544" lon="1.88236">
        <ele>613</ele>
        <time>2016-12-20T18:21:09Z</time>
      </trkpt>
      <trkpt lat="46.08547" lon="1.88239">
        <ele>614</ele>
        <time>2016-12-20T18:23:09Z</time>
      </trkpt>
      <trkpt lat="46.08548" lon="1.88239">
        <ele>614</ele>
        <time>2016-12-20T18:25:09Z</time>
      </trkpt>
      <trkpt lat="46.08551" lon="1.8824">
        <ele>614</ele>
        <time>2016-12-20T18:27:09Z</time>
      </trkpt>
      <trkpt lat="46.0858" lon="1.88243">
        <ele>620</ele>
        <time>2016-12-20T18:29:09Z</time>
      </trkpt>
      <trkpt lat="46.08593" lon="1.88247">
        <ele>620</ele>
        <time>2016-12-20T18:31:09Z</time>
      </trkpt>
      <trkpt lat="46.086" lon="1.88248">
        <ele>620</ele>
        <time>2016-12-20T18:33:09Z</time>
      </trkpt>
      <trkpt lat="46.08601" lon="1.88249">
        <ele>620</ele>
        <time>2016-12-20T18:35:09Z</time>
      </trkpt>
      <trkpt lat="46.08609" lon="1.88249">
        <ele>620</ele>
        <time>2016-12-20T18:37:09Z</time>
      </trkpt>
      <trkpt lat="46.0861" lon="1.8825">
        <ele>620</ele>
        <time>2016-12-20T18:39:09Z</time>
      </trkpt>
      <trkpt lat="46.08618" lon="1.88247">
        <ele>620</ele>
        <time>2016-12-20T18:41:09Z</time>
      </trkpt>
      <trkpt lat="46.08628" lon="1.88248">
        <ele>620</ele>
        <time>2016-12-20T18:43:09Z</time>
      </trkpt>
      <trkpt lat="46.08639" lon="1.88253">
        <ele>619</ele>
        <time>2016-12-20T18:45:09Z</time>
      </trkpt>
      <trkpt lat="46.08641" lon="1.88253">
        <ele>619</ele>
        <time>2016-12-20T18:47:09Z</time>
      </trkpt>
      <trkpt lat="46.08664" lon="1.88247">
        <ele>619</ele>
        <time>2016-12-20T18:49:09Z</time>
      </trkpt>
      <trkpt lat="46.08669" lon="1.88244">
        <ele>619</ele>
        <time>2016-12-20T18:51:09Z</time>
      </trkpt>
      <trkpt lat="46.08673" lon="1.88239">
        <ele>619</ele>
        <time>2016-12-20T18:53:09Z</time>
      </trkpt>
      <trkpt lat="46.08679" lon="1.88232">
        <ele>618</ele>
        <time>2016-12-20T18:55:09Z</time>
      </trkpt>
      <trkpt lat="46.08684" lon="1.88224">
        <ele>618</ele>
        <time>2016-12-20T18:57:09Z</time>
      </trkpt>
      <trkpt lat="46.08697" lon="1.88212">
        <ele>617</ele>
        <time>2016-12-20T18:59:09Z</time>
      </trkpt>
      <trkpt lat="46.08704" lon="1.88208">
        <ele>616</ele>
        <time>2016-12-20T19:01:09Z</time>
      </trkpt>
      <trkpt lat="46.08712" lon="1.88205">
        <ele>615</ele>
        <time>2016-12-20T19:03:09Z</time>
      </trkpt>
      <trkpt lat="46.08719" lon="1.882">
        <ele>615</ele>
        <time>2016-12-20T19:05:09Z</time>
      </trkpt>
      <trkpt lat="46.08736" lon="1.88188">
        <ele>613</ele>
        <time>2016-12-20T19:07:09Z</time>
      </trkpt>
      <trkpt lat="46.08753" lon="1.88178">
        <ele>612</ele>
        <time>2016-12-20T19:09:09Z</time>
      </trkpt>
      <trkpt lat="46.08763" lon="1.88173">
        <ele>611</ele>
        <time>2016-12-20T19:11:09Z</time>
      </trkpt>
      <trkpt lat="46.08774" lon="1.88168">
        <ele>609</ele>
        <time>2016-12-20T19:13:09Z</time>
      </trkpt>
      <trkpt lat="46.08783" lon="1.88163">
        <ele>607</ele>
        <time>2016-12-20T19:15:09Z</time>
      </trkpt>
      <trkpt lat="46.08793" lon="1.88157">
        <ele>605</ele>
        <time>2016-12-20T19:17:09Z</time>
      </trkpt>
      <trkpt lat="46.08808" lon="1.88149">
        <ele>602</ele>
        <time>2016-12-20T19:19:09Z</time>
      </trkpt>
      <trkpt lat="46.08846" lon="1.88132">
        <ele>596</ele>
        <time>2016-12-20T19:21:09Z</time>
      </trkpt>
      <trkpt lat="46.08852" lon="1.8813">
        <ele>595</ele>
        <time>2016-12-20T19:23:09Z</time>
      </trkpt>
      <trkpt lat="46.0889" lon="1.88123">
        <ele>594</ele>
        <time>2016-12-20T19:25:09Z</time>
      </trkpt>
      <trkpt lat="46.089" lon="1.88123">
        <ele>594</ele>
        <time>2016-12-20T19:27:09Z</time>
      </trkpt>
      <trkpt lat="46.08915" lon="1.88128">
        <ele>593</ele>
        <time>2016-12-20T19:29:09Z</time>
      </trkpt>
      <trkpt lat="46.08924" lon="1.88128">
        <ele>593</ele>
        <time>2016-12-20T19:31:09Z</time>
      </trkpt>
      <trkpt lat="46.08926" lon="1.88129">
        <ele>593</ele>
        <time>2016-12-20T19:33:09Z</time>
      </trkpt>
      <trkpt lat="46.08936" lon="1.88142">
        <ele>593</ele>
        <time>2016-12-20T19:35:09Z</time>
      </trkpt>
      <trkpt lat="46.08948" lon="1.88157">
        <ele>593</ele>
        <time>2016-12-20T19:37:09Z</time>
      </trkpt>
      <trkpt lat="46.08958" lon="1.88174">
        <ele>593</ele>
        <time>2016-12-20T19:39:09Z</time>
      </trkpt>
      <trkpt lat="46.08968" lon="1.88209">
        <ele>595</ele>
        <time>2016-12-20T19:41:09Z</time>
      </trkpt>
      <trkpt lat="46.08971" lon="1.88234">
        <ele>596</ele>
        <time>2016-12-20T19:43:09Z</time>
      </trkpt>
      <trkpt lat="46.08978" lon="1.88239">
        <ele>597</ele>
        <time>2016-12-20T19:45:09Z</time>
      </trkpt>
      <trkpt lat="46.08986" lon="1.88242">
        <ele>597</ele>
        <time>2016-12-20T19:47:09Z</time>
      </trkpt>
      <trkpt lat="46.08992" lon="1.88245">
        <ele>598</ele>
        <time>2016-12-20T19:49:09Z</time>
      </trkpt>
      <trkpt lat="46.08997" lon="1.88248">
        <ele>599</ele>
        <time>2016-12-20T19:51:09Z</time>
      </trkpt>
      <trkpt lat="46.09" lon="1.88248">
        <ele>599</ele>
        <time>2016-12-20T19:53:09Z</time>
      </trkpt>
      <trkpt lat="46.09004" lon="1.88249">
        <ele>599</ele>
        <time>2016-12-20T19:55:09Z</time>
      </trkpt>
      <trkpt lat="46.09011" lon="1.88255">
        <ele>601</ele>
        <time>2016-12-20T19:57:09Z</time>
      </trkpt>
      <trkpt lat="46.0902" lon="1.88258">
        <ele>602</ele>
        <time>2016-12-20T19:59:09Z</time>
      </trkpt>
      <trkpt lat="46.09024" lon="1.88261">
        <ele>603</ele>
        <time>2016-12-20T20:01:09Z</time>
      </trkpt>
      <trkpt lat="46.09028" lon="1.88266">
        <ele>604</ele>
        <time>2016-12-20T20:03:09Z</time>
      </trkpt>
      <trkpt lat="46.0903" lon="1.88267">
        <ele>604</ele>
        <time>2016-12-20T20:05:09Z</time>
      </trkpt>
      <trkpt lat="46.09032" lon="1.88268">
        <ele>605</ele>
        <time>2016-12-20T20:07:09Z</time>
      </trkpt>
      <trkpt lat="46.09034" lon="1.88268">
        <ele>605</ele>
        <time>2016-12-20T20:09:09Z</time>
      </trkpt>
      <trkpt lat="46.09036" lon="1.88267">
        <ele>605</ele>
        <time>2016-12-20T20:11:09Z</time>
      </trkpt>
      <trkpt lat="46.09041" lon="1.88267">
        <ele>605</ele>
        <time>2016-12-20T20:13:09Z</time>
      </trkpt>
      <trkpt lat="46.09043" lon="1.88268">
        <ele>606</ele>
        <time>2016-12-20T20:15:09Z</time>
      </trkpt>
      <trkpt lat="46.09047" lon="1.88273">
        <ele>607</ele>
        <time>2016-12-20T20:17:09Z</time>
      </trkpt>
      <trkpt lat="46.09049" lon="1.88275">
        <ele>607</ele>
        <time>2016-12-20T20:19:09Z</time>
      </trkpt>
      <trkpt lat="46.09054" lon="1.8828">
        <ele>608</ele>
        <time>2016-12-20T20:21:09Z</time>
      </trkpt>
      <trkpt lat="46.09055" lon="1.8828">
        <ele>608</ele>
        <time>2016-12-20T20:23:09Z</time>
      </trkpt>
      <trkpt lat="46.09057" lon="1.88281">
        <ele>609</ele>
        <time>2016-12-20T20:25:09Z</time>
      </trkpt>
      <trkpt lat="46.09059" lon="1.88281">
        <ele>609</ele>
        <time>2016-12-20T20:27:09Z</time>
      </trkpt>
      <trkpt lat="46.09062" lon="1.88285">
        <ele>610</ele>
        <time>2016-12-20T20:29:09Z</time>
      </trkpt>
      <trkpt lat="46.09065" lon="1.88286">
        <ele>610</ele>
        <time>2016-12-20T20:31:09Z</time>
      </trkpt>
      <trkpt lat="46.0907" lon="1.8829">
        <ele>611</ele>
        <time>2016-12-20T20:33:09Z</time>
      </trkpt>
      <trkpt lat="46.09075" lon="1.88293">
        <ele>612</ele>
        <time>2016-12-20T20:35:09Z</time>
      </trkpt>
      <trkpt lat="46.09077" lon="1.88295">
        <ele>612</ele>
        <time>2016-12-20T20:37:09Z</time>
      </trkpt>
      <trkpt lat="46.0908" lon="1.88299">
        <ele>613</ele>
        <time>2016-12-20T20:39:09Z</time>
      </trkpt>
      <trkpt lat="46.0908" lon="1.88301">
        <ele>613</ele>
        <time>2016-12-20T20:41:09Z</time>
      </trkpt>
      <trkpt lat="46.09088" lon="1.88305">
        <ele>614</ele>
        <time>2016-12-20T20:43:09Z</time>
      </trkpt>
      <trkpt lat="46.09093" lon="1.88306">
        <ele>614</ele>
        <time>2016-12-20T20:45:09Z</time>
      </trkpt>
      <trkpt lat="46.09096" lon="1.88308">
        <ele>614</ele>
        <time>2016-12-20T20:47:09Z</time>
      </trkpt>
      <trkpt lat="46.09099" lon="1.88311">
        <ele>615</ele>
        <time>2016-12-20T20:49:09Z</time>
      </trkpt>
      <trkpt lat="46.091" lon="1.88313">
        <ele>615</ele>
        <time>2016-12-20T20:51:09Z</time>
      </trkpt>
      <trkpt lat="46.09109" lon="1.88318">
        <ele>616</ele>
        <time>2016-12-20T20:53:09Z</time>
      </trkpt>
      <trkpt lat="46.09119" lon="1.88322">
        <ele>616</ele>
        <time>2016-12-20T20:55:09Z</time>
      </trkpt>
      <trkpt lat="46.0913" lon="1.88328">
        <ele>617</ele>
        <time>2016-12-20T20:57:09Z</time>
      </trkpt>
      <trkpt lat="46.09142" lon="1.88338">
        <ele>617</ele>
        <time>2016-12-20T20:59:09Z</time>
      </trkpt>
      <trkpt lat="46.09152" lon="1.88345">
        <ele>617</ele>
        <time>2016-12-20T21:01:09Z</time>
      </trkpt>
      <trkpt lat="46.09164" lon="1.88355">
        <ele>617</ele>
        <time>2016-12-20T21:03:09Z</time>
      </trkpt>
      <trkpt lat="46.0918" lon="1.88364">
        <ele>618</ele>
        <time>2016-12-20T21:05:09Z</time>
      </trkpt>
      <trkpt lat="46.092" lon="1.88369">
        <ele>619</ele>
        <time>2016-12-20T21:07:09Z</time>
      </trkpt>
      <trkpt lat="46.09214" lon="1.8838">
        <ele>619</ele>
        <time>2016-12-20T21:09:09Z</time>
      </trkpt>
      <trkpt lat="46.09223" lon="1.88387">
        <ele>619</ele>
        <time>2016-12-20T21:11:09Z</time>
      </trkpt>
      <trkpt lat="46.09227" lon="1.88389">
        <ele>619</ele>
        <time>2016-12-20T21:13:09Z</time>
      </trkpt>
      <trkpt lat="46.09246" lon="1.88401">
        <ele>619</ele>
        <time>2016-12-20T21:15:09Z</time>
      </trkpt>
      <trkpt lat="46.09252" lon="1.884">
        <ele>619</ele>
        <time>2016-12-20T21:17:09Z</time>
      </trkpt>
      <trkpt lat="46.09254" lon="1.88404">
        <ele>619</ele>
        <time>2016-12-20T21:19:09Z</time>
      </trkpt>
      <trkpt lat="46.09256" lon="1.88406">
        <ele>619</ele>
        <time>2016-12-20T21:21:09Z</time>
      </trkpt>
      <trkpt lat="46.09264" lon="1.88413">
        <ele>619</ele>
        <time>2016-12-20T21:23:09Z</time>
      </trkpt>
      <trkpt lat="46.09273" lon="1.88421">
        <ele>618</ele>
        <time>2016-12-20T21:25:09Z</time>
      </trkpt>
      <trkpt lat="46.09287" lon="1.88431">
        <ele>617</ele>
        <time>2016-12-20T21:27:09Z</time>
      </trkpt>
      <trkpt lat="46.0929" lon="1.88432">
        <ele>617</ele>
        <time>2016-12-20T21:29:09Z</time>
      </trkpt>
      <trkpt lat="46.09294" lon="1.88435">
        <ele>616</ele>
        <time>2016-12-20T21:31:09Z</time>
      </trkpt>
      <trkpt lat="46.09296" lon="1.88438">
        <ele>616</ele>
        <time>2016-12-20T21:33:09Z</time>
      </trkpt>
      <trkpt lat="46.09298" lon="1.8844">
        <ele>615</ele>
        <time>2016-12-20T21:35:09Z</time>
      </trkpt>
      <trkpt lat="46.093" lon="1.88441">
        <ele>615</ele>
        <time>2016-12-20T21:37:09Z</time>
      </trkpt>
      <trkpt lat="46.09307" lon="1.8844">
        <ele>615</ele>
        <time>2016-12-20T21:39:09Z</time>
      </trkpt>
      <trkpt lat="46.09319" lon="1.88445">
        <ele>614</ele>
        <time>2016-12-20T21:41:09Z</time>
      </trkpt>
      <trkpt lat="46.0932" lon="1.88447">
        <ele>614</ele>
        <time>2016-12-20T21:43:09Z</time>
      </trkpt>
      <trkpt lat="46.09322" lon="1.8845">
        <ele>613</ele>
        <time>2016-12-20T21:45:09Z</time>
      </trkpt>
      <trkpt lat="46.09328" lon="1.8845">
        <ele>613</ele>
        <time>2016-12-20T21:47:09Z</time>
      </trkpt>
      <trkpt lat="46.09343" lon="1.88454">
        <ele>612</ele>
        <time>2016-12-20T21:49:09Z</time>
      </trkpt>
      <trkpt lat="46.09356" lon="1.88452">
        <ele>612</ele>
        <time>2016-12-20T21:51:09Z</time>
      </trkpt>
      <trkpt lat="46.09359" lon="1.88453">
        <ele>612</ele>
        <time>2016-12-20T21:53:09Z</time>
      </trkpt>
      <trkpt lat="46.09376" lon="1.88453">
        <ele>612</ele>
        <time>2016-12-20T21:55:09Z</time>
      </trkpt>
      <trkpt lat="46.094" lon="1.88454">
        <ele>611</ele>
        <time>2016-12-20T21:57:09Z</time>
      </trkpt>
      <trkpt lat="46.09432" lon="1.88446">
        <ele>611</ele>
        <time>2016-12-20T21:59:09Z</time>
      </trkpt>
      <trkpt lat="46.0946" lon="1.88431">
        <ele>612</ele>
        <time>2016-12-20T22:01:09Z</time>
      </trkpt>
      <trkpt lat="46.09495" lon="1.88428">
        <ele>610</ele>
        <time>2016-12-20T22:03:09Z</time>
      </trkpt>
      <trkpt lat="46.09509" lon="1.88402">
        <ele>612</ele>
        <time>2016-12-20T22:05:09Z</time>
      </trkpt>
      <trkpt lat="46.09526" lon="1.88379">
        <ele>614</ele>
        <time>2016-12-20T22:07:09Z</time>
      </trkpt>
      <trkpt lat="46.0956" lon="1.88364">
        <ele>613</ele>
        <time>2016-12-20T22:09:09Z</time>
      </trkpt>
      <trkpt lat="46.09618" lon="1.88323">
        <ele>614</ele>
        <time>2016-12-20T22:11:09Z</time>
      </trkpt>
      <trkpt lat="46.09644" lon="1.88302">
        <ele>615</ele>
        <time>2016-12-20T22:13:09Z</time>
      </trkpt>
      <trkpt lat="46.09655" lon="1.88282">
        <ele>617</ele>
        <time>2016-12-20T22:15:09Z</time>
      </trkpt>
      <trkpt lat="46.09675" lon="1.88261">
        <ele>616</ele>
        <time>2016-12-20T22:17:09Z</time>
      </trkpt>
      <trkpt lat="46.09693" lon="1.88243">
        <ele>614</ele>
        <time>2016-12-20T22:19:09Z</time>
      </trkpt>
      <trkpt lat="46.09717" lon="1.8822">
        <ele>612</ele>
        <time>2016-12-20T22:21:09Z</time>
      </trkpt>
      <trkpt lat="46.09733" lon="1.88206">
        <ele>611</ele>
        <time>2016-12-20T22:23:09Z</time>
      </trkpt>
      <trkpt lat="46.09737" lon="1.88197">
        <ele>611</ele>
        <time>2016-12-20T22:25:09Z</time>
      </trkpt>
      <trkpt lat="46.09746" lon="1.88189">
        <ele>611</ele>
        <time>2016-12-20T22:27:09Z</time>
      </trkpt>
      <trkpt lat="46.09752" lon="1.88183">
        <ele>611</ele>
        <time>2016-12-20T22:29:09Z</time>
      </trkpt>
      <trkpt lat="46.09756" lon="1.8818">
        <ele>611</ele>
        <time>2016-12-20T22:31:09Z</time>
      </trkpt>
      <trkpt lat="46.09758" lon="1.88175">
        <ele>611</ele>
        <time>2016-12-20T22:33:09Z</time>
      </trkpt>
      <trkpt lat="46.09761" lon="1.88171">
        <ele>612</ele>
        <time>2016-12-20T22:35:09Z</time>
      </trkpt>
      <trkpt lat="46.09766" lon="1.88167">
        <ele>612</ele>
        <time>2016-12-20T22:37:09Z</time>
      </trkpt>
      <trkpt lat="46.09769" lon="1.8816">
        <ele>612</ele>
        <time>2016-12-20T22:39:09Z</time>
      </trkpt>
      <trkpt lat="46.09769" lon="1.88158">
        <ele>612</ele>
        <time>2016-12-20T22:41:09Z</time>
      </trkpt>
      <trkpt lat="46.09773" lon="1.88152">
        <ele>612</ele>
        <time>2016-12-20T22:43:09Z</time>
      </trkpt>
      <trkpt lat="46.09776" lon="1.8815">
        <ele>612</ele>
        <time>2016-12-20T22:45:09Z</time>
      </trkpt>
      <trkpt lat="46.0978" lon="1.88144">
        <ele>612</ele>
        <time>2016-12-20T22:47:09Z</time>
      </trkpt>
      <trkpt lat="46.09782" lon="1.88141">
        <ele>612</ele>
        <time>2016-12-20T22:49:09Z</time>
      </trkpt>
      <trkpt lat="46.09785" lon="1.88138">
        <ele>612</ele>
        <time>2016-12-20T22:51:09Z</time>
      </trkpt>
      <trkpt lat="46.09785" lon="1.88136">
        <ele>612</ele>
        <time>2016-12-20T22:53:09Z</time>
      </trkpt>
      <trkpt lat="46.09789" lon="1.88131">
        <ele>612</ele>
        <time>2016-12-20T22:55:09Z</time>
      </trkpt>
      <trkpt lat="46.09795" lon="1.88123">
        <ele>613</ele>
        <time>2016-12-20T22:57:09Z</time>
      </trkpt>
      <trkpt lat="46.09802" lon="1.88116">
        <ele>613</ele>
        <time>2016-12-20T22:59:09Z</time>
      </trkpt>
      <trkpt lat="46.09806" lon="1.88115">
        <ele>612</ele>
        <time>2016-12-20T23:01:09Z</time>
      </trkpt>
      <trkpt lat="46.0981" lon="1.88114">
        <ele>612</ele>
        <time>2016-12-20T23:03:09Z</time>
      </trkpt>
      <trkpt lat="46.09813" lon="1.88108">
        <ele>613</ele>
        <time>2016-12-20T23:05:09Z</time>
      </trkpt>
      <trkpt lat="46.09814" lon="1.88106">
        <ele>613</ele>
        <time>2016-12-20T23:07:09Z</time>
      </trkpt>
      <trkpt lat="46.09818" lon="1.88103">
        <ele>613</ele>
        <time>2016-12-20T23:09:09Z</time>
      </trkpt>
      <trkpt lat="46.09821" lon="1.881">
        <ele>613</ele>
        <time>2016-12-20T23:11:09Z</time>
      </trkpt>
      <trkpt lat="46.09823" lon="1.88099">
        <ele>613</ele>
        <time>2016-12-20T23:13:09Z</time>
      </trkpt>
      <trkpt lat="46.09826" lon="1.88096">
        <ele>613</ele>
        <time>2016-12-20T23:15:09Z</time>
      </trkpt>
      <trkpt lat="46.09834" lon="1.88094">
        <ele>612</ele>
        <time>2016-12-20T23:17:09Z</time>
      </trkpt>
      <trkpt lat="46.0984" lon="1.88088">
        <ele>613</ele>
        <time>2016-12-20T23:19:09Z</time>
      </trkpt>
      <trkpt lat="46.09843" lon="1.88086">
        <ele>613</ele>
        <time>2016-12-20T23:21:09Z</time>
      </trkpt>
      <trkpt lat="46.09847" lon="1.88084">
        <ele>614</ele>
        <time>2016-12-20T23:23:09Z</time>
      </trkpt>
      <trkpt lat="46.0985" lon="1.88083">
        <ele>614</ele>
        <time>2016-12-20T23:25:09Z</time>
      </trkpt>
      <trkpt lat="46.09858" lon="1.8808">
        <ele>614</ele>
        <time>2016-12-20T23:27:09Z</time>
      </trkpt>
      <trkpt lat="46.0986" lon="1.8808">
        <ele>613</ele>
        <time>2016-12-20T23:29:09Z</time>
      </trkpt>
      <trkpt lat="46.09865" lon="1.88078">
        <ele>613</ele>
        <time>2016-12-20T23:31:09Z</time>
      </trkpt>
      <trkpt lat="46.0987" lon="1.8806">
        <ele>614</ele>
        <time>2016-12-20T23:33:09Z</time>
      </trkpt>
      <trkpt lat="46.09888" lon="1.88062">
        <ele>613</ele>
        <time>2016-12-20T23:35:09Z</time>
      </trkpt>
      <trkpt lat="46.09894" lon="1.88061">
        <ele>613</ele>
        <time>2016-12-20T23:37:09Z</time>
      </trkpt>
      <trkpt lat="46.099" lon="1.88061">
        <ele>613</ele>
        <time>2016-12-20T23:39:09Z</time>
      </trkpt>
      <trkpt lat="46.09904" lon="1.8806">
        <ele>613</ele>
        <time>2016-12-20T23:41:09Z</time>
      </trkpt>
      <trkpt lat="46.09919" lon="1.88062">
        <ele>612</ele>
        <time>2016-12-20T23:43:09Z</time>
      </trkpt>
      <trkpt lat="46.09932" lon="1.88066">
        <ele>612</ele>
        <time>2016-12-20T23:45:09Z</time>
      </trkpt>
      <trkpt lat="46.09943" lon="1.88064">
        <ele>613</ele>
        <time>2016-12-20T23:47:09Z</time>
      </trkpt>
      <trkpt lat="46.09956" lon="1.88059">
        <ele>613</ele>
        <time>2016-12-20T23:49:09Z</time>
      </trkpt>
      <trkpt lat="46.0996" lon="1.8806">
        <ele>613</ele>
        <time>2016-12-20T23:51:09Z</time>
      </trkpt>
      <trkpt lat="46.0997" lon="1.88058">
        <ele>613</ele>
        <time>2016-12-20T23:53:09Z</time>
      </trkpt>
      <trkpt lat="46.09976" lon="1.88055">
        <ele>613</ele>
        <time>2016-12-20T23:55:09Z</time>
      </trkpt>
      <trkpt lat="46.09979" lon="1.88053">
        <ele>613</ele>
        <time>2016-12-20T23:57:09Z</time>
      </trkpt>
      <trkpt lat="46.09989" lon="1.88044">
        <ele>614</ele>
        <time>2016-12-20T23:59:09Z</time>
      </trkpt>
      <trkpt lat="46.09997" lon="1.88041">
        <ele>614</ele>
        <time>2016-12-21T00:01:09Z</time>
      </trkpt>
      <trkpt lat="46.10011" lon="1.88035">
        <ele>613</ele>
        <time>2016-12-21T00:03:09Z</time>
      </trkpt>
      <trkpt lat="46.10025" lon="1.88026">
        <ele>613</ele>
        <time>2016-12-21T00:05:09Z</time>
      </trkpt>
      <trkpt lat="46.10032" lon="1.88026">
        <ele>613</ele>
        <time>2016-12-21T00:07:09Z</time>
      </trkpt>
      <trkpt lat="46.10042" lon="1.88032">
        <ele>612</ele>
        <time>2016-12-21T00:09:09Z</time>
      </trkpt>
      <trkpt lat="46.10049" lon="1.88036">
        <ele>612</ele>
        <time>2016-12-21T00:11:09Z</time>
      </trkpt>
      <trkpt lat="46.10052" lon="1.88036">
        <ele>611</ele>
        <time>2016-12-21T00:13:09Z</time>
      </trkpt>
      <trkpt lat="46.10054" lon="1.88037">
        <ele>611</ele>
        <time>2016-12-21T00:15:09Z</time>
      </trkpt>
      <trkpt lat="46.10057" lon="1.88035">
        <ele>611</ele>
        <time>2016-12-21T00:17:09Z</time>
      </trkpt>
      <trkpt lat="46.10066" lon="1.88035">
        <ele>611</ele>
        <time>2016-12-21T00:19:09Z</time>
      </trkpt>
      <trkpt lat="46.1008" lon="1.88012">
        <ele>611</ele>
        <time>2016-12-21T00:21:09Z</time>
      </trkpt>
      <trkpt lat="46.10095" lon="1.88001">
        <ele>611</ele>
        <time>2016-12-21T00:23:09Z</time>
      </trkpt>
      <trkpt lat="46.10105" lon="1.87989">
        <ele>609</ele>
        <time>2016-12-21T00:25:09Z</time>
      </trkpt>
      <trkpt lat="46.10123" lon="1.87967">
        <ele>607</ele>
        <time>2016-12-21T00:27:09Z</time>
      </trkpt>
      <trkpt lat="46.10144" lon="1.87947">
        <ele>606</ele>
        <time>2016-12-21T00:29:09Z</time>
      </trkpt>
      <trkpt lat="46.10162" lon="1.8794">
        <ele>606</ele>
        <time>2016-12-21T00:31:09Z</time>
      </trkpt>
      <trkpt lat="46.10179" lon="1.87942">
        <ele>605</ele>
        <time>2016-12-21T00:33:09Z</time>
      </trkpt>
      <trkpt lat="46.10204" lon="1.87958">
        <ele>601</ele>
        <time>2016-12-21T00:35:09Z</time>
      </trkpt>
      <trkpt lat="46.10232" lon="1.87975">
        <ele>597</ele>
        <time>2016-12-21T00:37:09Z</time>
      </trkpt>
      <trkpt lat="46.10323" lon="1.88023">
        <ele>584</ele>
        <time>2016-12-21T00:39:09Z</time>
      </trkpt>
      <trkpt lat="46.10332" lon="1.88038">
        <ele>584</ele>
        <time>2016-12-21T00:41:09Z</time>
      </trkpt>
      <trkpt lat="46.10329" lon="1.88071">
        <ele>584</ele>
        <time>2016-12-21T00:43:09Z</time>
      </trkpt>
      <trkpt lat="46.10319" lon="1.88107">
        <ele>584</ele>
        <time>2016-12-21T00:45:09Z</time>
      </trkpt>
      <trkpt lat="46.10315" lon="1.88141">
        <ele>583</ele>
        <time>2016-12-21T00:47:09Z</time>
      </trkpt>
      <trkpt lat="46.10315" lon="1.88178">
        <ele>581</ele>
        <time>2016-12-21T00:49:09Z</time>
      </trkpt>
      <trkpt lat="46.10324" lon="1.8822">
        <ele>576</ele>
        <time>2016-12-21T00:51:09Z</time>
      </trkpt>
      <trkpt lat="46.10335" lon="1.88254">
        <ele>573</ele>
        <time>2016-12-21T00:53:09Z</time>
      </trkpt>
      <trkpt lat="46.10343" lon="1.8829">
        <ele>570</ele>
        <time>2016-12-21T00:55:09Z</time>
      </trkpt>
      <trkpt lat="46.10344" lon="1.88315">
        <ele>568</ele>
        <time>2016-12-21T00:57:09Z</time>
      </trkpt>
      <trkpt lat="46.10348" lon="1.88322">
        <ele>568</ele>
        <time>2016-12-21T00:59:09Z</time>
      </trkpt>
      <trkpt lat="46.10356" lon="1.88339">
        <ele>567</ele>
        <time>2016-12-21T01:01:09Z</time>
      </trkpt>
      <trkpt lat="46.10359" lon="1.8835">
        <ele>566</ele>
        <time>2016-12-21T01:03:09Z</time>
      </trkpt>
      <trkpt lat="46.10361" lon="1.88362">
        <ele>566</ele>
        <time>2016-12-21T01:05:09Z</time>
      </trkpt>
      <trkpt lat="46.10362" lon="1.88373">
        <ele>565</ele>
        <time>2016-12-21T01:07:09Z</time>
      </trkpt>
      <trkpt lat="46.10363" lon="1.88383">
        <ele>565</ele>
        <time>2016-12-21T01:09:09Z</time>
      </trkpt>
      <trkpt lat="46.10353" lon="1.8839">
        <ele>564</ele>
        <time>2016-12-21T01:11:09Z</time>
      </trkpt>
      <trkpt lat="46.10348" lon="1.88396">
        <ele>564</ele>
        <time>2016-12-21T01:13:09Z</time>
      </trkpt>
      <trkpt lat="46.10339" lon="1.8841">
        <ele>563</ele>
        <time>2016-12-21T01:15:09Z</time>
      </trkpt>
      <trkpt lat="46.10327" lon="1.88428">
        <ele>563</ele>
        <time>2016-12-21T01:17:09Z</time>
      </trkpt>
      <trkpt lat="46.10318" lon="1.88454">
        <ele>564</ele>
        <time>2016-12-21T01:19:09Z</time>
      </trkpt>
      <trkpt lat="46.10314" lon="1.88468">
        <ele>564</ele>
        <time>2016-12-21T01:21:09Z</time>
      </trkpt>
      <trkpt lat="46.10312" lon="1.88467">
        <ele>564</ele>
        <time>2016-12-21T01:23:09Z</time>
      </trkpt>
      <trkpt lat="46.1031" lon="1.88467">
        <ele>564</ele>
        <time>2016-12-21T01:25:09Z</time>
      </trkpt>
      <trkpt lat="46.10309" lon="1.88467">
        <ele>564</ele>
        <time>2016-12-21T01:27:09Z</time>
      </trkpt>
      <trkpt lat="46.10305" lon="1.88466">
        <ele>564</ele>
        <time>2016-12-21T01:29:09Z</time>
      </trkpt>
      <trkpt lat="46.10303" lon="1.88466">
        <ele>564</ele>
        <time>2016-12-21T01:31:09Z</time>
      </trkpt>
      <trkpt lat="46.10301" lon="1.88466">
        <ele>564</ele>
        <time>2016-12-21T01:33:09Z</time>
      </trkpt>
      <trkpt lat="46.10296" lon="1.8847">
        <ele>564</ele>
        <time>2016-12-21T01:35:09Z</time>
      </trkpt>
      <trkpt lat="46.10292" lon="1.88476">
        <ele>564</ele>
        <time>2016-12-21T01:37:09Z</time>
      </trkpt>
      <trkpt lat="46.10292" lon="1.88494">
        <ele>565</ele>
        <time>2016-12-21T01:39:09Z</time>
      </trkpt>
      <trkpt lat="46.10295" lon="1.88502">
        <ele>565</ele>
        <time>2016-12-21T01:41:09Z</time>
      </trkpt>
      <trkpt lat="46.10297" lon="1.88506">
        <ele>566</ele>
        <time>2016-12-21T01:43:09Z</time>
      </trkpt>
      <trkpt lat="46.10298" lon="1.88509">
        <ele>566</ele>
        <time>2016-12-21T01:45:09Z</time>
      </trkpt>
      <trkpt lat="46.103" lon="1.88517">
        <ele>567</ele>
        <time>2016-12-21T01:47:09Z</time>
      </trkpt>
      <trkpt lat="46.10301" lon="1.8852">
        <ele>567</ele>
        <time>2016-12-21T01:49:09Z</time>
      </trkpt>
      <trkpt lat="46.10303" lon="1.88529">
        <ele>568</ele>
        <time>2016-12-21T01:51:09Z</time>
      </trkpt>
      <trkpt lat="46.10312" lon="1.88551">
        <ele>570</ele>
        <time>2016-12-21T01:53:09Z</time>
      </trkpt>
      <trkpt lat="46.10315" lon="1.88553">
        <ele>571</ele>
        <time>2016-12-21T01:55:09Z</time>
      </trkpt>
      <trkpt lat="46.10316" lon="1.88554">
        <ele>571</ele>
        <time>2016-12-21T01:57:09Z</time>
      </trkpt>
      <trkpt lat="46.10318" lon="1.88557">
        <ele>571</ele>
        <time>2016-12-21T01:59:09Z</time>
      </trkpt>
      <trkpt lat="46.10322" lon="1.88561">
        <ele>572</ele>
        <time>2016-12-21T02:01:09Z</time>
      </trkpt>
      <trkpt lat="46.10324" lon="1.88563">
        <ele>573</ele>
        <time>2016-12-21T02:03:09Z</time>
      </trkpt>
      <trkpt lat="46.10326" lon="1.88567">
        <ele>573</ele>
        <time>2016-12-21T02:05:09Z</time>
      </trkpt>
      <trkpt lat="46.10327" lon="1.88568">
        <ele>573</ele>
        <time>2016-12-21T02:07:09Z</time>
      </trkpt>
      <trkpt lat="46.10329" lon="1.8857">
        <ele>574</ele>
        <time>2016-12-21T02:09:09Z</time>
      </trkpt>
      <trkpt lat="46.10331" lon="1.88572">
        <ele>574</ele>
        <time>2016-12-21T02:11:09Z</time>
      </trkpt>
      <trkpt lat="46.10332" lon="1.88574">
        <ele>575</ele>
        <time>2016-12-21T02:13:09Z</time>
      </trkpt>
      <trkpt lat="46.10333" lon="1.88574">
        <ele>575</ele>
        <time>2016-12-21T02:15:09Z</time>
      </trkpt>
      <trkpt lat="46.10337" lon="1.88581">
        <ele>575</ele>
        <time>2016-12-21T02:17:09Z</time>
      </trkpt>
      <trkpt lat="46.10338" lon="1.88584">
        <ele>576</ele>
        <time>2016-12-21T02:19:09Z</time>
      </trkpt>
      <trkpt lat="46.10338" lon="1.88586">
        <ele>576</ele>
        <time>2016-12-21T02:21:09Z</time>
      </trkpt>
      <trkpt lat="46.1034" lon="1.88588">
        <ele>576</ele>
        <time>2016-12-21T02:23:09Z</time>
      </trkpt>
      <trkpt lat="46.10341" lon="1.88591">
        <ele>576</ele>
        <time>2016-12-21T02:25:09Z</time>
      </trkpt>
      <trkpt lat="46.10341" lon="1.88601">
        <ele>576</ele>
        <time>2016-12-21T02:27:09Z</time>
      </trkpt>
      <trkpt lat="46.10341" lon="1.88603">
        <ele>577</ele>
        <time>2016-12-21T02:29:09Z</time>
      </trkpt>
      <trkpt lat="46.1034" lon="1.88603">
        <ele>577</ele>
        <time>2016-12-21T02:31:09Z</time>
      </trkpt>
      <trkpt lat="46.10336" lon="1.8862">
        <ele>578</ele>
        <time>2016-12-21T02:33:09Z</time>
      </trkpt>
      <trkpt lat="46.10335" lon="1.88628">
        <ele>579</ele>
        <time>2016-12-21T02:35:09Z</time>
      </trkpt>
      <trkpt lat="46.10336" lon="1.88632">
        <ele>579</ele>
        <time>2016-12-21T02:37:09Z</time>
      </trkpt>
      <trkpt lat="46.10335" lon="1.88645">
        <ele>580</ele>
        <time>2016-12-21T02:39:09Z</time>
      </trkpt>
      <trkpt lat="46.10333" lon="1.88657">
        <ele>581</ele>
        <time>2016-12-21T02:41:09Z</time>
      </trkpt>
      <trkpt lat="46.10333" lon="1.88671">
        <ele>582</ele>
        <time>2016-12-21T02:43:09Z</time>
      </trkpt>
      <trkpt lat="46.1033" lon="1.88692">
        <ele>582</ele>
        <time>2016-12-21T02:45:09Z</time>
      </trkpt>
      <trkpt lat="46.10327" lon="1.88719">
        <ele>583</ele>
        <time>2016-12-21T02:47:09Z</time>
      </trkpt>
      <trkpt lat="46.10326" lon="1.88743">
        <ele>583</ele>
        <time>2016-12-21T02:49:09Z</time>
      </trkpt>
      <trkpt lat="46.10325" lon="1.88745">
        <ele>583</ele>
        <time>2016-12-21T02:51:09Z</time>
      </trkpt>
      <trkpt lat="46.10326" lon="1.88747">
        <ele>583</ele>
        <time>2016-12-21T02:53:09Z</time>
      </trkpt>
      <trkpt lat="46.10325" lon="1.88751">
        <ele>583</ele>
        <time>2016-12-21T02:55:09Z</time>
      </trkpt>
      <trkpt lat="46.10322" lon="1.88771">
        <ele>585</ele>
        <time>2016-12-21T02:57:09Z</time>
      </trkpt>
      <trkpt lat="46.10321" lon="1.88775">
        <ele>585</ele>
        <time>2016-12-21T02:59:09Z</time>
      </trkpt>
      <trkpt lat="46.10321" lon="1.88782">
        <ele>585</ele>
        <time>2016-12-21T03:01:09Z</time>
      </trkpt>
      <trkpt lat="46.10321" lon="1.88788">
        <ele>586</ele>
        <time>2016-12-21T03:03:09Z</time>
      </trkpt>
      <trkpt lat="46.10324" lon="1.88795">
        <ele>586</ele>
        <time>2016-12-21T03:05:09Z</time>
      </trkpt>
      <trkpt lat="46.10336" lon="1.8882">
        <ele>586</ele>
        <time>2016-12-21T03:07:09Z</time>
      </trkpt>
      <trkpt lat="46.10344" lon="1.88834">
        <ele>586</ele>
        <time>2016-12-21T03:09:09Z</time>
      </trkpt>
      <trkpt lat="46.10351" lon="1.88854">
        <ele>587</ele>
        <time>2016-12-21T03:11:09Z</time>
      </trkpt>
      <trkpt lat="46.10358" lon="1.88877">
        <ele>588</ele>
        <time>2016-12-21T03:13:09Z</time>
      </trkpt>
      <trkpt lat="46.10364" lon="1.889">
        <ele>589</ele>
        <time>2016-12-21T03:15:09Z</time>
      </trkpt>
      <trkpt lat="46.1036" lon="1.8891">
        <ele>590</ele>
        <time>2016-12-21T03:17:09Z</time>
      </trkpt>
      <trkpt lat="46.10359" lon="1.88921">
        <ele>591</ele>
        <time>2016-12-21T03:19:09Z</time>
      </trkpt>
      <trkpt lat="46.10361" lon="1.88931">
        <ele>592</ele>
        <time>2016-12-21T03:21:09Z</time>
      </trkpt>
      <trkpt lat="46.10363" lon="1.88934">
        <ele>592</ele>
        <time>2016-12-21T03:23:09Z</time>
      </trkpt>
      <trkpt lat="46.10374" lon="1.88948">
        <ele>592</ele>
        <time>2016-12-21T03:25:09Z</time>
      </trkpt>
      <trkpt lat="46.10388" lon="1.88953">
        <ele>590</ele>
        <time>2016-12-21T03:27:09Z</time>
      </trkpt>
      <trkpt lat="46.10397" lon="1.88954">
        <ele>588</ele>
        <time>2016-12-21T03:29:09Z</time>
      </trkpt>
      <trkpt lat="46.10408" lon="1.88952">
        <ele>586</ele>
        <time>2016-12-21T03:31:09Z</time>
      </trkpt>
      <trkpt lat="46.10416" lon="1.8895">
        <ele>585</ele>
        <time>2016-12-21T03:33:09Z</time>
      </trkpt>
      <trkpt lat="46.1043" lon="1.88946">
        <ele>586</ele>
        <time>2016-12-21T03:35:09Z</time>
      </trkpt>
      <trkpt lat="46.10436" lon="1.88947">
        <ele>586</ele>
        <time>2016-12-21T03:37:09Z</time>
      </trkpt>
      <trkpt lat="46.10439" lon="1.88947">
        <ele>587</ele>
        <time>2016-12-21T03:39:09Z</time>
      </trkpt>
      <trkpt lat="46.10441" lon="1.88947">
        <ele>587</ele>
        <time>2016-12-21T03:41:09Z</time>
      </trkpt>
      <trkpt lat="46.1045" lon="1.88946">
        <ele>588</ele>
        <time>2016-12-21T03:43:09Z</time>
      </trkpt>
      <trkpt lat="46.10454" lon="1.88944">
        <ele>588</ele>
        <time>2016-12-21T03:45:09Z</time>
      </trkpt>
      <trkpt lat="46.10464" lon="1.88942">
        <ele>589</ele>
        <time>2016-12-21T03:47:09Z</time>
      </trkpt>
      <trkpt lat="46.10481" lon="1.88937">
        <ele>590</ele>
        <time>2016-12-21T03:49:09Z</time>
      </trkpt>
      <trkpt lat="46.10487" lon="1.88936">
        <ele>591</ele>
        <time>2016-12-21T03:51:09Z</time>
      </trkpt>
      <trkpt lat="46.10493" lon="1.88936">
        <ele>591</ele>
        <time>2016-12-21T03:53:09Z</time>
      </trkpt>
      <trkpt lat="46.10498" lon="1.88935">
        <ele>592</ele>
        <time>2016-12-21T03:55:09Z</time>
      </trkpt>
      <trkpt lat="46.10502" lon="1.88938">
        <ele>592</ele>
        <time>2016-12-21T03:57:09Z</time>
      </trkpt>
      <trkpt lat="46.10503" lon="1.8894">
        <ele>592</ele>
        <time>2016-12-21T03:59:09Z</time>
      </trkpt>
      <trkpt lat="46.10507" lon="1.88947">
        <ele>593</ele>
        <time>2016-12-21T04:01:09Z</time>
      </trkpt>
      <trkpt lat="46.10509" lon="1.8895">
        <ele>593</ele>
        <time>2016-12-21T04:03:09Z</time>
      </trkpt>
      <trkpt lat="46.10517" lon="1.88959">
        <ele>593</ele>
        <time>2016-12-21T04:05:09Z</time>
      </trkpt>
      <trkpt lat="46.10521" lon="1.88962">
        <ele>594</ele>
        <time>2016-12-21T04:07:09Z</time>
      </trkpt>
      <trkpt lat="46.10526" lon="1.88965">
        <ele>594</ele>
        <time>2016-12-21T04:09:09Z</time>
      </trkpt>
      <trkpt lat="46.10533" lon="1.88966">
        <ele>594</ele>
        <time>2016-12-21T04:11:09Z</time>
      </trkpt>
      <trkpt lat="46.10544" lon="1.88965">
        <ele>594</ele>
        <time>2016-12-21T04:13:09Z</time>
      </trkpt>
      <trkpt lat="46.10547" lon="1.88965">
        <ele>594</ele>
        <time>2016-12-21T04:15:09Z</time>
      </trkpt>
      <trkpt lat="46.10563" lon="1.88966">
        <ele>595</ele>
        <time>2016-12-21T04:17:09Z</time>
      </trkpt>
      <trkpt lat="46.10553" lon="1.88977">
        <ele>595</ele>
        <time>2016-12-21T04:19:09Z</time>
      </trkpt>
      <trkpt lat="46.10555" lon="1.88971">
        <ele>595</ele>
        <time>2016-12-21T04:21:09Z</time>
      </trkpt>
      <trkpt lat="46.10558" lon="1.88974">
        <ele>595</ele>
        <time>2016-12-21T04:23:09Z</time>
      </trkpt>
      <trkpt lat="46.1056" lon="1.8899">
        <ele>596</ele>
        <time>2016-12-21T04:25:09Z</time>
      </trkpt>
      <trkpt lat="46.10555" lon="1.8901">
        <ele>597</ele>
        <time>2016-12-21T04:27:09Z</time>
      </trkpt>
      <trkpt lat="46.10553" lon="1.89017">
        <ele>597</ele>
        <time>2016-12-21T04:29:09Z</time>
      </trkpt>
      <trkpt lat="46.10543" lon="1.89044">
        <ele>598</ele>
        <time>2016-12-21T04:31:09Z</time>
      </trkpt>
      <trkpt lat="46.10534" lon="1.89066">
        <ele>599</ele>
        <time>2016-12-21T04:33:09Z</time>
      </trkpt>
      <trkpt lat="46.10524" lon="1.89091">
        <ele>599</ele>
        <time>2016-12-21T04:35:09Z</time>
      </trkpt>
      <trkpt lat="46.10524" lon="1.89097">
        <ele>600</ele>
        <time>2016-12-21T04:37:09Z</time>
      </trkpt>
      <trkpt lat="46.10529" lon="1.891">
        <ele>600</ele>
        <time>2016-12-21T04:39:09Z</time>
      </trkpt>
      <trkpt lat="46.10521" lon="1.89097">
        <ele>600</ele>
        <time>2016-12-21T04:41:09Z</time>
      </trkpt>
      <trkpt lat="46.10512" lon="1.89106">
        <ele>600</ele>
        <time>2016-12-21T04:43:09Z</time>
      </trkpt>
      <trkpt lat="46.10508" lon="1.89111">
        <ele>601</ele>
        <time>2016-12-21T04:45:09Z</time>
      </trkpt>
      <trkpt lat="46.10501" lon="1.89123">
        <ele>601</ele>
        <time>2016-12-21T04:47:09Z</time>
      </trkpt>
      <trkpt lat="46.10487" lon="1.8914">
        <ele>602</ele>
        <time>2016-12-21T04:49:09Z</time>
      </trkpt>
      <trkpt lat="46.10451" lon="1.89179">
        <ele>604</ele>
        <time>2016-12-21T04:51:09Z</time>
      </trkpt>
      <trkpt lat="46.10445" lon="1.89184">
        <ele>604</ele>
        <time>2016-12-21T04:53:09Z</time>
      </trkpt>
      <trkpt lat="46.10402" lon="1.89214">
        <ele>606</ele>
        <time>2016-12-21T04:55:09Z</time>
      </trkpt>
      <trkpt lat="46.10353" lon="1.89258">
        <ele>607</ele>
        <time>2016-12-21T04:57:09Z</time>
      </trkpt>
      <trkpt lat="46.10342" lon="1.89266">
        <ele>606</ele>
        <time>2016-12-21T04:59:09Z</time>
      </trkpt>
      <trkpt lat="46.10336" lon="1.89264">
        <ele>606</ele>
        <time>2016-12-21T05:01:09Z</time>
      </trkpt>
      <trkpt lat="46.10331" lon="1.8926">
        <ele>605</ele>
        <time>2016-12-21T05:03:09Z</time>
      </trkpt>
      <trkpt lat="46.10323" lon="1.89251">
        <ele>605</ele>
        <time>2016-12-21T05:05:09Z</time>
      </trkpt>
      <trkpt lat="46.10319" lon="1.89248">
        <ele>605</ele>
        <time>2016-12-21T05:07:09Z</time>
      </trkpt>
      <trkpt lat="46.10285" lon="1.89223">
        <ele>605</ele>
        <time>2016-12-21T05:09:09Z</time>
      </trkpt>
      <trkpt lat="46.1026" lon="1.89205">
        <ele>606</ele>
        <time>2016-12-21T05:11:09Z</time>
      </trkpt>
      <trkpt lat="46.10218" lon="1.89174">
        <ele>605</ele>
        <time>2016-12-21T05:13:09Z</time>
      </trkpt>
      <trkpt lat="46.10212" lon="1.89163">
        <ele>605</ele>
        <time>2016-12-21T05:15:09Z</time>
      </trkpt>
      <trkpt lat="46.10205" lon="1.8915">
        <ele>605</ele>
        <time>2016-12-21T05:17:09Z</time>
      </trkpt>
      <trkpt lat="46.10195" lon="1.89137">
        <ele>604</ele>
        <time>2016-12-21T05:19:09Z</time>
      </trkpt>
      <trkpt lat="46.10183" lon="1.89122">
        <ele>604</ele>
        <time>2016-12-21T05:21:09Z</time>
      </trkpt>
      <trkpt lat="46.1017" lon="1.89109">
        <ele>603</ele>
        <time>2016-12-21T05:23:09Z</time>
      </trkpt>
      <trkpt lat="46.10156" lon="1.89096">
        <ele>602</ele>
        <time>2016-12-21T05:25:09Z</time>
      </trkpt>
      <trkpt lat="46.10144" lon="1.89079">
        <ele>600</ele>
        <time>2016-12-21T05:27:09Z</time>
      </trkpt>
      <trkpt lat="46.1014" lon="1.89069">
        <ele>599</ele>
        <time>2016-12-21T05:29:09Z</time>
      </trkpt>
      <trkpt lat="46.10139" lon="1.89058">
        <ele>598</ele>
        <time>2016-12-21T05:31:09Z</time>
      </trkpt>
      <trkpt lat="46.1014" lon="1.89038">
        <ele>598</ele>
        <time>2016-12-21T05:33:09Z</time>
      </trkpt>
      <trkpt lat="46.10142" lon="1.89015">
        <ele>598</ele>
        <time>2016-12-21T05:35:09Z</time>
      </trkpt>
      <trkpt lat="46.10144" lon="1.89005">
        <ele>598</ele>
        <time>2016-12-21T05:37:09Z</time>
      </trkpt>
      <trkpt lat="46.10146" lon="1.88994">
        <ele>598</ele>
        <time>2016-12-21T05:39:09Z</time>
      </trkpt>
      <trkpt lat="46.10152" lon="1.88981">
        <ele>598</ele>
        <time>2016-12-21T05:41:09Z</time>
      </trkpt>
      <trkpt lat="46.10158" lon="1.8897">
        <ele>598</ele>
        <time>2016-12-21T05:43:09Z</time>
      </trkpt>
      <trkpt lat="46.10173" lon="1.88944">
        <ele>599</ele>
        <time>2016-12-21T05:45:09Z</time>
      </trkpt>
      <trkpt lat="46.10182" lon="1.88918">
        <ele>598</ele>
        <time>2016-12-21T05:47:09Z</time>
      </trkpt>
      <trkpt lat="46.1019" lon="1.88902">
        <ele>598</ele>
        <time>2016-12-21T05:49:09Z</time>
      </trkpt>
      <trkpt lat="46.10201" lon="1.88888">
        <ele>598</ele>
        <time>2016-12-21T05:51:09Z</time>
      </trkpt>
      <trkpt lat="46.10212" lon="1.88868">
        <ele>597</ele>
        <time>2016-12-21T05:53:09Z</time>
      </trkpt>
      <trkpt lat="46.10218" lon="1.88848">
        <ele>596</ele>
        <time>2016-12-21T05:55:09Z</time>
      </trkpt>
      <trkpt lat="46.10228" lon="1.8883">
        <ele>595</ele>
        <time>2016-12-21T05:57:09Z</time>
      </trkpt>
      <trkpt lat="46.10234" lon="1.8882">
        <ele>594</ele>
        <time>2016-12-21T05:59:09Z</time>
      </trkpt>
      <trkpt lat="46.10244" lon="1.88807">
        <ele>593</ele>
        <time>2016-12-21T06:01:09Z</time>
      </trkpt>
      <trkpt lat="46.10256" lon="1.88795">
        <ele>591</ele>
        <time>2016-12-21T06:03:09Z</time>
      </trkpt>
      <trkpt lat="46.10256" lon="1.8879">
        <ele>591</ele>
        <time>2016-12-21T06:05:09Z</time>
      </trkpt>
      <trkpt lat="46.10256" lon="1.88789">
        <ele>591</ele>
        <time>2016-12-21T06:07:09Z</time>
      </trkpt>
      <trkpt lat="46.10248" lon="1.88791">
        <ele>591</ele>
        <time>2016-12-21T06:09:09Z</time>
      </trkpt>
      <trkpt lat="46.10243" lon="1.88794">
        <ele>591</ele>
        <time>2016-12-21T06:11:09Z</time>
      </trkpt>
      <trkpt lat="46.10224" lon="1.88797">
        <ele>591</ele>
        <time>2016-12-21T06:13:09Z</time>
      </trkpt>
      <trkpt lat="46.102" lon="1.88795">
        <ele>589</ele>
        <time>2016-12-21T06:15:09Z</time>
      </trkpt>
      <trkpt lat="46.10183" lon="1.888">
        <ele>589</ele>
        <time>2016-12-21T06:17:09Z</time>
      </trkpt>
      <trkpt lat="46.10173" lon="1.88803">
        <ele>588</ele>
        <time>2016-12-21T06:19:09Z</time>
      </trkpt>
      <trkpt lat="46.10161" lon="1.88804">
        <ele>587</ele>
        <time>2016-12-21T06:21:09Z</time>
      </trkpt>
      <trkpt lat="46.10144" lon="1.88807">
        <ele>585</ele>
        <time>2016-12-21T06:23:09Z</time>
      </trkpt>
      <trkpt lat="46.10142" lon="1.88808">
        <ele>585</ele>
        <time>2016-12-21T06:25:09Z</time>
      </trkpt>
      <trkpt lat="46.10129" lon="1.88815">
        <ele>584</ele>
        <time>2016-12-21T06:27:09Z</time>
      </trkpt>
      <trkpt lat="46.10125" lon="1.88818">
        <ele>584</ele>
        <time>2016-12-21T06:29:09Z</time>
      </trkpt>
      <trkpt lat="46.10116" lon="1.88827">
        <ele>584</ele>
        <time>2016-12-21T06:31:09Z</time>
      </trkpt>
      <trkpt lat="46.10104" lon="1.8884">
        <ele>583</ele>
        <time>2016-12-21T06:33:09Z</time>
      </trkpt>
      <trkpt lat="46.10085" lon="1.88858">
        <ele>581</ele>
        <time>2016-12-21T06:35:09Z</time>
      </trkpt>
      <trkpt lat="46.10076" lon="1.88868">
        <ele>581</ele>
        <time>2016-12-21T06:37:09Z</time>
      </trkpt>
      <trkpt lat="46.10064" lon="1.88886">
        <ele>580</ele>
        <time>2016-12-21T06:39:09Z</time>
      </trkpt>
      <trkpt lat="46.10061" lon="1.8891">
        <ele>581</ele>
        <time>2016-12-21T06:41:09Z</time>
      </trkpt>
      <trkpt lat="46.10055" lon="1.88936">
        <ele>581</ele>
        <time>2016-12-21T06:43:09Z</time>
      </trkpt>
      <trkpt lat="46.1005" lon="1.88949">
        <ele>582</ele>
        <time>2016-12-21T06:45:09Z</time>
      </trkpt>
      <trkpt lat="46.10047" lon="1.88954">
        <ele>581</ele>
        <time>2016-12-21T06:47:09Z</time>
      </trkpt>
      <trkpt lat="46.10028" lon="1.8898">
        <ele>581</ele>
        <time>2016-12-21T06:49:09Z</time>
      </trkpt>
      <trkpt lat="46.10018" lon="1.88992">
        <ele>581</ele>
        <time>2016-12-21T06:51:09Z</time>
      </trkpt>
      <trkpt lat="46.10002" lon="1.89008">
        <ele>580</ele>
        <time>2016-12-21T06:53:09Z</time>
      </trkpt>
      <trkpt lat="46.09996" lon="1.89015">
        <ele>580</ele>
        <time>2016-12-21T06:55:09Z</time>
      </trkpt>
      <trkpt lat="46.09983" lon="1.89028">
        <ele>579</ele>
        <time>2016-12-21T06:57:09Z</time>
      </trkpt>
      <trkpt lat="46.09971" lon="1.89023">
        <ele>579</ele>
        <time>2016-12-21T06:59:09Z</time>
      </trkpt>
      <trkpt lat="46.09964" lon="1.89015">
        <ele>578</ele>
        <time>2016-12-21T07:01:09Z</time>
      </trkpt>
      <trkpt lat="46.09957" lon="1.89011">
        <ele>578</ele>
        <time>2016-12-21T07:03:09Z</time>
      </trkpt>
      <trkpt lat="46.09953" lon="1.8901">
        <ele>578</ele>
        <time>2016-12-21T07:05:09Z</time>
      </trkpt>
      <trkpt lat="46.09944" lon="1.89013">
        <ele>577</ele>
        <time>2016-12-21T07:07:09Z</time>
      </trkpt>
      <trkpt lat="46.09939" lon="1.89016">
        <ele>577</ele>
        <time>2016-12-21T07:09:09Z</time>
      </trkpt>
      <trkpt lat="46.09922" lon="1.89025">
        <ele>576</ele>
        <time>2016-12-21T07:11:09Z</time>
      </trkpt>
      <trkpt lat="46.09915" lon="1.89023">
        <ele>576</ele>
        <time>2016-12-21T07:13:09Z</time>
      </trkpt>
      <trkpt lat="46.09902" lon="1.89018">
        <ele>576</ele>
        <time>2016-12-21T07:15:09Z</time>
      </trkpt>
      <trkpt lat="46.09863" lon="1.89006">
        <ele>578</ele>
        <time>2016-12-21T07:17:09Z</time>
      </trkpt>
      <trkpt lat="46.0985" lon="1.89006">
        <ele>579</ele>
        <time>2016-12-21T07:19:09Z</time>
      </trkpt>
      <trkpt lat="46.09827" lon="1.89019">
        <ele>579</ele>
        <time>2016-12-21T07:21:09Z</time>
      </trkpt>
      <trkpt lat="46.098" lon="1.89042">
        <ele>578</ele>
        <time>2016-12-21T07:23:09Z</time>
      </trkpt>
      <trkpt lat="46.09772" lon="1.8906">
        <ele>578</ele>
        <time>2016-12-21T07:25:09Z</time>
      </trkpt>
      <trkpt lat="46.09762" lon="1.89062">
        <ele>578</ele>
        <time>2016-12-21T07:27:09Z</time>
      </trkpt>
      <trkpt lat="46.09749" lon="1.89061">
        <ele>579</ele>
        <time>2016-12-21T07:29:09Z</time>
      </trkpt>
      <trkpt lat="46.09745" lon="1.8906">
        <ele>579</ele>
        <time>2016-12-21T07:31:09Z</time>
      </trkpt>
      <trkpt lat="46.09726" lon="1.89054">
        <ele>579</ele>
        <time>2016-12-21T07:33:09Z</time>
      </trkpt>
      <trkpt lat="46.09713" lon="1.89049">
        <ele>579</ele>
        <time>2016-12-21T07:35:09Z</time>
      </trkpt>
      <trkpt lat="46.09694" lon="1.89046">
        <ele>578</ele>
        <time>2016-12-21T07:37:09Z</time>
      </trkpt>
      <trkpt lat="46.09685" lon="1.89046">
        <ele>578</ele>
        <time>2016-12-21T07:39:09Z</time>
      </trkpt>
      <trkpt lat="46.09681" lon="1.89045">
        <ele>578</ele>
        <time>2016-12-21T07:41:09Z</time>
      </trkpt>
      <trkpt lat="46.09662" lon="1.89049">
        <ele>577</ele>
        <time>2016-12-21T07:43:09Z</time>
      </trkpt>
      <trkpt lat="46.09632" lon="1.89057">
        <ele>577</ele>
        <time>2016-12-21T07:45:09Z</time>
      </trkpt>
      <trkpt lat="46.09608" lon="1.89064">
        <ele>577</ele>
        <time>2016-12-21T07:47:09Z</time>
      </trkpt>
      <trkpt lat="46.09546" lon="1.89078">
        <ele>580</ele>
        <time>2016-12-21T07:49:09Z</time>
      </trkpt>
      <trkpt lat="46.09522" lon="1.89081">
        <ele>581</ele>
        <time>2016-12-21T07:51:09Z</time>
      </trkpt>
      <trkpt lat="46.09505" lon="1.89082">
        <ele>583</ele>
        <time>2016-12-21T07:53:09Z</time>
      </trkpt>
      <trkpt lat="46.09488" lon="1.89086">
        <ele>584</ele>
        <time>2016-12-21T07:55:09Z</time>
      </trkpt>
      <trkpt lat="46.09474" lon="1.89097">
        <ele>587</ele>
        <time>2016-12-21T07:57:09Z</time>
      </trkpt>
      <trkpt lat="46.09471" lon="1.89098">
        <ele>588</ele>
        <time>2016-12-21T07:59:09Z</time>
      </trkpt>
      <trkpt lat="46.09457" lon="1.89097">
        <ele>589</ele>
        <time>2016-12-21T08:01:09Z</time>
      </trkpt>
      <trkpt lat="46.09454" lon="1.89098">
        <ele>589</ele>
        <time>2016-12-21T08:03:09Z</time>
      </trkpt>
      <trkpt lat="46.0945" lon="1.89102">
        <ele>590</ele>
        <time>2016-12-21T08:05:09Z</time>
      </trkpt>
      <trkpt lat="46.09449" lon="1.89106">
        <ele>591</ele>
        <time>2016-12-21T08:07:09Z</time>
      </trkpt>
      <trkpt lat="46.09448" lon="1.8911">
        <ele>591</ele>
        <time>2016-12-21T08:09:09Z</time>
      </trkpt>
      <trkpt lat="46.09447" lon="1.89119">
        <ele>593</ele>
        <time>2016-12-21T08:11:09Z</time>
      </trkpt>
      <trkpt lat="46.09446" lon="1.89131">
        <ele>595</ele>
        <time>2016-12-21T08:13:09Z</time>
      </trkpt>
      <trkpt lat="46.09446" lon="1.89143">
        <ele>597</ele>
        <time>2016-12-21T08:15:09Z</time>
      </trkpt>
      <trkpt lat="46.09448" lon="1.89153">
        <ele>598</ele>
        <time>2016-12-21T08:17:09Z</time>
      </trkpt>
      <trkpt lat="46.09451" lon="1.89159">
        <ele>599</ele>
        <time>2016-12-21T08:19:09Z</time>
      </trkpt>
      <trkpt lat="46.09461" lon="1.89173">
        <ele>599</ele>
        <time>2016-12-21T08:21:09Z</time>
      </trkpt>
      <trkpt lat="46.09464" lon="1.89187">
        <ele>600</ele>
        <time>2016-12-21T08:23:09Z</time>
      </trkpt>
      <trkpt lat="46.09465" lon="1.89191">
        <ele>601</ele>
        <time>2016-12-21T08:25:09Z</time>
      </trkpt>
      <trkpt lat="46.09466" lon="1.89203">
        <ele>602</ele>
        <time>2016-12-21T08:27:09Z</time>
      </trkpt>
      <trkpt lat="46.09469" lon="1.89214">
        <ele>603</ele>
        <time>2016-12-21T08:29:09Z</time>
      </trkpt>
      <trkpt lat="46.09475" lon="1.8926">
        <ele>605</ele>
        <time>2016-12-21T08:31:09Z</time>
      </trkpt>
      <trkpt lat="46.09477" lon="1.89278">
        <ele>605</ele>
        <time>2016-12-21T08:33:09Z</time>
      </trkpt>
      <trkpt lat="46.09478" lon="1.89296">
        <ele>605</ele>
        <time>2016-12-21T08:35:09Z</time>
      </trkpt>
      <trkpt lat="46.09478" lon="1.89304">
        <ele>605</ele>
        <time>2016-12-21T08:37:09Z</time>
      </trkpt>
      <trkpt lat="46.09478" lon="1.89317">
        <ele>605</ele>
        <time>2016-12-21T08:39:09Z</time>
      </trkpt>
      <trkpt lat="46.09479" lon="1.89334">
        <ele>605</ele>
        <time>2016-12-21T08:41:09Z</time>
      </trkpt>
      <trkpt lat="46.09478" lon="1.89362">
        <ele>606</ele>
        <time>2016-12-21T08:43:09Z</time>
      </trkpt>
      <trkpt lat="46.09478" lon="1.89366">
        <ele>607</ele>
        <time>2016-12-21T08:45:09Z</time>
      </trkpt>
      <trkpt lat="46.09471" lon="1.89386">
        <ele>610</ele>
        <time>2016-12-21T08:47:09Z</time>
      </trkpt>
      <trkpt lat="46.09468" lon="1.89393">
        <ele>611</ele>
        <time>2016-12-21T08:49:09Z</time>
      </trkpt>
      <trkpt lat="46.09458" lon="1.89413">
        <ele>615</ele>
        <time>2016-12-21T08:51:09Z</time>
      </trkpt>
      <trkpt lat="46.09454" lon="1.89423">
        <ele>616</ele>
        <time>2016-12-21T08:53:09Z</time>
      </trkpt>
      <trkpt lat="46.0945" lon="1.89439">
        <ele>618</ele>
        <time>2016-12-21T08:55:09Z</time>
      </trkpt>
      <trkpt lat="46.09443" lon="1.89458">
        <ele>621</ele>
        <time>2016-12-21T08:57:09Z</time>
      </trkpt>
      <trkpt lat="46.09432" lon="1.89469">
        <ele>624</ele>
        <time>2016-12-21T08:59:09Z</time>
      </trkpt>
      <trkpt lat="46.09425" lon="1.89476">
        <ele>625</ele>
        <time>2016-12-21T09:01:09Z</time>
      </trkpt>
      <trkpt lat="46.09424" lon="1.89479">
        <ele>626</ele>
        <time>2016-12-21T09:03:09Z</time>
      </trkpt>
      <trkpt lat="46.0942" lon="1.89486">
        <ele>627</ele>
        <time>2016-12-21T09:05:09Z</time>
      </trkpt>
      <trkpt lat="46.09417" lon="1.89489">
        <ele>628</ele>
        <time>2016-12-21T09:07:09Z</time>
      </trkpt>
      <trkpt lat="46.09412" lon="1.89495">
        <ele>628</ele>
        <time>2016-12-21T09:09:09Z</time>
      </trkpt>
      <trkpt lat="46.09407" lon="1.89503">
        <ele>629</ele>
        <time>2016-12-21T09:11:09Z</time>
      </trkpt>
      <trkpt lat="46.094" lon="1.89512">
        <ele>629</ele>
        <time>2016-12-21T09:13:09Z</time>
      </trkpt>
      <trkpt lat="46.09395" lon="1.89517">
        <ele>630</ele>
        <time>2016-12-21T09:15:09Z</time>
      </trkpt>
      <trkpt lat="46.09392" lon="1.89519">
        <ele>630</ele>
        <time>2016-12-21T09:17:09Z</time>
      </trkpt>
      <trkpt lat="46.09388" lon="1.89523">
        <ele>630</ele>
        <time>2016-12-21T09:19:09Z</time>
      </trkpt>
      <trkpt lat="46.09385" lon="1.89525">
        <ele>631</ele>
        <time>2016-12-21T09:21:09Z</time>
      </trkpt>
      <trkpt lat="46.09376" lon="1.89529">
        <ele>631</ele>
        <time>2016-12-21T09:23:09Z</time>
      </trkpt>
      <trkpt lat="46.09372" lon="1.89532">
        <ele>632</ele>
        <time>2016-12-21T09:25:09Z</time>
      </trkpt>
      <trkpt lat="46.09366" lon="1.89534">
        <ele>632</ele>
        <time>2016-12-21T09:27:09Z</time>
      </trkpt>
      <trkpt lat="46.09363" lon="1.89535">
        <ele>633</ele>
        <time>2016-12-21T09:29:09Z</time>
      </trkpt>
      <trkpt lat="46.09358" lon="1.89538">
        <ele>633</ele>
        <time>2016-12-21T09:31:09Z</time>
      </trkpt>
      <trkpt lat="46.09353" lon="1.89544">
        <ele>634</ele>
        <time>2016-12-21T09:33:09Z</time>
      </trkpt>
      <trkpt lat="46.09346" lon="1.89553">
        <ele>635</ele>
        <time>2016-12-21T09:35:09Z</time>
      </trkpt>
      <trkpt lat="46.09339" lon="1.89572">
        <ele>637</ele>
        <time>2016-12-21T09:37:09Z</time>
      </trkpt>
      <trkpt lat="46.09335" lon="1.89585">
        <ele>638</ele>
        <time>2016-12-21T09:39:09Z</time>
      </trkpt>
      <trkpt lat="46.09333" lon="1.89595">
        <ele>638</ele>
        <time>2016-12-21T09:41:09Z</time>
      </trkpt>
      <trkpt lat="46.09332" lon="1.89609">
        <ele>639</ele>
        <time>2016-12-21T09:43:09Z</time>
      </trkpt>
      <trkpt lat="46.09333" lon="1.89628">
        <ele>639</ele>
        <time>2016-12-21T09:45:09Z</time>
      </trkpt>
      <trkpt lat="46.09345" lon="1.89657">
        <ele>637</ele>
        <time>2016-12-21T09:47:09Z</time>
      </trkpt>
      <trkpt lat="46.09346" lon="1.8966">
        <ele>637</ele>
        <time>2016-12-21T09:49:09Z</time>
      </trkpt>
      <trkpt lat="46.09345" lon="1.89668">
        <ele>637</ele>
        <time>2016-12-21T09:51:09Z</time>
      </trkpt>
      <trkpt lat="46.09338" lon="1.89676">
        <ele>638</ele>
        <time>2016-12-21T09:53:09Z</time>
      </trkpt>
      <trkpt lat="46.09325" lon="1.89679">
        <ele>640</ele>
        <time>2016-12-21T09:55:09Z</time>
      </trkpt>
      <trkpt lat="46.09321" lon="1.8968">
        <ele>641</ele>
        <time>2016-12-21T09:57:09Z</time>
      </trkpt>
      <trkpt lat="46.09313" lon="1.89684">
        <ele>642</ele>
        <time>2016-12-21T09:59:09Z</time>
      </trkpt>
      <trkpt lat="46.09311" lon="1.89684">
        <ele>643</ele>
        <time>2016-12-21T10:01:09Z</time>
      </trkpt>
      <trkpt lat="46.09301" lon="1.89689">
        <ele>645</ele>
        <time>2016-12-21T10:03:09Z</time>
      </trkpt>
      <trkpt lat="46.0928" lon="1.89696">
        <ele>648</ele>
        <time>2016-12-21T10:05:09Z</time>
      </trkpt>
      <trkpt lat="46.09268" lon="1.89698">
        <ele>650</ele>
        <time>2016-12-21T10:07:09Z</time>
      </trkpt>
      <trkpt lat="46.09259" lon="1.89701">
        <ele>652</ele>
        <time>2016-12-21T10:09:09Z</time>
      </trkpt>
      <trkpt lat="46.09244" lon="1.89705">
        <ele>654</ele>
        <time>2016-12-21T10:11:09Z</time>
      </trkpt>
      <trkpt lat="46.09239" lon="1.89706">
        <ele>655</ele>
        <time>2016-12-21T10:13:09Z</time>
      </trkpt>
      <trkpt lat="46.09236" lon="1.89706">
        <ele>655</ele>
        <time>2016-12-21T10:15:09Z</time>
      </trkpt>
      <trkpt lat="46.09233" lon="1.89701">
        <ele>656</ele>
        <time>2016-12-21T10:17:09Z</time>
      </trkpt>
      <trkpt lat="46.09232" lon="1.89696">
        <ele>656</ele>
        <time>2016-12-21T10:19:09Z</time>
      </trkpt>
      <trkpt lat="46.0923" lon="1.8969">
        <ele>656</ele>
        <time>2016-12-21T10:21:09Z</time>
      </trkpt>
      <trkpt lat="46.09226" lon="1.89668">
        <ele>657</ele>
        <time>2016-12-21T10:23:09Z</time>
      </trkpt>
      <trkpt lat="46.09226" lon="1.89647">
        <ele>656</ele>
        <time>2016-12-21T10:25:09Z</time>
      </trkpt>
      <trkpt lat="46.09223" lon="1.89643">
        <ele>657</ele>
        <time>2016-12-21T10:27:09Z</time>
      </trkpt>
      <trkpt lat="46.09221" lon="1.89642">
        <ele>657</ele>
        <time>2016-12-21T10:29:09Z</time>
      </trkpt>
      <trkpt lat="46.09216" lon="1.89641">
        <ele>657</ele>
        <time>2016-12-21T10:31:09Z</time>
      </trkpt>
      <trkpt lat="46.09214" lon="1.8964">
        <ele>657</ele>
        <time>2016-12-21T10:33:09Z</time>
      </trkpt>
      <trkpt lat="46.09208" lon="1.89639">
        <ele>658</ele>
        <time>2016-12-21T10:35:09Z</time>
      </trkpt>
      <trkpt lat="46.09202" lon="1.89639">
        <ele>658</ele>
        <time>2016-12-21T10:37:09Z</time>
      </trkpt>
      <trkpt lat="46.09189" lon="1.89637">
        <ele>660</ele>
        <time>2016-12-21T10:39:09Z</time>
      </trkpt>
      <trkpt lat="46.09176" lon="1.89636">
        <ele>661</ele>
        <time>2016-12-21T10:41:09Z</time>
      </trkpt>
      <trkpt lat="46.09173" lon="1.89637">
        <ele>661</ele>
        <time>2016-12-21T10:43:09Z</time>
      </trkpt>
      <trkpt lat="46.09165" lon="1.89637">
        <ele>662</ele>
        <time>2016-12-21T10:45:09Z</time>
      </trkpt>
      <trkpt lat="46.09159" lon="1.89636">
        <ele>662</ele>
        <time>2016-12-21T10:47:09Z</time>
      </trkpt>
      <trkpt lat="46.09155" lon="1.89636">
        <ele>663</ele>
        <time>2016-12-21T10:49:09Z</time>
      </trkpt>
      <trkpt lat="46.09135" lon="1.89638">
        <ele>664</ele>
        <time>2016-12-21T10:51:09Z</time>
      </trkpt>
      <trkpt lat="46.0913" lon="1.89639">
        <ele>665</ele>
        <time>2016-12-21T10:53:09Z</time>
      </trkpt>
      <trkpt lat="46.09124" lon="1.8964">
        <ele>665</ele>
        <time>2016-12-21T10:55:09Z</time>
      </trkpt>
      <trkpt lat="46.09115" lon="1.89641">
        <ele>666</ele>
        <time>2016-12-21T10:57:09Z</time>
      </trkpt>
      <trkpt lat="46.091" lon="1.8964">
        <ele>667</ele>
        <time>2016-12-21T10:59:09Z</time>
      </trkpt>
      <trkpt lat="46.09076" lon="1.89641">
        <ele>668</ele>
        <time>2016-12-21T11:01:09Z</time>
      </trkpt>
      <trkpt lat="46.09037" lon="1.89638">
        <ele>669</ele>
        <time>2016-12-21T11:03:09Z</time>
      </trkpt>
      <trkpt lat="46.09034" lon="1.89637">
        <ele>669</ele>
        <time>2016-12-21T11:05:09Z</time>
      </trkpt>
      <trkpt lat="46.09017" lon="1.89639">
        <ele>670</ele>
        <time>2016-12-21T11:07:09Z</time>
      </trkpt>
      <trkpt lat="46.08996" lon="1.89638">
        <ele>670</ele>
        <time>2016-12-21T11:09:09Z</time>
      </trkpt>
      <trkpt lat="46.08961" lon="1.89635">
        <ele>666</ele>
        <time>2016-12-21T11:11:09Z</time>
      </trkpt>
      <trkpt lat="46.08946" lon="1.89636">
        <ele>665</ele>
        <time>2016-12-21T11:13:09Z</time>
      </trkpt>
      <trkpt lat="46.08934" lon="1.89639">
        <ele>664</ele>
        <time>2016-12-21T11:15:09Z</time>
      </trkpt>
      <trkpt lat="46.08928" lon="1.89643">
        <ele>664</ele>
        <time>2016-12-21T11:17:09Z</time>
      </trkpt>
      <trkpt lat="46.08925" lon="1.89647">
        <ele>664</ele>
        <time>2016-12-21T11:19:09Z</time>
      </trkpt>
      <trkpt lat="46.08922" lon="1.89665">
        <ele>665</ele>
        <time>2016-12-21T11:21:09Z</time>
      </trkpt>
      <trkpt lat="46.08922" lon="1.89667">
        <ele>666</ele>
        <time>2016-12-21T11:23:09Z</time>
      </trkpt>
      <trkpt lat="46.0892" lon="1.89672">
        <ele>666</ele>
        <time>2016-12-21T11:25:09Z</time>
      </trkpt>
      <trkpt lat="46.08917" lon="1.89689">
        <ele>667</ele>
        <time>2016-12-21T11:27:09Z</time>
      </trkpt>
      <trkpt lat="46.08912" lon="1.89696">
        <ele>667</ele>
        <time>2016-12-21T11:29:09Z</time>
      </trkpt>
      <trkpt lat="46.08903" lon="1.89703">
        <ele>666</ele>
        <time>2016-12-21T11:31:09Z</time>
      </trkpt>
      <trkpt lat="46.08897" lon="1.89705">
        <ele>665</ele>
        <time>2016-12-21T11:33:09Z</time>
      </trkpt>
      <trkpt lat="46.08894" lon="1.89707">
        <ele>665</ele>
        <time>2016-12-21T11:35:09Z</time>
      </trkpt>
      <trkpt lat="46.08885" lon="1.89722">
        <ele>665</ele>
        <time>2016-12-21T11:37:09Z</time>
      </trkpt>
      <trkpt lat="46.08876" lon="1.89731">
        <ele>664</ele>
        <time>2016-12-21T11:39:09Z</time>
      </trkpt>
      <trkpt lat="46.08868" lon="1.89738">
        <ele>663</ele>
        <time>2016-12-21T11:41:09Z</time>
      </trkpt>
      <trkpt lat="46.08853" lon="1.89749">
        <ele>661</ele>
        <time>2016-12-21T11:43:09Z</time>
      </trkpt>
      <trkpt lat="46.0885" lon="1.89753">
        <ele>661</ele>
        <time>2016-12-21T11:45:09Z</time>
      </trkpt>
      <trkpt lat="46.08837" lon="1.89771">
        <ele>659</ele>
        <time>2016-12-21T11:47:09Z</time>
      </trkpt>
      <trkpt lat="46.0883" lon="1.89783">
        <ele>659</ele>
        <time>2016-12-21T11:49:09Z</time>
      </trkpt>
      <trkpt lat="46.08823" lon="1.89796">
        <ele>659</ele>
        <time>2016-12-21T11:51:09Z</time>
      </trkpt>
      <trkpt lat="46.08817" lon="1.89805">
        <ele>658</ele>
        <time>2016-12-21T11:53:09Z</time>
      </trkpt>
      <trkpt lat="46.08808" lon="1.89841">
        <ele>659</ele>
        <time>2016-12-21T11:55:09Z</time>
      </trkpt>
      <trkpt lat="46.08809" lon="1.8984">
        <ele>659</ele>
        <time>2016-12-21T11:57:09Z</time>
      </trkpt>
      <trkpt lat="46.08803" lon="1.89837">
        <ele>659</ele>
        <time>2016-12-21T11:59:09Z</time>
      </trkpt>
      <trkpt lat="46.08799" lon="1.89833">
        <ele>659</ele>
        <time>2016-12-21T12:01:09Z</time>
      </trkpt>
      <trkpt lat="46.08779" lon="1.89819">
        <ele>656</ele>
        <time>2016-12-21T12:03:09Z</time>
      </trkpt>
      <trkpt lat="46.08772" lon="1.8981">
        <ele>655</ele>
        <time>2016-12-21T12:05:09Z</time>
      </trkpt>
      <trkpt lat="46.08765" lon="1.89794">
        <ele>652</ele>
        <time>2016-12-21T12:07:09Z</time>
      </trkpt>
      <trkpt lat="46.0876" lon="1.89783">
        <ele>651</ele>
        <time>2016-12-21T12:09:09Z</time>
      </trkpt>
      <trkpt lat="46.08756" lon="1.89777">
        <ele>650</ele>
        <time>2016-12-21T12:11:09Z</time>
      </trkpt>
      <trkpt lat="46.08749" lon="1.89764">
        <ele>647</ele>
        <time>2016-12-21T12:13:09Z</time>
      </trkpt>
      <trkpt lat="46.08743" lon="1.89758">
        <ele>647</ele>
        <time>2016-12-21T12:15:09Z</time>
      </trkpt>
      <trkpt lat="46.08731" lon="1.89752">
        <ele>646</ele>
        <time>2016-12-21T12:17:09Z</time>
      </trkpt>
      <trkpt lat="46.08718" lon="1.89755">
        <ele>646</ele>
        <time>2016-12-21T12:19:09Z</time>
      </trkpt>
      <trkpt lat="46.08707" lon="1.8976">
        <ele>646</ele>
        <time>2016-12-21T12:21:09Z</time>
      </trkpt>
      <trkpt lat="46.08703" lon="1.89764">
        <ele>646</ele>
        <time>2016-12-21T12:23:09Z</time>
      </trkpt>
      <trkpt lat="46.08697" lon="1.89768">
        <ele>647</ele>
        <time>2016-12-21T12:25:09Z</time>
      </trkpt>
      <trkpt lat="46.08693" lon="1.89773">
        <ele>647</ele>
        <time>2016-12-21T12:27:09Z</time>
      </trkpt>
      <trkpt lat="46.08686" lon="1.89776">
        <ele>648</ele>
        <time>2016-12-21T12:29:09Z</time>
      </trkpt>
      <trkpt lat="46.08669" lon="1.89784">
        <ele>649</ele>
        <time>2016-12-21T12:31:09Z</time>
      </trkpt>
      <trkpt lat="46.08658" lon="1.89791">
        <ele>651</ele>
        <time>2016-12-21T12:33:09Z</time>
      </trkpt>
      <trkpt lat="46.08655" lon="1.89793">
        <ele>651</ele>
        <time>2016-12-21T12:35:09Z</time>
      </trkpt>
      <trkpt lat="46.08643" lon="1.89802">
        <ele>654</ele>
        <time>2016-12-21T12:37:09Z</time>
      </trkpt>
      <trkpt lat="46.08626" lon="1.89813">
        <ele>656</ele>
        <time>2016-12-21T12:39:09Z</time>
      </trkpt>
      <trkpt lat="46.08621" lon="1.89815">
        <ele>657</ele>
        <time>2016-12-21T12:41:09Z</time>
      </trkpt>
      <trkpt lat="46.08608" lon="1.89819">
        <ele>658</ele>
        <time>2016-12-21T12:43:09Z</time>
      </trkpt>
      <trkpt lat="46.08592" lon="1.89826">
        <ele>660</ele>
        <time>2016-12-21T12:45:09Z</time>
      </trkpt>
      <trkpt lat="46.08583" lon="1.89831">
        <ele>661</ele>
        <time>2016-12-21T12:47:09Z</time>
      </trkpt>
      <trkpt lat="46.08574" lon="1.89836">
        <ele>661</ele>
        <time>2016-12-21T12:49:09Z</time>
      </trkpt>
      <trkpt lat="46.08569" lon="1.89839">
        <ele>661</ele>
        <time>2016-12-21T12:51:09Z</time>
      </trkpt>
      <trkpt lat="46.08554" lon="1.89845">
        <ele>661</ele>
        <time>2016-12-21T12:53:09Z</time>
      </trkpt>
      <trkpt lat="46.08539" lon="1.89847">
        <ele>660</ele>
        <time>2016-12-21T12:55:09Z</time>
      </trkpt>
      <trkpt lat="46.08537" lon="1.89846">
        <ele>660</ele>
        <time>2016-12-21T12:57:09Z</time>
      </trkpt>
      <trkpt lat="46.08531" lon="1.89842">
        <ele>660</ele>
        <time>2016-12-21T12:59:09Z</time>
      </trkpt>
      <trkpt lat="46.08525" lon="1.89837">
        <ele>659</ele>
        <time>2016-12-21T13:01:09Z</time>
      </trkpt>
      <trkpt lat="46.08518" lon="1.89832">
        <ele>659</ele>
        <time>2016-12-21T13:03:09Z</time>
      </trkpt>
      <trkpt lat="46.08506" lon="1.89821">
        <ele>658</ele>
        <time>2016-12-21T13:05:09Z</time>
      </trkpt>
      <trkpt lat="46.08506" lon="1.89814">
        <ele>658</ele>
        <time>2016-12-21T13:07:09Z</time>
      </trkpt>
      <trkpt lat="46.085" lon="1.89782">
        <ele>658</ele>
        <time>2016-12-21T13:09:09Z</time>
      </trkpt>
      <trkpt lat="46.08499" lon="1.89773">
        <ele>658</ele>
        <time>2016-12-21T13:11:09Z</time>
      </trkpt>
      <trkpt lat="46.08496" lon="1.89758">
        <ele>658</ele>
        <time>2016-12-21T13:13:09Z</time>
      </trkpt>
      <trkpt lat="46.08494" lon="1.89755">
        <ele>657</ele>
        <time>2016-12-21T13:15:09Z</time>
      </trkpt>
      <trkpt lat="46.08492" lon="1.89751">
        <ele>657</ele>
        <time>2016-12-21T13:17:09Z</time>
      </trkpt>
      <trkpt lat="46.08489" lon="1.89732">
        <ele>655</ele>
        <time>2016-12-21T13:19:09Z</time>
      </trkpt>
      <trkpt lat="46.08489" lon="1.89721">
        <ele>654</ele>
        <time>2016-12-21T13:21:09Z</time>
      </trkpt>
      <trkpt lat="46.08489" lon="1.89713">
        <ele>654</ele>
        <time>2016-12-21T13:23:09Z</time>
      </trkpt>
      <trkpt lat="46.08486" lon="1.89699">
        <ele>652</ele>
        <time>2016-12-21T13:25:09Z</time>
      </trkpt>
      <trkpt lat="46.08484" lon="1.89696">
        <ele>652</ele>
        <time>2016-12-21T13:27:09Z</time>
      </trkpt>
      <trkpt lat="46.08461" lon="1.89674">
        <ele>648</ele>
        <time>2016-12-21T13:29:09Z</time>
      </trkpt>
      <trkpt lat="46.0845" lon="1.89662">
        <ele>645</ele>
        <time>2016-12-21T13:31:09Z</time>
      </trkpt>
      <trkpt lat="46.08447" lon="1.89655">
        <ele>644</ele>
        <time>2016-12-21T13:33:09Z</time>
      </trkpt>
      <trkpt lat="46.08443" lon="1.89649">
        <ele>642</ele>
        <time>2016-12-21T13:35:09Z</time>
      </trkpt>
      <trkpt lat="46.08439" lon="1.89643">
        <ele>641</ele>
        <time>2016-12-21T13:37:09Z</time>
      </trkpt>
      <trkpt lat="46.08435" lon="1.89636">
        <ele>639</ele>
        <time>2016-12-21T13:39:09Z</time>
      </trkpt>
      <trkpt lat="46.0843" lon="1.8963">
        <ele>638</ele>
        <time>2016-12-21T13:41:09Z</time>
      </trkpt>
      <trkpt lat="46.08425" lon="1.89624">
        <ele>636</ele>
        <time>2016-12-21T13:43:09Z</time>
      </trkpt>
      <trkpt lat="46.08423" lon="1.8962">
        <ele>635</ele>
        <time>2016-12-21T13:45:09Z</time>
      </trkpt>
      <trkpt lat="46.08421" lon="1.89615">
        <ele>634</ele>
        <time>2016-12-21T13:47:09Z</time>
      </trkpt>
      <trkpt lat="46.08418" lon="1.8961">
        <ele>633</ele>
        <time>2016-12-21T13:49:09Z</time>
      </trkpt>
      <trkpt lat="46.08415" lon="1.89606">
        <ele>632</ele>
        <time>2016-12-21T13:51:09Z</time>
      </trkpt>
      <trkpt lat="46.08411" lon="1.89602">
        <ele>631</ele>
        <time>2016-12-21T13:53:09Z</time>
      </trkpt>
      <trkpt lat="46.08408" lon="1.89597">
        <ele>630</ele>
        <time>2016-12-21T13:55:09Z</time>
      </trkpt>
      <trkpt lat="46.08406" lon="1.89592">
        <ele>628</ele>
        <time>2016-12-21T13:57:09Z</time>
      </trkpt>
      <trkpt lat="46.08402" lon="1.89586">
        <ele>627</ele>
        <time>2016-12-21T13:59:09Z</time>
      </trkpt>
      <trkpt lat="46.08398" lon="1.89582">
        <ele>626</ele>
        <time>2016-12-21T14:01:09Z</time>
      </trkpt>
      <trkpt lat="46.08393" lon="1.89574">
        <ele>624</ele>
        <time>2016-12-21T14:03:09Z</time>
      </trkpt>
      <trkpt lat="46.08391" lon="1.8957">
        <ele>623</ele>
        <time>2016-12-21T14:05:09Z</time>
      </trkpt>
      <trkpt lat="46.08388" lon="1.89564">
        <ele>622</ele>
        <time>2016-12-21T14:07:09Z</time>
      </trkpt>
      <trkpt lat="46.08386" lon="1.89561">
        <ele>621</ele>
        <time>2016-12-21T14:09:09Z</time>
      </trkpt>
      <trkpt lat="46.08383" lon="1.89558">
        <ele>621</ele>
        <time>2016-12-21T14:11:09Z</time>
      </trkpt>
      <trkpt lat="46.08374" lon="1.89547">
        <ele>618</ele>
        <time>2016-12-21T14:13:09Z</time>
      </trkpt>
      <trkpt lat="46.08363" lon="1.89538">
        <ele>616</ele>
        <time>2016-12-21T14:15:09Z</time>
      </trkpt>
      <trkpt lat="46.08356" lon="1.89537">
        <ele>615</ele>
        <time>2016-12-21T14:17:09Z</time>
      </trkpt>
      <trkpt lat="46.08353" lon="1.89537">
        <ele>615</ele>
        <time>2016-12-21T14:19:09Z</time>
      </trkpt>
      <trkpt lat="46.08339" lon="1.89538">
        <ele>613</ele>
        <time>2016-12-21T14:21:09Z</time>
      </trkpt>
      <trkpt lat="46.08325" lon="1.89535">
        <ele>611</ele>
        <time>2016-12-21T14:23:09Z</time>
      </trkpt>
      <trkpt lat="46.08308" lon="1.89532">
        <ele>609</ele>
        <time>2016-12-21T14:25:09Z</time>
      </trkpt>
      <trkpt lat="46.083" lon="1.8953">
        <ele>608</ele>
        <time>2016-12-21T14:27:09Z</time>
      </trkpt>
      <trkpt lat="46.08291" lon="1.8953">
        <ele>607</ele>
        <time>2016-12-21T14:29:09Z</time>
      </trkpt>
      <trkpt lat="46.08283" lon="1.89528">
        <ele>606</ele>
        <time>2016-12-21T14:31:09Z</time>
      </trkpt>
      <trkpt lat="46.08253" lon="1.89534">
        <ele>603</ele>
        <time>2016-12-21T14:33:09Z</time>
      </trkpt>
      <trkpt lat="46.0825" lon="1.89545">
        <ele>603</ele>
        <time>2016-12-21T14:35:09Z</time>
      </trkpt>
      <trkpt lat="46.0825" lon="1.8955">
        <ele>604</ele>
        <time>2016-12-21T14:37:09Z</time>
      </trkpt>
      <trkpt lat="46.08248" lon="1.89567">
        <ele>605</ele>
        <time>2016-12-21T14:39:09Z</time>
      </trkpt>
      <trkpt lat="46.08247" lon="1.89575">
        <ele>606</ele>
        <time>2016-12-21T14:41:09Z</time>
      </trkpt>
      <trkpt lat="46.08245" lon="1.89603">
        <ele>607</ele>
        <time>2016-12-21T14:43:09Z</time>
      </trkpt>
      <trkpt lat="46.0824" lon="1.89642">
        <ele>607</ele>
        <time>2016-12-21T14:45:09Z</time>
      </trkpt>
      <trkpt lat="46.08237" lon="1.89661">
        <ele>607</ele>
        <time>2016-12-21T14:47:09Z</time>
      </trkpt>
      <trkpt lat="46.08234" lon="1.89679">
        <ele>606</ele>
        <time>2016-12-21T14:49:09Z</time>
      </trkpt>
      <trkpt lat="46.08221" lon="1.89711">
        <ele>602</ele>
        <time>2016-12-21T14:51:09Z</time>
      </trkpt>
      <trkpt lat="46.0821" lon="1.89743">
        <ele>599</ele>
        <time>2016-12-21T14:53:09Z</time>
      </trkpt>
      <trkpt lat="46.08209" lon="1.89751">
        <ele>599</ele>
        <time>2016-12-21T14:55:09Z</time>
      </trkpt>
      <trkpt lat="46.08205" lon="1.89774">
        <ele>598</ele>
        <time>2016-12-21T14:57:09Z</time>
      </trkpt>
      <trkpt lat="46.08203" lon="1.89782">
        <ele>598</ele>
        <time>2016-12-21T14:59:09Z</time>
      </trkpt>
      <trkpt lat="46.08199" lon="1.89799">
        <ele>597</ele>
        <time>2016-12-21T15:01:09Z</time>
      </trkpt>
      <trkpt lat="46.08195" lon="1.89815">
        <ele>597</ele>
        <time>2016-12-21T15:03:09Z</time>
      </trkpt>
      <trkpt lat="46.08189" lon="1.89852">
        <ele>597</ele>
        <time>2016-12-21T15:05:09Z</time>
      </trkpt>
      <trkpt lat="46.08189" lon="1.89861">
        <ele>597</ele>
        <time>2016-12-21T15:07:09Z</time>
      </trkpt>
      <trkpt lat="46.08189" lon="1.89877">
        <ele>597</ele>
        <time>2016-12-21T15:09:09Z</time>
      </trkpt>
      <trkpt lat="46.08181" lon="1.89896">
        <ele>596</ele>
        <time>2016-12-21T15:11:09Z</time>
      </trkpt>
      <trkpt lat="46.08173" lon="1.89906">
        <ele>595</ele>
        <time>2016-12-21T15:13:09Z</time>
      </trkpt>
      <trkpt lat="46.08171" lon="1.89909">
        <ele>595</ele>
        <time>2016-12-21T15:15:09Z</time>
      </trkpt>
      <trkpt lat="46.08169" lon="1.89917">
        <ele>594</ele>
        <time>2016-12-21T15:17:09Z</time>
      </trkpt>
      <trkpt lat="46.08167" lon="1.89926">
        <ele>595</ele>
        <time>2016-12-21T15:19:09Z</time>
      </trkpt>
      <trkpt lat="46.08155" lon="1.8996">
        <ele>597</ele>
        <time>2016-12-21T15:21:09Z</time>
      </trkpt>
      <trkpt lat="46.08156" lon="1.89976">
        <ele>599</ele>
        <time>2016-12-21T15:23:09Z</time>
      </trkpt>
      <trkpt lat="46.08158" lon="1.89986">
        <ele>600</ele>
        <time>2016-12-21T15:25:09Z</time>
      </trkpt>
      <trkpt lat="46.08162" lon="1.89993">
        <ele>601</ele>
        <time>2016-12-21T15:27:09Z</time>
      </trkpt>
      <trkpt lat="46.08167" lon="1.89999">
        <ele>603</ele>
        <time>2016-12-21T15:29:09Z</time>
      </trkpt>
      <trkpt lat="46.08173" lon="1.90013">
        <ele>606</ele>
        <time>2016-12-21T15:31:09Z</time>
      </trkpt>
      <trkpt lat="46.08176" lon="1.9002">
        <ele>607</ele>
        <time>2016-12-21T15:33:09Z</time>
      </trkpt>
      <trkpt lat="46.08178" lon="1.90026">
        <ele>608</ele>
        <time>2016-12-21T15:35:09Z</time>
      </trkpt>
      <trkpt lat="46.08178" lon="1.90039">
        <ele>609</ele>
        <time>2016-12-21T15:37:09Z</time>
      </trkpt>
      <trkpt lat="46.08177" lon="1.90046">
        <ele>610</ele>
        <time>2016-12-21T15:39:09Z</time>
      </trkpt>
      <trkpt lat="46.08175" lon="1.90053">
        <ele>610</ele>
        <time>2016-12-21T15:41:09Z</time>
      </trkpt>
      <trkpt lat="46.08171" lon="1.9006">
        <ele>610</ele>
        <time>2016-12-21T15:43:09Z</time>
      </trkpt>
      <trkpt lat="46.08167" lon="1.90067">
        <ele>610</ele>
        <time>2016-12-21T15:45:09Z</time>
      </trkpt>
      <trkpt lat="46.08165" lon="1.90074">
        <ele>610</ele>
        <time>2016-12-21T15:47:09Z</time>
      </trkpt>
      <trkpt lat="46.08166" lon="1.90083">
        <ele>611</ele>
        <time>2016-12-21T15:49:09Z</time>
      </trkpt>
      <trkpt lat="46.08168" lon="1.90087">
        <ele>612</ele>
        <time>2016-12-21T15:51:09Z</time>
      </trkpt>
      <trkpt lat="46.0817" lon="1.90093">
        <ele>613</ele>
        <time>2016-12-21T15:53:09Z</time>
      </trkpt>
      <trkpt lat="46.08171" lon="1.901">
        <ele>614</ele>
        <time>2016-12-21T15:55:09Z</time>
      </trkpt>
      <trkpt lat="46.08171" lon="1.90103">
        <ele>614</ele>
        <time>2016-12-21T15:57:09Z</time>
      </trkpt>
      <trkpt lat="46.0817" lon="1.90111">
        <ele>615</ele>
        <time>2016-12-21T15:59:09Z</time>
      </trkpt>
      <trkpt lat="46.08169" lon="1.90122">
        <ele>616</ele>
        <time>2016-12-21T16:01:09Z</time>
      </trkpt>
      <trkpt lat="46.0817" lon="1.90124">
        <ele>616</ele>
        <time>2016-12-21T16:03:09Z</time>
      </trkpt>
      <trkpt lat="46.08172" lon="1.90133">
        <ele>618</ele>
        <time>2016-12-21T16:05:09Z</time>
      </trkpt>
      <trkpt lat="46.08175" lon="1.90137">
        <ele>619</ele>
        <time>2016-12-21T16:07:09Z</time>
      </trkpt>
      <trkpt lat="46.0818" lon="1.90141">
        <ele>620</ele>
        <time>2016-12-21T16:09:09Z</time>
      </trkpt>
      <trkpt lat="46.08186" lon="1.90148">
        <ele>622</ele>
        <time>2016-12-21T16:11:09Z</time>
      </trkpt>
      <trkpt lat="46.08189" lon="1.9015">
        <ele>623</ele>
        <time>2016-12-21T16:13:09Z</time>
      </trkpt>
      <trkpt lat="46.08193" lon="1.90154">
        <ele>624</ele>
        <time>2016-12-21T16:15:09Z</time>
      </trkpt>
      <trkpt lat="46.08197" lon="1.90157">
        <ele>625</ele>
        <time>2016-12-21T16:17:09Z</time>
      </trkpt>
      <trkpt lat="46.08199" lon="1.90161">
        <ele>625</ele>
        <time>2016-12-21T16:19:09Z</time>
      </trkpt>
      <trkpt lat="46.08203" lon="1.90168">
        <ele>627</ele>
        <time>2016-12-21T16:21:09Z</time>
      </trkpt>
      <trkpt lat="46.08206" lon="1.9018">
        <ele>628</ele>
        <time>2016-12-21T16:23:09Z</time>
      </trkpt>
      <trkpt lat="46.08206" lon="1.90182">
        <ele>628</ele>
        <time>2016-12-21T16:25:09Z</time>
      </trkpt>
      <trkpt lat="46.08209" lon="1.90193">
        <ele>629</ele>
        <time>2016-12-21T16:27:09Z</time>
      </trkpt>
      <trkpt lat="46.08212" lon="1.90198">
        <ele>630</ele>
        <time>2016-12-21T16:29:09Z</time>
      </trkpt>
      <trkpt lat="46.08215" lon="1.90208">
        <ele>631</ele>
        <time>2016-12-21T16:31:09Z</time>
      </trkpt>
      <trkpt lat="46.08217" lon="1.9021">
        <ele>631</ele>
        <time>2016-12-21T16:33:09Z</time>
      </trkpt>
      <trkpt lat="46.08221" lon="1.90215">
        <ele>632</ele>
        <time>2016-12-21T16:35:09Z</time>
      </trkpt>
      <trkpt lat="46.08227" lon="1.90219">
        <ele>633</ele>
        <time>2016-12-21T16:37:09Z</time>
      </trkpt>
      <trkpt lat="46.08229" lon="1.90219">
        <ele>633</ele>
        <time>2016-12-21T16:39:09Z</time>
      </trkpt>
      <trkpt lat="46.08235" lon="1.9022">
        <ele>634</ele>
        <time>2016-12-21T16:41:09Z</time>
      </trkpt>
      <trkpt lat="46.08243" lon="1.90224">
        <ele>635</ele>
        <time>2016-12-21T16:43:09Z</time>
      </trkpt>
      <trkpt lat="46.08246" lon="1.90225">
        <ele>636</ele>
        <time>2016-12-21T16:45:09Z</time>
      </trkpt>
      <trkpt lat="46.08252" lon="1.90228">
        <ele>637</ele>
        <time>2016-12-21T16:47:09Z</time>
      </trkpt>
      <trkpt lat="46.08258" lon="1.9023">
        <ele>638</ele>
        <time>2016-12-21T16:49:09Z</time>
      </trkpt>
      <trkpt lat="46.08261" lon="1.90234">
        <ele>639</ele>
        <time>2016-12-21T16:51:09Z</time>
      </trkpt>
      <trkpt lat="46.08267" lon="1.90237">
        <ele>641</ele>
        <time>2016-12-21T16:53:09Z</time>
      </trkpt>
      <trkpt lat="46.0827" lon="1.90238">
        <ele>642</ele>
        <time>2016-12-21T16:55:09Z</time>
      </trkpt>
      <trkpt lat="46.0827" lon="1.90239">
        <ele>642</ele>
        <time>2016-12-21T16:57:09Z</time>
      </trkpt>
      <trkpt lat="46.08274" lon="1.90242">
        <ele>643</ele>
        <time>2016-12-21T16:59:09Z</time>
      </trkpt>
      <trkpt lat="46.0828" lon="1.90246">
        <ele>644</ele>
        <time>2016-12-21T17:01:09Z</time>
      </trkpt>
      <trkpt lat="46.0828" lon="1.90246">
        <ele>644</ele>
        <time>2016-12-21T17:03:09Z</time>
      </trkpt>
      <trkpt lat="46.08285" lon="1.90249">
        <ele>646</ele>
        <time>2016-12-21T17:05:09Z</time>
      </trkpt>
      <trkpt lat="46.08286" lon="1.90249">
        <ele>646</ele>
        <time>2016-12-21T17:07:09Z</time>
      </trkpt>
      <trkpt lat="46.08292" lon="1.90251">
        <ele>648</ele>
        <time>2016-12-21T17:09:09Z</time>
      </trkpt>
      <trkpt lat="46.08293" lon="1.90258">
        <ele>647</ele>
        <time>2016-12-21T17:11:09Z</time>
      </trkpt>
      <trkpt lat="46.08293" lon="1.90261">
        <ele>647</ele>
        <time>2016-12-21T17:13:09Z</time>
      </trkpt>
      <trkpt lat="46.08293" lon="1.90269">
        <ele>647</ele>
        <time>2016-12-21T17:15:09Z</time>
      </trkpt>
      <trkpt lat="46.08295" lon="1.90272">
        <ele>647</ele>
        <time>2016-12-21T17:17:09Z</time>
      </trkpt>
      <trkpt lat="46.08306" lon="1.90266">
        <ele>650</ele>
        <time>2016-12-21T17:19:09Z</time>
      </trkpt>
      <trkpt lat="46.08306" lon="1.90262">
        <ele>650</ele>
        <time>2016-12-21T17:21:09Z</time>
      </trkpt>
      <trkpt lat="46.08307" lon="1.90261">
        <ele>651</ele>
        <time>2016-12-21T17:23:09Z</time>
      </trkpt>
      <trkpt lat="46.08311" lon="1.90247">
        <ele>652</ele>
        <time>2016-12-21T17:25:09Z</time>
      </trkpt>
      <trkpt lat="46.08317" lon="1.90237">
        <ele>653</ele>
        <time>2016-12-21T17:27:09Z</time>
      </trkpt>
      <trkpt lat="46.08322" lon="1.90229">
        <ele>654</ele>
        <time>2016-12-21T17:29:09Z</time>
      </trkpt>
      <trkpt lat="46.08324" lon="1.90227">
        <ele>655</ele>
        <time>2016-12-21T17:31:09Z</time>
      </trkpt>
      <trkpt lat="46.08326" lon="1.90224">
        <ele>655</ele>
        <time>2016-12-21T17:33:09Z</time>
      </trkpt>
      <trkpt lat="46.08331" lon="1.90219">
        <ele>656</ele>
        <time>2016-12-21T17:35:09Z</time>
      </trkpt>
      <trkpt lat="46.08379" lon="1.90204">
        <ele>667</ele>
        <time>2016-12-21T17:37:09Z</time>
      </trkpt>
      <trkpt lat="46.08381" lon="1.90201">
        <ele>668</ele>
        <time>2016-12-21T17:39:09Z</time>
      </trkpt>
      <trkpt lat="46.08384" lon="1.902">
        <ele>668</ele>
        <time>2016-12-21T17:41:09Z</time>
      </trkpt>
      <trkpt lat="46.08389" lon="1.90201">
        <ele>670</ele>
        <time>2016-12-21T17:43:09Z</time>
      </trkpt>
      <trkpt lat="46.08391" lon="1.90202">
        <ele>670</ele>
        <time>2016-12-21T17:45:09Z</time>
      </trkpt>
      <trkpt lat="46.08399" lon="1.902">
        <ele>672</ele>
        <time>2016-12-21T17:47:09Z</time>
      </trkpt>
      <trkpt lat="46.08404" lon="1.90201">
        <ele>673</ele>
        <time>2016-12-21T17:49:09Z</time>
      </trkpt>
      <trkpt lat="46.08406" lon="1.90204">
        <ele>674</ele>
        <time>2016-12-21T17:51:09Z</time>
      </trkpt>
      <trkpt lat="46.08408" lon="1.90209">
        <ele>674</ele>
        <time>2016-12-21T17:53:09Z</time>
      </trkpt>
      <trkpt lat="46.08419" lon="1.90225">
        <ele>676</ele>
        <time>2016-12-21T17:55:09Z</time>
      </trkpt>
      <trkpt lat="46.08429" lon="1.90234">
        <ele>677</ele>
        <time>2016-12-21T17:57:09Z</time>
      </trkpt>
      <trkpt lat="46.08433" lon="1.9024">
        <ele>677</ele>
        <time>2016-12-21T17:59:09Z</time>
      </trkpt>
      <trkpt lat="46.08441" lon="1.90251">
        <ele>677</ele>
        <time>2016-12-21T18:01:09Z</time>
      </trkpt>
      <trkpt lat="46.08448" lon="1.90261">
        <ele>676</ele>
        <time>2016-12-21T18:03:09Z</time>
      </trkpt>
      <trkpt lat="46.08452" lon="1.90266">
        <ele>676</ele>
        <time>2016-12-21T18:05:09Z</time>
      </trkpt>
      <trkpt lat="46.0846" lon="1.90279">
        <ele>676</ele>
        <time>2016-12-21T18:07:09Z</time>
      </trkpt>
      <trkpt lat="46.08465" lon="1.90292">
        <ele>675</ele>
        <time>2016-12-21T18:09:09Z</time>
      </trkpt>
      <trkpt lat="46.08468" lon="1.90298">
        <ele>675</ele>
        <time>2016-12-21T18:11:09Z</time>
      </trkpt>
      <trkpt lat="46.08472" lon="1.90318">
        <ele>673</ele>
        <time>2016-12-21T18:13:09Z</time>
      </trkpt>
      <trkpt lat="46.08476" lon="1.9034">
        <ele>672</ele>
        <time>2016-12-21T18:15:09Z</time>
      </trkpt>
      <trkpt lat="46.0848" lon="1.90357">
        <ele>672</ele>
        <time>2016-12-21T18:17:09Z</time>
      </trkpt>
      <trkpt lat="46.08483" lon="1.90374">
        <ele>672</ele>
        <time>2016-12-21T18:19:09Z</time>
      </trkpt>
      <trkpt lat="46.08485" lon="1.90403">
        <ele>671</ele>
        <time>2016-12-21T18:21:09Z</time>
      </trkpt>
      <trkpt lat="46.08485" lon="1.90407">
        <ele>670</ele>
        <time>2016-12-21T18:23:09Z</time>
      </trkpt>
      <trkpt lat="46.08482" lon="1.90426">
        <ele>670</ele>
        <time>2016-12-21T18:25:09Z</time>
      </trkpt>
      <trkpt lat="46.08478" lon="1.90442">
        <ele>671</ele>
        <time>2016-12-21T18:27:09Z</time>
      </trkpt>
      <trkpt lat="46.08474" lon="1.90454">
        <ele>672</ele>
        <time>2016-12-21T18:29:09Z</time>
      </trkpt>
      <trkpt lat="46.08471" lon="1.90467">
        <ele>673</ele>
        <time>2016-12-21T18:31:09Z</time>
      </trkpt>
      <trkpt lat="46.08467" lon="1.90488">
        <ele>675</ele>
        <time>2016-12-21T18:33:09Z</time>
      </trkpt>
      <trkpt lat="46.08467" lon="1.90491">
        <ele>675</ele>
        <time>2016-12-21T18:35:09Z</time>
      </trkpt>
      <trkpt lat="46.08468" lon="1.9051">
        <ele>676</ele>
        <time>2016-12-21T18:37:09Z</time>
      </trkpt>
      <trkpt lat="46.08468" lon="1.90516">
        <ele>677</ele>
        <time>2016-12-21T18:39:09Z</time>
      </trkpt>
      <trkpt lat="46.0847" lon="1.9053">
        <ele>678</ele>
        <time>2016-12-21T18:41:09Z</time>
      </trkpt>
      <trkpt lat="46.08471" lon="1.90533">
        <ele>678</ele>
        <time>2016-12-21T18:43:09Z</time>
      </trkpt>
      <trkpt lat="46.08475" lon="1.90556">
        <ele>679</ele>
        <time>2016-12-21T18:45:09Z</time>
      </trkpt>
      <trkpt lat="46.08476" lon="1.90564">
        <ele>680</ele>
        <time>2016-12-21T18:47:09Z</time>
      </trkpt>
      <trkpt lat="46.08475" lon="1.90582">
        <ele>681</ele>
        <time>2016-12-21T18:49:09Z</time>
      </trkpt>
      <trkpt lat="46.08469" lon="1.90624">
        <ele>679</ele>
        <time>2016-12-21T18:51:09Z</time>
      </trkpt>
      <trkpt lat="46.08469" lon="1.90634">
        <ele>679</ele>
        <time>2016-12-21T18:53:09Z</time>
      </trkpt>
      <trkpt lat="46.08469" lon="1.90643">
        <ele>679</ele>
        <time>2016-12-21T18:55:09Z</time>
      </trkpt>
      <trkpt lat="46.08474" lon="1.90663">
        <ele>679</ele>
        <time>2016-12-21T18:57:09Z</time>
      </trkpt>
      <trkpt lat="46.08479" lon="1.90679">
        <ele>678</ele>
        <time>2016-12-21T18:59:09Z</time>
      </trkpt>
      <trkpt lat="46.08488" lon="1.90717">
        <ele>676</ele>
        <time>2016-12-21T19:01:09Z</time>
      </trkpt>
      <trkpt lat="46.08492" lon="1.90739">
        <ele>674</ele>
        <time>2016-12-21T19:03:09Z</time>
      </trkpt>
      <trkpt lat="46.08493" lon="1.90752">
        <ele>672</ele>
        <time>2016-12-21T19:05:09Z</time>
      </trkpt>
      <trkpt lat="46.08496" lon="1.90775">
        <ele>672</ele>
        <time>2016-12-21T19:07:09Z</time>
      </trkpt>
      <trkpt lat="46.08501" lon="1.90791">
        <ele>671</ele>
        <time>2016-12-21T19:09:09Z</time>
      </trkpt>
      <trkpt lat="46.08506" lon="1.90831">
        <ele>669</ele>
        <time>2016-12-21T19:11:09Z</time>
      </trkpt>
      <trkpt lat="46.08505" lon="1.90845">
        <ele>669</ele>
        <time>2016-12-21T19:13:09Z</time>
      </trkpt>
      <trkpt lat="46.085" lon="1.9086">
        <ele>669</ele>
        <time>2016-12-21T19:15:09Z</time>
      </trkpt>
      <trkpt lat="46.08466" lon="1.9093">
        <ele>669</ele>
        <time>2016-12-21T19:17:09Z</time>
      </trkpt>
      <trkpt lat="46.0846" lon="1.90953">
        <ele>669</ele>
        <time>2016-12-21T19:19:09Z</time>
      </trkpt>
      <trkpt lat="46.08463" lon="1.90979">
        <ele>669</ele>
        <time>2016-12-21T19:21:09Z</time>
      </trkpt>
      <trkpt lat="46.08491" lon="1.91012">
        <ele>670</ele>
        <time>2016-12-21T19:23:09Z</time>
      </trkpt>
      <trkpt lat="46.08497" lon="1.91022">
        <ele>670</ele>
        <time>2016-12-21T19:25:09Z</time>
      </trkpt>
      <trkpt lat="46.08502" lon="1.91031">
        <ele>670</ele>
        <time>2016-12-21T19:27:09Z</time>
      </trkpt>
      <trkpt lat="46.08504" lon="1.91031">
        <ele>670</ele>
        <time>2016-12-21T19:29:09Z</time>
      </trkpt>
      <trkpt lat="46.08506" lon="1.9103">
        <ele>670</ele>
        <time>2016-12-21T19:31:09Z</time>
      </trkpt>
      <trkpt lat="46.08517" lon="1.91025">
        <ele>670</ele>
        <time>2016-12-21T19:33:09Z</time>
      </trkpt>
      <trkpt lat="46.08521" lon="1.91024">
        <ele>670</ele>
        <time>2016-12-21T19:35:09Z</time>
      </trkpt>
      <trkpt lat="46.08525" lon="1.91023">
        <ele>670</ele>
        <time>2016-12-21T19:37:09Z</time>
      </trkpt>
      <trkpt lat="46.08537" lon="1.91024">
        <ele>669</ele>
        <time>2016-12-21T19:39:09Z</time>
      </trkpt>
      <trkpt lat="46.08541" lon="1.91024">
        <ele>669</ele>
        <time>2016-12-21T19:41:09Z</time>
      </trkpt>
      <trkpt lat="46.08543" lon="1.91023">
        <ele>669</ele>
        <time>2016-12-21T19:43:09Z</time>
      </trkpt>
      <trkpt lat="46.08549" lon="1.91019">
        <ele>669</ele>
        <time>2016-12-21T19:45:09Z</time>
      </trkpt>
      <trkpt lat="46.0855" lon="1.91015">
        <ele>670</ele>
        <time>2016-12-21T19:47:09Z</time>
      </trkpt>
      <trkpt lat="46.08553" lon="1.90999">
        <ele>671</ele>
        <time>2016-12-21T19:49:09Z</time>
      </trkpt>
      <trkpt lat="46.08554" lon="1.90993">
        <ele>671</ele>
        <time>2016-12-21T19:51:09Z</time>
      </trkpt>
      <trkpt lat="46.08556" lon="1.90979">
        <ele>671</ele>
        <time>2016-12-21T19:53:09Z</time>
      </trkpt>
      <trkpt lat="46.08561" lon="1.90958">
        <ele>672</ele>
        <time>2016-12-21T19:55:09Z</time>
      </trkpt>
      <trkpt lat="46.08565" lon="1.90937">
        <ele>672</ele>
        <time>2016-12-21T19:57:09Z</time>
      </trkpt>
      <trkpt lat="46.08572" lon="1.90909">
        <ele>673</ele>
        <time>2016-12-21T19:59:09Z</time>
      </trkpt>
      <trkpt lat="46.08574" lon="1.90903">
        <ele>673</ele>
        <time>2016-12-21T20:01:09Z</time>
      </trkpt>
      <trkpt lat="46.0858" lon="1.90879">
        <ele>673</ele>
        <time>2016-12-21T20:03:09Z</time>
      </trkpt>
      <trkpt lat="46.08582" lon="1.90865">
        <ele>673</ele>
        <time>2016-12-21T20:05:09Z</time>
      </trkpt>
      <trkpt lat="46.08588" lon="1.90847">
        <ele>673</ele>
        <time>2016-12-21T20:07:09Z</time>
      </trkpt>
      <trkpt lat="46.08603" lon="1.9083">
        <ele>674</ele>
        <time>2016-12-21T20:09:09Z</time>
      </trkpt>
      <trkpt lat="46.08607" lon="1.90827">
        <ele>674</ele>
        <time>2016-12-21T20:11:09Z</time>
      </trkpt>
      <trkpt lat="46.08625" lon="1.9082">
        <ele>675</ele>
        <time>2016-12-21T20:13:09Z</time>
      </trkpt>
      <trkpt lat="46.08631" lon="1.90816">
        <ele>676</ele>
        <time>2016-12-21T20:15:09Z</time>
      </trkpt>
      <trkpt lat="46.08647" lon="1.90804">
        <ele>677</ele>
        <time>2016-12-21T20:17:09Z</time>
      </trkpt>
      <trkpt lat="46.08673" lon="1.90786">
        <ele>679</ele>
        <time>2016-12-21T20:19:09Z</time>
      </trkpt>
      <trkpt lat="46.08717" lon="1.90754">
        <ele>680</ele>
        <time>2016-12-21T20:21:09Z</time>
      </trkpt>
      <trkpt lat="46.08721" lon="1.90752">
        <ele>681</ele>
        <time>2016-12-21T20:23:09Z</time>
      </trkpt>
      <trkpt lat="46.08748" lon="1.90743">
        <ele>681</ele>
        <time>2016-12-21T20:25:09Z</time>
      </trkpt>
      <trkpt lat="46.08754" lon="1.90741">
        <ele>680</ele>
        <time>2016-12-21T20:27:09Z</time>
      </trkpt>
      <trkpt lat="46.08767" lon="1.90735">
        <ele>678</ele>
        <time>2016-12-21T20:29:09Z</time>
      </trkpt>
      <trkpt lat="46.08774" lon="1.90731">
        <ele>677</ele>
        <time>2016-12-21T20:31:09Z</time>
      </trkpt>
      <trkpt lat="46.08788" lon="1.90722">
        <ele>675</ele>
        <time>2016-12-21T20:33:09Z</time>
      </trkpt>
      <trkpt lat="46.08803" lon="1.90711">
        <ele>673</ele>
        <time>2016-12-21T20:35:09Z</time>
      </trkpt>
      <trkpt lat="46.08846" lon="1.90671">
        <ele>667</ele>
        <time>2016-12-21T20:37:09Z</time>
      </trkpt>
      <trkpt lat="46.08859" lon="1.90661">
        <ele>664</ele>
        <time>2016-12-21T20:39:09Z</time>
      </trkpt>
      <trkpt lat="46.08871" lon="1.90653">
        <ele>662</ele>
        <time>2016-12-21T20:41:09Z</time>
      </trkpt>
      <trkpt lat="46.08884" lon="1.90646">
        <ele>660</ele>
        <time>2016-12-21T20:43:09Z</time>
      </trkpt>
      <trkpt lat="46.08911" lon="1.90635">
        <ele>656</ele>
        <time>2016-12-21T20:45:09Z</time>
      </trkpt>
      <trkpt lat="46.08918" lon="1.90631">
        <ele>655</ele>
        <time>2016-12-21T20:47:09Z</time>
      </trkpt>
      <trkpt lat="46.08923" lon="1.90628">
        <ele>654</ele>
        <time>2016-12-21T20:49:09Z</time>
      </trkpt>
      <trkpt lat="46.0893" lon="1.90627">
        <ele>653</ele>
        <time>2016-12-21T20:51:09Z</time>
      </trkpt>
      <trkpt lat="46.08935" lon="1.90631">
        <ele>652</ele>
        <time>2016-12-21T20:53:09Z</time>
      </trkpt>
      <trkpt lat="46.08947" lon="1.90649">
        <ele>649</ele>
        <time>2016-12-21T20:55:09Z</time>
      </trkpt>
      <trkpt lat="46.08955" lon="1.90658">
        <ele>647</ele>
        <time>2016-12-21T20:57:09Z</time>
      </trkpt>
      <trkpt lat="46.08977" lon="1.90681">
        <ele>643</ele>
        <time>2016-12-21T20:59:09Z</time>
      </trkpt>
      <trkpt lat="46.0899" lon="1.90697">
        <ele>642</ele>
        <time>2016-12-21T21:01:09Z</time>
      </trkpt>
      <trkpt lat="46.08994" lon="1.90703">
        <ele>641</ele>
        <time>2016-12-21T21:03:09Z</time>
      </trkpt>
      <trkpt lat="46.09" lon="1.90709">
        <ele>641</ele>
        <time>2016-12-21T21:05:09Z</time>
      </trkpt>
      <trkpt lat="46.09019" lon="1.90732">
        <ele>640</ele>
        <time>2016-12-21T21:07:09Z</time>
      </trkpt>
      <trkpt lat="46.09024" lon="1.9074">
        <ele>639</ele>
        <time>2016-12-21T21:09:09Z</time>
      </trkpt>
      <trkpt lat="46.09038" lon="1.9077">
        <ele>638</ele>
        <time>2016-12-21T21:11:09Z</time>
      </trkpt>
      <trkpt lat="46.09046" lon="1.90792">
        <ele>637</ele>
        <time>2016-12-21T21:13:09Z</time>
      </trkpt>
      <trkpt lat="46.09053" lon="1.90815">
        <ele>636</ele>
        <time>2016-12-21T21:15:09Z</time>
      </trkpt>
      <trkpt lat="46.0906" lon="1.90831">
        <ele>636</ele>
        <time>2016-12-21T21:17:09Z</time>
      </trkpt>
      <trkpt lat="46.09069" lon="1.90833">
        <ele>635</ele>
        <time>2016-12-21T21:19:09Z</time>
      </trkpt>
      <trkpt lat="46.09079" lon="1.90821">
        <ele>634</ele>
        <time>2016-12-21T21:21:09Z</time>
      </trkpt>
      <trkpt lat="46.09082" lon="1.90815">
        <ele>634</ele>
        <time>2016-12-21T21:23:09Z</time>
      </trkpt>
      <trkpt lat="46.09094" lon="1.90783">
        <ele>634</ele>
        <time>2016-12-21T21:25:09Z</time>
      </trkpt>
      <trkpt lat="46.09094" lon="1.90783">
        <ele>634</ele>
        <time>2016-12-21T21:27:09Z</time>
      </trkpt>
      <trkpt lat="46.09096" lon="1.90783">
        <ele>634</ele>
        <time>2016-12-21T21:29:09Z</time>
      </trkpt>
      <trkpt lat="46.09097" lon="1.90784">
        <ele>634</ele>
        <time>2016-12-21T21:31:09Z</time>
      </trkpt>
      <trkpt lat="46.09107" lon="1.9079">
        <ele>634</ele>
        <time>2016-12-21T21:33:09Z</time>
      </trkpt>
      <trkpt lat="46.09125" lon="1.90799">
        <ele>634</ele>
        <time>2016-12-21T21:35:09Z</time>
      </trkpt>
      <trkpt lat="46.09163" lon="1.90807">
        <ele>635</ele>
        <time>2016-12-21T21:37:09Z</time>
      </trkpt>
      <trkpt lat="46.09177" lon="1.9081">
        <ele>635</ele>
        <time>2016-12-21T21:39:09Z</time>
      </trkpt>
      <trkpt lat="46.09193" lon="1.90812">
        <ele>636</ele>
        <time>2016-12-21T21:41:09Z</time>
      </trkpt>
      <trkpt lat="46.092" lon="1.90809">
        <ele>637</ele>
        <time>2016-12-21T21:43:09Z</time>
      </trkpt>
      <trkpt lat="46.09211" lon="1.90804">
        <ele>637</ele>
        <time>2016-12-21T21:45:09Z</time>
      </trkpt>
      <trkpt lat="46.09234" lon="1.90788">
        <ele>638</ele>
        <time>2016-12-21T21:47:09Z</time>
      </trkpt>
      <trkpt lat="46.09253" lon="1.90761">
        <ele>640</ele>
        <time>2016-12-21T21:49:09Z</time>
      </trkpt>
      <trkpt lat="46.09257" lon="1.90753">
        <ele>641</ele>
        <time>2016-12-21T21:51:09Z</time>
      </trkpt>
      <trkpt lat="46.09266" lon="1.90744">
        <ele>641</ele>
        <time>2016-12-21T21:53:09Z</time>
      </trkpt>
      <trkpt lat="46.09269" lon="1.90739">
        <ele>641</ele>
        <time>2016-12-21T21:55:09Z</time>
      </trkpt>
      <trkpt lat="46.09278" lon="1.9073">
        <ele>641</ele>
        <time>2016-12-21T21:57:09Z</time>
      </trkpt>
      <trkpt lat="46.0928" lon="1.9073">
        <ele>641</ele>
        <time>2016-12-21T21:59:09Z</time>
      </trkpt>
      <trkpt lat="46.09284" lon="1.90735">
        <ele>642</ele>
        <time>2016-12-21T22:01:09Z</time>
      </trkpt>
      <trkpt lat="46.09285" lon="1.90737">
        <ele>642</ele>
        <time>2016-12-21T22:03:09Z</time>
      </trkpt>
      <trkpt lat="46.09287" lon="1.9074">
        <ele>643</ele>
        <time>2016-12-21T22:05:09Z</time>
      </trkpt>
      <trkpt lat="46.09296" lon="1.90749">
        <ele>644</ele>
        <time>2016-12-21T22:07:09Z</time>
      </trkpt>
      <trkpt lat="46.09312" lon="1.90763">
        <ele>645</ele>
        <time>2016-12-21T22:09:09Z</time>
      </trkpt>
      <trkpt lat="46.09317" lon="1.9077">
        <ele>646</ele>
        <time>2016-12-21T22:11:09Z</time>
      </trkpt>
      <trkpt lat="46.09322" lon="1.90774">
        <ele>646</ele>
        <time>2016-12-21T22:13:09Z</time>
      </trkpt>
      <trkpt lat="46.09331" lon="1.90778">
        <ele>646</ele>
        <time>2016-12-21T22:15:09Z</time>
      </trkpt>
      <trkpt lat="46.09338" lon="1.90777">
        <ele>647</ele>
        <time>2016-12-21T22:17:09Z</time>
      </trkpt>
      <trkpt lat="46.09348" lon="1.90774">
        <ele>647</ele>
        <time>2016-12-21T22:19:09Z</time>
      </trkpt>
      <trkpt lat="46.0938" lon="1.90769">
        <ele>649</ele>
        <time>2016-12-21T22:21:09Z</time>
      </trkpt>
      <trkpt lat="46.09388" lon="1.90769">
        <ele>649</ele>
        <time>2016-12-21T22:23:09Z</time>
      </trkpt>
      <trkpt lat="46.09404" lon="1.90771">
        <ele>650</ele>
        <time>2016-12-21T22:25:09Z</time>
      </trkpt>
      <trkpt lat="46.09409" lon="1.90772">
        <ele>650</ele>
        <time>2016-12-21T22:27:09Z</time>
      </trkpt>
      <trkpt lat="46.09423" lon="1.90777">
        <ele>650</ele>
        <time>2016-12-21T22:29:09Z</time>
      </trkpt>
      <trkpt lat="46.09426" lon="1.90778">
        <ele>650</ele>
        <time>2016-12-21T22:31:09Z</time>
      </trkpt>
      <trkpt lat="46.0943" lon="1.90782">
        <ele>650</ele>
        <time>2016-12-21T22:33:09Z</time>
      </trkpt>
      <trkpt lat="46.09435" lon="1.90788">
        <ele>650</ele>
        <time>2016-12-21T22:35:09Z</time>
      </trkpt>
      <trkpt lat="46.09441" lon="1.90793">
        <ele>650</ele>
        <time>2016-12-21T22:37:09Z</time>
      </trkpt>
      <trkpt lat="46.0945" lon="1.90798">
        <ele>650</ele>
        <time>2016-12-21T22:39:09Z</time>
      </trkpt>
      <trkpt lat="46.09452" lon="1.90803">
        <ele>650</ele>
        <time>2016-12-21T22:41:09Z</time>
      </trkpt>
      <trkpt lat="46.09452" lon="1.90815">
        <ele>649</ele>
        <time>2016-12-21T22:43:09Z</time>
      </trkpt>
      <trkpt lat="46.09449" lon="1.90827">
        <ele>648</ele>
        <time>2016-12-21T22:45:09Z</time>
      </trkpt>
      <trkpt lat="46.09447" lon="1.9085">
        <ele>646</ele>
        <time>2016-12-21T22:47:09Z</time>
      </trkpt>
      <trkpt lat="46.09446" lon="1.90869">
        <ele>644</ele>
        <time>2016-12-21T22:49:09Z</time>
      </trkpt>
      <trkpt lat="46.09446" lon="1.90878">
        <ele>644</ele>
        <time>2016-12-21T22:51:09Z</time>
      </trkpt>
      <trkpt lat="46.09444" lon="1.90939">
        <ele>641</ele>
        <time>2016-12-21T22:53:09Z</time>
      </trkpt>
      <trkpt lat="46.09442" lon="1.91011">
        <ele>644</ele>
        <time>2016-12-21T22:55:09Z</time>
      </trkpt>
      <trkpt lat="46.0944" lon="1.91051">
        <ele>647</ele>
        <time>2016-12-21T22:57:09Z</time>
      </trkpt>
      <trkpt lat="46.0944" lon="1.91055">
        <ele>647</ele>
        <time>2016-12-21T22:59:09Z</time>
      </trkpt>
      <trkpt lat="46.09437" lon="1.91073">
        <ele>648</ele>
        <time>2016-12-21T23:01:09Z</time>
      </trkpt>
      <trkpt lat="46.09434" lon="1.91084">
        <ele>649</ele>
        <time>2016-12-21T23:03:09Z</time>
      </trkpt>
      <trkpt lat="46.09434" lon="1.91091">
        <ele>649</ele>
        <time>2016-12-21T23:05:09Z</time>
      </trkpt>
      <trkpt lat="46.09436" lon="1.91095">
        <ele>650</ele>
        <time>2016-12-21T23:07:09Z</time>
      </trkpt>
      <trkpt lat="46.09448" lon="1.91105">
        <ele>651</ele>
        <time>2016-12-21T23:09:09Z</time>
      </trkpt>
      <trkpt lat="46.09451" lon="1.91107">
        <ele>651</ele>
        <time>2016-12-21T23:11:09Z</time>
      </trkpt>
      <trkpt lat="46.09464" lon="1.91117">
        <ele>653</ele>
        <time>2016-12-21T23:13:09Z</time>
      </trkpt>
      <trkpt lat="46.09485" lon="1.91135">
        <ele>656</ele>
        <time>2016-12-21T23:15:09Z</time>
      </trkpt>
      <trkpt lat="46.09492" lon="1.91144">
        <ele>657</ele>
        <time>2016-12-21T23:17:09Z</time>
      </trkpt>
      <trkpt lat="46.09498" lon="1.91154">
        <ele>659</ele>
        <time>2016-12-21T23:19:09Z</time>
      </trkpt>
      <trkpt lat="46.09501" lon="1.91163">
        <ele>660</ele>
        <time>2016-12-21T23:21:09Z</time>
      </trkpt>
      <trkpt lat="46.09505" lon="1.91176">
        <ele>660</ele>
        <time>2016-12-21T23:23:09Z</time>
      </trkpt>
      <trkpt lat="46.09506" lon="1.91179">
        <ele>660</ele>
        <time>2016-12-21T23:25:09Z</time>
      </trkpt>
      <trkpt lat="46.0951" lon="1.91193">
        <ele>661</ele>
        <time>2016-12-21T23:27:09Z</time>
      </trkpt>
      <trkpt lat="46.09514" lon="1.91202">
        <ele>661</ele>
        <time>2016-12-21T23:29:09Z</time>
      </trkpt>
      <trkpt lat="46.09517" lon="1.91213">
        <ele>662</ele>
        <time>2016-12-21T23:31:09Z</time>
      </trkpt>
      <trkpt lat="46.09528" lon="1.91244">
        <ele>664</ele>
        <time>2016-12-21T23:33:09Z</time>
      </trkpt>
      <trkpt lat="46.09532" lon="1.91256">
        <ele>664</ele>
        <time>2016-12-21T23:35:09Z</time>
      </trkpt>
      <trkpt lat="46.09536" lon="1.9128">
        <ele>666</ele>
        <time>2016-12-21T23:37:09Z</time>
      </trkpt>
      <trkpt lat="46.09534" lon="1.91301">
        <ele>667</ele>
        <time>2016-12-21T23:39:09Z</time>
      </trkpt>
      <trkpt lat="46.09529" lon="1.91315">
        <ele>668</ele>
        <time>2016-12-21T23:41:09Z</time>
      </trkpt>
      <trkpt lat="46.09525" lon="1.9133">
        <ele>668</ele>
        <time>2016-12-21T23:43:09Z</time>
      </trkpt>
      <trkpt lat="46.09521" lon="1.9134">
        <ele>669</ele>
        <time>2016-12-21T23:45:09Z</time>
      </trkpt>
      <trkpt lat="46.09516" lon="1.91357">
        <ele>669</ele>
        <time>2016-12-21T23:47:09Z</time>
      </trkpt>
      <trkpt lat="46.09509" lon="1.91386">
        <ele>670</ele>
        <time>2016-12-21T23:49:09Z</time>
      </trkpt>
      <trkpt lat="46.09508" lon="1.9139">
        <ele>670</ele>
        <time>2016-12-21T23:51:09Z</time>
      </trkpt>
      <trkpt lat="46.09502" lon="1.91412">
        <ele>670</ele>
        <time>2016-12-21T23:53:09Z</time>
      </trkpt>
      <trkpt lat="46.09493" lon="1.91439">
        <ele>670</ele>
        <time>2016-12-21T23:55:09Z</time>
      </trkpt>
      <trkpt lat="46.09483" lon="1.91473">
        <ele>671</ele>
        <time>2016-12-21T23:57:09Z</time>
      </trkpt>
      <trkpt lat="46.09476" lon="1.91497">
        <ele>670</ele>
        <time>2016-12-21T23:59:09Z</time>
      </trkpt>
      <trkpt lat="46.09472" lon="1.91525">
        <ele>670</ele>
        <time>2016-12-22T00:01:09Z</time>
      </trkpt>
      <trkpt lat="46.09469" lon="1.91553">
        <ele>670</ele>
        <time>2016-12-22T00:03:09Z</time>
      </trkpt>
      <trkpt lat="46.0947" lon="1.91568">
        <ele>671</ele>
        <time>2016-12-22T00:05:09Z</time>
      </trkpt>
      <trkpt lat="46.09472" lon="1.91594">
        <ele>671</ele>
        <time>2016-12-22T00:07:09Z</time>
      </trkpt>
      <trkpt lat="46.09482" lon="1.9162">
        <ele>671</ele>
        <time>2016-12-22T00:09:09Z</time>
      </trkpt>
      <trkpt lat="46.09497" lon="1.91635">
        <ele>672</ele>
        <time>2016-12-22T00:11:09Z</time>
      </trkpt>
      <trkpt lat="46.09511" lon="1.91644">
        <ele>673</ele>
        <time>2016-12-22T00:13:09Z</time>
      </trkpt>
      <trkpt lat="46.09526" lon="1.91656">
        <ele>673</ele>
        <time>2016-12-22T00:15:09Z</time>
      </trkpt>
      <trkpt lat="46.09541" lon="1.91662">
        <ele>674</ele>
        <time>2016-12-22T00:17:09Z</time>
      </trkpt>
      <trkpt lat="46.09545" lon="1.91664">
        <ele>674</ele>
        <time>2016-12-22T00:19:09Z</time>
      </trkpt>
      <trkpt lat="46.09566" lon="1.91671">
        <ele>674</ele>
        <time>2016-12-22T00:21:09Z</time>
      </trkpt>
      <trkpt lat="46.0957" lon="1.91672">
        <ele>674</ele>
        <time>2016-12-22T00:23:09Z</time>
      </trkpt>
      <trkpt lat="46.09582" lon="1.91673">
        <ele>674</ele>
        <time>2016-12-22T00:25:09Z</time>
      </trkpt>
      <trkpt lat="46.09594" lon="1.91675">
        <ele>674</ele>
        <time>2016-12-22T00:27:09Z</time>
      </trkpt>
      <trkpt lat="46.09623" lon="1.91676">
        <ele>673</ele>
        <time>2016-12-22T00:29:09Z</time>
      </trkpt>
      <trkpt lat="46.09642" lon="1.91666">
        <ele>673</ele>
        <time>2016-12-22T00:31:09Z</time>
      </trkpt>
      <trkpt lat="46.09661" lon="1.91643">
        <ele>674</ele>
        <time>2016-12-22T00:33:09Z</time>
      </trkpt>
      <trkpt lat="46.09682" lon="1.91621">
        <ele>675</ele>
        <time>2016-12-22T00:35:09Z</time>
      </trkpt>
      <trkpt lat="46.09696" lon="1.9161">
        <ele>676</ele>
        <time>2016-12-22T00:37:09Z</time>
      </trkpt>
      <trkpt lat="46.09702" lon="1.9161">
        <ele>676</ele>
        <time>2016-12-22T00:39:09Z</time>
      </trkpt>
      <trkpt lat="46.09706" lon="1.91614">
        <ele>676</ele>
        <time>2016-12-22T00:41:09Z</time>
      </trkpt>
      <trkpt lat="46.09711" lon="1.91621">
        <ele>675</ele>
        <time>2016-12-22T00:43:09Z</time>
      </trkpt>
      <trkpt lat="46.09718" lon="1.91637">
        <ele>674</ele>
        <time>2016-12-22T00:45:09Z</time>
      </trkpt>
      <trkpt lat="46.09729" lon="1.91665">
        <ele>672</ele>
        <time>2016-12-22T00:47:09Z</time>
      </trkpt>
      <trkpt lat="46.09734" lon="1.91682">
        <ele>671</ele>
        <time>2016-12-22T00:49:09Z</time>
      </trkpt>
      <trkpt lat="46.09739" lon="1.91709">
        <ele>670</ele>
        <time>2016-12-22T00:51:09Z</time>
      </trkpt>
      <trkpt lat="46.09742" lon="1.91727">
        <ele>670</ele>
        <time>2016-12-22T00:53:09Z</time>
      </trkpt>
      <trkpt lat="46.09751" lon="1.91774">
        <ele>669</ele>
        <time>2016-12-22T00:55:09Z</time>
      </trkpt>
      <trkpt lat="46.09743" lon="1.91791">
        <ele>670</ele>
        <time>2016-12-22T00:57:09Z</time>
      </trkpt>
      <trkpt lat="46.09722" lon="1.91809">
        <ele>670</ele>
        <time>2016-12-22T00:59:09Z</time>
      </trkpt>
      <trkpt lat="46.09715" lon="1.91814">
        <ele>670</ele>
        <time>2016-12-22T01:01:09Z</time>
      </trkpt>
      <trkpt lat="46.09706" lon="1.91824">
        <ele>670</ele>
        <time>2016-12-22T01:03:09Z</time>
      </trkpt>
      <trkpt lat="46.09701" lon="1.91833">
        <ele>671</ele>
        <time>2016-12-22T01:05:09Z</time>
      </trkpt>
      <trkpt lat="46.09702" lon="1.91849">
        <ele>671</ele>
        <time>2016-12-22T01:07:09Z</time>
      </trkpt>
      <trkpt lat="46.09704" lon="1.91854">
        <ele>671</ele>
        <time>2016-12-22T01:09:09Z</time>
      </trkpt>
      <trkpt lat="46.09709" lon="1.9187">
        <ele>672</ele>
        <time>2016-12-22T01:11:09Z</time>
      </trkpt>
      <trkpt lat="46.09711" lon="1.91879">
        <ele>672</ele>
        <time>2016-12-22T01:13:09Z</time>
      </trkpt>
      <trkpt lat="46.0971" lon="1.91894">
        <ele>672</ele>
        <time>2016-12-22T01:15:09Z</time>
      </trkpt>
      <trkpt lat="46.09708" lon="1.91897">
        <ele>672</ele>
        <time>2016-12-22T01:17:09Z</time>
      </trkpt>
      <trkpt lat="46.09698" lon="1.919">
        <ele>673</ele>
        <time>2016-12-22T01:19:09Z</time>
      </trkpt>
      <trkpt lat="46.0963" lon="1.91904">
        <ele>674</ele>
        <time>2016-12-22T01:21:09Z</time>
      </trkpt>
      <trkpt lat="46.09598" lon="1.91906">
        <ele>674</ele>
        <time>2016-12-22T01:23:09Z</time>
      </trkpt>
      <trkpt lat="46.09576" lon="1.91906">
        <ele>674</ele>
        <time>2016-12-22T01:25:09Z</time>
      </trkpt>
      <trkpt lat="46.09572" lon="1.91906">
        <ele>674</ele>
        <time>2016-12-22T01:27:09Z</time>
      </trkpt>
      <trkpt lat="46.09548" lon="1.91895">
        <ele>674</ele>
        <time>2016-12-22T01:29:09Z</time>
      </trkpt>
      <trkpt lat="46.09517" lon="1.91886">
        <ele>674</ele>
        <time>2016-12-22T01:31:09Z</time>
      </trkpt>
      <trkpt lat="46.09513" lon="1.91885">
        <ele>674</ele>
        <time>2016-12-22T01:33:09Z</time>
      </trkpt>
      <trkpt lat="46.09491" lon="1.91886">
        <ele>674</ele>
        <time>2016-12-22T01:35:09Z</time>
      </trkpt>
      <trkpt lat="46.0948" lon="1.91901">
        <ele>675</ele>
        <time>2016-12-22T01:37:09Z</time>
      </trkpt>
      <trkpt lat="46.09466" lon="1.91916">
        <ele>675</ele>
        <time>2016-12-22T01:39:09Z</time>
      </trkpt>
      <trkpt lat="46.09464" lon="1.91919">
        <ele>675</ele>
        <time>2016-12-22T01:41:09Z</time>
      </trkpt>
      <trkpt lat="46.09461" lon="1.9193">
        <ele>676</ele>
        <time>2016-12-22T01:43:09Z</time>
      </trkpt>
      <trkpt lat="46.09467" lon="1.91937">
        <ele>676</ele>
        <time>2016-12-22T01:45:09Z</time>
      </trkpt>
      <trkpt lat="46.0947" lon="1.9195">
        <ele>677</ele>
        <time>2016-12-22T01:47:09Z</time>
      </trkpt>
      <trkpt lat="46.09465" lon="1.91956">
        <ele>677</ele>
        <time>2016-12-22T01:49:09Z</time>
      </trkpt>
      <trkpt lat="46.09461" lon="1.91957">
        <ele>677</ele>
        <time>2016-12-22T01:51:09Z</time>
      </trkpt>
      <trkpt lat="46.0945" lon="1.91962">
        <ele>677</ele>
        <time>2016-12-22T01:53:09Z</time>
      </trkpt>
      <trkpt lat="46.09446" lon="1.91969">
        <ele>677</ele>
        <time>2016-12-22T01:55:09Z</time>
      </trkpt>
      <trkpt lat="46.09441" lon="1.91983">
        <ele>677</ele>
        <time>2016-12-22T01:57:09Z</time>
      </trkpt>
      <trkpt lat="46.09439" lon="1.91991">
        <ele>678</ele>
        <time>2016-12-22T01:59:09Z</time>
      </trkpt>
      <trkpt lat="46.09436" lon="1.91996">
        <ele>678</ele>
        <time>2016-12-22T02:01:09Z</time>
      </trkpt>
      <trkpt lat="46.0943" lon="1.92001">
        <ele>678</ele>
        <time>2016-12-22T02:03:09Z</time>
      </trkpt>
      <trkpt lat="46.09419" lon="1.91997">
        <ele>677</ele>
        <time>2016-12-22T02:05:09Z</time>
      </trkpt>
      <trkpt lat="46.09409" lon="1.91998">
        <ele>676</ele>
        <time>2016-12-22T02:07:09Z</time>
      </trkpt>
      <trkpt lat="46.09407" lon="1.91999">
        <ele>676</ele>
        <time>2016-12-22T02:09:09Z</time>
      </trkpt>
      <trkpt lat="46.09409" lon="1.92002">
        <ele>676</ele>
        <time>2016-12-22T02:11:09Z</time>
      </trkpt>
      <trkpt lat="46.09411" lon="1.92">
        <ele>677</ele>
        <time>2016-12-22T02:13:09Z</time>
      </trkpt>
      <trkpt lat="46.09408" lon="1.91998">
        <ele>676</ele>
        <time>2016-12-22T02:15:09Z</time>
      </trkpt>
      <trkpt lat="46.09396" lon="1.91984">
        <ele>675</ele>
        <time>2016-12-22T02:17:09Z</time>
      </trkpt>
      <trkpt lat="46.09383" lon="1.91969">
        <ele>673</ele>
        <time>2016-12-22T02:19:09Z</time>
      </trkpt>
      <trkpt lat="46.09375" lon="1.91968">
        <ele>673</ele>
        <time>2016-12-22T02:21:09Z</time>
      </trkpt>
      <trkpt lat="46.09372" lon="1.9197">
        <ele>673</ele>
        <time>2016-12-22T02:23:09Z</time>
      </trkpt>
      <trkpt lat="46.09362" lon="1.91986">
        <ele>673</ele>
        <time>2016-12-22T02:25:09Z</time>
      </trkpt>
      <trkpt lat="46.09353" lon="1.92022">
        <ele>672</ele>
        <time>2016-12-22T02:27:09Z</time>
      </trkpt>
      <trkpt lat="46.09344" lon="1.92066">
        <ele>671</ele>
        <time>2016-12-22T02:29:09Z</time>
      </trkpt>
      <trkpt lat="46.09331" lon="1.92116">
        <ele>671</ele>
        <time>2016-12-22T02:31:09Z</time>
      </trkpt>
      <trkpt lat="46.09319" lon="1.9216">
        <ele>669</ele>
        <time>2016-12-22T02:33:09Z</time>
      </trkpt>
      <trkpt lat="46.09316" lon="1.92173">
        <ele>669</ele>
        <time>2016-12-22T02:35:09Z</time>
      </trkpt>
      <trkpt lat="46.09314" lon="1.92215">
        <ele>669</ele>
        <time>2016-12-22T02:37:09Z</time>
      </trkpt>
      <trkpt lat="46.09313" lon="1.9223">
        <ele>669</ele>
        <time>2016-12-22T02:39:09Z</time>
      </trkpt>
      <trkpt lat="46.0931" lon="1.92244">
        <ele>669</ele>
        <time>2016-12-22T02:41:09Z</time>
      </trkpt>
      <trkpt lat="46.09306" lon="1.92256">
        <ele>669</ele>
        <time>2016-12-22T02:43:09Z</time>
      </trkpt>
      <trkpt lat="46.09292" lon="1.92273">
        <ele>670</ele>
        <time>2016-12-22T02:45:09Z</time>
      </trkpt>
      <trkpt lat="46.09282" lon="1.92279">
        <ele>670</ele>
        <time>2016-12-22T02:47:09Z</time>
      </trkpt>
      <trkpt lat="46.09271" lon="1.92285">
        <ele>670</ele>
        <time>2016-12-22T02:49:09Z</time>
      </trkpt>
      <trkpt lat="46.09265" lon="1.92287">
        <ele>670</ele>
        <time>2016-12-22T02:51:09Z</time>
      </trkpt>
      <trkpt lat="46.09224" lon="1.92306">
        <ele>669</ele>
        <time>2016-12-22T02:53:09Z</time>
      </trkpt>
      <trkpt lat="46.09218" lon="1.92311">
        <ele>668</ele>
        <time>2016-12-22T02:55:09Z</time>
      </trkpt>
      <trkpt lat="46.09212" lon="1.92316">
        <ele>668</ele>
        <time>2016-12-22T02:57:09Z</time>
      </trkpt>
      <trkpt lat="46.09196" lon="1.92336">
        <ele>667</ele>
        <time>2016-12-22T02:59:09Z</time>
      </trkpt>
      <trkpt lat="46.0919" lon="1.92343">
        <ele>667</ele>
        <time>2016-12-22T03:01:09Z</time>
      </trkpt>
      <trkpt lat="46.09126" lon="1.92431">
        <ele>662</ele>
        <time>2016-12-22T03:03:09Z</time>
      </trkpt>
      <trkpt lat="46.09097" lon="1.92476">
        <ele>660</ele>
        <time>2016-12-22T03:05:09Z</time>
      </trkpt>
      <trkpt lat="46.09077" lon="1.92504">
        <ele>661</ele>
        <time>2016-12-22T03:07:09Z</time>
      </trkpt>
      <trkpt lat="46.0907" lon="1.92513">
        <ele>660</ele>
        <time>2016-12-22T03:09:09Z</time>
      </trkpt>
      <trkpt lat="46.09056" lon="1.92529">
        <ele>659</ele>
        <time>2016-12-22T03:11:09Z</time>
      </trkpt>
      <trkpt lat="46.09035" lon="1.92554">
        <ele>658</ele>
        <time>2016-12-22T03:13:09Z</time>
      </trkpt>
      <trkpt lat="46.09022" lon="1.92571">
        <ele>657</ele>
        <time>2016-12-22T03:15:09Z</time>
      </trkpt>
      <trkpt lat="46.09017" lon="1.9258">
        <ele>657</ele>
        <time>2016-12-22T03:17:09Z</time>
      </trkpt>
      <trkpt lat="46.09014" lon="1.92599">
        <ele>656</ele>
        <time>2016-12-22T03:19:09Z</time>
      </trkpt>
      <trkpt lat="46.09013" lon="1.9261">
        <ele>655</ele>
        <time>2016-12-22T03:21:09Z</time>
      </trkpt>
      <trkpt lat="46.0901" lon="1.92632">
        <ele>653</ele>
        <time>2016-12-22T03:23:09Z</time>
      </trkpt>
      <trkpt lat="46.09005" lon="1.92642">
        <ele>653</ele>
        <time>2016-12-22T03:25:09Z</time>
      </trkpt>
      <trkpt lat="46.08993" lon="1.92658">
        <ele>652</ele>
        <time>2016-12-22T03:27:09Z</time>
      </trkpt>
      <trkpt lat="46.08986" lon="1.92665">
        <ele>651</ele>
        <time>2016-12-22T03:29:09Z</time>
      </trkpt>
      <trkpt lat="46.08978" lon="1.92671">
        <ele>650</ele>
        <time>2016-12-22T03:31:09Z</time>
      </trkpt>
      <trkpt lat="46.08969" lon="1.92677">
        <ele>650</ele>
        <time>2016-12-22T03:33:09Z</time>
      </trkpt>
      <trkpt lat="46.08962" lon="1.92686">
        <ele>649</ele>
        <time>2016-12-22T03:35:09Z</time>
      </trkpt>
      <trkpt lat="46.08956" lon="1.92697">
        <ele>648</ele>
        <time>2016-12-22T03:37:09Z</time>
      </trkpt>
      <trkpt lat="46.08952" lon="1.9271">
        <ele>647</ele>
        <time>2016-12-22T03:39:09Z</time>
      </trkpt>
      <trkpt lat="46.08948" lon="1.92738">
        <ele>645</ele>
        <time>2016-12-22T03:41:09Z</time>
      </trkpt>
      <trkpt lat="46.08947" lon="1.92752">
        <ele>644</ele>
        <time>2016-12-22T03:43:09Z</time>
      </trkpt>
      <trkpt lat="46.08941" lon="1.92805">
        <ele>643</ele>
        <time>2016-12-22T03:45:09Z</time>
      </trkpt>
      <trkpt lat="46.08924" lon="1.92863">
        <ele>642</ele>
        <time>2016-12-22T03:47:09Z</time>
      </trkpt>
      <trkpt lat="46.0891" lon="1.92894">
        <ele>641</ele>
        <time>2016-12-22T03:49:09Z</time>
      </trkpt>
      <trkpt lat="46.08904" lon="1.92902">
        <ele>641</ele>
        <time>2016-12-22T03:51:09Z</time>
      </trkpt>
      <trkpt lat="46.08897" lon="1.9291">
        <ele>640</ele>
        <time>2016-12-22T03:53:09Z</time>
      </trkpt>
      <trkpt lat="46.08876" lon="1.92928">
        <ele>640</ele>
        <time>2016-12-22T03:55:09Z</time>
      </trkpt>
      <trkpt lat="46.0886" lon="1.92937">
        <ele>640</ele>
        <time>2016-12-22T03:57:09Z</time>
      </trkpt>
      <trkpt lat="46.08844" lon="1.92947">
        <ele>640</ele>
        <time>2016-12-22T03:59:09Z</time>
      </trkpt>
      <trkpt lat="46.08822" lon="1.92972">
        <ele>639</ele>
        <time>2016-12-22T04:01:09Z</time>
      </trkpt>
      <trkpt lat="46.08798" lon="1.9302">
        <ele>639</ele>
        <time>2016-12-22T04:03:09Z</time>
      </trkpt>
      <trkpt lat="46.08788" lon="1.93045">
        <ele>639</ele>
        <time>2016-12-22T04:05:09Z</time>
      </trkpt>
      <trkpt lat="46.08788" lon="1.9305">
        <ele>639</ele>
        <time>2016-12-22T04:07:09Z</time>
      </trkpt>
      <trkpt lat="46.08796" lon="1.93067">
        <ele>639</ele>
        <time>2016-12-22T04:09:09Z</time>
      </trkpt>
      <trkpt lat="46.08808" lon="1.93084">
        <ele>639</ele>
        <time>2016-12-22T04:11:09Z</time>
      </trkpt>
      <trkpt lat="46.08818" lon="1.93094">
        <ele>639</ele>
        <time>2016-12-22T04:13:09Z</time>
      </trkpt>
      <trkpt lat="46.08823" lon="1.93098">
        <ele>640</ele>
        <time>2016-12-22T04:15:09Z</time>
      </trkpt>
      <trkpt lat="46.08842" lon="1.9311">
        <ele>640</ele>
        <time>2016-12-22T04:17:09Z</time>
      </trkpt>
      <trkpt lat="46.08882" lon="1.93124">
        <ele>639</ele>
        <time>2016-12-22T04:19:09Z</time>
      </trkpt>
      <trkpt lat="46.08894" lon="1.93132">
        <ele>638</ele>
        <time>2016-12-22T04:21:09Z</time>
      </trkpt>
      <trkpt lat="46.08908" lon="1.93142">
        <ele>638</ele>
        <time>2016-12-22T04:23:09Z</time>
      </trkpt>
      <trkpt lat="46.0892" lon="1.93152">
        <ele>637</ele>
        <time>2016-12-22T04:25:09Z</time>
      </trkpt>
      <trkpt lat="46.08926" lon="1.93159">
        <ele>636</ele>
        <time>2016-12-22T04:27:09Z</time>
      </trkpt>
      <trkpt lat="46.08936" lon="1.93174">
        <ele>635</ele>
        <time>2016-12-22T04:29:09Z</time>
      </trkpt>
      <trkpt lat="46.08947" lon="1.9319">
        <ele>634</ele>
        <time>2016-12-22T04:31:09Z</time>
      </trkpt>
      <trkpt lat="46.08963" lon="1.93215">
        <ele>632</ele>
        <time>2016-12-22T04:33:09Z</time>
      </trkpt>
      <trkpt lat="46.08967" lon="1.93225">
        <ele>631</ele>
        <time>2016-12-22T04:35:09Z</time>
      </trkpt>
      <trkpt lat="46.08969" lon="1.93235">
        <ele>630</ele>
        <time>2016-12-22T04:37:09Z</time>
      </trkpt>
      <trkpt lat="46.08971" lon="1.93246">
        <ele>630</ele>
        <time>2016-12-22T04:39:09Z</time>
      </trkpt>
      <trkpt lat="46.08967" lon="1.93276">
        <ele>629</ele>
        <time>2016-12-22T04:41:09Z</time>
      </trkpt>
      <trkpt lat="46.08962" lon="1.93296">
        <ele>629</ele>
        <time>2016-12-22T04:43:09Z</time>
      </trkpt>
      <trkpt lat="46.08955" lon="1.93308">
        <ele>630</ele>
        <time>2016-12-22T04:45:09Z</time>
      </trkpt>
      <trkpt lat="46.08946" lon="1.93329">
        <ele>631</ele>
        <time>2016-12-22T04:47:09Z</time>
      </trkpt>
      <trkpt lat="46.08942" lon="1.93339">
        <ele>631</ele>
        <time>2016-12-22T04:49:09Z</time>
      </trkpt>
      <trkpt lat="46.08937" lon="1.93348">
        <ele>631</ele>
        <time>2016-12-22T04:51:09Z</time>
      </trkpt>
      <trkpt lat="46.08922" lon="1.9337">
        <ele>632</ele>
        <time>2016-12-22T04:53:09Z</time>
      </trkpt>
      <trkpt lat="46.08917" lon="1.93379">
        <ele>633</ele>
        <time>2016-12-22T04:55:09Z</time>
      </trkpt>
      <trkpt lat="46.08913" lon="1.93387">
        <ele>632</ele>
        <time>2016-12-22T04:57:09Z</time>
      </trkpt>
      <trkpt lat="46.0891" lon="1.93396">
        <ele>632</ele>
        <time>2016-12-22T04:59:09Z</time>
      </trkpt>
      <trkpt lat="46.08908" lon="1.93404">
        <ele>631</ele>
        <time>2016-12-22T05:01:09Z</time>
      </trkpt>
      <trkpt lat="46.08905" lon="1.93423">
        <ele>630</ele>
        <time>2016-12-22T05:03:09Z</time>
      </trkpt>
      <trkpt lat="46.08905" lon="1.93444">
        <ele>628</ele>
        <time>2016-12-22T05:05:09Z</time>
      </trkpt>
      <trkpt lat="46.08906" lon="1.93455">
        <ele>626</ele>
        <time>2016-12-22T05:07:09Z</time>
      </trkpt>
      <trkpt lat="46.08908" lon="1.93466">
        <ele>625</ele>
        <time>2016-12-22T05:09:09Z</time>
      </trkpt>
      <trkpt lat="46.08908" lon="1.93474">
        <ele>624</ele>
        <time>2016-12-22T05:11:09Z</time>
      </trkpt>
      <trkpt lat="46.08906" lon="1.93482">
        <ele>623</ele>
        <time>2016-12-22T05:13:09Z</time>
      </trkpt>
      <trkpt lat="46.08903" lon="1.93489">
        <ele>623</ele>
        <time>2016-12-22T05:15:09Z</time>
      </trkpt>
      <trkpt lat="46.08898" lon="1.935">
        <ele>622</ele>
        <time>2016-12-22T05:17:09Z</time>
      </trkpt>
      <trkpt lat="46.08874" lon="1.93552">
        <ele>618</ele>
        <time>2016-12-22T05:19:09Z</time>
      </trkpt>
      <trkpt lat="46.08861" lon="1.93583">
        <ele>615</ele>
        <time>2016-12-22T05:21:09Z</time>
      </trkpt>
      <trkpt lat="46.08856" lon="1.93597">
        <ele>614</ele>
        <time>2016-12-22T05:23:09Z</time>
      </trkpt>
      <trkpt lat="46.08849" lon="1.9362">
        <ele>613</ele>
        <time>2016-12-22T05:25:09Z</time>
      </trkpt>
      <trkpt lat="46.08848" lon="1.93624">
        <ele>612</ele>
        <time>2016-12-22T05:27:09Z</time>
      </trkpt>
      <trkpt lat="46.08849" lon="1.93627">
        <ele>612</ele>
        <time>2016-12-22T05:29:09Z</time>
      </trkpt>
      <trkpt lat="46.08851" lon="1.93632">
        <ele>610</ele>
        <time>2016-12-22T05:31:09Z</time>
      </trkpt>
      <trkpt lat="46.08864" lon="1.93648">
        <ele>606</ele>
        <time>2016-12-22T05:33:09Z</time>
      </trkpt>
      <trkpt lat="46.08869" lon="1.9366">
        <ele>603</ele>
        <time>2016-12-22T05:35:09Z</time>
      </trkpt>
      <trkpt lat="46.0887" lon="1.93666">
        <ele>602</ele>
        <time>2016-12-22T05:37:09Z</time>
      </trkpt>
      <trkpt lat="46.08871" lon="1.93673">
        <ele>601</ele>
        <time>2016-12-22T05:39:09Z</time>
      </trkpt>
      <trkpt lat="46.08879" lon="1.93683">
        <ele>598</ele>
        <time>2016-12-22T05:41:09Z</time>
      </trkpt>
      <trkpt lat="46.08884" lon="1.93685">
        <ele>597</ele>
        <time>2016-12-22T05:43:09Z</time>
      </trkpt>
      <trkpt lat="46.08895" lon="1.93686">
        <ele>595</ele>
        <time>2016-12-22T05:45:09Z</time>
      </trkpt>
      <trkpt lat="46.08902" lon="1.93689">
        <ele>593</ele>
        <time>2016-12-22T05:47:09Z</time>
      </trkpt>
      <trkpt lat="46.08915" lon="1.93692">
        <ele>591</ele>
        <time>2016-12-22T05:49:09Z</time>
      </trkpt>
      <trkpt lat="46.08921" lon="1.93692">
        <ele>589</ele>
        <time>2016-12-22T05:51:09Z</time>
      </trkpt>
      <trkpt lat="46.08934" lon="1.93686">
        <ele>588</ele>
        <time>2016-12-22T05:53:09Z</time>
      </trkpt>
      <trkpt lat="46.08948" lon="1.93676">
        <ele>586</ele>
        <time>2016-12-22T05:55:09Z</time>
      </trkpt>
      <trkpt lat="46.08954" lon="1.9367">
        <ele>585</ele>
        <time>2016-12-22T05:57:09Z</time>
      </trkpt>
      <trkpt lat="46.08961" lon="1.9366">
        <ele>586</ele>
        <time>2016-12-22T05:59:09Z</time>
      </trkpt>
      <trkpt lat="46.08966" lon="1.93651">
        <ele>586</ele>
        <time>2016-12-22T06:01:09Z</time>
      </trkpt>
      <trkpt lat="46.0898" lon="1.93627">
        <ele>587</ele>
        <time>2016-12-22T06:03:09Z</time>
      </trkpt>
      <trkpt lat="46.08988" lon="1.93616">
        <ele>588</ele>
        <time>2016-12-22T06:05:09Z</time>
      </trkpt>
      <trkpt lat="46.08994" lon="1.93615">
        <ele>587</ele>
        <time>2016-12-22T06:07:09Z</time>
      </trkpt>
      <trkpt lat="46.08997" lon="1.93615">
        <ele>587</ele>
        <time>2016-12-22T06:09:09Z</time>
      </trkpt>
      <trkpt lat="46.09006" lon="1.93615">
        <ele>586</ele>
        <time>2016-12-22T06:11:09Z</time>
      </trkpt>
      <trkpt lat="46.09018" lon="1.93615">
        <ele>586</ele>
        <time>2016-12-22T06:13:09Z</time>
      </trkpt>
      <trkpt lat="46.09042" lon="1.93617">
        <ele>586</ele>
        <time>2016-12-22T06:15:09Z</time>
      </trkpt>
      <trkpt lat="46.09052" lon="1.93622">
        <ele>585</ele>
        <time>2016-12-22T06:17:09Z</time>
      </trkpt>
      <trkpt lat="46.09065" lon="1.93622">
        <ele>585</ele>
        <time>2016-12-22T06:19:09Z</time>
      </trkpt>
      <trkpt lat="46.0907" lon="1.93622">
        <ele>585</ele>
        <time>2016-12-22T06:21:09Z</time>
      </trkpt>
      <trkpt lat="46.09075" lon="1.93624">
        <ele>585</ele>
        <time>2016-12-22T06:23:09Z</time>
      </trkpt>
      <trkpt lat="46.09084" lon="1.9363">
        <ele>584</ele>
        <time>2016-12-22T06:25:09Z</time>
      </trkpt>
      <trkpt lat="46.09096" lon="1.93631">
        <ele>584</ele>
        <time>2016-12-22T06:27:09Z</time>
      </trkpt>
      <trkpt lat="46.09101" lon="1.93631">
        <ele>583</ele>
        <time>2016-12-22T06:29:09Z</time>
      </trkpt>
      <trkpt lat="46.09114" lon="1.93618">
        <ele>583</ele>
        <time>2016-12-22T06:31:09Z</time>
      </trkpt>
      <trkpt lat="46.09118" lon="1.93613">
        <ele>583</ele>
        <time>2016-12-22T06:33:09Z</time>
      </trkpt>
      <trkpt lat="46.0913" lon="1.93602">
        <ele>583</ele>
        <time>2016-12-22T06:35:09Z</time>
      </trkpt>
      <trkpt lat="46.09138" lon="1.93594">
        <ele>582</ele>
        <time>2016-12-22T06:37:09Z</time>
      </trkpt>
      <trkpt lat="46.09147" lon="1.93577">
        <ele>581</ele>
        <time>2016-12-22T06:39:09Z</time>
      </trkpt>
      <trkpt lat="46.09148" lon="1.93577">
        <ele>581</ele>
        <time>2016-12-22T06:41:09Z</time>
      </trkpt>
      <trkpt lat="46.09152" lon="1.93578">
        <ele>581</ele>
        <time>2016-12-22T06:43:09Z</time>
      </trkpt>
      <trkpt lat="46.09157" lon="1.93579">
        <ele>580</ele>
        <time>2016-12-22T06:45:09Z</time>
      </trkpt>
      <trkpt lat="46.09162" lon="1.93578">
        <ele>580</ele>
        <time>2016-12-22T06:47:09Z</time>
      </trkpt>
      <trkpt lat="46.09183" lon="1.93569">
        <ele>578</ele>
        <time>2016-12-22T06:49:09Z</time>
      </trkpt>
      <trkpt lat="46.09189" lon="1.93568">
        <ele>578</ele>
        <time>2016-12-22T06:51:09Z</time>
      </trkpt>
      <trkpt lat="46.09205" lon="1.93571">
        <ele>577</ele>
        <time>2016-12-22T06:53:09Z</time>
      </trkpt>
      <trkpt lat="46.09217" lon="1.93575">
        <ele>576</ele>
        <time>2016-12-22T06:55:09Z</time>
      </trkpt>
      <trkpt lat="46.09228" lon="1.93576">
        <ele>576</ele>
        <time>2016-12-22T06:57:09Z</time>
      </trkpt>
      <trkpt lat="46.09239" lon="1.93577">
        <ele>575</ele>
        <time>2016-12-22T06:59:09Z</time>
      </trkpt>
      <trkpt lat="46.09255" lon="1.93582">
        <ele>575</ele>
        <time>2016-12-22T07:01:09Z</time>
      </trkpt>
      <trkpt lat="46.0926" lon="1.93584">
        <ele>574</ele>
        <time>2016-12-22T07:03:09Z</time>
      </trkpt>
      <trkpt lat="46.09277" lon="1.93583">
        <ele>573</ele>
        <time>2016-12-22T07:05:09Z</time>
      </trkpt>
      <trkpt lat="46.09286" lon="1.93577">
        <ele>572</ele>
        <time>2016-12-22T07:07:09Z</time>
      </trkpt>
      <trkpt lat="46.0929" lon="1.93574">
        <ele>572</ele>
        <time>2016-12-22T07:09:09Z</time>
      </trkpt>
      <trkpt lat="46.09303" lon="1.93565">
        <ele>571</ele>
        <time>2016-12-22T07:11:09Z</time>
      </trkpt>
      <trkpt lat="46.09319" lon="1.93557">
        <ele>571</ele>
        <time>2016-12-22T07:13:09Z</time>
      </trkpt>
      <trkpt lat="46.0933" lon="1.93551">
        <ele>570</ele>
        <time>2016-12-22T07:15:09Z</time>
      </trkpt>
      <trkpt lat="46.09335" lon="1.93547">
        <ele>570</ele>
        <time>2016-12-22T07:17:09Z</time>
      </trkpt>
      <trkpt lat="46.0934" lon="1.93545">
        <ele>570</ele>
        <time>2016-12-22T07:19:09Z</time>
      </trkpt>
      <trkpt lat="46.09346" lon="1.93542">
        <ele>570</ele>
        <time>2016-12-22T07:21:09Z</time>
      </trkpt>
      <trkpt lat="46.09352" lon="1.93541">
        <ele>570</ele>
        <time>2016-12-22T07:23:09Z</time>
      </trkpt>
      <trkpt lat="46.09371" lon="1.93534">
        <ele>569</ele>
        <time>2016-12-22T07:25:09Z</time>
      </trkpt>
      <trkpt lat="46.09381" lon="1.93532">
        <ele>569</ele>
        <time>2016-12-22T07:27:09Z</time>
      </trkpt>
      <trkpt lat="46.09386" lon="1.93531">
        <ele>569</ele>
        <time>2016-12-22T07:29:09Z</time>
      </trkpt>
      <trkpt lat="46.09409" lon="1.93527">
        <ele>568</ele>
        <time>2016-12-22T07:31:09Z</time>
      </trkpt>
      <trkpt lat="46.09459" lon="1.93513">
        <ele>570</ele>
        <time>2016-12-22T07:33:09Z</time>
      </trkpt>
      <trkpt lat="46.09487" lon="1.93509">
        <ele>570</ele>
        <time>2016-12-22T07:35:09Z</time>
      </trkpt>
      <trkpt lat="46.095" lon="1.93513">
        <ele>570</ele>
        <time>2016-12-22T07:37:09Z</time>
      </trkpt>
      <trkpt lat="46.09503" lon="1.93516">
        <ele>570</ele>
        <time>2016-12-22T07:39:09Z</time>
      </trkpt>
      <trkpt lat="46.0951" lon="1.93536">
        <ele>570</ele>
        <time>2016-12-22T07:41:09Z</time>
      </trkpt>
      <trkpt lat="46.09514" lon="1.93549">
        <ele>570</ele>
        <time>2016-12-22T07:43:09Z</time>
      </trkpt>
      <trkpt lat="46.0952" lon="1.93567">
        <ele>570</ele>
        <time>2016-12-22T07:45:09Z</time>
      </trkpt>
      <trkpt lat="46.09525" lon="1.93584">
        <ele>570</ele>
        <time>2016-12-22T07:47:09Z</time>
      </trkpt>
      <trkpt lat="46.09526" lon="1.93592">
        <ele>569</ele>
        <time>2016-12-22T07:49:09Z</time>
      </trkpt>
      <trkpt lat="46.09527" lon="1.93601">
        <ele>569</ele>
        <time>2016-12-22T07:51:09Z</time>
      </trkpt>
      <trkpt lat="46.09526" lon="1.93617">
        <ele>567</ele>
        <time>2016-12-22T07:53:09Z</time>
      </trkpt>
      <trkpt lat="46.09525" lon="1.93625">
        <ele>567</ele>
        <time>2016-12-22T07:55:09Z</time>
      </trkpt>
      <trkpt lat="46.09521" lon="1.93634">
        <ele>565</ele>
        <time>2016-12-22T07:57:09Z</time>
      </trkpt>
      <trkpt lat="46.0951" lon="1.93649">
        <ele>563</ele>
        <time>2016-12-22T07:59:09Z</time>
      </trkpt>
      <trkpt lat="46.09496" lon="1.9368">
        <ele>559</ele>
        <time>2016-12-22T08:01:09Z</time>
      </trkpt>
      <trkpt lat="46.09501" lon="1.93704">
        <ele>558</ele>
        <time>2016-12-22T08:03:09Z</time>
      </trkpt>
      <trkpt lat="46.09506" lon="1.93717">
        <ele>558</ele>
        <time>2016-12-22T08:05:09Z</time>
      </trkpt>
      <trkpt lat="46.09511" lon="1.93732">
        <ele>557</ele>
        <time>2016-12-22T08:07:09Z</time>
      </trkpt>
      <trkpt lat="46.09514" lon="1.93738">
        <ele>557</ele>
        <time>2016-12-22T08:09:09Z</time>
      </trkpt>
      <trkpt lat="46.09517" lon="1.93742">
        <ele>557</ele>
        <time>2016-12-22T08:11:09Z</time>
      </trkpt>
      <trkpt lat="46.0952" lon="1.93745">
        <ele>557</ele>
        <time>2016-12-22T08:13:09Z</time>
      </trkpt>
      <trkpt lat="46.09525" lon="1.93747">
        <ele>557</ele>
        <time>2016-12-22T08:15:09Z</time>
      </trkpt>
      <trkpt lat="46.09529" lon="1.93749">
        <ele>557</ele>
        <time>2016-12-22T08:17:09Z</time>
      </trkpt>
      <trkpt lat="46.09537" lon="1.93752">
        <ele>557</ele>
        <time>2016-12-22T08:19:09Z</time>
      </trkpt>
      <trkpt lat="46.09541" lon="1.93754">
        <ele>557</ele>
        <time>2016-12-22T08:21:09Z</time>
      </trkpt>
      <trkpt lat="46.0955" lon="1.9377">
        <ele>555</ele>
        <time>2016-12-22T08:23:09Z</time>
      </trkpt>
      <trkpt lat="46.09568" lon="1.93778">
        <ele>555</ele>
        <time>2016-12-22T08:25:09Z</time>
      </trkpt>
      <trkpt lat="46.09586" lon="1.93779">
        <ele>556</ele>
        <time>2016-12-22T08:27:09Z</time>
      </trkpt>
      <trkpt lat="46.096" lon="1.93778">
        <ele>555</ele>
        <time>2016-12-22T08:29:09Z</time>
      </trkpt>
      <trkpt lat="46.09628" lon="1.93772">
        <ele>555</ele>
        <time>2016-12-22T08:31:09Z</time>
      </trkpt>
      <trkpt lat="46.09644" lon="1.93771">
        <ele>554</ele>
        <time>2016-12-22T08:33:09Z</time>
      </trkpt>
      <trkpt lat="46.0968" lon="1.93768">
        <ele>552</ele>
        <time>2016-12-22T08:35:09Z</time>
      </trkpt>
      <trkpt lat="46.09701" lon="1.93763">
        <ele>552</ele>
        <time>2016-12-22T08:37:09Z</time>
      </trkpt>
      <trkpt lat="46.09711" lon="1.93763">
        <ele>552</ele>
        <time>2016-12-22T08:39:09Z</time>
      </trkpt>
      <trkpt lat="46.09722" lon="1.9376">
        <ele>552</ele>
        <time>2016-12-22T08:41:09Z</time>
      </trkpt>
      <trkpt lat="46.09728" lon="1.93758">
        <ele>552</ele>
        <time>2016-12-22T08:43:09Z</time>
      </trkpt>
      <trkpt lat="46.09739" lon="1.93749">
        <ele>554</ele>
        <time>2016-12-22T08:45:09Z</time>
      </trkpt>
      <trkpt lat="46.09751" lon="1.93739">
        <ele>555</ele>
        <time>2016-12-22T08:47:09Z</time>
      </trkpt>
      <trkpt lat="46.09763" lon="1.93727">
        <ele>557</ele>
        <time>2016-12-22T08:49:09Z</time>
      </trkpt>
      <trkpt lat="46.09773" lon="1.93718">
        <ele>558</ele>
        <time>2016-12-22T08:51:09Z</time>
      </trkpt>
      <trkpt lat="46.09776" lon="1.93717">
        <ele>558</ele>
        <time>2016-12-22T08:53:09Z</time>
      </trkpt>
      <trkpt lat="46.09783" lon="1.93718">
        <ele>558</ele>
        <time>2016-12-22T08:55:09Z</time>
      </trkpt>
      <trkpt lat="46.09792" lon="1.93723">
        <ele>556</ele>
        <time>2016-12-22T08:57:09Z</time>
      </trkpt>
      <trkpt lat="46.09797" lon="1.93728">
        <ele>554</ele>
        <time>2016-12-22T08:59:09Z</time>
      </trkpt>
      <trkpt lat="46.09804" lon="1.93733">
        <ele>553</ele>
        <time>2016-12-22T09:01:09Z</time>
      </trkpt>
      <trkpt lat="46.09817" lon="1.93743">
        <ele>549</ele>
        <time>2016-12-22T09:03:09Z</time>
      </trkpt>
      <trkpt lat="46.09821" lon="1.93744">
        <ele>549</ele>
        <time>2016-12-22T09:05:09Z</time>
      </trkpt>
      <trkpt lat="46.09834" lon="1.93749">
        <ele>546</ele>
        <time>2016-12-22T09:07:09Z</time>
      </trkpt>
      <trkpt lat="46.09839" lon="1.9375">
        <ele>546</ele>
        <time>2016-12-22T09:09:09Z</time>
      </trkpt>
      <trkpt lat="46.09851" lon="1.93753">
        <ele>545</ele>
        <time>2016-12-22T09:11:09Z</time>
      </trkpt>
      <trkpt lat="46.09862" lon="1.93755">
        <ele>544</ele>
        <time>2016-12-22T09:13:09Z</time>
      </trkpt>
      <trkpt lat="46.09879" lon="1.93757">
        <ele>543</ele>
        <time>2016-12-22T09:15:09Z</time>
      </trkpt>
      <trkpt lat="46.09889" lon="1.93761">
        <ele>541</ele>
        <time>2016-12-22T09:17:09Z</time>
      </trkpt>
      <trkpt lat="46.09911" lon="1.93774">
        <ele>537</ele>
        <time>2016-12-22T09:19:09Z</time>
      </trkpt>
      <trkpt lat="46.09927" lon="1.93785">
        <ele>532</ele>
        <time>2016-12-22T09:21:09Z</time>
      </trkpt>
      <trkpt lat="46.09938" lon="1.93793">
        <ele>528</ele>
        <time>2016-12-22T09:23:09Z</time>
      </trkpt>
      <trkpt lat="46.09943" lon="1.93796">
        <ele>527</ele>
        <time>2016-12-22T09:25:09Z</time>
      </trkpt>
      <trkpt lat="46.09961" lon="1.93799">
        <ele>524</ele>
        <time>2016-12-22T09:27:09Z</time>
      </trkpt>
      <trkpt lat="46.09966" lon="1.93797">
        <ele>524</ele>
        <time>2016-12-22T09:29:09Z</time>
      </trkpt>
      <trkpt lat="46.09983" lon="1.93792">
        <ele>523</ele>
        <time>2016-12-22T09:31:09Z</time>
      </trkpt>
      <trkpt lat="46.09999" lon="1.93786">
        <ele>522</ele>
        <time>2016-12-22T09:33:09Z</time>
      </trkpt>
      <trkpt lat="46.10005" lon="1.93785">
        <ele>522</ele>
        <time>2016-12-22T09:35:09Z</time>
      </trkpt>
      <trkpt lat="46.10016" lon="1.93784">
        <ele>521</ele>
        <time>2016-12-22T09:37:09Z</time>
      </trkpt>
      <trkpt lat="46.10027" lon="1.93786">
        <ele>519</ele>
        <time>2016-12-22T09:39:09Z</time>
      </trkpt>
      <trkpt lat="46.10053" lon="1.93776">
        <ele>517</ele>
        <time>2016-12-22T09:41:09Z</time>
      </trkpt>
      <trkpt lat="46.10064" lon="1.93764">
        <ele>517</ele>
        <time>2016-12-22T09:43:09Z</time>
      </trkpt>
      <trkpt lat="46.10078" lon="1.93759">
        <ele>515</ele>
        <time>2016-12-22T09:45:09Z</time>
      </trkpt>
      <trkpt lat="46.10093" lon="1.93755">
        <ele>514</ele>
        <time>2016-12-22T09:47:09Z</time>
      </trkpt>
      <trkpt lat="46.10105" lon="1.93743">
        <ele>515</ele>
        <time>2016-12-22T09:49:09Z</time>
      </trkpt>
      <trkpt lat="46.1011" lon="1.93734">
        <ele>516</ele>
        <time>2016-12-22T09:51:09Z</time>
      </trkpt>
      <trkpt lat="46.10122" lon="1.93714">
        <ele>519</ele>
        <time>2016-12-22T09:53:09Z</time>
      </trkpt>
      <trkpt lat="46.10133" lon="1.93698">
        <ele>521</ele>
        <time>2016-12-22T09:55:09Z</time>
      </trkpt>
      <trkpt lat="46.1014" lon="1.9369">
        <ele>522</ele>
        <time>2016-12-22T09:57:09Z</time>
      </trkpt>
      <trkpt lat="46.10157" lon="1.93675">
        <ele>522</ele>
        <time>2016-12-22T09:59:09Z</time>
      </trkpt>
      <trkpt lat="46.10165" lon="1.9366">
        <ele>523</ele>
        <time>2016-12-22T10:01:09Z</time>
      </trkpt>
      <trkpt lat="46.10165" lon="1.93655">
        <ele>523</ele>
        <time>2016-12-22T10:03:09Z</time>
      </trkpt>
      <trkpt lat="46.10163" lon="1.93631">
        <ele>524</ele>
        <time>2016-12-22T10:05:09Z</time>
      </trkpt>
      <trkpt lat="46.10162" lon="1.93598">
        <ele>526</ele>
        <time>2016-12-22T10:07:09Z</time>
      </trkpt>
      <trkpt lat="46.10162" lon="1.93592">
        <ele>527</ele>
        <time>2016-12-22T10:09:09Z</time>
      </trkpt>
      <trkpt lat="46.10157" lon="1.93553">
        <ele>526</ele>
        <time>2016-12-22T10:11:09Z</time>
      </trkpt>
      <trkpt lat="46.10153" lon="1.93527">
        <ele>526</ele>
        <time>2016-12-22T10:13:09Z</time>
      </trkpt>
      <trkpt lat="46.10148" lon="1.93503">
        <ele>526</ele>
        <time>2016-12-22T10:15:09Z</time>
      </trkpt>
      <trkpt lat="46.10135" lon="1.93467">
        <ele>528</ele>
        <time>2016-12-22T10:17:09Z</time>
      </trkpt>
      <trkpt lat="46.10133" lon="1.93463">
        <ele>529</ele>
        <time>2016-12-22T10:19:09Z</time>
      </trkpt>
      <trkpt lat="46.10128" lon="1.9344">
        <ele>530</ele>
        <time>2016-12-22T10:21:09Z</time>
      </trkpt>
      <trkpt lat="46.10124" lon="1.93418">
        <ele>530</ele>
        <time>2016-12-22T10:23:09Z</time>
      </trkpt>
      <trkpt lat="46.10121" lon="1.93396">
        <ele>534</ele>
        <time>2016-12-22T10:25:09Z</time>
      </trkpt>
      <trkpt lat="46.10121" lon="1.93376">
        <ele>537</ele>
        <time>2016-12-22T10:27:09Z</time>
      </trkpt>
      <trkpt lat="46.10122" lon="1.93374">
        <ele>537</ele>
        <time>2016-12-22T10:29:09Z</time>
      </trkpt>
      <trkpt lat="46.10127" lon="1.93371">
        <ele>536</ele>
        <time>2016-12-22T10:31:09Z</time>
      </trkpt>
      <trkpt lat="46.10129" lon="1.93369">
        <ele>536</ele>
        <time>2016-12-22T10:33:09Z</time>
      </trkpt>
      <trkpt lat="46.10143" lon="1.93361">
        <ele>534</ele>
        <time>2016-12-22T10:35:09Z</time>
      </trkpt>
      <trkpt lat="46.10155" lon="1.93362">
        <ele>531</ele>
        <time>2016-12-22T10:37:09Z</time>
      </trkpt>
      <trkpt lat="46.10162" lon="1.93358">
        <ele>530</ele>
        <time>2016-12-22T10:39:09Z</time>
      </trkpt>
      <trkpt lat="46.10167" lon="1.93354">
        <ele>529</ele>
        <time>2016-12-22T10:41:09Z</time>
      </trkpt>
      <trkpt lat="46.10179" lon="1.93356">
        <ele>527</ele>
        <time>2016-12-22T10:43:09Z</time>
      </trkpt>
      <trkpt lat="46.10187" lon="1.93358">
        <ele>525</ele>
        <time>2016-12-22T10:45:09Z</time>
      </trkpt>
      <trkpt lat="46.10195" lon="1.93363">
        <ele>523</ele>
        <time>2016-12-22T10:47:09Z</time>
      </trkpt>
      <trkpt lat="46.10202" lon="1.93367">
        <ele>521</ele>
        <time>2016-12-22T10:49:09Z</time>
      </trkpt>
      <trkpt lat="46.10216" lon="1.93373">
        <ele>517</ele>
        <time>2016-12-22T10:51:09Z</time>
      </trkpt>
      <trkpt lat="46.10222" lon="1.93375">
        <ele>516</ele>
        <time>2016-12-22T10:53:09Z</time>
      </trkpt>
      <trkpt lat="46.10243" lon="1.93376">
        <ele>512</ele>
        <time>2016-12-22T10:55:09Z</time>
      </trkpt>
      <trkpt lat="46.1025" lon="1.93375">
        <ele>511</ele>
        <time>2016-12-22T10:57:09Z</time>
      </trkpt>
      <trkpt lat="46.10261" lon="1.93374">
        <ele>509</ele>
        <time>2016-12-22T10:59:09Z</time>
      </trkpt>
      <trkpt lat="46.10278" lon="1.93372">
        <ele>507</ele>
        <time>2016-12-22T11:01:09Z</time>
      </trkpt>
      <trkpt lat="46.10298" lon="1.93368">
        <ele>505</ele>
        <time>2016-12-22T11:03:09Z</time>
      </trkpt>
      <trkpt lat="46.10331" lon="1.93356">
        <ele>503</ele>
        <time>2016-12-22T11:05:09Z</time>
      </trkpt>
      <trkpt lat="46.10346" lon="1.93341">
        <ele>506</ele>
        <time>2016-12-22T11:07:09Z</time>
      </trkpt>
      <trkpt lat="46.10368" lon="1.93327">
        <ele>509</ele>
        <time>2016-12-22T11:09:09Z</time>
      </trkpt>
      <trkpt lat="46.10376" lon="1.93323">
        <ele>510</ele>
        <time>2016-12-22T11:11:09Z</time>
      </trkpt>
      <trkpt lat="46.1039" lon="1.93317">
        <ele>511</ele>
        <time>2016-12-22T11:13:09Z</time>
      </trkpt>
      <trkpt lat="46.10395" lon="1.93317">
        <ele>511</ele>
        <time>2016-12-22T11:15:09Z</time>
      </trkpt>
      <trkpt lat="46.10406" lon="1.93318">
        <ele>510</ele>
        <time>2016-12-22T11:17:09Z</time>
      </trkpt>
      <trkpt lat="46.10411" lon="1.9332">
        <ele>510</ele>
        <time>2016-12-22T11:19:09Z</time>
      </trkpt>
      <trkpt lat="46.10418" lon="1.9332">
        <ele>510</ele>
        <time>2016-12-22T11:21:09Z</time>
      </trkpt>
      <trkpt lat="46.10424" lon="1.93321">
        <ele>509</ele>
        <time>2016-12-22T11:23:09Z</time>
      </trkpt>
      <trkpt lat="46.10432" lon="1.93323">
        <ele>508</ele>
        <time>2016-12-22T11:25:09Z</time>
      </trkpt>
      <trkpt lat="46.10437" lon="1.93323">
        <ele>508</ele>
        <time>2016-12-22T11:27:09Z</time>
      </trkpt>
      <trkpt lat="46.10449" lon="1.93323">
        <ele>508</ele>
        <time>2016-12-22T11:29:09Z</time>
      </trkpt>
      <trkpt lat="46.10458" lon="1.9332">
        <ele>508</ele>
        <time>2016-12-22T11:31:09Z</time>
      </trkpt>
      <trkpt lat="46.10474" lon="1.93316">
        <ele>507</ele>
        <time>2016-12-22T11:33:09Z</time>
      </trkpt>
      <trkpt lat="46.10501" lon="1.93311">
        <ele>506</ele>
        <time>2016-12-22T11:35:09Z</time>
      </trkpt>
      <trkpt lat="46.10515" lon="1.93315">
        <ele>504</ele>
        <time>2016-12-22T11:37:09Z</time>
      </trkpt>
      <trkpt lat="46.10522" lon="1.9332">
        <ele>502</ele>
        <time>2016-12-22T11:39:09Z</time>
      </trkpt>
      <trkpt lat="46.10538" lon="1.9333">
        <ele>499</ele>
        <time>2016-12-22T11:41:09Z</time>
      </trkpt>
      <trkpt lat="46.10552" lon="1.93342">
        <ele>495</ele>
        <time>2016-12-22T11:43:09Z</time>
      </trkpt>
      <trkpt lat="46.10562" lon="1.93359">
        <ele>492</ele>
        <time>2016-12-22T11:45:09Z</time>
      </trkpt>
      <trkpt lat="46.10565" lon="1.93367">
        <ele>491</ele>
        <time>2016-12-22T11:47:09Z</time>
      </trkpt>
      <trkpt lat="46.10584" lon="1.93387">
        <ele>487</ele>
        <time>2016-12-22T11:49:09Z</time>
      </trkpt>
      <trkpt lat="46.10605" lon="1.93407">
        <ele>486</ele>
        <time>2016-12-22T11:51:09Z</time>
      </trkpt>
      <trkpt lat="46.10616" lon="1.9341">
        <ele>486</ele>
        <time>2016-12-22T11:53:09Z</time>
      </trkpt>
      <trkpt lat="46.10632" lon="1.93407">
        <ele>487</ele>
        <time>2016-12-22T11:55:09Z</time>
      </trkpt>
      <trkpt lat="46.10637" lon="1.93407">
        <ele>487</ele>
        <time>2016-12-22T11:57:09Z</time>
      </trkpt>
      <trkpt lat="46.10642" lon="1.93408">
        <ele>487</ele>
        <time>2016-12-22T11:59:09Z</time>
      </trkpt>
      <trkpt lat="46.10662" lon="1.93419">
        <ele>488</ele>
        <time>2016-12-22T12:01:09Z</time>
      </trkpt>
      <trkpt lat="46.10672" lon="1.93414">
        <ele>488</ele>
        <time>2016-12-22T12:03:09Z</time>
      </trkpt>
      <trkpt lat="46.10681" lon="1.93407">
        <ele>489</ele>
        <time>2016-12-22T12:05:09Z</time>
      </trkpt>
      <trkpt lat="46.10694" lon="1.93402">
        <ele>490</ele>
        <time>2016-12-22T12:07:09Z</time>
      </trkpt>
      <trkpt lat="46.10704" lon="1.93399">
        <ele>490</ele>
        <time>2016-12-22T12:09:09Z</time>
      </trkpt>
      <trkpt lat="46.10714" lon="1.93398">
        <ele>491</ele>
        <time>2016-12-22T12:11:09Z</time>
      </trkpt>
      <trkpt lat="46.10736" lon="1.93393">
        <ele>492</ele>
        <time>2016-12-22T12:13:09Z</time>
      </trkpt>
      <trkpt lat="46.1074" lon="1.93392">
        <ele>493</ele>
        <time>2016-12-22T12:15:09Z</time>
      </trkpt>
      <trkpt lat="46.10765" lon="1.9339">
        <ele>493</ele>
        <time>2016-12-22T12:17:09Z</time>
      </trkpt>
      <trkpt lat="46.10787" lon="1.93403">
        <ele>493</ele>
        <time>2016-12-22T12:19:09Z</time>
      </trkpt>
      <trkpt lat="46.10801" lon="1.93415">
        <ele>492</ele>
        <time>2016-12-22T12:21:09Z</time>
      </trkpt>
      <trkpt lat="46.10812" lon="1.93422">
        <ele>492</ele>
        <time>2016-12-22T12:23:09Z</time>
      </trkpt>
      <trkpt lat="46.10832" lon="1.93433">
        <ele>491</ele>
        <time>2016-12-22T12:25:09Z</time>
      </trkpt>
      <trkpt lat="46.10855" lon="1.93455">
        <ele>491</ele>
        <time>2016-12-22T12:27:09Z</time>
      </trkpt>
      <trkpt lat="46.10864" lon="1.93472">
        <ele>491</ele>
        <time>2016-12-22T12:29:09Z</time>
      </trkpt>
      <trkpt lat="46.10877" lon="1.93494">
        <ele>491</ele>
        <time>2016-12-22T12:31:09Z</time>
      </trkpt>
      <trkpt lat="46.10886" lon="1.93507">
        <ele>490</ele>
        <time>2016-12-22T12:33:09Z</time>
      </trkpt>
      <trkpt lat="46.10897" lon="1.93519">
        <ele>490</ele>
        <time>2016-12-22T12:35:09Z</time>
      </trkpt>
      <trkpt lat="46.10926" lon="1.93547">
        <ele>488</ele>
        <time>2016-12-22T12:37:09Z</time>
      </trkpt>
      <trkpt lat="46.10933" lon="1.93556">
        <ele>488</ele>
        <time>2016-12-22T12:39:09Z</time>
      </trkpt>
      <trkpt lat="46.10948" lon="1.9356">
        <ele>488</ele>
        <time>2016-12-22T12:41:09Z</time>
      </trkpt>
      <trkpt lat="46.10957" lon="1.93558">
        <ele>488</ele>
        <time>2016-12-22T12:43:09Z</time>
      </trkpt>
      <trkpt lat="46.10975" lon="1.93557">
        <ele>488</ele>
        <time>2016-12-22T12:45:09Z</time>
      </trkpt>
      <trkpt lat="46.10979" lon="1.93559">
        <ele>488</ele>
        <time>2016-12-22T12:47:09Z</time>
      </trkpt>
      <trkpt lat="46.10991" lon="1.93567">
        <ele>488</ele>
        <time>2016-12-22T12:49:09Z</time>
      </trkpt>
      <trkpt lat="46.10999" lon="1.93577">
        <ele>487</ele>
        <time>2016-12-22T12:51:09Z</time>
      </trkpt>
      <trkpt lat="46.11007" lon="1.9359">
        <ele>487</ele>
        <time>2016-12-22T12:53:09Z</time>
      </trkpt>
      <trkpt lat="46.11024" lon="1.93619">
        <ele>485</ele>
        <time>2016-12-22T12:55:09Z</time>
      </trkpt>
      <trkpt lat="46.11026" lon="1.93625">
        <ele>485</ele>
        <time>2016-12-22T12:57:09Z</time>
      </trkpt>
      <trkpt lat="46.11029" lon="1.9363">
        <ele>484</ele>
        <time>2016-12-22T12:59:09Z</time>
      </trkpt>
      <trkpt lat="46.11033" lon="1.93635">
        <ele>484</ele>
        <time>2016-12-22T13:01:09Z</time>
      </trkpt>
      <trkpt lat="46.11042" lon="1.93641">
        <ele>484</ele>
        <time>2016-12-22T13:03:09Z</time>
      </trkpt>
      <trkpt lat="46.11045" lon="1.93644">
        <ele>483</ele>
        <time>2016-12-22T13:05:09Z</time>
      </trkpt>
      <trkpt lat="46.11049" lon="1.93652">
        <ele>483</ele>
        <time>2016-12-22T13:07:09Z</time>
      </trkpt>
      <trkpt lat="46.11048" lon="1.93657">
        <ele>483</ele>
        <time>2016-12-22T13:09:09Z</time>
      </trkpt>
      <trkpt lat="46.1104" lon="1.93673">
        <ele>483</ele>
        <time>2016-12-22T13:11:09Z</time>
      </trkpt>
      <trkpt lat="46.1104" lon="1.93679">
        <ele>483</ele>
        <time>2016-12-22T13:13:09Z</time>
      </trkpt>
      <trkpt lat="46.11044" lon="1.9369">
        <ele>482</ele>
        <time>2016-12-22T13:15:09Z</time>
      </trkpt>
      <trkpt lat="46.1105" lon="1.93695">
        <ele>482</ele>
        <time>2016-12-22T13:17:09Z</time>
      </trkpt>
      <trkpt lat="46.11062" lon="1.9369">
        <ele>481</ele>
        <time>2016-12-22T13:19:09Z</time>
      </trkpt>
      <trkpt lat="46.11082" lon="1.93672">
        <ele>481</ele>
        <time>2016-12-22T13:21:09Z</time>
      </trkpt>
      <trkpt lat="46.11089" lon="1.93653">
        <ele>481</ele>
        <time>2016-12-22T13:23:09Z</time>
      </trkpt>
      <trkpt lat="46.11089" lon="1.93632">
        <ele>482</ele>
        <time>2016-12-22T13:25:09Z</time>
      </trkpt>
      <trkpt lat="46.11088" lon="1.93627">
        <ele>482</ele>
        <time>2016-12-22T13:27:09Z</time>
      </trkpt>
      <trkpt lat="46.11093" lon="1.93597">
        <ele>483</ele>
        <time>2016-12-22T13:29:09Z</time>
      </trkpt>
      <trkpt lat="46.11108" lon="1.93567">
        <ele>488</ele>
        <time>2016-12-22T13:31:09Z</time>
      </trkpt>
      <trkpt lat="46.11118" lon="1.93546">
        <ele>493</ele>
        <time>2016-12-22T13:33:09Z</time>
      </trkpt>
      <trkpt lat="46.11117" lon="1.93543">
        <ele>494</ele>
        <time>2016-12-22T13:35:09Z</time>
      </trkpt>
      <trkpt lat="46.11113" lon="1.9352">
        <ele>499</ele>
        <time>2016-12-22T13:37:09Z</time>
      </trkpt>
      <trkpt lat="46.11108" lon="1.93505">
        <ele>502</ele>
        <time>2016-12-22T13:39:09Z</time>
      </trkpt>
      <trkpt lat="46.11104" lon="1.93496">
        <ele>503</ele>
        <time>2016-12-22T13:41:09Z</time>
      </trkpt>
      <trkpt lat="46.11095" lon="1.93484">
        <ele>505</ele>
        <time>2016-12-22T13:43:09Z</time>
      </trkpt>
      <trkpt lat="46.11083" lon="1.93477">
        <ele>505</ele>
        <time>2016-12-22T13:45:09Z</time>
      </trkpt>
      <trkpt lat="46.11072" lon="1.93472">
        <ele>505</ele>
        <time>2016-12-22T13:47:09Z</time>
      </trkpt>
      <trkpt lat="46.11068" lon="1.9347">
        <ele>505</ele>
        <time>2016-12-22T13:49:09Z</time>
      </trkpt>
      <trkpt lat="46.1105" lon="1.93453">
        <ele>505</ele>
        <time>2016-12-22T13:51:09Z</time>
      </trkpt>
      <trkpt lat="46.1104" lon="1.93444">
        <ele>505</ele>
        <time>2016-12-22T13:53:09Z</time>
      </trkpt>
      <trkpt lat="46.1103" lon="1.93431">
        <ele>506</ele>
        <time>2016-12-22T13:55:09Z</time>
      </trkpt>
      <trkpt lat="46.11026" lon="1.93425">
        <ele>506</ele>
        <time>2016-12-22T13:57:09Z</time>
      </trkpt>
      <trkpt lat="46.11027" lon="1.93421">
        <ele>507</ele>
        <time>2016-12-22T13:59:09Z</time>
      </trkpt>
      <trkpt lat="46.11029" lon="1.9342">
        <ele>508</ele>
        <time>2016-12-22T14:01:09Z</time>
      </trkpt>
      <trkpt lat="46.11043" lon="1.93423">
        <ele>510</ele>
        <time>2016-12-22T14:03:09Z</time>
      </trkpt>
      <trkpt lat="46.11049" lon="1.93421">
        <ele>511</ele>
        <time>2016-12-22T14:05:09Z</time>
      </trkpt>
      <trkpt lat="46.11059" lon="1.9342">
        <ele>513</ele>
        <time>2016-12-22T14:07:09Z</time>
      </trkpt>
      <trkpt lat="46.1107" lon="1.93418">
        <ele>515</ele>
        <time>2016-12-22T14:09:09Z</time>
      </trkpt>
      <trkpt lat="46.11074" lon="1.93415">
        <ele>516</ele>
        <time>2016-12-22T14:11:09Z</time>
      </trkpt>
      <trkpt lat="46.11075" lon="1.93412">
        <ele>517</ele>
        <time>2016-12-22T14:13:09Z</time>
      </trkpt>
      <trkpt lat="46.11074" lon="1.93405">
        <ele>517</ele>
        <time>2016-12-22T14:15:09Z</time>
      </trkpt>
      <trkpt lat="46.11071" lon="1.93395">
        <ele>518</ele>
        <time>2016-12-22T14:17:09Z</time>
      </trkpt>
      <trkpt lat="46.11066" lon="1.93384">
        <ele>518</ele>
        <time>2016-12-22T14:19:09Z</time>
      </trkpt>
      <trkpt lat="46.11063" lon="1.93379">
        <ele>518</ele>
        <time>2016-12-22T14:21:09Z</time>
      </trkpt>
      <trkpt lat="46.11058" lon="1.93372">
        <ele>518</ele>
        <time>2016-12-22T14:23:09Z</time>
      </trkpt>
      <trkpt lat="46.11054" lon="1.93363">
        <ele>518</ele>
        <time>2016-12-22T14:25:09Z</time>
      </trkpt>
      <trkpt lat="46.11054" lon="1.93354">
        <ele>519</ele>
        <time>2016-12-22T14:27:09Z</time>
      </trkpt>
      <trkpt lat="46.11054" lon="1.93351">
        <ele>520</ele>
        <time>2016-12-22T14:29:09Z</time>
      </trkpt>
      <trkpt lat="46.11055" lon="1.93344">
        <ele>520</ele>
        <time>2016-12-22T14:31:09Z</time>
      </trkpt>
      <trkpt lat="46.11056" lon="1.93339">
        <ele>521</ele>
        <time>2016-12-22T14:33:09Z</time>
      </trkpt>
      <trkpt lat="46.11058" lon="1.93335">
        <ele>522</ele>
        <time>2016-12-22T14:35:09Z</time>
      </trkpt>
      <trkpt lat="46.1106" lon="1.93326">
        <ele>523</ele>
        <time>2016-12-22T14:37:09Z</time>
      </trkpt>
      <trkpt lat="46.11061" lon="1.93323">
        <ele>523</ele>
        <time>2016-12-22T14:39:09Z</time>
      </trkpt>
      <trkpt lat="46.11063" lon="1.93315">
        <ele>524</ele>
        <time>2016-12-22T14:41:09Z</time>
      </trkpt>
      <trkpt lat="46.11065" lon="1.933">
        <ele>526</ele>
        <time>2016-12-22T14:43:09Z</time>
      </trkpt>
      <trkpt lat="46.11066" lon="1.93279">
        <ele>528</ele>
        <time>2016-12-22T14:45:09Z</time>
      </trkpt>
      <trkpt lat="46.11068" lon="1.93272">
        <ele>529</ele>
        <time>2016-12-22T14:47:09Z</time>
      </trkpt>
      <trkpt lat="46.1107" lon="1.93265">
        <ele>530</ele>
        <time>2016-12-22T14:49:09Z</time>
      </trkpt>
      <trkpt lat="46.11072" lon="1.93252">
        <ele>531</ele>
        <time>2016-12-22T14:51:09Z</time>
      </trkpt>
      <trkpt lat="46.11073" lon="1.93245">
        <ele>532</ele>
        <time>2016-12-22T14:53:09Z</time>
      </trkpt>
      <trkpt lat="46.11072" lon="1.93241">
        <ele>532</ele>
        <time>2016-12-22T14:55:09Z</time>
      </trkpt>
      <trkpt lat="46.11074" lon="1.93227">
        <ele>534</ele>
        <time>2016-12-22T14:57:09Z</time>
      </trkpt>
      <trkpt lat="46.11075" lon="1.93212">
        <ele>536</ele>
        <time>2016-12-22T14:59:09Z</time>
      </trkpt>
      <trkpt lat="46.11074" lon="1.93209">
        <ele>536</ele>
        <time>2016-12-22T15:01:09Z</time>
      </trkpt>
      <trkpt lat="46.11066" lon="1.93178">
        <ele>538</ele>
        <time>2016-12-22T15:03:09Z</time>
      </trkpt>
      <trkpt lat="46.11064" lon="1.93174">
        <ele>538</ele>
        <time>2016-12-22T15:05:09Z</time>
      </trkpt>
      <trkpt lat="46.11061" lon="1.93161">
        <ele>539</ele>
        <time>2016-12-22T15:07:09Z</time>
      </trkpt>
      <trkpt lat="46.11053" lon="1.93132">
        <ele>542</ele>
        <time>2016-12-22T15:09:09Z</time>
      </trkpt>
      <trkpt lat="46.1105" lon="1.9312">
        <ele>544</ele>
        <time>2016-12-22T15:11:09Z</time>
      </trkpt>
      <trkpt lat="46.11045" lon="1.93105">
        <ele>545</ele>
        <time>2016-12-22T15:13:09Z</time>
      </trkpt>
      <trkpt lat="46.11037" lon="1.93087">
        <ele>547</ele>
        <time>2016-12-22T15:15:09Z</time>
      </trkpt>
      <trkpt lat="46.11033" lon="1.93075">
        <ele>548</ele>
        <time>2016-12-22T15:17:09Z</time>
      </trkpt>
      <trkpt lat="46.1103" lon="1.93067">
        <ele>549</ele>
        <time>2016-12-22T15:19:09Z</time>
      </trkpt>
      <trkpt lat="46.11024" lon="1.9306">
        <ele>549</ele>
        <time>2016-12-22T15:21:09Z</time>
      </trkpt>
      <trkpt lat="46.1101" lon="1.93047">
        <ele>550</ele>
        <time>2016-12-22T15:23:09Z</time>
      </trkpt>
      <trkpt lat="46.11" lon="1.9304">
        <ele>551</ele>
        <time>2016-12-22T15:25:09Z</time>
      </trkpt>
      <trkpt lat="46.10987" lon="1.93029">
        <ele>552</ele>
        <time>2016-12-22T15:27:09Z</time>
      </trkpt>
      <trkpt lat="46.10984" lon="1.93025">
        <ele>553</ele>
        <time>2016-12-22T15:29:09Z</time>
      </trkpt>
      <trkpt lat="46.10975" lon="1.93021">
        <ele>554</ele>
        <time>2016-12-22T15:31:09Z</time>
      </trkpt>
      <trkpt lat="46.10973" lon="1.9302">
        <ele>554</ele>
        <time>2016-12-22T15:33:09Z</time>
      </trkpt>
      <trkpt lat="46.10958" lon="1.93017">
        <ele>555</ele>
        <time>2016-12-22T15:35:09Z</time>
      </trkpt>
      <trkpt lat="46.10956" lon="1.93015">
        <ele>555</ele>
        <time>2016-12-22T15:37:09Z</time>
      </trkpt>
      <trkpt lat="46.10947" lon="1.92998">
        <ele>557</ele>
        <time>2016-12-22T15:39:09Z</time>
      </trkpt>
      <trkpt lat="46.10943" lon="1.92989">
        <ele>557</ele>
        <time>2016-12-22T15:41:09Z</time>
      </trkpt>
      <trkpt lat="46.10941" lon="1.92982">
        <ele>558</ele>
        <time>2016-12-22T15:43:09Z</time>
      </trkpt>
      <trkpt lat="46.10938" lon="1.92975">
        <ele>558</ele>
        <time>2016-12-22T15:45:09Z</time>
      </trkpt>
      <trkpt lat="46.10935" lon="1.92971">
        <ele>558</ele>
        <time>2016-12-22T15:47:09Z</time>
      </trkpt>
      <trkpt lat="46.10925" lon="1.92953">
        <ele>560</ele>
        <time>2016-12-22T15:49:09Z</time>
      </trkpt>
      <trkpt lat="46.10923" lon="1.92946">
        <ele>560</ele>
        <time>2016-12-22T15:51:09Z</time>
      </trkpt>
      <trkpt lat="46.10925" lon="1.92939">
        <ele>560</ele>
        <time>2016-12-22T15:53:09Z</time>
      </trkpt>
      <trkpt lat="46.10926" lon="1.92937">
        <ele>560</ele>
        <time>2016-12-22T15:55:09Z</time>
      </trkpt>
      <trkpt lat="46.10927" lon="1.9293">
        <ele>561</ele>
        <time>2016-12-22T15:57:09Z</time>
      </trkpt>
      <trkpt lat="46.10928" lon="1.92927">
        <ele>561</ele>
        <time>2016-12-22T15:59:09Z</time>
      </trkpt>
      <trkpt lat="46.10929" lon="1.92925">
        <ele>561</ele>
        <time>2016-12-22T16:01:09Z</time>
      </trkpt>
      <trkpt lat="46.1093" lon="1.92918">
        <ele>561</ele>
        <time>2016-12-22T16:03:09Z</time>
      </trkpt>
      <trkpt lat="46.1093" lon="1.92906">
        <ele>562</ele>
        <time>2016-12-22T16:05:09Z</time>
      </trkpt>
      <trkpt lat="46.1093" lon="1.92897">
        <ele>562</ele>
        <time>2016-12-22T16:07:09Z</time>
      </trkpt>
      <trkpt lat="46.10925" lon="1.9285">
        <ele>564</ele>
        <time>2016-12-22T16:09:09Z</time>
      </trkpt>
      <trkpt lat="46.10913" lon="1.92829">
        <ele>565</ele>
        <time>2016-12-22T16:11:09Z</time>
      </trkpt>
      <trkpt lat="46.109" lon="1.92814">
        <ele>566</ele>
        <time>2016-12-22T16:13:09Z</time>
      </trkpt>
      <trkpt lat="46.10892" lon="1.928">
        <ele>567</ele>
        <time>2016-12-22T16:15:09Z</time>
      </trkpt>
      <trkpt lat="46.10888" lon="1.92796">
        <ele>568</ele>
        <time>2016-12-22T16:17:09Z</time>
      </trkpt>
      <trkpt lat="46.10886" lon="1.92794">
        <ele>568</ele>
        <time>2016-12-22T16:19:09Z</time>
      </trkpt>
      <trkpt lat="46.10878" lon="1.92785">
        <ele>569</ele>
        <time>2016-12-22T16:21:09Z</time>
      </trkpt>
      <trkpt lat="46.10876" lon="1.92777">
        <ele>570</ele>
        <time>2016-12-22T16:23:09Z</time>
      </trkpt>
      <trkpt lat="46.10868" lon="1.92766">
        <ele>571</ele>
        <time>2016-12-22T16:25:09Z</time>
      </trkpt>
      <trkpt lat="46.10865" lon="1.92765">
        <ele>571</ele>
        <time>2016-12-22T16:27:09Z</time>
      </trkpt>
      <trkpt lat="46.10862" lon="1.92764">
        <ele>572</ele>
        <time>2016-12-22T16:29:09Z</time>
      </trkpt>
      <trkpt lat="46.10858" lon="1.92763">
        <ele>572</ele>
        <time>2016-12-22T16:31:09Z</time>
      </trkpt>
      <trkpt lat="46.10852" lon="1.92763">
        <ele>572</ele>
        <time>2016-12-22T16:33:09Z</time>
      </trkpt>
      <trkpt lat="46.1084" lon="1.92769">
        <ele>573</ele>
        <time>2016-12-22T16:35:09Z</time>
      </trkpt>
      <trkpt lat="46.10838" lon="1.9277">
        <ele>573</ele>
        <time>2016-12-22T16:37:09Z</time>
      </trkpt>
      <trkpt lat="46.10825" lon="1.92769">
        <ele>573</ele>
        <time>2016-12-22T16:39:09Z</time>
      </trkpt>
      <trkpt lat="46.1082" lon="1.92766">
        <ele>573</ele>
        <time>2016-12-22T16:41:09Z</time>
      </trkpt>
      <trkpt lat="46.10809" lon="1.9276">
        <ele>573</ele>
        <time>2016-12-22T16:43:09Z</time>
      </trkpt>
      <trkpt lat="46.10803" lon="1.92757">
        <ele>574</ele>
        <time>2016-12-22T16:45:09Z</time>
      </trkpt>
      <trkpt lat="46.10794" lon="1.92755">
        <ele>574</ele>
        <time>2016-12-22T16:47:09Z</time>
      </trkpt>
      <trkpt lat="46.10787" lon="1.9275">
        <ele>574</ele>
        <time>2016-12-22T16:49:09Z</time>
      </trkpt>
      <trkpt lat="46.10778" lon="1.92744">
        <ele>575</ele>
        <time>2016-12-22T16:51:09Z</time>
      </trkpt>
      <trkpt lat="46.10776" lon="1.92742">
        <ele>575</ele>
        <time>2016-12-22T16:53:09Z</time>
      </trkpt>
      <trkpt lat="46.10768" lon="1.92738">
        <ele>575</ele>
        <time>2016-12-22T16:55:09Z</time>
      </trkpt>
      <trkpt lat="46.10762" lon="1.92734">
        <ele>576</ele>
        <time>2016-12-22T16:57:09Z</time>
      </trkpt>
      <trkpt lat="46.10758" lon="1.92729">
        <ele>576</ele>
        <time>2016-12-22T16:59:09Z</time>
      </trkpt>
      <trkpt lat="46.10752" lon="1.92717">
        <ele>578</ele>
        <time>2016-12-22T17:01:09Z</time>
      </trkpt>
      <trkpt lat="46.10745" lon="1.92708">
        <ele>579</ele>
        <time>2016-12-22T17:03:09Z</time>
      </trkpt>
      <trkpt lat="46.10739" lon="1.92697">
        <ele>580</ele>
        <time>2016-12-22T17:05:09Z</time>
      </trkpt>
      <trkpt lat="46.10733" lon="1.92684">
        <ele>581</ele>
        <time>2016-12-22T17:07:09Z</time>
      </trkpt>
      <trkpt lat="46.10726" lon="1.92678">
        <ele>581</ele>
        <time>2016-12-22T17:09:09Z</time>
      </trkpt>
      <trkpt lat="46.10711" lon="1.92649">
        <ele>583</ele>
        <time>2016-12-22T17:11:09Z</time>
      </trkpt>
      <trkpt lat="46.10701" lon="1.9263">
        <ele>585</ele>
        <time>2016-12-22T17:13:09Z</time>
      </trkpt>
      <trkpt lat="46.10696" lon="1.92625">
        <ele>585</ele>
        <time>2016-12-22T17:15:09Z</time>
      </trkpt>
      <trkpt lat="46.10688" lon="1.92612">
        <ele>586</ele>
        <time>2016-12-22T17:17:09Z</time>
      </trkpt>
      <trkpt lat="46.10669" lon="1.92584">
        <ele>588</ele>
        <time>2016-12-22T17:19:09Z</time>
      </trkpt>
      <trkpt lat="46.1066" lon="1.92567">
        <ele>590</ele>
        <time>2016-12-22T17:21:09Z</time>
      </trkpt>
      <trkpt lat="46.10654" lon="1.92556">
        <ele>591</ele>
        <time>2016-12-22T17:23:09Z</time>
      </trkpt>
      <trkpt lat="46.10646" lon="1.92543">
        <ele>592</ele>
        <time>2016-12-22T17:25:09Z</time>
      </trkpt>
      <trkpt lat="46.10642" lon="1.92536">
        <ele>592</ele>
        <time>2016-12-22T17:27:09Z</time>
      </trkpt>
      <trkpt lat="46.1064" lon="1.92524">
        <ele>593</ele>
        <time>2016-12-22T17:29:09Z</time>
      </trkpt>
      <trkpt lat="46.10639" lon="1.92521">
        <ele>594</ele>
        <time>2016-12-22T17:31:09Z</time>
      </trkpt>
      <trkpt lat="46.10637" lon="1.92508">
        <ele>595</ele>
        <time>2016-12-22T17:33:09Z</time>
      </trkpt>
      <trkpt lat="46.10633" lon="1.92484">
        <ele>598</ele>
        <time>2016-12-22T17:35:09Z</time>
      </trkpt>
      <trkpt lat="46.10632" lon="1.92476">
        <ele>599</ele>
        <time>2016-12-22T17:37:09Z</time>
      </trkpt>
      <trkpt lat="46.10629" lon="1.92472">
        <ele>599</ele>
        <time>2016-12-22T17:39:09Z</time>
      </trkpt>
      <trkpt lat="46.10627" lon="1.92469">
        <ele>599</ele>
        <time>2016-12-22T17:41:09Z</time>
      </trkpt>
      <trkpt lat="46.10622" lon="1.92461">
        <ele>599</ele>
        <time>2016-12-22T17:43:09Z</time>
      </trkpt>
      <trkpt lat="46.10622" lon="1.92457">
        <ele>600</ele>
        <time>2016-12-22T17:45:09Z</time>
      </trkpt>
      <trkpt lat="46.10621" lon="1.92454">
        <ele>600</ele>
        <time>2016-12-22T17:47:09Z</time>
      </trkpt>
      <trkpt lat="46.10622" lon="1.9244">
        <ele>602</ele>
        <time>2016-12-22T17:49:09Z</time>
      </trkpt>
      <trkpt lat="46.10622" lon="1.92436">
        <ele>603</ele>
        <time>2016-12-22T17:51:09Z</time>
      </trkpt>
      <trkpt lat="46.10623" lon="1.92433">
        <ele>603</ele>
        <time>2016-12-22T17:53:09Z</time>
      </trkpt>
      <trkpt lat="46.10624" lon="1.92428">
        <ele>604</ele>
        <time>2016-12-22T17:55:09Z</time>
      </trkpt>
      <trkpt lat="46.10625" lon="1.92418">
        <ele>606</ele>
        <time>2016-12-22T17:57:09Z</time>
      </trkpt>
      <trkpt lat="46.10625" lon="1.92415">
        <ele>606</ele>
        <time>2016-12-22T17:59:09Z</time>
      </trkpt>
      <trkpt lat="46.10626" lon="1.92399">
        <ele>607</ele>
        <time>2016-12-22T18:01:09Z</time>
      </trkpt>
      <trkpt lat="46.10626" lon="1.92395">
        <ele>607</ele>
        <time>2016-12-22T18:03:09Z</time>
      </trkpt>
      <trkpt lat="46.10628" lon="1.92376">
        <ele>609</ele>
        <time>2016-12-22T18:05:09Z</time>
      </trkpt>
      <trkpt lat="46.10627" lon="1.92357">
        <ele>610</ele>
        <time>2016-12-22T18:07:09Z</time>
      </trkpt>
      <trkpt lat="46.10628" lon="1.92341">
        <ele>611</ele>
        <time>2016-12-22T18:09:09Z</time>
      </trkpt>
      <trkpt lat="46.10632" lon="1.92317">
        <ele>612</ele>
        <time>2016-12-22T18:11:09Z</time>
      </trkpt>
      <trkpt lat="46.10637" lon="1.92297">
        <ele>612</ele>
        <time>2016-12-22T18:13:09Z</time>
      </trkpt>
      <trkpt lat="46.10641" lon="1.92283">
        <ele>612</ele>
        <time>2016-12-22T18:15:09Z</time>
      </trkpt>
      <trkpt lat="46.10643" lon="1.92276">
        <ele>612</ele>
        <time>2016-12-22T18:17:09Z</time>
      </trkpt>
      <trkpt lat="46.10644" lon="1.92267">
        <ele>612</ele>
        <time>2016-12-22T18:19:09Z</time>
      </trkpt>
      <trkpt lat="46.10646" lon="1.92265">
        <ele>612</ele>
        <time>2016-12-22T18:21:09Z</time>
      </trkpt>
      <trkpt lat="46.10647" lon="1.92268">
        <ele>613</ele>
        <time>2016-12-22T18:23:09Z</time>
      </trkpt>
      <trkpt lat="46.10646" lon="1.92273">
        <ele>613</ele>
        <time>2016-12-22T18:25:09Z</time>
      </trkpt>
      <trkpt lat="46.10645" lon="1.92282">
        <ele>613</ele>
        <time>2016-12-22T18:27:09Z</time>
      </trkpt>
      <trkpt lat="46.10641" lon="1.92302">
        <ele>613</ele>
        <time>2016-12-22T18:29:09Z</time>
      </trkpt>
      <trkpt lat="46.1064" lon="1.92319">
        <ele>613</ele>
        <time>2016-12-22T18:31:09Z</time>
      </trkpt>
      <trkpt lat="46.1064" lon="1.92357">
        <ele>612</ele>
        <time>2016-12-22T18:33:09Z</time>
      </trkpt>
      <trkpt lat="46.1064" lon="1.92374">
        <ele>611</ele>
        <time>2016-12-22T18:35:09Z</time>
      </trkpt>
      <trkpt lat="46.10642" lon="1.92391">
        <ele>611</ele>
        <time>2016-12-22T18:37:09Z</time>
      </trkpt>
      <trkpt lat="46.10651" lon="1.92419">
        <ele>611</ele>
        <time>2016-12-22T18:39:09Z</time>
      </trkpt>
      <trkpt lat="46.10667" lon="1.92448">
        <ele>610</ele>
        <time>2016-12-22T18:41:09Z</time>
      </trkpt>
      <trkpt lat="46.10675" lon="1.92461">
        <ele>609</ele>
        <time>2016-12-22T18:43:09Z</time>
      </trkpt>
      <trkpt lat="46.10686" lon="1.92476">
        <ele>609</ele>
        <time>2016-12-22T18:45:09Z</time>
      </trkpt>
      <trkpt lat="46.107" lon="1.92488">
        <ele>609</ele>
        <time>2016-12-22T18:47:09Z</time>
      </trkpt>
      <trkpt lat="46.10722" lon="1.92495">
        <ele>611</ele>
        <time>2016-12-22T18:49:09Z</time>
      </trkpt>
      <trkpt lat="46.10733" lon="1.92504">
        <ele>611</ele>
        <time>2016-12-22T18:51:09Z</time>
      </trkpt>
      <trkpt lat="46.10759" lon="1.92523">
        <ele>611</ele>
        <time>2016-12-22T18:53:09Z</time>
      </trkpt>
      <trkpt lat="46.10767" lon="1.9253">
        <ele>610</ele>
        <time>2016-12-22T18:55:09Z</time>
      </trkpt>
      <trkpt lat="46.10804" lon="1.92553">
        <ele>609</ele>
        <time>2016-12-22T18:57:09Z</time>
      </trkpt>
      <trkpt lat="46.10809" lon="1.92554">
        <ele>609</ele>
        <time>2016-12-22T18:59:09Z</time>
      </trkpt>
      <trkpt lat="46.10826" lon="1.92551">
        <ele>611</ele>
        <time>2016-12-22T19:01:09Z</time>
      </trkpt>
      <trkpt lat="46.10839" lon="1.92552">
        <ele>611</ele>
        <time>2016-12-22T19:03:09Z</time>
      </trkpt>
      <trkpt lat="46.10851" lon="1.92554">
        <ele>609</ele>
        <time>2016-12-22T19:05:09Z</time>
      </trkpt>
      <trkpt lat="46.10853" lon="1.92554">
        <ele>609</ele>
        <time>2016-12-22T19:07:09Z</time>
      </trkpt>
      <trkpt lat="46.10863" lon="1.92549">
        <ele>610</ele>
        <time>2016-12-22T19:09:09Z</time>
      </trkpt>
      <trkpt lat="46.10866" lon="1.92549">
        <ele>610</ele>
        <time>2016-12-22T19:11:09Z</time>
      </trkpt>
      <trkpt lat="46.1087" lon="1.92547">
        <ele>610</ele>
        <time>2016-12-22T19:13:09Z</time>
      </trkpt>
      <trkpt lat="46.10877" lon="1.92546">
        <ele>610</ele>
        <time>2016-12-22T19:15:09Z</time>
      </trkpt>
      <trkpt lat="46.10892" lon="1.92549">
        <ele>608</ele>
        <time>2016-12-22T19:17:09Z</time>
      </trkpt>
      <trkpt lat="46.10904" lon="1.92545">
        <ele>608</ele>
        <time>2016-12-22T19:19:09Z</time>
      </trkpt>
      <trkpt lat="46.10926" lon="1.92535">
        <ele>608</ele>
        <time>2016-12-22T19:21:09Z</time>
      </trkpt>
      <trkpt lat="46.10943" lon="1.9253">
        <ele>605</ele>
        <time>2016-12-22T19:23:09Z</time>
      </trkpt>
      <trkpt lat="46.10964" lon="1.92517">
        <ele>604</ele>
        <time>2016-12-22T19:25:09Z</time>
      </trkpt>
      <trkpt lat="46.10969" lon="1.92513">
        <ele>604</ele>
        <time>2016-12-22T19:27:09Z</time>
      </trkpt>
      <trkpt lat="46.10982" lon="1.92503">
        <ele>604</ele>
        <time>2016-12-22T19:29:09Z</time>
      </trkpt>
      <trkpt lat="46.10991" lon="1.92503">
        <ele>601</ele>
        <time>2016-12-22T19:31:09Z</time>
      </trkpt>
      <trkpt lat="46.10995" lon="1.92511">
        <ele>598</ele>
        <time>2016-12-22T19:33:09Z</time>
      </trkpt>
      <trkpt lat="46.10998" lon="1.92513">
        <ele>597</ele>
        <time>2016-12-22T19:35:09Z</time>
      </trkpt>
      <trkpt lat="46.11006" lon="1.92518">
        <ele>594</ele>
        <time>2016-12-22T19:37:09Z</time>
      </trkpt>
      <trkpt lat="46.1101" lon="1.92519">
        <ele>593</ele>
        <time>2016-12-22T19:39:09Z</time>
      </trkpt>
      <trkpt lat="46.11027" lon="1.92518">
        <ele>590</ele>
        <time>2016-12-22T19:41:09Z</time>
      </trkpt>
      <trkpt lat="46.11031" lon="1.92517">
        <ele>589</ele>
        <time>2016-12-22T19:43:09Z</time>
      </trkpt>
      <trkpt lat="46.1104" lon="1.9251">
        <ele>589</ele>
        <time>2016-12-22T19:45:09Z</time>
      </trkpt>
      <trkpt lat="46.11054" lon="1.92502">
        <ele>588</ele>
        <time>2016-12-22T19:47:09Z</time>
      </trkpt>
      <trkpt lat="46.11059" lon="1.925">
        <ele>587</ele>
        <time>2016-12-22T19:49:09Z</time>
      </trkpt>
      <trkpt lat="46.11076" lon="1.92502">
        <ele>583</ele>
        <time>2016-12-22T19:51:09Z</time>
      </trkpt>
      <trkpt lat="46.11087" lon="1.92504">
        <ele>581</ele>
        <time>2016-12-22T19:53:09Z</time>
      </trkpt>
      <trkpt lat="46.11115" lon="1.92513">
        <ele>578</ele>
        <time>2016-12-22T19:55:09Z</time>
      </trkpt>
      <trkpt lat="46.1112" lon="1.92515">
        <ele>577</ele>
        <time>2016-12-22T19:57:09Z</time>
      </trkpt>
      <trkpt lat="46.11136" lon="1.92525">
        <ele>573</ele>
        <time>2016-12-22T19:59:09Z</time>
      </trkpt>
      <trkpt lat="46.11141" lon="1.92527">
        <ele>573</ele>
        <time>2016-12-22T20:01:09Z</time>
      </trkpt>
      <trkpt lat="46.11144" lon="1.9253">
        <ele>572</ele>
        <time>2016-12-22T20:03:09Z</time>
      </trkpt>
      <trkpt lat="46.11151" lon="1.92531">
        <ele>571</ele>
        <time>2016-12-22T20:05:09Z</time>
      </trkpt>
      <trkpt lat="46.11167" lon="1.92528">
        <ele>571</ele>
        <time>2016-12-22T20:07:09Z</time>
      </trkpt>
      <trkpt lat="46.11184" lon="1.92523">
        <ele>571</ele>
        <time>2016-12-22T20:09:09Z</time>
      </trkpt>
      <trkpt lat="46.11206" lon="1.92513">
        <ele>572</ele>
        <time>2016-12-22T20:11:09Z</time>
      </trkpt>
      <trkpt lat="46.11232" lon="1.92505">
        <ele>571</ele>
        <time>2016-12-22T20:13:09Z</time>
      </trkpt>
      <trkpt lat="46.1125" lon="1.92493">
        <ele>573</ele>
        <time>2016-12-22T20:15:09Z</time>
      </trkpt>
      <trkpt lat="46.11256" lon="1.92488">
        <ele>573</ele>
        <time>2016-12-22T20:17:09Z</time>
      </trkpt>
      <trkpt lat="46.11263" lon="1.92483">
        <ele>574</ele>
        <time>2016-12-22T20:19:09Z</time>
      </trkpt>
      <trkpt lat="46.11269" lon="1.92481">
        <ele>574</ele>
        <time>2016-12-22T20:21:09Z</time>
      </trkpt>
      <trkpt lat="46.11274" lon="1.9248">
        <ele>573</ele>
        <time>2016-12-22T20:23:09Z</time>
      </trkpt>
      <trkpt lat="46.11284" lon="1.92479">
        <ele>573</ele>
        <time>2016-12-22T20:25:09Z</time>
      </trkpt>
      <trkpt lat="46.11289" lon="1.9248">
        <ele>572</ele>
        <time>2016-12-22T20:27:09Z</time>
      </trkpt>
      <trkpt lat="46.11298" lon="1.92481">
        <ele>571</ele>
        <time>2016-12-22T20:29:09Z</time>
      </trkpt>
      <trkpt lat="46.11312" lon="1.92479">
        <ele>570</ele>
        <time>2016-12-22T20:31:09Z</time>
      </trkpt>
      <trkpt lat="46.11322" lon="1.9247">
        <ele>570</ele>
        <time>2016-12-22T20:33:09Z</time>
      </trkpt>
      <trkpt lat="46.11331" lon="1.92459">
        <ele>571</ele>
        <time>2016-12-22T20:35:09Z</time>
      </trkpt>
      <trkpt lat="46.11335" lon="1.92451">
        <ele>571</ele>
        <time>2016-12-22T20:37:09Z</time>
      </trkpt>
      <trkpt lat="46.11338" lon="1.92421">
        <ele>575</ele>
        <time>2016-12-22T20:39:09Z</time>
      </trkpt>
      <trkpt lat="46.11337" lon="1.92413">
        <ele>576</ele>
        <time>2016-12-22T20:41:09Z</time>
      </trkpt>
      <trkpt lat="46.11336" lon="1.92386">
        <ele>577</ele>
        <time>2016-12-22T20:43:09Z</time>
      </trkpt>
      <trkpt lat="46.11331" lon="1.92357">
        <ele>579</ele>
        <time>2016-12-22T20:45:09Z</time>
      </trkpt>
      <trkpt lat="46.11323" lon="1.92331">
        <ele>582</ele>
        <time>2016-12-22T20:47:09Z</time>
      </trkpt>
      <trkpt lat="46.11319" lon="1.92322">
        <ele>582</ele>
        <time>2016-12-22T20:49:09Z</time>
      </trkpt>
      <trkpt lat="46.11318" lon="1.92319">
        <ele>583</ele>
        <time>2016-12-22T20:51:09Z</time>
      </trkpt>
      <trkpt lat="46.11318" lon="1.92317">
        <ele>583</ele>
        <time>2016-12-22T20:53:09Z</time>
      </trkpt>
      <trkpt lat="46.11314" lon="1.92306">
        <ele>583</ele>
        <time>2016-12-22T20:55:09Z</time>
      </trkpt>
      <trkpt lat="46.11308" lon="1.92292">
        <ele>584</ele>
        <time>2016-12-22T20:57:09Z</time>
      </trkpt>
      <trkpt lat="46.11307" lon="1.92289">
        <ele>585</ele>
        <time>2016-12-22T20:59:09Z</time>
      </trkpt>
      <trkpt lat="46.11303" lon="1.9228">
        <ele>586</ele>
        <time>2016-12-22T21:01:09Z</time>
      </trkpt>
      <trkpt lat="46.11297" lon="1.92269">
        <ele>587</ele>
        <time>2016-12-22T21:03:09Z</time>
      </trkpt>
      <trkpt lat="46.1129" lon="1.9225">
        <ele>589</ele>
        <time>2016-12-22T21:05:09Z</time>
      </trkpt>
      <trkpt lat="46.11284" lon="1.9223">
        <ele>591</ele>
        <time>2016-12-22T21:07:09Z</time>
      </trkpt>
      <trkpt lat="46.11282" lon="1.92221">
        <ele>591</ele>
        <time>2016-12-22T21:09:09Z</time>
      </trkpt>
      <trkpt lat="46.11278" lon="1.92194">
        <ele>593</ele>
        <time>2016-12-22T21:11:09Z</time>
      </trkpt>
      <trkpt lat="46.11277" lon="1.92171">
        <ele>593</ele>
        <time>2016-12-22T21:13:09Z</time>
      </trkpt>
      <trkpt lat="46.11275" lon="1.92154">
        <ele>593</ele>
        <time>2016-12-22T21:15:09Z</time>
      </trkpt>
      <trkpt lat="46.11272" lon="1.92143">
        <ele>592</ele>
        <time>2016-12-22T21:17:09Z</time>
      </trkpt>
      <trkpt lat="46.11261" lon="1.92122">
        <ele>592</ele>
        <time>2016-12-22T21:19:09Z</time>
      </trkpt>
      <trkpt lat="46.11243" lon="1.92097">
        <ele>592</ele>
        <time>2016-12-22T21:21:09Z</time>
      </trkpt>
      <trkpt lat="46.11235" lon="1.92087">
        <ele>592</ele>
        <time>2016-12-22T21:23:09Z</time>
      </trkpt>
      <trkpt lat="46.11205" lon="1.92058">
        <ele>594</ele>
        <time>2016-12-22T21:25:09Z</time>
      </trkpt>
      <trkpt lat="46.11196" lon="1.92041">
        <ele>594</ele>
        <time>2016-12-22T21:27:09Z</time>
      </trkpt>
      <trkpt lat="46.11186" lon="1.92026">
        <ele>594</ele>
        <time>2016-12-22T21:29:09Z</time>
      </trkpt>
      <trkpt lat="46.11171" lon="1.91996">
        <ele>592</ele>
        <time>2016-12-22T21:31:09Z</time>
      </trkpt>
      <trkpt lat="46.11154" lon="1.91977">
        <ele>592</ele>
        <time>2016-12-22T21:33:09Z</time>
      </trkpt>
      <trkpt lat="46.11143" lon="1.91964">
        <ele>592</ele>
        <time>2016-12-22T21:35:09Z</time>
      </trkpt>
      <trkpt lat="46.1114" lon="1.9196">
        <ele>591</ele>
        <time>2016-12-22T21:37:09Z</time>
      </trkpt>
      <trkpt lat="46.11142" lon="1.91955">
        <ele>590</ele>
        <time>2016-12-22T21:39:09Z</time>
      </trkpt>
      <trkpt lat="46.11149" lon="1.91958">
        <ele>589</ele>
        <time>2016-12-22T21:41:09Z</time>
      </trkpt>
      <trkpt lat="46.11167" lon="1.9197">
        <ele>588</ele>
        <time>2016-12-22T21:43:09Z</time>
      </trkpt>
      <trkpt lat="46.11185" lon="1.91985">
        <ele>588</ele>
        <time>2016-12-22T21:45:09Z</time>
      </trkpt>
      <trkpt lat="46.11205" lon="1.92005">
        <ele>587</ele>
        <time>2016-12-22T21:47:09Z</time>
      </trkpt>
      <trkpt lat="46.11209" lon="1.92006">
        <ele>586</ele>
        <time>2016-12-22T21:49:09Z</time>
      </trkpt>
      <trkpt lat="46.11211" lon="1.91997">
        <ele>585</ele>
        <time>2016-12-22T21:51:09Z</time>
      </trkpt>
      <trkpt lat="46.11208" lon="1.91985">
        <ele>583</ele>
        <time>2016-12-22T21:53:09Z</time>
      </trkpt>
      <trkpt lat="46.11204" lon="1.91974">
        <ele>583</ele>
        <time>2016-12-22T21:55:09Z</time>
      </trkpt>
      <trkpt lat="46.11186" lon="1.91934">
        <ele>579</ele>
        <time>2016-12-22T21:57:09Z</time>
      </trkpt>
      <trkpt lat="46.11172" lon="1.91903">
        <ele>576</ele>
        <time>2016-12-22T21:59:09Z</time>
      </trkpt>
      <trkpt lat="46.11153" lon="1.91869">
        <ele>576</ele>
        <time>2016-12-22T22:01:09Z</time>
      </trkpt>
      <trkpt lat="46.11134" lon="1.9185">
        <ele>578</ele>
        <time>2016-12-22T22:03:09Z</time>
      </trkpt>
      <trkpt lat="46.11119" lon="1.91832">
        <ele>578</ele>
        <time>2016-12-22T22:05:09Z</time>
      </trkpt>
      <trkpt lat="46.11116" lon="1.91823">
        <ele>579</ele>
        <time>2016-12-22T22:07:09Z</time>
      </trkpt>
      <trkpt lat="46.11114" lon="1.91805">
        <ele>580</ele>
        <time>2016-12-22T22:09:09Z</time>
      </trkpt>
      <trkpt lat="46.11113" lon="1.91791">
        <ele>581</ele>
        <time>2016-12-22T22:11:09Z</time>
      </trkpt>
      <trkpt lat="46.11114" lon="1.91779">
        <ele>582</ele>
        <time>2016-12-22T22:13:09Z</time>
      </trkpt>
      <trkpt lat="46.11116" lon="1.91766">
        <ele>582</ele>
        <time>2016-12-22T22:15:09Z</time>
      </trkpt>
      <trkpt lat="46.1112" lon="1.9175">
        <ele>581</ele>
        <time>2016-12-22T22:17:09Z</time>
      </trkpt>
      <trkpt lat="46.11123" lon="1.91731">
        <ele>582</ele>
        <time>2016-12-22T22:19:09Z</time>
      </trkpt>
      <trkpt lat="46.11126" lon="1.91721">
        <ele>582</ele>
        <time>2016-12-22T22:21:09Z</time>
      </trkpt>
      <trkpt lat="46.11127" lon="1.91718">
        <ele>582</ele>
        <time>2016-12-22T22:23:09Z</time>
      </trkpt>
      <trkpt lat="46.11131" lon="1.91698">
        <ele>582</ele>
        <time>2016-12-22T22:25:09Z</time>
      </trkpt>
      <trkpt lat="46.11132" lon="1.91689">
        <ele>582</ele>
        <time>2016-12-22T22:27:09Z</time>
      </trkpt>
      <trkpt lat="46.11129" lon="1.91666">
        <ele>585</ele>
        <time>2016-12-22T22:29:09Z</time>
      </trkpt>
      <trkpt lat="46.1112" lon="1.91631">
        <ele>586</ele>
        <time>2016-12-22T22:31:09Z</time>
      </trkpt>
      <trkpt lat="46.11112" lon="1.9161">
        <ele>587</ele>
        <time>2016-12-22T22:33:09Z</time>
      </trkpt>
      <trkpt lat="46.11104" lon="1.91593">
        <ele>588</ele>
        <time>2016-12-22T22:35:09Z</time>
      </trkpt>
      <trkpt lat="46.11096" lon="1.91579">
        <ele>589</ele>
        <time>2016-12-22T22:37:09Z</time>
      </trkpt>
      <trkpt lat="46.1109" lon="1.9157">
        <ele>590</ele>
        <time>2016-12-22T22:39:09Z</time>
      </trkpt>
      <trkpt lat="46.11081" lon="1.91556">
        <ele>591</ele>
        <time>2016-12-22T22:41:09Z</time>
      </trkpt>
      <trkpt lat="46.11077" lon="1.91547">
        <ele>592</ele>
        <time>2016-12-22T22:43:09Z</time>
      </trkpt>
      <trkpt lat="46.11072" lon="1.91541">
        <ele>593</ele>
        <time>2016-12-22T22:45:09Z</time>
      </trkpt>
      <trkpt lat="46.1106" lon="1.91529">
        <ele>595</ele>
        <time>2016-12-22T22:47:09Z</time>
      </trkpt>
      <trkpt lat="46.11051" lon="1.91523">
        <ele>597</ele>
        <time>2016-12-22T22:49:09Z</time>
      </trkpt>
      <trkpt lat="46.11036" lon="1.91509">
        <ele>601</ele>
        <time>2016-12-22T22:51:09Z</time>
      </trkpt>
      <trkpt lat="46.11033" lon="1.91505">
        <ele>601</ele>
        <time>2016-12-22T22:53:09Z</time>
      </trkpt>
      <trkpt lat="46.11032" lon="1.91502">
        <ele>601</ele>
        <time>2016-12-22T22:55:09Z</time>
      </trkpt>
      <trkpt lat="46.11029" lon="1.91494">
        <ele>602</ele>
        <time>2016-12-22T22:57:09Z</time>
      </trkpt>
      <trkpt lat="46.11028" lon="1.91492">
        <ele>602</ele>
        <time>2016-12-22T22:59:09Z</time>
      </trkpt>
      <trkpt lat="46.11027" lon="1.9149">
        <ele>603</ele>
        <time>2016-12-22T23:01:09Z</time>
      </trkpt>
      <trkpt lat="46.11027" lon="1.91481">
        <ele>602</ele>
        <time>2016-12-22T23:03:09Z</time>
      </trkpt>
      <trkpt lat="46.11027" lon="1.91463">
        <ele>602</ele>
        <time>2016-12-22T23:05:09Z</time>
      </trkpt>
      <trkpt lat="46.11028" lon="1.9146">
        <ele>602</ele>
        <time>2016-12-22T23:07:09Z</time>
      </trkpt>
      <trkpt lat="46.11031" lon="1.91455">
        <ele>601</ele>
        <time>2016-12-22T23:09:09Z</time>
      </trkpt>
      <trkpt lat="46.11036" lon="1.9145">
        <ele>600</ele>
        <time>2016-12-22T23:11:09Z</time>
      </trkpt>
      <trkpt lat="46.11041" lon="1.91444">
        <ele>599</ele>
        <time>2016-12-22T23:13:09Z</time>
      </trkpt>
      <trkpt lat="46.11043" lon="1.91438">
        <ele>599</ele>
        <time>2016-12-22T23:15:09Z</time>
      </trkpt>
      <trkpt lat="46.11045" lon="1.91431">
        <ele>598</ele>
        <time>2016-12-22T23:17:09Z</time>
      </trkpt>
      <trkpt lat="46.1105" lon="1.91408">
        <ele>598</ele>
        <time>2016-12-22T23:19:09Z</time>
      </trkpt>
      <trkpt lat="46.11052" lon="1.91401">
        <ele>598</ele>
        <time>2016-12-22T23:21:09Z</time>
      </trkpt>
      <trkpt lat="46.11058" lon="1.91379">
        <ele>599</ele>
        <time>2016-12-22T23:23:09Z</time>
      </trkpt>
      <trkpt lat="46.11062" lon="1.91364">
        <ele>600</ele>
        <time>2016-12-22T23:25:09Z</time>
      </trkpt>
      <trkpt lat="46.11066" lon="1.91356">
        <ele>601</ele>
        <time>2016-12-22T23:27:09Z</time>
      </trkpt>
      <trkpt lat="46.11067" lon="1.91354">
        <ele>601</ele>
        <time>2016-12-22T23:29:09Z</time>
      </trkpt>
      <trkpt lat="46.11075" lon="1.91347">
        <ele>601</ele>
        <time>2016-12-22T23:31:09Z</time>
      </trkpt>
      <trkpt lat="46.11078" lon="1.91346">
        <ele>601</ele>
        <time>2016-12-22T23:33:09Z</time>
      </trkpt>
      <trkpt lat="46.11086" lon="1.91347">
        <ele>600</ele>
        <time>2016-12-22T23:35:09Z</time>
      </trkpt>
      <trkpt lat="46.111" lon="1.91351">
        <ele>601</ele>
        <time>2016-12-22T23:37:09Z</time>
      </trkpt>
      <trkpt lat="46.11112" lon="1.9136">
        <ele>600</ele>
        <time>2016-12-22T23:39:09Z</time>
      </trkpt>
      <trkpt lat="46.11116" lon="1.91365">
        <ele>599</ele>
        <time>2016-12-22T23:41:09Z</time>
      </trkpt>
      <trkpt lat="46.11123" lon="1.91373">
        <ele>598</ele>
        <time>2016-12-22T23:43:09Z</time>
      </trkpt>
      <trkpt lat="46.11131" lon="1.91381">
        <ele>597</ele>
        <time>2016-12-22T23:45:09Z</time>
      </trkpt>
      <trkpt lat="46.11135" lon="1.91384">
        <ele>596</ele>
        <time>2016-12-22T23:47:09Z</time>
      </trkpt>
      <trkpt lat="46.11145" lon="1.91397">
        <ele>593</ele>
        <time>2016-12-22T23:49:09Z</time>
      </trkpt>
      <trkpt lat="46.11155" lon="1.91409">
        <ele>590</ele>
        <time>2016-12-22T23:51:09Z</time>
      </trkpt>
      <trkpt lat="46.11162" lon="1.91418">
        <ele>588</ele>
        <time>2016-12-22T23:53:09Z</time>
      </trkpt>
      <trkpt lat="46.11166" lon="1.91421">
        <ele>587</ele>
        <time>2016-12-22T23:55:09Z</time>
      </trkpt>
      <trkpt lat="46.11171" lon="1.91424">
        <ele>587</ele>
        <time>2016-12-22T23:57:09Z</time>
      </trkpt>
      <trkpt lat="46.11179" lon="1.91424">
        <ele>588</ele>
        <time>2016-12-22T23:59:09Z</time>
      </trkpt>
      <trkpt lat="46.11187" lon="1.91424">
        <ele>588</ele>
        <time>2016-12-23T00:01:09Z</time>
      </trkpt>
      <trkpt lat="46.11204" lon="1.91426">
        <ele>589</ele>
        <time>2016-12-23T00:03:09Z</time>
      </trkpt>
      <trkpt lat="46.11212" lon="1.91428">
        <ele>589</ele>
        <time>2016-12-23T00:05:09Z</time>
      </trkpt>
      <trkpt lat="46.1122" lon="1.91432">
        <ele>589</ele>
        <time>2016-12-23T00:07:09Z</time>
      </trkpt>
      <trkpt lat="46.11244" lon="1.91445">
        <ele>588</ele>
        <time>2016-12-23T00:09:09Z</time>
      </trkpt>
      <trkpt lat="46.11259" lon="1.91456">
        <ele>586</ele>
        <time>2016-12-23T00:11:09Z</time>
      </trkpt>
      <trkpt lat="46.11278" lon="1.91471">
        <ele>583</ele>
        <time>2016-12-23T00:13:09Z</time>
      </trkpt>
      <trkpt lat="46.11289" lon="1.91481">
        <ele>582</ele>
        <time>2016-12-23T00:15:09Z</time>
      </trkpt>
      <trkpt lat="46.11301" lon="1.91493">
        <ele>580</ele>
        <time>2016-12-23T00:17:09Z</time>
      </trkpt>
      <trkpt lat="46.11314" lon="1.91502">
        <ele>579</ele>
        <time>2016-12-23T00:19:09Z</time>
      </trkpt>
      <trkpt lat="46.11321" lon="1.91506">
        <ele>579</ele>
        <time>2016-12-23T00:21:09Z</time>
      </trkpt>
      <trkpt lat="46.11327" lon="1.9151">
        <ele>578</ele>
        <time>2016-12-23T00:23:09Z</time>
      </trkpt>
      <trkpt lat="46.11342" lon="1.91521">
        <ele>575</ele>
        <time>2016-12-23T00:25:09Z</time>
      </trkpt>
      <trkpt lat="46.1135" lon="1.91526">
        <ele>573</ele>
        <time>2016-12-23T00:27:09Z</time>
      </trkpt>
      <trkpt lat="46.11357" lon="1.9153">
        <ele>571</ele>
        <time>2016-12-23T00:29:09Z</time>
      </trkpt>
      <trkpt lat="46.11364" lon="1.91532">
        <ele>570</ele>
        <time>2016-12-23T00:31:09Z</time>
      </trkpt>
      <trkpt lat="46.11369" lon="1.91531">
        <ele>569</ele>
        <time>2016-12-23T00:33:09Z</time>
      </trkpt>
      <trkpt lat="46.11373" lon="1.91525">
        <ele>569</ele>
        <time>2016-12-23T00:35:09Z</time>
      </trkpt>
      <trkpt lat="46.11381" lon="1.9151">
        <ele>569</ele>
        <time>2016-12-23T00:37:09Z</time>
      </trkpt>
      <trkpt lat="46.11393" lon="1.91491">
        <ele>569</ele>
        <time>2016-12-23T00:39:09Z</time>
      </trkpt>
      <trkpt lat="46.11407" lon="1.91462">
        <ele>570</ele>
        <time>2016-12-23T00:41:09Z</time>
      </trkpt>
      <trkpt lat="46.11413" lon="1.91458">
        <ele>570</ele>
        <time>2016-12-23T00:43:09Z</time>
      </trkpt>
      <trkpt lat="46.11415" lon="1.91462">
        <ele>569</ele>
        <time>2016-12-23T00:45:09Z</time>
      </trkpt>
      <trkpt lat="46.11417" lon="1.91483">
        <ele>565</ele>
        <time>2016-12-23T00:47:09Z</time>
      </trkpt>
      <trkpt lat="46.11418" lon="1.91501">
        <ele>563</ele>
        <time>2016-12-23T00:49:09Z</time>
      </trkpt>
      <trkpt lat="46.11418" lon="1.91518">
        <ele>561</ele>
        <time>2016-12-23T00:51:09Z</time>
      </trkpt>
      <trkpt lat="46.11418" lon="1.91541">
        <ele>560</ele>
        <time>2016-12-23T00:53:09Z</time>
      </trkpt>
      <trkpt lat="46.11418" lon="1.91549">
        <ele>559</ele>
        <time>2016-12-23T00:55:09Z</time>
      </trkpt>
      <trkpt lat="46.1142" lon="1.91553">
        <ele>558</ele>
        <time>2016-12-23T00:57:09Z</time>
      </trkpt>
      <trkpt lat="46.11423" lon="1.91553">
        <ele>557</ele>
        <time>2016-12-23T00:59:09Z</time>
      </trkpt>
      <trkpt lat="46.11427" lon="1.91549">
        <ele>557</ele>
        <time>2016-12-23T01:01:09Z</time>
      </trkpt>
      <trkpt lat="46.11431" lon="1.91545">
        <ele>556</ele>
        <time>2016-12-23T01:03:09Z</time>
      </trkpt>
      <trkpt lat="46.11439" lon="1.91538">
        <ele>554</ele>
        <time>2016-12-23T01:05:09Z</time>
      </trkpt>
      <trkpt lat="46.11457" lon="1.91521">
        <ele>550</ele>
        <time>2016-12-23T01:07:09Z</time>
      </trkpt>
      <trkpt lat="46.11476" lon="1.91512">
        <ele>546</ele>
        <time>2016-12-23T01:09:09Z</time>
      </trkpt>
      <trkpt lat="46.11482" lon="1.91512">
        <ele>545</ele>
        <time>2016-12-23T01:11:09Z</time>
      </trkpt>
      <trkpt lat="46.11488" lon="1.91513">
        <ele>543</ele>
        <time>2016-12-23T01:13:09Z</time>
      </trkpt>
      <trkpt lat="46.11496" lon="1.91517">
        <ele>540</ele>
        <time>2016-12-23T01:15:09Z</time>
      </trkpt>
      <trkpt lat="46.11502" lon="1.91519">
        <ele>539</ele>
        <time>2016-12-23T01:17:09Z</time>
      </trkpt>
      <trkpt lat="46.11506" lon="1.91523">
        <ele>537</ele>
        <time>2016-12-23T01:19:09Z</time>
      </trkpt>
      <trkpt lat="46.11509" lon="1.91529">
        <ele>536</ele>
        <time>2016-12-23T01:21:09Z</time>
      </trkpt>
      <trkpt lat="46.11514" lon="1.91539">
        <ele>534</ele>
        <time>2016-12-23T01:23:09Z</time>
      </trkpt>
      <trkpt lat="46.11517" lon="1.91545">
        <ele>533</ele>
        <time>2016-12-23T01:25:09Z</time>
      </trkpt>
      <trkpt lat="46.11523" lon="1.91561">
        <ele>531</ele>
        <time>2016-12-23T01:27:09Z</time>
      </trkpt>
      <trkpt lat="46.11529" lon="1.91578">
        <ele>528</ele>
        <time>2016-12-23T01:29:09Z</time>
      </trkpt>
      <trkpt lat="46.11535" lon="1.91603">
        <ele>526</ele>
        <time>2016-12-23T01:31:09Z</time>
      </trkpt>
      <trkpt lat="46.11537" lon="1.91612">
        <ele>525</ele>
        <time>2016-12-23T01:33:09Z</time>
      </trkpt>
      <trkpt lat="46.11542" lon="1.91632">
        <ele>524</ele>
        <time>2016-12-23T01:35:09Z</time>
      </trkpt>
      <trkpt lat="46.11548" lon="1.91651">
        <ele>522</ele>
        <time>2016-12-23T01:37:09Z</time>
      </trkpt>
      <trkpt lat="46.11553" lon="1.91664">
        <ele>520</ele>
        <time>2016-12-23T01:39:09Z</time>
      </trkpt>
      <trkpt lat="46.11556" lon="1.9167">
        <ele>519</ele>
        <time>2016-12-23T01:41:09Z</time>
      </trkpt>
      <trkpt lat="46.11561" lon="1.91683">
        <ele>519</ele>
        <time>2016-12-23T01:43:09Z</time>
      </trkpt>
      <trkpt lat="46.11566" lon="1.91694">
        <ele>519</ele>
        <time>2016-12-23T01:45:09Z</time>
      </trkpt>
      <trkpt lat="46.11568" lon="1.91696">
        <ele>519</ele>
        <time>2016-12-23T01:47:09Z</time>
      </trkpt>
      <trkpt lat="46.11578" lon="1.91713">
        <ele>518</ele>
        <time>2016-12-23T01:49:09Z</time>
      </trkpt>
      <trkpt lat="46.11586" lon="1.91719">
        <ele>517</ele>
        <time>2016-12-23T01:51:09Z</time>
      </trkpt>
      <trkpt lat="46.11603" lon="1.91723">
        <ele>516</ele>
        <time>2016-12-23T01:53:09Z</time>
      </trkpt>
      <trkpt lat="46.11619" lon="1.91723">
        <ele>515</ele>
        <time>2016-12-23T01:55:09Z</time>
      </trkpt>
      <trkpt lat="46.11626" lon="1.91723">
        <ele>514</ele>
        <time>2016-12-23T01:57:09Z</time>
      </trkpt>
      <trkpt lat="46.11644" lon="1.91724">
        <ele>512</ele>
        <time>2016-12-23T01:59:09Z</time>
      </trkpt>
      <trkpt lat="46.11667" lon="1.91721">
        <ele>509</ele>
        <time>2016-12-23T02:01:09Z</time>
      </trkpt>
      <trkpt lat="46.11681" lon="1.9172">
        <ele>508</ele>
        <time>2016-12-23T02:03:09Z</time>
      </trkpt>
      <trkpt lat="46.11689" lon="1.9172">
        <ele>507</ele>
        <time>2016-12-23T02:05:09Z</time>
      </trkpt>
      <trkpt lat="46.11705" lon="1.91721">
        <ele>506</ele>
        <time>2016-12-23T02:07:09Z</time>
      </trkpt>
      <trkpt lat="46.11721" lon="1.91719">
        <ele>505</ele>
        <time>2016-12-23T02:09:09Z</time>
      </trkpt>
      <trkpt lat="46.11729" lon="1.91718">
        <ele>504</ele>
        <time>2016-12-23T02:11:09Z</time>
      </trkpt>
      <trkpt lat="46.11742" lon="1.91713">
        <ele>503</ele>
        <time>2016-12-23T02:13:09Z</time>
      </trkpt>
      <trkpt lat="46.11747" lon="1.91709">
        <ele>502</ele>
        <time>2016-12-23T02:15:09Z</time>
      </trkpt>
      <trkpt lat="46.11764" lon="1.91701">
        <ele>499</ele>
        <time>2016-12-23T02:17:09Z</time>
      </trkpt>
      <trkpt lat="46.11774" lon="1.91697">
        <ele>497</ele>
        <time>2016-12-23T02:19:09Z</time>
      </trkpt>
      <trkpt lat="46.11784" lon="1.91695">
        <ele>496</ele>
        <time>2016-12-23T02:21:09Z</time>
      </trkpt>
      <trkpt lat="46.11787" lon="1.91693">
        <ele>495</ele>
        <time>2016-12-23T02:23:09Z</time>
      </trkpt>
      <trkpt lat="46.11791" lon="1.91689">
        <ele>494</ele>
        <time>2016-12-23T02:25:09Z</time>
      </trkpt>
      <trkpt lat="46.11796" lon="1.91681">
        <ele>493</ele>
        <time>2016-12-23T02:27:09Z</time>
      </trkpt>
      <trkpt lat="46.11796" lon="1.91674">
        <ele>492</ele>
        <time>2016-12-23T02:29:09Z</time>
      </trkpt>
      <trkpt lat="46.11785" lon="1.91666">
        <ele>493</ele>
        <time>2016-12-23T02:31:09Z</time>
      </trkpt>
      <trkpt lat="46.11774" lon="1.91655">
        <ele>495</ele>
        <time>2016-12-23T02:33:09Z</time>
      </trkpt>
      <trkpt lat="46.11768" lon="1.9164">
        <ele>496</ele>
        <time>2016-12-23T02:35:09Z</time>
      </trkpt>
      <trkpt lat="46.11763" lon="1.91625">
        <ele>497</ele>
        <time>2016-12-23T02:37:09Z</time>
      </trkpt>
      <trkpt lat="46.11761" lon="1.91614">
        <ele>497</ele>
        <time>2016-12-23T02:39:09Z</time>
      </trkpt>
      <trkpt lat="46.11764" lon="1.91592">
        <ele>498</ele>
        <time>2016-12-23T02:41:09Z</time>
      </trkpt>
      <trkpt lat="46.11772" lon="1.91586">
        <ele>498</ele>
        <time>2016-12-23T02:43:09Z</time>
      </trkpt>
      <trkpt lat="46.11773" lon="1.91586">
        <ele>498</ele>
        <time>2016-12-23T02:45:09Z</time>
      </trkpt>
      <trkpt lat="46.11776" lon="1.91582">
        <ele>498</ele>
        <time>2016-12-23T02:47:09Z</time>
      </trkpt>
      <trkpt lat="46.11777" lon="1.9158">
        <ele>499</ele>
        <time>2016-12-23T02:49:09Z</time>
      </trkpt>
      <trkpt lat="46.11777" lon="1.9158">
        <ele>499</ele>
        <time>2016-12-23T02:51:09Z</time>
      </trkpt>
      <trkpt lat="46.11778" lon="1.91573">
        <ele>500</ele>
        <time>2016-12-23T02:53:09Z</time>
      </trkpt>
      <trkpt lat="46.11776" lon="1.91558">
        <ele>502</ele>
        <time>2016-12-23T02:55:09Z</time>
      </trkpt>
      <trkpt lat="46.11772" lon="1.91539">
        <ele>505</ele>
        <time>2016-12-23T02:57:09Z</time>
      </trkpt>
      <trkpt lat="46.1177" lon="1.91528">
        <ele>507</ele>
        <time>2016-12-23T02:59:09Z</time>
      </trkpt>
      <trkpt lat="46.11771" lon="1.91524">
        <ele>507</ele>
        <time>2016-12-23T03:01:09Z</time>
      </trkpt>
      <trkpt lat="46.11769" lon="1.91515">
        <ele>509</ele>
        <time>2016-12-23T03:03:09Z</time>
      </trkpt>
      <trkpt lat="46.11764" lon="1.91509">
        <ele>510</ele>
        <time>2016-12-23T03:05:09Z</time>
      </trkpt>
      <trkpt lat="46.11761" lon="1.91505">
        <ele>511</ele>
        <time>2016-12-23T03:07:09Z</time>
      </trkpt>
      <trkpt lat="46.1176" lon="1.91501">
        <ele>512</ele>
        <time>2016-12-23T03:09:09Z</time>
      </trkpt>
      <trkpt lat="46.11752" lon="1.91487">
        <ele>514</ele>
        <time>2016-12-23T03:11:09Z</time>
      </trkpt>
      <trkpt lat="46.11744" lon="1.91482">
        <ele>515</ele>
        <time>2016-12-23T03:13:09Z</time>
      </trkpt>
      <trkpt lat="46.11739" lon="1.91482">
        <ele>515</ele>
        <time>2016-12-23T03:15:09Z</time>
      </trkpt>
      <trkpt lat="46.11732" lon="1.91482">
        <ele>516</ele>
        <time>2016-12-23T03:17:09Z</time>
      </trkpt>
      <trkpt lat="46.11724" lon="1.91484">
        <ele>517</ele>
        <time>2016-12-23T03:19:09Z</time>
      </trkpt>
      <trkpt lat="46.11717" lon="1.91484">
        <ele>518</ele>
        <time>2016-12-23T03:21:09Z</time>
      </trkpt>
      <trkpt lat="46.11709" lon="1.91486">
        <ele>518</ele>
        <time>2016-12-23T03:23:09Z</time>
      </trkpt>
      <trkpt lat="46.11695" lon="1.91486">
        <ele>520</ele>
        <time>2016-12-23T03:25:09Z</time>
      </trkpt>
      <trkpt lat="46.11686" lon="1.91483">
        <ele>521</ele>
        <time>2016-12-23T03:27:09Z</time>
      </trkpt>
      <trkpt lat="46.11679" lon="1.91478">
        <ele>522</ele>
        <time>2016-12-23T03:29:09Z</time>
      </trkpt>
      <trkpt lat="46.11674" lon="1.91468">
        <ele>524</ele>
        <time>2016-12-23T03:31:09Z</time>
      </trkpt>
      <trkpt lat="46.11672" lon="1.91461">
        <ele>525</ele>
        <time>2016-12-23T03:33:09Z</time>
      </trkpt>
      <trkpt lat="46.1167" lon="1.91458">
        <ele>526</ele>
        <time>2016-12-23T03:35:09Z</time>
      </trkpt>
      <trkpt lat="46.11669" lon="1.91453">
        <ele>526</ele>
        <time>2016-12-23T03:37:09Z</time>
      </trkpt>
      <trkpt lat="46.11668" lon="1.91448">
        <ele>527</ele>
        <time>2016-12-23T03:39:09Z</time>
      </trkpt>
      <trkpt lat="46.11662" lon="1.91436">
        <ele>529</ele>
        <time>2016-12-23T03:41:09Z</time>
      </trkpt>
      <trkpt lat="46.11657" lon="1.91428">
        <ele>530</ele>
        <time>2016-12-23T03:43:09Z</time>
      </trkpt>
      <trkpt lat="46.11651" lon="1.91418">
        <ele>531</ele>
        <time>2016-12-23T03:45:09Z</time>
      </trkpt>
      <trkpt lat="46.11648" lon="1.91409">
        <ele>532</ele>
        <time>2016-12-23T03:47:09Z</time>
      </trkpt>
      <trkpt lat="46.11642" lon="1.91393">
        <ele>535</ele>
        <time>2016-12-23T03:49:09Z</time>
      </trkpt>
      <trkpt lat="46.11633" lon="1.91376">
        <ele>537</ele>
        <time>2016-12-23T03:51:09Z</time>
      </trkpt>
      <trkpt lat="46.11632" lon="1.91374">
        <ele>538</ele>
        <time>2016-12-23T03:53:09Z</time>
      </trkpt>
      <trkpt lat="46.11625" lon="1.91364">
        <ele>539</ele>
        <time>2016-12-23T03:55:09Z</time>
      </trkpt>
      <trkpt lat="46.11623" lon="1.91355">
        <ele>541</ele>
        <time>2016-12-23T03:57:09Z</time>
      </trkpt>
      <trkpt lat="46.11625" lon="1.91349">
        <ele>541</ele>
        <time>2016-12-23T03:59:09Z</time>
      </trkpt>
      <trkpt lat="46.11628" lon="1.91341">
        <ele>542</ele>
        <time>2016-12-23T04:01:09Z</time>
      </trkpt>
      <trkpt lat="46.11631" lon="1.91334">
        <ele>543</ele>
        <time>2016-12-23T04:03:09Z</time>
      </trkpt>
      <trkpt lat="46.11633" lon="1.91329">
        <ele>543</ele>
        <time>2016-12-23T04:05:09Z</time>
      </trkpt>
      <trkpt lat="46.11637" lon="1.91319">
        <ele>544</ele>
        <time>2016-12-23T04:07:09Z</time>
      </trkpt>
      <trkpt lat="46.11638" lon="1.91317">
        <ele>544</ele>
        <time>2016-12-23T04:09:09Z</time>
      </trkpt>
      <trkpt lat="46.11639" lon="1.9131">
        <ele>545</ele>
        <time>2016-12-23T04:11:09Z</time>
      </trkpt>
      <trkpt lat="46.11638" lon="1.91303">
        <ele>546</ele>
        <time>2016-12-23T04:13:09Z</time>
      </trkpt>
      <trkpt lat="46.11635" lon="1.91297">
        <ele>547</ele>
        <time>2016-12-23T04:15:09Z</time>
      </trkpt>
      <trkpt lat="46.11632" lon="1.91284">
        <ele>550</ele>
        <time>2016-12-23T04:17:09Z</time>
      </trkpt>
      <trkpt lat="46.1163" lon="1.91279">
        <ele>551</ele>
        <time>2016-12-23T04:19:09Z</time>
      </trkpt>
      <trkpt lat="46.11628" lon="1.91273">
        <ele>552</ele>
        <time>2016-12-23T04:21:09Z</time>
      </trkpt>
      <trkpt lat="46.11627" lon="1.91255">
        <ele>555</ele>
        <time>2016-12-23T04:23:09Z</time>
      </trkpt>
      <trkpt lat="46.11627" lon="1.91246">
        <ele>556</ele>
        <time>2016-12-23T04:25:09Z</time>
      </trkpt>
      <trkpt lat="46.11627" lon="1.91237">
        <ele>557</ele>
        <time>2016-12-23T04:27:09Z</time>
      </trkpt>
      <trkpt lat="46.11627" lon="1.91222">
        <ele>558</ele>
        <time>2016-12-23T04:29:09Z</time>
      </trkpt>
      <trkpt lat="46.11627" lon="1.91212">
        <ele>559</ele>
        <time>2016-12-23T04:31:09Z</time>
      </trkpt>
      <trkpt lat="46.11627" lon="1.91199">
        <ele>560</ele>
        <time>2016-12-23T04:33:09Z</time>
      </trkpt>
      <trkpt lat="46.11626" lon="1.91199">
        <ele>561</ele>
        <time>2016-12-23T04:35:09Z</time>
      </trkpt>
      <trkpt lat="46.11629" lon="1.91178">
        <ele>562</ele>
        <time>2016-12-23T04:37:09Z</time>
      </trkpt>
      <trkpt lat="46.11629" lon="1.91175">
        <ele>562</ele>
        <time>2016-12-23T04:39:09Z</time>
      </trkpt>
      <trkpt lat="46.11632" lon="1.9115">
        <ele>563</ele>
        <time>2016-12-23T04:41:09Z</time>
      </trkpt>
      <trkpt lat="46.11632" lon="1.91136">
        <ele>564</ele>
        <time>2016-12-23T04:43:09Z</time>
      </trkpt>
      <trkpt lat="46.11632" lon="1.91127">
        <ele>565</ele>
        <time>2016-12-23T04:45:09Z</time>
      </trkpt>
      <trkpt lat="46.11631" lon="1.9112">
        <ele>566</ele>
        <time>2016-12-23T04:47:09Z</time>
      </trkpt>
      <trkpt lat="46.11632" lon="1.91117">
        <ele>566</ele>
        <time>2016-12-23T04:49:09Z</time>
      </trkpt>
      <trkpt lat="46.11632" lon="1.91117">
        <ele>566</ele>
        <time>2016-12-23T04:51:09Z</time>
      </trkpt>
      <trkpt lat="46.11633" lon="1.9111">
        <ele>566</ele>
        <time>2016-12-23T04:53:09Z</time>
      </trkpt>
      <trkpt lat="46.11635" lon="1.91102">
        <ele>566</ele>
        <time>2016-12-23T04:55:09Z</time>
      </trkpt>
      <trkpt lat="46.11638" lon="1.91092">
        <ele>566</ele>
        <time>2016-12-23T04:57:09Z</time>
      </trkpt>
      <trkpt lat="46.11639" lon="1.91084">
        <ele>566</ele>
        <time>2016-12-23T04:59:09Z</time>
      </trkpt>
      <trkpt lat="46.11639" lon="1.91076">
        <ele>567</ele>
        <time>2016-12-23T05:01:09Z</time>
      </trkpt>
      <trkpt lat="46.11637" lon="1.91055">
        <ele>571</ele>
        <time>2016-12-23T05:03:09Z</time>
      </trkpt>
      <trkpt lat="46.11636" lon="1.91019">
        <ele>577</ele>
        <time>2016-12-23T05:05:09Z</time>
      </trkpt>
      <trkpt lat="46.11637" lon="1.91013">
        <ele>578</ele>
        <time>2016-12-23T05:07:09Z</time>
      </trkpt>
      <trkpt lat="46.11638" lon="1.90996">
        <ele>581</ele>
        <time>2016-12-23T05:09:09Z</time>
      </trkpt>
      <trkpt lat="46.1164" lon="1.9098">
        <ele>583</ele>
        <time>2016-12-23T05:11:09Z</time>
      </trkpt>
      <trkpt lat="46.11644" lon="1.90959">
        <ele>586</ele>
        <time>2016-12-23T05:13:09Z</time>
      </trkpt>
      <trkpt lat="46.11646" lon="1.90948">
        <ele>588</ele>
        <time>2016-12-23T05:15:09Z</time>
      </trkpt>
      <trkpt lat="46.11646" lon="1.90933">
        <ele>591</ele>
        <time>2016-12-23T05:17:09Z</time>
      </trkpt>
      <trkpt lat="46.11645" lon="1.9093">
        <ele>592</ele>
        <time>2016-12-23T05:19:09Z</time>
      </trkpt>
      <trkpt lat="46.11644" lon="1.90925">
        <ele>593</ele>
        <time>2016-12-23T05:21:09Z</time>
      </trkpt>
      <trkpt lat="46.11643" lon="1.90923">
        <ele>594</ele>
        <time>2016-12-23T05:23:09Z</time>
      </trkpt>
      <trkpt lat="46.11641" lon="1.90921">
        <ele>595</ele>
        <time>2016-12-23T05:25:09Z</time>
      </trkpt>
      <trkpt lat="46.11639" lon="1.9092">
        <ele>595</ele>
        <time>2016-12-23T05:27:09Z</time>
      </trkpt>
      <trkpt lat="46.11632" lon="1.90921">
        <ele>597</ele>
        <time>2016-12-23T05:29:09Z</time>
      </trkpt>
      <trkpt lat="46.11627" lon="1.90921">
        <ele>598</ele>
        <time>2016-12-23T05:31:09Z</time>
      </trkpt>
      <trkpt lat="46.1162" lon="1.90924">
        <ele>599</ele>
        <time>2016-12-23T05:33:09Z</time>
      </trkpt>
      <trkpt lat="46.11616" lon="1.90927">
        <ele>600</ele>
        <time>2016-12-23T05:35:09Z</time>
      </trkpt>
      <trkpt lat="46.11609" lon="1.90928">
        <ele>601</ele>
        <time>2016-12-23T05:37:09Z</time>
      </trkpt>
      <trkpt lat="46.11601" lon="1.90931">
        <ele>603</ele>
        <time>2016-12-23T05:39:09Z</time>
      </trkpt>
      <trkpt lat="46.11598" lon="1.90933">
        <ele>603</ele>
        <time>2016-12-23T05:41:09Z</time>
      </trkpt>
      <trkpt lat="46.11592" lon="1.90945">
        <ele>603</ele>
        <time>2016-12-23T05:43:09Z</time>
      </trkpt>
      <trkpt lat="46.11592" lon="1.90947">
        <ele>602</ele>
        <time>2016-12-23T05:45:09Z</time>
      </trkpt>
      <trkpt lat="46.11587" lon="1.90956">
        <ele>602</ele>
        <time>2016-12-23T05:47:09Z</time>
      </trkpt>
      <trkpt lat="46.11582" lon="1.90962">
        <ele>602</ele>
        <time>2016-12-23T05:49:09Z</time>
      </trkpt>
      <trkpt lat="46.1156" lon="1.90989">
        <ele>604</ele>
        <time>2016-12-23T05:51:09Z</time>
      </trkpt>
      <trkpt lat="46.11554" lon="1.91">
        <ele>604</ele>
        <time>2016-12-23T05:53:09Z</time>
      </trkpt>
      <trkpt lat="46.1155" lon="1.91008">
        <ele>604</ele>
        <time>2016-12-23T05:55:09Z</time>
      </trkpt>
      <trkpt lat="46.11542" lon="1.91024">
        <ele>605</ele>
        <time>2016-12-23T05:57:09Z</time>
      </trkpt>
      <trkpt lat="46.11537" lon="1.91031">
        <ele>605</ele>
        <time>2016-12-23T05:59:09Z</time>
      </trkpt>
      <trkpt lat="46.11536" lon="1.91032">
        <ele>605</ele>
        <time>2016-12-23T06:01:09Z</time>
      </trkpt>
      <trkpt lat="46.11527" lon="1.91037">
        <ele>608</ele>
        <time>2016-12-23T06:03:09Z</time>
      </trkpt>
      <trkpt lat="46.11519" lon="1.91046">
        <ele>609</ele>
        <time>2016-12-23T06:05:09Z</time>
      </trkpt>
      <trkpt lat="46.11518" lon="1.91048">
        <ele>609</ele>
        <time>2016-12-23T06:07:09Z</time>
      </trkpt>
      <trkpt lat="46.11508" lon="1.91059">
        <ele>610</ele>
        <time>2016-12-23T06:09:09Z</time>
      </trkpt>
      <trkpt lat="46.11504" lon="1.91062">
        <ele>611</ele>
        <time>2016-12-23T06:11:09Z</time>
      </trkpt>
      <trkpt lat="46.11496" lon="1.91063">
        <ele>613</ele>
        <time>2016-12-23T06:13:09Z</time>
      </trkpt>
      <trkpt lat="46.11495" lon="1.91063">
        <ele>613</ele>
        <time>2016-12-23T06:15:09Z</time>
      </trkpt>
      <trkpt lat="46.11496" lon="1.9106">
        <ele>613</ele>
        <time>2016-12-23T06:17:09Z</time>
      </trkpt>
      <trkpt lat="46.11497" lon="1.91059">
        <ele>613</ele>
        <time>2016-12-23T06:19:09Z</time>
      </trkpt>
      <trkpt lat="46.11504" lon="1.91047">
        <ele>613</ele>
        <time>2016-12-23T06:21:09Z</time>
      </trkpt>
      <trkpt lat="46.11511" lon="1.91028">
        <ele>614</ele>
        <time>2016-12-23T06:23:09Z</time>
      </trkpt>
      <trkpt lat="46.11514" lon="1.91019">
        <ele>614</ele>
        <time>2016-12-23T06:25:09Z</time>
      </trkpt>
      <trkpt lat="46.11522" lon="1.9099">
        <ele>616</ele>
        <time>2016-12-23T06:27:09Z</time>
      </trkpt>
      <trkpt lat="46.11525" lon="1.90976">
        <ele>617</ele>
        <time>2016-12-23T06:29:09Z</time>
      </trkpt>
      <trkpt lat="46.11529" lon="1.90962">
        <ele>618</ele>
        <time>2016-12-23T06:31:09Z</time>
      </trkpt>
      <trkpt lat="46.11532" lon="1.90944">
        <ele>620</ele>
        <time>2016-12-23T06:33:09Z</time>
      </trkpt>
      <trkpt lat="46.11537" lon="1.90929">
        <ele>621</ele>
        <time>2016-12-23T06:35:09Z</time>
      </trkpt>
      <trkpt lat="46.11551" lon="1.90914">
        <ele>620</ele>
        <time>2016-12-23T06:37:09Z</time>
      </trkpt>
      <trkpt lat="46.11575" lon="1.90883">
        <ele>617</ele>
        <time>2016-12-23T06:39:09Z</time>
      </trkpt>
      <trkpt lat="46.11577" lon="1.90879">
        <ele>617</ele>
        <time>2016-12-23T06:41:09Z</time>
      </trkpt>
      <trkpt lat="46.11581" lon="1.90866">
        <ele>618</ele>
        <time>2016-12-23T06:43:09Z</time>
      </trkpt>
      <trkpt lat="46.11582" lon="1.9086">
        <ele>619</ele>
        <time>2016-12-23T06:45:09Z</time>
      </trkpt>
      <trkpt lat="46.11581" lon="1.90852">
        <ele>621</ele>
        <time>2016-12-23T06:47:09Z</time>
      </trkpt>
      <trkpt lat="46.11576" lon="1.90853">
        <ele>622</ele>
        <time>2016-12-23T06:49:09Z</time>
      </trkpt>
      <trkpt lat="46.11574" lon="1.90857">
        <ele>621</ele>
        <time>2016-12-23T06:51:09Z</time>
      </trkpt>
      <trkpt lat="46.11566" lon="1.90867">
        <ele>622</ele>
        <time>2016-12-23T06:53:09Z</time>
      </trkpt>
      <trkpt lat="46.11559" lon="1.90873">
        <ele>623</ele>
        <time>2016-12-23T06:55:09Z</time>
      </trkpt>
      <trkpt lat="46.11541" lon="1.90896">
        <ele>625</ele>
        <time>2016-12-23T06:57:09Z</time>
      </trkpt>
      <trkpt lat="46.11534" lon="1.90907">
        <ele>625</ele>
        <time>2016-12-23T06:59:09Z</time>
      </trkpt>
      <trkpt lat="46.1153" lon="1.90915">
        <ele>626</ele>
        <time>2016-12-23T07:01:09Z</time>
      </trkpt>
      <trkpt lat="46.11524" lon="1.90921">
        <ele>626</ele>
        <time>2016-12-23T07:03:09Z</time>
      </trkpt>
      <trkpt lat="46.11518" lon="1.90931">
        <ele>627</ele>
        <time>2016-12-23T07:05:09Z</time>
      </trkpt>
      <trkpt lat="46.11508" lon="1.90943">
        <ele>628</ele>
        <time>2016-12-23T07:07:09Z</time>
      </trkpt>
      <trkpt lat="46.11503" lon="1.90953">
        <ele>627</ele>
        <time>2016-12-23T07:09:09Z</time>
      </trkpt>
      <trkpt lat="46.11499" lon="1.90957">
        <ele>628</ele>
        <time>2016-12-23T07:11:09Z</time>
      </trkpt>
      <trkpt lat="46.1149" lon="1.90965">
        <ele>628</ele>
        <time>2016-12-23T07:13:09Z</time>
      </trkpt>
      <trkpt lat="46.11487" lon="1.9097">
        <ele>627</ele>
        <time>2016-12-23T07:15:09Z</time>
      </trkpt>
      <trkpt lat="46.11467" lon="1.90991">
        <ele>626</ele>
        <time>2016-12-23T07:17:09Z</time>
      </trkpt>
      <trkpt lat="46.11462" lon="1.90998">
        <ele>626</ele>
        <time>2016-12-23T07:19:09Z</time>
      </trkpt>
      <trkpt lat="46.1144" lon="1.91015">
        <ele>627</ele>
        <time>2016-12-23T07:21:09Z</time>
      </trkpt>
      <trkpt lat="46.11437" lon="1.91017">
        <ele>627</ele>
        <time>2016-12-23T07:23:09Z</time>
      </trkpt>
      <trkpt lat="46.11418" lon="1.91032">
        <ele>628</ele>
        <time>2016-12-23T07:25:09Z</time>
      </trkpt>
      <trkpt lat="46.11407" lon="1.91043">
        <ele>629</ele>
        <time>2016-12-23T07:27:09Z</time>
      </trkpt>
      <trkpt lat="46.11402" lon="1.91046">
        <ele>629</ele>
        <time>2016-12-23T07:29:09Z</time>
      </trkpt>
      <trkpt lat="46.11386" lon="1.9105">
        <ele>631</ele>
        <time>2016-12-23T07:31:09Z</time>
      </trkpt>
      <trkpt lat="46.11381" lon="1.91048">
        <ele>633</ele>
        <time>2016-12-23T07:33:09Z</time>
      </trkpt>
      <trkpt lat="46.11377" lon="1.91048">
        <ele>633</ele>
        <time>2016-12-23T07:35:09Z</time>
      </trkpt>
      <trkpt lat="46.11367" lon="1.9105">
        <ele>635</ele>
        <time>2016-12-23T07:37:09Z</time>
      </trkpt>
      <trkpt lat="46.11347" lon="1.91054">
        <ele>638</ele>
        <time>2016-12-23T07:39:09Z</time>
      </trkpt>
      <trkpt lat="46.11338" lon="1.91058">
        <ele>639</ele>
        <time>2016-12-23T07:41:09Z</time>
      </trkpt>
      <trkpt lat="46.11333" lon="1.9106">
        <ele>640</ele>
        <time>2016-12-23T07:43:09Z</time>
      </trkpt>
      <trkpt lat="46.11325" lon="1.91063">
        <ele>639</ele>
        <time>2016-12-23T07:45:09Z</time>
      </trkpt>
      <trkpt lat="46.11303" lon="1.91071">
        <ele>638</ele>
        <time>2016-12-23T07:47:09Z</time>
      </trkpt>
      <trkpt lat="46.11294" lon="1.91075">
        <ele>638</ele>
        <time>2016-12-23T07:49:09Z</time>
      </trkpt>
      <trkpt lat="46.11277" lon="1.91079">
        <ele>637</ele>
        <time>2016-12-23T07:51:09Z</time>
      </trkpt>
      <trkpt lat="46.11248" lon="1.91082">
        <ele>637</ele>
        <time>2016-12-23T07:53:09Z</time>
      </trkpt>
      <trkpt lat="46.11235" lon="1.91082">
        <ele>637</ele>
        <time>2016-12-23T07:55:09Z</time>
      </trkpt>
      <trkpt lat="46.1122" lon="1.91077">
        <ele>637</ele>
        <time>2016-12-23T07:57:09Z</time>
      </trkpt>
      <trkpt lat="46.11171" lon="1.91056">
        <ele>637</ele>
        <time>2016-12-23T07:59:09Z</time>
      </trkpt>
      <trkpt lat="46.1115" lon="1.91044">
        <ele>637</ele>
        <time>2016-12-23T08:01:09Z</time>
      </trkpt>
      <trkpt lat="46.1114" lon="1.91042">
        <ele>637</ele>
        <time>2016-12-23T08:03:09Z</time>
      </trkpt>
      <trkpt lat="46.11103" lon="1.91034">
        <ele>636</ele>
        <time>2016-12-23T08:05:09Z</time>
      </trkpt>
      <trkpt lat="46.11072" lon="1.91033">
        <ele>635</ele>
        <time>2016-12-23T08:07:09Z</time>
      </trkpt>
      <trkpt lat="46.11044" lon="1.91032">
        <ele>633</ele>
        <time>2016-12-23T08:09:09Z</time>
      </trkpt>
      <trkpt lat="46.11014" lon="1.91023">
        <ele>633</ele>
        <time>2016-12-23T08:11:09Z</time>
      </trkpt>
      <trkpt lat="46.11009" lon="1.91022">
        <ele>633</ele>
        <time>2016-12-23T08:13:09Z</time>
      </trkpt>
      <trkpt lat="46.10972" lon="1.91014">
        <ele>633</ele>
        <time>2016-12-23T08:15:09Z</time>
      </trkpt>
      <trkpt lat="46.10948" lon="1.91013">
        <ele>633</ele>
        <time>2016-12-23T08:17:09Z</time>
      </trkpt>
      <trkpt lat="46.10939" lon="1.91014">
        <ele>633</ele>
        <time>2016-12-23T08:19:09Z</time>
      </trkpt>
      <trkpt lat="46.10906" lon="1.91011">
        <ele>633</ele>
        <time>2016-12-23T08:21:09Z</time>
      </trkpt>
      <trkpt lat="46.10884" lon="1.90998">
        <ele>635</ele>
        <time>2016-12-23T08:23:09Z</time>
      </trkpt>
      <trkpt lat="46.10872" lon="1.90984">
        <ele>636</ele>
        <time>2016-12-23T08:25:09Z</time>
      </trkpt>
      <trkpt lat="46.10872" lon="1.90982">
        <ele>636</ele>
        <time>2016-12-23T08:27:09Z</time>
      </trkpt>
      <trkpt lat="46.10876" lon="1.9098">
        <ele>636</ele>
        <time>2016-12-23T08:29:09Z</time>
      </trkpt>
      <trkpt lat="46.10885" lon="1.90978">
        <ele>636</ele>
        <time>2016-12-23T08:31:09Z</time>
      </trkpt>
      <trkpt lat="46.10897" lon="1.90975">
        <ele>637</ele>
        <time>2016-12-23T08:33:09Z</time>
      </trkpt>
      <trkpt lat="46.10909" lon="1.90972">
        <ele>637</ele>
        <time>2016-12-23T08:35:09Z</time>
      </trkpt>
      <trkpt lat="46.10921" lon="1.90965">
        <ele>637</ele>
        <time>2016-12-23T08:37:09Z</time>
      </trkpt>
      <trkpt lat="46.10928" lon="1.90961">
        <ele>638</ele>
        <time>2016-12-23T08:39:09Z</time>
      </trkpt>
      <trkpt lat="46.1094" lon="1.90944">
        <ele>639</ele>
        <time>2016-12-23T08:41:09Z</time>
      </trkpt>
      <trkpt lat="46.10948" lon="1.90923">
        <ele>641</ele>
        <time>2016-12-23T08:43:09Z</time>
      </trkpt>
      <trkpt lat="46.10951" lon="1.90914">
        <ele>641</ele>
        <time>2016-12-23T08:45:09Z</time>
      </trkpt>
      <trkpt lat="46.10958" lon="1.90903">
        <ele>642</ele>
        <time>2016-12-23T08:47:09Z</time>
      </trkpt>
      <trkpt lat="46.10961" lon="1.90901">
        <ele>642</ele>
        <time>2016-12-23T08:49:09Z</time>
      </trkpt>
      <trkpt lat="46.10972" lon="1.90895">
        <ele>643</ele>
        <time>2016-12-23T08:51:09Z</time>
      </trkpt>
      <trkpt lat="46.10976" lon="1.90894">
        <ele>643</ele>
        <time>2016-12-23T08:53:09Z</time>
      </trkpt>
      <trkpt lat="46.10976" lon="1.90895">
        <ele>643</ele>
        <time>2016-12-23T08:55:09Z</time>
      </trkpt>
      <trkpt lat="46.10971" lon="1.90897">
        <ele>643</ele>
        <time>2016-12-23T08:57:09Z</time>
      </trkpt>
      <trkpt lat="46.10969" lon="1.90897">
        <ele>643</ele>
        <time>2016-12-23T08:59:09Z</time>
      </trkpt>
      <trkpt lat="46.10957" lon="1.9089">
        <ele>642</ele>
        <time>2016-12-23T09:01:09Z</time>
      </trkpt>
      <trkpt lat="46.10957" lon="1.90883">
        <ele>642</ele>
        <time>2016-12-23T09:03:09Z</time>
      </trkpt>
      <trkpt lat="46.10962" lon="1.90856">
        <ele>643</ele>
        <time>2016-12-23T09:05:09Z</time>
      </trkpt>
      <trkpt lat="46.10966" lon="1.9084">
        <ele>644</ele>
        <time>2016-12-23T09:07:09Z</time>
      </trkpt>
      <trkpt lat="46.10971" lon="1.90812">
        <ele>643</ele>
        <time>2016-12-23T09:09:09Z</time>
      </trkpt>
      <trkpt lat="46.10977" lon="1.90791">
        <ele>642</ele>
        <time>2016-12-23T09:11:09Z</time>
      </trkpt>
      <trkpt lat="46.10982" lon="1.90782">
        <ele>641</ele>
        <time>2016-12-23T09:13:09Z</time>
      </trkpt>
      <trkpt lat="46.10992" lon="1.90763">
        <ele>640</ele>
        <time>2016-12-23T09:15:09Z</time>
      </trkpt>
      <trkpt lat="46.10999" lon="1.90754">
        <ele>640</ele>
        <time>2016-12-23T09:17:09Z</time>
      </trkpt>
      <trkpt lat="46.11005" lon="1.90746">
        <ele>640</ele>
        <time>2016-12-23T09:19:09Z</time>
      </trkpt>
      <trkpt lat="46.1103" lon="1.90711">
        <ele>638</ele>
        <time>2016-12-23T09:21:09Z</time>
      </trkpt>
      <trkpt lat="46.11044" lon="1.90695">
        <ele>638</ele>
        <time>2016-12-23T09:23:09Z</time>
      </trkpt>
      <trkpt lat="46.11058" lon="1.90679">
        <ele>637</ele>
        <time>2016-12-23T09:25:09Z</time>
      </trkpt>
      <trkpt lat="46.11066" lon="1.90673">
        <ele>637</ele>
        <time>2016-12-23T09:27:09Z</time>
      </trkpt>
      <trkpt lat="46.11091" lon="1.90658">
        <ele>637</ele>
        <time>2016-12-23T09:29:09Z</time>
      </trkpt>
      <trkpt lat="46.11107" lon="1.9065">
        <ele>637</ele>
        <time>2016-12-23T09:31:09Z</time>
      </trkpt>
      <trkpt lat="46.11114" lon="1.90645">
        <ele>637</ele>
        <time>2016-12-23T09:33:09Z</time>
      </trkpt>
      <trkpt lat="46.11137" lon="1.90633">
        <ele>637</ele>
        <time>2016-12-23T09:35:09Z</time>
      </trkpt>
      <trkpt lat="46.11188" lon="1.90609">
        <ele>638</ele>
        <time>2016-12-23T09:37:09Z</time>
      </trkpt>
      <trkpt lat="46.11246" lon="1.9058">
        <ele>638</ele>
        <time>2016-12-23T09:39:09Z</time>
      </trkpt>
      <trkpt lat="46.11254" lon="1.90575">
        <ele>638</ele>
        <time>2016-12-23T09:41:09Z</time>
      </trkpt>
      <trkpt lat="46.11297" lon="1.90556">
        <ele>638</ele>
        <time>2016-12-23T09:43:09Z</time>
      </trkpt>
      <trkpt lat="46.1136" lon="1.90537">
        <ele>639</ele>
        <time>2016-12-23T09:45:09Z</time>
      </trkpt>
      <trkpt lat="46.11369" lon="1.90533">
        <ele>639</ele>
        <time>2016-12-23T09:47:09Z</time>
      </trkpt>
      <trkpt lat="46.1143" lon="1.90516">
        <ele>640</ele>
        <time>2016-12-23T09:49:09Z</time>
      </trkpt>
      <trkpt lat="46.11435" lon="1.90515">
        <ele>640</ele>
        <time>2016-12-23T09:51:09Z</time>
      </trkpt>
      <trkpt lat="46.11452" lon="1.9051">
        <ele>641</ele>
        <time>2016-12-23T09:53:09Z</time>
      </trkpt>
      <trkpt lat="46.11457" lon="1.90509">
        <ele>641</ele>
        <time>2016-12-23T09:55:09Z</time>
      </trkpt>
      <trkpt lat="46.11477" lon="1.90502">
        <ele>642</ele>
        <time>2016-12-23T09:57:09Z</time>
      </trkpt>
      <trkpt lat="46.11506" lon="1.90495">
        <ele>643</ele>
        <time>2016-12-23T09:59:09Z</time>
      </trkpt>
      <trkpt lat="46.11513" lon="1.90493">
        <ele>643</ele>
        <time>2016-12-23T10:01:09Z</time>
      </trkpt>
      <trkpt lat="46.11533" lon="1.90479">
        <ele>645</ele>
        <time>2016-12-23T10:03:09Z</time>
      </trkpt>
      <trkpt lat="46.11539" lon="1.90473">
        <ele>645</ele>
        <time>2016-12-23T10:05:09Z</time>
      </trkpt>
      <trkpt lat="46.11547" lon="1.90463">
        <ele>646</ele>
        <time>2016-12-23T10:07:09Z</time>
      </trkpt>
      <trkpt lat="46.11552" lon="1.90453">
        <ele>646</ele>
        <time>2016-12-23T10:09:09Z</time>
      </trkpt>
      <trkpt lat="46.11556" lon="1.90442">
        <ele>646</ele>
        <time>2016-12-23T10:11:09Z</time>
      </trkpt>
      <trkpt lat="46.1156" lon="1.90425">
        <ele>647</ele>
        <time>2016-12-23T10:13:09Z</time>
      </trkpt>
      <trkpt lat="46.11562" lon="1.90419">
        <ele>647</ele>
        <time>2016-12-23T10:15:09Z</time>
      </trkpt>
      <trkpt lat="46.11566" lon="1.90401">
        <ele>649</ele>
        <time>2016-12-23T10:17:09Z</time>
      </trkpt>
      <trkpt lat="46.11572" lon="1.90378">
        <ele>652</ele>
        <time>2016-12-23T10:19:09Z</time>
      </trkpt>
      <trkpt lat="46.11573" lon="1.90373">
        <ele>652</ele>
        <time>2016-12-23T10:21:09Z</time>
      </trkpt>
      <trkpt lat="46.1158" lon="1.90347">
        <ele>656</ele>
        <time>2016-12-23T10:23:09Z</time>
      </trkpt>
      <trkpt lat="46.11583" lon="1.90333">
        <ele>657</ele>
        <time>2016-12-23T10:25:09Z</time>
      </trkpt>
      <trkpt lat="46.11585" lon="1.90326">
        <ele>657</ele>
        <time>2016-12-23T10:27:09Z</time>
      </trkpt>
      <trkpt lat="46.11591" lon="1.90304">
        <ele>659</ele>
        <time>2016-12-23T10:29:09Z</time>
      </trkpt>
      <trkpt lat="46.1161" lon="1.90221">
        <ele>661</ele>
        <time>2016-12-23T10:31:09Z</time>
      </trkpt>
      <trkpt lat="46.11615" lon="1.90204">
        <ele>660</ele>
        <time>2016-12-23T10:33:09Z</time>
      </trkpt>
      <trkpt lat="46.11619" lon="1.90188">
        <ele>660</ele>
        <time>2016-12-23T10:35:09Z</time>
      </trkpt>
      <trkpt lat="46.11624" lon="1.90179">
        <ele>660</ele>
        <time>2016-12-23T10:37:09Z</time>
      </trkpt>
      <trkpt lat="46.11626" lon="1.90179">
        <ele>660</ele>
        <time>2016-12-23T10:39:09Z</time>
      </trkpt>
      <trkpt lat="46.11637" lon="1.90187">
        <ele>661</ele>
        <time>2016-12-23T10:41:09Z</time>
      </trkpt>
      <trkpt lat="46.11639" lon="1.9019">
        <ele>662</ele>
        <time>2016-12-23T10:43:09Z</time>
      </trkpt>
      <trkpt lat="46.11654" lon="1.90198">
        <ele>663</ele>
        <time>2016-12-23T10:45:09Z</time>
      </trkpt>
      <trkpt lat="46.11656" lon="1.90197">
        <ele>663</ele>
        <time>2016-12-23T10:47:09Z</time>
      </trkpt>
      <trkpt lat="46.11667" lon="1.90195">
        <ele>664</ele>
        <time>2016-12-23T10:49:09Z</time>
      </trkpt>
      <trkpt lat="46.11676" lon="1.90181">
        <ele>664</ele>
        <time>2016-12-23T10:51:09Z</time>
      </trkpt>
      <trkpt lat="46.11682" lon="1.90171">
        <ele>664</ele>
        <time>2016-12-23T10:53:09Z</time>
      </trkpt>
      <trkpt lat="46.11685" lon="1.90165">
        <ele>664</ele>
        <time>2016-12-23T10:55:09Z</time>
      </trkpt>
      <trkpt lat="46.11698" lon="1.90141">
        <ele>664</ele>
        <time>2016-12-23T10:57:09Z</time>
      </trkpt>
      <trkpt lat="46.11711" lon="1.90121">
        <ele>665</ele>
        <time>2016-12-23T10:59:09Z</time>
      </trkpt>
      <trkpt lat="46.11718" lon="1.90102">
        <ele>665</ele>
        <time>2016-12-23T11:01:09Z</time>
      </trkpt>
      <trkpt lat="46.11728" lon="1.90093">
        <ele>665</ele>
        <time>2016-12-23T11:03:09Z</time>
      </trkpt>
      <trkpt lat="46.11731" lon="1.90092">
        <ele>665</ele>
        <time>2016-12-23T11:05:09Z</time>
      </trkpt>
      <trkpt lat="46.11741" lon="1.9009">
        <ele>666</ele>
        <time>2016-12-23T11:07:09Z</time>
      </trkpt>
      <trkpt lat="46.11751" lon="1.9009">
        <ele>666</ele>
        <time>2016-12-23T11:09:09Z</time>
      </trkpt>
      <trkpt lat="46.11764" lon="1.90082">
        <ele>666</ele>
        <time>2016-12-23T11:11:09Z</time>
      </trkpt>
      <trkpt lat="46.1177" lon="1.90065">
        <ele>666</ele>
        <time>2016-12-23T11:13:09Z</time>
      </trkpt>
      <trkpt lat="46.11774" lon="1.90043">
        <ele>666</ele>
        <time>2016-12-23T11:15:09Z</time>
      </trkpt>
      <trkpt lat="46.11775" lon="1.90029">
        <ele>666</ele>
        <time>2016-12-23T11:17:09Z</time>
      </trkpt>
      <trkpt lat="46.11784" lon="1.89997">
        <ele>666</ele>
        <time>2016-12-23T11:19:09Z</time>
      </trkpt>
      <trkpt lat="46.11795" lon="1.89984">
        <ele>666</ele>
        <time>2016-12-23T11:21:09Z</time>
      </trkpt>
      <trkpt lat="46.11813" lon="1.89967">
        <ele>666</ele>
        <time>2016-12-23T11:23:09Z</time>
      </trkpt>
      <trkpt lat="46.11832" lon="1.89952">
        <ele>667</ele>
        <time>2016-12-23T11:25:09Z</time>
      </trkpt>
      <trkpt lat="46.11841" lon="1.89944">
        <ele>667</ele>
        <time>2016-12-23T11:27:09Z</time>
      </trkpt>
      <trkpt lat="46.11852" lon="1.89936">
        <ele>666</ele>
        <time>2016-12-23T11:29:09Z</time>
      </trkpt>
      <trkpt lat="46.11858" lon="1.89931">
        <ele>666</ele>
        <time>2016-12-23T11:31:09Z</time>
      </trkpt>
      <trkpt lat="46.11869" lon="1.89923">
        <ele>665</ele>
        <time>2016-12-23T11:33:09Z</time>
      </trkpt>
      <trkpt lat="46.11882" lon="1.89911">
        <ele>665</ele>
        <time>2016-12-23T11:35:09Z</time>
      </trkpt>
      <trkpt lat="46.11884" lon="1.89903">
        <ele>664</ele>
        <time>2016-12-23T11:37:09Z</time>
      </trkpt>
      <trkpt lat="46.11877" lon="1.89887">
        <ele>664</ele>
        <time>2016-12-23T11:39:09Z</time>
      </trkpt>
      <trkpt lat="46.11861" lon="1.89866">
        <ele>663</ele>
        <time>2016-12-23T11:41:09Z</time>
      </trkpt>
      <trkpt lat="46.11846" lon="1.89848">
        <ele>662</ele>
        <time>2016-12-23T11:43:09Z</time>
      </trkpt>
      <trkpt lat="46.11828" lon="1.89832">
        <ele>661</ele>
        <time>2016-12-23T11:45:09Z</time>
      </trkpt>
      <trkpt lat="46.11823" lon="1.89821">
        <ele>660</ele>
        <time>2016-12-23T11:47:09Z</time>
      </trkpt>
      <trkpt lat="46.11823" lon="1.89818">
        <ele>660</ele>
        <time>2016-12-23T11:49:09Z</time>
      </trkpt>
      <trkpt lat="46.11832" lon="1.89816">
        <ele>661</ele>
        <time>2016-12-23T11:51:09Z</time>
      </trkpt>
      <trkpt lat="46.11839" lon="1.89818">
        <ele>661</ele>
        <time>2016-12-23T11:53:09Z</time>
      </trkpt>
      <trkpt lat="46.11845" lon="1.89815">
        <ele>661</ele>
        <time>2016-12-23T11:55:09Z</time>
      </trkpt>
      <trkpt lat="46.11847" lon="1.89814">
        <ele>661</ele>
        <time>2016-12-23T11:57:09Z</time>
      </trkpt>
      <trkpt lat="46.11848" lon="1.89812">
        <ele>661</ele>
        <time>2016-12-23T11:59:09Z</time>
      </trkpt>
      <trkpt lat="46.11852" lon="1.89802">
        <ele>661</ele>
        <time>2016-12-23T12:01:09Z</time>
      </trkpt>
      <trkpt lat="46.11855" lon="1.89786">
        <ele>661</ele>
        <time>2016-12-23T12:03:09Z</time>
      </trkpt>
      <trkpt lat="46.11867" lon="1.89766">
        <ele>662</ele>
        <time>2016-12-23T12:05:09Z</time>
      </trkpt>
      <trkpt lat="46.11876" lon="1.89747">
        <ele>662</ele>
        <time>2016-12-23T12:07:09Z</time>
      </trkpt>
      <trkpt lat="46.11886" lon="1.89719">
        <ele>662</ele>
        <time>2016-12-23T12:09:09Z</time>
      </trkpt>
      <trkpt lat="46.11893" lon="1.89682">
        <ele>663</ele>
        <time>2016-12-23T12:11:09Z</time>
      </trkpt>
      <trkpt lat="46.11897" lon="1.89664">
        <ele>663</ele>
        <time>2016-12-23T12:13:09Z</time>
      </trkpt>
      <trkpt lat="46.11895" lon="1.89661">
        <ele>662</ele>
        <time>2016-12-23T12:15:09Z</time>
      </trkpt>
      <trkpt lat="46.11887" lon="1.89649">
        <ele>662</ele>
        <time>2016-12-23T12:17:09Z</time>
      </trkpt>
      <trkpt lat="46.11879" lon="1.89639">
        <ele>661</ele>
        <time>2016-12-23T12:19:09Z</time>
      </trkpt>
      <trkpt lat="46.11862" lon="1.8962">
        <ele>660</ele>
        <time>2016-12-23T12:21:09Z</time>
      </trkpt>
      <trkpt lat="46.11859" lon="1.89612">
        <ele>660</ele>
        <time>2016-12-23T12:23:09Z</time>
      </trkpt>
      <trkpt lat="46.11858" lon="1.89607">
        <ele>659</ele>
        <time>2016-12-23T12:25:09Z</time>
      </trkpt>
      <trkpt lat="46.11859" lon="1.89604">
        <ele>659</ele>
        <time>2016-12-23T12:27:09Z</time>
      </trkpt>
      <trkpt lat="46.11864" lon="1.89588">
        <ele>659</ele>
        <time>2016-12-23T12:29:09Z</time>
      </trkpt>
      <trkpt lat="46.11874" lon="1.89564">
        <ele>656</ele>
        <time>2016-12-23T12:31:09Z</time>
      </trkpt>
      <trkpt lat="46.11877" lon="1.89555">
        <ele>655</ele>
        <time>2016-12-23T12:33:09Z</time>
      </trkpt>
      <trkpt lat="46.11887" lon="1.89527">
        <ele>652</ele>
        <time>2016-12-23T12:35:09Z</time>
      </trkpt>
      <trkpt lat="46.11894" lon="1.89508">
        <ele>650</ele>
        <time>2016-12-23T12:37:09Z</time>
      </trkpt>
      <trkpt lat="46.11906" lon="1.89487">
        <ele>647</ele>
        <time>2016-12-23T12:39:09Z</time>
      </trkpt>
      <trkpt lat="46.11913" lon="1.89478">
        <ele>646</ele>
        <time>2016-12-23T12:41:09Z</time>
      </trkpt>
      <trkpt lat="46.1192" lon="1.8947">
        <ele>644</ele>
        <time>2016-12-23T12:43:09Z</time>
      </trkpt>
      <trkpt lat="46.1194" lon="1.89457">
        <ele>643</ele>
        <time>2016-12-23T12:45:09Z</time>
      </trkpt>
      <trkpt lat="46.11979" lon="1.89446">
        <ele>642</ele>
        <time>2016-12-23T12:47:09Z</time>
      </trkpt>
      <trkpt lat="46.12014" lon="1.89433">
        <ele>643</ele>
        <time>2016-12-23T12:49:09Z</time>
      </trkpt>
      <trkpt lat="46.12037" lon="1.89426">
        <ele>646</ele>
        <time>2016-12-23T12:51:09Z</time>
      </trkpt>
      <trkpt lat="46.12043" lon="1.89427">
        <ele>647</ele>
        <time>2016-12-23T12:53:09Z</time>
      </trkpt>
      <trkpt lat="46.12053" lon="1.89426">
        <ele>649</ele>
        <time>2016-12-23T12:55:09Z</time>
      </trkpt>
      <trkpt lat="46.12069" lon="1.89429">
        <ele>652</ele>
        <time>2016-12-23T12:57:09Z</time>
      </trkpt>
      <trkpt lat="46.12076" lon="1.89432">
        <ele>653</ele>
        <time>2016-12-23T12:59:09Z</time>
      </trkpt>
      <trkpt lat="46.12078" lon="1.89431">
        <ele>653</ele>
        <time>2016-12-23T13:01:09Z</time>
      </trkpt>
      <trkpt lat="46.12079" lon="1.89429">
        <ele>653</ele>
        <time>2016-12-23T13:03:09Z</time>
      </trkpt>
      <trkpt lat="46.12083" lon="1.89411">
        <ele>654</ele>
        <time>2016-12-23T13:05:09Z</time>
      </trkpt>
      <trkpt lat="46.12084" lon="1.89398">
        <ele>654</ele>
        <time>2016-12-23T13:07:09Z</time>
      </trkpt>
      <trkpt lat="46.12086" lon="1.89386">
        <ele>653</ele>
        <time>2016-12-23T13:09:09Z</time>
      </trkpt>
      <trkpt lat="46.12089" lon="1.89371">
        <ele>653</ele>
        <time>2016-12-23T13:11:09Z</time>
      </trkpt>
      <trkpt lat="46.12092" lon="1.89362">
        <ele>654</ele>
        <time>2016-12-23T13:13:09Z</time>
      </trkpt>
      <trkpt lat="46.12094" lon="1.89338">
        <ele>653</ele>
        <time>2016-12-23T13:15:09Z</time>
      </trkpt>
      <trkpt lat="46.12094" lon="1.89334">
        <ele>653</ele>
        <time>2016-12-23T13:17:09Z</time>
      </trkpt>
      <trkpt lat="46.12094" lon="1.89324">
        <ele>653</ele>
        <time>2016-12-23T13:19:09Z</time>
      </trkpt>
      <trkpt lat="46.12101" lon="1.89303">
        <ele>653</ele>
        <time>2016-12-23T13:21:09Z</time>
      </trkpt>
      <trkpt lat="46.12101" lon="1.89299">
        <ele>653</ele>
        <time>2016-12-23T13:23:09Z</time>
      </trkpt>
      <trkpt lat="46.12102" lon="1.89287">
        <ele>652</ele>
        <time>2016-12-23T13:25:09Z</time>
      </trkpt>
      <trkpt lat="46.12102" lon="1.89278">
        <ele>652</ele>
        <time>2016-12-23T13:27:09Z</time>
      </trkpt>
      <trkpt lat="46.12103" lon="1.89273">
        <ele>652</ele>
        <time>2016-12-23T13:29:09Z</time>
      </trkpt>
      <trkpt lat="46.12108" lon="1.89263">
        <ele>653</ele>
        <time>2016-12-23T13:31:09Z</time>
      </trkpt>
      <trkpt lat="46.12112" lon="1.89254">
        <ele>653</ele>
        <time>2016-12-23T13:33:09Z</time>
      </trkpt>
      <trkpt lat="46.12115" lon="1.89249">
        <ele>653</ele>
        <time>2016-12-23T13:35:09Z</time>
      </trkpt>
      <trkpt lat="46.12119" lon="1.89244">
        <ele>654</ele>
        <time>2016-12-23T13:37:09Z</time>
      </trkpt>
      <trkpt lat="46.12132" lon="1.89221">
        <ele>655</ele>
        <time>2016-12-23T13:39:09Z</time>
      </trkpt>
      <trkpt lat="46.12149" lon="1.89212">
        <ele>657</ele>
        <time>2016-12-23T13:41:09Z</time>
      </trkpt>
      <trkpt lat="46.12156" lon="1.89205">
        <ele>658</ele>
        <time>2016-12-23T13:43:09Z</time>
      </trkpt>
      <trkpt lat="46.12163" lon="1.89193">
        <ele>659</ele>
        <time>2016-12-23T13:45:09Z</time>
      </trkpt>
      <trkpt lat="46.12175" lon="1.89171">
        <ele>659</ele>
        <time>2016-12-23T13:47:09Z</time>
      </trkpt>
      <trkpt lat="46.12186" lon="1.89164">
        <ele>658</ele>
        <time>2016-12-23T13:49:09Z</time>
      </trkpt>
      <trkpt lat="46.12189" lon="1.89163">
        <ele>659</ele>
        <time>2016-12-23T13:51:09Z</time>
      </trkpt>
      <trkpt lat="46.12202" lon="1.89149">
        <ele>658</ele>
        <time>2016-12-23T13:53:09Z</time>
      </trkpt>
      <trkpt lat="46.12213" lon="1.89148">
        <ele>658</ele>
        <time>2016-12-23T13:55:09Z</time>
      </trkpt>
      <trkpt lat="46.12224" lon="1.89163">
        <ele>660</ele>
        <time>2016-12-23T13:57:09Z</time>
      </trkpt>
      <trkpt lat="46.12235" lon="1.89169">
        <ele>661</ele>
        <time>2016-12-23T13:59:09Z</time>
      </trkpt>
      <trkpt lat="46.12237" lon="1.89166">
        <ele>660</ele>
        <time>2016-12-23T14:01:09Z</time>
      </trkpt>
      <trkpt lat="46.12252" lon="1.8916">
        <ele>661</ele>
        <time>2016-12-23T14:03:09Z</time>
      </trkpt>
      <trkpt lat="46.1227" lon="1.89144">
        <ele>661</ele>
        <time>2016-12-23T14:05:09Z</time>
      </trkpt>
      <trkpt lat="46.12278" lon="1.89148">
        <ele>662</ele>
        <time>2016-12-23T14:07:09Z</time>
      </trkpt>
      <trkpt lat="46.1228" lon="1.89151">
        <ele>662</ele>
        <time>2016-12-23T14:09:09Z</time>
      </trkpt>
      <trkpt lat="46.12284" lon="1.89156">
        <ele>663</ele>
        <time>2016-12-23T14:11:09Z</time>
      </trkpt>
      <trkpt lat="46.1229" lon="1.89159">
        <ele>663</ele>
        <time>2016-12-23T14:13:09Z</time>
      </trkpt>
      <trkpt lat="46.12297" lon="1.89168">
        <ele>664</ele>
        <time>2016-12-23T14:15:09Z</time>
      </trkpt>
      <trkpt lat="46.12299" lon="1.89178">
        <ele>664</ele>
        <time>2016-12-23T14:17:09Z</time>
      </trkpt>
      <trkpt lat="46.12299" lon="1.8918">
        <ele>664</ele>
        <time>2016-12-23T14:19:09Z</time>
      </trkpt>
      <trkpt lat="46.12301" lon="1.89188">
        <ele>664</ele>
        <time>2016-12-23T14:21:09Z</time>
      </trkpt>
      <trkpt lat="46.12302" lon="1.8919">
        <ele>664</ele>
        <time>2016-12-23T14:23:09Z</time>
      </trkpt>
      <trkpt lat="46.12304" lon="1.89198">
        <ele>664</ele>
        <time>2016-12-23T14:25:09Z</time>
      </trkpt>
      <trkpt lat="46.12303" lon="1.89203">
        <ele>664</ele>
        <time>2016-12-23T14:27:09Z</time>
      </trkpt>
      <trkpt lat="46.12301" lon="1.89208">
        <ele>664</ele>
        <time>2016-12-23T14:29:09Z</time>
      </trkpt>
      <trkpt lat="46.123" lon="1.89218">
        <ele>664</ele>
        <time>2016-12-23T14:31:09Z</time>
      </trkpt>
      <trkpt lat="46.12302" lon="1.89229">
        <ele>664</ele>
        <time>2016-12-23T14:33:09Z</time>
      </trkpt>
      <trkpt lat="46.12305" lon="1.89236">
        <ele>664</ele>
        <time>2016-12-23T14:35:09Z</time>
      </trkpt>
      <trkpt lat="46.12308" lon="1.89238">
        <ele>664</ele>
        <time>2016-12-23T14:37:09Z</time>
      </trkpt>
      <trkpt lat="46.12321" lon="1.89237">
        <ele>664</ele>
        <time>2016-12-23T14:39:09Z</time>
      </trkpt>
      <trkpt lat="46.12327" lon="1.89229">
        <ele>664</ele>
        <time>2016-12-23T14:41:09Z</time>
      </trkpt>
      <trkpt lat="46.12336" lon="1.89226">
        <ele>664</ele>
        <time>2016-12-23T14:43:09Z</time>
      </trkpt>
      <trkpt lat="46.12337" lon="1.89227">
        <ele>664</ele>
        <time>2016-12-23T14:45:09Z</time>
      </trkpt>
      <trkpt lat="46.12339" lon="1.89229">
        <ele>664</ele>
        <time>2016-12-23T14:47:09Z</time>
      </trkpt>
      <trkpt lat="46.12346" lon="1.89254">
        <ele>662</ele>
        <time>2016-12-23T14:49:09Z</time>
      </trkpt>
      <trkpt lat="46.12347" lon="1.89258">
        <ele>662</ele>
        <time>2016-12-23T14:51:09Z</time>
      </trkpt>
      <trkpt lat="46.12345" lon="1.89274">
        <ele>660</ele>
        <time>2016-12-23T14:53:09Z</time>
      </trkpt>
      <trkpt lat="46.12343" lon="1.89289">
        <ele>658</ele>
        <time>2016-12-23T14:55:09Z</time>
      </trkpt>
      <trkpt lat="46.12345" lon="1.89302">
        <ele>656</ele>
        <time>2016-12-23T14:57:09Z</time>
      </trkpt>
      <trkpt lat="46.1235" lon="1.89314">
        <ele>654</ele>
        <time>2016-12-23T14:59:09Z</time>
      </trkpt>
      <trkpt lat="46.12358" lon="1.89322">
        <ele>653</ele>
        <time>2016-12-23T15:01:09Z</time>
      </trkpt>
      <trkpt lat="46.12366" lon="1.89327">
        <ele>651</ele>
        <time>2016-12-23T15:03:09Z</time>
      </trkpt>
      <trkpt lat="46.12371" lon="1.8933">
        <ele>651</ele>
        <time>2016-12-23T15:05:09Z</time>
      </trkpt>
      <trkpt lat="46.12374" lon="1.89333">
        <ele>650</ele>
        <time>2016-12-23T15:07:09Z</time>
      </trkpt>
      <trkpt lat="46.12378" lon="1.89338">
        <ele>649</ele>
        <time>2016-12-23T15:09:09Z</time>
      </trkpt>
      <trkpt lat="46.12384" lon="1.89347">
        <ele>648</ele>
        <time>2016-12-23T15:11:09Z</time>
      </trkpt>
      <trkpt lat="46.12388" lon="1.89362">
        <ele>646</ele>
        <time>2016-12-23T15:13:09Z</time>
      </trkpt>
      <trkpt lat="46.1239" lon="1.89366">
        <ele>645</ele>
        <time>2016-12-23T15:15:09Z</time>
      </trkpt>
      <trkpt lat="46.12392" lon="1.89368">
        <ele>645</ele>
        <time>2016-12-23T15:17:09Z</time>
      </trkpt>
      <trkpt lat="46.12397" lon="1.89378">
        <ele>643</ele>
        <time>2016-12-23T15:19:09Z</time>
      </trkpt>
      <trkpt lat="46.12463" lon="1.89383">
        <ele>633</ele>
        <time>2016-12-23T15:21:09Z</time>
      </trkpt>
      <trkpt lat="46.12535" lon="1.89337">
        <ele>628</ele>
        <time>2016-12-23T15:23:09Z</time>
      </trkpt>
      <trkpt lat="46.12616" lon="1.89304">
        <ele>632</ele>
        <time>2016-12-23T15:25:09Z</time>
      </trkpt>
      <trkpt lat="46.12665" lon="1.89252">
        <ele>645</ele>
        <time>2016-12-23T15:27:09Z</time>
      </trkpt>
      <trkpt lat="46.12714" lon="1.89213">
        <ele>654</ele>
        <time>2016-12-23T15:29:09Z</time>
      </trkpt>
      <trkpt lat="46.12754" lon="1.89174">
        <ele>659</ele>
        <time>2016-12-23T15:31:09Z</time>
      </trkpt>
      <trkpt lat="46.12795" lon="1.89098">
        <ele>658</ele>
        <time>2016-12-23T15:33:09Z</time>
      </trkpt>
      <trkpt lat="46.12804" lon="1.89099">
        <ele>658</ele>
        <time>2016-12-23T15:35:09Z</time>
      </trkpt>
      <trkpt lat="46.12814" lon="1.89098">
        <ele>658</ele>
        <time>2016-12-23T15:37:09Z</time>
      </trkpt>
      <trkpt lat="46.12819" lon="1.89098">
        <ele>658</ele>
        <time>2016-12-23T15:39:09Z</time>
      </trkpt>
      <trkpt lat="46.12826" lon="1.89095">
        <ele>658</ele>
        <time>2016-12-23T15:41:09Z</time>
      </trkpt>
      <trkpt lat="46.12839" lon="1.89093">
        <ele>657</ele>
        <time>2016-12-23T15:43:09Z</time>
      </trkpt>
      <trkpt lat="46.12857" lon="1.89086">
        <ele>655</ele>
        <time>2016-12-23T15:45:09Z</time>
      </trkpt>
      <trkpt lat="46.12863" lon="1.89083">
        <ele>654</ele>
        <time>2016-12-23T15:47:09Z</time>
      </trkpt>
      <trkpt lat="46.12869" lon="1.89079">
        <ele>653</ele>
        <time>2016-12-23T15:49:09Z</time>
      </trkpt>
      <trkpt lat="46.12875" lon="1.89074">
        <ele>652</ele>
        <time>2016-12-23T15:51:09Z</time>
      </trkpt>
      <trkpt lat="46.12881" lon="1.89071">
        <ele>651</ele>
        <time>2016-12-23T15:53:09Z</time>
      </trkpt>
      <trkpt lat="46.12887" lon="1.89065">
        <ele>650</ele>
        <time>2016-12-23T15:55:09Z</time>
      </trkpt>
      <trkpt lat="46.12901" lon="1.89056">
        <ele>648</ele>
        <time>2016-12-23T15:57:09Z</time>
      </trkpt>
      <trkpt lat="46.12909" lon="1.89053">
        <ele>648</ele>
        <time>2016-12-23T15:59:09Z</time>
      </trkpt>
      <trkpt lat="46.12917" lon="1.89049">
        <ele>647</ele>
        <time>2016-12-23T16:01:09Z</time>
      </trkpt>
      <trkpt lat="46.12922" lon="1.89047">
        <ele>646</ele>
        <time>2016-12-23T16:03:09Z</time>
      </trkpt>
      <trkpt lat="46.1293" lon="1.89045">
        <ele>646</ele>
        <time>2016-12-23T16:05:09Z</time>
      </trkpt>
      <trkpt lat="46.12939" lon="1.89041">
        <ele>645</ele>
        <time>2016-12-23T16:07:09Z</time>
      </trkpt>
      <trkpt lat="46.12952" lon="1.8903">
        <ele>645</ele>
        <time>2016-12-23T16:09:09Z</time>
      </trkpt>
      <trkpt lat="46.12956" lon="1.89028">
        <ele>644</ele>
        <time>2016-12-23T16:11:09Z</time>
      </trkpt>
      <trkpt lat="46.12961" lon="1.89029">
        <ele>644</ele>
        <time>2016-12-23T16:13:09Z</time>
      </trkpt>
      <trkpt lat="46.12964" lon="1.8903">
        <ele>644</ele>
        <time>2016-12-23T16:15:09Z</time>
      </trkpt>
      <trkpt lat="46.12964" lon="1.89033">
        <ele>644</ele>
        <time>2016-12-23T16:17:09Z</time>
      </trkpt>
      <trkpt lat="46.12968" lon="1.89038">
        <ele>644</ele>
        <time>2016-12-23T16:19:09Z</time>
      </trkpt>
      <trkpt lat="46.12971" lon="1.89038">
        <ele>644</ele>
        <time>2016-12-23T16:21:09Z</time>
      </trkpt>
      <trkpt lat="46.12975" lon="1.89041">
        <ele>643</ele>
        <time>2016-12-23T16:23:09Z</time>
      </trkpt>
      <trkpt lat="46.12977" lon="1.89044">
        <ele>643</ele>
        <time>2016-12-23T16:25:09Z</time>
      </trkpt>
      <trkpt lat="46.12979" lon="1.89046">
        <ele>643</ele>
        <time>2016-12-23T16:27:09Z</time>
      </trkpt>
      <trkpt lat="46.12982" lon="1.89051">
        <ele>643</ele>
        <time>2016-12-23T16:29:09Z</time>
      </trkpt>
      <trkpt lat="46.12984" lon="1.89055">
        <ele>642</ele>
        <time>2016-12-23T16:31:09Z</time>
      </trkpt>
      <trkpt lat="46.12987" lon="1.89057">
        <ele>642</ele>
        <time>2016-12-23T16:33:09Z</time>
      </trkpt>
      <trkpt lat="46.12995" lon="1.8906">
        <ele>641</ele>
        <time>2016-12-23T16:35:09Z</time>
      </trkpt>
      <trkpt lat="46.12998" lon="1.89062">
        <ele>641</ele>
        <time>2016-12-23T16:37:09Z</time>
      </trkpt>
      <trkpt lat="46.13" lon="1.89067">
        <ele>641</ele>
        <time>2016-12-23T16:39:09Z</time>
      </trkpt>
      <trkpt lat="46.13002" lon="1.89072">
        <ele>640</ele>
        <time>2016-12-23T16:41:09Z</time>
      </trkpt>
      <trkpt lat="46.13004" lon="1.8908">
        <ele>640</ele>
        <time>2016-12-23T16:43:09Z</time>
      </trkpt>
      <trkpt lat="46.13011" lon="1.89092">
        <ele>638</ele>
        <time>2016-12-23T16:45:09Z</time>
      </trkpt>
      <trkpt lat="46.13013" lon="1.89094">
        <ele>637</ele>
        <time>2016-12-23T16:47:09Z</time>
      </trkpt>
      <trkpt lat="46.13023" lon="1.891">
        <ele>635</ele>
        <time>2016-12-23T16:49:09Z</time>
      </trkpt>
      <trkpt lat="46.13025" lon="1.89103">
        <ele>635</ele>
        <time>2016-12-23T16:51:09Z</time>
      </trkpt>
      <trkpt lat="46.13034" lon="1.8911">
        <ele>632</ele>
        <time>2016-12-23T16:53:09Z</time>
      </trkpt>
      <trkpt lat="46.13039" lon="1.89115">
        <ele>631</ele>
        <time>2016-12-23T16:55:09Z</time>
      </trkpt>
      <trkpt lat="46.13041" lon="1.89118">
        <ele>630</ele>
        <time>2016-12-23T16:57:09Z</time>
      </trkpt>
      <trkpt lat="46.13043" lon="1.89121">
        <ele>630</ele>
        <time>2016-12-23T16:59:09Z</time>
      </trkpt>
      <trkpt lat="46.13046" lon="1.89126">
        <ele>628</ele>
        <time>2016-12-23T17:01:09Z</time>
      </trkpt>
      <trkpt lat="46.13049" lon="1.8913">
        <ele>627</ele>
        <time>2016-12-23T17:03:09Z</time>
      </trkpt>
      <trkpt lat="46.13053" lon="1.89127">
        <ele>627</ele>
        <time>2016-12-23T17:05:09Z</time>
      </trkpt>
      <trkpt lat="46.13058" lon="1.89129">
        <ele>625</ele>
        <time>2016-12-23T17:07:09Z</time>
      </trkpt>
      <trkpt lat="46.13059" lon="1.89132">
        <ele>625</ele>
        <time>2016-12-23T17:09:09Z</time>
      </trkpt>
      <trkpt lat="46.13059" lon="1.89135">
        <ele>625</ele>
        <time>2016-12-23T17:11:09Z</time>
      </trkpt>
      <trkpt lat="46.13058" lon="1.89139">
        <ele>624</ele>
        <time>2016-12-23T17:13:09Z</time>
      </trkpt>
      <trkpt lat="46.13058" lon="1.89144">
        <ele>624</ele>
        <time>2016-12-23T17:15:09Z</time>
      </trkpt>
      <trkpt lat="46.13059" lon="1.89144">
        <ele>623</ele>
        <time>2016-12-23T17:17:09Z</time>
      </trkpt>
      <trkpt lat="46.1306" lon="1.89145">
        <ele>623</ele>
        <time>2016-12-23T17:19:09Z</time>
      </trkpt>
      <trkpt lat="46.1306" lon="1.89145">
        <ele>623</ele>
        <time>2016-12-23T17:21:09Z</time>
      </trkpt>
      <trkpt lat="46.1306" lon="1.89146">
        <ele>623</ele>
        <time>2016-12-23T17:23:09Z</time>
      </trkpt>
      <trkpt lat="46.13065" lon="1.89142">
        <ele>622</ele>
        <time>2016-12-23T17:25:09Z</time>
      </trkpt>
      <trkpt lat="46.13068" lon="1.89142">
        <ele>622</ele>
        <time>2016-12-23T17:27:09Z</time>
      </trkpt>
      <trkpt lat="46.13073" lon="1.89145">
        <ele>620</ele>
        <time>2016-12-23T17:29:09Z</time>
      </trkpt>
      <trkpt lat="46.13073" lon="1.89148">
        <ele>619</ele>
        <time>2016-12-23T17:31:09Z</time>
      </trkpt>
      <trkpt lat="46.13076" lon="1.89151">
        <ele>618</ele>
        <time>2016-12-23T17:33:09Z</time>
      </trkpt>
      <trkpt lat="46.13077" lon="1.89155">
        <ele>617</ele>
        <time>2016-12-23T17:35:09Z</time>
      </trkpt>
      <trkpt lat="46.13076" lon="1.89156">
        <ele>618</ele>
        <time>2016-12-23T17:37:09Z</time>
      </trkpt>
      <trkpt lat="46.13075" lon="1.89159">
        <ele>617</ele>
        <time>2016-12-23T17:39:09Z</time>
      </trkpt>
      <trkpt lat="46.13081" lon="1.89158">
        <ele>616</ele>
        <time>2016-12-23T17:41:09Z</time>
      </trkpt>
      <trkpt lat="46.13087" lon="1.89157">
        <ele>614</ele>
        <time>2016-12-23T17:43:09Z</time>
      </trkpt>
      <trkpt lat="46.13091" lon="1.8916">
        <ele>613</ele>
        <time>2016-12-23T17:45:09Z</time>
      </trkpt>
      <trkpt lat="46.13095" lon="1.89162">
        <ele>611</ele>
        <time>2016-12-23T17:47:09Z</time>
      </trkpt>
      <trkpt lat="46.13099" lon="1.89166">
        <ele>610</ele>
        <time>2016-12-23T17:49:09Z</time>
      </trkpt>
      <trkpt lat="46.131" lon="1.89171">
        <ele>609</ele>
        <time>2016-12-23T17:51:09Z</time>
      </trkpt>
      <trkpt lat="46.13103" lon="1.89176">
        <ele>607</ele>
        <time>2016-12-23T17:53:09Z</time>
      </trkpt>
      <trkpt lat="46.13105" lon="1.8918">
        <ele>606</ele>
        <time>2016-12-23T17:55:09Z</time>
      </trkpt>
      <trkpt lat="46.13108" lon="1.89189">
        <ele>604</ele>
        <time>2016-12-23T17:57:09Z</time>
      </trkpt>
      <trkpt lat="46.1311" lon="1.89194">
        <ele>603</ele>
        <time>2016-12-23T17:59:09Z</time>
      </trkpt>
      <trkpt lat="46.13114" lon="1.89198">
        <ele>601</ele>
        <time>2016-12-23T18:01:09Z</time>
      </trkpt>
      <trkpt lat="46.13118" lon="1.89205">
        <ele>599</ele>
        <time>2016-12-23T18:03:09Z</time>
      </trkpt>
      <trkpt lat="46.1312" lon="1.89211">
        <ele>598</ele>
        <time>2016-12-23T18:05:09Z</time>
      </trkpt>
      <trkpt lat="46.13122" lon="1.89216">
        <ele>596</ele>
        <time>2016-12-23T18:07:09Z</time>
      </trkpt>
      <trkpt lat="46.13125" lon="1.8922">
        <ele>595</ele>
        <time>2016-12-23T18:09:09Z</time>
      </trkpt>
      <trkpt lat="46.13127" lon="1.89227">
        <ele>593</ele>
        <time>2016-12-23T18:11:09Z</time>
      </trkpt>
      <trkpt lat="46.13129" lon="1.89229">
        <ele>592</ele>
        <time>2016-12-23T18:13:09Z</time>
      </trkpt>
      <trkpt lat="46.13136" lon="1.89233">
        <ele>589</ele>
        <time>2016-12-23T18:15:09Z</time>
      </trkpt>
      <trkpt lat="46.13139" lon="1.89239">
        <ele>588</ele>
        <time>2016-12-23T18:17:09Z</time>
      </trkpt>
      <trkpt lat="46.13143" lon="1.89245">
        <ele>585</ele>
        <time>2016-12-23T18:19:09Z</time>
      </trkpt>
      <trkpt lat="46.13147" lon="1.8925">
        <ele>583</ele>
        <time>2016-12-23T18:21:09Z</time>
      </trkpt>
      <trkpt lat="46.13158" lon="1.89271">
        <ele>578</ele>
        <time>2016-12-23T18:23:09Z</time>
      </trkpt>
      <trkpt lat="46.13165" lon="1.89287">
        <ele>574</ele>
        <time>2016-12-23T18:25:09Z</time>
      </trkpt>
      <trkpt lat="46.13169" lon="1.89293">
        <ele>572</ele>
        <time>2016-12-23T18:27:09Z</time>
      </trkpt>
      <trkpt lat="46.13172" lon="1.89298">
        <ele>571</ele>
        <time>2016-12-23T18:29:09Z</time>
      </trkpt>
      <trkpt lat="46.13176" lon="1.89316">
        <ele>568</ele>
        <time>2016-12-23T18:31:09Z</time>
      </trkpt>
      <trkpt lat="46.13177" lon="1.89321">
        <ele>568</ele>
        <time>2016-12-23T18:33:09Z</time>
      </trkpt>
      <trkpt lat="46.13179" lon="1.89328">
        <ele>566</ele>
        <time>2016-12-23T18:35:09Z</time>
      </trkpt>
      <trkpt lat="46.13184" lon="1.8934">
        <ele>564</ele>
        <time>2016-12-23T18:37:09Z</time>
      </trkpt>
      <trkpt lat="46.13185" lon="1.89345">
        <ele>564</ele>
        <time>2016-12-23T18:39:09Z</time>
      </trkpt>
      <trkpt lat="46.13186" lon="1.89348">
        <ele>563</ele>
        <time>2016-12-23T18:41:09Z</time>
      </trkpt>
      <trkpt lat="46.1319" lon="1.89352">
        <ele>562</ele>
        <time>2016-12-23T18:43:09Z</time>
      </trkpt>
      <trkpt lat="46.13192" lon="1.89352">
        <ele>561</ele>
        <time>2016-12-23T18:45:09Z</time>
      </trkpt>
      <trkpt lat="46.13195" lon="1.8935">
        <ele>560</ele>
        <time>2016-12-23T18:47:09Z</time>
      </trkpt>
      <trkpt lat="46.13198" lon="1.89351">
        <ele>559</ele>
        <time>2016-12-23T18:49:09Z</time>
      </trkpt>
      <trkpt lat="46.13202" lon="1.8935">
        <ele>558</ele>
        <time>2016-12-23T18:51:09Z</time>
      </trkpt>
      <trkpt lat="46.13205" lon="1.89348">
        <ele>557</ele>
        <time>2016-12-23T18:53:09Z</time>
      </trkpt>
      <trkpt lat="46.13204" lon="1.89342">
        <ele>558</ele>
        <time>2016-12-23T18:55:09Z</time>
      </trkpt>
      <trkpt lat="46.13208" lon="1.89336">
        <ele>557</ele>
        <time>2016-12-23T18:57:09Z</time>
      </trkpt>
      <trkpt lat="46.13211" lon="1.89332">
        <ele>556</ele>
        <time>2016-12-23T18:59:09Z</time>
      </trkpt>
      <trkpt lat="46.13213" lon="1.89331">
        <ele>555</ele>
        <time>2016-12-23T19:01:09Z</time>
      </trkpt>
      <trkpt lat="46.13214" lon="1.89329">
        <ele>555</ele>
        <time>2016-12-23T19:03:09Z</time>
      </trkpt>
      <trkpt lat="46.13217" lon="1.89328">
        <ele>554</ele>
        <time>2016-12-23T19:05:09Z</time>
      </trkpt>
      <trkpt lat="46.1322" lon="1.8933">
        <ele>553</ele>
        <time>2016-12-23T19:07:09Z</time>
      </trkpt>
      <trkpt lat="46.13223" lon="1.89333">
        <ele>552</ele>
        <time>2016-12-23T19:09:09Z</time>
      </trkpt>
      <trkpt lat="46.13228" lon="1.89339">
        <ele>550</ele>
        <time>2016-12-23T19:11:09Z</time>
      </trkpt>
      <trkpt lat="46.13231" lon="1.89345">
        <ele>549</ele>
        <time>2016-12-23T19:13:09Z</time>
      </trkpt>
      <trkpt lat="46.13234" lon="1.89348">
        <ele>547</ele>
        <time>2016-12-23T19:15:09Z</time>
      </trkpt>
      <trkpt lat="46.13234" lon="1.89347">
        <ele>547</ele>
        <time>2016-12-23T19:17:09Z</time>
      </trkpt>
      <trkpt lat="46.13236" lon="1.89343">
        <ele>547</ele>
        <time>2016-12-23T19:19:09Z</time>
      </trkpt>
      <trkpt lat="46.13236" lon="1.89339">
        <ele>547</ele>
        <time>2016-12-23T19:21:09Z</time>
      </trkpt>
      <trkpt lat="46.13239" lon="1.89335">
        <ele>546</ele>
        <time>2016-12-23T19:23:09Z</time>
      </trkpt>
      <trkpt lat="46.13247" lon="1.89324">
        <ele>546</ele>
        <time>2016-12-23T19:25:09Z</time>
      </trkpt>
      <trkpt lat="46.13249" lon="1.89319">
        <ele>546</ele>
        <time>2016-12-23T19:27:09Z</time>
      </trkpt>
      <trkpt lat="46.13251" lon="1.89316">
        <ele>546</ele>
        <time>2016-12-23T19:29:09Z</time>
      </trkpt>
      <trkpt lat="46.13251" lon="1.89313">
        <ele>546</ele>
        <time>2016-12-23T19:31:09Z</time>
      </trkpt>
      <trkpt lat="46.13251" lon="1.89312">
        <ele>546</ele>
        <time>2016-12-23T19:33:09Z</time>
      </trkpt>
      <trkpt lat="46.13249" lon="1.89312">
        <ele>547</ele>
        <time>2016-12-23T19:35:09Z</time>
      </trkpt>
      <trkpt lat="46.13242" lon="1.89304">
        <ele>550</ele>
        <time>2016-12-23T19:37:09Z</time>
      </trkpt>
      <trkpt lat="46.13251" lon="1.8929">
        <ele>550</ele>
        <time>2016-12-23T19:39:09Z</time>
      </trkpt>
      <trkpt lat="46.13255" lon="1.89286">
        <ele>550</ele>
        <time>2016-12-23T19:41:09Z</time>
      </trkpt>
      <trkpt lat="46.13275" lon="1.89266">
        <ele>549</ele>
        <time>2016-12-23T19:43:09Z</time>
      </trkpt>
      <trkpt lat="46.13289" lon="1.89247">
        <ele>549</ele>
        <time>2016-12-23T19:45:09Z</time>
      </trkpt>
      <trkpt lat="46.13291" lon="1.89241">
        <ele>550</ele>
        <time>2016-12-23T19:47:09Z</time>
      </trkpt>
      <trkpt lat="46.13293" lon="1.89235">
        <ele>550</ele>
        <time>2016-12-23T19:49:09Z</time>
      </trkpt>
      <trkpt lat="46.13295" lon="1.8923">
        <ele>551</ele>
        <time>2016-12-23T19:51:09Z</time>
      </trkpt>
      <trkpt lat="46.13297" lon="1.89225">
        <ele>551</ele>
        <time>2016-12-23T19:53:09Z</time>
      </trkpt>
      <trkpt lat="46.13297" lon="1.89223">
        <ele>552</ele>
        <time>2016-12-23T19:55:09Z</time>
      </trkpt>
      <trkpt lat="46.13299" lon="1.89222">
        <ele>551</ele>
        <time>2016-12-23T19:57:09Z</time>
      </trkpt>
      <trkpt lat="46.13309" lon="1.89227">
        <ele>548</ele>
        <time>2016-12-23T19:59:09Z</time>
      </trkpt>
      <trkpt lat="46.13316" lon="1.89233">
        <ele>546</ele>
        <time>2016-12-23T20:01:09Z</time>
      </trkpt>
      <trkpt lat="46.13322" lon="1.8924">
        <ele>543</ele>
        <time>2016-12-23T20:03:09Z</time>
      </trkpt>
      <trkpt lat="46.13326" lon="1.89246">
        <ele>541</ele>
        <time>2016-12-23T20:05:09Z</time>
      </trkpt>
      <trkpt lat="46.13335" lon="1.8926">
        <ele>538</ele>
        <time>2016-12-23T20:07:09Z</time>
      </trkpt>
      <trkpt lat="46.1334" lon="1.89267">
        <ele>537</ele>
        <time>2016-12-23T20:09:09Z</time>
      </trkpt>
      <trkpt lat="46.13343" lon="1.89272">
        <ele>536</ele>
        <time>2016-12-23T20:11:09Z</time>
      </trkpt>
      <trkpt lat="46.13346" lon="1.89276">
        <ele>536</ele>
        <time>2016-12-23T20:13:09Z</time>
      </trkpt>
      <trkpt lat="46.13349" lon="1.89276">
        <ele>536</ele>
        <time>2016-12-23T20:15:09Z</time>
      </trkpt>
      <trkpt lat="46.13355" lon="1.89277">
        <ele>535</ele>
        <time>2016-12-23T20:17:09Z</time>
      </trkpt>
      <trkpt lat="46.13357" lon="1.89281">
        <ele>535</ele>
        <time>2016-12-23T20:19:09Z</time>
      </trkpt>
      <trkpt lat="46.13359" lon="1.89284">
        <ele>534</ele>
        <time>2016-12-23T20:21:09Z</time>
      </trkpt>
      <trkpt lat="46.13361" lon="1.89287">
        <ele>534</ele>
        <time>2016-12-23T20:23:09Z</time>
      </trkpt>
      <trkpt lat="46.13364" lon="1.8929">
        <ele>534</ele>
        <time>2016-12-23T20:25:09Z</time>
      </trkpt>
      <trkpt lat="46.13369" lon="1.89293">
        <ele>533</ele>
        <time>2016-12-23T20:27:09Z</time>
      </trkpt>
      <trkpt lat="46.13373" lon="1.89297">
        <ele>532</ele>
        <time>2016-12-23T20:29:09Z</time>
      </trkpt>
      <trkpt lat="46.13376" lon="1.893">
        <ele>532</ele>
        <time>2016-12-23T20:31:09Z</time>
      </trkpt>
      <trkpt lat="46.13378" lon="1.89304">
        <ele>531</ele>
        <time>2016-12-23T20:33:09Z</time>
      </trkpt>
      <trkpt lat="46.13381" lon="1.89306">
        <ele>531</ele>
        <time>2016-12-23T20:35:09Z</time>
      </trkpt>
      <trkpt lat="46.13389" lon="1.89309">
        <ele>530</ele>
        <time>2016-12-23T20:37:09Z</time>
      </trkpt>
      <trkpt lat="46.13393" lon="1.89312">
        <ele>530</ele>
        <time>2016-12-23T20:39:09Z</time>
      </trkpt>
      <trkpt lat="46.134" lon="1.89319">
        <ele>529</ele>
        <time>2016-12-23T20:41:09Z</time>
      </trkpt>
      <trkpt lat="46.13402" lon="1.8932">
        <ele>528</ele>
        <time>2016-12-23T20:43:09Z</time>
      </trkpt>
      <trkpt lat="46.13407" lon="1.89321">
        <ele>528</ele>
        <time>2016-12-23T20:45:09Z</time>
      </trkpt>
      <trkpt lat="46.13409" lon="1.8932">
        <ele>528</ele>
        <time>2016-12-23T20:47:09Z</time>
      </trkpt>
      <trkpt lat="46.13417" lon="1.8931">
        <ele>529</ele>
        <time>2016-12-23T20:49:09Z</time>
      </trkpt>
      <trkpt lat="46.13419" lon="1.89309">
        <ele>529</ele>
        <time>2016-12-23T20:51:09Z</time>
      </trkpt>
      <trkpt lat="46.13424" lon="1.89312">
        <ele>528</ele>
        <time>2016-12-23T20:53:09Z</time>
      </trkpt>
      <trkpt lat="46.1343" lon="1.8932">
        <ele>527</ele>
        <time>2016-12-23T20:55:09Z</time>
      </trkpt>
      <trkpt lat="46.13435" lon="1.89323">
        <ele>526</ele>
        <time>2016-12-23T20:57:09Z</time>
      </trkpt>
      <trkpt lat="46.13437" lon="1.89325">
        <ele>526</ele>
        <time>2016-12-23T20:59:09Z</time>
      </trkpt>
      <trkpt lat="46.1344" lon="1.89322">
        <ele>526</ele>
        <time>2016-12-23T21:01:09Z</time>
      </trkpt>
      <trkpt lat="46.13444" lon="1.8932">
        <ele>526</ele>
        <time>2016-12-23T21:03:09Z</time>
      </trkpt>
      <trkpt lat="46.13448" lon="1.8932">
        <ele>526</ele>
        <time>2016-12-23T21:05:09Z</time>
      </trkpt>
      <trkpt lat="46.13454" lon="1.89317">
        <ele>526</ele>
        <time>2016-12-23T21:07:09Z</time>
      </trkpt>
      <trkpt lat="46.13462" lon="1.89317">
        <ele>526</ele>
        <time>2016-12-23T21:09:09Z</time>
      </trkpt>
      <trkpt lat="46.13466" lon="1.89317">
        <ele>526</ele>
        <time>2016-12-23T21:11:09Z</time>
      </trkpt>
      <trkpt lat="46.1347" lon="1.89316">
        <ele>526</ele>
        <time>2016-12-23T21:13:09Z</time>
      </trkpt>
      <trkpt lat="46.13474" lon="1.89314">
        <ele>525</ele>
        <time>2016-12-23T21:15:09Z</time>
      </trkpt>
      <trkpt lat="46.1349" lon="1.8931">
        <ele>525</ele>
        <time>2016-12-23T21:17:09Z</time>
      </trkpt>
      <trkpt lat="46.13515" lon="1.89304">
        <ele>524</ele>
        <time>2016-12-23T21:19:09Z</time>
      </trkpt>
      <trkpt lat="46.13528" lon="1.893">
        <ele>523</ele>
        <time>2016-12-23T21:21:09Z</time>
      </trkpt>
      <trkpt lat="46.13559" lon="1.89286">
        <ele>521</ele>
        <time>2016-12-23T21:23:09Z</time>
      </trkpt>
      <trkpt lat="46.13572" lon="1.89282">
        <ele>520</ele>
        <time>2016-12-23T21:25:09Z</time>
      </trkpt>
      <trkpt lat="46.13589" lon="1.89281">
        <ele>518</ele>
        <time>2016-12-23T21:27:09Z</time>
      </trkpt>
      <trkpt lat="46.13651" lon="1.89281">
        <ele>507</ele>
        <time>2016-12-23T21:29:09Z</time>
      </trkpt>
      <trkpt lat="46.13658" lon="1.89278">
        <ele>506</ele>
        <time>2016-12-23T21:31:09Z</time>
      </trkpt>
      <trkpt lat="46.13665" lon="1.89277">
        <ele>504</ele>
        <time>2016-12-23T21:33:09Z</time>
      </trkpt>
      <trkpt lat="46.13671" lon="1.89276">
        <ele>503</ele>
        <time>2016-12-23T21:35:09Z</time>
      </trkpt>
      <trkpt lat="46.13683" lon="1.89264">
        <ele>499</ele>
        <time>2016-12-23T21:37:09Z</time>
      </trkpt>
      <trkpt lat="46.13686" lon="1.89257">
        <ele>499</ele>
        <time>2016-12-23T21:39:09Z</time>
      </trkpt>
      <trkpt lat="46.13687" lon="1.8925">
        <ele>499</ele>
        <time>2016-12-23T21:41:09Z</time>
      </trkpt>
      <trkpt lat="46.1369" lon="1.89243">
        <ele>498</ele>
        <time>2016-12-23T21:43:09Z</time>
      </trkpt>
      <trkpt lat="46.13695" lon="1.89237">
        <ele>497</ele>
        <time>2016-12-23T21:45:09Z</time>
      </trkpt>
      <trkpt lat="46.13714" lon="1.89205">
        <ele>494</ele>
        <time>2016-12-23T21:47:09Z</time>
      </trkpt>
      <trkpt lat="46.1372" lon="1.89198">
        <ele>494</ele>
        <time>2016-12-23T21:49:09Z</time>
      </trkpt>
      <trkpt lat="46.13726" lon="1.89182">
        <ele>494</ele>
        <time>2016-12-23T21:51:09Z</time>
      </trkpt>
      <trkpt lat="46.13727" lon="1.89177">
        <ele>494</ele>
        <time>2016-12-23T21:53:09Z</time>
      </trkpt>
      <trkpt lat="46.13726" lon="1.89172">
        <ele>495</ele>
        <time>2016-12-23T21:55:09Z</time>
      </trkpt>
      <trkpt lat="46.13724" lon="1.89166">
        <ele>495</ele>
        <time>2016-12-23T21:57:09Z</time>
      </trkpt>
      <trkpt lat="46.13723" lon="1.89162">
        <ele>496</ele>
        <time>2016-12-23T21:59:09Z</time>
      </trkpt>
      <trkpt lat="46.13722" lon="1.89154">
        <ele>496</ele>
        <time>2016-12-23T22:01:09Z</time>
      </trkpt>
      <trkpt lat="46.13722" lon="1.8915">
        <ele>496</ele>
        <time>2016-12-23T22:03:09Z</time>
      </trkpt>
      <trkpt lat="46.13721" lon="1.89145">
        <ele>496</ele>
        <time>2016-12-23T22:05:09Z</time>
      </trkpt>
      <trkpt lat="46.13721" lon="1.89139">
        <ele>496</ele>
        <time>2016-12-23T22:07:09Z</time>
      </trkpt>
      <trkpt lat="46.13722" lon="1.89129">
        <ele>496</ele>
        <time>2016-12-23T22:09:09Z</time>
      </trkpt>
      <trkpt lat="46.13723" lon="1.89123">
        <ele>495</ele>
        <time>2016-12-23T22:11:09Z</time>
      </trkpt>
      <trkpt lat="46.13729" lon="1.89108">
        <ele>494</ele>
        <time>2016-12-23T22:13:09Z</time>
      </trkpt>
      <trkpt lat="46.13733" lon="1.89099">
        <ele>493</ele>
        <time>2016-12-23T22:15:09Z</time>
      </trkpt>
      <trkpt lat="46.13735" lon="1.89095">
        <ele>493</ele>
        <time>2016-12-23T22:17:09Z</time>
      </trkpt>
      <trkpt lat="46.13735" lon="1.89089">
        <ele>493</ele>
        <time>2016-12-23T22:19:09Z</time>
      </trkpt>
      <trkpt lat="46.13736" lon="1.89086">
        <ele>493</ele>
        <time>2016-12-23T22:21:09Z</time>
      </trkpt>
      <trkpt lat="46.13737" lon="1.89082">
        <ele>492</ele>
        <time>2016-12-23T22:23:09Z</time>
      </trkpt>
      <trkpt lat="46.13738" lon="1.89078">
        <ele>492</ele>
        <time>2016-12-23T22:25:09Z</time>
      </trkpt>
      <trkpt lat="46.1374" lon="1.8907">
        <ele>491</ele>
        <time>2016-12-23T22:27:09Z</time>
      </trkpt>
      <trkpt lat="46.13743" lon="1.89059">
        <ele>490</ele>
        <time>2016-12-23T22:29:09Z</time>
      </trkpt>
      <trkpt lat="46.13744" lon="1.89054">
        <ele>489</ele>
        <time>2016-12-23T22:31:09Z</time>
      </trkpt>
      <trkpt lat="46.13746" lon="1.8905">
        <ele>488</ele>
        <time>2016-12-23T22:33:09Z</time>
      </trkpt>
      <trkpt lat="46.13747" lon="1.89041">
        <ele>488</ele>
        <time>2016-12-23T22:35:09Z</time>
      </trkpt>
      <trkpt lat="46.13748" lon="1.89034">
        <ele>487</ele>
        <time>2016-12-23T22:37:09Z</time>
      </trkpt>
      <trkpt lat="46.13748" lon="1.89027">
        <ele>486</ele>
        <time>2016-12-23T22:39:09Z</time>
      </trkpt>
      <trkpt lat="46.13748" lon="1.89021">
        <ele>486</ele>
        <time>2016-12-23T22:41:09Z</time>
      </trkpt>
      <trkpt lat="46.13748" lon="1.89016">
        <ele>486</ele>
        <time>2016-12-23T22:43:09Z</time>
      </trkpt>
      <trkpt lat="46.13747" lon="1.89001">
        <ele>485</ele>
        <time>2016-12-23T22:45:09Z</time>
      </trkpt>
      <trkpt lat="46.13748" lon="1.88993">
        <ele>484</ele>
        <time>2016-12-23T22:47:09Z</time>
      </trkpt>
      <trkpt lat="46.13747" lon="1.88985">
        <ele>484</ele>
        <time>2016-12-23T22:49:09Z</time>
      </trkpt>
      <trkpt lat="46.13746" lon="1.88976">
        <ele>483</ele>
        <time>2016-12-23T22:51:09Z</time>
      </trkpt>
      <trkpt lat="46.13745" lon="1.88964">
        <ele>483</ele>
        <time>2016-12-23T22:53:09Z</time>
      </trkpt>
      <trkpt lat="46.13744" lon="1.88957">
        <ele>483</ele>
        <time>2016-12-23T22:55:09Z</time>
      </trkpt>
      <trkpt lat="46.13745" lon="1.88954">
        <ele>482</ele>
        <time>2016-12-23T22:57:09Z</time>
      </trkpt>
      <trkpt lat="46.13747" lon="1.88954">
        <ele>482</ele>
        <time>2016-12-23T22:59:09Z</time>
      </trkpt>
      <trkpt lat="46.13754" lon="1.8896">
        <ele>481</ele>
        <time>2016-12-23T23:01:09Z</time>
      </trkpt>
      <trkpt lat="46.1376" lon="1.88969">
        <ele>481</ele>
        <time>2016-12-23T23:03:09Z</time>
      </trkpt>
      <trkpt lat="46.13765" lon="1.88977">
        <ele>480</ele>
        <time>2016-12-23T23:05:09Z</time>
      </trkpt>
      <trkpt lat="46.13772" lon="1.88986">
        <ele>480</ele>
        <time>2016-12-23T23:07:09Z</time>
      </trkpt>
      <trkpt lat="46.13775" lon="1.88987">
        <ele>479</ele>
        <time>2016-12-23T23:09:09Z</time>
      </trkpt>
      <trkpt lat="46.13782" lon="1.88988">
        <ele>478</ele>
        <time>2016-12-23T23:11:09Z</time>
      </trkpt>
      <trkpt lat="46.13786" lon="1.8899">
        <ele>478</ele>
        <time>2016-12-23T23:13:09Z</time>
      </trkpt>
      <trkpt lat="46.13794" lon="1.88995">
        <ele>476</ele>
        <time>2016-12-23T23:15:09Z</time>
      </trkpt>
      <trkpt lat="46.13802" lon="1.89002">
        <ele>475</ele>
        <time>2016-12-23T23:17:09Z</time>
      </trkpt>
      <trkpt lat="46.13804" lon="1.89006">
        <ele>475</ele>
        <time>2016-12-23T23:19:09Z</time>
      </trkpt>
      <trkpt lat="46.13807" lon="1.8901">
        <ele>475</ele>
        <time>2016-12-23T23:21:09Z</time>
      </trkpt>
      <trkpt lat="46.1381" lon="1.89015">
        <ele>474</ele>
        <time>2016-12-23T23:23:09Z</time>
      </trkpt>
      <trkpt lat="46.13814" lon="1.89018">
        <ele>474</ele>
        <time>2016-12-23T23:25:09Z</time>
      </trkpt>
      <trkpt lat="46.13817" lon="1.89021">
        <ele>473</ele>
        <time>2016-12-23T23:27:09Z</time>
      </trkpt>
      <trkpt lat="46.13821" lon="1.89023">
        <ele>473</ele>
        <time>2016-12-23T23:29:09Z</time>
      </trkpt>
      <trkpt lat="46.13834" lon="1.8903">
        <ele>471</ele>
        <time>2016-12-23T23:31:09Z</time>
      </trkpt>
      <trkpt lat="46.13843" lon="1.89036">
        <ele>470</ele>
        <time>2016-12-23T23:33:09Z</time>
      </trkpt>
      <trkpt lat="46.13848" lon="1.89039">
        <ele>469</ele>
        <time>2016-12-23T23:35:09Z</time>
      </trkpt>
      <trkpt lat="46.13851" lon="1.89044">
        <ele>469</ele>
        <time>2016-12-23T23:37:09Z</time>
      </trkpt>
      <trkpt lat="46.13851" lon="1.89049">
        <ele>469</ele>
        <time>2016-12-23T23:39:09Z</time>
      </trkpt>
      <trkpt lat="46.1385" lon="1.89055">
        <ele>469</ele>
        <time>2016-12-23T23:41:09Z</time>
      </trkpt>
      <trkpt lat="46.13843" lon="1.89068">
        <ele>470</ele>
        <time>2016-12-23T23:43:09Z</time>
      </trkpt>
      <trkpt lat="46.13837" lon="1.89083">
        <ele>471</ele>
        <time>2016-12-23T23:45:09Z</time>
      </trkpt>
      <trkpt lat="46.13834" lon="1.89089">
        <ele>471</ele>
        <time>2016-12-23T23:47:09Z</time>
      </trkpt>
      <trkpt lat="46.13832" lon="1.89095">
        <ele>471</ele>
        <time>2016-12-23T23:49:09Z</time>
      </trkpt>
      <trkpt lat="46.13823" lon="1.8911">
        <ele>473</ele>
        <time>2016-12-23T23:51:09Z</time>
      </trkpt>
      <trkpt lat="46.13816" lon="1.89118">
        <ele>474</ele>
        <time>2016-12-23T23:53:09Z</time>
      </trkpt>
      <trkpt lat="46.13813" lon="1.89122">
        <ele>474</ele>
        <time>2016-12-23T23:55:09Z</time>
      </trkpt>
      <trkpt lat="46.13808" lon="1.89131">
        <ele>475</ele>
        <time>2016-12-23T23:57:09Z</time>
      </trkpt>
      <trkpt lat="46.13806" lon="1.89136">
        <ele>476</ele>
        <time>2016-12-23T23:59:09Z</time>
      </trkpt>
      <trkpt lat="46.13802" lon="1.89147">
        <ele>476</ele>
        <time>2016-12-24T00:01:09Z</time>
      </trkpt>
      <trkpt lat="46.138" lon="1.89153">
        <ele>477</ele>
        <time>2016-12-24T00:03:09Z</time>
      </trkpt>
      <trkpt lat="46.13798" lon="1.89157">
        <ele>477</ele>
        <time>2016-12-24T00:05:09Z</time>
      </trkpt>
      <trkpt lat="46.13795" lon="1.8916">
        <ele>478</ele>
        <time>2016-12-24T00:07:09Z</time>
      </trkpt>
      <trkpt lat="46.13793" lon="1.89164">
        <ele>478</ele>
        <time>2016-12-24T00:09:09Z</time>
      </trkpt>
      <trkpt lat="46.13767" lon="1.89213">
        <ele>481</ele>
        <time>2016-12-24T00:11:09Z</time>
      </trkpt>
      <trkpt lat="46.13761" lon="1.89223">
        <ele>482</ele>
        <time>2016-12-24T00:13:09Z</time>
      </trkpt>
      <trkpt lat="46.13758" lon="1.89228">
        <ele>482</ele>
        <time>2016-12-24T00:15:09Z</time>
      </trkpt>
      <trkpt lat="46.13753" lon="1.89237">
        <ele>483</ele>
        <time>2016-12-24T00:17:09Z</time>
      </trkpt>
      <trkpt lat="46.1375" lon="1.89241">
        <ele>483</ele>
        <time>2016-12-24T00:19:09Z</time>
      </trkpt>
      <trkpt lat="46.13739" lon="1.89252">
        <ele>485</ele>
        <time>2016-12-24T00:21:09Z</time>
      </trkpt>
      <trkpt lat="46.13736" lon="1.89264">
        <ele>485</ele>
        <time>2016-12-24T00:23:09Z</time>
      </trkpt>
      <trkpt lat="46.13737" lon="1.89274">
        <ele>484</ele>
        <time>2016-12-24T00:25:09Z</time>
      </trkpt>
      <trkpt lat="46.13738" lon="1.89278">
        <ele>483</ele>
        <time>2016-12-24T00:27:09Z</time>
      </trkpt>
      <trkpt lat="46.1374" lon="1.89283">
        <ele>482</ele>
        <time>2016-12-24T00:29:09Z</time>
      </trkpt>
      <trkpt lat="46.13743" lon="1.8929">
        <ele>481</ele>
        <time>2016-12-24T00:31:09Z</time>
      </trkpt>
      <trkpt lat="46.13746" lon="1.89298">
        <ele>479</ele>
        <time>2016-12-24T00:33:09Z</time>
      </trkpt>
      <trkpt lat="46.13749" lon="1.89306">
        <ele>478</ele>
        <time>2016-12-24T00:35:09Z</time>
      </trkpt>
      <trkpt lat="46.13752" lon="1.89315">
        <ele>476</ele>
        <time>2016-12-24T00:37:09Z</time>
      </trkpt>
      <trkpt lat="46.13755" lon="1.89324">
        <ele>475</ele>
        <time>2016-12-24T00:39:09Z</time>
      </trkpt>
      <trkpt lat="46.13758" lon="1.89333">
        <ele>473</ele>
        <time>2016-12-24T00:41:09Z</time>
      </trkpt>
      <trkpt lat="46.1376" lon="1.89341">
        <ele>473</ele>
        <time>2016-12-24T00:43:09Z</time>
      </trkpt>
      <trkpt lat="46.13762" lon="1.89349">
        <ele>472</ele>
        <time>2016-12-24T00:45:09Z</time>
      </trkpt>
      <trkpt lat="46.13768" lon="1.89367">
        <ele>471</ele>
        <time>2016-12-24T00:47:09Z</time>
      </trkpt>
      <trkpt lat="46.13776" lon="1.89403">
        <ele>468</ele>
        <time>2016-12-24T00:49:09Z</time>
      </trkpt>
      <trkpt lat="46.13779" lon="1.89413">
        <ele>468</ele>
        <time>2016-12-24T00:51:09Z</time>
      </trkpt>
      <trkpt lat="46.13782" lon="1.89425">
        <ele>467</ele>
        <time>2016-12-24T00:53:09Z</time>
      </trkpt>
      <trkpt lat="46.13782" lon="1.89435">
        <ele>467</ele>
        <time>2016-12-24T00:55:09Z</time>
      </trkpt>
      <trkpt lat="46.13782" lon="1.89458">
        <ele>466</ele>
        <time>2016-12-24T00:57:09Z</time>
      </trkpt>
      <trkpt lat="46.13784" lon="1.89466">
        <ele>466</ele>
        <time>2016-12-24T00:59:09Z</time>
      </trkpt>
      <trkpt lat="46.13787" lon="1.89472">
        <ele>465</ele>
        <time>2016-12-24T01:01:09Z</time>
      </trkpt>
      <trkpt lat="46.13797" lon="1.89478">
        <ele>463</ele>
        <time>2016-12-24T01:03:09Z</time>
      </trkpt>
      <trkpt lat="46.13802" lon="1.89479">
        <ele>462</ele>
        <time>2016-12-24T01:05:09Z</time>
      </trkpt>
      <trkpt lat="46.13814" lon="1.89478">
        <ele>460</ele>
        <time>2016-12-24T01:07:09Z</time>
      </trkpt>
      <trkpt lat="46.1382" lon="1.8948">
        <ele>459</ele>
        <time>2016-12-24T01:09:09Z</time>
      </trkpt>
      <trkpt lat="46.13826" lon="1.89485">
        <ele>458</ele>
        <time>2016-12-24T01:11:09Z</time>
      </trkpt>
      <trkpt lat="46.13835" lon="1.89499">
        <ele>457</ele>
        <time>2016-12-24T01:13:09Z</time>
      </trkpt>
      <trkpt lat="46.1384" lon="1.89503">
        <ele>457</ele>
        <time>2016-12-24T01:15:09Z</time>
      </trkpt>
      <trkpt lat="46.13845" lon="1.89507">
        <ele>457</ele>
        <time>2016-12-24T01:17:09Z</time>
      </trkpt>
      <trkpt lat="46.1385" lon="1.89509">
        <ele>457</ele>
        <time>2016-12-24T01:19:09Z</time>
      </trkpt>
      <trkpt lat="46.13861" lon="1.89511">
        <ele>457</ele>
        <time>2016-12-24T01:21:09Z</time>
      </trkpt>
      <trkpt lat="46.13865" lon="1.89513">
        <ele>457</ele>
        <time>2016-12-24T01:23:09Z</time>
      </trkpt>
      <trkpt lat="46.13871" lon="1.89515">
        <ele>457</ele>
        <time>2016-12-24T01:25:09Z</time>
      </trkpt>
      <trkpt lat="46.13885" lon="1.89524">
        <ele>457</ele>
        <time>2016-12-24T01:27:09Z</time>
      </trkpt>
      <trkpt lat="46.13889" lon="1.89528">
        <ele>457</ele>
        <time>2016-12-24T01:29:09Z</time>
      </trkpt>
      <trkpt lat="46.13903" lon="1.89545">
        <ele>456</ele>
        <time>2016-12-24T01:31:09Z</time>
      </trkpt>
      <trkpt lat="46.13923" lon="1.89567">
        <ele>455</ele>
        <time>2016-12-24T01:33:09Z</time>
      </trkpt>
      <trkpt lat="46.13933" lon="1.89566">
        <ele>455</ele>
        <time>2016-12-24T01:35:09Z</time>
      </trkpt>
      <trkpt lat="46.13937" lon="1.89564">
        <ele>455</ele>
        <time>2016-12-24T01:37:09Z</time>
      </trkpt>
      <trkpt lat="46.13942" lon="1.89561">
        <ele>455</ele>
        <time>2016-12-24T01:39:09Z</time>
      </trkpt>
      <trkpt lat="46.13947" lon="1.89557">
        <ele>455</ele>
        <time>2016-12-24T01:41:09Z</time>
      </trkpt>
      <trkpt lat="46.1395" lon="1.89552">
        <ele>456</ele>
        <time>2016-12-24T01:43:09Z</time>
      </trkpt>
      <trkpt lat="46.13957" lon="1.89541">
        <ele>456</ele>
        <time>2016-12-24T01:45:09Z</time>
      </trkpt>
      <trkpt lat="46.13959" lon="1.89535">
        <ele>456</ele>
        <time>2016-12-24T01:47:09Z</time>
      </trkpt>
      <trkpt lat="46.13961" lon="1.89524">
        <ele>457</ele>
        <time>2016-12-24T01:49:09Z</time>
      </trkpt>
      <trkpt lat="46.13968" lon="1.89509">
        <ele>457</ele>
        <time>2016-12-24T01:51:09Z</time>
      </trkpt>
      <trkpt lat="46.13969" lon="1.89502">
        <ele>458</ele>
        <time>2016-12-24T01:53:09Z</time>
      </trkpt>
      <trkpt lat="46.13975" lon="1.89486">
        <ele>458</ele>
        <time>2016-12-24T01:55:09Z</time>
      </trkpt>
      <trkpt lat="46.13989" lon="1.8948">
        <ele>458</ele>
        <time>2016-12-24T01:57:09Z</time>
      </trkpt>
      <trkpt lat="46.14009" lon="1.89473">
        <ele>459</ele>
        <time>2016-12-24T01:59:09Z</time>
      </trkpt>
      <trkpt lat="46.14034" lon="1.89462">
        <ele>460</ele>
        <time>2016-12-24T02:01:09Z</time>
      </trkpt>
      <trkpt lat="46.14039" lon="1.89459">
        <ele>460</ele>
        <time>2016-12-24T02:03:09Z</time>
      </trkpt>
      <trkpt lat="46.14043" lon="1.89455">
        <ele>461</ele>
        <time>2016-12-24T02:05:09Z</time>
      </trkpt>
      <trkpt lat="46.14047" lon="1.8945">
        <ele>461</ele>
        <time>2016-12-24T02:07:09Z</time>
      </trkpt>
      <trkpt lat="46.14051" lon="1.89444">
        <ele>462</ele>
        <time>2016-12-24T02:09:09Z</time>
      </trkpt>
      <trkpt lat="46.14064" lon="1.89411">
        <ele>464</ele>
        <time>2016-12-24T02:11:09Z</time>
      </trkpt>
      <trkpt lat="46.14066" lon="1.89404">
        <ele>464</ele>
        <time>2016-12-24T02:13:09Z</time>
      </trkpt>
      <trkpt lat="46.14068" lon="1.89397">
        <ele>465</ele>
        <time>2016-12-24T02:15:09Z</time>
      </trkpt>
      <trkpt lat="46.14071" lon="1.89391">
        <ele>465</ele>
        <time>2016-12-24T02:17:09Z</time>
      </trkpt>
      <trkpt lat="46.14074" lon="1.89386">
        <ele>465</ele>
        <time>2016-12-24T02:19:09Z</time>
      </trkpt>
      <trkpt lat="46.14078" lon="1.89383">
        <ele>466</ele>
        <time>2016-12-24T02:21:09Z</time>
      </trkpt>
      <trkpt lat="46.14083" lon="1.89382">
        <ele>466</ele>
        <time>2016-12-24T02:23:09Z</time>
      </trkpt>
      <trkpt lat="46.14088" lon="1.89383">
        <ele>467</ele>
        <time>2016-12-24T02:25:09Z</time>
      </trkpt>
      <trkpt lat="46.14093" lon="1.89385">
        <ele>467</ele>
        <time>2016-12-24T02:27:09Z</time>
      </trkpt>
      <trkpt lat="46.14107" lon="1.89392">
        <ele>468</ele>
        <time>2016-12-24T02:29:09Z</time>
      </trkpt>
      <trkpt lat="46.14112" lon="1.89395">
        <ele>469</ele>
        <time>2016-12-24T02:31:09Z</time>
      </trkpt>
      <trkpt lat="46.14126" lon="1.89405">
        <ele>470</ele>
        <time>2016-12-24T02:33:09Z</time>
      </trkpt>
      <trkpt lat="46.14131" lon="1.89408">
        <ele>470</ele>
        <time>2016-12-24T02:35:09Z</time>
      </trkpt>
      <trkpt lat="46.14152" lon="1.89417">
        <ele>472</ele>
        <time>2016-12-24T02:37:09Z</time>
      </trkpt>
      <trkpt lat="46.14161" lon="1.89419">
        <ele>473</ele>
        <time>2016-12-24T02:39:09Z</time>
      </trkpt>
      <trkpt lat="46.14165" lon="1.89419">
        <ele>474</ele>
        <time>2016-12-24T02:41:09Z</time>
      </trkpt>
      <trkpt lat="46.14174" lon="1.89418">
        <ele>475</ele>
        <time>2016-12-24T02:43:09Z</time>
      </trkpt>
      <trkpt lat="46.14177" lon="1.89419">
        <ele>475</ele>
        <time>2016-12-24T02:45:09Z</time>
      </trkpt>
      <trkpt lat="46.1418" lon="1.89422">
        <ele>476</ele>
        <time>2016-12-24T02:47:09Z</time>
      </trkpt>
      <trkpt lat="46.14182" lon="1.89427">
        <ele>475</ele>
        <time>2016-12-24T02:49:09Z</time>
      </trkpt>
      <trkpt lat="46.14194" lon="1.8945">
        <ele>475</ele>
        <time>2016-12-24T02:51:09Z</time>
      </trkpt>
      <trkpt lat="46.14198" lon="1.89454">
        <ele>475</ele>
        <time>2016-12-24T02:53:09Z</time>
      </trkpt>
      <trkpt lat="46.14219" lon="1.89478">
        <ele>476</ele>
        <time>2016-12-24T02:55:09Z</time>
      </trkpt>
      <trkpt lat="46.14236" lon="1.89499">
        <ele>476</ele>
        <time>2016-12-24T02:57:09Z</time>
      </trkpt>
      <trkpt lat="46.1424" lon="1.89504">
        <ele>476</ele>
        <time>2016-12-24T02:59:09Z</time>
      </trkpt>
      <trkpt lat="46.14248" lon="1.89523">
        <ele>477</ele>
        <time>2016-12-24T03:01:09Z</time>
      </trkpt>
      <trkpt lat="46.14254" lon="1.89539">
        <ele>478</ele>
        <time>2016-12-24T03:03:09Z</time>
      </trkpt>
      <trkpt lat="46.14261" lon="1.8956">
        <ele>478</ele>
        <time>2016-12-24T03:05:09Z</time>
      </trkpt>
      <trkpt lat="46.14263" lon="1.89567">
        <ele>479</ele>
        <time>2016-12-24T03:07:09Z</time>
      </trkpt>
      <trkpt lat="46.14265" lon="1.89574">
        <ele>479</ele>
        <time>2016-12-24T03:09:09Z</time>
      </trkpt>
      <trkpt lat="46.14267" lon="1.8958">
        <ele>479</ele>
        <time>2016-12-24T03:11:09Z</time>
      </trkpt>
      <trkpt lat="46.1427" lon="1.89585">
        <ele>480</ele>
        <time>2016-12-24T03:13:09Z</time>
      </trkpt>
      <trkpt lat="46.14274" lon="1.89588">
        <ele>480</ele>
        <time>2016-12-24T03:15:09Z</time>
      </trkpt>
      <trkpt lat="46.14277" lon="1.89589">
        <ele>480</ele>
        <time>2016-12-24T03:17:09Z</time>
      </trkpt>
      <trkpt lat="46.1428" lon="1.89589">
        <ele>481</ele>
        <time>2016-12-24T03:19:09Z</time>
      </trkpt>
      <trkpt lat="46.14283" lon="1.89587">
        <ele>481</ele>
        <time>2016-12-24T03:21:09Z</time>
      </trkpt>
      <trkpt lat="46.14288" lon="1.89582">
        <ele>482</ele>
        <time>2016-12-24T03:23:09Z</time>
      </trkpt>
      <trkpt lat="46.14301" lon="1.89568">
        <ele>484</ele>
        <time>2016-12-24T03:25:09Z</time>
      </trkpt>
      <trkpt lat="46.14329" lon="1.89542">
        <ele>487</ele>
        <time>2016-12-24T03:27:09Z</time>
      </trkpt>
      <trkpt lat="46.14334" lon="1.89537">
        <ele>487</ele>
        <time>2016-12-24T03:29:09Z</time>
      </trkpt>
      <trkpt lat="46.14343" lon="1.8953">
        <ele>488</ele>
        <time>2016-12-24T03:31:09Z</time>
      </trkpt>
      <trkpt lat="46.14349" lon="1.89523">
        <ele>489</ele>
        <time>2016-12-24T03:33:09Z</time>
      </trkpt>
      <trkpt lat="46.14356" lon="1.89516">
        <ele>489</ele>
        <time>2016-12-24T03:35:09Z</time>
      </trkpt>
      <trkpt lat="46.14362" lon="1.89508">
        <ele>490</ele>
        <time>2016-12-24T03:37:09Z</time>
      </trkpt>
      <trkpt lat="46.14371" lon="1.89499">
        <ele>491</ele>
        <time>2016-12-24T03:39:09Z</time>
      </trkpt>
      <trkpt lat="46.14374" lon="1.89497">
        <ele>491</ele>
        <time>2016-12-24T03:41:09Z</time>
      </trkpt>
      <trkpt lat="46.14377" lon="1.89495">
        <ele>492</ele>
        <time>2016-12-24T03:43:09Z</time>
      </trkpt>
      <trkpt lat="46.14387" lon="1.89489">
        <ele>493</ele>
        <time>2016-12-24T03:45:09Z</time>
      </trkpt>
      <trkpt lat="46.1439" lon="1.89487">
        <ele>494</ele>
        <time>2016-12-24T03:47:09Z</time>
      </trkpt>
      <trkpt lat="46.14393" lon="1.89484">
        <ele>495</ele>
        <time>2016-12-24T03:49:09Z</time>
      </trkpt>
      <trkpt lat="46.144" lon="1.89475">
        <ele>496</ele>
        <time>2016-12-24T03:51:09Z</time>
      </trkpt>
      <trkpt lat="46.14413" lon="1.89458">
        <ele>499</ele>
        <time>2016-12-24T03:53:09Z</time>
      </trkpt>
      <trkpt lat="46.14417" lon="1.89455">
        <ele>499</ele>
        <time>2016-12-24T03:55:09Z</time>
      </trkpt>
      <trkpt lat="46.1442" lon="1.89452">
        <ele>499</ele>
        <time>2016-12-24T03:57:09Z</time>
      </trkpt>
      <trkpt lat="46.14423" lon="1.89451">
        <ele>499</ele>
        <time>2016-12-24T03:59:09Z</time>
      </trkpt>
      <trkpt lat="46.14426" lon="1.89451">
        <ele>499</ele>
        <time>2016-12-24T04:01:09Z</time>
      </trkpt>
      <trkpt lat="46.14436" lon="1.8946">
        <ele>497</ele>
        <time>2016-12-24T04:03:09Z</time>
      </trkpt>
      <trkpt lat="46.14452" lon="1.89471">
        <ele>496</ele>
        <time>2016-12-24T04:05:09Z</time>
      </trkpt>
      <trkpt lat="46.14463" lon="1.89482">
        <ele>494</ele>
        <time>2016-12-24T04:07:09Z</time>
      </trkpt>
      <trkpt lat="46.14468" lon="1.89489">
        <ele>494</ele>
        <time>2016-12-24T04:09:09Z</time>
      </trkpt>
      <trkpt lat="46.14476" lon="1.89495">
        <ele>493</ele>
        <time>2016-12-24T04:11:09Z</time>
      </trkpt>
      <trkpt lat="46.14482" lon="1.89498">
        <ele>493</ele>
        <time>2016-12-24T04:13:09Z</time>
      </trkpt>
      <trkpt lat="46.14487" lon="1.89499">
        <ele>493</ele>
        <time>2016-12-24T04:15:09Z</time>
      </trkpt>
      <trkpt lat="46.14494" lon="1.89498">
        <ele>492</ele>
        <time>2016-12-24T04:17:09Z</time>
      </trkpt>
      <trkpt lat="46.145" lon="1.89497">
        <ele>492</ele>
        <time>2016-12-24T04:19:09Z</time>
      </trkpt>
      <trkpt lat="46.14506" lon="1.89496">
        <ele>492</ele>
        <time>2016-12-24T04:21:09Z</time>
      </trkpt>
      <trkpt lat="46.14513" lon="1.89494">
        <ele>491</ele>
        <time>2016-12-24T04:23:09Z</time>
      </trkpt>
      <trkpt lat="46.14534" lon="1.89487">
        <ele>489</ele>
        <time>2016-12-24T04:25:09Z</time>
      </trkpt>
      <trkpt lat="46.1454" lon="1.89485">
        <ele>489</ele>
        <time>2016-12-24T04:27:09Z</time>
      </trkpt>
      <trkpt lat="46.14548" lon="1.89486">
        <ele>488</ele>
        <time>2016-12-24T04:29:09Z</time>
      </trkpt>
      <trkpt lat="46.14556" lon="1.89489">
        <ele>487</ele>
        <time>2016-12-24T04:31:09Z</time>
      </trkpt>
      <trkpt lat="46.14564" lon="1.89494">
        <ele>487</ele>
        <time>2016-12-24T04:33:09Z</time>
      </trkpt>
      <trkpt lat="46.14579" lon="1.89502">
        <ele>486</ele>
        <time>2016-12-24T04:35:09Z</time>
      </trkpt>
      <trkpt lat="46.14588" lon="1.89504">
        <ele>485</ele>
        <time>2016-12-24T04:37:09Z</time>
      </trkpt>
      <trkpt lat="46.14604" lon="1.89504">
        <ele>484</ele>
        <time>2016-12-24T04:39:09Z</time>
      </trkpt>
      <trkpt lat="46.14613" lon="1.89504">
        <ele>483</ele>
        <time>2016-12-24T04:41:09Z</time>
      </trkpt>
      <trkpt lat="46.14632" lon="1.89502">
        <ele>481</ele>
        <time>2016-12-24T04:43:09Z</time>
      </trkpt>
      <trkpt lat="46.14642" lon="1.89501">
        <ele>480</ele>
        <time>2016-12-24T04:45:09Z</time>
      </trkpt>
      <trkpt lat="46.14652" lon="1.89502">
        <ele>479</ele>
        <time>2016-12-24T04:47:09Z</time>
      </trkpt>
      <trkpt lat="46.14671" lon="1.89505">
        <ele>478</ele>
        <time>2016-12-24T04:49:09Z</time>
      </trkpt>
      <trkpt lat="46.14678" lon="1.89506">
        <ele>478</ele>
        <time>2016-12-24T04:51:09Z</time>
      </trkpt>
      <trkpt lat="46.14684" lon="1.89505">
        <ele>477</ele>
        <time>2016-12-24T04:53:09Z</time>
      </trkpt>
      <trkpt lat="46.14696" lon="1.89505">
        <ele>476</ele>
        <time>2016-12-24T04:55:09Z</time>
      </trkpt>
      <trkpt lat="46.14702" lon="1.89507">
        <ele>475</ele>
        <time>2016-12-24T04:57:09Z</time>
      </trkpt>
      <trkpt lat="46.14707" lon="1.89509">
        <ele>475</ele>
        <time>2016-12-24T04:59:09Z</time>
      </trkpt>
      <trkpt lat="46.14713" lon="1.89512">
        <ele>475</ele>
        <time>2016-12-24T05:01:09Z</time>
      </trkpt>
      <trkpt lat="46.14719" lon="1.89516">
        <ele>475</ele>
        <time>2016-12-24T05:03:09Z</time>
      </trkpt>
      <trkpt lat="46.14741" lon="1.8953">
        <ele>474</ele>
        <time>2016-12-24T05:05:09Z</time>
      </trkpt>
      <trkpt lat="46.14749" lon="1.89534">
        <ele>473</ele>
        <time>2016-12-24T05:07:09Z</time>
      </trkpt>
      <trkpt lat="46.14775" lon="1.89539">
        <ele>469</ele>
        <time>2016-12-24T05:09:09Z</time>
      </trkpt>
      <trkpt lat="46.14784" lon="1.89542">
        <ele>468</ele>
        <time>2016-12-24T05:11:09Z</time>
      </trkpt>
      <trkpt lat="46.14799" lon="1.89548">
        <ele>466</ele>
        <time>2016-12-24T05:13:09Z</time>
      </trkpt>
      <trkpt lat="46.14807" lon="1.89552">
        <ele>466</ele>
        <time>2016-12-24T05:15:09Z</time>
      </trkpt>
      <trkpt lat="46.1482" lon="1.89556">
        <ele>464</ele>
        <time>2016-12-24T05:17:09Z</time>
      </trkpt>
      <trkpt lat="46.14822" lon="1.89559">
        <ele>465</ele>
        <time>2016-12-24T05:19:09Z</time>
      </trkpt>
      <trkpt lat="46.14834" lon="1.89565">
        <ele>464</ele>
        <time>2016-12-24T05:21:09Z</time>
      </trkpt>
      <trkpt lat="46.14839" lon="1.89567">
        <ele>463</ele>
        <time>2016-12-24T05:23:09Z</time>
      </trkpt>
      <trkpt lat="46.14845" lon="1.89568">
        <ele>462</ele>
        <time>2016-12-24T05:25:09Z</time>
      </trkpt>
      <trkpt lat="46.14856" lon="1.89575">
        <ele>460</ele>
        <time>2016-12-24T05:27:09Z</time>
      </trkpt>
      <trkpt lat="46.14874" lon="1.89585">
        <ele>457</ele>
        <time>2016-12-24T05:29:09Z</time>
      </trkpt>
      <trkpt lat="46.14881" lon="1.8959">
        <ele>456</ele>
        <time>2016-12-24T05:31:09Z</time>
      </trkpt>
      <trkpt lat="46.14889" lon="1.89594">
        <ele>455</ele>
        <time>2016-12-24T05:33:09Z</time>
      </trkpt>
      <trkpt lat="46.14905" lon="1.89602">
        <ele>452</ele>
        <time>2016-12-24T05:35:09Z</time>
      </trkpt>
      <trkpt lat="46.14912" lon="1.89608">
        <ele>451</ele>
        <time>2016-12-24T05:37:09Z</time>
      </trkpt>
      <trkpt lat="46.14919" lon="1.89615">
        <ele>450</ele>
        <time>2016-12-24T05:39:09Z</time>
      </trkpt>
      <trkpt lat="46.14926" lon="1.89624">
        <ele>450</ele>
        <time>2016-12-24T05:41:09Z</time>
      </trkpt>
      <trkpt lat="46.14932" lon="1.89634">
        <ele>450</ele>
        <time>2016-12-24T05:43:09Z</time>
      </trkpt>
      <trkpt lat="46.14934" lon="1.89644">
        <ele>451</ele>
        <time>2016-12-24T05:45:09Z</time>
      </trkpt>
      <trkpt lat="46.14936" lon="1.89655">
        <ele>452</ele>
        <time>2016-12-24T05:47:09Z</time>
      </trkpt>
      <trkpt lat="46.14941" lon="1.89676">
        <ele>451</ele>
        <time>2016-12-24T05:49:09Z</time>
      </trkpt>
      <trkpt lat="46.14943" lon="1.89687">
        <ele>450</ele>
        <time>2016-12-24T05:51:09Z</time>
      </trkpt>
      <trkpt lat="46.14946" lon="1.89697">
        <ele>449</ele>
        <time>2016-12-24T05:53:09Z</time>
      </trkpt>
      <trkpt lat="46.1495" lon="1.89708">
        <ele>448</ele>
        <time>2016-12-24T05:55:09Z</time>
      </trkpt>
      <trkpt lat="46.14955" lon="1.89717">
        <ele>447</ele>
        <time>2016-12-24T05:57:09Z</time>
      </trkpt>
      <trkpt lat="46.14958" lon="1.89726">
        <ele>445</ele>
        <time>2016-12-24T05:59:09Z</time>
      </trkpt>
      <trkpt lat="46.14966" lon="1.89753">
        <ele>442</ele>
        <time>2016-12-24T06:01:09Z</time>
      </trkpt>
      <trkpt lat="46.14969" lon="1.89762">
        <ele>441</ele>
        <time>2016-12-24T06:03:09Z</time>
      </trkpt>
      <trkpt lat="46.14972" lon="1.89771">
        <ele>440</ele>
        <time>2016-12-24T06:05:09Z</time>
      </trkpt>
      <trkpt lat="46.14975" lon="1.89778">
        <ele>439</ele>
        <time>2016-12-24T06:07:09Z</time>
      </trkpt>
      <trkpt lat="46.14978" lon="1.89785">
        <ele>438</ele>
        <time>2016-12-24T06:09:09Z</time>
      </trkpt>
      <trkpt lat="46.14981" lon="1.89789">
        <ele>437</ele>
        <time>2016-12-24T06:11:09Z</time>
      </trkpt>
      <trkpt lat="46.14983" lon="1.89792">
        <ele>436</ele>
        <time>2016-12-24T06:13:09Z</time>
      </trkpt>
      <trkpt lat="46.14984" lon="1.89793">
        <ele>436</ele>
        <time>2016-12-24T06:15:09Z</time>
      </trkpt>
      <trkpt lat="46.14994" lon="1.89793">
        <ele>434</ele>
        <time>2016-12-24T06:17:09Z</time>
      </trkpt>
      <trkpt lat="46.14999" lon="1.89794">
        <ele>433</ele>
        <time>2016-12-24T06:19:09Z</time>
      </trkpt>
      <trkpt lat="46.15002" lon="1.89795">
        <ele>433</ele>
        <time>2016-12-24T06:21:09Z</time>
      </trkpt>
      <trkpt lat="46.15008" lon="1.89777">
        <ele>434</ele>
        <time>2016-12-24T06:23:09Z</time>
      </trkpt>
      <trkpt lat="46.15025" lon="1.89762">
        <ele>434</ele>
        <time>2016-12-24T06:25:09Z</time>
      </trkpt>
      <trkpt lat="46.1504" lon="1.89739">
        <ele>434</ele>
        <time>2016-12-24T06:27:09Z</time>
      </trkpt>
      <trkpt lat="46.15054" lon="1.89725">
        <ele>434</ele>
        <time>2016-12-24T06:29:09Z</time>
      </trkpt>
      <trkpt lat="46.15067" lon="1.89705">
        <ele>435</ele>
        <time>2016-12-24T06:31:09Z</time>
      </trkpt>
      <trkpt lat="46.15081" lon="1.89684">
        <ele>435</ele>
        <time>2016-12-24T06:33:09Z</time>
      </trkpt>
      <trkpt lat="46.15097" lon="1.89656">
        <ele>436</ele>
        <time>2016-12-24T06:35:09Z</time>
      </trkpt>
      <trkpt lat="46.15109" lon="1.89642">
        <ele>436</ele>
        <time>2016-12-24T06:37:09Z</time>
      </trkpt>
      <trkpt lat="46.15127" lon="1.89616">
        <ele>436</ele>
        <time>2016-12-24T06:39:09Z</time>
      </trkpt>
      <trkpt lat="46.15152" lon="1.89575">
        <ele>436</ele>
        <time>2016-12-24T06:41:09Z</time>
      </trkpt>
      <trkpt lat="46.15163" lon="1.89554">
        <ele>436</ele>
        <time>2016-12-24T06:43:09Z</time>
      </trkpt>
      <trkpt lat="46.15177" lon="1.89533">
        <ele>438</ele>
        <time>2016-12-24T06:45:09Z</time>
      </trkpt>
      <trkpt lat="46.15194" lon="1.89505">
        <ele>440</ele>
        <time>2016-12-24T06:47:09Z</time>
      </trkpt>
      <trkpt lat="46.15218" lon="1.89476">
        <ele>443</ele>
        <time>2016-12-24T06:49:09Z</time>
      </trkpt>
      <trkpt lat="46.15233" lon="1.89451">
        <ele>444</ele>
        <time>2016-12-24T06:51:09Z</time>
      </trkpt>
      <trkpt lat="46.15251" lon="1.89419">
        <ele>446</ele>
        <time>2016-12-24T06:53:09Z</time>
      </trkpt>
      <trkpt lat="46.15272" lon="1.89394">
        <ele>450</ele>
        <time>2016-12-24T06:55:09Z</time>
      </trkpt>
      <trkpt lat="46.1528" lon="1.89377">
        <ele>452</ele>
        <time>2016-12-24T06:57:09Z</time>
      </trkpt>
      <trkpt lat="46.15278" lon="1.89372">
        <ele>451</ele>
        <time>2016-12-24T06:59:09Z</time>
      </trkpt>
      <trkpt lat="46.15269" lon="1.89358">
        <ele>450</ele>
        <time>2016-12-24T07:01:09Z</time>
      </trkpt>
      <trkpt lat="46.15262" lon="1.89343">
        <ele>449</ele>
        <time>2016-12-24T07:03:09Z</time>
      </trkpt>
      <trkpt lat="46.15259" lon="1.89339">
        <ele>449</ele>
        <time>2016-12-24T07:05:09Z</time>
      </trkpt>
      <trkpt lat="46.15255" lon="1.89331">
        <ele>448</ele>
        <time>2016-12-24T07:07:09Z</time>
      </trkpt>
      <trkpt lat="46.15252" lon="1.89327">
        <ele>447</ele>
        <time>2016-12-24T07:09:09Z</time>
      </trkpt>
      <trkpt lat="46.15248" lon="1.8932">
        <ele>447</ele>
        <time>2016-12-24T07:11:09Z</time>
      </trkpt>
      <trkpt lat="46.1524" lon="1.89301">
        <ele>446</ele>
        <time>2016-12-24T07:13:09Z</time>
      </trkpt>
      <trkpt lat="46.15238" lon="1.89296">
        <ele>446</ele>
        <time>2016-12-24T07:15:09Z</time>
      </trkpt>
      <trkpt lat="46.15236" lon="1.89291">
        <ele>446</ele>
        <time>2016-12-24T07:17:09Z</time>
      </trkpt>
      <trkpt lat="46.15229" lon="1.89276">
        <ele>446</ele>
        <time>2016-12-24T07:19:09Z</time>
      </trkpt>
      <trkpt lat="46.15227" lon="1.89271">
        <ele>446</ele>
        <time>2016-12-24T07:21:09Z</time>
      </trkpt>
      <trkpt lat="46.15226" lon="1.8927">
        <ele>446</ele>
        <time>2016-12-24T07:23:09Z</time>
      </trkpt>
      <trkpt lat="46.15217" lon="1.89262">
        <ele>446</ele>
        <time>2016-12-24T07:25:09Z</time>
      </trkpt>
      <trkpt lat="46.15213" lon="1.8926">
        <ele>446</ele>
        <time>2016-12-24T07:27:09Z</time>
      </trkpt>
      <trkpt lat="46.15202" lon="1.89249">
        <ele>446</ele>
        <time>2016-12-24T07:29:09Z</time>
      </trkpt>
      <trkpt lat="46.15189" lon="1.89242">
        <ele>447</ele>
        <time>2016-12-24T07:31:09Z</time>
      </trkpt>
      <trkpt lat="46.1518" lon="1.89231">
        <ele>448</ele>
        <time>2016-12-24T07:33:09Z</time>
      </trkpt>
      <trkpt lat="46.1518" lon="1.8922">
        <ele>450</ele>
        <time>2016-12-24T07:35:09Z</time>
      </trkpt>
      <trkpt lat="46.1518" lon="1.89213">
        <ele>451</ele>
        <time>2016-12-24T07:37:09Z</time>
      </trkpt>
      <trkpt lat="46.15179" lon="1.8921">
        <ele>451</ele>
        <time>2016-12-24T07:39:09Z</time>
      </trkpt>
      <trkpt lat="46.15179" lon="1.89207">
        <ele>451</ele>
        <time>2016-12-24T07:41:09Z</time>
      </trkpt>
      <trkpt lat="46.15171" lon="1.89198">
        <ele>453</ele>
        <time>2016-12-24T07:43:09Z</time>
      </trkpt>
      <trkpt lat="46.15168" lon="1.89195">
        <ele>453</ele>
        <time>2016-12-24T07:45:09Z</time>
      </trkpt>
      <trkpt lat="46.15166" lon="1.89191">
        <ele>454</ele>
        <time>2016-12-24T07:47:09Z</time>
      </trkpt>
      <trkpt lat="46.15165" lon="1.89187">
        <ele>454</ele>
        <time>2016-12-24T07:49:09Z</time>
      </trkpt>
      <trkpt lat="46.15164" lon="1.89184">
        <ele>455</ele>
        <time>2016-12-24T07:51:09Z</time>
      </trkpt>
      <trkpt lat="46.15163" lon="1.8918">
        <ele>455</ele>
        <time>2016-12-24T07:53:09Z</time>
      </trkpt>
      <trkpt lat="46.15162" lon="1.89177">
        <ele>455</ele>
        <time>2016-12-24T07:55:09Z</time>
      </trkpt>
      <trkpt lat="46.15163" lon="1.89174">
        <ele>456</ele>
        <time>2016-12-24T07:57:09Z</time>
      </trkpt>
      <trkpt lat="46.15165" lon="1.89172">
        <ele>456</ele>
        <time>2016-12-24T07:59:09Z</time>
      </trkpt>
      <trkpt lat="46.15165" lon="1.8917">
        <ele>456</ele>
        <time>2016-12-24T08:01:09Z</time>
      </trkpt>
      <trkpt lat="46.15169" lon="1.89167">
        <ele>457</ele>
        <time>2016-12-24T08:03:09Z</time>
      </trkpt>
      <trkpt lat="46.1517" lon="1.89165">
        <ele>457</ele>
        <time>2016-12-24T08:05:09Z</time>
      </trkpt>
      <trkpt lat="46.15171" lon="1.89163">
        <ele>457</ele>
        <time>2016-12-24T08:07:09Z</time>
      </trkpt>
      <trkpt lat="46.15174" lon="1.89161">
        <ele>457</ele>
        <time>2016-12-24T08:09:09Z</time>
      </trkpt>
      <trkpt lat="46.15176" lon="1.89161">
        <ele>457</ele>
        <time>2016-12-24T08:11:09Z</time>
      </trkpt>
      <trkpt lat="46.15182" lon="1.89155">
        <ele>458</ele>
        <time>2016-12-24T08:13:09Z</time>
      </trkpt>
      <trkpt lat="46.1519" lon="1.89148">
        <ele>458</ele>
        <time>2016-12-24T08:15:09Z</time>
      </trkpt>
      <trkpt lat="46.15196" lon="1.89142">
        <ele>459</ele>
        <time>2016-12-24T08:17:09Z</time>
      </trkpt>
      <trkpt lat="46.15202" lon="1.89131">
        <ele>460</ele>
        <time>2016-12-24T08:19:09Z</time>
      </trkpt>
      <trkpt lat="46.15205" lon="1.89128">
        <ele>460</ele>
        <time>2016-12-24T08:21:09Z</time>
      </trkpt>
      <trkpt lat="46.15207" lon="1.89125">
        <ele>460</ele>
        <time>2016-12-24T08:23:09Z</time>
      </trkpt>
      <trkpt lat="46.1521" lon="1.89122">
        <ele>461</ele>
        <time>2016-12-24T08:25:09Z</time>
      </trkpt>
      <trkpt lat="46.15211" lon="1.89118">
        <ele>461</ele>
        <time>2016-12-24T08:27:09Z</time>
      </trkpt>
      <trkpt lat="46.15212" lon="1.89115">
        <ele>461</ele>
        <time>2016-12-24T08:29:09Z</time>
      </trkpt>
      <trkpt lat="46.15212" lon="1.89107">
        <ele>462</ele>
        <time>2016-12-24T08:31:09Z</time>
      </trkpt>
      <trkpt lat="46.15214" lon="1.89103">
        <ele>463</ele>
        <time>2016-12-24T08:33:09Z</time>
      </trkpt>
      <trkpt lat="46.15215" lon="1.891">
        <ele>463</ele>
        <time>2016-12-24T08:35:09Z</time>
      </trkpt>
      <trkpt lat="46.15217" lon="1.89096">
        <ele>464</ele>
        <time>2016-12-24T08:37:09Z</time>
      </trkpt>
      <trkpt lat="46.15219" lon="1.89092">
        <ele>464</ele>
        <time>2016-12-24T08:39:09Z</time>
      </trkpt>
      <trkpt lat="46.15221" lon="1.8908">
        <ele>465</ele>
        <time>2016-12-24T08:41:09Z</time>
      </trkpt>
      <trkpt lat="46.15224" lon="1.89027">
        <ele>465</ele>
        <time>2016-12-24T08:43:09Z</time>
      </trkpt>
      <trkpt lat="46.15223" lon="1.89019">
        <ele>464</ele>
        <time>2016-12-24T08:45:09Z</time>
      </trkpt>
      <trkpt lat="46.1521" lon="1.88975">
        <ele>466</ele>
        <time>2016-12-24T08:47:09Z</time>
      </trkpt>
      <trkpt lat="46.152" lon="1.8894">
        <ele>469</ele>
        <time>2016-12-24T08:49:09Z</time>
      </trkpt>
      <trkpt lat="46.152" lon="1.88935">
        <ele>469</ele>
        <time>2016-12-24T08:51:09Z</time>
      </trkpt>
      <trkpt lat="46.15203" lon="1.8892">
        <ele>470</ele>
        <time>2016-12-24T08:53:09Z</time>
      </trkpt>
      <trkpt lat="46.15205" lon="1.88911">
        <ele>470</ele>
        <time>2016-12-24T08:55:09Z</time>
      </trkpt>
      <trkpt lat="46.15207" lon="1.88898">
        <ele>472</ele>
        <time>2016-12-24T08:57:09Z</time>
      </trkpt>
      <trkpt lat="46.15211" lon="1.88883">
        <ele>473</ele>
        <time>2016-12-24T08:59:09Z</time>
      </trkpt>
      <trkpt lat="46.15212" lon="1.88877">
        <ele>474</ele>
        <time>2016-12-24T09:01:09Z</time>
      </trkpt>
      <trkpt lat="46.15212" lon="1.88872">
        <ele>474</ele>
        <time>2016-12-24T09:03:09Z</time>
      </trkpt>
      <trkpt lat="46.15212" lon="1.88865">
        <ele>475</ele>
        <time>2016-12-24T09:05:09Z</time>
      </trkpt>
      <trkpt lat="46.15212" lon="1.8886">
        <ele>476</ele>
        <time>2016-12-24T09:07:09Z</time>
      </trkpt>
      <trkpt lat="46.15213" lon="1.88854">
        <ele>476</ele>
        <time>2016-12-24T09:09:09Z</time>
      </trkpt>
      <trkpt lat="46.15217" lon="1.88838">
        <ele>477</ele>
        <time>2016-12-24T09:11:09Z</time>
      </trkpt>
      <trkpt lat="46.15221" lon="1.88828">
        <ele>478</ele>
        <time>2016-12-24T09:13:09Z</time>
      </trkpt>
      <trkpt lat="46.15228" lon="1.88806">
        <ele>480</ele>
        <time>2016-12-24T09:15:09Z</time>
      </trkpt>
      <trkpt lat="46.15235" lon="1.88789">
        <ele>482</ele>
        <time>2016-12-24T09:17:09Z</time>
      </trkpt>
      <trkpt lat="46.15242" lon="1.88777">
        <ele>483</ele>
        <time>2016-12-24T09:19:09Z</time>
      </trkpt>
      <trkpt lat="46.15246" lon="1.8877">
        <ele>483</ele>
        <time>2016-12-24T09:21:09Z</time>
      </trkpt>
      <trkpt lat="46.15249" lon="1.88767">
        <ele>483</ele>
        <time>2016-12-24T09:23:09Z</time>
      </trkpt>
      <trkpt lat="46.15251" lon="1.88764">
        <ele>484</ele>
        <time>2016-12-24T09:25:09Z</time>
      </trkpt>
      <trkpt lat="46.15262" lon="1.88757">
        <ele>484</ele>
        <time>2016-12-24T09:27:09Z</time>
      </trkpt>
      <trkpt lat="46.15268" lon="1.8875">
        <ele>484</ele>
        <time>2016-12-24T09:29:09Z</time>
      </trkpt>
      <trkpt lat="46.15262" lon="1.88745">
        <ele>485</ele>
        <time>2016-12-24T09:31:09Z</time>
      </trkpt>
      <trkpt lat="46.15241" lon="1.88746">
        <ele>488</ele>
        <time>2016-12-24T09:33:09Z</time>
      </trkpt>
      <trkpt lat="46.15228" lon="1.88748">
        <ele>489</ele>
        <time>2016-12-24T09:35:09Z</time>
      </trkpt>
      <trkpt lat="46.15222" lon="1.88748">
        <ele>490</ele>
        <time>2016-12-24T09:37:09Z</time>
      </trkpt>
      <trkpt lat="46.15219" lon="1.88745">
        <ele>491</ele>
        <time>2016-12-24T09:39:09Z</time>
      </trkpt>
      <trkpt lat="46.15215" lon="1.88739">
        <ele>492</ele>
        <time>2016-12-24T09:41:09Z</time>
      </trkpt>
      <trkpt lat="46.15214" lon="1.88735">
        <ele>493</ele>
        <time>2016-12-24T09:43:09Z</time>
      </trkpt>
      <trkpt lat="46.15212" lon="1.88732">
        <ele>493</ele>
        <time>2016-12-24T09:45:09Z</time>
      </trkpt>
      <trkpt lat="46.15211" lon="1.88729">
        <ele>494</ele>
        <time>2016-12-24T09:47:09Z</time>
      </trkpt>
      <trkpt lat="46.1521" lon="1.88727">
        <ele>494</ele>
        <time>2016-12-24T09:49:09Z</time>
      </trkpt>
      <trkpt lat="46.1521" lon="1.88723">
        <ele>494</ele>
        <time>2016-12-24T09:51:09Z</time>
      </trkpt>
      <trkpt lat="46.1521" lon="1.88719">
        <ele>495</ele>
        <time>2016-12-24T09:53:09Z</time>
      </trkpt>
      <trkpt lat="46.1521" lon="1.88706">
        <ele>496</ele>
        <time>2016-12-24T09:55:09Z</time>
      </trkpt>
      <trkpt lat="46.15208" lon="1.88701">
        <ele>497</ele>
        <time>2016-12-24T09:57:09Z</time>
      </trkpt>
      <trkpt lat="46.15205" lon="1.88694">
        <ele>498</ele>
        <time>2016-12-24T09:59:09Z</time>
      </trkpt>
      <trkpt lat="46.15203" lon="1.88691">
        <ele>499</ele>
        <time>2016-12-24T10:01:09Z</time>
      </trkpt>
      <trkpt lat="46.152" lon="1.88688">
        <ele>499</ele>
        <time>2016-12-24T10:03:09Z</time>
      </trkpt>
      <trkpt lat="46.15198" lon="1.88685">
        <ele>500</ele>
        <time>2016-12-24T10:05:09Z</time>
      </trkpt>
      <trkpt lat="46.15192" lon="1.88681">
        <ele>502</ele>
        <time>2016-12-24T10:07:09Z</time>
      </trkpt>
      <trkpt lat="46.1519" lon="1.88679">
        <ele>502</ele>
        <time>2016-12-24T10:09:09Z</time>
      </trkpt>
      <trkpt lat="46.15189" lon="1.88675">
        <ele>503</ele>
        <time>2016-12-24T10:11:09Z</time>
      </trkpt>
      <trkpt lat="46.15188" lon="1.88674">
        <ele>503</ele>
        <time>2016-12-24T10:13:09Z</time>
      </trkpt>
      <trkpt lat="46.15186" lon="1.88673">
        <ele>504</ele>
        <time>2016-12-24T10:15:09Z</time>
      </trkpt>
      <trkpt lat="46.15185" lon="1.88671">
        <ele>504</ele>
        <time>2016-12-24T10:17:09Z</time>
      </trkpt>
      <trkpt lat="46.15185" lon="1.88668">
        <ele>504</ele>
        <time>2016-12-24T10:19:09Z</time>
      </trkpt>
      <trkpt lat="46.15185" lon="1.88666">
        <ele>505</ele>
        <time>2016-12-24T10:21:09Z</time>
      </trkpt>
      <trkpt lat="46.15185" lon="1.88663">
        <ele>505</ele>
        <time>2016-12-24T10:23:09Z</time>
      </trkpt>
      <trkpt lat="46.15188" lon="1.88656">
        <ele>505</ele>
        <time>2016-12-24T10:25:09Z</time>
      </trkpt>
      <trkpt lat="46.15191" lon="1.88649">
        <ele>505</ele>
        <time>2016-12-24T10:27:09Z</time>
      </trkpt>
      <trkpt lat="46.15193" lon="1.88635">
        <ele>505</ele>
        <time>2016-12-24T10:29:09Z</time>
      </trkpt>
      <trkpt lat="46.15194" lon="1.8863">
        <ele>506</ele>
        <time>2016-12-24T10:31:09Z</time>
      </trkpt>
      <trkpt lat="46.15194" lon="1.88626">
        <ele>506</ele>
        <time>2016-12-24T10:33:09Z</time>
      </trkpt>
      <trkpt lat="46.15195" lon="1.88622">
        <ele>506</ele>
        <time>2016-12-24T10:35:09Z</time>
      </trkpt>
      <trkpt lat="46.15197" lon="1.88615">
        <ele>506</ele>
        <time>2016-12-24T10:37:09Z</time>
      </trkpt>
      <trkpt lat="46.15197" lon="1.88603">
        <ele>507</ele>
        <time>2016-12-24T10:39:09Z</time>
      </trkpt>
      <trkpt lat="46.15197" lon="1.88599">
        <ele>507</ele>
        <time>2016-12-24T10:41:09Z</time>
      </trkpt>
      <trkpt lat="46.15196" lon="1.88595">
        <ele>508</ele>
        <time>2016-12-24T10:43:09Z</time>
      </trkpt>
      <trkpt lat="46.15196" lon="1.88591">
        <ele>508</ele>
        <time>2016-12-24T10:45:09Z</time>
      </trkpt>
      <trkpt lat="46.15195" lon="1.88587">
        <ele>509</ele>
        <time>2016-12-24T10:47:09Z</time>
      </trkpt>
      <trkpt lat="46.15193" lon="1.8858">
        <ele>509</ele>
        <time>2016-12-24T10:49:09Z</time>
      </trkpt>
      <trkpt lat="46.15193" lon="1.88578">
        <ele>509</ele>
        <time>2016-12-24T10:51:09Z</time>
      </trkpt>
      <trkpt lat="46.15193" lon="1.88576">
        <ele>509</ele>
        <time>2016-12-24T10:53:09Z</time>
      </trkpt>
      <trkpt lat="46.15192" lon="1.88573">
        <ele>510</ele>
        <time>2016-12-24T10:55:09Z</time>
      </trkpt>
      <trkpt lat="46.15191" lon="1.8857">
        <ele>510</ele>
        <time>2016-12-24T10:57:09Z</time>
      </trkpt>
      <trkpt lat="46.15191" lon="1.88567">
        <ele>510</ele>
        <time>2016-12-24T10:59:09Z</time>
      </trkpt>
      <trkpt lat="46.15188" lon="1.88563">
        <ele>511</ele>
        <time>2016-12-24T11:01:09Z</time>
      </trkpt>
      <trkpt lat="46.15186" lon="1.88558">
        <ele>511</ele>
        <time>2016-12-24T11:03:09Z</time>
      </trkpt>
      <trkpt lat="46.15184" lon="1.88555">
        <ele>512</ele>
        <time>2016-12-24T11:05:09Z</time>
      </trkpt>
      <trkpt lat="46.15178" lon="1.88546">
        <ele>513</ele>
        <time>2016-12-24T11:07:09Z</time>
      </trkpt>
      <trkpt lat="46.15177" lon="1.88537">
        <ele>513</ele>
        <time>2016-12-24T11:09:09Z</time>
      </trkpt>
      <trkpt lat="46.15173" lon="1.88512">
        <ele>514</ele>
        <time>2016-12-24T11:11:09Z</time>
      </trkpt>
      <trkpt lat="46.15165" lon="1.88483">
        <ele>517</ele>
        <time>2016-12-24T11:13:09Z</time>
      </trkpt>
      <trkpt lat="46.15168" lon="1.8846">
        <ele>518</ele>
        <time>2016-12-24T11:15:09Z</time>
      </trkpt>
      <trkpt lat="46.15169" lon="1.88456">
        <ele>518</ele>
        <time>2016-12-24T11:17:09Z</time>
      </trkpt>
      <trkpt lat="46.15169" lon="1.88453">
        <ele>518</ele>
        <time>2016-12-24T11:19:09Z</time>
      </trkpt>
      <trkpt lat="46.15167" lon="1.88444">
        <ele>519</ele>
        <time>2016-12-24T11:21:09Z</time>
      </trkpt>
      <trkpt lat="46.15168" lon="1.88432">
        <ele>520</ele>
        <time>2016-12-24T11:23:09Z</time>
      </trkpt>
      <trkpt lat="46.15169" lon="1.8843">
        <ele>520</ele>
        <time>2016-12-24T11:25:09Z</time>
      </trkpt>
      <trkpt lat="46.15172" lon="1.88427">
        <ele>519</ele>
        <time>2016-12-24T11:27:09Z</time>
      </trkpt>
      <trkpt lat="46.15175" lon="1.88421">
        <ele>519</ele>
        <time>2016-12-24T11:29:09Z</time>
      </trkpt>
      <trkpt lat="46.15179" lon="1.88412">
        <ele>519</ele>
        <time>2016-12-24T11:31:09Z</time>
      </trkpt>
      <trkpt lat="46.1518" lon="1.88407">
        <ele>519</ele>
        <time>2016-12-24T11:33:09Z</time>
      </trkpt>
      <trkpt lat="46.15181" lon="1.88405">
        <ele>519</ele>
        <time>2016-12-24T11:35:09Z</time>
      </trkpt>
      <trkpt lat="46.15182" lon="1.88404">
        <ele>519</ele>
        <time>2016-12-24T11:37:09Z</time>
      </trkpt>
      <trkpt lat="46.15181" lon="1.884">
        <ele>520</ele>
        <time>2016-12-24T11:39:09Z</time>
      </trkpt>
      <trkpt lat="46.15182" lon="1.88398">
        <ele>520</ele>
        <time>2016-12-24T11:41:09Z</time>
      </trkpt>
      <trkpt lat="46.15182" lon="1.8839">
        <ele>520</ele>
        <time>2016-12-24T11:43:09Z</time>
      </trkpt>
      <trkpt lat="46.15181" lon="1.88386">
        <ele>521</ele>
        <time>2016-12-24T11:45:09Z</time>
      </trkpt>
      <trkpt lat="46.15178" lon="1.8837">
        <ele>523</ele>
        <time>2016-12-24T11:47:09Z</time>
      </trkpt>
      <trkpt lat="46.15177" lon="1.88367">
        <ele>523</ele>
        <time>2016-12-24T11:49:09Z</time>
      </trkpt>
      <trkpt lat="46.1518" lon="1.88362">
        <ele>523</ele>
        <time>2016-12-24T11:51:09Z</time>
      </trkpt>
      <trkpt lat="46.15185" lon="1.88344">
        <ele>524</ele>
        <time>2016-12-24T11:53:09Z</time>
      </trkpt>
      <trkpt lat="46.15185" lon="1.88338">
        <ele>524</ele>
        <time>2016-12-24T11:55:09Z</time>
      </trkpt>
      <trkpt lat="46.15184" lon="1.88334">
        <ele>525</ele>
        <time>2016-12-24T11:57:09Z</time>
      </trkpt>
      <trkpt lat="46.15184" lon="1.88331">
        <ele>525</ele>
        <time>2016-12-24T11:59:09Z</time>
      </trkpt>
      <trkpt lat="46.15184" lon="1.88327">
        <ele>525</ele>
        <time>2016-12-24T12:01:09Z</time>
      </trkpt>
      <trkpt lat="46.15184" lon="1.88326">
        <ele>525</ele>
        <time>2016-12-24T12:03:09Z</time>
      </trkpt>
      <trkpt lat="46.15182" lon="1.88321">
        <ele>525</ele>
        <time>2016-12-24T12:05:09Z</time>
      </trkpt>
      <trkpt lat="46.1518" lon="1.88314">
        <ele>526</ele>
        <time>2016-12-24T12:07:09Z</time>
      </trkpt>
      <trkpt lat="46.15178" lon="1.88311">
        <ele>526</ele>
        <time>2016-12-24T12:09:09Z</time>
      </trkpt>
      <trkpt lat="46.15176" lon="1.88307">
        <ele>527</ele>
        <time>2016-12-24T12:11:09Z</time>
      </trkpt>
      <trkpt lat="46.15176" lon="1.88304">
        <ele>527</ele>
        <time>2016-12-24T12:13:09Z</time>
      </trkpt>
      <trkpt lat="46.15176" lon="1.88301">
        <ele>527</ele>
        <time>2016-12-24T12:15:09Z</time>
      </trkpt>
      <trkpt lat="46.15171" lon="1.88296">
        <ele>527</ele>
        <time>2016-12-24T12:17:09Z</time>
      </trkpt>
      <trkpt lat="46.15164" lon="1.88254">
        <ele>529</ele>
        <time>2016-12-24T12:19:09Z</time>
      </trkpt>
      <trkpt lat="46.15136" lon="1.88258">
        <ele>534</ele>
        <time>2016-12-24T12:21:09Z</time>
      </trkpt>
      <trkpt lat="46.15129" lon="1.88256">
        <ele>535</ele>
        <time>2016-12-24T12:23:09Z</time>
      </trkpt>
      <trkpt lat="46.15124" lon="1.88255">
        <ele>536</ele>
        <time>2016-12-24T12:25:09Z</time>
      </trkpt>
      <trkpt lat="46.15122" lon="1.88255">
        <ele>537</ele>
        <time>2016-12-24T12:27:09Z</time>
      </trkpt>
      <trkpt lat="46.15117" lon="1.88254">
        <ele>538</ele>
        <time>2016-12-24T12:29:09Z</time>
      </trkpt>
      <trkpt lat="46.15112" lon="1.88254">
        <ele>539</ele>
        <time>2016-12-24T12:31:09Z</time>
      </trkpt>
      <trkpt lat="46.1511" lon="1.88254">
        <ele>539</ele>
        <time>2016-12-24T12:33:09Z</time>
      </trkpt>
      <trkpt lat="46.15107" lon="1.88253">
        <ele>540</ele>
        <time>2016-12-24T12:35:09Z</time>
      </trkpt>
      <trkpt lat="46.15101" lon="1.88252">
        <ele>541</ele>
        <time>2016-12-24T12:37:09Z</time>
      </trkpt>
      <trkpt lat="46.15096" lon="1.88249">
        <ele>542</ele>
        <time>2016-12-24T12:39:09Z</time>
      </trkpt>
      <trkpt lat="46.15093" lon="1.88249">
        <ele>542</ele>
        <time>2016-12-24T12:41:09Z</time>
      </trkpt>
      <trkpt lat="46.1509" lon="1.88249">
        <ele>543</ele>
        <time>2016-12-24T12:43:09Z</time>
      </trkpt>
      <trkpt lat="46.15083" lon="1.88251">
        <ele>544</ele>
        <time>2016-12-24T12:45:09Z</time>
      </trkpt>
      <trkpt lat="46.15081" lon="1.88252">
        <ele>544</ele>
        <time>2016-12-24T12:47:09Z</time>
      </trkpt>
      <trkpt lat="46.15077" lon="1.88253">
        <ele>545</ele>
        <time>2016-12-24T12:49:09Z</time>
      </trkpt>
      <trkpt lat="46.15076" lon="1.88254">
        <ele>545</ele>
        <time>2016-12-24T12:51:09Z</time>
      </trkpt>
      <trkpt lat="46.15074" lon="1.88255">
        <ele>545</ele>
        <time>2016-12-24T12:53:09Z</time>
      </trkpt>
      <trkpt lat="46.15071" lon="1.88256">
        <ele>546</ele>
        <time>2016-12-24T12:55:09Z</time>
      </trkpt>
      <trkpt lat="46.15069" lon="1.88257">
        <ele>546</ele>
        <time>2016-12-24T12:57:09Z</time>
      </trkpt>
      <trkpt lat="46.15062" lon="1.88258">
        <ele>547</ele>
        <time>2016-12-24T12:59:09Z</time>
      </trkpt>
      <trkpt lat="46.15059" lon="1.8826">
        <ele>547</ele>
        <time>2016-12-24T13:01:09Z</time>
      </trkpt>
      <trkpt lat="46.15051" lon="1.88262">
        <ele>549</ele>
        <time>2016-12-24T13:03:09Z</time>
      </trkpt>
      <trkpt lat="46.15048" lon="1.88264">
        <ele>549</ele>
        <time>2016-12-24T13:05:09Z</time>
      </trkpt>
      <trkpt lat="46.15045" lon="1.88265">
        <ele>550</ele>
        <time>2016-12-24T13:07:09Z</time>
      </trkpt>
      <trkpt lat="46.15042" lon="1.88266">
        <ele>550</ele>
        <time>2016-12-24T13:09:09Z</time>
      </trkpt>
      <trkpt lat="46.1504" lon="1.88266">
        <ele>550</ele>
        <time>2016-12-24T13:11:09Z</time>
      </trkpt>
      <trkpt lat="46.15036" lon="1.88269">
        <ele>551</ele>
        <time>2016-12-24T13:13:09Z</time>
      </trkpt>
      <trkpt lat="46.15031" lon="1.88271">
        <ele>552</ele>
        <time>2016-12-24T13:15:09Z</time>
      </trkpt>
      <trkpt lat="46.1503" lon="1.88272">
        <ele>552</ele>
        <time>2016-12-24T13:17:09Z</time>
      </trkpt>
      <trkpt lat="46.15025" lon="1.8827">
        <ele>553</ele>
        <time>2016-12-24T13:19:09Z</time>
      </trkpt>
      <trkpt lat="46.1502" lon="1.88267">
        <ele>554</ele>
        <time>2016-12-24T13:21:09Z</time>
      </trkpt>
      <trkpt lat="46.15018" lon="1.88266">
        <ele>554</ele>
        <time>2016-12-24T13:23:09Z</time>
      </trkpt>
      <trkpt lat="46.15009" lon="1.88262">
        <ele>556</ele>
        <time>2016-12-24T13:25:09Z</time>
      </trkpt>
      <trkpt lat="46.15005" lon="1.8826">
        <ele>557</ele>
        <time>2016-12-24T13:27:09Z</time>
      </trkpt>
      <trkpt lat="46.15" lon="1.88259">
        <ele>558</ele>
        <time>2016-12-24T13:29:09Z</time>
      </trkpt>
      <trkpt lat="46.14997" lon="1.88259">
        <ele>559</ele>
        <time>2016-12-24T13:31:09Z</time>
      </trkpt>
      <trkpt lat="46.14995" lon="1.88259">
        <ele>559</ele>
        <time>2016-12-24T13:33:09Z</time>
      </trkpt>
      <trkpt lat="46.14992" lon="1.88258">
        <ele>560</ele>
        <time>2016-12-24T13:35:09Z</time>
      </trkpt>
      <trkpt lat="46.1499" lon="1.88258">
        <ele>560</ele>
        <time>2016-12-24T13:37:09Z</time>
      </trkpt>
      <trkpt lat="46.14987" lon="1.88257">
        <ele>561</ele>
        <time>2016-12-24T13:39:09Z</time>
      </trkpt>
      <trkpt lat="46.14984" lon="1.88259">
        <ele>561</ele>
        <time>2016-12-24T13:41:09Z</time>
      </trkpt>
      <trkpt lat="46.14978" lon="1.88261">
        <ele>562</ele>
        <time>2016-12-24T13:43:09Z</time>
      </trkpt>
      <trkpt lat="46.14975" lon="1.8826">
        <ele>563</ele>
        <time>2016-12-24T13:45:09Z</time>
      </trkpt>
      <trkpt lat="46.14973" lon="1.88258">
        <ele>563</ele>
        <time>2016-12-24T13:47:09Z</time>
      </trkpt>
      <trkpt lat="46.14967" lon="1.88254">
        <ele>565</ele>
        <time>2016-12-24T13:49:09Z</time>
      </trkpt>
      <trkpt lat="46.14958" lon="1.88249">
        <ele>567</ele>
        <time>2016-12-24T13:51:09Z</time>
      </trkpt>
      <trkpt lat="46.14954" lon="1.88249">
        <ele>567</ele>
        <time>2016-12-24T13:53:09Z</time>
      </trkpt>
      <trkpt lat="46.14951" lon="1.88248">
        <ele>568</ele>
        <time>2016-12-24T13:55:09Z</time>
      </trkpt>
      <trkpt lat="46.14936" lon="1.88246">
        <ele>570</ele>
        <time>2016-12-24T13:57:09Z</time>
      </trkpt>
      <trkpt lat="46.14931" lon="1.88244">
        <ele>571</ele>
        <time>2016-12-24T13:59:09Z</time>
      </trkpt>
      <trkpt lat="46.14922" lon="1.88242">
        <ele>573</ele>
        <time>2016-12-24T14:01:09Z</time>
      </trkpt>
      <trkpt lat="46.1492" lon="1.88242">
        <ele>573</ele>
        <time>2016-12-24T14:03:09Z</time>
      </trkpt>
      <trkpt lat="46.1492" lon="1.88242">
        <ele>573</ele>
        <time>2016-12-24T14:05:09Z</time>
      </trkpt>
      <trkpt lat="46.14917" lon="1.88242">
        <ele>574</ele>
        <time>2016-12-24T14:07:09Z</time>
      </trkpt>
      <trkpt lat="46.14915" lon="1.88242">
        <ele>574</ele>
        <time>2016-12-24T14:09:09Z</time>
      </trkpt>
      <trkpt lat="46.14913" lon="1.88242">
        <ele>574</ele>
        <time>2016-12-24T14:11:09Z</time>
      </trkpt>
      <trkpt lat="46.1491" lon="1.88241">
        <ele>575</ele>
        <time>2016-12-24T14:13:09Z</time>
      </trkpt>
      <trkpt lat="46.14902" lon="1.8824">
        <ele>576</ele>
        <time>2016-12-24T14:15:09Z</time>
      </trkpt>
      <trkpt lat="46.14899" lon="1.88239">
        <ele>577</ele>
        <time>2016-12-24T14:17:09Z</time>
      </trkpt>
      <trkpt lat="46.14896" lon="1.88238">
        <ele>577</ele>
        <time>2016-12-24T14:19:09Z</time>
      </trkpt>
      <trkpt lat="46.14895" lon="1.88238">
        <ele>578</ele>
        <time>2016-12-24T14:21:09Z</time>
      </trkpt>
      <trkpt lat="46.14891" lon="1.88237">
        <ele>578</ele>
        <time>2016-12-24T14:23:09Z</time>
      </trkpt>
      <trkpt lat="46.14884" lon="1.88236">
        <ele>580</ele>
        <time>2016-12-24T14:25:09Z</time>
      </trkpt>
      <trkpt lat="46.14881" lon="1.88235">
        <ele>580</ele>
        <time>2016-12-24T14:27:09Z</time>
      </trkpt>
      <trkpt lat="46.14878" lon="1.88235">
        <ele>581</ele>
        <time>2016-12-24T14:29:09Z</time>
      </trkpt>
      <trkpt lat="46.14875" lon="1.88234">
        <ele>582</ele>
        <time>2016-12-24T14:31:09Z</time>
      </trkpt>
      <trkpt lat="46.14872" lon="1.88232">
        <ele>582</ele>
        <time>2016-12-24T14:33:09Z</time>
      </trkpt>
      <trkpt lat="46.14869" lon="1.88231">
        <ele>583</ele>
        <time>2016-12-24T14:35:09Z</time>
      </trkpt>
      <trkpt lat="46.14858" lon="1.88226">
        <ele>585</ele>
        <time>2016-12-24T14:37:09Z</time>
      </trkpt>
      <trkpt lat="46.14848" lon="1.88221">
        <ele>587</ele>
        <time>2016-12-24T14:39:09Z</time>
      </trkpt>
      <trkpt lat="46.14845" lon="1.8822">
        <ele>587</ele>
        <time>2016-12-24T14:41:09Z</time>
      </trkpt>
      <trkpt lat="46.14842" lon="1.88219">
        <ele>588</ele>
        <time>2016-12-24T14:43:09Z</time>
      </trkpt>
      <trkpt lat="46.14841" lon="1.88222">
        <ele>588</ele>
        <time>2016-12-24T14:45:09Z</time>
      </trkpt>
      <trkpt lat="46.14838" lon="1.88227">
        <ele>589</ele>
        <time>2016-12-24T14:47:09Z</time>
      </trkpt>
      <trkpt lat="46.14836" lon="1.88229">
        <ele>589</ele>
        <time>2016-12-24T14:49:09Z</time>
      </trkpt>
      <trkpt lat="46.14831" lon="1.88235">
        <ele>591</ele>
        <time>2016-12-24T14:51:09Z</time>
      </trkpt>
      <trkpt lat="46.14825" lon="1.88253">
        <ele>593</ele>
        <time>2016-12-24T14:53:09Z</time>
      </trkpt>
      <trkpt lat="46.14824" lon="1.88262">
        <ele>593</ele>
        <time>2016-12-24T14:55:09Z</time>
      </trkpt>
      <trkpt lat="46.14822" lon="1.88269">
        <ele>594</ele>
        <time>2016-12-24T14:57:09Z</time>
      </trkpt>
      <trkpt lat="46.14818" lon="1.88281">
        <ele>595</ele>
        <time>2016-12-24T14:59:09Z</time>
      </trkpt>
      <trkpt lat="46.14816" lon="1.88289">
        <ele>596</ele>
        <time>2016-12-24T15:01:09Z</time>
      </trkpt>
      <trkpt lat="46.14815" lon="1.88293">
        <ele>596</ele>
        <time>2016-12-24T15:03:09Z</time>
      </trkpt>
      <trkpt lat="46.14813" lon="1.88297">
        <ele>597</ele>
        <time>2016-12-24T15:05:09Z</time>
      </trkpt>
      <trkpt lat="46.14805" lon="1.88316">
        <ele>599</ele>
        <time>2016-12-24T15:07:09Z</time>
      </trkpt>
      <trkpt lat="46.14801" lon="1.88324">
        <ele>601</ele>
        <time>2016-12-24T15:09:09Z</time>
      </trkpt>
      <trkpt lat="46.14797" lon="1.88331">
        <ele>602</ele>
        <time>2016-12-24T15:11:09Z</time>
      </trkpt>
      <trkpt lat="46.14795" lon="1.88335">
        <ele>603</ele>
        <time>2016-12-24T15:13:09Z</time>
      </trkpt>
      <trkpt lat="46.14792" lon="1.88339">
        <ele>604</ele>
        <time>2016-12-24T15:15:09Z</time>
      </trkpt>
      <trkpt lat="46.14774" lon="1.88377">
        <ele>608</ele>
        <time>2016-12-24T15:17:09Z</time>
      </trkpt>
      <trkpt lat="46.14771" lon="1.88386">
        <ele>609</ele>
        <time>2016-12-24T15:19:09Z</time>
      </trkpt>
      <trkpt lat="46.14769" lon="1.88391">
        <ele>610</ele>
        <time>2016-12-24T15:21:09Z</time>
      </trkpt>
      <trkpt lat="46.14757" lon="1.88423">
        <ele>612</ele>
        <time>2016-12-24T15:23:09Z</time>
      </trkpt>
      <trkpt lat="46.14755" lon="1.88426">
        <ele>613</ele>
        <time>2016-12-24T15:25:09Z</time>
      </trkpt>
      <trkpt lat="46.14753" lon="1.88428">
        <ele>613</ele>
        <time>2016-12-24T15:27:09Z</time>
      </trkpt>
      <trkpt lat="46.14751" lon="1.8843">
        <ele>614</ele>
        <time>2016-12-24T15:29:09Z</time>
      </trkpt>
      <trkpt lat="46.14749" lon="1.88432">
        <ele>614</ele>
        <time>2016-12-24T15:31:09Z</time>
      </trkpt>
      <trkpt lat="46.14745" lon="1.88438">
        <ele>615</ele>
        <time>2016-12-24T15:33:09Z</time>
      </trkpt>
      <trkpt lat="46.14742" lon="1.88442">
        <ele>615</ele>
        <time>2016-12-24T15:35:09Z</time>
      </trkpt>
      <trkpt lat="46.14738" lon="1.88449">
        <ele>615</ele>
        <time>2016-12-24T15:37:09Z</time>
      </trkpt>
      <trkpt lat="46.14736" lon="1.88451">
        <ele>615</ele>
        <time>2016-12-24T15:39:09Z</time>
      </trkpt>
      <trkpt lat="46.14735" lon="1.88454">
        <ele>615</ele>
        <time>2016-12-24T15:41:09Z</time>
      </trkpt>
      <trkpt lat="46.14733" lon="1.88455">
        <ele>615</ele>
        <time>2016-12-24T15:43:09Z</time>
      </trkpt>
      <trkpt lat="46.1473" lon="1.88459">
        <ele>616</ele>
        <time>2016-12-24T15:45:09Z</time>
      </trkpt>
      <trkpt lat="46.14728" lon="1.88461">
        <ele>616</ele>
        <time>2016-12-24T15:47:09Z</time>
      </trkpt>
      <trkpt lat="46.14726" lon="1.88464">
        <ele>616</ele>
        <time>2016-12-24T15:49:09Z</time>
      </trkpt>
      <trkpt lat="46.14724" lon="1.88466">
        <ele>616</ele>
        <time>2016-12-24T15:51:09Z</time>
      </trkpt>
      <trkpt lat="46.14721" lon="1.88473">
        <ele>616</ele>
        <time>2016-12-24T15:53:09Z</time>
      </trkpt>
      <trkpt lat="46.14719" lon="1.88475">
        <ele>617</ele>
        <time>2016-12-24T15:55:09Z</time>
      </trkpt>
      <trkpt lat="46.14715" lon="1.8848">
        <ele>617</ele>
        <time>2016-12-24T15:57:09Z</time>
      </trkpt>
      <trkpt lat="46.14711" lon="1.88484">
        <ele>618</ele>
        <time>2016-12-24T15:59:09Z</time>
      </trkpt>
      <trkpt lat="46.14708" lon="1.88485">
        <ele>619</ele>
        <time>2016-12-24T16:01:09Z</time>
      </trkpt>
      <trkpt lat="46.14707" lon="1.88486">
        <ele>619</ele>
        <time>2016-12-24T16:03:09Z</time>
      </trkpt>
      <trkpt lat="46.14707" lon="1.88487">
        <ele>619</ele>
        <time>2016-12-24T16:05:09Z</time>
      </trkpt>
      <trkpt lat="46.14703" lon="1.8849">
        <ele>619</ele>
        <time>2016-12-24T16:07:09Z</time>
      </trkpt>
      <trkpt lat="46.147" lon="1.88492">
        <ele>620</ele>
        <time>2016-12-24T16:09:09Z</time>
      </trkpt>
      <trkpt lat="46.14697" lon="1.88495">
        <ele>620</ele>
        <time>2016-12-24T16:11:09Z</time>
      </trkpt>
      <trkpt lat="46.14695" lon="1.88498">
        <ele>621</ele>
        <time>2016-12-24T16:13:09Z</time>
      </trkpt>
      <trkpt lat="46.14692" lon="1.885">
        <ele>621</ele>
        <time>2016-12-24T16:15:09Z</time>
      </trkpt>
      <trkpt lat="46.1469" lon="1.88503">
        <ele>621</ele>
        <time>2016-12-24T16:17:09Z</time>
      </trkpt>
      <trkpt lat="46.14688" lon="1.88506">
        <ele>621</ele>
        <time>2016-12-24T16:19:09Z</time>
      </trkpt>
      <trkpt lat="46.14685" lon="1.88508">
        <ele>622</ele>
        <time>2016-12-24T16:21:09Z</time>
      </trkpt>
      <trkpt lat="46.14682" lon="1.88509">
        <ele>622</ele>
        <time>2016-12-24T16:23:09Z</time>
      </trkpt>
      <trkpt lat="46.14679" lon="1.8851">
        <ele>623</ele>
        <time>2016-12-24T16:25:09Z</time>
      </trkpt>
      <trkpt lat="46.14671" lon="1.88519">
        <ele>624</ele>
        <time>2016-12-24T16:27:09Z</time>
      </trkpt>
      <trkpt lat="46.14664" lon="1.88523">
        <ele>625</ele>
        <time>2016-12-24T16:29:09Z</time>
      </trkpt>
      <trkpt lat="46.14662" lon="1.88523">
        <ele>625</ele>
        <time>2016-12-24T16:31:09Z</time>
      </trkpt>
      <trkpt lat="46.14653" lon="1.88531">
        <ele>626</ele>
        <time>2016-12-24T16:33:09Z</time>
      </trkpt>
      <trkpt lat="46.1465" lon="1.88536">
        <ele>626</ele>
        <time>2016-12-24T16:35:09Z</time>
      </trkpt>
      <trkpt lat="46.14648" lon="1.88538">
        <ele>626</ele>
        <time>2016-12-24T16:37:09Z</time>
      </trkpt>
      <trkpt lat="46.14645" lon="1.88541">
        <ele>626</ele>
        <time>2016-12-24T16:39:09Z</time>
      </trkpt>
      <trkpt lat="46.14642" lon="1.88544">
        <ele>626</ele>
        <time>2016-12-24T16:41:09Z</time>
      </trkpt>
      <trkpt lat="46.1464" lon="1.88548">
        <ele>626</ele>
        <time>2016-12-24T16:43:09Z</time>
      </trkpt>
      <trkpt lat="46.14637" lon="1.8855">
        <ele>626</ele>
        <time>2016-12-24T16:45:09Z</time>
      </trkpt>
      <trkpt lat="46.14634" lon="1.88552">
        <ele>627</ele>
        <time>2016-12-24T16:47:09Z</time>
      </trkpt>
      <trkpt lat="46.14626" lon="1.88554">
        <ele>628</ele>
        <time>2016-12-24T16:49:09Z</time>
      </trkpt>
      <trkpt lat="46.14626" lon="1.88556">
        <ele>628</ele>
        <time>2016-12-24T16:51:09Z</time>
      </trkpt>
      <trkpt lat="46.14624" lon="1.88558">
        <ele>628</ele>
        <time>2016-12-24T16:53:09Z</time>
      </trkpt>
      <trkpt lat="46.14622" lon="1.8856">
        <ele>628</ele>
        <time>2016-12-24T16:55:09Z</time>
      </trkpt>
      <trkpt lat="46.1462" lon="1.88563">
        <ele>628</ele>
        <time>2016-12-24T16:57:09Z</time>
      </trkpt>
      <trkpt lat="46.14618" lon="1.88565">
        <ele>628</ele>
        <time>2016-12-24T16:59:09Z</time>
      </trkpt>
      <trkpt lat="46.14616" lon="1.88567">
        <ele>629</ele>
        <time>2016-12-24T17:01:09Z</time>
      </trkpt>
      <trkpt lat="46.14614" lon="1.88568">
        <ele>629</ele>
        <time>2016-12-24T17:03:09Z</time>
      </trkpt>
      <trkpt lat="46.14611" lon="1.88569">
        <ele>629</ele>
        <time>2016-12-24T17:05:09Z</time>
      </trkpt>
      <trkpt lat="46.14604" lon="1.88574">
        <ele>630</ele>
        <time>2016-12-24T17:07:09Z</time>
      </trkpt>
      <trkpt lat="46.14602" lon="1.88575">
        <ele>631</ele>
        <time>2016-12-24T17:09:09Z</time>
      </trkpt>
      <trkpt lat="46.14597" lon="1.88577">
        <ele>632</ele>
        <time>2016-12-24T17:11:09Z</time>
      </trkpt>
      <trkpt lat="46.1459" lon="1.88585">
        <ele>632</ele>
        <time>2016-12-24T17:13:09Z</time>
      </trkpt>
      <trkpt lat="46.14586" lon="1.8859">
        <ele>632</ele>
        <time>2016-12-24T17:15:09Z</time>
      </trkpt>
      <trkpt lat="46.14558" lon="1.88622">
        <ele>630</ele>
        <time>2016-12-24T17:17:09Z</time>
      </trkpt>
      <trkpt lat="46.14556" lon="1.88623">
        <ele>630</ele>
        <time>2016-12-24T17:19:09Z</time>
      </trkpt>
      <trkpt lat="46.14554" lon="1.88621">
        <ele>631</ele>
        <time>2016-12-24T17:21:09Z</time>
      </trkpt>
      <trkpt lat="46.14553" lon="1.88619">
        <ele>631</ele>
        <time>2016-12-24T17:23:09Z</time>
      </trkpt>
      <trkpt lat="46.14548" lon="1.88611">
        <ele>634</ele>
        <time>2016-12-24T17:25:09Z</time>
      </trkpt>
      <trkpt lat="46.14546" lon="1.88608">
        <ele>634</ele>
        <time>2016-12-24T17:27:09Z</time>
      </trkpt>
      <trkpt lat="46.14545" lon="1.88606">
        <ele>635</ele>
        <time>2016-12-24T17:29:09Z</time>
      </trkpt>
      <trkpt lat="46.14543" lon="1.88604">
        <ele>636</ele>
        <time>2016-12-24T17:31:09Z</time>
      </trkpt>
      <trkpt lat="46.14541" lon="1.886">
        <ele>636</ele>
        <time>2016-12-24T17:33:09Z</time>
      </trkpt>
      <trkpt lat="46.14539" lon="1.88598">
        <ele>637</ele>
        <time>2016-12-24T17:35:09Z</time>
      </trkpt>
      <trkpt lat="46.14535" lon="1.88591">
        <ele>639</ele>
        <time>2016-12-24T17:37:09Z</time>
      </trkpt>
      <trkpt lat="46.14534" lon="1.88589">
        <ele>639</ele>
        <time>2016-12-24T17:39:09Z</time>
      </trkpt>
      <trkpt lat="46.14532" lon="1.88587">
        <ele>640</ele>
        <time>2016-12-24T17:41:09Z</time>
      </trkpt>
      <trkpt lat="46.14528" lon="1.88583">
        <ele>641</ele>
        <time>2016-12-24T17:43:09Z</time>
      </trkpt>
      <trkpt lat="46.14527" lon="1.88581">
        <ele>641</ele>
        <time>2016-12-24T17:45:09Z</time>
      </trkpt>
      <trkpt lat="46.14517" lon="1.8857">
        <ele>642</ele>
        <time>2016-12-24T17:47:09Z</time>
      </trkpt>
      <trkpt lat="46.14516" lon="1.88565">
        <ele>643</ele>
        <time>2016-12-24T17:49:09Z</time>
      </trkpt>
      <trkpt lat="46.14515" lon="1.88564">
        <ele>643</ele>
        <time>2016-12-24T17:51:09Z</time>
      </trkpt>
      <trkpt lat="46.14513" lon="1.88562">
        <ele>643</ele>
        <time>2016-12-24T17:53:09Z</time>
      </trkpt>
      <trkpt lat="46.14509" lon="1.88557">
        <ele>644</ele>
        <time>2016-12-24T17:55:09Z</time>
      </trkpt>
      <trkpt lat="46.14508" lon="1.88554">
        <ele>644</ele>
        <time>2016-12-24T17:57:09Z</time>
      </trkpt>
      <trkpt lat="46.14507" lon="1.88551">
        <ele>644</ele>
        <time>2016-12-24T17:59:09Z</time>
      </trkpt>
      <trkpt lat="46.14507" lon="1.88547">
        <ele>644</ele>
        <time>2016-12-24T18:01:09Z</time>
      </trkpt>
      <trkpt lat="46.14508" lon="1.88543">
        <ele>644</ele>
        <time>2016-12-24T18:03:09Z</time>
      </trkpt>
      <trkpt lat="46.14509" lon="1.8854">
        <ele>644</ele>
        <time>2016-12-24T18:05:09Z</time>
      </trkpt>
      <trkpt lat="46.14514" lon="1.8853">
        <ele>644</ele>
        <time>2016-12-24T18:07:09Z</time>
      </trkpt>
      <trkpt lat="46.14519" lon="1.88517">
        <ele>644</ele>
        <time>2016-12-24T18:09:09Z</time>
      </trkpt>
      <trkpt lat="46.14522" lon="1.88515">
        <ele>644</ele>
        <time>2016-12-24T18:11:09Z</time>
      </trkpt>
      <trkpt lat="46.14528" lon="1.88513">
        <ele>644</ele>
        <time>2016-12-24T18:13:09Z</time>
      </trkpt>
      <trkpt lat="46.14532" lon="1.88511">
        <ele>644</ele>
        <time>2016-12-24T18:15:09Z</time>
      </trkpt>
      <trkpt lat="46.14538" lon="1.8851">
        <ele>644</ele>
        <time>2016-12-24T18:17:09Z</time>
      </trkpt>
      <trkpt lat="46.14546" lon="1.88504">
        <ele>644</ele>
        <time>2016-12-24T18:19:09Z</time>
      </trkpt>
      <trkpt lat="46.1455" lon="1.88497">
        <ele>643</ele>
        <time>2016-12-24T18:21:09Z</time>
      </trkpt>
      <trkpt lat="46.14563" lon="1.88467">
        <ele>642</ele>
        <time>2016-12-24T18:23:09Z</time>
      </trkpt>
      <trkpt lat="46.14568" lon="1.88467">
        <ele>642</ele>
        <time>2016-12-24T18:25:09Z</time>
      </trkpt>
      <trkpt lat="46.14571" lon="1.88466">
        <ele>641</ele>
        <time>2016-12-24T18:27:09Z</time>
      </trkpt>
      <trkpt lat="46.14575" lon="1.88462">
        <ele>641</ele>
        <time>2016-12-24T18:29:09Z</time>
      </trkpt>
      <trkpt lat="46.14579" lon="1.88457">
        <ele>641</ele>
        <time>2016-12-24T18:31:09Z</time>
      </trkpt>
      <trkpt lat="46.14583" lon="1.88454">
        <ele>641</ele>
        <time>2016-12-24T18:33:09Z</time>
      </trkpt>
      <trkpt lat="46.14587" lon="1.88454">
        <ele>640</ele>
        <time>2016-12-24T18:35:09Z</time>
      </trkpt>
      <trkpt lat="46.14592" lon="1.88454">
        <ele>640</ele>
        <time>2016-12-24T18:37:09Z</time>
      </trkpt>
      <trkpt lat="46.14597" lon="1.88452">
        <ele>639</ele>
        <time>2016-12-24T18:39:09Z</time>
      </trkpt>
      <trkpt lat="46.146" lon="1.88448">
        <ele>639</ele>
        <time>2016-12-24T18:41:09Z</time>
      </trkpt>
      <trkpt lat="46.14607" lon="1.8844">
        <ele>638</ele>
        <time>2016-12-24T18:43:09Z</time>
      </trkpt>
      <trkpt lat="46.14609" lon="1.88436">
        <ele>638</ele>
        <time>2016-12-24T18:45:09Z</time>
      </trkpt>
      <trkpt lat="46.14611" lon="1.8843">
        <ele>638</ele>
        <time>2016-12-24T18:47:09Z</time>
      </trkpt>
      <trkpt lat="46.14619" lon="1.88399">
        <ele>636</ele>
        <time>2016-12-24T18:49:09Z</time>
      </trkpt>
      <trkpt lat="46.14621" lon="1.88395">
        <ele>636</ele>
        <time>2016-12-24T18:51:09Z</time>
      </trkpt>
      <trkpt lat="46.14623" lon="1.88391">
        <ele>635</ele>
        <time>2016-12-24T18:53:09Z</time>
      </trkpt>
      <trkpt lat="46.14631" lon="1.8838">
        <ele>634</ele>
        <time>2016-12-24T18:55:09Z</time>
      </trkpt>
      <trkpt lat="46.14642" lon="1.88366">
        <ele>633</ele>
        <time>2016-12-24T18:57:09Z</time>
      </trkpt>
      <trkpt lat="46.14648" lon="1.88359">
        <ele>633</ele>
        <time>2016-12-24T18:59:09Z</time>
      </trkpt>
      <trkpt lat="46.14654" lon="1.88351">
        <ele>632</ele>
        <time>2016-12-24T19:01:09Z</time>
      </trkpt>
      <trkpt lat="46.14659" lon="1.88344">
        <ele>632</ele>
        <time>2016-12-24T19:03:09Z</time>
      </trkpt>
      <trkpt lat="46.14663" lon="1.88335">
        <ele>632</ele>
        <time>2016-12-24T19:05:09Z</time>
      </trkpt>
      <trkpt lat="46.14666" lon="1.88325">
        <ele>632</ele>
        <time>2016-12-24T19:07:09Z</time>
      </trkpt>
      <trkpt lat="46.14669" lon="1.88316">
        <ele>631</ele>
        <time>2016-12-24T19:09:09Z</time>
      </trkpt>
      <trkpt lat="46.14675" lon="1.88294">
        <ele>629</ele>
        <time>2016-12-24T19:11:09Z</time>
      </trkpt>
      <trkpt lat="46.14677" lon="1.88288">
        <ele>629</ele>
        <time>2016-12-24T19:13:09Z</time>
      </trkpt>
      <trkpt lat="46.14681" lon="1.88281">
        <ele>628</ele>
        <time>2016-12-24T19:15:09Z</time>
      </trkpt>
      <trkpt lat="46.14684" lon="1.88272">
        <ele>627</ele>
        <time>2016-12-24T19:17:09Z</time>
      </trkpt>
      <trkpt lat="46.14686" lon="1.88263">
        <ele>627</ele>
        <time>2016-12-24T19:19:09Z</time>
      </trkpt>
      <trkpt lat="46.14687" lon="1.88252">
        <ele>626</ele>
        <time>2016-12-24T19:21:09Z</time>
      </trkpt>
      <trkpt lat="46.14687" lon="1.88242">
        <ele>626</ele>
        <time>2016-12-24T19:23:09Z</time>
      </trkpt>
      <trkpt lat="46.14686" lon="1.88234">
        <ele>626</ele>
        <time>2016-12-24T19:25:09Z</time>
      </trkpt>
      <trkpt lat="46.14685" lon="1.88225">
        <ele>625</ele>
        <time>2016-12-24T19:27:09Z</time>
      </trkpt>
      <trkpt lat="46.14684" lon="1.88216">
        <ele>625</ele>
        <time>2016-12-24T19:29:09Z</time>
      </trkpt>
      <trkpt lat="46.14682" lon="1.88207">
        <ele>625</ele>
        <time>2016-12-24T19:31:09Z</time>
      </trkpt>
      <trkpt lat="46.14681" lon="1.88198">
        <ele>624</ele>
        <time>2016-12-24T19:33:09Z</time>
      </trkpt>
      <trkpt lat="46.14681" lon="1.88182">
        <ele>624</ele>
        <time>2016-12-24T19:35:09Z</time>
      </trkpt>
      <trkpt lat="46.14681" lon="1.88176">
        <ele>624</ele>
        <time>2016-12-24T19:37:09Z</time>
      </trkpt>
      <trkpt lat="46.14681" lon="1.8817">
        <ele>623</ele>
        <time>2016-12-24T19:39:09Z</time>
      </trkpt>
      <trkpt lat="46.1468" lon="1.88156">
        <ele>624</ele>
        <time>2016-12-24T19:41:09Z</time>
      </trkpt>
      <trkpt lat="46.14679" lon="1.8815">
        <ele>624</ele>
        <time>2016-12-24T19:43:09Z</time>
      </trkpt>
      <trkpt lat="46.1468" lon="1.88143">
        <ele>625</ele>
        <time>2016-12-24T19:45:09Z</time>
      </trkpt>
      <trkpt lat="46.14682" lon="1.88123">
        <ele>625</ele>
        <time>2016-12-24T19:47:09Z</time>
      </trkpt>
      <trkpt lat="46.14682" lon="1.88118">
        <ele>626</ele>
        <time>2016-12-24T19:49:09Z</time>
      </trkpt>
      <trkpt lat="46.14682" lon="1.88118">
        <ele>626</ele>
        <time>2016-12-24T19:51:09Z</time>
      </trkpt>
      <trkpt lat="46.14681" lon="1.88118">
        <ele>626</ele>
        <time>2016-12-24T19:53:09Z</time>
      </trkpt>
      <trkpt lat="46.14679" lon="1.88123">
        <ele>626</ele>
        <time>2016-12-24T19:55:09Z</time>
      </trkpt>
      <trkpt lat="46.14677" lon="1.88124">
        <ele>626</ele>
        <time>2016-12-24T19:57:09Z</time>
      </trkpt>
      <trkpt lat="46.14674" lon="1.88124">
        <ele>627</ele>
        <time>2016-12-24T19:59:09Z</time>
      </trkpt>
      <trkpt lat="46.14674" lon="1.88115">
        <ele>628</ele>
        <time>2016-12-24T20:01:09Z</time>
      </trkpt>
      <trkpt lat="46.14674" lon="1.88107">
        <ele>628</ele>
        <time>2016-12-24T20:03:09Z</time>
      </trkpt>
      <trkpt lat="46.14674" lon="1.88104">
        <ele>629</ele>
        <time>2016-12-24T20:05:09Z</time>
      </trkpt>
      <trkpt lat="46.14675" lon="1.881">
        <ele>629</ele>
        <time>2016-12-24T20:07:09Z</time>
      </trkpt>
      <trkpt lat="46.14676" lon="1.88094">
        <ele>629</ele>
        <time>2016-12-24T20:09:09Z</time>
      </trkpt>
      <trkpt lat="46.14677" lon="1.88092">
        <ele>629</ele>
        <time>2016-12-24T20:11:09Z</time>
      </trkpt>
      <trkpt lat="46.14681" lon="1.88079">
        <ele>628</ele>
        <time>2016-12-24T20:13:09Z</time>
      </trkpt>
      <trkpt lat="46.14683" lon="1.88069">
        <ele>627</ele>
        <time>2016-12-24T20:15:09Z</time>
      </trkpt>
      <trkpt lat="46.14682" lon="1.88054">
        <ele>626</ele>
        <time>2016-12-24T20:17:09Z</time>
      </trkpt>
      <trkpt lat="46.14677" lon="1.8804">
        <ele>627</ele>
        <time>2016-12-24T20:19:09Z</time>
      </trkpt>
      <trkpt lat="46.1467" lon="1.88024">
        <ele>628</ele>
        <time>2016-12-24T20:21:09Z</time>
      </trkpt>
      <trkpt lat="46.14667" lon="1.8801">
        <ele>628</ele>
        <time>2016-12-24T20:23:09Z</time>
      </trkpt>
      <trkpt lat="46.14666" lon="1.88004">
        <ele>627</ele>
        <time>2016-12-24T20:25:09Z</time>
      </trkpt>
      <trkpt lat="46.14666" lon="1.87998">
        <ele>627</ele>
        <time>2016-12-24T20:27:09Z</time>
      </trkpt>
      <trkpt lat="46.14666" lon="1.87992">
        <ele>626</ele>
        <time>2016-12-24T20:29:09Z</time>
      </trkpt>
      <trkpt lat="46.14667" lon="1.87984">
        <ele>625</ele>
        <time>2016-12-24T20:31:09Z</time>
      </trkpt>
      <trkpt lat="46.14667" lon="1.87979">
        <ele>624</ele>
        <time>2016-12-24T20:33:09Z</time>
      </trkpt>
      <trkpt lat="46.14669" lon="1.87974">
        <ele>623</ele>
        <time>2016-12-24T20:35:09Z</time>
      </trkpt>
      <trkpt lat="46.1467" lon="1.87969">
        <ele>622</ele>
        <time>2016-12-24T20:37:09Z</time>
      </trkpt>
      <trkpt lat="46.1467" lon="1.87965">
        <ele>621</ele>
        <time>2016-12-24T20:39:09Z</time>
      </trkpt>
      <trkpt lat="46.14669" lon="1.8796">
        <ele>621</ele>
        <time>2016-12-24T20:41:09Z</time>
      </trkpt>
      <trkpt lat="46.14665" lon="1.87951">
        <ele>620</ele>
        <time>2016-12-24T20:43:09Z</time>
      </trkpt>
      <trkpt lat="46.14663" lon="1.87946">
        <ele>619</ele>
        <time>2016-12-24T20:45:09Z</time>
      </trkpt>
      <trkpt lat="46.14662" lon="1.8794">
        <ele>618</ele>
        <time>2016-12-24T20:47:09Z</time>
      </trkpt>
      <trkpt lat="46.14662" lon="1.87938">
        <ele>618</ele>
        <time>2016-12-24T20:49:09Z</time>
      </trkpt>
      <trkpt lat="46.1466" lon="1.87933">
        <ele>617</ele>
        <time>2016-12-24T20:51:09Z</time>
      </trkpt>
      <trkpt lat="46.1466" lon="1.8793">
        <ele>617</ele>
        <time>2016-12-24T20:53:09Z</time>
      </trkpt>
      <trkpt lat="46.1466" lon="1.87918">
        <ele>615</ele>
        <time>2016-12-24T20:55:09Z</time>
      </trkpt>
      <trkpt lat="46.14659" lon="1.87915">
        <ele>614</ele>
        <time>2016-12-24T20:57:09Z</time>
      </trkpt>
      <trkpt lat="46.14661" lon="1.87912">
        <ele>614</ele>
        <time>2016-12-24T20:59:09Z</time>
      </trkpt>
      <trkpt lat="46.14664" lon="1.87907">
        <ele>613</ele>
        <time>2016-12-24T21:01:09Z</time>
      </trkpt>
      <trkpt lat="46.14666" lon="1.87902">
        <ele>613</ele>
        <time>2016-12-24T21:03:09Z</time>
      </trkpt>
      <trkpt lat="46.14666" lon="1.87898">
        <ele>612</ele>
        <time>2016-12-24T21:05:09Z</time>
      </trkpt>
      <trkpt lat="46.14664" lon="1.87881">
        <ele>610</ele>
        <time>2016-12-24T21:07:09Z</time>
      </trkpt>
      <trkpt lat="46.14663" lon="1.87878">
        <ele>609</ele>
        <time>2016-12-24T21:09:09Z</time>
      </trkpt>
      <trkpt lat="46.14664" lon="1.87874">
        <ele>609</ele>
        <time>2016-12-24T21:11:09Z</time>
      </trkpt>
      <trkpt lat="46.14665" lon="1.87871">
        <ele>608</ele>
        <time>2016-12-24T21:13:09Z</time>
      </trkpt>
      <trkpt lat="46.14666" lon="1.87868">
        <ele>608</ele>
        <time>2016-12-24T21:15:09Z</time>
      </trkpt>
      <trkpt lat="46.14667" lon="1.87865">
        <ele>608</ele>
        <time>2016-12-24T21:17:09Z</time>
      </trkpt>
      <trkpt lat="46.14673" lon="1.87859">
        <ele>606</ele>
        <time>2016-12-24T21:19:09Z</time>
      </trkpt>
      <trkpt lat="46.14681" lon="1.87855">
        <ele>604</ele>
        <time>2016-12-24T21:21:09Z</time>
      </trkpt>
      <trkpt lat="46.14684" lon="1.87853">
        <ele>604</ele>
        <time>2016-12-24T21:23:09Z</time>
      </trkpt>
      <trkpt lat="46.14695" lon="1.87854">
        <ele>603</ele>
        <time>2016-12-24T21:25:09Z</time>
      </trkpt>
      <trkpt lat="46.14701" lon="1.87856">
        <ele>602</ele>
        <time>2016-12-24T21:27:09Z</time>
      </trkpt>
      <trkpt lat="46.14705" lon="1.87853">
        <ele>601</ele>
        <time>2016-12-24T21:29:09Z</time>
      </trkpt>
      <trkpt lat="46.14709" lon="1.87848">
        <ele>600</ele>
        <time>2016-12-24T21:31:09Z</time>
      </trkpt>
      <trkpt lat="46.1472" lon="1.87842">
        <ele>598</ele>
        <time>2016-12-24T21:33:09Z</time>
      </trkpt>
      <trkpt lat="46.14724" lon="1.8784">
        <ele>597</ele>
        <time>2016-12-24T21:35:09Z</time>
      </trkpt>
      <trkpt lat="46.14727" lon="1.8784">
        <ele>597</ele>
        <time>2016-12-24T21:37:09Z</time>
      </trkpt>
      <trkpt lat="46.1473" lon="1.8784">
        <ele>596</ele>
        <time>2016-12-24T21:39:09Z</time>
      </trkpt>
      <trkpt lat="46.14733" lon="1.8784">
        <ele>596</ele>
        <time>2016-12-24T21:41:09Z</time>
      </trkpt>
      <trkpt lat="46.14735" lon="1.87842">
        <ele>596</ele>
        <time>2016-12-24T21:43:09Z</time>
      </trkpt>
      <trkpt lat="46.14739" lon="1.87844">
        <ele>596</ele>
        <time>2016-12-24T21:45:09Z</time>
      </trkpt>
      <trkpt lat="46.14742" lon="1.87846">
        <ele>596</ele>
        <time>2016-12-24T21:47:09Z</time>
      </trkpt>
      <trkpt lat="46.14747" lon="1.87848">
        <ele>595</ele>
        <time>2016-12-24T21:49:09Z</time>
      </trkpt>
      <trkpt lat="46.14751" lon="1.87851">
        <ele>595</ele>
        <time>2016-12-24T21:51:09Z</time>
      </trkpt>
      <trkpt lat="46.14758" lon="1.87852">
        <ele>594</ele>
        <time>2016-12-24T21:53:09Z</time>
      </trkpt>
      <trkpt lat="46.14771" lon="1.87856">
        <ele>592</ele>
        <time>2016-12-24T21:55:09Z</time>
      </trkpt>
      <trkpt lat="46.14777" lon="1.87857">
        <ele>591</ele>
        <time>2016-12-24T21:57:09Z</time>
      </trkpt>
      <trkpt lat="46.14793" lon="1.87862">
        <ele>588</ele>
        <time>2016-12-24T21:59:09Z</time>
      </trkpt>
      <trkpt lat="46.14797" lon="1.87863">
        <ele>587</ele>
        <time>2016-12-24T22:01:09Z</time>
      </trkpt>
      <trkpt lat="46.14804" lon="1.87868">
        <ele>587</ele>
        <time>2016-12-24T22:03:09Z</time>
      </trkpt>
      <trkpt lat="46.1481" lon="1.87871">
        <ele>586</ele>
        <time>2016-12-24T22:05:09Z</time>
      </trkpt>
      <trkpt lat="46.14816" lon="1.87874">
        <ele>585</ele>
        <time>2016-12-24T22:07:09Z</time>
      </trkpt>
      <trkpt lat="46.14821" lon="1.87875">
        <ele>584</ele>
        <time>2016-12-24T22:09:09Z</time>
      </trkpt>
      <trkpt lat="46.14824" lon="1.87869">
        <ele>582</ele>
        <time>2016-12-24T22:11:09Z</time>
      </trkpt>
      <trkpt lat="46.14828" lon="1.87863">
        <ele>581</ele>
        <time>2016-12-24T22:13:09Z</time>
      </trkpt>
      <trkpt lat="46.14829" lon="1.87857">
        <ele>580</ele>
        <time>2016-12-24T22:15:09Z</time>
      </trkpt>
      <trkpt lat="46.14832" lon="1.8785">
        <ele>579</ele>
        <time>2016-12-24T22:17:09Z</time>
      </trkpt>
      <trkpt lat="46.14834" lon="1.87844">
        <ele>578</ele>
        <time>2016-12-24T22:19:09Z</time>
      </trkpt>
      <trkpt lat="46.14836" lon="1.87837">
        <ele>577</ele>
        <time>2016-12-24T22:21:09Z</time>
      </trkpt>
      <trkpt lat="46.14839" lon="1.87831">
        <ele>576</ele>
        <time>2016-12-24T22:23:09Z</time>
      </trkpt>
      <trkpt lat="46.14842" lon="1.87829">
        <ele>575</ele>
        <time>2016-12-24T22:25:09Z</time>
      </trkpt>
      <trkpt lat="46.1485" lon="1.87834">
        <ele>574</ele>
        <time>2016-12-24T22:27:09Z</time>
      </trkpt>
      <trkpt lat="46.14853" lon="1.87835">
        <ele>574</ele>
        <time>2016-12-24T22:29:09Z</time>
      </trkpt>
      <trkpt lat="46.14862" lon="1.87843">
        <ele>573</ele>
        <time>2016-12-24T22:31:09Z</time>
      </trkpt>
      <trkpt lat="46.14868" lon="1.8785">
        <ele>573</ele>
        <time>2016-12-24T22:33:09Z</time>
      </trkpt>
      <trkpt lat="46.14875" lon="1.87861">
        <ele>572</ele>
        <time>2016-12-24T22:35:09Z</time>
      </trkpt>
      <trkpt lat="46.14878" lon="1.87863">
        <ele>572</ele>
        <time>2016-12-24T22:37:09Z</time>
      </trkpt>
      <trkpt lat="46.1488" lon="1.8786">
        <ele>571</ele>
        <time>2016-12-24T22:39:09Z</time>
      </trkpt>
      <trkpt lat="46.14883" lon="1.87857">
        <ele>571</ele>
        <time>2016-12-24T22:41:09Z</time>
      </trkpt>
      <trkpt lat="46.14887" lon="1.87851">
        <ele>570</ele>
        <time>2016-12-24T22:43:09Z</time>
      </trkpt>
      <trkpt lat="46.14889" lon="1.87847">
        <ele>569</ele>
        <time>2016-12-24T22:45:09Z</time>
      </trkpt>
      <trkpt lat="46.14893" lon="1.87836">
        <ele>568</ele>
        <time>2016-12-24T22:47:09Z</time>
      </trkpt>
      <trkpt lat="46.14896" lon="1.87831">
        <ele>567</ele>
        <time>2016-12-24T22:49:09Z</time>
      </trkpt>
      <trkpt lat="46.14902" lon="1.87817">
        <ele>565</ele>
        <time>2016-12-24T22:51:09Z</time>
      </trkpt>
      <trkpt lat="46.14907" lon="1.8781">
        <ele>563</ele>
        <time>2016-12-24T22:53:09Z</time>
      </trkpt>
      <trkpt lat="46.14911" lon="1.87803">
        <ele>562</ele>
        <time>2016-12-24T22:55:09Z</time>
      </trkpt>
      <trkpt lat="46.14916" lon="1.87797">
        <ele>561</ele>
        <time>2016-12-24T22:57:09Z</time>
      </trkpt>
      <trkpt lat="46.14921" lon="1.8779">
        <ele>560</ele>
        <time>2016-12-24T22:59:09Z</time>
      </trkpt>
      <trkpt lat="46.14927" lon="1.87784">
        <ele>560</ele>
        <time>2016-12-24T23:01:09Z</time>
      </trkpt>
      <trkpt lat="46.14932" lon="1.87779">
        <ele>559</ele>
        <time>2016-12-24T23:03:09Z</time>
      </trkpt>
      <trkpt lat="46.14946" lon="1.87773">
        <ele>558</ele>
        <time>2016-12-24T23:05:09Z</time>
      </trkpt>
      <trkpt lat="46.1497" lon="1.87769">
        <ele>558</ele>
        <time>2016-12-24T23:07:09Z</time>
      </trkpt>
      <trkpt lat="46.14979" lon="1.87769">
        <ele>558</ele>
        <time>2016-12-24T23:09:09Z</time>
      </trkpt>
      <trkpt lat="46.14987" lon="1.87771">
        <ele>558</ele>
        <time>2016-12-24T23:11:09Z</time>
      </trkpt>
      <trkpt lat="46.14995" lon="1.87772">
        <ele>558</ele>
        <time>2016-12-24T23:13:09Z</time>
      </trkpt>
      <trkpt lat="46.15013" lon="1.87772">
        <ele>556</ele>
        <time>2016-12-24T23:15:09Z</time>
      </trkpt>
      <trkpt lat="46.15022" lon="1.8777">
        <ele>555</ele>
        <time>2016-12-24T23:17:09Z</time>
      </trkpt>
      <trkpt lat="46.15035" lon="1.87759">
        <ele>553</ele>
        <time>2016-12-24T23:19:09Z</time>
      </trkpt>
      <trkpt lat="46.15041" lon="1.87744">
        <ele>551</ele>
        <time>2016-12-24T23:21:09Z</time>
      </trkpt>
      <trkpt lat="46.15049" lon="1.87733">
        <ele>550</ele>
        <time>2016-12-24T23:23:09Z</time>
      </trkpt>
      <trkpt lat="46.15055" lon="1.87726">
        <ele>549</ele>
        <time>2016-12-24T23:25:09Z</time>
      </trkpt>
      <trkpt lat="46.1506" lon="1.87718">
        <ele>549</ele>
        <time>2016-12-24T23:27:09Z</time>
      </trkpt>
      <trkpt lat="46.15061" lon="1.8771">
        <ele>549</ele>
        <time>2016-12-24T23:29:09Z</time>
      </trkpt>
      <trkpt lat="46.15061" lon="1.87702">
        <ele>548</ele>
        <time>2016-12-24T23:31:09Z</time>
      </trkpt>
      <trkpt lat="46.1506" lon="1.87673">
        <ele>548</ele>
        <time>2016-12-24T23:33:09Z</time>
      </trkpt>
      <trkpt lat="46.15051" lon="1.87639">
        <ele>548</ele>
        <time>2016-12-24T23:35:09Z</time>
      </trkpt>
      <trkpt lat="46.15048" lon="1.8762">
        <ele>548</ele>
        <time>2016-12-24T23:37:09Z</time>
      </trkpt>
      <trkpt lat="46.15048" lon="1.87617">
        <ele>548</ele>
        <time>2016-12-24T23:39:09Z</time>
      </trkpt>
      <trkpt lat="46.15048" lon="1.87617">
        <ele>548</ele>
        <time>2016-12-24T23:41:09Z</time>
      </trkpt>
      <trkpt lat="46.15083" lon="1.87563">
        <ele>547</ele>
        <time>2016-12-24T23:43:09Z</time>
      </trkpt>
      <trkpt lat="46.15176" lon="1.87557">
        <ele>547</ele>
        <time>2016-12-24T23:45:09Z</time>
      </trkpt>
      <trkpt lat="46.15217" lon="1.87432">
        <ele>549</ele>
        <time>2016-12-24T23:47:09Z</time>
      </trkpt>
      <trkpt lat="46.1528" lon="1.87334">
        <ele>547</ele>
        <time>2016-12-24T23:49:09Z</time>
      </trkpt>
      <trkpt lat="46.15343" lon="1.87327">
        <ele>546</ele>
        <time>2016-12-24T23:51:09Z</time>
      </trkpt>
      <trkpt lat="46.15376" lon="1.87291">
        <ele>544</ele>
        <time>2016-12-24T23:53:09Z</time>
      </trkpt>
      <trkpt lat="46.15381" lon="1.87204">
        <ele>542</ele>
        <time>2016-12-24T23:55:09Z</time>
      </trkpt>
      <trkpt lat="46.15436" lon="1.87034">
        <ele>528</ele>
        <time>2016-12-24T23:57:09Z</time>
      </trkpt>
      <trkpt lat="46.15489" lon="1.86789">
        <ele>520</ele>
        <time>2016-12-24T23:59:09Z</time>
      </trkpt>
      <trkpt lat="46.15507" lon="1.86756">
        <ele>521</ele>
        <time>2016-12-25T00:01:09Z</time>
      </trkpt>
      <trkpt lat="46.15547" lon="1.86743">
        <ele>520</ele>
        <time>2016-12-25T00:03:09Z</time>
      </trkpt>
      <trkpt lat="46.15592" lon="1.86775">
        <ele>519</ele>
        <time>2016-12-25T00:05:09Z</time>
      </trkpt>
      <trkpt lat="46.15732" lon="1.86852">
        <ele>515</ele>
        <time>2016-12-25T00:07:09Z</time>
      </trkpt>
      <trkpt lat="46.15817" lon="1.86799">
        <ele>517</ele>
        <time>2016-12-25T00:09:09Z</time>
      </trkpt>
      <trkpt lat="46.15922" lon="1.86742">
        <ele>529</ele>
        <time>2016-12-25T00:11:09Z</time>
      </trkpt>
      <trkpt lat="46.15992" lon="1.86687">
        <ele>541</ele>
        <time>2016-12-25T00:13:09Z</time>
      </trkpt>
      <trkpt lat="46.16058" lon="1.86554">
        <ele>545</ele>
        <time>2016-12-25T00:15:09Z</time>
      </trkpt>
      <trkpt lat="46.16158" lon="1.86447">
        <ele>546</ele>
        <time>2016-12-25T00:17:09Z</time>
      </trkpt>
      <trkpt lat="46.162" lon="1.86377">
        <ele>542</ele>
        <time>2016-12-25T00:19:09Z</time>
      </trkpt>
      <trkpt lat="46.16269" lon="1.86368">
        <ele>548</ele>
        <time>2016-12-25T00:21:09Z</time>
      </trkpt>
      <trkpt lat="46.164" lon="1.86346">
        <ele>539</ele>
        <time>2016-12-25T00:23:09Z</time>
      </trkpt>
      <trkpt lat="46.16505" lon="1.86366">
        <ele>525</ele>
        <time>2016-12-25T00:25:09Z</time>
      </trkpt>
      <trkpt lat="46.16641" lon="1.86414">
        <ele>514</ele>
        <time>2016-12-25T00:27:09Z</time>
      </trkpt>
      <trkpt lat="46.16692" lon="1.86435">
        <ele>509</ele>
        <time>2016-12-25T00:29:09Z</time>
      </trkpt>
      <trkpt lat="46.1673" lon="1.86462">
        <ele>506</ele>
        <time>2016-12-25T00:31:09Z</time>
      </trkpt>
      <trkpt lat="46.16745" lon="1.86503">
        <ele>506</ele>
        <time>2016-12-25T00:33:09Z</time>
      </trkpt>
      <trkpt lat="46.16763" lon="1.86615">
        <ele>500</ele>
        <time>2016-12-25T00:35:09Z</time>
      </trkpt>
      <trkpt lat="46.16751" lon="1.86643">
        <ele>501</ele>
        <time>2016-12-25T00:37:09Z</time>
      </trkpt>
      <trkpt lat="46.16735" lon="1.86646">
        <ele>502</ele>
        <time>2016-12-25T00:39:09Z</time>
      </trkpt>
    </trkseg>
  </trk>
</gpx>